<?xml version='1.0' encoding='UTF-8'?><gpx version="1.1" creator="JPX - https://github.com/jenetics/jpx" xmlns="http://www.topografix.com/GPX/1/1"><trk><trkseg><trkpt lat="43.4003235" lon="10.8578565"><ele>486.0</ele><time>2026-04-04T11:09:32.931Z</time></trkpt><trkpt lat="43.4003148" lon="10.8579498"><ele>486.0</ele><time>2026-04-04T11:09:50.931Z</time></trkpt><trkpt lat="43.4003753" lon="10.8580052"><ele>486.0</ele><time>2026-04-04T11:09:53.932Z</time></trkpt><trkpt lat="43.4004505" lon="10.8580459"><ele>486.0</ele><time>2026-04-04T11:09:55.931Z</time></trkpt><trkpt lat="43.4005613" lon="10.858029"><ele>486.0</ele><time>2026-04-04T11:09:57.931Z</time></trkpt><trkpt lat="43.4006268" lon="10.8579801"><ele>486.0</ele><time>2026-04-04T11:09:58.931Z</time></trkpt><trkpt lat="43.4006929" lon="10.8579106"><ele>487.4</ele><time>2026-04-04T11:09:59.932Z</time></trkpt><trkpt lat="43.4007632" lon="10.8578207"><ele>488.8</ele><time>2026-04-04T11:10:00.931Z</time></trkpt><trkpt lat="43.4008387" lon="10.8577194"><ele>490.19999999999993</ele><time>2026-04-04T11:10:01.931Z</time></trkpt><trkpt lat="43.4009259" lon="10.8576102"><ele>491.59999999999997</ele><time>2026-04-04T11:10:02.931Z</time></trkpt><trkpt lat="43.4010177" lon="10.8574923"><ele>493.0</ele><time>2026-04-04T11:10:03.932Z</time></trkpt><trkpt lat="43.4011164" lon="10.8573675"><ele>493.0</ele><time>2026-04-04T11:10:04.931Z</time></trkpt><trkpt lat="43.4012171" lon="10.8572429"><ele>493.0</ele><time>2026-04-04T11:10:05.931Z</time></trkpt><trkpt lat="43.4013086" lon="10.8571278"><ele>493.0</ele><time>2026-04-04T11:10:06.931Z</time></trkpt><trkpt lat="43.4013918" lon="10.8570164"><ele>493.0</ele><time>2026-04-04T11:10:07.932Z</time></trkpt><trkpt lat="43.4014753" lon="10.8569045"><ele>494.25</ele><time>2026-04-04T11:10:08.931Z</time></trkpt><trkpt lat="43.4015645" lon="10.8567871"><ele>495.5</ele><time>2026-04-04T11:10:09.931Z</time></trkpt><trkpt lat="43.4016513" lon="10.8566632"><ele>496.75</ele><time>2026-04-04T11:10:10.931Z</time></trkpt><trkpt lat="43.4017385" lon="10.856548"><ele>498.0</ele><time>2026-04-04T11:10:11.931Z</time></trkpt><trkpt lat="43.4018335" lon="10.8564382"><ele>498.0</ele><time>2026-04-04T11:10:12.931Z</time></trkpt><trkpt lat="43.4019366" lon="10.8563392"><ele>498.0</ele><time>2026-04-04T11:10:13.931Z</time></trkpt><trkpt lat="43.4020449" lon="10.8562492"><ele>498.0</ele><time>2026-04-04T11:10:14.932Z</time></trkpt><trkpt lat="43.4021576" lon="10.8561772"><ele>498.0</ele><time>2026-04-04T11:10:15.931Z</time></trkpt><trkpt lat="43.4022749" lon="10.8561193"><ele>496.25</ele><time>2026-04-04T11:10:16.931Z</time></trkpt><trkpt lat="43.402392" lon="10.8560596"><ele>494.5</ele><time>2026-04-04T11:10:17.931Z</time></trkpt><trkpt lat="43.4025013" lon="10.8560062"><ele>492.75</ele><time>2026-04-04T11:10:18.931Z</time></trkpt><trkpt lat="43.4026006" lon="10.8559577"><ele>491.0</ele><time>2026-04-04T11:10:19.932Z</time></trkpt><trkpt lat="43.4026992" lon="10.8559138"><ele>491.0</ele><time>2026-04-04T11:10:20.931Z</time></trkpt><trkpt lat="43.4027887" lon="10.8558753"><ele>491.0</ele><time>2026-04-04T11:10:21.932Z</time></trkpt><trkpt lat="43.4028808" lon="10.8558399"><ele>491.0</ele><time>2026-04-04T11:10:22.932Z</time></trkpt><trkpt lat="43.4029696" lon="10.8557926"><ele>491.0</ele><time>2026-04-04T11:10:23.931Z</time></trkpt><trkpt lat="43.4030401" lon="10.8557149"><ele>491.0</ele><time>2026-04-04T11:10:24.931Z</time></trkpt><trkpt lat="43.403088" lon="10.8556085"><ele>493.0</ele><time>2026-04-04T11:10:25.932Z</time></trkpt><trkpt lat="43.4031223" lon="10.8554768"><ele>495.0</ele><time>2026-04-04T11:10:26.931Z</time></trkpt><trkpt lat="43.4031724" lon="10.8553374"><ele>497.0</ele><time>2026-04-04T11:10:27.931Z</time></trkpt><trkpt lat="43.4032516" lon="10.8552075"><ele>499.0</ele><time>2026-04-04T11:10:28.932Z</time></trkpt><trkpt lat="43.4033375" lon="10.8550764"><ele>499.0</ele><time>2026-04-04T11:10:29.931Z</time></trkpt><trkpt lat="43.4034175" lon="10.8549622"><ele>499.0</ele><time>2026-04-04T11:10:30.932Z</time></trkpt><trkpt lat="43.4034944" lon="10.8548624"><ele>499.0</ele><time>2026-04-04T11:10:31.931Z</time></trkpt><trkpt lat="43.4035688" lon="10.854777"><ele>499.0</ele><time>2026-04-04T11:10:32.932Z</time></trkpt><trkpt lat="43.4036362" lon="10.8546997"><ele>499.0</ele><time>2026-04-04T11:10:33.932Z</time></trkpt><trkpt lat="43.4037109" lon="10.8546387"><ele>499.00000000000006</ele><time>2026-04-04T11:10:34.932Z</time></trkpt><trkpt lat="43.4037855" lon="10.8545909"><ele>499.0</ele><time>2026-04-04T11:10:35.932Z</time></trkpt><trkpt lat="43.4038514" lon="10.8545743"><ele>499.0</ele><time>2026-04-04T11:10:36.932Z</time></trkpt><trkpt lat="43.4039172" lon="10.8546012"><ele>499.0</ele><time>2026-04-04T11:10:39.931Z</time></trkpt><trkpt lat="43.4039905" lon="10.8546703"><ele>499.00000000000006</ele><time>2026-04-04T11:10:43.931Z</time></trkpt><trkpt lat="43.4040558" lon="10.8547764"><ele>499.0</ele><time>2026-04-04T11:10:45.931Z</time></trkpt><trkpt lat="43.4041096" lon="10.8548446"><ele>500.7142857142858</ele><time>2026-04-04T11:10:47.931Z</time></trkpt><trkpt lat="43.4041609" lon="10.8549141"><ele>502.42857142857144</ele><time>2026-04-04T11:10:49.932Z</time></trkpt><trkpt lat="43.404237" lon="10.8550058"><ele>504.14285714285717</ele><time>2026-04-04T11:10:51.931Z</time></trkpt><trkpt lat="43.4043001" lon="10.8550277"><ele>505.8571428571429</ele><time>2026-04-04T11:10:52.932Z</time></trkpt><trkpt lat="43.4043613" lon="10.8550517"><ele>507.57142857142856</ele><time>2026-04-04T11:10:53.931Z</time></trkpt><trkpt lat="43.4044308" lon="10.8550625"><ele>509.2857142857143</ele><time>2026-04-04T11:10:54.932Z</time></trkpt><trkpt lat="43.4045017" lon="10.855064"><ele>511.0</ele><time>2026-04-04T11:10:55.931Z</time></trkpt><trkpt lat="43.4045721" lon="10.85506"><ele>511.0</ele><time>2026-04-04T11:10:56.931Z</time></trkpt><trkpt lat="43.4046426" lon="10.8550631"><ele>511.0</ele><time>2026-04-04T11:10:57.932Z</time></trkpt><trkpt lat="43.4047121" lon="10.8550694"><ele>511.0</ele><time>2026-04-04T11:10:58.931Z</time></trkpt><trkpt lat="43.4047791" lon="10.8550815"><ele>511.0</ele><time>2026-04-04T11:10:59.931Z</time></trkpt><trkpt lat="43.4048467" lon="10.8550942"><ele>511.0</ele><time>2026-04-04T11:11:00.931Z</time></trkpt><trkpt lat="43.4049187" lon="10.8551087"><ele>511.0</ele><time>2026-04-04T11:11:01.932Z</time></trkpt><trkpt lat="43.404988" lon="10.8551109"><ele>511.0</ele><time>2026-04-04T11:11:02.932Z</time></trkpt><trkpt lat="43.4050608" lon="10.8551098"><ele>510.33333333333337</ele><time>2026-04-04T11:11:03.931Z</time></trkpt><trkpt lat="43.4051423" lon="10.8551086"><ele>509.6666666666667</ele><time>2026-04-04T11:11:04.931Z</time></trkpt><trkpt lat="43.4052251" lon="10.8551183"><ele>509.0</ele><time>2026-04-04T11:11:05.932Z</time></trkpt><trkpt lat="43.4053126" lon="10.855115"><ele>508.33333333333337</ele><time>2026-04-04T11:11:06.932Z</time></trkpt><trkpt lat="43.4053922" lon="10.8550969"><ele>507.6666666666667</ele><time>2026-04-04T11:11:07.931Z</time></trkpt><trkpt lat="43.405463" lon="10.8550458"><ele>507.0</ele><time>2026-04-04T11:11:08.931Z</time></trkpt><trkpt lat="43.4055376" lon="10.8549726"><ele>504.40000000000003</ele><time>2026-04-04T11:11:09.931Z</time></trkpt><trkpt lat="43.4056149" lon="10.8548966"><ele>501.80000000000007</ele><time>2026-04-04T11:11:10.931Z</time></trkpt><trkpt lat="43.4056901" lon="10.85482"><ele>499.2</ele><time>2026-04-04T11:11:11.931Z</time></trkpt><trkpt lat="43.4057713" lon="10.8547403"><ele>496.6</ele><time>2026-04-04T11:11:12.931Z</time></trkpt><trkpt lat="43.4058606" lon="10.854659"><ele>494.0</ele><time>2026-04-04T11:11:13.932Z</time></trkpt><trkpt lat="43.4059541" lon="10.8545735"><ele>494.0</ele><time>2026-04-04T11:11:14.931Z</time></trkpt><trkpt lat="43.4060475" lon="10.8544881"><ele>494.0</ele><time>2026-04-04T11:11:15.931Z</time></trkpt><trkpt lat="43.4061438" lon="10.8543985"><ele>494.0</ele><time>2026-04-04T11:11:16.931Z</time></trkpt><trkpt lat="43.4062431" lon="10.8542981"><ele>494.0</ele><time>2026-04-04T11:11:17.931Z</time></trkpt><trkpt lat="43.4063426" lon="10.8542023"><ele>491.5</ele><time>2026-04-04T11:11:18.931Z</time></trkpt><trkpt lat="43.4064478" lon="10.8541125"><ele>489.0</ele><time>2026-04-04T11:11:19.931Z</time></trkpt><trkpt lat="43.4065639" lon="10.8540408"><ele>486.5</ele><time>2026-04-04T11:11:20.932Z</time></trkpt><trkpt lat="43.4066888" lon="10.8539877"><ele>484.0</ele><time>2026-04-04T11:11:21.932Z</time></trkpt><trkpt lat="43.406818" lon="10.8539472"><ele>484.0</ele><time>2026-04-04T11:11:22.932Z</time></trkpt><trkpt lat="43.4069442" lon="10.8539062"><ele>484.0</ele><time>2026-04-04T11:11:23.932Z</time></trkpt><trkpt lat="43.4070736" lon="10.8538686"><ele>484.0</ele><time>2026-04-04T11:11:24.932Z</time></trkpt><trkpt lat="43.4072006" lon="10.8538317"><ele>484.0</ele><time>2026-04-04T11:11:25.932Z</time></trkpt><trkpt lat="43.4073239" lon="10.8537935"><ele>482.75</ele><time>2026-04-04T11:11:26.932Z</time></trkpt><trkpt lat="43.4074443" lon="10.8537441"><ele>481.5</ele><time>2026-04-04T11:11:27.932Z</time></trkpt><trkpt lat="43.4075721" lon="10.8537035"><ele>480.25</ele><time>2026-04-04T11:11:28.931Z</time></trkpt><trkpt lat="43.4077027" lon="10.853669"><ele>479.0</ele><time>2026-04-04T11:11:29.931Z</time></trkpt><trkpt lat="43.4078254" lon="10.8536246"><ele>479.0</ele><time>2026-04-04T11:11:30.931Z</time></trkpt><trkpt lat="43.4079421" lon="10.8535763"><ele>479.0</ele><time>2026-04-04T11:11:31.931Z</time></trkpt><trkpt lat="43.4080536" lon="10.8535219"><ele>479.0</ele><time>2026-04-04T11:11:32.932Z</time></trkpt><trkpt lat="43.4081581" lon="10.853451"><ele>479.0</ele><time>2026-04-04T11:11:33.932Z</time></trkpt><trkpt lat="43.4082417" lon="10.8533649"><ele>477.99999999999994</ele><time>2026-04-04T11:11:34.932Z</time></trkpt><trkpt lat="43.4083019" lon="10.8532855"><ele>477.0</ele><time>2026-04-04T11:11:35.932Z</time></trkpt><trkpt lat="43.4083486" lon="10.8532092"><ele>476.0</ele><time>2026-04-04T11:11:36.931Z</time></trkpt><trkpt lat="43.4083817" lon="10.8531352"><ele>475.0</ele><time>2026-04-04T11:11:37.931Z</time></trkpt><trkpt lat="43.4084447" lon="10.8530112"><ele>473.99999999999994</ele><time>2026-04-04T11:11:39.932Z</time></trkpt><trkpt lat="43.4085211" lon="10.8529311"><ele>473.0</ele><time>2026-04-04T11:11:41.932Z</time></trkpt><trkpt lat="43.408596" lon="10.8528265"><ele>473.0</ele><time>2026-04-04T11:11:43.932Z</time></trkpt><trkpt lat="43.4086206" lon="10.8527349"><ele>472.99999999999994</ele><time>2026-04-04T11:11:44.931Z</time></trkpt><trkpt lat="43.4086491" lon="10.8526288"><ele>472.99999999999994</ele><time>2026-04-04T11:11:45.932Z</time></trkpt><trkpt lat="43.4087019" lon="10.8525256"><ele>473.0</ele><time>2026-04-04T11:11:46.931Z</time></trkpt><trkpt lat="43.4087911" lon="10.8524528"><ele>473.0</ele><time>2026-04-04T11:11:47.931Z</time></trkpt><trkpt lat="43.4089005" lon="10.8523901"><ele>469.0</ele><time>2026-04-04T11:11:48.931Z</time></trkpt><trkpt lat="43.4090231" lon="10.8523323"><ele>465.0</ele><time>2026-04-04T11:11:49.931Z</time></trkpt><trkpt lat="43.4091466" lon="10.8522848"><ele>461.0</ele><time>2026-04-04T11:11:50.931Z</time></trkpt><trkpt lat="43.4092835" lon="10.8522513"><ele>457.0</ele><time>2026-04-04T11:11:51.931Z</time></trkpt><trkpt lat="43.409433" lon="10.8522121"><ele>457.0</ele><time>2026-04-04T11:11:52.931Z</time></trkpt><trkpt lat="43.4095834" lon="10.852178"><ele>457.0</ele><time>2026-04-04T11:11:53.931Z</time></trkpt><trkpt lat="43.4097319" lon="10.8521495"><ele>457.0</ele><time>2026-04-04T11:11:54.931Z</time></trkpt><trkpt lat="43.4098732" lon="10.852122"><ele>457.0</ele><time>2026-04-04T11:11:55.931Z</time></trkpt><trkpt lat="43.4100155" lon="10.8520963"><ele>453.75</ele><time>2026-04-04T11:11:56.931Z</time></trkpt><trkpt lat="43.4101531" lon="10.8520834"><ele>450.5</ele><time>2026-04-04T11:11:57.932Z</time></trkpt><trkpt lat="43.4102812" lon="10.8520798"><ele>447.25</ele><time>2026-04-04T11:11:58.932Z</time></trkpt><trkpt lat="43.4103941" lon="10.8520768"><ele>444.0</ele><time>2026-04-04T11:11:59.931Z</time></trkpt><trkpt lat="43.4105033" lon="10.8520745"><ele>443.0</ele><time>2026-04-04T11:12:00.932Z</time></trkpt><trkpt lat="43.4106138" lon="10.8520812"><ele>442.0</ele><time>2026-04-04T11:12:01.931Z</time></trkpt><trkpt lat="43.4107202" lon="10.8520845"><ele>441.0</ele><time>2026-04-04T11:12:02.932Z</time></trkpt><trkpt lat="43.4108233" lon="10.8520877"><ele>440.0</ele><time>2026-04-04T11:12:03.931Z</time></trkpt><trkpt lat="43.410923" lon="10.8520912"><ele>439.0</ele><time>2026-04-04T11:12:04.932Z</time></trkpt><trkpt lat="43.4110216" lon="10.8520926"><ele>439.0</ele><time>2026-04-04T11:12:05.931Z</time></trkpt><trkpt lat="43.4111166" lon="10.8520998"><ele>439.0</ele><time>2026-04-04T11:12:06.932Z</time></trkpt><trkpt lat="43.4112099" lon="10.852098"><ele>439.0</ele><time>2026-04-04T11:12:07.932Z</time></trkpt><trkpt lat="43.4113112" lon="10.852087"><ele>439.0</ele><time>2026-04-04T11:12:08.931Z</time></trkpt><trkpt lat="43.4113944" lon="10.8520801"><ele>439.0</ele><time>2026-04-04T11:12:09.932Z</time></trkpt><trkpt lat="43.4114761" lon="10.852064"><ele>437.4</ele><time>2026-04-04T11:12:10.931Z</time></trkpt><trkpt lat="43.4115521" lon="10.8520338"><ele>435.79999999999995</ele><time>2026-04-04T11:12:11.931Z</time></trkpt><trkpt lat="43.4116312" lon="10.8519856"><ele>434.20000000000005</ele><time>2026-04-04T11:12:12.932Z</time></trkpt><trkpt lat="43.4117163" lon="10.8519262"><ele>432.6</ele><time>2026-04-04T11:12:13.931Z</time></trkpt><trkpt lat="43.4118141" lon="10.8518678"><ele>431.0</ele><time>2026-04-04T11:12:14.931Z</time></trkpt><trkpt lat="43.4119243" lon="10.8518066"><ele>434.0</ele><time>2026-04-04T11:12:15.932Z</time></trkpt><trkpt lat="43.4120375" lon="10.8517459"><ele>437.0</ele><time>2026-04-04T11:12:16.931Z</time></trkpt><trkpt lat="43.4121459" lon="10.8516981"><ele>440.0</ele><time>2026-04-04T11:12:17.932Z</time></trkpt><trkpt lat="43.4122539" lon="10.8516813"><ele>443.0</ele><time>2026-04-04T11:12:18.932Z</time></trkpt><trkpt lat="43.4123549" lon="10.8517101"><ele>446.0</ele><time>2026-04-04T11:12:19.932Z</time></trkpt><trkpt lat="43.4124577" lon="10.8517738"><ele>442.0</ele><time>2026-04-04T11:12:20.932Z</time></trkpt><trkpt lat="43.4125571" lon="10.8518408"><ele>438.0</ele><time>2026-04-04T11:12:21.931Z</time></trkpt><trkpt lat="43.4126494" lon="10.8519149"><ele>434.0</ele><time>2026-04-04T11:12:22.931Z</time></trkpt><trkpt lat="43.4127368" lon="10.8519935"><ele>430.0</ele><time>2026-04-04T11:12:23.931Z</time></trkpt><trkpt lat="43.412813" lon="10.8520961"><ele>426.0</ele><time>2026-04-04T11:12:24.931Z</time></trkpt><trkpt lat="43.4128848" lon="10.8522187"><ele>426.0</ele><time>2026-04-04T11:12:25.931Z</time></trkpt><trkpt lat="43.4129522" lon="10.8523302"><ele>426.0</ele><time>2026-04-04T11:12:26.932Z</time></trkpt><trkpt lat="43.4130167" lon="10.8524393"><ele>426.0</ele><time>2026-04-04T11:12:27.932Z</time></trkpt><trkpt lat="43.4130832" lon="10.8525506"><ele>426.0</ele><time>2026-04-04T11:12:28.931Z</time></trkpt><trkpt lat="43.413154" lon="10.8526659"><ele>426.0</ele><time>2026-04-04T11:12:29.931Z</time></trkpt><trkpt lat="43.4132269" lon="10.8527875"><ele>426.0</ele><time>2026-04-04T11:12:30.931Z</time></trkpt><trkpt lat="43.4133018" lon="10.8528943"><ele>426.0</ele><time>2026-04-04T11:12:31.931Z</time></trkpt><trkpt lat="43.413382" lon="10.852992"><ele>426.0</ele><time>2026-04-04T11:12:32.932Z</time></trkpt><trkpt lat="43.4134768" lon="10.8530534"><ele>426.0</ele><time>2026-04-04T11:12:33.931Z</time></trkpt><trkpt lat="43.413571" lon="10.8530649"><ele>426.0</ele><time>2026-04-04T11:12:34.932Z</time></trkpt><trkpt lat="43.4136627" lon="10.8530335"><ele>426.0</ele><time>2026-04-04T11:12:35.931Z</time></trkpt><trkpt lat="43.4137451" lon="10.8529621"><ele>426.0</ele><time>2026-04-04T11:12:36.931Z</time></trkpt><trkpt lat="43.4138282" lon="10.8528616"><ele>426.0</ele><time>2026-04-04T11:12:37.932Z</time></trkpt><trkpt lat="43.4139101" lon="10.8527368"><ele>426.0</ele><time>2026-04-04T11:12:38.931Z</time></trkpt><trkpt lat="43.4139845" lon="10.8525973"><ele>426.5</ele><time>2026-04-04T11:12:39.932Z</time></trkpt><trkpt lat="43.4140394" lon="10.8524476"><ele>427.0</ele><time>2026-04-04T11:12:40.931Z</time></trkpt><trkpt lat="43.4140873" lon="10.8522937"><ele>427.5</ele><time>2026-04-04T11:12:41.932Z</time></trkpt><trkpt lat="43.4141312" lon="10.8521425"><ele>428.0</ele><time>2026-04-04T11:12:42.931Z</time></trkpt><trkpt lat="43.4141679" lon="10.8519902"><ele>428.0</ele><time>2026-04-04T11:12:43.932Z</time></trkpt><trkpt lat="43.4142042" lon="10.8518351"><ele>428.0</ele><time>2026-04-04T11:12:44.932Z</time></trkpt><trkpt lat="43.4142506" lon="10.8516806"><ele>428.0</ele><time>2026-04-04T11:12:45.932Z</time></trkpt><trkpt lat="43.414301" lon="10.8515242"><ele>428.0</ele><time>2026-04-04T11:12:46.931Z</time></trkpt><trkpt lat="43.4143686" lon="10.8513863"><ele>429.0</ele><time>2026-04-04T11:12:47.932Z</time></trkpt><trkpt lat="43.4144453" lon="10.8512766"><ele>429.99999999999994</ele><time>2026-04-04T11:12:48.932Z</time></trkpt><trkpt lat="43.4145333" lon="10.8511958"><ele>430.99999999999994</ele><time>2026-04-04T11:12:49.932Z</time></trkpt><trkpt lat="43.4146362" lon="10.851136"><ele>432.0</ele><time>2026-04-04T11:12:50.931Z</time></trkpt><trkpt lat="43.4147464" lon="10.8510967"><ele>433.0</ele><time>2026-04-04T11:12:51.931Z</time></trkpt><trkpt lat="43.414863" lon="10.851085"><ele>427.25</ele><time>2026-04-04T11:12:52.932Z</time></trkpt><trkpt lat="43.4149829" lon="10.8510994"><ele>421.5</ele><time>2026-04-04T11:12:53.932Z</time></trkpt><trkpt lat="43.415097" lon="10.8511518"><ele>415.75</ele><time>2026-04-04T11:12:54.932Z</time></trkpt><trkpt lat="43.4151986" lon="10.851228"><ele>410.0</ele><time>2026-04-04T11:12:55.931Z</time></trkpt><trkpt lat="43.4152894" lon="10.8513277"><ele>410.0</ele><time>2026-04-04T11:12:56.931Z</time></trkpt><trkpt lat="43.4153762" lon="10.8514237"><ele>410.0</ele><time>2026-04-04T11:12:57.931Z</time></trkpt><trkpt lat="43.4154681" lon="10.8515136"><ele>410.0</ele><time>2026-04-04T11:12:58.932Z</time></trkpt><trkpt lat="43.4155622" lon="10.8515955"><ele>410.0</ele><time>2026-04-04T11:12:59.931Z</time></trkpt><trkpt lat="43.4156572" lon="10.8516667"><ele>410.0</ele><time>2026-04-04T11:13:00.932Z</time></trkpt><trkpt lat="43.4157495" lon="10.8517347"><ele>408.25</ele><time>2026-04-04T11:13:01.932Z</time></trkpt><trkpt lat="43.415836" lon="10.8518201"><ele>406.5</ele><time>2026-04-04T11:13:02.931Z</time></trkpt><trkpt lat="43.4159192" lon="10.851922"><ele>404.75</ele><time>2026-04-04T11:13:03.932Z</time></trkpt><trkpt lat="43.4160027" lon="10.852036"><ele>403.0</ele><time>2026-04-04T11:13:04.932Z</time></trkpt><trkpt lat="43.4160832" lon="10.8521596"><ele>403.0</ele><time>2026-04-04T11:13:05.932Z</time></trkpt><trkpt lat="43.4161566" lon="10.8522845"><ele>403.0</ele><time>2026-04-04T11:13:06.932Z</time></trkpt><trkpt lat="43.4162258" lon="10.8524152"><ele>403.0</ele><time>2026-04-04T11:13:07.932Z</time></trkpt><trkpt lat="43.4162897" lon="10.8525456"><ele>403.0</ele><time>2026-04-04T11:13:08.931Z</time></trkpt><trkpt lat="43.4163571" lon="10.8526699"><ele>403.0</ele><time>2026-04-04T11:13:09.931Z</time></trkpt><trkpt lat="43.4164309" lon="10.8527782"><ele>403.0</ele><time>2026-04-04T11:13:10.932Z</time></trkpt><trkpt lat="43.416515" lon="10.8528731"><ele>403.0</ele><time>2026-04-04T11:13:11.931Z</time></trkpt><trkpt lat="43.4166063" lon="10.8529536"><ele>403.0</ele><time>2026-04-04T11:13:12.931Z</time></trkpt><trkpt lat="43.416704" lon="10.853036"><ele>403.0</ele><time>2026-04-04T11:13:13.932Z</time></trkpt><trkpt lat="43.4167971" lon="10.8531254"><ele>403.0</ele><time>2026-04-04T11:13:14.931Z</time></trkpt><trkpt lat="43.4168742" lon="10.8532362"><ele>403.0</ele><time>2026-04-04T11:13:15.932Z</time></trkpt><trkpt lat="43.4169292" lon="10.8533738"><ele>403.0</ele><time>2026-04-04T11:13:16.931Z</time></trkpt><trkpt lat="43.4169488" lon="10.8535255"><ele>403.0</ele><time>2026-04-04T11:13:17.931Z</time></trkpt><trkpt lat="43.4169486" lon="10.8536792"><ele>403.0</ele><time>2026-04-04T11:13:18.931Z</time></trkpt><trkpt lat="43.4169504" lon="10.8538348"><ele>397.5</ele><time>2026-04-04T11:13:19.932Z</time></trkpt><trkpt lat="43.4169604" lon="10.8539914"><ele>392.0</ele><time>2026-04-04T11:13:20.931Z</time></trkpt><trkpt lat="43.4169833" lon="10.8541534"><ele>386.5</ele><time>2026-04-04T11:13:21.932Z</time></trkpt><trkpt lat="43.4170207" lon="10.8543134"><ele>381.0</ele><time>2026-04-04T11:13:22.932Z</time></trkpt><trkpt lat="43.4170649" lon="10.8544754"><ele>381.25</ele><time>2026-04-04T11:13:23.932Z</time></trkpt><trkpt lat="43.4171078" lon="10.8546374"><ele>381.5</ele><time>2026-04-04T11:13:24.932Z</time></trkpt><trkpt lat="43.4171518" lon="10.8547979"><ele>381.75</ele><time>2026-04-04T11:13:25.932Z</time></trkpt><trkpt lat="43.4171896" lon="10.8549719"><ele>382.0</ele><time>2026-04-04T11:13:26.932Z</time></trkpt><trkpt lat="43.4172241" lon="10.8551435"><ele>382.0</ele><time>2026-04-04T11:13:27.932Z</time></trkpt><trkpt lat="43.417253" lon="10.8553094"><ele>382.0</ele><time>2026-04-04T11:13:28.931Z</time></trkpt><trkpt lat="43.417273" lon="10.8554849"><ele>382.0</ele><time>2026-04-04T11:13:29.932Z</time></trkpt><trkpt lat="43.4172851" lon="10.855655"><ele>382.0</ele><time>2026-04-04T11:13:30.931Z</time></trkpt><trkpt lat="43.4172994" lon="10.8558291"><ele>378.75</ele><time>2026-04-04T11:13:31.931Z</time></trkpt><trkpt lat="43.4173089" lon="10.8560027"><ele>375.5</ele><time>2026-04-04T11:13:32.932Z</time></trkpt><trkpt lat="43.4173125" lon="10.8561775"><ele>372.25</ele><time>2026-04-04T11:13:33.931Z</time></trkpt><trkpt lat="43.4173156" lon="10.8563431"><ele>369.0</ele><time>2026-04-04T11:13:34.931Z</time></trkpt><trkpt lat="43.4173313" lon="10.8564978"><ele>369.0</ele><time>2026-04-04T11:13:35.932Z</time></trkpt><trkpt lat="43.417372" lon="10.8566492"><ele>369.0</ele><time>2026-04-04T11:13:36.931Z</time></trkpt><trkpt lat="43.4174365" lon="10.8567777"><ele>369.0</ele><time>2026-04-04T11:13:37.932Z</time></trkpt><trkpt lat="43.4175115" lon="10.8568937"><ele>369.0</ele><time>2026-04-04T11:13:38.932Z</time></trkpt><trkpt lat="43.4176157" lon="10.856952"><ele>369.0</ele><time>2026-04-04T11:13:39.932Z</time></trkpt><trkpt lat="43.4177258" lon="10.8569532"><ele>369.0</ele><time>2026-04-04T11:13:40.932Z</time></trkpt><trkpt lat="43.4178049" lon="10.8569392"><ele>369.0</ele><time>2026-04-04T11:13:41.931Z</time></trkpt><trkpt lat="43.4178685" lon="10.8568958"><ele>369.0</ele><time>2026-04-04T11:13:42.931Z</time></trkpt><trkpt lat="43.4179102" lon="10.8568053"><ele>369.0</ele><time>2026-04-04T11:13:43.932Z</time></trkpt><trkpt lat="43.4179284" lon="10.8566951"><ele>369.0</ele><time>2026-04-04T11:13:44.931Z</time></trkpt><trkpt lat="43.4179416" lon="10.8565768"><ele>369.0</ele><time>2026-04-04T11:13:45.931Z</time></trkpt><trkpt lat="43.417952" lon="10.8564576"><ele>369.0</ele><time>2026-04-04T11:13:46.931Z</time></trkpt><trkpt lat="43.4179784" lon="10.8563325"><ele>369.0</ele><time>2026-04-04T11:13:47.931Z</time></trkpt><trkpt lat="43.418019" lon="10.8562102"><ele>369.0</ele><time>2026-04-04T11:13:48.931Z</time></trkpt><trkpt lat="43.4180728" lon="10.8560915"><ele>369.0</ele><time>2026-04-04T11:13:49.931Z</time></trkpt><trkpt lat="43.4181399" lon="10.8560012"><ele>369.0</ele><time>2026-04-04T11:13:50.931Z</time></trkpt><trkpt lat="43.4182216" lon="10.855954"><ele>369.0</ele><time>2026-04-04T11:13:51.931Z</time></trkpt><trkpt lat="43.4183127" lon="10.8559186"><ele>369.0</ele><time>2026-04-04T11:13:52.931Z</time></trkpt><trkpt lat="43.4184027" lon="10.8558779"><ele>369.0</ele><time>2026-04-04T11:13:53.931Z</time></trkpt><trkpt lat="43.4184887" lon="10.8558116"><ele>369.0</ele><time>2026-04-04T11:13:54.931Z</time></trkpt><trkpt lat="43.4185434" lon="10.8557026"><ele>369.0</ele><time>2026-04-04T11:13:55.931Z</time></trkpt><trkpt lat="43.41858" lon="10.8555813"><ele>369.0</ele><time>2026-04-04T11:13:56.932Z</time></trkpt><trkpt lat="43.418591" lon="10.8554445"><ele>369.0</ele><time>2026-04-04T11:13:57.932Z</time></trkpt><trkpt lat="43.4185895" lon="10.8552848"><ele>369.0</ele><time>2026-04-04T11:13:58.932Z</time></trkpt><trkpt lat="43.4185847" lon="10.855115"><ele>369.0</ele><time>2026-04-04T11:13:59.932Z</time></trkpt><trkpt lat="43.4185764" lon="10.8549386"><ele>371.0</ele><time>2026-04-04T11:14:00.931Z</time></trkpt><trkpt lat="43.4185757" lon="10.8547653"><ele>373.0</ele><time>2026-04-04T11:14:01.932Z</time></trkpt><trkpt lat="43.4185854" lon="10.8546006"><ele>375.0</ele><time>2026-04-04T11:14:02.931Z</time></trkpt><trkpt lat="43.4186016" lon="10.8544374"><ele>377.0</ele><time>2026-04-04T11:14:03.932Z</time></trkpt><trkpt lat="43.4186205" lon="10.8542753"><ele>377.0</ele><time>2026-04-04T11:14:04.932Z</time></trkpt><trkpt lat="43.4186411" lon="10.8541156"><ele>377.0</ele><time>2026-04-04T11:14:05.931Z</time></trkpt><trkpt lat="43.4186691" lon="10.8539688"><ele>377.0</ele><time>2026-04-04T11:14:06.931Z</time></trkpt><trkpt lat="43.4187056" lon="10.8538302"><ele>377.0</ele><time>2026-04-04T11:14:07.932Z</time></trkpt><trkpt lat="43.4187543" lon="10.8537008"><ele>377.0</ele><time>2026-04-04T11:14:08.931Z</time></trkpt><trkpt lat="43.418802" lon="10.8535643"><ele>377.0</ele><time>2026-04-04T11:14:09.932Z</time></trkpt><trkpt lat="43.4188192" lon="10.8534093"><ele>377.0</ele><time>2026-04-04T11:14:10.932Z</time></trkpt><trkpt lat="43.4188173" lon="10.8532452"><ele>377.0</ele><time>2026-04-04T11:14:11.931Z</time></trkpt><trkpt lat="43.4188071" lon="10.8530839"><ele>377.0</ele><time>2026-04-04T11:14:12.932Z</time></trkpt><trkpt lat="43.4187912" lon="10.8529285"><ele>377.0</ele><time>2026-04-04T11:14:13.932Z</time></trkpt><trkpt lat="43.4187687" lon="10.8527619"><ele>377.0</ele><time>2026-04-04T11:14:14.931Z</time></trkpt><trkpt lat="43.4187315" lon="10.8525948"><ele>377.0</ele><time>2026-04-04T11:14:15.931Z</time></trkpt><trkpt lat="43.4186868" lon="10.8524346"><ele>377.0</ele><time>2026-04-04T11:14:16.931Z</time></trkpt><trkpt lat="43.4186357" lon="10.8522832"><ele>374.0</ele><time>2026-04-04T11:14:17.931Z</time></trkpt><trkpt lat="43.4185836" lon="10.8521359"><ele>371.0</ele><time>2026-04-04T11:14:18.931Z</time></trkpt><trkpt lat="43.4185312" lon="10.8519953"><ele>368.0</ele><time>2026-04-04T11:14:19.931Z</time></trkpt><trkpt lat="43.4184861" lon="10.8518533"><ele>365.0</ele><time>2026-04-04T11:14:20.932Z</time></trkpt><trkpt lat="43.4184605" lon="10.8517032"><ele>363.75</ele><time>2026-04-04T11:14:21.931Z</time></trkpt><trkpt lat="43.4184541" lon="10.8515412"><ele>362.5</ele><time>2026-04-04T11:14:22.931Z</time></trkpt><trkpt lat="43.4184648" lon="10.8513692"><ele>361.25</ele><time>2026-04-04T11:14:23.932Z</time></trkpt><trkpt lat="43.418487" lon="10.85119"><ele>360.0</ele><time>2026-04-04T11:14:24.932Z</time></trkpt><trkpt lat="43.4185025" lon="10.8510075"><ele>358.75</ele><time>2026-04-04T11:14:25.931Z</time></trkpt><trkpt lat="43.4185039" lon="10.8508261"><ele>357.5</ele><time>2026-04-04T11:14:26.931Z</time></trkpt><trkpt lat="43.4184923" lon="10.8506347"><ele>356.25</ele><time>2026-04-04T11:14:27.931Z</time></trkpt><trkpt lat="43.4184717" lon="10.8504423"><ele>355.0</ele><time>2026-04-04T11:14:28.931Z</time></trkpt><trkpt lat="43.4184516" lon="10.8502497"><ele>352.75</ele><time>2026-04-04T11:14:29.931Z</time></trkpt><trkpt lat="43.4184216" lon="10.8500791"><ele>350.5</ele><time>2026-04-04T11:14:30.932Z</time></trkpt><trkpt lat="43.4184016" lon="10.849915"><ele>348.25</ele><time>2026-04-04T11:14:31.932Z</time></trkpt><trkpt lat="43.4184025" lon="10.849755"><ele>346.0</ele><time>2026-04-04T11:14:32.931Z</time></trkpt><trkpt lat="43.4184095" lon="10.8496028"><ele>346.0</ele><time>2026-04-04T11:14:33.931Z</time></trkpt><trkpt lat="43.4184147" lon="10.849461"><ele>346.0</ele><time>2026-04-04T11:14:34.931Z</time></trkpt><trkpt lat="43.4184149" lon="10.8493227"><ele>346.0</ele><time>2026-04-04T11:14:35.932Z</time></trkpt><trkpt lat="43.4183963" lon="10.8491882"><ele>346.0</ele><time>2026-04-04T11:14:36.931Z</time></trkpt><trkpt lat="43.4183377" lon="10.8490603"><ele>346.0</ele><time>2026-04-04T11:14:37.932Z</time></trkpt><trkpt lat="43.4182789" lon="10.8489356"><ele>344.20000000000005</ele><time>2026-04-04T11:14:38.932Z</time></trkpt><trkpt lat="43.418206" lon="10.8488048"><ele>342.40000000000003</ele><time>2026-04-04T11:14:39.932Z</time></trkpt><trkpt lat="43.4181363" lon="10.8486888"><ele>340.6</ele><time>2026-04-04T11:14:40.932Z</time></trkpt><trkpt lat="43.4180852" lon="10.8485624"><ele>338.8</ele><time>2026-04-04T11:14:41.932Z</time></trkpt><trkpt lat="43.4180484" lon="10.8484146"><ele>337.0</ele><time>2026-04-04T11:14:42.931Z</time></trkpt><trkpt lat="43.4180242" lon="10.8482601"><ele>333.8</ele><time>2026-04-04T11:14:43.931Z</time></trkpt><trkpt lat="43.4180166" lon="10.8481018"><ele>330.6</ele><time>2026-04-04T11:14:44.931Z</time></trkpt><trkpt lat="43.4180029" lon="10.8479442"><ele>327.40000000000003</ele><time>2026-04-04T11:14:45.932Z</time></trkpt><trkpt lat="43.4179837" lon="10.8477997"><ele>324.20000000000005</ele><time>2026-04-04T11:14:46.932Z</time></trkpt><trkpt lat="43.417976" lon="10.8476546"><ele>321.0</ele><time>2026-04-04T11:14:47.931Z</time></trkpt><trkpt lat="43.4179941" lon="10.8475189"><ele>319.40000000000003</ele><time>2026-04-04T11:14:48.932Z</time></trkpt><trkpt lat="43.4180362" lon="10.8473778"><ele>317.8</ele><time>2026-04-04T11:14:49.931Z</time></trkpt><trkpt lat="43.4180965" lon="10.8472442"><ele>316.20000000000005</ele><time>2026-04-04T11:14:50.931Z</time></trkpt><trkpt lat="43.4181753" lon="10.8471333"><ele>314.6</ele><time>2026-04-04T11:14:51.932Z</time></trkpt><trkpt lat="43.4182628" lon="10.847041"><ele>313.0</ele><time>2026-04-04T11:14:52.931Z</time></trkpt><trkpt lat="43.4183383" lon="10.8469584"><ele>313.0</ele><time>2026-04-04T11:14:53.931Z</time></trkpt><trkpt lat="43.4183926" lon="10.8468756"><ele>313.0</ele><time>2026-04-04T11:14:54.931Z</time></trkpt><trkpt lat="43.4184219" lon="10.846774"><ele>313.0</ele><time>2026-04-04T11:14:55.931Z</time></trkpt><trkpt lat="43.4184231" lon="10.8466578"><ele>313.0</ele><time>2026-04-04T11:14:56.931Z</time></trkpt><trkpt lat="43.4184166" lon="10.8465321"><ele>313.0</ele><time>2026-04-04T11:14:57.932Z</time></trkpt><trkpt lat="43.4184358" lon="10.846401"><ele>313.0</ele><time>2026-04-04T11:14:58.932Z</time></trkpt><trkpt lat="43.4184876" lon="10.8462815"><ele>313.0</ele><time>2026-04-04T11:14:59.931Z</time></trkpt><trkpt lat="43.4185566" lon="10.8461669"><ele>313.0</ele><time>2026-04-04T11:15:00.931Z</time></trkpt><trkpt lat="43.4186103" lon="10.8460217"><ele>313.0</ele><time>2026-04-04T11:15:01.932Z</time></trkpt><trkpt lat="43.4186409" lon="10.8458563"><ele>313.0</ele><time>2026-04-04T11:15:02.931Z</time></trkpt><trkpt lat="43.4186649" lon="10.8456858"><ele>311.0</ele><time>2026-04-04T11:15:03.931Z</time></trkpt><trkpt lat="43.4186889" lon="10.8455366"><ele>309.0</ele><time>2026-04-04T11:15:04.931Z</time></trkpt><trkpt lat="43.4187087" lon="10.8453944"><ele>307.0</ele><time>2026-04-04T11:15:05.931Z</time></trkpt><trkpt lat="43.4187257" lon="10.8452593"><ele>305.0</ele><time>2026-04-04T11:15:06.931Z</time></trkpt><trkpt lat="43.418749" lon="10.8451367"><ele>303.0</ele><time>2026-04-04T11:15:07.931Z</time></trkpt><trkpt lat="43.4187859" lon="10.8450234"><ele>301.2</ele><time>2026-04-04T11:15:08.931Z</time></trkpt><trkpt lat="43.4188354" lon="10.8449113"><ele>299.4</ele><time>2026-04-04T11:15:09.931Z</time></trkpt><trkpt lat="43.4189242" lon="10.8448176"><ele>297.59999999999997</ele><time>2026-04-04T11:15:10.932Z</time></trkpt><trkpt lat="43.4190169" lon="10.8447372"><ele>295.8</ele><time>2026-04-04T11:15:11.931Z</time></trkpt><trkpt lat="43.4191073" lon="10.8446553"><ele>294.0</ele><time>2026-04-04T11:15:12.931Z</time></trkpt><trkpt lat="43.4192015" lon="10.8445671"><ele>294.0</ele><time>2026-04-04T11:15:13.931Z</time></trkpt><trkpt lat="43.4192985" lon="10.8444763"><ele>294.0</ele><time>2026-04-04T11:15:14.931Z</time></trkpt><trkpt lat="43.4193913" lon="10.844389"><ele>294.0</ele><time>2026-04-04T11:15:15.931Z</time></trkpt><trkpt lat="43.4194806" lon="10.8443035"><ele>294.0</ele><time>2026-04-04T11:15:16.932Z</time></trkpt><trkpt lat="43.4195738" lon="10.8442295"><ele>294.0</ele><time>2026-04-04T11:15:17.932Z</time></trkpt><trkpt lat="43.4196763" lon="10.8441695"><ele>293.2</ele><time>2026-04-04T11:15:18.932Z</time></trkpt><trkpt lat="43.4197843" lon="10.8441276"><ele>292.4</ele><time>2026-04-04T11:15:19.932Z</time></trkpt><trkpt lat="43.419892" lon="10.8440935"><ele>291.6</ele><time>2026-04-04T11:15:20.932Z</time></trkpt><trkpt lat="43.4199906" lon="10.8440461"><ele>290.8</ele><time>2026-04-04T11:15:21.932Z</time></trkpt><trkpt lat="43.4200841" lon="10.8439732"><ele>290.0</ele><time>2026-04-04T11:15:22.932Z</time></trkpt><trkpt lat="43.4201689" lon="10.8438873"><ele>290.0</ele><time>2026-04-04T11:15:23.931Z</time></trkpt><trkpt lat="43.4202449" lon="10.8437824"><ele>290.0</ele><time>2026-04-04T11:15:24.932Z</time></trkpt><trkpt lat="43.4203098" lon="10.8436598"><ele>290.0</ele><time>2026-04-04T11:15:25.931Z</time></trkpt><trkpt lat="43.4203626" lon="10.8435177"><ele>290.0</ele><time>2026-04-04T11:15:26.931Z</time></trkpt><trkpt lat="43.4204009" lon="10.8433544"><ele>288.5</ele><time>2026-04-04T11:15:27.932Z</time></trkpt><trkpt lat="43.4204361" lon="10.8431905"><ele>287.0</ele><time>2026-04-04T11:15:28.932Z</time></trkpt><trkpt lat="43.4204681" lon="10.8430249"><ele>285.5</ele><time>2026-04-04T11:15:29.931Z</time></trkpt><trkpt lat="43.4204878" lon="10.8428564"><ele>284.0</ele><time>2026-04-04T11:15:30.931Z</time></trkpt><trkpt lat="43.4204915" lon="10.8426861"><ele>283.25</ele><time>2026-04-04T11:15:31.931Z</time></trkpt><trkpt lat="43.4204869" lon="10.842516"><ele>282.5</ele><time>2026-04-04T11:15:32.931Z</time></trkpt><trkpt lat="43.4204762" lon="10.8423464"><ele>281.75</ele><time>2026-04-04T11:15:33.931Z</time></trkpt><trkpt lat="43.4204662" lon="10.8421779"><ele>281.0</ele><time>2026-04-04T11:15:34.932Z</time></trkpt><trkpt lat="43.4204712" lon="10.8420178"><ele>281.0</ele><time>2026-04-04T11:15:35.931Z</time></trkpt><trkpt lat="43.420503" lon="10.8418708"><ele>281.0</ele><time>2026-04-04T11:15:36.932Z</time></trkpt><trkpt lat="43.4205577" lon="10.8417347"><ele>281.0</ele><time>2026-04-04T11:15:37.931Z</time></trkpt><trkpt lat="43.4206189" lon="10.8416"><ele>281.0</ele><time>2026-04-04T11:15:38.932Z</time></trkpt><trkpt lat="43.4207087" lon="10.8414563"><ele>280.25</ele><time>2026-04-04T11:15:39.932Z</time></trkpt><trkpt lat="43.4207952" lon="10.8413154"><ele>279.5</ele><time>2026-04-04T11:15:40.932Z</time></trkpt><trkpt lat="43.4208743" lon="10.8411722"><ele>278.75</ele><time>2026-04-04T11:15:41.931Z</time></trkpt><trkpt lat="43.4209505" lon="10.8410418"><ele>278.0</ele><time>2026-04-04T11:15:42.932Z</time></trkpt><trkpt lat="43.4210299" lon="10.8409168"><ele>276.75</ele><time>2026-04-04T11:15:43.932Z</time></trkpt><trkpt lat="43.4211171" lon="10.8407921"><ele>275.5</ele><time>2026-04-04T11:15:44.931Z</time></trkpt><trkpt lat="43.4212217" lon="10.8406811"><ele>274.25</ele><time>2026-04-04T11:15:45.932Z</time></trkpt><trkpt lat="43.4213334" lon="10.8405827"><ele>273.0</ele><time>2026-04-04T11:15:46.931Z</time></trkpt><trkpt lat="43.4214415" lon="10.8404845"><ele>272.75</ele><time>2026-04-04T11:15:47.931Z</time></trkpt><trkpt lat="43.421545" lon="10.8403925"><ele>272.5</ele><time>2026-04-04T11:15:48.932Z</time></trkpt><trkpt lat="43.4216478" lon="10.840297"><ele>272.25</ele><time>2026-04-04T11:15:49.931Z</time></trkpt><trkpt lat="43.4217543" lon="10.8402079"><ele>272.0</ele><time>2026-04-04T11:15:50.932Z</time></trkpt><trkpt lat="43.4218705" lon="10.8401422"><ele>274.25</ele><time>2026-04-04T11:15:51.931Z</time></trkpt><trkpt lat="43.4219867" lon="10.8400935"><ele>276.5</ele><time>2026-04-04T11:15:52.932Z</time></trkpt><trkpt lat="43.4221045" lon="10.8400589"><ele>278.75</ele><time>2026-04-04T11:15:53.931Z</time></trkpt><trkpt lat="43.4222272" lon="10.8400216"><ele>281.0</ele><time>2026-04-04T11:15:54.931Z</time></trkpt><trkpt lat="43.4223454" lon="10.839985"><ele>281.0</ele><time>2026-04-04T11:15:55.932Z</time></trkpt><trkpt lat="43.4224548" lon="10.8399514"><ele>281.0</ele><time>2026-04-04T11:15:56.932Z</time></trkpt><trkpt lat="43.422563" lon="10.83993"><ele>281.0</ele><time>2026-04-04T11:15:57.931Z</time></trkpt><trkpt lat="43.4226779" lon="10.8399262"><ele>281.0</ele><time>2026-04-04T11:15:58.931Z</time></trkpt><trkpt lat="43.4227934" lon="10.8399411"><ele>281.0</ele><time>2026-04-04T11:15:59.931Z</time></trkpt><trkpt lat="43.4229086" lon="10.8399783"><ele>281.0</ele><time>2026-04-04T11:16:00.931Z</time></trkpt><trkpt lat="43.4230263" lon="10.8400219"><ele>281.0</ele><time>2026-04-04T11:16:01.931Z</time></trkpt><trkpt lat="43.4231525" lon="10.8400663"><ele>281.0</ele><time>2026-04-04T11:16:02.931Z</time></trkpt><trkpt lat="43.4232744" lon="10.8401245"><ele>277.75</ele><time>2026-04-04T11:16:03.931Z</time></trkpt><trkpt lat="43.4233805" lon="10.8402033"><ele>274.5</ele><time>2026-04-04T11:16:04.931Z</time></trkpt><trkpt lat="43.423473" lon="10.8402909"><ele>271.25</ele><time>2026-04-04T11:16:05.932Z</time></trkpt><trkpt lat="43.4235621" lon="10.8403752"><ele>268.0</ele><time>2026-04-04T11:16:06.932Z</time></trkpt><trkpt lat="43.4236545" lon="10.8404681"><ele>268.0</ele><time>2026-04-04T11:16:07.931Z</time></trkpt><trkpt lat="43.4237488" lon="10.8405547"><ele>268.0</ele><time>2026-04-04T11:16:08.931Z</time></trkpt><trkpt lat="43.4238459" lon="10.8406319"><ele>268.0</ele><time>2026-04-04T11:16:09.932Z</time></trkpt><trkpt lat="43.4239581" lon="10.8406954"><ele>268.0</ele><time>2026-04-04T11:16:10.932Z</time></trkpt><trkpt lat="43.4240777" lon="10.8407643"><ele>267.25</ele><time>2026-04-04T11:16:11.931Z</time></trkpt><trkpt lat="43.4241842" lon="10.840854"><ele>266.5</ele><time>2026-04-04T11:16:12.932Z</time></trkpt><trkpt lat="43.4242791" lon="10.8409624"><ele>265.75</ele><time>2026-04-04T11:16:13.931Z</time></trkpt><trkpt lat="43.4243689" lon="10.8410878"><ele>265.0</ele><time>2026-04-04T11:16:14.931Z</time></trkpt><trkpt lat="43.42446" lon="10.841212"><ele>265.0</ele><time>2026-04-04T11:16:15.931Z</time></trkpt><trkpt lat="43.424548" lon="10.8413292"><ele>265.0</ele><time>2026-04-04T11:16:16.931Z</time></trkpt><trkpt lat="43.4246325" lon="10.8414457"><ele>265.0</ele><time>2026-04-04T11:16:17.932Z</time></trkpt><trkpt lat="43.4247148" lon="10.8415566"><ele>265.0</ele><time>2026-04-04T11:16:18.931Z</time></trkpt><trkpt lat="43.4247939" lon="10.841664"><ele>266.0</ele><time>2026-04-04T11:16:19.931Z</time></trkpt><trkpt lat="43.4248671" lon="10.8417563"><ele>267.0</ele><time>2026-04-04T11:16:20.931Z</time></trkpt><trkpt lat="43.4249474" lon="10.8418205"><ele>268.0</ele><time>2026-04-04T11:16:21.931Z</time></trkpt><trkpt lat="43.425035" lon="10.8418486"><ele>269.0</ele><time>2026-04-04T11:16:22.931Z</time></trkpt><trkpt lat="43.4251306" lon="10.8418304"><ele>270.0</ele><time>2026-04-04T11:16:23.932Z</time></trkpt><trkpt lat="43.4252167" lon="10.8417564"><ele>269.5</ele><time>2026-04-04T11:16:24.932Z</time></trkpt><trkpt lat="43.4252963" lon="10.8416435"><ele>269.0</ele><time>2026-04-04T11:16:25.931Z</time></trkpt><trkpt lat="43.4253723" lon="10.8415149"><ele>268.5</ele><time>2026-04-04T11:16:26.932Z</time></trkpt><trkpt lat="43.4254456" lon="10.8413875"><ele>268.0</ele><time>2026-04-04T11:16:27.931Z</time></trkpt><trkpt lat="43.4255199" lon="10.8412663"><ele>268.0</ele><time>2026-04-04T11:16:28.931Z</time></trkpt><trkpt lat="43.4255929" lon="10.8411479"><ele>268.0</ele><time>2026-04-04T11:16:29.931Z</time></trkpt><trkpt lat="43.4256772" lon="10.841035"><ele>268.0</ele><time>2026-04-04T11:16:30.932Z</time></trkpt><trkpt lat="43.4257709" lon="10.8409332"><ele>268.0</ele><time>2026-04-04T11:16:31.931Z</time></trkpt><trkpt lat="43.4258766" lon="10.8408512"><ele>269.5</ele><time>2026-04-04T11:16:32.931Z</time></trkpt><trkpt lat="43.4259908" lon="10.840791"><ele>271.0</ele><time>2026-04-04T11:16:33.931Z</time></trkpt><trkpt lat="43.4261142" lon="10.8407261"><ele>272.5</ele><time>2026-04-04T11:16:34.931Z</time></trkpt><trkpt lat="43.4262428" lon="10.8406577"><ele>274.0</ele><time>2026-04-04T11:16:35.932Z</time></trkpt><trkpt lat="43.4263683" lon="10.8405876"><ele>270.75</ele><time>2026-04-04T11:16:36.932Z</time></trkpt><trkpt lat="43.4264911" lon="10.840515"><ele>267.5</ele><time>2026-04-04T11:16:37.932Z</time></trkpt><trkpt lat="43.426613" lon="10.8404428"><ele>264.25</ele><time>2026-04-04T11:16:38.932Z</time></trkpt><trkpt lat="43.426736" lon="10.8403655"><ele>261.0</ele><time>2026-04-04T11:16:39.932Z</time></trkpt><trkpt lat="43.4268564" lon="10.8402865"><ele>261.0</ele><time>2026-04-04T11:16:40.931Z</time></trkpt><trkpt lat="43.4269787" lon="10.8402132"><ele>261.0</ele><time>2026-04-04T11:16:41.932Z</time></trkpt><trkpt lat="43.4271043" lon="10.8401628"><ele>261.0</ele><time>2026-04-04T11:16:42.932Z</time></trkpt><trkpt lat="43.4272316" lon="10.8401385"><ele>261.0</ele><time>2026-04-04T11:16:43.932Z</time></trkpt><trkpt lat="43.4273548" lon="10.8401494"><ele>260.0</ele><time>2026-04-04T11:16:44.932Z</time></trkpt><trkpt lat="43.4274713" lon="10.840197"><ele>259.0</ele><time>2026-04-04T11:16:45.932Z</time></trkpt><trkpt lat="43.4275915" lon="10.840253"><ele>258.0</ele><time>2026-04-04T11:16:46.932Z</time></trkpt><trkpt lat="43.427711" lon="10.8402982"><ele>257.0</ele><time>2026-04-04T11:16:47.932Z</time></trkpt><trkpt lat="43.4278357" lon="10.8403341"><ele>257.0</ele><time>2026-04-04T11:16:48.932Z</time></trkpt><trkpt lat="43.4279672" lon="10.8403667"><ele>257.0</ele><time>2026-04-04T11:16:49.931Z</time></trkpt><trkpt lat="43.4280978" lon="10.8403932"><ele>257.0</ele><time>2026-04-04T11:16:50.932Z</time></trkpt><trkpt lat="43.4282184" lon="10.840418"><ele>257.0</ele><time>2026-04-04T11:16:51.931Z</time></trkpt><trkpt lat="43.4283321" lon="10.8404658"><ele>258.5</ele><time>2026-04-04T11:16:52.931Z</time></trkpt><trkpt lat="43.4284303" lon="10.8405465"><ele>260.0</ele><time>2026-04-04T11:16:53.932Z</time></trkpt><trkpt lat="43.4285137" lon="10.8406628"><ele>261.5</ele><time>2026-04-04T11:16:54.931Z</time></trkpt><trkpt lat="43.428584" lon="10.8407911"><ele>263.0</ele><time>2026-04-04T11:16:55.932Z</time></trkpt><trkpt lat="43.4286468" lon="10.8409279"><ele>264.25</ele><time>2026-04-04T11:16:56.931Z</time></trkpt><trkpt lat="43.4287114" lon="10.8410726"><ele>265.5</ele><time>2026-04-04T11:16:57.931Z</time></trkpt><trkpt lat="43.4287821" lon="10.8412091"><ele>266.75</ele><time>2026-04-04T11:16:58.931Z</time></trkpt><trkpt lat="43.4288619" lon="10.8413305"><ele>268.0</ele><time>2026-04-04T11:16:59.931Z</time></trkpt><trkpt lat="43.4289449" lon="10.8414472"><ele>268.0</ele><time>2026-04-04T11:17:00.931Z</time></trkpt><trkpt lat="43.4290484" lon="10.8415693"><ele>268.0</ele><time>2026-04-04T11:17:01.932Z</time></trkpt><trkpt lat="43.4291467" lon="10.8416891"><ele>268.0</ele><time>2026-04-04T11:17:02.932Z</time></trkpt><trkpt lat="43.4292376" lon="10.841803"><ele>268.0</ele><time>2026-04-04T11:17:03.931Z</time></trkpt><trkpt lat="43.4293245" lon="10.8419168"><ele>268.75</ele><time>2026-04-04T11:17:04.931Z</time></trkpt><trkpt lat="43.4294108" lon="10.8420343"><ele>269.5</ele><time>2026-04-04T11:17:05.931Z</time></trkpt><trkpt lat="43.4294993" lon="10.842163"><ele>270.25</ele><time>2026-04-04T11:17:06.932Z</time></trkpt><trkpt lat="43.429589" lon="10.8423014"><ele>271.0</ele><time>2026-04-04T11:17:07.932Z</time></trkpt><trkpt lat="43.4296737" lon="10.8424548"><ele>271.0</ele><time>2026-04-04T11:17:08.931Z</time></trkpt><trkpt lat="43.4297405" lon="10.8426207"><ele>271.0</ele><time>2026-04-04T11:17:09.932Z</time></trkpt><trkpt lat="43.4297915" lon="10.8427734"><ele>271.0</ele><time>2026-04-04T11:17:10.932Z</time></trkpt><trkpt lat="43.4298466" lon="10.8429215"><ele>271.0</ele><time>2026-04-04T11:17:11.931Z</time></trkpt><trkpt lat="43.4299064" lon="10.843062"><ele>268.8</ele><time>2026-04-04T11:17:12.931Z</time></trkpt><trkpt lat="43.4300011" lon="10.8431618"><ele>266.6</ele><time>2026-04-04T11:17:13.931Z</time></trkpt><trkpt lat="43.4300938" lon="10.8432494"><ele>264.4</ele><time>2026-04-04T11:17:14.932Z</time></trkpt><trkpt lat="43.4301747" lon="10.8433316"><ele>262.2</ele><time>2026-04-04T11:17:15.931Z</time></trkpt><trkpt lat="43.4302534" lon="10.8433978"><ele>260.0</ele><time>2026-04-04T11:17:16.932Z</time></trkpt><trkpt lat="43.4303303" lon="10.8434671"><ele>260.4</ele><time>2026-04-04T11:17:17.931Z</time></trkpt><trkpt lat="43.4304103" lon="10.8435388"><ele>260.8</ele><time>2026-04-04T11:17:18.932Z</time></trkpt><trkpt lat="43.4304973" lon="10.8436046"><ele>261.2</ele><time>2026-04-04T11:17:19.932Z</time></trkpt><trkpt lat="43.430591" lon="10.8436658"><ele>261.6</ele><time>2026-04-04T11:17:20.931Z</time></trkpt><trkpt lat="43.4306982" lon="10.8436927"><ele>262.0</ele><time>2026-04-04T11:17:21.932Z</time></trkpt><trkpt lat="43.430813" lon="10.8437098"><ele>262.0</ele><time>2026-04-04T11:17:22.932Z</time></trkpt><trkpt lat="43.4309415" lon="10.8436837"><ele>262.0</ele><time>2026-04-04T11:17:23.931Z</time></trkpt><trkpt lat="43.4310704" lon="10.843669"><ele>262.0</ele><time>2026-04-04T11:17:24.931Z</time></trkpt><trkpt lat="43.4312109" lon="10.8435705"><ele>262.0</ele><time>2026-04-04T11:17:25.931Z</time></trkpt><trkpt lat="43.4313441" lon="10.8434887"><ele>260.25</ele><time>2026-04-04T11:17:26.931Z</time></trkpt><trkpt lat="43.4314719" lon="10.8434077"><ele>258.5</ele><time>2026-04-04T11:17:27.931Z</time></trkpt><trkpt lat="43.4315944" lon="10.8433248"><ele>256.75</ele><time>2026-04-04T11:17:28.931Z</time></trkpt><trkpt lat="43.4317148" lon="10.8432436"><ele>255.0</ele><time>2026-04-04T11:17:29.931Z</time></trkpt><trkpt lat="43.4318365" lon="10.8431682"><ele>255.0</ele><time>2026-04-04T11:17:30.931Z</time></trkpt><trkpt lat="43.4319274" lon="10.8431122"><ele>255.0</ele><time>2026-04-04T11:17:31.931Z</time></trkpt><trkpt lat="43.4320154" lon="10.8430488"><ele>255.0</ele><time>2026-04-04T11:17:32.931Z</time></trkpt><trkpt lat="43.432109" lon="10.8429898"><ele>255.0</ele><time>2026-04-04T11:17:33.931Z</time></trkpt><trkpt lat="43.4322122" lon="10.8429456"><ele>255.0</ele><time>2026-04-04T11:17:34.932Z</time></trkpt><trkpt lat="43.4323173" lon="10.8429175"><ele>253.5</ele><time>2026-04-04T11:17:35.931Z</time></trkpt><trkpt lat="43.4324117" lon="10.8429053"><ele>252.0</ele><time>2026-04-04T11:17:36.931Z</time></trkpt><trkpt lat="43.4325094" lon="10.8429"><ele>250.5</ele><time>2026-04-04T11:17:37.932Z</time></trkpt><trkpt lat="43.4326021" lon="10.8428956"><ele>249.0</ele><time>2026-04-04T11:17:38.931Z</time></trkpt><trkpt lat="43.4326702" lon="10.8428974"><ele>247.5</ele><time>2026-04-04T11:17:39.931Z</time></trkpt><trkpt lat="43.4327538" lon="10.8429191"><ele>246.0</ele><time>2026-04-04T11:17:41.932Z</time></trkpt><trkpt lat="43.4328286" lon="10.8429387"><ele>246.0</ele><time>2026-04-04T11:17:45.931Z</time></trkpt><trkpt lat="43.4328674" lon="10.8428461"><ele>246.0</ele><time>2026-04-04T11:17:48.932Z</time></trkpt><trkpt lat="43.4328336" lon="10.8427555"><ele>246.0</ele><time>2026-04-04T11:17:50.931Z</time></trkpt><trkpt lat="43.4327946" lon="10.8426154"><ele>246.0</ele><time>2026-04-04T11:17:52.932Z</time></trkpt><trkpt lat="43.4327766" lon="10.8425311"><ele>246.0</ele><time>2026-04-04T11:17:53.932Z</time></trkpt><trkpt lat="43.4327522" lon="10.8424461"><ele>246.0</ele><time>2026-04-04T11:17:54.931Z</time></trkpt><trkpt lat="43.4326895" lon="10.842303"><ele>247.0</ele><time>2026-04-04T11:17:56.932Z</time></trkpt><trkpt lat="43.4326266" lon="10.842255"><ele>248.0</ele><time>2026-04-04T11:17:57.932Z</time></trkpt><trkpt lat="43.4325566" lon="10.8422068"><ele>249.0</ele><time>2026-04-04T11:17:58.931Z</time></trkpt><trkpt lat="43.4324721" lon="10.8421669"><ele>250.0</ele><time>2026-04-04T11:17:59.932Z</time></trkpt><trkpt lat="43.432397" lon="10.8421371"><ele>251.0</ele><time>2026-04-04T11:18:00.932Z</time></trkpt><trkpt lat="43.4322839" lon="10.8421078"><ele>252.0</ele><time>2026-04-04T11:18:01.932Z</time></trkpt><trkpt lat="43.4321785" lon="10.8420722"><ele>252.6</ele><time>2026-04-04T11:18:02.932Z</time></trkpt><trkpt lat="43.4320786" lon="10.8420416"><ele>253.2</ele><time>2026-04-04T11:18:03.931Z</time></trkpt><trkpt lat="43.431981" lon="10.8420065"><ele>253.8</ele><time>2026-04-04T11:18:04.932Z</time></trkpt><trkpt lat="43.4318946" lon="10.8419694"><ele>254.4</ele><time>2026-04-04T11:18:05.932Z</time></trkpt><trkpt lat="43.4318167" lon="10.8419335"><ele>255.0</ele><time>2026-04-04T11:18:06.931Z</time></trkpt><trkpt lat="43.4317455" lon="10.8418969"><ele>255.0</ele><time>2026-04-04T11:18:07.931Z</time></trkpt><trkpt lat="43.4316836" lon="10.8418476"><ele>255.0</ele><time>2026-04-04T11:18:08.932Z</time></trkpt><trkpt lat="43.4316225" lon="10.8417909"><ele>255.0</ele><time>2026-04-04T11:18:09.931Z</time></trkpt><trkpt lat="43.4315771" lon="10.8416976"><ele>255.0</ele><time>2026-04-04T11:18:10.931Z</time></trkpt><trkpt lat="43.4315424" lon="10.8415919"><ele>255.0</ele><time>2026-04-04T11:18:11.932Z</time></trkpt><trkpt lat="43.4315237" lon="10.8414916"><ele>255.0</ele><time>2026-04-04T11:18:12.932Z</time></trkpt><trkpt lat="43.4314906" lon="10.8413367"><ele>253.5</ele><time>2026-04-04T11:18:14.932Z</time></trkpt><trkpt lat="43.4314611" lon="10.8412126"><ele>252.0</ele><time>2026-04-04T11:18:16.932Z</time></trkpt><trkpt lat="43.4314525" lon="10.8411035"><ele>250.5</ele><time>2026-04-04T11:18:18.931Z</time></trkpt><trkpt lat="43.4314573" lon="10.8409999"><ele>249.0</ele><time>2026-04-04T11:18:20.932Z</time></trkpt><trkpt lat="43.4314881" lon="10.8408914"><ele>247.5</ele><time>2026-04-04T11:18:22.932Z</time></trkpt><trkpt lat="43.4315508" lon="10.8407874"><ele>246.0</ele><time>2026-04-04T11:18:24.931Z</time></trkpt><trkpt lat="43.4316281" lon="10.840652"><ele>244.60000000000002</ele><time>2026-04-04T11:18:26.931Z</time></trkpt><trkpt lat="43.4316841" lon="10.8405671"><ele>243.20000000000002</ele><time>2026-04-04T11:18:27.931Z</time></trkpt><trkpt lat="43.4317546" lon="10.8404782"><ele>241.79999999999998</ele><time>2026-04-04T11:18:28.932Z</time></trkpt><trkpt lat="43.4318378" lon="10.8403829"><ele>240.39999999999998</ele><time>2026-04-04T11:18:29.931Z</time></trkpt><trkpt lat="43.4319193" lon="10.8402752"><ele>239.0</ele><time>2026-04-04T11:18:30.931Z</time></trkpt><trkpt lat="43.4320034" lon="10.8401622"><ele>237.75</ele><time>2026-04-04T11:18:31.931Z</time></trkpt><trkpt lat="43.432093" lon="10.8400547"><ele>236.5</ele><time>2026-04-04T11:18:32.932Z</time></trkpt><trkpt lat="43.4322152" lon="10.8399219"><ele>235.25</ele><time>2026-04-04T11:18:33.932Z</time></trkpt><trkpt lat="43.432332" lon="10.8397917"><ele>234.0</ele><time>2026-04-04T11:18:34.931Z</time></trkpt><trkpt lat="43.43244" lon="10.8396619"><ele>232.25</ele><time>2026-04-04T11:18:35.931Z</time></trkpt><trkpt lat="43.4325371" lon="10.8395416"><ele>230.5</ele><time>2026-04-04T11:18:36.932Z</time></trkpt><trkpt lat="43.4326427" lon="10.8394234"><ele>228.75</ele><time>2026-04-04T11:18:37.931Z</time></trkpt><trkpt lat="43.4327589" lon="10.8393092"><ele>227.0</ele><time>2026-04-04T11:18:38.931Z</time></trkpt><trkpt lat="43.4328705" lon="10.8392223"><ele>228.25</ele><time>2026-04-04T11:18:39.932Z</time></trkpt><trkpt lat="43.4329934" lon="10.8391607"><ele>229.5</ele><time>2026-04-04T11:18:40.932Z</time></trkpt><trkpt lat="43.4331269" lon="10.8391011"><ele>230.75</ele><time>2026-04-04T11:18:41.932Z</time></trkpt><trkpt lat="43.4332633" lon="10.8390357"><ele>232.0</ele><time>2026-04-04T11:18:42.931Z</time></trkpt><trkpt lat="43.4333901" lon="10.8389689"><ele>232.0</ele><time>2026-04-04T11:18:43.931Z</time></trkpt><trkpt lat="43.433512" lon="10.8389019"><ele>232.0</ele><time>2026-04-04T11:18:44.932Z</time></trkpt><trkpt lat="43.4336366" lon="10.8388391"><ele>232.0</ele><time>2026-04-04T11:18:45.931Z</time></trkpt><trkpt lat="43.4337528" lon="10.8387983"><ele>232.0</ele><time>2026-04-04T11:18:46.931Z</time></trkpt><trkpt lat="43.4338644" lon="10.8387832"><ele>231.66666666666666</ele><time>2026-04-04T11:18:47.932Z</time></trkpt><trkpt lat="43.4339699" lon="10.8387812"><ele>231.33333333333331</ele><time>2026-04-04T11:18:48.932Z</time></trkpt><trkpt lat="43.4340597" lon="10.8387779"><ele>231.0</ele><time>2026-04-04T11:18:49.932Z</time></trkpt><trkpt lat="43.4341351" lon="10.8387545"><ele>230.66666666666669</ele><time>2026-04-04T11:18:50.932Z</time></trkpt><trkpt lat="43.4342082" lon="10.8387068"><ele>230.33333333333334</ele><time>2026-04-04T11:18:51.931Z</time></trkpt><trkpt lat="43.4342743" lon="10.8386419"><ele>230.0</ele><time>2026-04-04T11:18:52.931Z</time></trkpt><trkpt lat="43.4343209" lon="10.8385669"><ele>229.99999999999997</ele><time>2026-04-04T11:18:53.931Z</time></trkpt><trkpt lat="43.434358" lon="10.8384839"><ele>230.0</ele><time>2026-04-04T11:18:54.931Z</time></trkpt><trkpt lat="43.434366" lon="10.8383782"><ele>229.99999999999997</ele><time>2026-04-04T11:18:55.931Z</time></trkpt><trkpt lat="43.4343635" lon="10.8382677"><ele>229.99999999999997</ele><time>2026-04-04T11:18:56.932Z</time></trkpt><trkpt lat="43.4343531" lon="10.8381664"><ele>230.0</ele><time>2026-04-04T11:18:57.931Z</time></trkpt><trkpt lat="43.4343271" lon="10.8380745"><ele>229.99999999999997</ele><time>2026-04-04T11:18:58.931Z</time></trkpt><trkpt lat="43.4342901" lon="10.83799"><ele>229.99999999999997</ele><time>2026-04-04T11:18:59.931Z</time></trkpt><trkpt lat="43.4342375" lon="10.8379026"><ele>230.4</ele><time>2026-04-04T11:19:00.931Z</time></trkpt><trkpt lat="43.4341711" lon="10.837825"><ele>230.8</ele><time>2026-04-04T11:19:01.931Z</time></trkpt><trkpt lat="43.4340845" lon="10.8377473"><ele>231.2</ele><time>2026-04-04T11:19:02.931Z</time></trkpt><trkpt lat="43.4339901" lon="10.8376711"><ele>231.6</ele><time>2026-04-04T11:19:03.932Z</time></trkpt><trkpt lat="43.4338944" lon="10.8375915"><ele>232.0</ele><time>2026-04-04T11:19:04.932Z</time></trkpt><trkpt lat="43.4337979" lon="10.8375177"><ele>232.0</ele><time>2026-04-04T11:19:05.931Z</time></trkpt><trkpt lat="43.4337077" lon="10.8374428"><ele>232.0</ele><time>2026-04-04T11:19:06.931Z</time></trkpt><trkpt lat="43.4336232" lon="10.8373711"><ele>232.0</ele><time>2026-04-04T11:19:07.932Z</time></trkpt><trkpt lat="43.4335421" lon="10.8373027"><ele>232.0</ele><time>2026-04-04T11:19:08.932Z</time></trkpt><trkpt lat="43.4334683" lon="10.8372367"><ele>232.0</ele><time>2026-04-04T11:19:09.932Z</time></trkpt><trkpt lat="43.433399" lon="10.8371641"><ele>232.0</ele><time>2026-04-04T11:19:10.931Z</time></trkpt><trkpt lat="43.4333423" lon="10.8370629"><ele>232.0</ele><time>2026-04-04T11:19:11.932Z</time></trkpt><trkpt lat="43.4332985" lon="10.8369431"><ele>232.0</ele><time>2026-04-04T11:19:12.932Z</time></trkpt><trkpt lat="43.4332694" lon="10.8368113"><ele>232.0</ele><time>2026-04-04T11:19:13.931Z</time></trkpt><trkpt lat="43.4332486" lon="10.83668"><ele>232.0</ele><time>2026-04-04T11:19:14.931Z</time></trkpt><trkpt lat="43.4332485" lon="10.836557"><ele>229.2</ele><time>2026-04-04T11:19:15.932Z</time></trkpt><trkpt lat="43.4332537" lon="10.8364374"><ele>226.39999999999998</ele><time>2026-04-04T11:19:16.931Z</time></trkpt><trkpt lat="43.4333016" lon="10.8363056"><ele>223.60000000000002</ele><time>2026-04-04T11:19:17.931Z</time></trkpt><trkpt lat="43.43337" lon="10.8361609"><ele>220.8</ele><time>2026-04-04T11:19:18.932Z</time></trkpt><trkpt lat="43.4334401" lon="10.8360142"><ele>218.0</ele><time>2026-04-04T11:19:19.931Z</time></trkpt><trkpt lat="43.433506" lon="10.835857"><ele>216.5</ele><time>2026-04-04T11:19:20.931Z</time></trkpt><trkpt lat="43.4335634" lon="10.8356976"><ele>215.0</ele><time>2026-04-04T11:19:21.931Z</time></trkpt><trkpt lat="43.4336067" lon="10.8355432"><ele>213.5</ele><time>2026-04-04T11:19:22.931Z</time></trkpt><trkpt lat="43.4336336" lon="10.8353926"><ele>212.0</ele><time>2026-04-04T11:19:23.932Z</time></trkpt><trkpt lat="43.4336468" lon="10.8352451"><ele>212.0</ele><time>2026-04-04T11:19:24.931Z</time></trkpt><trkpt lat="43.4336517" lon="10.835085"><ele>212.0</ele><time>2026-04-04T11:19:25.931Z</time></trkpt><trkpt lat="43.4336611" lon="10.8349395"><ele>212.0</ele><time>2026-04-04T11:19:26.931Z</time></trkpt><trkpt lat="43.4336806" lon="10.8348162"><ele>212.0</ele><time>2026-04-04T11:19:27.931Z</time></trkpt><trkpt lat="43.4337208" lon="10.834711"><ele>212.0</ele><time>2026-04-04T11:19:28.931Z</time></trkpt><trkpt lat="43.4337845" lon="10.8346193"><ele>211.75</ele><time>2026-04-04T11:19:29.932Z</time></trkpt><trkpt lat="43.4338679" lon="10.8345368"><ele>211.5</ele><time>2026-04-04T11:19:30.931Z</time></trkpt><trkpt lat="43.4339668" lon="10.8344565"><ele>211.25</ele><time>2026-04-04T11:19:31.932Z</time></trkpt><trkpt lat="43.4340704" lon="10.8343687"><ele>211.0</ele><time>2026-04-04T11:19:32.931Z</time></trkpt><trkpt lat="43.4341663" lon="10.8342727"><ele>214.25</ele><time>2026-04-04T11:19:33.932Z</time></trkpt><trkpt lat="43.4342515" lon="10.8341596"><ele>217.5</ele><time>2026-04-04T11:19:34.931Z</time></trkpt><trkpt lat="43.4343354" lon="10.8340273"><ele>220.75</ele><time>2026-04-04T11:19:35.932Z</time></trkpt><trkpt lat="43.4344116" lon="10.8338781"><ele>224.0</ele><time>2026-04-04T11:19:36.931Z</time></trkpt><trkpt lat="43.4344795" lon="10.833727"><ele>224.0</ele><time>2026-04-04T11:19:37.932Z</time></trkpt><trkpt lat="43.4345412" lon="10.8335772"><ele>224.0</ele><time>2026-04-04T11:19:38.931Z</time></trkpt><trkpt lat="43.4345991" lon="10.8334159"><ele>224.0</ele><time>2026-04-04T11:19:39.931Z</time></trkpt><trkpt lat="43.4346574" lon="10.8332546"><ele>224.0</ele><time>2026-04-04T11:19:40.931Z</time></trkpt><trkpt lat="43.4347152" lon="10.8331077"><ele>223.79999999999998</ele><time>2026-04-04T11:19:41.931Z</time></trkpt><trkpt lat="43.4347812" lon="10.8329876"><ele>223.59999999999997</ele><time>2026-04-04T11:19:42.932Z</time></trkpt><trkpt lat="43.4348566" lon="10.832894"><ele>223.4</ele><time>2026-04-04T11:19:43.932Z</time></trkpt><trkpt lat="43.4349487" lon="10.8328253"><ele>223.2</ele><time>2026-04-04T11:19:44.931Z</time></trkpt><trkpt lat="43.4350568" lon="10.8327851"><ele>223.0</ele><time>2026-04-04T11:19:45.932Z</time></trkpt><trkpt lat="43.4351918" lon="10.8327641"><ele>223.0</ele><time>2026-04-04T11:19:46.931Z</time></trkpt><trkpt lat="43.4353353" lon="10.8327538"><ele>223.0</ele><time>2026-04-04T11:19:47.931Z</time></trkpt><trkpt lat="43.4354716" lon="10.8327621"><ele>223.0</ele><time>2026-04-04T11:19:48.932Z</time></trkpt><trkpt lat="43.43559" lon="10.832765"><ele>223.0</ele><time>2026-04-04T11:19:49.932Z</time></trkpt><trkpt lat="43.4356872" lon="10.8327557"><ele>222.16666666666666</ele><time>2026-04-04T11:19:50.932Z</time></trkpt><trkpt lat="43.4357627" lon="10.8327377"><ele>221.33333333333331</ele><time>2026-04-04T11:19:51.931Z</time></trkpt><trkpt lat="43.4358237" lon="10.8327055"><ele>220.5</ele><time>2026-04-04T11:19:52.932Z</time></trkpt><trkpt lat="43.4359181" lon="10.832589"><ele>219.66666666666669</ele><time>2026-04-04T11:19:54.932Z</time></trkpt><trkpt lat="43.4359575" lon="10.8324944"><ele>218.83333333333334</ele><time>2026-04-04T11:19:55.931Z</time></trkpt><trkpt lat="43.4359833" lon="10.8323825"><ele>218.0</ele><time>2026-04-04T11:19:56.931Z</time></trkpt><trkpt lat="43.4359946" lon="10.8322551"><ele>220.60000000000002</ele><time>2026-04-04T11:19:57.932Z</time></trkpt><trkpt lat="43.4359938" lon="10.8321248"><ele>223.20000000000002</ele><time>2026-04-04T11:19:58.931Z</time></trkpt><trkpt lat="43.4359864" lon="10.8319861"><ele>225.8</ele><time>2026-04-04T11:19:59.932Z</time></trkpt><trkpt lat="43.4359758" lon="10.8318558"><ele>228.4</ele><time>2026-04-04T11:20:00.932Z</time></trkpt><trkpt lat="43.4359648" lon="10.8317545"><ele>231.0</ele><time>2026-04-04T11:20:01.932Z</time></trkpt><trkpt lat="43.4359535" lon="10.8316165"><ele>231.0</ele><time>2026-04-04T11:20:03.931Z</time></trkpt><trkpt lat="43.4359435" lon="10.8314822"><ele>231.00000000000003</ele><time>2026-04-04T11:20:09.931Z</time></trkpt><trkpt lat="43.4359373" lon="10.8313778"><ele>231.00000000000003</ele><time>2026-04-04T11:20:10.931Z</time></trkpt><trkpt lat="43.4359317" lon="10.8312521"><ele>231.0</ele><time>2026-04-04T11:20:11.932Z</time></trkpt><trkpt lat="43.4359218" lon="10.8311166"><ele>231.0</ele><time>2026-04-04T11:20:12.932Z</time></trkpt><trkpt lat="43.4359049" lon="10.8309762"><ele>230.4</ele><time>2026-04-04T11:20:13.931Z</time></trkpt><trkpt lat="43.4358796" lon="10.8308398"><ele>229.8</ele><time>2026-04-04T11:20:14.932Z</time></trkpt><trkpt lat="43.4358426" lon="10.8307089"><ele>229.20000000000002</ele><time>2026-04-04T11:20:15.932Z</time></trkpt><trkpt lat="43.4357917" lon="10.8305773"><ele>228.60000000000002</ele><time>2026-04-04T11:20:16.932Z</time></trkpt><trkpt lat="43.4357188" lon="10.83045"><ele>228.0</ele><time>2026-04-04T11:20:17.931Z</time></trkpt><trkpt lat="43.4356394" lon="10.8303243"><ele>228.0</ele><time>2026-04-04T11:20:18.932Z</time></trkpt><trkpt lat="43.4355619" lon="10.8302071"><ele>228.0</ele><time>2026-04-04T11:20:19.932Z</time></trkpt><trkpt lat="43.4354809" lon="10.8300869"><ele>228.0</ele><time>2026-04-04T11:20:20.932Z</time></trkpt><trkpt lat="43.4354062" lon="10.8299663"><ele>228.0</ele><time>2026-04-04T11:20:21.932Z</time></trkpt><trkpt lat="43.4353424" lon="10.8298435"><ele>228.0</ele><time>2026-04-04T11:20:22.932Z</time></trkpt><trkpt lat="43.4352901" lon="10.82971"><ele>228.0</ele><time>2026-04-04T11:20:23.931Z</time></trkpt><trkpt lat="43.4352502" lon="10.8295659"><ele>228.0</ele><time>2026-04-04T11:20:24.931Z</time></trkpt><trkpt lat="43.4352196" lon="10.8294064"><ele>228.0</ele><time>2026-04-04T11:20:25.932Z</time></trkpt><trkpt lat="43.4351984" lon="10.8292543"><ele>228.0</ele><time>2026-04-04T11:20:26.931Z</time></trkpt><trkpt lat="43.4351854" lon="10.8291131"><ele>228.0</ele><time>2026-04-04T11:20:27.932Z</time></trkpt><trkpt lat="43.4351841" lon="10.8289502"><ele>228.0</ele><time>2026-04-04T11:20:28.932Z</time></trkpt><trkpt lat="43.4351959" lon="10.8287677"><ele>228.0</ele><time>2026-04-04T11:20:29.931Z</time></trkpt><trkpt lat="43.4352011" lon="10.8286004"><ele>228.5</ele><time>2026-04-04T11:20:30.931Z</time></trkpt><trkpt lat="43.4352424" lon="10.8284444"><ele>229.0</ele><time>2026-04-04T11:20:31.931Z</time></trkpt><trkpt lat="43.4352793" lon="10.8282897"><ele>229.5</ele><time>2026-04-04T11:20:32.932Z</time></trkpt><trkpt lat="43.4353149" lon="10.8281403"><ele>230.0</ele><time>2026-04-04T11:20:33.931Z</time></trkpt><trkpt lat="43.435353" lon="10.8279915"><ele>230.0</ele><time>2026-04-04T11:20:34.931Z</time></trkpt><trkpt lat="43.4354073" lon="10.8278431"><ele>230.0</ele><time>2026-04-04T11:20:35.931Z</time></trkpt><trkpt lat="43.4354809" lon="10.8276904"><ele>230.0</ele><time>2026-04-04T11:20:36.931Z</time></trkpt><trkpt lat="43.4355605" lon="10.8275457"><ele>230.0</ele><time>2026-04-04T11:20:37.931Z</time></trkpt><trkpt lat="43.4356461" lon="10.8273969"><ele>225.75</ele><time>2026-04-04T11:20:38.932Z</time></trkpt><trkpt lat="43.435733" lon="10.8272488"><ele>221.5</ele><time>2026-04-04T11:20:39.932Z</time></trkpt><trkpt lat="43.4358289" lon="10.8270977"><ele>217.25</ele><time>2026-04-04T11:20:40.931Z</time></trkpt><trkpt lat="43.4359148" lon="10.8269821"><ele>213.0</ele><time>2026-04-04T11:20:41.932Z</time></trkpt><trkpt lat="43.4360033" lon="10.8268642"><ele>212.25</ele><time>2026-04-04T11:20:42.932Z</time></trkpt><trkpt lat="43.4360854" lon="10.8267436"><ele>211.5</ele><time>2026-04-04T11:20:43.932Z</time></trkpt><trkpt lat="43.4361568" lon="10.8266161"><ele>210.75</ele><time>2026-04-04T11:20:44.931Z</time></trkpt><trkpt lat="43.4362117" lon="10.8264842"><ele>210.0</ele><time>2026-04-04T11:20:45.932Z</time></trkpt><trkpt lat="43.4362679" lon="10.826339"><ele>210.0</ele><time>2026-04-04T11:20:46.931Z</time></trkpt><trkpt lat="43.4362685" lon="10.826183"><ele>210.0</ele><time>2026-04-04T11:20:47.932Z</time></trkpt><trkpt lat="43.4362427" lon="10.8260242"><ele>210.0</ele><time>2026-04-04T11:20:48.932Z</time></trkpt><trkpt lat="43.4362048" lon="10.8258604"><ele>210.0</ele><time>2026-04-04T11:20:49.931Z</time></trkpt><trkpt lat="43.4361713" lon="10.8256818"><ele>209.75</ele><time>2026-04-04T11:20:50.932Z</time></trkpt><trkpt lat="43.4361376" lon="10.825523"><ele>209.5</ele><time>2026-04-04T11:20:51.931Z</time></trkpt><trkpt lat="43.4361438" lon="10.8253602"><ele>209.25</ele><time>2026-04-04T11:20:52.932Z</time></trkpt><trkpt lat="43.4361552" lon="10.8251875"><ele>209.0</ele><time>2026-04-04T11:20:53.931Z</time></trkpt><trkpt lat="43.4361785" lon="10.8250241"><ele>209.6</ele><time>2026-04-04T11:20:54.931Z</time></trkpt><trkpt lat="43.4361859" lon="10.8248725"><ele>210.2</ele><time>2026-04-04T11:20:55.931Z</time></trkpt><trkpt lat="43.4361761" lon="10.8247333"><ele>210.79999999999998</ele><time>2026-04-04T11:20:56.931Z</time></trkpt><trkpt lat="43.4361433" lon="10.8245929"><ele>211.39999999999998</ele><time>2026-04-04T11:20:57.931Z</time></trkpt><trkpt lat="43.4360883" lon="10.8244608"><ele>212.0</ele><time>2026-04-04T11:20:58.932Z</time></trkpt><trkpt lat="43.4360125" lon="10.824335"><ele>213.5</ele><time>2026-04-04T11:20:59.931Z</time></trkpt><trkpt lat="43.435925" lon="10.8242042"><ele>215.0</ele><time>2026-04-04T11:21:00.931Z</time></trkpt><trkpt lat="43.4358377" lon="10.8240749"><ele>216.5</ele><time>2026-04-04T11:21:01.932Z</time></trkpt><trkpt lat="43.4358012" lon="10.8239206"><ele>218.0</ele><time>2026-04-04T11:21:02.931Z</time></trkpt><trkpt lat="43.4357808" lon="10.8237586"><ele>218.0</ele><time>2026-04-04T11:21:03.931Z</time></trkpt><trkpt lat="43.4357671" lon="10.8236087"><ele>218.0</ele><time>2026-04-04T11:21:04.931Z</time></trkpt><trkpt lat="43.4357509" lon="10.8234772"><ele>218.0</ele><time>2026-04-04T11:21:05.932Z</time></trkpt><trkpt lat="43.4357189" lon="10.8233484"><ele>218.0</ele><time>2026-04-04T11:21:06.932Z</time></trkpt><trkpt lat="43.4356591" lon="10.8232131"><ele>218.0</ele><time>2026-04-04T11:21:07.932Z</time></trkpt><trkpt lat="43.4355821" lon="10.823057"><ele>218.0</ele><time>2026-04-04T11:21:08.931Z</time></trkpt><trkpt lat="43.4355013" lon="10.8228918"><ele>218.0</ele><time>2026-04-04T11:21:09.931Z</time></trkpt><trkpt lat="43.4354253" lon="10.8227229"><ele>218.0</ele><time>2026-04-04T11:21:10.932Z</time></trkpt><trkpt lat="43.4353572" lon="10.8225586"><ele>218.0</ele><time>2026-04-04T11:21:11.932Z</time></trkpt><trkpt lat="43.4352949" lon="10.8223893"><ele>218.2</ele><time>2026-04-04T11:21:12.931Z</time></trkpt><trkpt lat="43.4352322" lon="10.8222657"><ele>218.4</ele><time>2026-04-04T11:21:13.932Z</time></trkpt><trkpt lat="43.4351718" lon="10.8221513"><ele>218.59999999999997</ele><time>2026-04-04T11:21:14.932Z</time></trkpt><trkpt lat="43.4351049" lon="10.8220404"><ele>218.79999999999998</ele><time>2026-04-04T11:21:15.932Z</time></trkpt><trkpt lat="43.4350183" lon="10.8219346"><ele>219.0</ele><time>2026-04-04T11:21:16.932Z</time></trkpt><trkpt lat="43.4349071" lon="10.8218297"><ele>219.33333333333331</ele><time>2026-04-04T11:21:17.931Z</time></trkpt><trkpt lat="43.4347732" lon="10.8217264"><ele>219.66666666666666</ele><time>2026-04-04T11:21:18.931Z</time></trkpt><trkpt lat="43.4346202" lon="10.8216178"><ele>220.0</ele><time>2026-04-04T11:21:19.932Z</time></trkpt><trkpt lat="43.4344642" lon="10.8215093"><ele>218.0</ele><time>2026-04-04T11:21:20.931Z</time></trkpt><trkpt lat="43.4343129" lon="10.821403"><ele>216.0</ele><time>2026-04-04T11:21:21.931Z</time></trkpt><trkpt lat="43.4341558" lon="10.821288"><ele>214.0</ele><time>2026-04-04T11:21:22.932Z</time></trkpt><trkpt lat="43.4339953" lon="10.8211731"><ele>214.0</ele><time>2026-04-04T11:21:23.932Z</time></trkpt><trkpt lat="43.4338431" lon="10.8210669"><ele>214.0</ele><time>2026-04-04T11:21:24.931Z</time></trkpt><trkpt lat="43.4336947" lon="10.820961"><ele>214.0</ele><time>2026-04-04T11:21:25.931Z</time></trkpt><trkpt lat="43.4335395" lon="10.8208502"><ele>216.5</ele><time>2026-04-04T11:21:26.931Z</time></trkpt><trkpt lat="43.4333863" lon="10.8207422"><ele>219.0</ele><time>2026-04-04T11:21:27.932Z</time></trkpt><trkpt lat="43.4332506" lon="10.8206426"><ele>221.5</ele><time>2026-04-04T11:21:28.932Z</time></trkpt><trkpt lat="43.4331503" lon="10.8205614"><ele>224.0</ele><time>2026-04-04T11:21:29.931Z</time></trkpt><trkpt lat="43.433059" lon="10.8204849"><ele>224.0</ele><time>2026-04-04T11:21:30.931Z</time></trkpt><trkpt lat="43.4329774" lon="10.8204"><ele>223.99999999999997</ele><time>2026-04-04T11:21:31.932Z</time></trkpt><trkpt lat="43.4329055" lon="10.8203206"><ele>223.99999999999997</ele><time>2026-04-04T11:21:32.932Z</time></trkpt><trkpt lat="43.432829" lon="10.8202325"><ele>224.0</ele><time>2026-04-04T11:21:33.932Z</time></trkpt><trkpt lat="43.4327691" lon="10.8201334"><ele>224.0</ele><time>2026-04-04T11:21:34.931Z</time></trkpt><trkpt lat="43.4327015" lon="10.8200226"><ele>223.0</ele><time>2026-04-04T11:21:35.932Z</time></trkpt><trkpt lat="43.4326337" lon="10.819899"><ele>221.99999999999997</ele><time>2026-04-04T11:21:36.931Z</time></trkpt><trkpt lat="43.4325633" lon="10.8197683"><ele>220.99999999999997</ele><time>2026-04-04T11:21:37.932Z</time></trkpt><trkpt lat="43.4325025" lon="10.8196436"><ele>220.0</ele><time>2026-04-04T11:21:38.932Z</time></trkpt><trkpt lat="43.4324455" lon="10.8195253"><ele>219.0</ele><time>2026-04-04T11:21:39.932Z</time></trkpt><trkpt lat="43.4323871" lon="10.8194128"><ele>218.39999999999998</ele><time>2026-04-04T11:21:40.932Z</time></trkpt><trkpt lat="43.4323255" lon="10.819309"><ele>217.79999999999998</ele><time>2026-04-04T11:21:41.932Z</time></trkpt><trkpt lat="43.4322485" lon="10.8192013"><ele>217.20000000000002</ele><time>2026-04-04T11:21:42.931Z</time></trkpt><trkpt lat="43.4321607" lon="10.8190962"><ele>216.60000000000002</ele><time>2026-04-04T11:21:43.931Z</time></trkpt><trkpt lat="43.4320662" lon="10.8189956"><ele>216.0</ele><time>2026-04-04T11:21:44.931Z</time></trkpt><trkpt lat="43.4319685" lon="10.8188971"><ele>214.0</ele><time>2026-04-04T11:21:45.932Z</time></trkpt><trkpt lat="43.4318718" lon="10.818798"><ele>212.0</ele><time>2026-04-04T11:21:46.932Z</time></trkpt><trkpt lat="43.4317796" lon="10.8187017"><ele>210.0</ele><time>2026-04-04T11:21:47.931Z</time></trkpt><trkpt lat="43.4316874" lon="10.8186082"><ele>208.0</ele><time>2026-04-04T11:21:48.931Z</time></trkpt><trkpt lat="43.431602" lon="10.8185118"><ele>210.2</ele><time>2026-04-04T11:21:49.931Z</time></trkpt><trkpt lat="43.4315244" lon="10.8184113"><ele>212.4</ele><time>2026-04-04T11:21:50.931Z</time></trkpt><trkpt lat="43.4314576" lon="10.8183016"><ele>214.59999999999997</ele><time>2026-04-04T11:21:51.931Z</time></trkpt><trkpt lat="43.431406" lon="10.8181782"><ele>216.79999999999998</ele><time>2026-04-04T11:21:52.931Z</time></trkpt><trkpt lat="43.4313664" lon="10.818041"><ele>219.0</ele><time>2026-04-04T11:21:53.932Z</time></trkpt><trkpt lat="43.4313351" lon="10.8178992"><ele>218.0</ele><time>2026-04-04T11:21:54.931Z</time></trkpt><trkpt lat="43.4313046" lon="10.817762"><ele>216.99999999999997</ele><time>2026-04-04T11:21:55.931Z</time></trkpt><trkpt lat="43.4312699" lon="10.8176326"><ele>215.99999999999997</ele><time>2026-04-04T11:21:56.931Z</time></trkpt><trkpt lat="43.4312286" lon="10.817506"><ele>215.0</ele><time>2026-04-04T11:21:57.931Z</time></trkpt><trkpt lat="43.4311852" lon="10.8173919"><ele>214.0</ele><time>2026-04-04T11:21:58.931Z</time></trkpt><trkpt lat="43.4311328" lon="10.817273"><ele>214.0</ele><time>2026-04-04T11:21:59.931Z</time></trkpt><trkpt lat="43.4310727" lon="10.8171608"><ele>214.0</ele><time>2026-04-04T11:22:00.931Z</time></trkpt><trkpt lat="43.4309969" lon="10.817042"><ele>214.0</ele><time>2026-04-04T11:22:01.932Z</time></trkpt><trkpt lat="43.4309101" lon="10.8169213"><ele>214.0</ele><time>2026-04-04T11:22:02.931Z</time></trkpt><trkpt lat="43.4308258" lon="10.8168082"><ele>209.75</ele><time>2026-04-04T11:22:03.931Z</time></trkpt><trkpt lat="43.4307452" lon="10.8166892"><ele>205.5</ele><time>2026-04-04T11:22:04.932Z</time></trkpt><trkpt lat="43.4306704" lon="10.8165702"><ele>201.25</ele><time>2026-04-04T11:22:05.931Z</time></trkpt><trkpt lat="43.4306002" lon="10.8164554"><ele>197.0</ele><time>2026-04-04T11:22:06.932Z</time></trkpt><trkpt lat="43.4305296" lon="10.8163318"><ele>196.5</ele><time>2026-04-04T11:22:07.932Z</time></trkpt><trkpt lat="43.4304562" lon="10.8162043"><ele>196.0</ele><time>2026-04-04T11:22:08.931Z</time></trkpt><trkpt lat="43.4303877" lon="10.8160752"><ele>195.5</ele><time>2026-04-04T11:22:09.931Z</time></trkpt><trkpt lat="43.4303293" lon="10.8159376"><ele>195.0</ele><time>2026-04-04T11:22:10.931Z</time></trkpt><trkpt lat="43.4302756" lon="10.8158033"><ele>194.25</ele><time>2026-04-04T11:22:11.932Z</time></trkpt><trkpt lat="43.4302333" lon="10.8156675"><ele>193.5</ele><time>2026-04-04T11:22:12.932Z</time></trkpt><trkpt lat="43.4301988" lon="10.815509"><ele>192.75</ele><time>2026-04-04T11:22:13.932Z</time></trkpt><trkpt lat="43.4301668" lon="10.8153429"><ele>192.0</ele><time>2026-04-04T11:22:14.931Z</time></trkpt><trkpt lat="43.4301342" lon="10.8151887"><ele>191.25</ele><time>2026-04-04T11:22:15.932Z</time></trkpt><trkpt lat="43.4301008" lon="10.8150377"><ele>190.5</ele><time>2026-04-04T11:22:16.931Z</time></trkpt><trkpt lat="43.4300589" lon="10.8148985"><ele>189.75</ele><time>2026-04-04T11:22:17.931Z</time></trkpt><trkpt lat="43.4299992" lon="10.8147672"><ele>189.0</ele><time>2026-04-04T11:22:18.931Z</time></trkpt><trkpt lat="43.4299245" lon="10.8146444"><ele>189.0</ele><time>2026-04-04T11:22:19.931Z</time></trkpt><trkpt lat="43.4298281" lon="10.814525"><ele>189.0</ele><time>2026-04-04T11:22:20.932Z</time></trkpt><trkpt lat="43.4297155" lon="10.8144016"><ele>189.0</ele><time>2026-04-04T11:22:21.932Z</time></trkpt><trkpt lat="43.4295965" lon="10.8142816"><ele>189.0</ele><time>2026-04-04T11:22:22.932Z</time></trkpt><trkpt lat="43.4294882" lon="10.8141725"><ele>188.39999999999998</ele><time>2026-04-04T11:22:23.932Z</time></trkpt><trkpt lat="43.4293885" lon="10.8140639"><ele>187.8</ele><time>2026-04-04T11:22:24.931Z</time></trkpt><trkpt lat="43.4293016" lon="10.8139593"><ele>187.2</ele><time>2026-04-04T11:22:25.932Z</time></trkpt><trkpt lat="43.4292314" lon="10.8138658"><ele>186.60000000000002</ele><time>2026-04-04T11:22:26.932Z</time></trkpt><trkpt lat="43.4291618" lon="10.8137717"><ele>186.0</ele><time>2026-04-04T11:22:27.932Z</time></trkpt><trkpt lat="43.429114" lon="10.8136696"><ele>186.0</ele><time>2026-04-04T11:22:28.931Z</time></trkpt><trkpt lat="43.4290665" lon="10.8135529"><ele>186.0</ele><time>2026-04-04T11:22:29.932Z</time></trkpt><trkpt lat="43.4290291" lon="10.8134244"><ele>186.0</ele><time>2026-04-04T11:22:30.932Z</time></trkpt><trkpt lat="43.4289972" lon="10.8132757"><ele>186.0</ele><time>2026-04-04T11:22:31.931Z</time></trkpt><trkpt lat="43.4289699" lon="10.8131235"><ele>186.0</ele><time>2026-04-04T11:22:32.931Z</time></trkpt><trkpt lat="43.4289494" lon="10.812963"><ele>187.75</ele><time>2026-04-04T11:22:33.931Z</time></trkpt><trkpt lat="43.4289258" lon="10.8128114"><ele>189.5</ele><time>2026-04-04T11:22:34.932Z</time></trkpt><trkpt lat="43.4288976" lon="10.8126631"><ele>191.25</ele><time>2026-04-04T11:22:35.931Z</time></trkpt><trkpt lat="43.4288675" lon="10.812512"><ele>193.0</ele><time>2026-04-04T11:22:36.931Z</time></trkpt><trkpt lat="43.4288258" lon="10.8123618"><ele>189.75</ele><time>2026-04-04T11:22:37.931Z</time></trkpt><trkpt lat="43.4287766" lon="10.8122203"><ele>186.5</ele><time>2026-04-04T11:22:38.931Z</time></trkpt><trkpt lat="43.428719" lon="10.8120794"><ele>183.25</ele><time>2026-04-04T11:22:39.931Z</time></trkpt><trkpt lat="43.4286567" lon="10.8119415"><ele>180.0</ele><time>2026-04-04T11:22:40.931Z</time></trkpt><trkpt lat="43.4285929" lon="10.8118149"><ele>180.0</ele><time>2026-04-04T11:22:41.931Z</time></trkpt><trkpt lat="43.4285286" lon="10.8116861"><ele>180.0</ele><time>2026-04-04T11:22:42.931Z</time></trkpt><trkpt lat="43.4284656" lon="10.8115625"><ele>180.0</ele><time>2026-04-04T11:22:43.931Z</time></trkpt><trkpt lat="43.4284092" lon="10.8114428"><ele>180.0</ele><time>2026-04-04T11:22:44.932Z</time></trkpt><trkpt lat="43.4283607" lon="10.8113286"><ele>180.0</ele><time>2026-04-04T11:22:45.931Z</time></trkpt><trkpt lat="43.4283219" lon="10.811219"><ele>180.0</ele><time>2026-04-04T11:22:46.932Z</time></trkpt><trkpt lat="43.4282945" lon="10.8111012"><ele>180.0</ele><time>2026-04-04T11:22:47.932Z</time></trkpt><trkpt lat="43.4282851" lon="10.8109815"><ele>180.0</ele><time>2026-04-04T11:22:48.931Z</time></trkpt><trkpt lat="43.4282689" lon="10.8108565"><ele>180.0</ele><time>2026-04-04T11:22:49.932Z</time></trkpt><trkpt lat="43.4282859" lon="10.8107632"><ele>180.0</ele><time>2026-04-04T11:22:50.932Z</time></trkpt><trkpt lat="43.4283006" lon="10.8106615"><ele>180.0</ele><time>2026-04-04T11:22:51.932Z</time></trkpt><trkpt lat="43.4283096" lon="10.8105569"><ele>180.0</ele><time>2026-04-04T11:22:52.931Z</time></trkpt><trkpt lat="43.4283169" lon="10.8104466"><ele>180.0</ele><time>2026-04-04T11:22:53.931Z</time></trkpt><trkpt lat="43.4283269" lon="10.810323"><ele>180.0</ele><time>2026-04-04T11:22:54.931Z</time></trkpt><trkpt lat="43.4283372" lon="10.8101733"><ele>180.0</ele><time>2026-04-04T11:22:55.932Z</time></trkpt><trkpt lat="43.4283491" lon="10.8099962"><ele>180.0</ele><time>2026-04-04T11:22:56.931Z</time></trkpt><trkpt lat="43.4283618" lon="10.8097896"><ele>178.5</ele><time>2026-04-04T11:22:57.932Z</time></trkpt><trkpt lat="43.4283764" lon="10.8095846"><ele>177.0</ele><time>2026-04-04T11:22:58.931Z</time></trkpt><trkpt lat="43.4283886" lon="10.8093922"><ele>175.5</ele><time>2026-04-04T11:22:59.932Z</time></trkpt><trkpt lat="43.428401" lon="10.8092055"><ele>174.0</ele><time>2026-04-04T11:23:00.932Z</time></trkpt><trkpt lat="43.4284141" lon="10.809033"><ele>173.33333333333334</ele><time>2026-04-04T11:23:01.931Z</time></trkpt><trkpt lat="43.4284265" lon="10.8088777"><ele>172.66666666666666</ele><time>2026-04-04T11:23:02.931Z</time></trkpt><trkpt lat="43.4284363" lon="10.8087428"><ele>172.0</ele><time>2026-04-04T11:23:03.931Z</time></trkpt><trkpt lat="43.4284476" lon="10.80863"><ele>171.33333333333331</ele><time>2026-04-04T11:23:04.932Z</time></trkpt><trkpt lat="43.4284619" lon="10.8085283"><ele>170.66666666666666</ele><time>2026-04-04T11:23:05.931Z</time></trkpt><trkpt lat="43.4284863" lon="10.8084281"><ele>170.0</ele><time>2026-04-04T11:23:06.932Z</time></trkpt><trkpt lat="43.4285296" lon="10.8083252"><ele>169.6</ele><time>2026-04-04T11:23:07.932Z</time></trkpt><trkpt lat="43.4285934" lon="10.8082202"><ele>169.2</ele><time>2026-04-04T11:23:08.932Z</time></trkpt><trkpt lat="43.4286718" lon="10.8081142"><ele>168.8</ele><time>2026-04-04T11:23:09.931Z</time></trkpt><trkpt lat="43.4287518" lon="10.8080169"><ele>168.4</ele><time>2026-04-04T11:23:10.932Z</time></trkpt><trkpt lat="43.4288245" lon="10.8079222"><ele>168.0</ele><time>2026-04-04T11:23:11.931Z</time></trkpt><trkpt lat="43.4288891" lon="10.8078347"><ele>165.6</ele><time>2026-04-04T11:23:12.931Z</time></trkpt><trkpt lat="43.4289474" lon="10.8077451"><ele>163.20000000000002</ele><time>2026-04-04T11:23:13.932Z</time></trkpt><trkpt lat="43.4289936" lon="10.8076405"><ele>160.8</ele><time>2026-04-04T11:23:14.931Z</time></trkpt><trkpt lat="43.4290369" lon="10.8075217"><ele>158.4</ele><time>2026-04-04T11:23:15.932Z</time></trkpt><trkpt lat="43.4290759" lon="10.8073868"><ele>156.0</ele><time>2026-04-04T11:23:16.931Z</time></trkpt><trkpt lat="43.4291162" lon="10.8072339"><ele>156.0</ele><time>2026-04-04T11:23:17.931Z</time></trkpt><trkpt lat="43.4291602" lon="10.8070737"><ele>156.0</ele><time>2026-04-04T11:23:18.932Z</time></trkpt><trkpt lat="43.4292038" lon="10.8069204"><ele>156.0</ele><time>2026-04-04T11:23:19.932Z</time></trkpt><trkpt lat="43.4292462" lon="10.8067717"><ele>156.0</ele><time>2026-04-04T11:23:20.931Z</time></trkpt><trkpt lat="43.4292901" lon="10.8066178"><ele>155.25</ele><time>2026-04-04T11:23:21.931Z</time></trkpt><trkpt lat="43.4293329" lon="10.8064657"><ele>154.5</ele><time>2026-04-04T11:23:22.931Z</time></trkpt><trkpt lat="43.4293751" lon="10.8063124"><ele>153.75</ele><time>2026-04-04T11:23:23.931Z</time></trkpt><trkpt lat="43.4294166" lon="10.8061562"><ele>153.0</ele><time>2026-04-04T11:23:24.932Z</time></trkpt><trkpt lat="43.4294572" lon="10.806007"><ele>152.4</ele><time>2026-04-04T11:23:25.932Z</time></trkpt><trkpt lat="43.4295031" lon="10.8058633"><ele>151.8</ele><time>2026-04-04T11:23:26.932Z</time></trkpt><trkpt lat="43.4295533" lon="10.8057204"><ele>151.2</ele><time>2026-04-04T11:23:27.932Z</time></trkpt><trkpt lat="43.4296012" lon="10.8055812"><ele>150.6</ele><time>2026-04-04T11:23:28.932Z</time></trkpt><trkpt lat="43.4296374" lon="10.8054471"><ele>150.0</ele><time>2026-04-04T11:23:29.931Z</time></trkpt><trkpt lat="43.4296747" lon="10.8053191"><ele>147.4</ele><time>2026-04-04T11:23:30.932Z</time></trkpt><trkpt lat="43.4297164" lon="10.8051986"><ele>144.8</ele><time>2026-04-04T11:23:31.931Z</time></trkpt><trkpt lat="43.4297595" lon="10.8050862"><ele>142.2</ele><time>2026-04-04T11:23:32.932Z</time></trkpt><trkpt lat="43.4297993" lon="10.8049768"><ele>139.6</ele><time>2026-04-04T11:23:33.931Z</time></trkpt><trkpt lat="43.429835" lon="10.8048614"><ele>137.0</ele><time>2026-04-04T11:23:34.931Z</time></trkpt><trkpt lat="43.4298619" lon="10.8047412"><ele>136.16666666666666</ele><time>2026-04-04T11:23:35.931Z</time></trkpt><trkpt lat="43.4298746" lon="10.8046238"><ele>135.33333333333331</ele><time>2026-04-04T11:23:36.931Z</time></trkpt><trkpt lat="43.4298725" lon="10.8045077"><ele>134.5</ele><time>2026-04-04T11:23:37.931Z</time></trkpt><trkpt lat="43.4298609" lon="10.8043876"><ele>133.66666666666666</ele><time>2026-04-04T11:23:38.931Z</time></trkpt><trkpt lat="43.4298384" lon="10.8042732"><ele>132.83333333333334</ele><time>2026-04-04T11:23:39.931Z</time></trkpt><trkpt lat="43.4298075" lon="10.8041732"><ele>132.0</ele><time>2026-04-04T11:23:40.932Z</time></trkpt><trkpt lat="43.4297664" lon="10.8040796"><ele>132.5</ele><time>2026-04-04T11:23:41.931Z</time></trkpt><trkpt lat="43.4297177" lon="10.8039945"><ele>133.0</ele><time>2026-04-04T11:23:42.932Z</time></trkpt><trkpt lat="43.4296543" lon="10.8039099"><ele>133.5</ele><time>2026-04-04T11:23:43.931Z</time></trkpt><trkpt lat="43.4295869" lon="10.8038526"><ele>134.0</ele><time>2026-04-04T11:23:44.931Z</time></trkpt><trkpt lat="43.4295071" lon="10.8038063"><ele>134.5</ele><time>2026-04-04T11:23:45.932Z</time></trkpt><trkpt lat="43.4294259" lon="10.8037695"><ele>135.0</ele><time>2026-04-04T11:23:46.931Z</time></trkpt><trkpt lat="43.4293368" lon="10.8037477"><ele>135.0</ele><time>2026-04-04T11:23:47.931Z</time></trkpt><trkpt lat="43.429248" lon="10.8037336"><ele>135.0</ele><time>2026-04-04T11:23:48.931Z</time></trkpt><trkpt lat="43.4291642" lon="10.8037222"><ele>135.0</ele><time>2026-04-04T11:23:49.932Z</time></trkpt><trkpt lat="43.4290853" lon="10.8037086"><ele>135.0</ele><time>2026-04-04T11:23:50.931Z</time></trkpt><trkpt lat="43.4290092" lon="10.8036865"><ele>135.0</ele><time>2026-04-04T11:23:51.931Z</time></trkpt><trkpt lat="43.428933" lon="10.8036422"><ele>135.0</ele><time>2026-04-04T11:23:52.932Z</time></trkpt><trkpt lat="43.428862" lon="10.8035868"><ele>132.66666666666666</ele><time>2026-04-04T11:23:53.931Z</time></trkpt><trkpt lat="43.428793" lon="10.8034942"><ele>130.33333333333334</ele><time>2026-04-04T11:23:54.932Z</time></trkpt><trkpt lat="43.4287298" lon="10.8033987"><ele>128.0</ele><time>2026-04-04T11:23:55.931Z</time></trkpt><trkpt lat="43.4286646" lon="10.8033098"><ele>125.66666666666667</ele><time>2026-04-04T11:23:56.931Z</time></trkpt><trkpt lat="43.4286089" lon="10.8032317"><ele>123.33333333333334</ele><time>2026-04-04T11:23:57.931Z</time></trkpt><trkpt lat="43.4285607" lon="10.8031536"><ele>121.0</ele><time>2026-04-04T11:23:58.932Z</time></trkpt><trkpt lat="43.4284765" lon="10.8030452"><ele>121.0</ele><time>2026-04-04T11:24:00.932Z</time></trkpt><trkpt lat="43.4283658" lon="10.8029792"><ele>121.0</ele><time>2026-04-04T11:24:02.931Z</time></trkpt><trkpt lat="43.4283053" lon="10.80295"><ele>121.0</ele><time>2026-04-04T11:24:03.931Z</time></trkpt><trkpt lat="43.4282096" lon="10.8029454"><ele>121.0</ele><time>2026-04-04T11:24:04.932Z</time></trkpt><trkpt lat="43.4281202" lon="10.8029457"><ele>121.0</ele><time>2026-04-04T11:24:05.931Z</time></trkpt><trkpt lat="43.4280322" lon="10.8029467"><ele>120.16666666666667</ele><time>2026-04-04T11:24:06.932Z</time></trkpt><trkpt lat="43.4279398" lon="10.8029499"><ele>119.33333333333334</ele><time>2026-04-04T11:24:07.932Z</time></trkpt><trkpt lat="43.4278562" lon="10.8029443"><ele>118.5</ele><time>2026-04-04T11:24:08.932Z</time></trkpt><trkpt lat="43.427778" lon="10.8029266"><ele>117.66666666666666</ele><time>2026-04-04T11:24:09.931Z</time></trkpt><trkpt lat="43.4277053" lon="10.802892"><ele>116.83333333333333</ele><time>2026-04-04T11:24:10.931Z</time></trkpt><trkpt lat="43.4276327" lon="10.8028314"><ele>116.0</ele><time>2026-04-04T11:24:11.931Z</time></trkpt><trkpt lat="43.427576" lon="10.8027488"><ele>115.0</ele><time>2026-04-04T11:24:12.931Z</time></trkpt><trkpt lat="43.4275373" lon="10.8026549"><ele>114.0</ele><time>2026-04-04T11:24:13.931Z</time></trkpt><trkpt lat="43.4275123" lon="10.802543"><ele>113.0</ele><time>2026-04-04T11:24:14.932Z</time></trkpt><trkpt lat="43.42751" lon="10.8024186"><ele>112.0</ele><time>2026-04-04T11:24:15.931Z</time></trkpt><trkpt lat="43.4275296" lon="10.8022923"><ele>111.0</ele><time>2026-04-04T11:24:16.932Z</time></trkpt><trkpt lat="43.427541" lon="10.8021518"><ele>111.0</ele><time>2026-04-04T11:24:17.931Z</time></trkpt><trkpt lat="43.4275798" lon="10.8019673"><ele>111.0</ele><time>2026-04-04T11:24:18.931Z</time></trkpt><trkpt lat="43.4276113" lon="10.8017756"><ele>111.0</ele><time>2026-04-04T11:24:19.932Z</time></trkpt><trkpt lat="43.4276329" lon="10.8016043"><ele>111.0</ele><time>2026-04-04T11:24:20.931Z</time></trkpt><trkpt lat="43.4276578" lon="10.8014434"><ele>111.19999999999999</ele><time>2026-04-04T11:24:21.931Z</time></trkpt><trkpt lat="43.4276816" lon="10.8012863"><ele>111.39999999999999</ele><time>2026-04-04T11:24:22.932Z</time></trkpt><trkpt lat="43.4277069" lon="10.8011295"><ele>111.6</ele><time>2026-04-04T11:24:23.931Z</time></trkpt><trkpt lat="43.427736" lon="10.8009855"><ele>111.8</ele><time>2026-04-04T11:24:24.932Z</time></trkpt><trkpt lat="43.4277793" lon="10.8008559"><ele>112.0</ele><time>2026-04-04T11:24:25.931Z</time></trkpt><trkpt lat="43.4278449" lon="10.8007471"><ele>112.0</ele><time>2026-04-04T11:24:26.931Z</time></trkpt><trkpt lat="43.4279264" lon="10.8006599"><ele>111.99999999999999</ele><time>2026-04-04T11:24:27.932Z</time></trkpt><trkpt lat="43.4280243" lon="10.8005899"><ele>111.99999999999999</ele><time>2026-04-04T11:24:28.931Z</time></trkpt><trkpt lat="43.4281317" lon="10.8005447"><ele>112.0</ele><time>2026-04-04T11:24:29.932Z</time></trkpt><trkpt lat="43.4282519" lon="10.8005121"><ele>112.0</ele><time>2026-04-04T11:24:30.931Z</time></trkpt><trkpt lat="43.428394" lon="10.800489"><ele>113.0</ele><time>2026-04-04T11:24:31.932Z</time></trkpt><trkpt lat="43.4285429" lon="10.8004742"><ele>114.0</ele><time>2026-04-04T11:24:32.931Z</time></trkpt><trkpt lat="43.4287082" lon="10.8004769"><ele>115.0</ele><time>2026-04-04T11:24:33.932Z</time></trkpt><trkpt lat="43.428871" lon="10.8004894"><ele>115.0</ele><time>2026-04-04T11:24:34.932Z</time></trkpt><trkpt lat="43.4290186" lon="10.8005034"><ele>115.0</ele><time>2026-04-04T11:24:35.931Z</time></trkpt><trkpt lat="43.4291549" lon="10.8005181"><ele>115.0</ele><time>2026-04-04T11:24:36.932Z</time></trkpt><trkpt lat="43.4292711" lon="10.800536"><ele>115.0</ele><time>2026-04-04T11:24:37.931Z</time></trkpt><trkpt lat="43.429385" lon="10.8005545"><ele>115.0</ele><time>2026-04-04T11:24:38.931Z</time></trkpt><trkpt lat="43.429499" lon="10.8005629"><ele>115.0</ele><time>2026-04-04T11:24:39.931Z</time></trkpt><trkpt lat="43.4296131" lon="10.8005551"><ele>115.0</ele><time>2026-04-04T11:24:40.932Z</time></trkpt><trkpt lat="43.4297239" lon="10.8005368"><ele>115.0</ele><time>2026-04-04T11:24:41.931Z</time></trkpt><trkpt lat="43.429835" lon="10.8005064"><ele>114.8</ele><time>2026-04-04T11:24:42.931Z</time></trkpt><trkpt lat="43.4299437" lon="10.80046"><ele>114.6</ele><time>2026-04-04T11:24:43.932Z</time></trkpt><trkpt lat="43.4300582" lon="10.8004118"><ele>114.4</ele><time>2026-04-04T11:24:44.931Z</time></trkpt><trkpt lat="43.4301614" lon="10.8003633"><ele>114.2</ele><time>2026-04-04T11:24:45.932Z</time></trkpt><trkpt lat="43.4302499" lon="10.8003148"><ele>114.0</ele><time>2026-04-04T11:24:46.931Z</time></trkpt><trkpt lat="43.4303376" lon="10.8002647"><ele>114.0</ele><time>2026-04-04T11:24:47.931Z</time></trkpt><trkpt lat="43.4303953" lon="10.8002046"><ele>114.0</ele><time>2026-04-04T11:24:48.931Z</time></trkpt><trkpt lat="43.4304609" lon="10.8001446"><ele>114.0</ele><time>2026-04-04T11:24:49.932Z</time></trkpt><trkpt lat="43.4305031" lon="10.800036"><ele>114.0</ele><time>2026-04-04T11:24:50.932Z</time></trkpt><trkpt lat="43.4305386" lon="10.7999087"><ele>114.0</ele><time>2026-04-04T11:24:51.932Z</time></trkpt><trkpt lat="43.4305713" lon="10.7997846"><ele>114.0</ele><time>2026-04-04T11:24:52.932Z</time></trkpt><trkpt lat="43.4305852" lon="10.7996478"><ele>115.0</ele><time>2026-04-04T11:24:53.932Z</time></trkpt><trkpt lat="43.4305898" lon="10.7995085"><ele>116.0</ele><time>2026-04-04T11:24:54.931Z</time></trkpt><trkpt lat="43.4305843" lon="10.7993778"><ele>117.0</ele><time>2026-04-04T11:24:55.931Z</time></trkpt><trkpt lat="43.4305671" lon="10.7992522"><ele>118.0</ele><time>2026-04-04T11:24:56.932Z</time></trkpt><trkpt lat="43.4305383" lon="10.7991289"><ele>119.0</ele><time>2026-04-04T11:24:57.931Z</time></trkpt><trkpt lat="43.430495" lon="10.799006"><ele>123.25</ele><time>2026-04-04T11:24:58.931Z</time></trkpt><trkpt lat="43.430442" lon="10.7988915"><ele>127.5</ele><time>2026-04-04T11:24:59.931Z</time></trkpt><trkpt lat="43.4303678" lon="10.7987685"><ele>131.75</ele><time>2026-04-04T11:25:00.932Z</time></trkpt><trkpt lat="43.4302862" lon="10.7986405"><ele>136.0</ele><time>2026-04-04T11:25:01.932Z</time></trkpt><trkpt lat="43.4301914" lon="10.7985046"><ele>135.0</ele><time>2026-04-04T11:25:02.931Z</time></trkpt><trkpt lat="43.4300932" lon="10.7983733"><ele>134.0</ele><time>2026-04-04T11:25:03.931Z</time></trkpt><trkpt lat="43.430008" lon="10.7982553"><ele>133.0</ele><time>2026-04-04T11:25:04.932Z</time></trkpt><trkpt lat="43.4299329" lon="10.7981219"><ele>132.0</ele><time>2026-04-04T11:25:05.931Z</time></trkpt><trkpt lat="43.4298649" lon="10.7979714"><ele>132.0</ele><time>2026-04-04T11:25:06.931Z</time></trkpt><trkpt lat="43.4297994" lon="10.7978305"><ele>132.0</ele><time>2026-04-04T11:25:07.932Z</time></trkpt><trkpt lat="43.4297222" lon="10.7976928"><ele>132.0</ele><time>2026-04-04T11:25:08.931Z</time></trkpt><trkpt lat="43.4296378" lon="10.7975534"><ele>132.0</ele><time>2026-04-04T11:25:09.931Z</time></trkpt><trkpt lat="43.4295447" lon="10.7974038"><ele>134.33333333333334</ele><time>2026-04-04T11:25:10.931Z</time></trkpt><trkpt lat="43.4294344" lon="10.797253"><ele>136.66666666666669</ele><time>2026-04-04T11:25:11.931Z</time></trkpt><trkpt lat="43.4293194" lon="10.7971071"><ele>139.0</ele><time>2026-04-04T11:25:12.932Z</time></trkpt><trkpt lat="43.4292114" lon="10.796989"><ele>139.0</ele><time>2026-04-04T11:25:13.932Z</time></trkpt><trkpt lat="43.4291051" lon="10.7968736"><ele>139.0</ele><time>2026-04-04T11:25:14.932Z</time></trkpt><trkpt lat="43.4289877" lon="10.7967545"><ele>139.0</ele><time>2026-04-04T11:25:15.932Z</time></trkpt><trkpt lat="43.4288581" lon="10.7966429"><ele>139.0</ele><time>2026-04-04T11:25:16.932Z</time></trkpt><trkpt lat="43.4287445" lon="10.7965359"><ele>142.5</ele><time>2026-04-04T11:25:17.931Z</time></trkpt><trkpt lat="43.42865" lon="10.796434"><ele>146.0</ele><time>2026-04-04T11:25:18.931Z</time></trkpt><trkpt lat="43.4285513" lon="10.7963236"><ele>149.5</ele><time>2026-04-04T11:25:19.931Z</time></trkpt><trkpt lat="43.428447" lon="10.7962332"><ele>153.0</ele><time>2026-04-04T11:25:20.931Z</time></trkpt><trkpt lat="43.4283433" lon="10.7961549"><ele>153.0</ele><time>2026-04-04T11:25:21.931Z</time></trkpt><trkpt lat="43.4282256" lon="10.7960795"><ele>153.0</ele><time>2026-04-04T11:25:22.932Z</time></trkpt><trkpt lat="43.4280934" lon="10.7960092"><ele>153.0</ele><time>2026-04-04T11:25:23.932Z</time></trkpt><trkpt lat="43.4279531" lon="10.7959309"><ele>153.0</ele><time>2026-04-04T11:25:24.932Z</time></trkpt><trkpt lat="43.4278195" lon="10.795867"><ele>153.5</ele><time>2026-04-04T11:25:25.931Z</time></trkpt><trkpt lat="43.4276844" lon="10.7958003"><ele>154.0</ele><time>2026-04-04T11:25:26.932Z</time></trkpt><trkpt lat="43.4275611" lon="10.7957256"><ele>154.5</ele><time>2026-04-04T11:25:27.931Z</time></trkpt><trkpt lat="43.4274452" lon="10.795651"><ele>155.0</ele><time>2026-04-04T11:25:28.931Z</time></trkpt><trkpt lat="43.4273285" lon="10.7955793"><ele>155.0</ele><time>2026-04-04T11:25:29.932Z</time></trkpt><trkpt lat="43.4272202" lon="10.7955007"><ele>155.0</ele><time>2026-04-04T11:25:30.931Z</time></trkpt><trkpt lat="43.4271087" lon="10.7954013"><ele>155.0</ele><time>2026-04-04T11:25:31.932Z</time></trkpt><trkpt lat="43.4270009" lon="10.795305"><ele>155.0</ele><time>2026-04-04T11:25:32.931Z</time></trkpt><trkpt lat="43.4269246" lon="10.795199"><ele>158.0</ele><time>2026-04-04T11:25:33.931Z</time></trkpt><trkpt lat="43.4268551" lon="10.7950924"><ele>161.0</ele><time>2026-04-04T11:25:34.931Z</time></trkpt><trkpt lat="43.4267943" lon="10.7949602"><ele>164.0</ele><time>2026-04-04T11:25:35.932Z</time></trkpt><trkpt lat="43.426738" lon="10.7947946"><ele>167.0</ele><time>2026-04-04T11:25:36.931Z</time></trkpt><trkpt lat="43.426696" lon="10.7946174"><ele>167.0</ele><time>2026-04-04T11:25:37.932Z</time></trkpt><trkpt lat="43.4266708" lon="10.7944427"><ele>167.0</ele><time>2026-04-04T11:25:38.932Z</time></trkpt><trkpt lat="43.4266563" lon="10.7942529"><ele>167.0</ele><time>2026-04-04T11:25:39.932Z</time></trkpt><trkpt lat="43.4266533" lon="10.7940409"><ele>167.0</ele><time>2026-04-04T11:25:40.932Z</time></trkpt><trkpt lat="43.426656" lon="10.7938248"><ele>167.66666666666666</ele><time>2026-04-04T11:25:41.931Z</time></trkpt><trkpt lat="43.4266608" lon="10.7936011"><ele>168.33333333333334</ele><time>2026-04-04T11:25:42.931Z</time></trkpt><trkpt lat="43.4266708" lon="10.793386"><ele>169.0</ele><time>2026-04-04T11:25:43.932Z</time></trkpt><trkpt lat="43.4266827" lon="10.7931828"><ele>169.75</ele><time>2026-04-04T11:25:44.931Z</time></trkpt><trkpt lat="43.4266938" lon="10.7929737"><ele>170.5</ele><time>2026-04-04T11:25:45.931Z</time></trkpt><trkpt lat="43.426698" lon="10.792773"><ele>171.25</ele><time>2026-04-04T11:25:46.932Z</time></trkpt><trkpt lat="43.4267026" lon="10.7925761"><ele>172.0</ele><time>2026-04-04T11:25:47.931Z</time></trkpt><trkpt lat="43.4267203" lon="10.7923757"><ele>173.66666666666669</ele><time>2026-04-04T11:25:48.932Z</time></trkpt><trkpt lat="43.4267383" lon="10.792169"><ele>175.33333333333334</ele><time>2026-04-04T11:25:49.932Z</time></trkpt><trkpt lat="43.4267506" lon="10.7919564"><ele>177.0</ele><time>2026-04-04T11:25:50.932Z</time></trkpt><trkpt lat="43.4267614" lon="10.7917386"><ele>179.0</ele><time>2026-04-04T11:25:51.931Z</time></trkpt><trkpt lat="43.4267714" lon="10.7915188"><ele>181.0</ele><time>2026-04-04T11:25:52.932Z</time></trkpt><trkpt lat="43.4267862" lon="10.7913073"><ele>183.0</ele><time>2026-04-04T11:25:53.932Z</time></trkpt><trkpt lat="43.4267983" lon="10.7911003"><ele>183.5</ele><time>2026-04-04T11:25:54.932Z</time></trkpt><trkpt lat="43.4268114" lon="10.7908909"><ele>184.0</ele><time>2026-04-04T11:25:55.932Z</time></trkpt><trkpt lat="43.4268206" lon="10.7906914"><ele>184.5</ele><time>2026-04-04T11:25:56.932Z</time></trkpt><trkpt lat="43.4268274" lon="10.7904991"><ele>185.0</ele><time>2026-04-04T11:25:57.932Z</time></trkpt><trkpt lat="43.426831" lon="10.7903054"><ele>185.75</ele><time>2026-04-04T11:25:58.932Z</time></trkpt><trkpt lat="43.4268364" lon="10.790119"><ele>186.5</ele><time>2026-04-04T11:25:59.931Z</time></trkpt><trkpt lat="43.4268438" lon="10.7899237"><ele>187.25</ele><time>2026-04-04T11:26:00.932Z</time></trkpt><trkpt lat="43.4268525" lon="10.789708"><ele>188.0</ele><time>2026-04-04T11:26:01.932Z</time></trkpt><trkpt lat="43.4268641" lon="10.7894889"><ele>189.0</ele><time>2026-04-04T11:26:02.932Z</time></trkpt><trkpt lat="43.4268706" lon="10.7892726"><ele>190.0</ele><time>2026-04-04T11:26:03.931Z</time></trkpt><trkpt lat="43.4268775" lon="10.7890663"><ele>191.0</ele><time>2026-04-04T11:26:04.932Z</time></trkpt><trkpt lat="43.4268834" lon="10.7888692"><ele>191.0</ele><time>2026-04-04T11:26:05.932Z</time></trkpt><trkpt lat="43.4268836" lon="10.7886739"><ele>191.0</ele><time>2026-04-04T11:26:06.931Z</time></trkpt><trkpt lat="43.4269076" lon="10.7885208"><ele>191.0</ele><time>2026-04-04T11:26:07.931Z</time></trkpt><trkpt lat="43.4269369" lon="10.7883604"><ele>191.0</ele><time>2026-04-04T11:26:08.931Z</time></trkpt><trkpt lat="43.4269847" lon="10.7881889"><ele>191.33333333333331</ele><time>2026-04-04T11:26:09.932Z</time></trkpt><trkpt lat="43.4270368" lon="10.7880127"><ele>191.66666666666666</ele><time>2026-04-04T11:26:10.931Z</time></trkpt><trkpt lat="43.4271506" lon="10.787834"><ele>192.0</ele><time>2026-04-04T11:26:11.932Z</time></trkpt><trkpt lat="43.4272545" lon="10.7876701"><ele>194.5</ele><time>2026-04-04T11:26:12.932Z</time></trkpt><trkpt lat="43.4273492" lon="10.7875229"><ele>197.0</ele><time>2026-04-04T11:26:13.931Z</time></trkpt><trkpt lat="43.4274535" lon="10.787379"><ele>199.5</ele><time>2026-04-04T11:26:14.932Z</time></trkpt><trkpt lat="43.4275597" lon="10.7872364"><ele>202.0</ele><time>2026-04-04T11:26:15.931Z</time></trkpt><trkpt lat="43.4276687" lon="10.7871043"><ele>202.0</ele><time>2026-04-04T11:26:16.931Z</time></trkpt><trkpt lat="43.4277732" lon="10.7869826"><ele>202.0</ele><time>2026-04-04T11:26:17.932Z</time></trkpt><trkpt lat="43.4278856" lon="10.7868608"><ele>202.0</ele><time>2026-04-04T11:26:18.932Z</time></trkpt><trkpt lat="43.4279959" lon="10.7867439"><ele>202.0</ele><time>2026-04-04T11:26:19.931Z</time></trkpt><trkpt lat="43.4280979" lon="10.7866319"><ele>203.25</ele><time>2026-04-04T11:26:20.932Z</time></trkpt><trkpt lat="43.4282031" lon="10.7865053"><ele>204.5</ele><time>2026-04-04T11:26:21.932Z</time></trkpt><trkpt lat="43.4283054" lon="10.7863628"><ele>205.75</ele><time>2026-04-04T11:26:22.931Z</time></trkpt><trkpt lat="43.4283971" lon="10.786213"><ele>207.0</ele><time>2026-04-04T11:26:23.931Z</time></trkpt><trkpt lat="43.4284807" lon="10.7860633"><ele>204.25</ele><time>2026-04-04T11:26:24.932Z</time></trkpt><trkpt lat="43.4285581" lon="10.7859121"><ele>201.5</ele><time>2026-04-04T11:26:25.931Z</time></trkpt><trkpt lat="43.4286261" lon="10.7857558"><ele>198.75</ele><time>2026-04-04T11:26:26.931Z</time></trkpt><trkpt lat="43.4286794" lon="10.7855957"><ele>196.0</ele><time>2026-04-04T11:26:27.931Z</time></trkpt><trkpt lat="43.4287176" lon="10.7854262"><ele>196.0</ele><time>2026-04-04T11:26:28.932Z</time></trkpt><trkpt lat="43.4287347" lon="10.7852476"><ele>196.0</ele><time>2026-04-04T11:26:29.932Z</time></trkpt><trkpt lat="43.4287393" lon="10.7850639"><ele>196.0</ele><time>2026-04-04T11:26:30.932Z</time></trkpt><trkpt lat="43.4287257" lon="10.7848736"><ele>196.0</ele><time>2026-04-04T11:26:31.932Z</time></trkpt><trkpt lat="43.4286956" lon="10.7846709"><ele>195.25</ele><time>2026-04-04T11:26:32.931Z</time></trkpt><trkpt lat="43.4286616" lon="10.7844746"><ele>194.5</ele><time>2026-04-04T11:26:33.932Z</time></trkpt><trkpt lat="43.4286295" lon="10.7842961"><ele>193.75</ele><time>2026-04-04T11:26:34.932Z</time></trkpt><trkpt lat="43.4285982" lon="10.7841356"><ele>193.0</ele><time>2026-04-04T11:26:35.931Z</time></trkpt><trkpt lat="43.4285713" lon="10.7839752"><ele>193.0</ele><time>2026-04-04T11:26:36.931Z</time></trkpt><trkpt lat="43.4285447" lon="10.7838083"><ele>193.0</ele><time>2026-04-04T11:26:37.932Z</time></trkpt><trkpt lat="43.4285135" lon="10.7836445"><ele>193.0</ele><time>2026-04-04T11:26:38.932Z</time></trkpt><trkpt lat="43.4284786" lon="10.7834768"><ele>193.0</ele><time>2026-04-04T11:26:39.932Z</time></trkpt><trkpt lat="43.4284365" lon="10.7833069"><ele>195.0</ele><time>2026-04-04T11:26:40.931Z</time></trkpt><trkpt lat="43.4283891" lon="10.7831418"><ele>197.0</ele><time>2026-04-04T11:26:41.932Z</time></trkpt><trkpt lat="43.4283423" lon="10.7829877"><ele>199.0</ele><time>2026-04-04T11:26:42.932Z</time></trkpt><trkpt lat="43.4282934" lon="10.7828427"><ele>201.0</ele><time>2026-04-04T11:26:43.932Z</time></trkpt><trkpt lat="43.428236" lon="10.7826878"><ele>200.75</ele><time>2026-04-04T11:26:44.931Z</time></trkpt><trkpt lat="43.4281682" lon="10.7825349"><ele>200.5</ele><time>2026-04-04T11:26:45.931Z</time></trkpt><trkpt lat="43.4280876" lon="10.7823814"><ele>200.25</ele><time>2026-04-04T11:26:46.931Z</time></trkpt><trkpt lat="43.4279951" lon="10.7822289"><ele>200.0</ele><time>2026-04-04T11:26:47.932Z</time></trkpt><trkpt lat="43.4279025" lon="10.7820822"><ele>198.25</ele><time>2026-04-04T11:26:48.932Z</time></trkpt><trkpt lat="43.4278168" lon="10.7819415"><ele>196.5</ele><time>2026-04-04T11:26:49.932Z</time></trkpt><trkpt lat="43.4277334" lon="10.7818139"><ele>194.75</ele><time>2026-04-04T11:26:50.932Z</time></trkpt><trkpt lat="43.4276579" lon="10.7816954"><ele>193.0</ele><time>2026-04-04T11:26:51.932Z</time></trkpt><trkpt lat="43.4275851" lon="10.7815799"><ele>193.0</ele><time>2026-04-04T11:26:52.932Z</time></trkpt><trkpt lat="43.4275055" lon="10.7814629"><ele>193.0</ele><time>2026-04-04T11:26:53.931Z</time></trkpt><trkpt lat="43.4274235" lon="10.7813399"><ele>193.0</ele><time>2026-04-04T11:26:54.932Z</time></trkpt><trkpt lat="43.4273376" lon="10.781211"><ele>193.0</ele><time>2026-04-04T11:26:55.931Z</time></trkpt><trkpt lat="43.4272572" lon="10.7810894"><ele>193.8</ele><time>2026-04-04T11:26:56.932Z</time></trkpt><trkpt lat="43.4271789" lon="10.7809737"><ele>194.60000000000002</ele><time>2026-04-04T11:26:57.931Z</time></trkpt><trkpt lat="43.4271038" lon="10.7808562"><ele>195.39999999999998</ele><time>2026-04-04T11:26:58.932Z</time></trkpt><trkpt lat="43.4270318" lon="10.7807468"><ele>196.2</ele><time>2026-04-04T11:26:59.932Z</time></trkpt><trkpt lat="43.4269587" lon="10.780643"><ele>197.0</ele><time>2026-04-04T11:27:00.931Z</time></trkpt><trkpt lat="43.4268842" lon="10.7805456"><ele>194.8</ele><time>2026-04-04T11:27:01.931Z</time></trkpt><trkpt lat="43.4268028" lon="10.7804615"><ele>192.6</ele><time>2026-04-04T11:27:02.932Z</time></trkpt><trkpt lat="43.426712" lon="10.7803887"><ele>190.4</ele><time>2026-04-04T11:27:03.932Z</time></trkpt><trkpt lat="43.426615" lon="10.7803465"><ele>188.20000000000002</ele><time>2026-04-04T11:27:04.931Z</time></trkpt><trkpt lat="43.4265045" lon="10.7803222"><ele>186.0</ele><time>2026-04-04T11:27:05.932Z</time></trkpt><trkpt lat="43.4263881" lon="10.780315"><ele>186.5</ele><time>2026-04-04T11:27:06.932Z</time></trkpt><trkpt lat="43.4262762" lon="10.7803055"><ele>187.0</ele><time>2026-04-04T11:27:07.931Z</time></trkpt><trkpt lat="43.426168" lon="10.7802849"><ele>187.5</ele><time>2026-04-04T11:27:08.931Z</time></trkpt><trkpt lat="43.4260478" lon="10.780245"><ele>188.0</ele><time>2026-04-04T11:27:09.931Z</time></trkpt><trkpt lat="43.4259301" lon="10.7801826"><ele>188.0</ele><time>2026-04-04T11:27:10.932Z</time></trkpt><trkpt lat="43.4258305" lon="10.7801214"><ele>188.0</ele><time>2026-04-04T11:27:11.932Z</time></trkpt><trkpt lat="43.4257378" lon="10.7800588"><ele>188.0</ele><time>2026-04-04T11:27:12.931Z</time></trkpt><trkpt lat="43.4256502" lon="10.7799931"><ele>188.0</ele><time>2026-04-04T11:27:13.931Z</time></trkpt><trkpt lat="43.4255692" lon="10.7799199"><ele>188.0</ele><time>2026-04-04T11:27:14.931Z</time></trkpt><trkpt lat="43.4254866" lon="10.779827"><ele>185.25</ele><time>2026-04-04T11:27:15.932Z</time></trkpt><trkpt lat="43.4254059" lon="10.7797047"><ele>182.5</ele><time>2026-04-04T11:27:16.932Z</time></trkpt><trkpt lat="43.4253276" lon="10.7795719"><ele>179.75</ele><time>2026-04-04T11:27:17.931Z</time></trkpt><trkpt lat="43.4252503" lon="10.7794362"><ele>177.0</ele><time>2026-04-04T11:27:18.931Z</time></trkpt><trkpt lat="43.4251739" lon="10.7793012"><ele>177.0</ele><time>2026-04-04T11:27:19.932Z</time></trkpt><trkpt lat="43.4251" lon="10.7791768"><ele>177.0</ele><time>2026-04-04T11:27:20.932Z</time></trkpt><trkpt lat="43.4250287" lon="10.7790467"><ele>177.0</ele><time>2026-04-04T11:27:21.932Z</time></trkpt><trkpt lat="43.4249605" lon="10.7789262"><ele>177.0</ele><time>2026-04-04T11:27:22.931Z</time></trkpt><trkpt lat="43.424897" lon="10.7788135"><ele>177.0</ele><time>2026-04-04T11:27:23.931Z</time></trkpt><trkpt lat="43.4248362" lon="10.7787013"><ele>177.0</ele><time>2026-04-04T11:27:24.931Z</time></trkpt><trkpt lat="43.4247779" lon="10.7785874"><ele>177.0</ele><time>2026-04-04T11:27:25.932Z</time></trkpt><trkpt lat="43.4247278" lon="10.778469"><ele>177.0</ele><time>2026-04-04T11:27:26.932Z</time></trkpt><trkpt lat="43.424688" lon="10.7783392"><ele>177.0</ele><time>2026-04-04T11:27:27.931Z</time></trkpt><trkpt lat="43.4246668" lon="10.7781917"><ele>177.2</ele><time>2026-04-04T11:27:28.931Z</time></trkpt><trkpt lat="43.4246606" lon="10.7780395"><ele>177.39999999999998</ele><time>2026-04-04T11:27:29.932Z</time></trkpt><trkpt lat="43.4246669" lon="10.7778911"><ele>177.60000000000002</ele><time>2026-04-04T11:27:30.931Z</time></trkpt><trkpt lat="43.4246743" lon="10.7777454"><ele>177.8</ele><time>2026-04-04T11:27:31.931Z</time></trkpt><trkpt lat="43.4246935" lon="10.7776022"><ele>178.0</ele><time>2026-04-04T11:27:32.932Z</time></trkpt><trkpt lat="43.424719" lon="10.7774519"><ele>176.25</ele><time>2026-04-04T11:27:33.932Z</time></trkpt><trkpt lat="43.4247574" lon="10.7773052"><ele>174.5</ele><time>2026-04-04T11:27:34.931Z</time></trkpt><trkpt lat="43.4248084" lon="10.7771607"><ele>172.75</ele><time>2026-04-04T11:27:35.931Z</time></trkpt><trkpt lat="43.4248649" lon="10.7770265"><ele>171.0</ele><time>2026-04-04T11:27:36.932Z</time></trkpt><trkpt lat="43.4249216" lon="10.7768992"><ele>169.60000000000002</ele><time>2026-04-04T11:27:37.932Z</time></trkpt><trkpt lat="43.4249821" lon="10.7767716"><ele>168.2</ele><time>2026-04-04T11:27:38.932Z</time></trkpt><trkpt lat="43.4250387" lon="10.7766476"><ele>166.8</ele><time>2026-04-04T11:27:39.932Z</time></trkpt><trkpt lat="43.4250893" lon="10.7765381"><ele>165.39999999999998</ele><time>2026-04-04T11:27:40.932Z</time></trkpt><trkpt lat="43.4251294" lon="10.7764299"><ele>164.0</ele><time>2026-04-04T11:27:41.932Z</time></trkpt><trkpt lat="43.4251576" lon="10.776311"><ele>164.0</ele><time>2026-04-04T11:27:42.931Z</time></trkpt><trkpt lat="43.4251912" lon="10.7762007"><ele>164.0</ele><time>2026-04-04T11:27:43.931Z</time></trkpt><trkpt lat="43.4251871" lon="10.7760519"><ele>164.0</ele><time>2026-04-04T11:27:44.931Z</time></trkpt><trkpt lat="43.4251736" lon="10.7758838"><ele>164.0</ele><time>2026-04-04T11:27:45.931Z</time></trkpt><trkpt lat="43.4251578" lon="10.7757123"><ele>164.0</ele><time>2026-04-04T11:27:46.931Z</time></trkpt><trkpt lat="43.4251427" lon="10.7755434"><ele>162.39999999999998</ele><time>2026-04-04T11:27:47.931Z</time></trkpt><trkpt lat="43.4251314" lon="10.7753811"><ele>160.79999999999998</ele><time>2026-04-04T11:27:48.931Z</time></trkpt><trkpt lat="43.4251238" lon="10.7752242"><ele>159.2</ele><time>2026-04-04T11:27:49.931Z</time></trkpt><trkpt lat="43.4251191" lon="10.7750862"><ele>157.6</ele><time>2026-04-04T11:27:50.932Z</time></trkpt><trkpt lat="43.4251158" lon="10.7749633"><ele>156.0</ele><time>2026-04-04T11:27:51.931Z</time></trkpt><trkpt lat="43.4251152" lon="10.7748597"><ele>154.83333333333334</ele><time>2026-04-04T11:27:52.931Z</time></trkpt><trkpt lat="43.4250838" lon="10.7746977"><ele>153.66666666666666</ele><time>2026-04-04T11:27:54.931Z</time></trkpt><trkpt lat="43.4250399" lon="10.774627"><ele>152.5</ele><time>2026-04-04T11:27:55.931Z</time></trkpt><trkpt lat="43.4249829" lon="10.7745749"><ele>151.33333333333331</ele><time>2026-04-04T11:27:56.931Z</time></trkpt><trkpt lat="43.4249146" lon="10.7745553"><ele>150.16666666666666</ele><time>2026-04-04T11:27:57.932Z</time></trkpt><trkpt lat="43.4248423" lon="10.7745646"><ele>149.0</ele><time>2026-04-04T11:27:58.932Z</time></trkpt><trkpt lat="43.4247738" lon="10.7746077"><ele>149.0</ele><time>2026-04-04T11:27:59.931Z</time></trkpt><trkpt lat="43.4247032" lon="10.7746842"><ele>149.0</ele><time>2026-04-04T11:28:00.931Z</time></trkpt><trkpt lat="43.4246285" lon="10.7747917"><ele>149.0</ele><time>2026-04-04T11:28:01.931Z</time></trkpt><trkpt lat="43.4245625" lon="10.7749068"><ele>149.0</ele><time>2026-04-04T11:28:02.931Z</time></trkpt><trkpt lat="43.4245042" lon="10.7750254"><ele>149.0</ele><time>2026-04-04T11:28:03.932Z</time></trkpt><trkpt lat="43.4244573" lon="10.7751388"><ele>147.66666666666666</ele><time>2026-04-04T11:28:04.931Z</time></trkpt><trkpt lat="43.4244183" lon="10.7752565"><ele>146.33333333333331</ele><time>2026-04-04T11:28:05.932Z</time></trkpt><trkpt lat="43.4243878" lon="10.7753907"><ele>145.0</ele><time>2026-04-04T11:28:06.931Z</time></trkpt><trkpt lat="43.4243672" lon="10.7755147"><ele>143.66666666666666</ele><time>2026-04-04T11:28:07.931Z</time></trkpt><trkpt lat="43.4243536" lon="10.7756271"><ele>142.33333333333334</ele><time>2026-04-04T11:28:08.931Z</time></trkpt><trkpt lat="43.4243326" lon="10.7757305"><ele>141.0</ele><time>2026-04-04T11:28:09.932Z</time></trkpt><trkpt lat="43.4242975" lon="10.775843"><ele>141.0</ele><time>2026-04-04T11:28:10.931Z</time></trkpt><trkpt lat="43.4242435" lon="10.7759473"><ele>141.0</ele><time>2026-04-04T11:28:11.931Z</time></trkpt><trkpt lat="43.4241772" lon="10.7760321"><ele>141.0</ele><time>2026-04-04T11:28:12.932Z</time></trkpt><trkpt lat="43.424091" lon="10.7761059"><ele>141.0</ele><time>2026-04-04T11:28:13.931Z</time></trkpt><trkpt lat="43.4240023" lon="10.776168"><ele>141.0</ele><time>2026-04-04T11:28:14.931Z</time></trkpt><trkpt lat="43.423913" lon="10.7762158"><ele>142.4</ele><time>2026-04-04T11:28:15.931Z</time></trkpt><trkpt lat="43.423826" lon="10.7762572"><ele>143.8</ele><time>2026-04-04T11:28:16.932Z</time></trkpt><trkpt lat="43.4237391" lon="10.7762981"><ele>145.20000000000002</ele><time>2026-04-04T11:28:17.931Z</time></trkpt><trkpt lat="43.423643" lon="10.7763337"><ele>146.6</ele><time>2026-04-04T11:28:18.931Z</time></trkpt><trkpt lat="43.4235345" lon="10.7763535"><ele>148.0</ele><time>2026-04-04T11:28:19.931Z</time></trkpt><trkpt lat="43.4234197" lon="10.7763549"><ele>144.8</ele><time>2026-04-04T11:28:20.931Z</time></trkpt><trkpt lat="43.4233046" lon="10.7763572"><ele>141.60000000000002</ele><time>2026-04-04T11:28:21.931Z</time></trkpt><trkpt lat="43.4232088" lon="10.7763359"><ele>138.39999999999998</ele><time>2026-04-04T11:28:22.932Z</time></trkpt><trkpt lat="43.4231185" lon="10.776309"><ele>135.2</ele><time>2026-04-04T11:28:23.932Z</time></trkpt><trkpt lat="43.4230184" lon="10.7762833"><ele>132.0</ele><time>2026-04-04T11:28:24.931Z</time></trkpt><trkpt lat="43.4229415" lon="10.7761829"><ele>131.75</ele><time>2026-04-04T11:28:25.932Z</time></trkpt><trkpt lat="43.4228735" lon="10.7760586"><ele>131.5</ele><time>2026-04-04T11:28:26.931Z</time></trkpt><trkpt lat="43.4228018" lon="10.7759081"><ele>131.25</ele><time>2026-04-04T11:28:27.931Z</time></trkpt><trkpt lat="43.4227336" lon="10.7757484"><ele>131.0</ele><time>2026-04-04T11:28:28.931Z</time></trkpt><trkpt lat="43.4226652" lon="10.7755426"><ele>131.0</ele><time>2026-04-04T11:28:29.931Z</time></trkpt><trkpt lat="43.4226018" lon="10.7753485"><ele>131.0</ele><time>2026-04-04T11:28:30.931Z</time></trkpt><trkpt lat="43.4225389" lon="10.7751674"><ele>131.0</ele><time>2026-04-04T11:28:31.931Z</time></trkpt><trkpt lat="43.4224768" lon="10.7749952"><ele>131.0</ele><time>2026-04-04T11:28:32.932Z</time></trkpt><trkpt lat="43.4224188" lon="10.7748318"><ele>130.6</ele><time>2026-04-04T11:28:33.931Z</time></trkpt><trkpt lat="43.4223628" lon="10.7746813"><ele>130.2</ele><time>2026-04-04T11:28:34.932Z</time></trkpt><trkpt lat="43.4223143" lon="10.7745436"><ele>129.8</ele><time>2026-04-04T11:28:35.932Z</time></trkpt><trkpt lat="43.4222704" lon="10.7744212"><ele>129.4</ele><time>2026-04-04T11:28:36.931Z</time></trkpt><trkpt lat="43.4222318" lon="10.7743217"><ele>129.0</ele><time>2026-04-04T11:28:37.931Z</time></trkpt><trkpt lat="43.4222013" lon="10.7742404"><ele>128.4</ele><time>2026-04-04T11:28:38.932Z</time></trkpt><trkpt lat="43.4221825" lon="10.7741206"><ele>127.80000000000001</ele><time>2026-04-04T11:28:40.932Z</time></trkpt><trkpt lat="43.4222388" lon="10.7740177"><ele>127.19999999999999</ele><time>2026-04-04T11:28:42.932Z</time></trkpt><trkpt lat="43.4223063" lon="10.7739616"><ele>126.6</ele><time>2026-04-04T11:28:43.932Z</time></trkpt><trkpt lat="43.4223947" lon="10.7738766"><ele>126.0</ele><time>2026-04-04T11:28:44.932Z</time></trkpt><trkpt lat="43.4225014" lon="10.7737655"><ele>126.0</ele><time>2026-04-04T11:28:45.931Z</time></trkpt><trkpt lat="43.4226251" lon="10.7736386"><ele>126.0</ele><time>2026-04-04T11:28:46.931Z</time></trkpt><trkpt lat="43.4227649" lon="10.7734914"><ele>126.0</ele><time>2026-04-04T11:28:47.932Z</time></trkpt><trkpt lat="43.4228942" lon="10.7733564"><ele>125.6</ele><time>2026-04-04T11:28:48.932Z</time></trkpt><trkpt lat="43.4229926" lon="10.7732453"><ele>125.19999999999999</ele><time>2026-04-04T11:28:49.931Z</time></trkpt><trkpt lat="43.4230592" lon="10.7731732"><ele>124.80000000000001</ele><time>2026-04-04T11:28:50.931Z</time></trkpt><trkpt lat="43.4231106" lon="10.7731186"><ele>124.4</ele><time>2026-04-04T11:28:52.931Z</time></trkpt><trkpt lat="43.4231981" lon="10.7730427"><ele>124.0</ele><time>2026-04-04T11:30:30.931Z</time></trkpt><trkpt lat="43.4232536" lon="10.7729559"><ele>124.0</ele><time>2026-04-04T11:30:31.932Z</time></trkpt><trkpt lat="43.4232988" lon="10.7728551"><ele>124.0</ele><time>2026-04-04T11:30:32.931Z</time></trkpt><trkpt lat="43.423326" lon="10.7727214"><ele>124.0</ele><time>2026-04-04T11:30:33.932Z</time></trkpt><trkpt lat="43.4233223" lon="10.7725661"><ele>124.0</ele><time>2026-04-04T11:30:34.931Z</time></trkpt><trkpt lat="43.423296" lon="10.7724034"><ele>124.0</ele><time>2026-04-04T11:30:35.932Z</time></trkpt><trkpt lat="43.4232784" lon="10.7722496"><ele>124.0</ele><time>2026-04-04T11:30:36.932Z</time></trkpt><trkpt lat="43.4233064" lon="10.7720947"><ele>124.0</ele><time>2026-04-04T11:30:37.931Z</time></trkpt><trkpt lat="43.4233751" lon="10.7719567"><ele>124.0</ele><time>2026-04-04T11:30:38.932Z</time></trkpt><trkpt lat="43.4234668" lon="10.771847"><ele>124.0</ele><time>2026-04-04T11:30:39.931Z</time></trkpt><trkpt lat="43.4235767" lon="10.7717536"><ele>124.33333333333334</ele><time>2026-04-04T11:30:40.931Z</time></trkpt><trkpt lat="43.423693" lon="10.7716482"><ele>124.66666666666666</ele><time>2026-04-04T11:30:41.932Z</time></trkpt><trkpt lat="43.423808" lon="10.7715127"><ele>125.0</ele><time>2026-04-04T11:30:42.931Z</time></trkpt><trkpt lat="43.4239209" lon="10.7713474"><ele>125.0</ele><time>2026-04-04T11:30:43.931Z</time></trkpt><trkpt lat="43.4240341" lon="10.7711678"><ele>125.0</ele><time>2026-04-04T11:30:44.932Z</time></trkpt><trkpt lat="43.4241389" lon="10.7709932"><ele>125.0</ele><time>2026-04-04T11:30:45.932Z</time></trkpt><trkpt lat="43.4242283" lon="10.7708237"><ele>125.5</ele><time>2026-04-04T11:30:46.932Z</time></trkpt><trkpt lat="43.4242975" lon="10.7706479"><ele>126.0</ele><time>2026-04-04T11:30:47.931Z</time></trkpt><trkpt lat="43.4243358" lon="10.7704554"><ele>126.5</ele><time>2026-04-04T11:30:48.932Z</time></trkpt><trkpt lat="43.4243291" lon="10.7702567"><ele>127.0</ele><time>2026-04-04T11:30:49.932Z</time></trkpt><trkpt lat="43.4242751" lon="10.7700661"><ele>126.0</ele><time>2026-04-04T11:30:50.931Z</time></trkpt><trkpt lat="43.4241918" lon="10.7698819"><ele>125.0</ele><time>2026-04-04T11:30:51.932Z</time></trkpt><trkpt lat="43.4241088" lon="10.7696996"><ele>124.0</ele><time>2026-04-04T11:30:52.932Z</time></trkpt><trkpt lat="43.4240317" lon="10.769551"><ele>123.0</ele><time>2026-04-04T11:30:53.931Z</time></trkpt><trkpt lat="43.4239702" lon="10.769408"><ele>122.60000000000001</ele><time>2026-04-04T11:30:54.932Z</time></trkpt><trkpt lat="43.4239424" lon="10.7692646"><ele>122.20000000000002</ele><time>2026-04-04T11:30:55.932Z</time></trkpt><trkpt lat="43.4239538" lon="10.7691219"><ele>121.8</ele><time>2026-04-04T11:30:56.932Z</time></trkpt><trkpt lat="43.4240087" lon="10.7690031"><ele>121.4</ele><time>2026-04-04T11:30:57.931Z</time></trkpt><trkpt lat="43.4240919" lon="10.7688859"><ele>121.0</ele><time>2026-04-04T11:30:58.931Z</time></trkpt><trkpt lat="43.4241875" lon="10.7687493"><ele>121.0</ele><time>2026-04-04T11:30:59.932Z</time></trkpt><trkpt lat="43.4242957" lon="10.7685893"><ele>121.0</ele><time>2026-04-04T11:31:00.932Z</time></trkpt><trkpt lat="43.424417" lon="10.7684125"><ele>121.0</ele><time>2026-04-04T11:31:01.931Z</time></trkpt><trkpt lat="43.4245522" lon="10.7682369"><ele>122.33333333333334</ele><time>2026-04-04T11:31:02.932Z</time></trkpt><trkpt lat="43.4247022" lon="10.768074"><ele>123.66666666666666</ele><time>2026-04-04T11:31:03.931Z</time></trkpt><trkpt lat="43.4248568" lon="10.767923"><ele>125.0</ele><time>2026-04-04T11:31:04.931Z</time></trkpt><trkpt lat="43.4249957" lon="10.7677477"><ele>126.33333333333333</ele><time>2026-04-04T11:31:05.931Z</time></trkpt><trkpt lat="43.425102" lon="10.7675406"><ele>127.66666666666666</ele><time>2026-04-04T11:31:06.932Z</time></trkpt><trkpt lat="43.4251894" lon="10.767307"><ele>129.0</ele><time>2026-04-04T11:31:07.931Z</time></trkpt><trkpt lat="43.4252795" lon="10.7670695"><ele>129.0</ele><time>2026-04-04T11:31:08.931Z</time></trkpt><trkpt lat="43.425374" lon="10.766829"><ele>129.0</ele><time>2026-04-04T11:31:09.932Z</time></trkpt><trkpt lat="43.425474" lon="10.7665856"><ele>129.0</ele><time>2026-04-04T11:31:10.932Z</time></trkpt><trkpt lat="43.4255688" lon="10.7663431"><ele>131.33333333333334</ele><time>2026-04-04T11:31:11.931Z</time></trkpt><trkpt lat="43.4256576" lon="10.7661169"><ele>133.66666666666669</ele><time>2026-04-04T11:31:12.932Z</time></trkpt><trkpt lat="43.4257589" lon="10.7659277"><ele>136.0</ele><time>2026-04-04T11:31:13.932Z</time></trkpt><trkpt lat="43.4258779" lon="10.7657589"><ele>136.0</ele><time>2026-04-04T11:31:14.931Z</time></trkpt><trkpt lat="43.4259992" lon="10.765605"><ele>136.0</ele><time>2026-04-04T11:31:15.932Z</time></trkpt><trkpt lat="43.4260907" lon="10.7654425"><ele>136.0</ele><time>2026-04-04T11:31:16.932Z</time></trkpt><trkpt lat="43.4261412" lon="10.7652457"><ele>136.0</ele><time>2026-04-04T11:31:17.931Z</time></trkpt><trkpt lat="43.4261542" lon="10.7650312"><ele>136.0</ele><time>2026-04-04T11:31:18.931Z</time></trkpt><trkpt lat="43.4261513" lon="10.7648233"><ele>136.0</ele><time>2026-04-04T11:31:19.932Z</time></trkpt><trkpt lat="43.4261627" lon="10.764638"><ele>136.0</ele><time>2026-04-04T11:31:20.932Z</time></trkpt><trkpt lat="43.4261991" lon="10.7644716"><ele>136.0</ele><time>2026-04-04T11:31:21.932Z</time></trkpt><trkpt lat="43.4262729" lon="10.7643408"><ele>136.0</ele><time>2026-04-04T11:31:22.931Z</time></trkpt><trkpt lat="43.4263728" lon="10.7642476"><ele>136.0</ele><time>2026-04-04T11:31:23.931Z</time></trkpt><trkpt lat="43.4264857" lon="10.7641687"><ele>136.0</ele><time>2026-04-04T11:31:24.931Z</time></trkpt><trkpt lat="43.4265808" lon="10.7640573"><ele>138.25</ele><time>2026-04-04T11:31:25.931Z</time></trkpt><trkpt lat="43.4266122" lon="10.7638882"><ele>140.5</ele><time>2026-04-04T11:31:26.931Z</time></trkpt><trkpt lat="43.426635" lon="10.7636993"><ele>142.75</ele><time>2026-04-04T11:31:27.932Z</time></trkpt><trkpt lat="43.4266635" lon="10.7635138"><ele>145.0</ele><time>2026-04-04T11:31:28.931Z</time></trkpt><trkpt lat="43.4267016" lon="10.7633408"><ele>145.0</ele><time>2026-04-04T11:31:29.932Z</time></trkpt><trkpt lat="43.4267836" lon="10.7632227"><ele>145.0</ele><time>2026-04-04T11:31:30.932Z</time></trkpt><trkpt lat="43.4268889" lon="10.7631314"><ele>145.0</ele><time>2026-04-04T11:31:31.931Z</time></trkpt><trkpt lat="43.4270062" lon="10.7630568"><ele>145.0</ele><time>2026-04-04T11:31:32.932Z</time></trkpt><trkpt lat="43.4271349" lon="10.7629874"><ele>147.25</ele><time>2026-04-04T11:31:33.932Z</time></trkpt><trkpt lat="43.4272631" lon="10.7629199"><ele>149.5</ele><time>2026-04-04T11:31:34.931Z</time></trkpt><trkpt lat="43.4273751" lon="10.7628391"><ele>151.75</ele><time>2026-04-04T11:31:35.931Z</time></trkpt><trkpt lat="43.4274738" lon="10.7627506"><ele>154.0</ele><time>2026-04-04T11:31:36.931Z</time></trkpt><trkpt lat="43.4275081" lon="10.7625772"><ele>154.0</ele><time>2026-04-04T11:31:37.931Z</time></trkpt><trkpt lat="43.427505" lon="10.7623851"><ele>154.0</ele><time>2026-04-04T11:31:38.931Z</time></trkpt><trkpt lat="43.4274821" lon="10.762195"><ele>154.0</ele><time>2026-04-04T11:31:39.931Z</time></trkpt><trkpt lat="43.4274663" lon="10.7619995"><ele>154.0</ele><time>2026-04-04T11:31:40.931Z</time></trkpt><trkpt lat="43.4274788" lon="10.7617953"><ele>153.66666666666669</ele><time>2026-04-04T11:31:41.932Z</time></trkpt><trkpt lat="43.4275246" lon="10.7616007"><ele>153.33333333333334</ele><time>2026-04-04T11:31:42.932Z</time></trkpt><trkpt lat="43.4275933" lon="10.7614214"><ele>153.0</ele><time>2026-04-04T11:31:43.931Z</time></trkpt><trkpt lat="43.427677" lon="10.7612427"><ele>153.0</ele><time>2026-04-04T11:31:44.931Z</time></trkpt><trkpt lat="43.4277669" lon="10.7610546"><ele>153.0</ele><time>2026-04-04T11:31:45.932Z</time></trkpt><trkpt lat="43.4278463" lon="10.7608639"><ele>153.0</ele><time>2026-04-04T11:31:46.931Z</time></trkpt><trkpt lat="43.427918" lon="10.7606704"><ele>154.25</ele><time>2026-04-04T11:31:47.932Z</time></trkpt><trkpt lat="43.4279884" lon="10.7605206"><ele>155.5</ele><time>2026-04-04T11:31:48.931Z</time></trkpt><trkpt lat="43.4280754" lon="10.7604049"><ele>156.75</ele><time>2026-04-04T11:31:49.931Z</time></trkpt><trkpt lat="43.4281854" lon="10.7603297"><ele>158.0</ele><time>2026-04-04T11:31:50.932Z</time></trkpt><trkpt lat="43.4283098" lon="10.7602878"><ele>158.0</ele><time>2026-04-04T11:31:51.931Z</time></trkpt><trkpt lat="43.4284441" lon="10.7602456"><ele>158.0</ele><time>2026-04-04T11:31:52.932Z</time></trkpt><trkpt lat="43.4285732" lon="10.7601523"><ele>158.0</ele><time>2026-04-04T11:31:53.932Z</time></trkpt><trkpt lat="43.4287026" lon="10.7600657"><ele>158.0</ele><time>2026-04-04T11:31:54.931Z</time></trkpt><trkpt lat="43.4288255" lon="10.7598919"><ele>156.0</ele><time>2026-04-04T11:31:55.931Z</time></trkpt><trkpt lat="43.4289554" lon="10.7597394"><ele>154.0</ele><time>2026-04-04T11:31:56.931Z</time></trkpt><trkpt lat="43.4290895" lon="10.7596275"><ele>152.0</ele><time>2026-04-04T11:31:57.932Z</time></trkpt><trkpt lat="43.429229" lon="10.7595516"><ele>152.0</ele><time>2026-04-04T11:31:58.932Z</time></trkpt><trkpt lat="43.4293795" lon="10.7595177"><ele>152.0</ele><time>2026-04-04T11:31:59.932Z</time></trkpt><trkpt lat="43.4295369" lon="10.7595394"><ele>152.0</ele><time>2026-04-04T11:32:00.932Z</time></trkpt><trkpt lat="43.4297028" lon="10.7596023"><ele>150.33333333333331</ele><time>2026-04-04T11:32:01.932Z</time></trkpt><trkpt lat="43.4298766" lon="10.7596764"><ele>148.66666666666666</ele><time>2026-04-04T11:32:02.931Z</time></trkpt><trkpt lat="43.4300475" lon="10.7597558"><ele>147.0</ele><time>2026-04-04T11:32:03.931Z</time></trkpt><trkpt lat="43.4302119" lon="10.7597878"><ele>147.0</ele><time>2026-04-04T11:32:04.932Z</time></trkpt><trkpt lat="43.4303856" lon="10.7598186"><ele>147.0</ele><time>2026-04-04T11:32:05.931Z</time></trkpt><trkpt lat="43.4305649" lon="10.7597692"><ele>147.0</ele><time>2026-04-04T11:32:06.931Z</time></trkpt><trkpt lat="43.4307493" lon="10.7597072"><ele>147.66666666666666</ele><time>2026-04-04T11:32:07.932Z</time></trkpt><trkpt lat="43.4309401" lon="10.7596507"><ele>148.33333333333331</ele><time>2026-04-04T11:32:08.932Z</time></trkpt><trkpt lat="43.4311283" lon="10.7595965"><ele>149.0</ele><time>2026-04-04T11:32:09.931Z</time></trkpt><trkpt lat="43.4313078" lon="10.7595379"><ele>149.66666666666666</ele><time>2026-04-04T11:32:10.932Z</time></trkpt><trkpt lat="43.431474" lon="10.7594863"><ele>150.33333333333334</ele><time>2026-04-04T11:32:11.931Z</time></trkpt><trkpt lat="43.4316296" lon="10.7594385"><ele>151.0</ele><time>2026-04-04T11:32:12.932Z</time></trkpt><trkpt lat="43.4317835" lon="10.7593891"><ele>148.33333333333334</ele><time>2026-04-04T11:32:13.932Z</time></trkpt><trkpt lat="43.4319416" lon="10.7593391"><ele>145.66666666666666</ele><time>2026-04-04T11:32:14.932Z</time></trkpt><trkpt lat="43.4321077" lon="10.7592986"><ele>143.0</ele><time>2026-04-04T11:32:15.932Z</time></trkpt><trkpt lat="43.432278" lon="10.7592881"><ele>144.33333333333331</ele><time>2026-04-04T11:32:16.932Z</time></trkpt><trkpt lat="43.4324567" lon="10.7592999"><ele>145.66666666666666</ele><time>2026-04-04T11:32:17.931Z</time></trkpt><trkpt lat="43.4326382" lon="10.7593302"><ele>147.0</ele><time>2026-04-04T11:32:18.931Z</time></trkpt><trkpt lat="43.4328234" lon="10.7593726"><ele>144.66666666666666</ele><time>2026-04-04T11:32:19.932Z</time></trkpt><trkpt lat="43.4330049" lon="10.7594215"><ele>142.33333333333331</ele><time>2026-04-04T11:32:20.932Z</time></trkpt><trkpt lat="43.4331824" lon="10.759476"><ele>140.0</ele><time>2026-04-04T11:32:21.931Z</time></trkpt><trkpt lat="43.4333526" lon="10.7595336"><ele>140.0</ele><time>2026-04-04T11:32:22.932Z</time></trkpt><trkpt lat="43.4335111" lon="10.7596076"><ele>140.0</ele><time>2026-04-04T11:32:23.931Z</time></trkpt><trkpt lat="43.4336588" lon="10.7597128"><ele>140.0</ele><time>2026-04-04T11:32:24.931Z</time></trkpt><trkpt lat="43.4337998" lon="10.7598479"><ele>139.0</ele><time>2026-04-04T11:32:25.932Z</time></trkpt><trkpt lat="43.4339401" lon="10.7599988"><ele>138.0</ele><time>2026-04-04T11:32:26.932Z</time></trkpt><trkpt lat="43.4340822" lon="10.7601587"><ele>137.0</ele><time>2026-04-04T11:32:27.931Z</time></trkpt><trkpt lat="43.4342299" lon="10.7603288"><ele>137.0</ele><time>2026-04-04T11:32:28.932Z</time></trkpt><trkpt lat="43.4343709" lon="10.7604968"><ele>137.0</ele><time>2026-04-04T11:32:29.931Z</time></trkpt><trkpt lat="43.4345047" lon="10.7606718"><ele>137.0</ele><time>2026-04-04T11:32:30.931Z</time></trkpt><trkpt lat="43.4346225" lon="10.760858"><ele>135.33333333333331</ele><time>2026-04-04T11:32:31.931Z</time></trkpt><trkpt lat="43.4347256" lon="10.761069"><ele>133.66666666666666</ele><time>2026-04-04T11:32:32.931Z</time></trkpt><trkpt lat="43.4348173" lon="10.7612979"><ele>132.0</ele><time>2026-04-04T11:32:33.931Z</time></trkpt><trkpt lat="43.4349152" lon="10.7615383"><ele>132.0</ele><time>2026-04-04T11:32:34.932Z</time></trkpt><trkpt lat="43.4350144" lon="10.7617949"><ele>132.0</ele><time>2026-04-04T11:32:35.931Z</time></trkpt><trkpt lat="43.4351149" lon="10.7620528"><ele>132.0</ele><time>2026-04-04T11:32:36.931Z</time></trkpt><trkpt lat="43.4352146" lon="10.7623166"><ele>132.5</ele><time>2026-04-04T11:32:37.931Z</time></trkpt><trkpt lat="43.4353175" lon="10.7625865"><ele>133.0</ele><time>2026-04-04T11:32:38.932Z</time></trkpt><trkpt lat="43.4354251" lon="10.7628679"><ele>131.0</ele><time>2026-04-04T11:32:39.932Z</time></trkpt><trkpt lat="43.4355364" lon="10.763147"><ele>129.0</ele><time>2026-04-04T11:32:40.931Z</time></trkpt><trkpt lat="43.435648" lon="10.7634301"><ele>130.0</ele><time>2026-04-04T11:32:41.931Z</time></trkpt><trkpt lat="43.4357581" lon="10.7637157"><ele>131.0</ele><time>2026-04-04T11:32:42.931Z</time></trkpt><trkpt lat="43.4358733" lon="10.7640166"><ele>131.0</ele><time>2026-04-04T11:32:43.931Z</time></trkpt><trkpt lat="43.4359903" lon="10.7643127"><ele>131.0</ele><time>2026-04-04T11:32:44.932Z</time></trkpt><trkpt lat="43.4361" lon="10.7646025"><ele>132.0</ele><time>2026-04-04T11:32:45.931Z</time></trkpt><trkpt lat="43.4362038" lon="10.7648826"><ele>133.0</ele><time>2026-04-04T11:32:46.932Z</time></trkpt><trkpt lat="43.4363046" lon="10.7651583"><ele>129.0</ele><time>2026-04-04T11:32:47.932Z</time></trkpt><trkpt lat="43.4364081" lon="10.7654345"><ele>125.0</ele><time>2026-04-04T11:32:48.931Z</time></trkpt><trkpt lat="43.4365116" lon="10.7657079"><ele>125.0</ele><time>2026-04-04T11:32:49.931Z</time></trkpt><trkpt lat="43.4366144" lon="10.7659759"><ele>125.0</ele><time>2026-04-04T11:32:50.932Z</time></trkpt><trkpt lat="43.4367171" lon="10.7662442"><ele>125.0</ele><time>2026-04-04T11:32:51.932Z</time></trkpt><trkpt lat="43.4368214" lon="10.766512"><ele>125.33333333333333</ele><time>2026-04-04T11:32:52.931Z</time></trkpt><trkpt lat="43.4369418" lon="10.7667621"><ele>125.66666666666666</ele><time>2026-04-04T11:32:53.931Z</time></trkpt><trkpt lat="43.4370845" lon="10.7669911"><ele>126.0</ele><time>2026-04-04T11:32:54.931Z</time></trkpt><trkpt lat="43.437241" lon="10.7672093"><ele>125.0</ele><time>2026-04-04T11:32:55.932Z</time></trkpt><trkpt lat="43.4374058" lon="10.7674294"><ele>124.0</ele><time>2026-04-04T11:32:56.932Z</time></trkpt><trkpt lat="43.4375682" lon="10.7676502"><ele>124.5</ele><time>2026-04-04T11:32:57.932Z</time></trkpt><trkpt lat="43.4377354" lon="10.7678781"><ele>125.0</ele><time>2026-04-04T11:32:58.932Z</time></trkpt><trkpt lat="43.4379059" lon="10.7681073"><ele>124.0</ele><time>2026-04-04T11:32:59.931Z</time></trkpt><trkpt lat="43.4380825" lon="10.768341"><ele>123.0</ele><time>2026-04-04T11:33:00.931Z</time></trkpt><trkpt lat="43.4382627" lon="10.7685814"><ele>123.0</ele><time>2026-04-04T11:33:01.932Z</time></trkpt><trkpt lat="43.43844" lon="10.7688152"><ele>123.0</ele><time>2026-04-04T11:33:02.932Z</time></trkpt><trkpt lat="43.4386167" lon="10.7690524"><ele>123.0</ele><time>2026-04-04T11:33:03.931Z</time></trkpt><trkpt lat="43.438796" lon="10.7692895"><ele>123.0</ele><time>2026-04-04T11:33:04.931Z</time></trkpt><trkpt lat="43.4389744" lon="10.7695255"><ele>122.0</ele><time>2026-04-04T11:33:05.931Z</time></trkpt><trkpt lat="43.4391488" lon="10.7697598"><ele>121.0</ele><time>2026-04-04T11:33:06.932Z</time></trkpt><trkpt lat="43.4393238" lon="10.7699973"><ele>120.0</ele><time>2026-04-04T11:33:07.931Z</time></trkpt><trkpt lat="43.439494" lon="10.7702297"><ele>119.0</ele><time>2026-04-04T11:33:08.932Z</time></trkpt><trkpt lat="43.4396589" lon="10.7704521"><ele>119.0</ele><time>2026-04-04T11:33:09.931Z</time></trkpt><trkpt lat="43.4398137" lon="10.7706578"><ele>119.0</ele><time>2026-04-04T11:33:10.932Z</time></trkpt><trkpt lat="43.4399596" lon="10.7708511"><ele>119.0</ele><time>2026-04-04T11:33:11.932Z</time></trkpt><trkpt lat="43.4401033" lon="10.7710527"><ele>118.66666666666666</ele><time>2026-04-04T11:33:12.931Z</time></trkpt><trkpt lat="43.4402446" lon="10.7712307"><ele>118.33333333333334</ele><time>2026-04-04T11:33:13.931Z</time></trkpt><trkpt lat="43.4404006" lon="10.7713836"><ele>118.0</ele><time>2026-04-04T11:33:14.931Z</time></trkpt><trkpt lat="43.440575" lon="10.7714985"><ele>118.0</ele><time>2026-04-04T11:33:15.931Z</time></trkpt><trkpt lat="43.4407646" lon="10.7715859"><ele>118.0</ele><time>2026-04-04T11:33:16.932Z</time></trkpt><trkpt lat="43.4409605" lon="10.7716683"><ele>118.0</ele><time>2026-04-04T11:33:17.931Z</time></trkpt><trkpt lat="43.4411537" lon="10.771741"><ele>119.0</ele><time>2026-04-04T11:33:18.931Z</time></trkpt><trkpt lat="43.4413694" lon="10.7718444"><ele>120.0</ele><time>2026-04-04T11:33:19.931Z</time></trkpt><trkpt lat="43.4415838" lon="10.7719381"><ele>120.0</ele><time>2026-04-04T11:33:20.931Z</time></trkpt><trkpt lat="43.4417993" lon="10.7720308"><ele>120.0</ele><time>2026-04-04T11:33:21.932Z</time></trkpt><trkpt lat="43.4420198" lon="10.7721235"><ele>117.5</ele><time>2026-04-04T11:33:22.932Z</time></trkpt><trkpt lat="43.4422405" lon="10.7722121"><ele>115.0</ele><time>2026-04-04T11:33:23.932Z</time></trkpt><trkpt lat="43.4424539" lon="10.7723"><ele>115.0</ele><time>2026-04-04T11:33:24.932Z</time></trkpt><trkpt lat="43.4426553" lon="10.7723805"><ele>115.0</ele><time>2026-04-04T11:33:25.931Z</time></trkpt><trkpt lat="43.4428494" lon="10.7724631"><ele>115.0</ele><time>2026-04-04T11:33:26.931Z</time></trkpt><trkpt lat="43.4430384" lon="10.772545"><ele>114.66666666666667</ele><time>2026-04-04T11:33:27.931Z</time></trkpt><trkpt lat="43.4432249" lon="10.7726255"><ele>114.33333333333334</ele><time>2026-04-04T11:33:28.932Z</time></trkpt><trkpt lat="43.4434158" lon="10.7726918"><ele>114.0</ele><time>2026-04-04T11:33:29.931Z</time></trkpt><trkpt lat="43.4436058" lon="10.7727284"><ele>111.66666666666666</ele><time>2026-04-04T11:33:30.932Z</time></trkpt><trkpt lat="43.4438051" lon="10.7727315"><ele>109.33333333333333</ele><time>2026-04-04T11:33:31.931Z</time></trkpt><trkpt lat="43.4440025" lon="10.7727263"><ele>107.0</ele><time>2026-04-04T11:33:32.932Z</time></trkpt><trkpt lat="43.444223" lon="10.7727126"><ele>107.0</ele><time>2026-04-04T11:33:33.931Z</time></trkpt><trkpt lat="43.444452" lon="10.7726937"><ele>107.0</ele><time>2026-04-04T11:33:34.932Z</time></trkpt><trkpt lat="43.4446808" lon="10.7726796"><ele>109.0</ele><time>2026-04-04T11:33:35.931Z</time></trkpt><trkpt lat="43.4449053" lon="10.7726632"><ele>111.0</ele><time>2026-04-04T11:33:36.931Z</time></trkpt><trkpt lat="43.4451386" lon="10.7726467"><ele>111.0</ele><time>2026-04-04T11:33:37.932Z</time></trkpt><trkpt lat="43.4453763" lon="10.7726284"><ele>111.0</ele><time>2026-04-04T11:33:38.932Z</time></trkpt><trkpt lat="43.4456146" lon="10.7726035"><ele>110.0</ele><time>2026-04-04T11:33:39.931Z</time></trkpt><trkpt lat="43.4458533" lon="10.7725834"><ele>109.0</ele><time>2026-04-04T11:33:40.931Z</time></trkpt><trkpt lat="43.4460923" lon="10.772558"><ele>108.5</ele><time>2026-04-04T11:33:41.932Z</time></trkpt><trkpt lat="43.4463298" lon="10.7725374"><ele>108.0</ele><time>2026-04-04T11:33:42.932Z</time></trkpt><trkpt lat="43.4465652" lon="10.772505"><ele>108.0</ele><time>2026-04-04T11:33:43.932Z</time></trkpt><trkpt lat="43.4468022" lon="10.7724533"><ele>108.0</ele><time>2026-04-04T11:33:44.932Z</time></trkpt><trkpt lat="43.447034" lon="10.7724126"><ele>108.5</ele><time>2026-04-04T11:33:45.932Z</time></trkpt><trkpt lat="43.4472655" lon="10.7723758"><ele>109.0</ele><time>2026-04-04T11:33:46.932Z</time></trkpt><trkpt lat="43.4474924" lon="10.7723347"><ele>109.0</ele><time>2026-04-04T11:33:47.931Z</time></trkpt><trkpt lat="43.4477201" lon="10.7723001"><ele>109.0</ele><time>2026-04-04T11:33:48.931Z</time></trkpt><trkpt lat="43.4479433" lon="10.772258"><ele>109.0</ele><time>2026-04-04T11:33:49.931Z</time></trkpt><trkpt lat="43.4481379" lon="10.7722473"><ele>109.0</ele><time>2026-04-04T11:33:50.932Z</time></trkpt><trkpt lat="43.4483334" lon="10.7722196"><ele>109.0</ele><time>2026-04-04T11:33:51.931Z</time></trkpt><trkpt lat="43.4485337" lon="10.772177"><ele>109.0</ele><time>2026-04-04T11:33:52.931Z</time></trkpt><trkpt lat="43.44871" lon="10.7721816"><ele>109.0</ele><time>2026-04-04T11:33:53.931Z</time></trkpt><trkpt lat="43.4488913" lon="10.7722014"><ele>109.0</ele><time>2026-04-04T11:33:54.931Z</time></trkpt><trkpt lat="43.4490726" lon="10.7722306"><ele>106.66666666666667</ele><time>2026-04-04T11:33:55.931Z</time></trkpt><trkpt lat="43.4492497" lon="10.7722654"><ele>104.33333333333334</ele><time>2026-04-04T11:33:56.931Z</time></trkpt><trkpt lat="43.4494148" lon="10.7723001"><ele>102.0</ele><time>2026-04-04T11:33:57.931Z</time></trkpt><trkpt lat="43.4495748" lon="10.7723277"><ele>101.0</ele><time>2026-04-04T11:33:58.931Z</time></trkpt><trkpt lat="43.449702" lon="10.7723306"><ele>100.0</ele><time>2026-04-04T11:33:59.932Z</time></trkpt><trkpt lat="43.4498106" lon="10.7722941"><ele>99.0</ele><time>2026-04-04T11:34:00.932Z</time></trkpt><trkpt lat="43.4499127" lon="10.7722266"><ele>98.0</ele><time>2026-04-04T11:34:01.931Z</time></trkpt><trkpt lat="43.4499687" lon="10.772079"><ele>98.0</ele><time>2026-04-04T11:34:02.931Z</time></trkpt><trkpt lat="43.4499916" lon="10.7718989"><ele>98.0</ele><time>2026-04-04T11:34:03.931Z</time></trkpt><trkpt lat="43.4499884" lon="10.7717094"><ele>98.0</ele><time>2026-04-04T11:34:04.932Z</time></trkpt><trkpt lat="43.4499774" lon="10.7714862"><ele>98.0</ele><time>2026-04-04T11:34:05.932Z</time></trkpt><trkpt lat="43.4499689" lon="10.7712638"><ele>98.25</ele><time>2026-04-04T11:34:06.932Z</time></trkpt><trkpt lat="43.4499665" lon="10.7710582"><ele>98.5</ele><time>2026-04-04T11:34:07.932Z</time></trkpt><trkpt lat="43.449986" lon="10.7708684"><ele>98.75</ele><time>2026-04-04T11:34:08.931Z</time></trkpt><trkpt lat="43.4500443" lon="10.770699"><ele>99.0</ele><time>2026-04-04T11:34:09.931Z</time></trkpt><trkpt lat="43.4501417" lon="10.7705601"><ele>99.33333333333334</ele><time>2026-04-04T11:34:10.932Z</time></trkpt><trkpt lat="43.4502679" lon="10.7704558"><ele>99.66666666666667</ele><time>2026-04-04T11:34:11.932Z</time></trkpt><trkpt lat="43.4504147" lon="10.7703665"><ele>100.0</ele><time>2026-04-04T11:34:12.931Z</time></trkpt><trkpt lat="43.4505749" lon="10.7702739"><ele>100.33333333333334</ele><time>2026-04-04T11:34:13.931Z</time></trkpt><trkpt lat="43.4507481" lon="10.7701736"><ele>100.66666666666666</ele><time>2026-04-04T11:34:14.931Z</time></trkpt><trkpt lat="43.4509322" lon="10.770065"><ele>101.0</ele><time>2026-04-04T11:34:15.931Z</time></trkpt><trkpt lat="43.4511318" lon="10.7699502"><ele>100.0</ele><time>2026-04-04T11:34:16.932Z</time></trkpt><trkpt lat="43.4513377" lon="10.769832"><ele>99.0</ele><time>2026-04-04T11:34:17.931Z</time></trkpt><trkpt lat="43.4515519" lon="10.7697112"><ele>99.0</ele><time>2026-04-04T11:34:18.931Z</time></trkpt><trkpt lat="43.4517679" lon="10.7695904"><ele>99.0</ele><time>2026-04-04T11:34:19.931Z</time></trkpt><trkpt lat="43.4519847" lon="10.7694684"><ele>99.0</ele><time>2026-04-04T11:34:20.932Z</time></trkpt><trkpt lat="43.4522035" lon="10.7693459"><ele>99.0</ele><time>2026-04-04T11:34:21.932Z</time></trkpt><trkpt lat="43.4524254" lon="10.7692215"><ele>99.0</ele><time>2026-04-04T11:34:22.931Z</time></trkpt><trkpt lat="43.4526487" lon="10.7691007"><ele>99.0</ele><time>2026-04-04T11:34:23.932Z</time></trkpt><trkpt lat="43.4528756" lon="10.7689789"><ele>98.0</ele><time>2026-04-04T11:34:24.932Z</time></trkpt><trkpt lat="43.4530963" lon="10.7688598"><ele>97.0</ele><time>2026-04-04T11:34:25.931Z</time></trkpt><trkpt lat="43.4533133" lon="10.7687395"><ele>97.0</ele><time>2026-04-04T11:34:26.932Z</time></trkpt><trkpt lat="43.4535278" lon="10.7686153"><ele>97.0</ele><time>2026-04-04T11:34:27.931Z</time></trkpt><trkpt lat="43.4537325" lon="10.7685045"><ele>96.66666666666667</ele><time>2026-04-04T11:34:28.932Z</time></trkpt><trkpt lat="43.4539282" lon="10.7684006"><ele>96.33333333333334</ele><time>2026-04-04T11:34:29.931Z</time></trkpt><trkpt lat="43.4541151" lon="10.7683001"><ele>96.0</ele><time>2026-04-04T11:34:30.931Z</time></trkpt><trkpt lat="43.4542917" lon="10.7681976"><ele>96.0</ele><time>2026-04-04T11:34:31.931Z</time></trkpt><trkpt lat="43.4544635" lon="10.7680814"><ele>96.0</ele><time>2026-04-04T11:34:32.931Z</time></trkpt><trkpt lat="43.4546286" lon="10.7679357"><ele>96.0</ele><time>2026-04-04T11:34:33.931Z</time></trkpt><trkpt lat="43.454785" lon="10.7677706"><ele>95.66666666666667</ele><time>2026-04-04T11:34:34.931Z</time></trkpt><trkpt lat="43.4549436" lon="10.7675948"><ele>95.33333333333334</ele><time>2026-04-04T11:34:35.932Z</time></trkpt><trkpt lat="43.4551097" lon="10.7674124"><ele>95.0</ele><time>2026-04-04T11:34:36.932Z</time></trkpt><trkpt lat="43.455277" lon="10.7672201"><ele>95.0</ele><time>2026-04-04T11:34:37.932Z</time></trkpt><trkpt lat="43.4554506" lon="10.7670179"><ele>95.0</ele><time>2026-04-04T11:34:38.931Z</time></trkpt><trkpt lat="43.4556312" lon="10.7668194"><ele>93.5</ele><time>2026-04-04T11:34:39.932Z</time></trkpt><trkpt lat="43.4558143" lon="10.7666167"><ele>92.0</ele><time>2026-04-04T11:34:40.932Z</time></trkpt><trkpt lat="43.456" lon="10.7664104"><ele>92.0</ele><time>2026-04-04T11:34:41.932Z</time></trkpt><trkpt lat="43.4561875" lon="10.7661994"><ele>92.0</ele><time>2026-04-04T11:34:42.932Z</time></trkpt><trkpt lat="43.4563706" lon="10.7659888"><ele>91.0</ele><time>2026-04-04T11:34:43.931Z</time></trkpt><trkpt lat="43.4565541" lon="10.7657766"><ele>90.0</ele><time>2026-04-04T11:34:44.932Z</time></trkpt><trkpt lat="43.4567419" lon="10.7655661"><ele>90.0</ele><time>2026-04-04T11:34:45.931Z</time></trkpt><trkpt lat="43.4569271" lon="10.7653539"><ele>90.0</ele><time>2026-04-04T11:34:46.932Z</time></trkpt><trkpt lat="43.4571125" lon="10.7651418"><ele>89.5</ele><time>2026-04-04T11:34:47.931Z</time></trkpt><trkpt lat="43.4572986" lon="10.764934"><ele>89.0</ele><time>2026-04-04T11:34:48.931Z</time></trkpt><trkpt lat="43.457475" lon="10.7647348"><ele>89.0</ele><time>2026-04-04T11:34:49.931Z</time></trkpt><trkpt lat="43.4576453" lon="10.7645438"><ele>89.0</ele><time>2026-04-04T11:34:50.931Z</time></trkpt><trkpt lat="43.4578096" lon="10.7643585"><ele>89.0</ele><time>2026-04-04T11:34:51.931Z</time></trkpt><trkpt lat="43.4579659" lon="10.7641773"><ele>88.33333333333334</ele><time>2026-04-04T11:34:52.932Z</time></trkpt><trkpt lat="43.4581152" lon="10.7640086"><ele>87.66666666666667</ele><time>2026-04-04T11:34:53.932Z</time></trkpt><trkpt lat="43.45825" lon="10.7638593"><ele>87.0</ele><time>2026-04-04T11:34:54.932Z</time></trkpt><trkpt lat="43.4583641" lon="10.7637044"><ele>88.0</ele><time>2026-04-04T11:34:55.932Z</time></trkpt><trkpt lat="43.4584507" lon="10.7635225"><ele>89.0</ele><time>2026-04-04T11:34:56.932Z</time></trkpt><trkpt lat="43.4585021" lon="10.7633085"><ele>90.0</ele><time>2026-04-04T11:34:57.932Z</time></trkpt><trkpt lat="43.458523" lon="10.7630741"><ele>90.0</ele><time>2026-04-04T11:34:58.932Z</time></trkpt><trkpt lat="43.4585222" lon="10.7628317"><ele>90.0</ele><time>2026-04-04T11:34:59.931Z</time></trkpt><trkpt lat="43.4585216" lon="10.7625906"><ele>90.0</ele><time>2026-04-04T11:35:00.932Z</time></trkpt><trkpt lat="43.4585239" lon="10.7623476"><ele>90.33333333333333</ele><time>2026-04-04T11:35:01.932Z</time></trkpt><trkpt lat="43.4585459" lon="10.7621118"><ele>90.66666666666666</ele><time>2026-04-04T11:35:02.932Z</time></trkpt><trkpt lat="43.4585952" lon="10.7618811"><ele>91.0</ele><time>2026-04-04T11:35:03.932Z</time></trkpt><trkpt lat="43.4586703" lon="10.7616564"><ele>90.33333333333333</ele><time>2026-04-04T11:35:04.931Z</time></trkpt><trkpt lat="43.4587454" lon="10.7614313"><ele>89.66666666666667</ele><time>2026-04-04T11:35:05.932Z</time></trkpt><trkpt lat="43.4588313" lon="10.7612003"><ele>89.0</ele><time>2026-04-04T11:35:06.931Z</time></trkpt><trkpt lat="43.4589156" lon="10.7609765"><ele>87.66666666666667</ele><time>2026-04-04T11:35:07.931Z</time></trkpt><trkpt lat="43.4589896" lon="10.760749"><ele>86.33333333333333</ele><time>2026-04-04T11:35:08.931Z</time></trkpt><trkpt lat="43.4590667" lon="10.7605299"><ele>85.0</ele><time>2026-04-04T11:35:09.932Z</time></trkpt><trkpt lat="43.4591438" lon="10.7603177"><ele>85.0</ele><time>2026-04-04T11:35:10.931Z</time></trkpt><trkpt lat="43.4592143" lon="10.7601196"><ele>85.0</ele><time>2026-04-04T11:35:11.931Z</time></trkpt><trkpt lat="43.4592907" lon="10.7599383"><ele>85.0</ele><time>2026-04-04T11:35:12.931Z</time></trkpt><trkpt lat="43.4593833" lon="10.7597822"><ele>85.0</ele><time>2026-04-04T11:35:13.932Z</time></trkpt><trkpt lat="43.4594973" lon="10.7596601"><ele>85.0</ele><time>2026-04-04T11:35:14.931Z</time></trkpt><trkpt lat="43.4596328" lon="10.7595656"><ele>85.0</ele><time>2026-04-04T11:35:15.931Z</time></trkpt><trkpt lat="43.4597755" lon="10.7595044"><ele>85.0</ele><time>2026-04-04T11:35:16.931Z</time></trkpt><trkpt lat="43.4599232" lon="10.7595003"><ele>86.0</ele><time>2026-04-04T11:35:17.932Z</time></trkpt><trkpt lat="43.460072" lon="10.7595462"><ele>87.0</ele><time>2026-04-04T11:35:18.931Z</time></trkpt><trkpt lat="43.4602243" lon="10.7596321"><ele>88.0</ele><time>2026-04-04T11:35:19.931Z</time></trkpt><trkpt lat="43.4603832" lon="10.7597194"><ele>89.33333333333333</ele><time>2026-04-04T11:35:20.931Z</time></trkpt><trkpt lat="43.4605573" lon="10.7598377"><ele>90.66666666666667</ele><time>2026-04-04T11:35:21.931Z</time></trkpt><trkpt lat="43.4607436" lon="10.7599681"><ele>92.0</ele><time>2026-04-04T11:35:22.932Z</time></trkpt><trkpt lat="43.460932" lon="10.7601008"><ele>90.66666666666667</ele><time>2026-04-04T11:35:23.931Z</time></trkpt><trkpt lat="43.4611249" lon="10.7602329"><ele>89.33333333333333</ele><time>2026-04-04T11:35:24.931Z</time></trkpt><trkpt lat="43.4613051" lon="10.7603585"><ele>88.0</ele><time>2026-04-04T11:35:25.931Z</time></trkpt><trkpt lat="43.4614722" lon="10.7604745"><ele>88.0</ele><time>2026-04-04T11:35:26.931Z</time></trkpt><trkpt lat="43.4616263" lon="10.7605836"><ele>88.0</ele><time>2026-04-04T11:35:27.931Z</time></trkpt><trkpt lat="43.4617724" lon="10.7606781"><ele>88.0</ele><time>2026-04-04T11:35:28.932Z</time></trkpt><trkpt lat="43.4619206" lon="10.7607506"><ele>88.0</ele><time>2026-04-04T11:35:29.931Z</time></trkpt><trkpt lat="43.4620779" lon="10.7607961"><ele>88.0</ele><time>2026-04-04T11:35:30.931Z</time></trkpt><trkpt lat="43.4622478" lon="10.7608034"><ele>88.0</ele><time>2026-04-04T11:35:31.931Z</time></trkpt><trkpt lat="43.4624204" lon="10.7607812"><ele>88.0</ele><time>2026-04-04T11:35:32.932Z</time></trkpt><trkpt lat="43.4626008" lon="10.7607366"><ele>88.0</ele><time>2026-04-04T11:35:33.931Z</time></trkpt><trkpt lat="43.4627825" lon="10.7606792"><ele>88.0</ele><time>2026-04-04T11:35:34.932Z</time></trkpt><trkpt lat="43.462966" lon="10.7606283"><ele>87.33333333333333</ele><time>2026-04-04T11:35:35.931Z</time></trkpt><trkpt lat="43.4631472" lon="10.7606019"><ele>86.66666666666667</ele><time>2026-04-04T11:35:36.932Z</time></trkpt><trkpt lat="43.4633271" lon="10.7606069"><ele>86.0</ele><time>2026-04-04T11:35:37.932Z</time></trkpt><trkpt lat="43.4635134" lon="10.7606262"><ele>86.0</ele><time>2026-04-04T11:35:38.931Z</time></trkpt><trkpt lat="43.4637058" lon="10.7606473"><ele>86.0</ele><time>2026-04-04T11:35:39.931Z</time></trkpt><trkpt lat="43.4638994" lon="10.7606566"><ele>86.0</ele><time>2026-04-04T11:35:40.931Z</time></trkpt><trkpt lat="43.4640945" lon="10.7606481"><ele>85.0</ele><time>2026-04-04T11:35:41.931Z</time></trkpt><trkpt lat="43.4642884" lon="10.7606268"><ele>84.0</ele><time>2026-04-04T11:35:42.932Z</time></trkpt><trkpt lat="43.4644826" lon="10.7605922"><ele>83.0</ele><time>2026-04-04T11:35:43.932Z</time></trkpt><trkpt lat="43.464677" lon="10.7605543"><ele>82.66666666666667</ele><time>2026-04-04T11:35:44.932Z</time></trkpt><trkpt lat="43.4648722" lon="10.7605206"><ele>82.33333333333333</ele><time>2026-04-04T11:35:45.931Z</time></trkpt><trkpt lat="43.465072" lon="10.7604907"><ele>82.0</ele><time>2026-04-04T11:35:46.931Z</time></trkpt><trkpt lat="43.4652703" lon="10.7604668"><ele>81.66666666666666</ele><time>2026-04-04T11:35:47.931Z</time></trkpt><trkpt lat="43.465469" lon="10.7604519"><ele>81.33333333333333</ele><time>2026-04-04T11:35:48.932Z</time></trkpt><trkpt lat="43.4656692" lon="10.7604566"><ele>81.0</ele><time>2026-04-04T11:35:49.931Z</time></trkpt><trkpt lat="43.4658714" lon="10.760483"><ele>81.0</ele><time>2026-04-04T11:35:50.931Z</time></trkpt><trkpt lat="43.466072" lon="10.7605295"><ele>81.0</ele><time>2026-04-04T11:35:51.931Z</time></trkpt><trkpt lat="43.4662747" lon="10.7605828"><ele>81.0</ele><time>2026-04-04T11:35:52.931Z</time></trkpt><trkpt lat="43.4664826" lon="10.7606406"><ele>81.66666666666667</ele><time>2026-04-04T11:35:53.931Z</time></trkpt><trkpt lat="43.4666886" lon="10.7607078"><ele>82.33333333333334</ele><time>2026-04-04T11:35:54.931Z</time></trkpt><trkpt lat="43.4669052" lon="10.7607727"><ele>83.0</ele><time>2026-04-04T11:35:55.931Z</time></trkpt><trkpt lat="43.4671149" lon="10.7608431"><ele>82.33333333333334</ele><time>2026-04-04T11:35:56.931Z</time></trkpt><trkpt lat="43.4673341" lon="10.7609189"><ele>81.66666666666667</ele><time>2026-04-04T11:35:57.932Z</time></trkpt><trkpt lat="43.4675494" lon="10.7609872"><ele>81.0</ele><time>2026-04-04T11:35:58.931Z</time></trkpt><trkpt lat="43.4677603" lon="10.7610541"><ele>81.0</ele><time>2026-04-04T11:35:59.931Z</time></trkpt><trkpt lat="43.4679746" lon="10.7611258"><ele>81.0</ele><time>2026-04-04T11:36:00.931Z</time></trkpt><trkpt lat="43.468188" lon="10.7611896"><ele>81.0</ele><time>2026-04-04T11:36:01.931Z</time></trkpt><trkpt lat="43.4683999" lon="10.761257"><ele>81.0</ele><time>2026-04-04T11:36:02.931Z</time></trkpt><trkpt lat="43.4686121" lon="10.7613239"><ele>81.0</ele><time>2026-04-04T11:36:03.932Z</time></trkpt><trkpt lat="43.4688144" lon="10.7613884"><ele>81.0</ele><time>2026-04-04T11:36:04.932Z</time></trkpt><trkpt lat="43.4690209" lon="10.7614376"><ele>82.0</ele><time>2026-04-04T11:36:05.931Z</time></trkpt><trkpt lat="43.4692065" lon="10.7614972"><ele>83.0</ele><time>2026-04-04T11:36:06.931Z</time></trkpt><trkpt lat="43.4693924" lon="10.7615611"><ele>84.0</ele><time>2026-04-04T11:36:07.932Z</time></trkpt><trkpt lat="43.4695833" lon="10.7616259"><ele>84.0</ele><time>2026-04-04T11:36:08.931Z</time></trkpt><trkpt lat="43.4697751" lon="10.761699"><ele>84.0</ele><time>2026-04-04T11:36:09.932Z</time></trkpt><trkpt lat="43.4699701" lon="10.7617965"><ele>84.0</ele><time>2026-04-04T11:36:10.931Z</time></trkpt><trkpt lat="43.4701651" lon="10.7619013"><ele>83.66666666666667</ele><time>2026-04-04T11:36:11.931Z</time></trkpt><trkpt lat="43.4703575" lon="10.7620091"><ele>83.33333333333334</ele><time>2026-04-04T11:36:12.931Z</time></trkpt><trkpt lat="43.4705506" lon="10.7621178"><ele>83.0</ele><time>2026-04-04T11:36:13.932Z</time></trkpt><trkpt lat="43.4707272" lon="10.7622235"><ele>83.0</ele><time>2026-04-04T11:36:14.931Z</time></trkpt><trkpt lat="43.4708907" lon="10.7623229"><ele>83.0</ele><time>2026-04-04T11:36:15.931Z</time></trkpt><trkpt lat="43.4710441" lon="10.7624146"><ele>83.0</ele><time>2026-04-04T11:36:16.931Z</time></trkpt><trkpt lat="43.4711903" lon="10.7625055"><ele>83.33333333333334</ele><time>2026-04-04T11:36:17.931Z</time></trkpt><trkpt lat="43.4713343" lon="10.7625964"><ele>83.66666666666667</ele><time>2026-04-04T11:36:18.931Z</time></trkpt><trkpt lat="43.4714791" lon="10.762687"><ele>84.0</ele><time>2026-04-04T11:36:19.931Z</time></trkpt><trkpt lat="43.4716044" lon="10.7627671"><ele>83.0</ele><time>2026-04-04T11:36:20.931Z</time></trkpt><trkpt lat="43.4717312" lon="10.762843"><ele>82.0</ele><time>2026-04-04T11:36:21.932Z</time></trkpt><trkpt lat="43.4718589" lon="10.7629131"><ele>81.0</ele><time>2026-04-04T11:36:22.931Z</time></trkpt><trkpt lat="43.4719836" lon="10.7629779"><ele>80.0</ele><time>2026-04-04T11:36:23.931Z</time></trkpt><trkpt lat="43.4721014" lon="10.7630425"><ele>80.25</ele><time>2026-04-04T11:36:24.932Z</time></trkpt><trkpt lat="43.472215" lon="10.7630997"><ele>80.5</ele><time>2026-04-04T11:36:25.931Z</time></trkpt><trkpt lat="43.4723263" lon="10.7631688"><ele>80.75</ele><time>2026-04-04T11:36:26.931Z</time></trkpt><trkpt lat="43.4724333" lon="10.7632017"><ele>81.0</ele><time>2026-04-04T11:36:27.931Z</time></trkpt><trkpt lat="43.4725484" lon="10.7632332"><ele>81.0</ele><time>2026-04-04T11:36:28.931Z</time></trkpt><trkpt lat="43.4726606" lon="10.7632552"><ele>81.0</ele><time>2026-04-04T11:36:29.931Z</time></trkpt><trkpt lat="43.4727666" lon="10.7632789"><ele>81.0</ele><time>2026-04-04T11:36:30.931Z</time></trkpt><trkpt lat="43.4728646" lon="10.7633005"><ele>81.0</ele><time>2026-04-04T11:36:31.932Z</time></trkpt><trkpt lat="43.4729371" lon="10.7633101"><ele>81.0</ele><time>2026-04-04T11:36:32.931Z</time></trkpt><trkpt lat="43.4730365" lon="10.7633018"><ele>81.4</ele><time>2026-04-04T11:36:34.931Z</time></trkpt><trkpt lat="43.4730789" lon="10.7632043"><ele>81.8</ele><time>2026-04-04T11:36:37.931Z</time></trkpt><trkpt lat="43.4730972" lon="10.7630497"><ele>82.2</ele><time>2026-04-04T11:36:39.931Z</time></trkpt><trkpt lat="43.4731223" lon="10.7629478"><ele>82.60000000000001</ele><time>2026-04-04T11:36:40.932Z</time></trkpt><trkpt lat="43.4731587" lon="10.7628435"><ele>83.0</ele><time>2026-04-04T11:36:41.932Z</time></trkpt><trkpt lat="43.4732085" lon="10.7627331"><ele>84.2</ele><time>2026-04-04T11:36:42.932Z</time></trkpt><trkpt lat="43.4732789" lon="10.7626371"><ele>85.4</ele><time>2026-04-04T11:36:43.931Z</time></trkpt><trkpt lat="43.4733712" lon="10.7625593"><ele>86.60000000000001</ele><time>2026-04-04T11:36:44.931Z</time></trkpt><trkpt lat="43.4734693" lon="10.7624931"><ele>87.80000000000001</ele><time>2026-04-04T11:36:45.931Z</time></trkpt><trkpt lat="43.4735749" lon="10.7624163"><ele>89.0</ele><time>2026-04-04T11:36:46.931Z</time></trkpt><trkpt lat="43.4736894" lon="10.7623268"><ele>89.0</ele><time>2026-04-04T11:36:47.932Z</time></trkpt><trkpt lat="43.4738021" lon="10.7622339"><ele>89.0</ele><time>2026-04-04T11:36:48.932Z</time></trkpt><trkpt lat="43.4739206" lon="10.7621342"><ele>89.0</ele><time>2026-04-04T11:36:49.932Z</time></trkpt><trkpt lat="43.4740461" lon="10.762033"><ele>89.0</ele><time>2026-04-04T11:36:50.931Z</time></trkpt><trkpt lat="43.474166" lon="10.7619262"><ele>90.5</ele><time>2026-04-04T11:36:51.932Z</time></trkpt><trkpt lat="43.4742877" lon="10.7618226"><ele>92.0</ele><time>2026-04-04T11:36:52.931Z</time></trkpt><trkpt lat="43.4744125" lon="10.761724"><ele>93.5</ele><time>2026-04-04T11:36:53.931Z</time></trkpt><trkpt lat="43.4745343" lon="10.7616297"><ele>95.0</ele><time>2026-04-04T11:36:54.931Z</time></trkpt><trkpt lat="43.4746547" lon="10.7615317"><ele>95.0</ele><time>2026-04-04T11:36:55.932Z</time></trkpt><trkpt lat="43.4747777" lon="10.7614417"><ele>95.0</ele><time>2026-04-04T11:36:56.932Z</time></trkpt><trkpt lat="43.4748885" lon="10.7613504"><ele>95.0</ele><time>2026-04-04T11:36:57.932Z</time></trkpt><trkpt lat="43.4749929" lon="10.761245"><ele>95.0</ele><time>2026-04-04T11:36:58.932Z</time></trkpt><trkpt lat="43.4750747" lon="10.7611283"><ele>98.0</ele><time>2026-04-04T11:36:59.932Z</time></trkpt><trkpt lat="43.4751452" lon="10.7610023"><ele>101.0</ele><time>2026-04-04T11:37:00.931Z</time></trkpt><trkpt lat="43.4752084" lon="10.7608765"><ele>104.0</ele><time>2026-04-04T11:37:01.931Z</time></trkpt><trkpt lat="43.4752425" lon="10.7607138"><ele>107.0</ele><time>2026-04-04T11:37:02.932Z</time></trkpt><trkpt lat="43.4752638" lon="10.7605418"><ele>107.0</ele><time>2026-04-04T11:37:03.932Z</time></trkpt><trkpt lat="43.4752755" lon="10.7603711"><ele>106.99999999999999</ele><time>2026-04-04T11:37:04.932Z</time></trkpt><trkpt lat="43.4752732" lon="10.760217"><ele>106.99999999999999</ele><time>2026-04-04T11:37:05.931Z</time></trkpt><trkpt lat="43.4752641" lon="10.760073"><ele>107.0</ele><time>2026-04-04T11:37:06.931Z</time></trkpt><trkpt lat="43.4752547" lon="10.7599296"><ele>107.0</ele><time>2026-04-04T11:37:07.931Z</time></trkpt><trkpt lat="43.4752485" lon="10.759771"><ele>108.5</ele><time>2026-04-04T11:37:08.932Z</time></trkpt><trkpt lat="43.4752427" lon="10.7596103"><ele>110.0</ele><time>2026-04-04T11:37:09.931Z</time></trkpt><trkpt lat="43.4752368" lon="10.759451"><ele>111.5</ele><time>2026-04-04T11:37:10.931Z</time></trkpt><trkpt lat="43.4752313" lon="10.7593004"><ele>113.0</ele><time>2026-04-04T11:37:11.931Z</time></trkpt><trkpt lat="43.4752205" lon="10.7591507"><ele>113.4</ele><time>2026-04-04T11:37:12.931Z</time></trkpt><trkpt lat="43.4752044" lon="10.7590028"><ele>113.80000000000001</ele><time>2026-04-04T11:37:13.931Z</time></trkpt><trkpt lat="43.4751808" lon="10.7588526"><ele>114.2</ele><time>2026-04-04T11:37:14.931Z</time></trkpt><trkpt lat="43.4751589" lon="10.7587095"><ele>114.6</ele><time>2026-04-04T11:37:15.932Z</time></trkpt><trkpt lat="43.4751316" lon="10.7585627"><ele>115.0</ele><time>2026-04-04T11:37:16.931Z</time></trkpt><trkpt lat="43.4751063" lon="10.7584297"><ele>116.00000000000001</ele><time>2026-04-04T11:37:17.931Z</time></trkpt><trkpt lat="43.4750797" lon="10.7582928"><ele>117.0</ele><time>2026-04-04T11:37:18.932Z</time></trkpt><trkpt lat="43.4750414" lon="10.7581834"><ele>118.0</ele><time>2026-04-04T11:37:19.932Z</time></trkpt><trkpt lat="43.4749971" lon="10.758094"><ele>119.0</ele><time>2026-04-04T11:37:20.932Z</time></trkpt><trkpt lat="43.474941" lon="10.7580043"><ele>120.00000000000001</ele><time>2026-04-04T11:37:21.932Z</time></trkpt><trkpt lat="43.474871" lon="10.7579214"><ele>121.0</ele><time>2026-04-04T11:37:22.932Z</time></trkpt><trkpt lat="43.4747867" lon="10.7578305"><ele>121.0</ele><time>2026-04-04T11:37:23.932Z</time></trkpt><trkpt lat="43.474692" lon="10.7577421"><ele>121.0</ele><time>2026-04-04T11:37:24.932Z</time></trkpt><trkpt lat="43.4745922" lon="10.7576369"><ele>121.0</ele><time>2026-04-04T11:37:25.931Z</time></trkpt><trkpt lat="43.4744814" lon="10.757527"><ele>121.0</ele><time>2026-04-04T11:37:26.932Z</time></trkpt><trkpt lat="43.4743622" lon="10.7574087"><ele>122.75</ele><time>2026-04-04T11:37:27.931Z</time></trkpt><trkpt lat="43.4742544" lon="10.7573004"><ele>124.5</ele><time>2026-04-04T11:37:28.931Z</time></trkpt><trkpt lat="43.4741539" lon="10.7572006"><ele>126.25</ele><time>2026-04-04T11:37:29.931Z</time></trkpt><trkpt lat="43.4740601" lon="10.7571025"><ele>128.0</ele><time>2026-04-04T11:37:30.932Z</time></trkpt><trkpt lat="43.4739743" lon="10.7570063"><ele>128.0</ele><time>2026-04-04T11:37:31.931Z</time></trkpt><trkpt lat="43.473896" lon="10.7569098"><ele>128.0</ele><time>2026-04-04T11:37:32.931Z</time></trkpt><trkpt lat="43.4738277" lon="10.7568027"><ele>128.0</ele><time>2026-04-04T11:37:33.931Z</time></trkpt><trkpt lat="43.4737665" lon="10.7566854"><ele>128.0</ele><time>2026-04-04T11:37:34.931Z</time></trkpt><trkpt lat="43.473711" lon="10.7565567"><ele>128.0</ele><time>2026-04-04T11:37:35.932Z</time></trkpt><trkpt lat="43.4736622" lon="10.7564293"><ele>127.80000000000001</ele><time>2026-04-04T11:37:36.932Z</time></trkpt><trkpt lat="43.4736179" lon="10.7563005"><ele>127.60000000000001</ele><time>2026-04-04T11:37:37.932Z</time></trkpt><trkpt lat="43.4735743" lon="10.7561658"><ele>127.39999999999999</ele><time>2026-04-04T11:37:38.932Z</time></trkpt><trkpt lat="43.473534" lon="10.7560355"><ele>127.19999999999999</ele><time>2026-04-04T11:37:39.931Z</time></trkpt><trkpt lat="43.4734988" lon="10.7559065"><ele>127.0</ele><time>2026-04-04T11:37:40.931Z</time></trkpt><trkpt lat="43.4734623" lon="10.7557817"><ele>127.00000000000001</ele><time>2026-04-04T11:37:41.932Z</time></trkpt><trkpt lat="43.4734243" lon="10.7556637"><ele>127.0</ele><time>2026-04-04T11:37:42.931Z</time></trkpt><trkpt lat="43.4733883" lon="10.7555494"><ele>127.0</ele><time>2026-04-04T11:37:43.932Z</time></trkpt><trkpt lat="43.4733542" lon="10.7554489"><ele>127.0</ele><time>2026-04-04T11:37:44.932Z</time></trkpt><trkpt lat="43.4733202" lon="10.7553557"><ele>127.00000000000001</ele><time>2026-04-04T11:37:45.931Z</time></trkpt><trkpt lat="43.4732884" lon="10.7552686"><ele>127.0</ele><time>2026-04-04T11:37:46.931Z</time></trkpt><trkpt lat="43.4732561" lon="10.7551838"><ele>126.83333333333334</ele><time>2026-04-04T11:37:47.932Z</time></trkpt><trkpt lat="43.4732248" lon="10.7551008"><ele>126.66666666666667</ele><time>2026-04-04T11:37:48.931Z</time></trkpt><trkpt lat="43.4731875" lon="10.7550107"><ele>126.5</ele><time>2026-04-04T11:37:49.932Z</time></trkpt><trkpt lat="43.4731522" lon="10.754915"><ele>126.33333333333334</ele><time>2026-04-04T11:37:50.931Z</time></trkpt><trkpt lat="43.4731138" lon="10.7548077"><ele>126.16666666666667</ele><time>2026-04-04T11:37:51.932Z</time></trkpt><trkpt lat="43.4730704" lon="10.7546961"><ele>126.0</ele><time>2026-04-04T11:37:52.932Z</time></trkpt><trkpt lat="43.473026" lon="10.7545819"><ele>126.0</ele><time>2026-04-04T11:37:53.931Z</time></trkpt><trkpt lat="43.4729753" lon="10.7544545"><ele>126.0</ele><time>2026-04-04T11:37:54.931Z</time></trkpt><trkpt lat="43.4729276" lon="10.7543145"><ele>126.0</ele><time>2026-04-04T11:37:55.932Z</time></trkpt><trkpt lat="43.4728725" lon="10.754138"><ele>126.0</ele><time>2026-04-04T11:37:56.931Z</time></trkpt><trkpt lat="43.4728158" lon="10.75393"><ele>126.0</ele><time>2026-04-04T11:37:57.931Z</time></trkpt><trkpt lat="43.4727532" lon="10.7537093"><ele>126.0</ele><time>2026-04-04T11:37:58.931Z</time></trkpt><trkpt lat="43.4726915" lon="10.7534697"><ele>126.0</ele><time>2026-04-04T11:37:59.931Z</time></trkpt><trkpt lat="43.4726321" lon="10.7532466"><ele>126.0</ele><time>2026-04-04T11:38:00.931Z</time></trkpt><trkpt lat="43.472577" lon="10.7530303"><ele>126.0</ele><time>2026-04-04T11:38:01.932Z</time></trkpt><trkpt lat="43.4725215" lon="10.7528198"><ele>126.0</ele><time>2026-04-04T11:38:02.932Z</time></trkpt><trkpt lat="43.4724654" lon="10.7526175"><ele>126.0</ele><time>2026-04-04T11:38:03.931Z</time></trkpt><trkpt lat="43.4724123" lon="10.752424"><ele>126.0</ele><time>2026-04-04T11:38:04.931Z</time></trkpt><trkpt lat="43.4723534" lon="10.7522203"><ele>126.0</ele><time>2026-04-04T11:38:05.932Z</time></trkpt><trkpt lat="43.4722939" lon="10.7520135"><ele>125.33333333333334</ele><time>2026-04-04T11:38:06.931Z</time></trkpt><trkpt lat="43.4722257" lon="10.7518003"><ele>124.66666666666667</ele><time>2026-04-04T11:38:07.932Z</time></trkpt><trkpt lat="43.4721759" lon="10.7516213"><ele>124.0</ele><time>2026-04-04T11:38:08.931Z</time></trkpt><trkpt lat="43.4721254" lon="10.7514336"><ele>123.66666666666667</ele><time>2026-04-04T11:38:09.932Z</time></trkpt><trkpt lat="43.4720762" lon="10.7512324"><ele>123.33333333333334</ele><time>2026-04-04T11:38:10.932Z</time></trkpt><trkpt lat="43.4720231" lon="10.7510343"><ele>123.0</ele><time>2026-04-04T11:38:11.931Z</time></trkpt><trkpt lat="43.4719726" lon="10.7508465"><ele>123.0</ele><time>2026-04-04T11:38:12.931Z</time></trkpt><trkpt lat="43.4719302" lon="10.7506622"><ele>123.0</ele><time>2026-04-04T11:38:13.932Z</time></trkpt><trkpt lat="43.471884" lon="10.7504707"><ele>123.0</ele><time>2026-04-04T11:38:14.931Z</time></trkpt><trkpt lat="43.4718273" lon="10.750275"><ele>123.0</ele><time>2026-04-04T11:38:15.932Z</time></trkpt><trkpt lat="43.4717574" lon="10.7500806"><ele>123.0</ele><time>2026-04-04T11:38:16.931Z</time></trkpt><trkpt lat="43.4716887" lon="10.7498964"><ele>123.0</ele><time>2026-04-04T11:38:17.932Z</time></trkpt><trkpt lat="43.4716207" lon="10.7497206"><ele>123.0</ele><time>2026-04-04T11:38:18.932Z</time></trkpt><trkpt lat="43.4715517" lon="10.7495445"><ele>123.0</ele><time>2026-04-04T11:38:19.931Z</time></trkpt><trkpt lat="43.4714869" lon="10.7493737"><ele>122.5</ele><time>2026-04-04T11:38:20.932Z</time></trkpt><trkpt lat="43.4714262" lon="10.7492091"><ele>122.0</ele><time>2026-04-04T11:38:21.931Z</time></trkpt><trkpt lat="43.471366" lon="10.7490562"><ele>121.5</ele><time>2026-04-04T11:38:22.932Z</time></trkpt><trkpt lat="43.4713024" lon="10.7489132"><ele>121.0</ele><time>2026-04-04T11:38:23.931Z</time></trkpt><trkpt lat="43.4712238" lon="10.7487792"><ele>121.25</ele><time>2026-04-04T11:38:24.931Z</time></trkpt><trkpt lat="43.4711232" lon="10.7486646"><ele>121.5</ele><time>2026-04-04T11:38:25.931Z</time></trkpt><trkpt lat="43.4710069" lon="10.7485631"><ele>121.75</ele><time>2026-04-04T11:38:26.932Z</time></trkpt><trkpt lat="43.4708752" lon="10.7484699"><ele>122.0</ele><time>2026-04-04T11:38:27.932Z</time></trkpt><trkpt lat="43.4707494" lon="10.748375"><ele>122.0</ele><time>2026-04-04T11:38:28.932Z</time></trkpt><trkpt lat="43.4705783" lon="10.7482816"><ele>122.0</ele><time>2026-04-04T11:38:29.932Z</time></trkpt><trkpt lat="43.4704269" lon="10.7481934"><ele>122.0</ele><time>2026-04-04T11:38:30.931Z</time></trkpt><trkpt lat="43.4702846" lon="10.7481169"><ele>121.66666666666666</ele><time>2026-04-04T11:38:31.931Z</time></trkpt><trkpt lat="43.4701347" lon="10.7480298"><ele>121.33333333333334</ele><time>2026-04-04T11:38:32.931Z</time></trkpt><trkpt lat="43.469995" lon="10.7479332"><ele>121.0</ele><time>2026-04-04T11:38:33.931Z</time></trkpt><trkpt lat="43.4698512" lon="10.7478161"><ele>121.66666666666667</ele><time>2026-04-04T11:38:34.931Z</time></trkpt><trkpt lat="43.4697084" lon="10.7476997"><ele>122.33333333333334</ele><time>2026-04-04T11:38:35.931Z</time></trkpt><trkpt lat="43.4695765" lon="10.7475747"><ele>123.0</ele><time>2026-04-04T11:38:36.931Z</time></trkpt><trkpt lat="43.4694539" lon="10.7474539"><ele>124.25</ele><time>2026-04-04T11:38:37.931Z</time></trkpt><trkpt lat="43.4693412" lon="10.7473486"><ele>125.5</ele><time>2026-04-04T11:38:38.932Z</time></trkpt><trkpt lat="43.4692382" lon="10.7472548"><ele>126.75</ele><time>2026-04-04T11:38:39.931Z</time></trkpt><trkpt lat="43.4691364" lon="10.747162"><ele>128.0</ele><time>2026-04-04T11:38:40.931Z</time></trkpt><trkpt lat="43.469041" lon="10.7470745"><ele>128.0</ele><time>2026-04-04T11:38:41.932Z</time></trkpt><trkpt lat="43.4689592" lon="10.7469908"><ele>128.0</ele><time>2026-04-04T11:38:42.932Z</time></trkpt><trkpt lat="43.468881" lon="10.746905"><ele>128.0</ele><time>2026-04-04T11:38:43.931Z</time></trkpt><trkpt lat="43.4688016" lon="10.7468179"><ele>128.0</ele><time>2026-04-04T11:38:44.931Z</time></trkpt><trkpt lat="43.468735" lon="10.7467106"><ele>128.0</ele><time>2026-04-04T11:38:45.932Z</time></trkpt><trkpt lat="43.4686779" lon="10.7466031"><ele>129.75</ele><time>2026-04-04T11:38:46.932Z</time></trkpt><trkpt lat="43.4686236" lon="10.7464949"><ele>131.5</ele><time>2026-04-04T11:38:47.931Z</time></trkpt><trkpt lat="43.4685853" lon="10.7463228"><ele>133.25</ele><time>2026-04-04T11:38:48.932Z</time></trkpt><trkpt lat="43.4685435" lon="10.7461267"><ele>135.0</ele><time>2026-04-04T11:38:49.931Z</time></trkpt><trkpt lat="43.4685016" lon="10.7459495"><ele>135.0</ele><time>2026-04-04T11:38:50.931Z</time></trkpt><trkpt lat="43.4684586" lon="10.7457876"><ele>135.0</ele><time>2026-04-04T11:38:51.932Z</time></trkpt><trkpt lat="43.4684224" lon="10.7456335"><ele>135.0</ele><time>2026-04-04T11:38:52.931Z</time></trkpt><trkpt lat="43.4683846" lon="10.7454923"><ele>135.0</ele><time>2026-04-04T11:38:53.931Z</time></trkpt><trkpt lat="43.4683408" lon="10.7453626"><ele>135.0</ele><time>2026-04-04T11:38:54.932Z</time></trkpt><trkpt lat="43.4682915" lon="10.7452468"><ele>135.0</ele><time>2026-04-04T11:38:55.931Z</time></trkpt><trkpt lat="43.468228" lon="10.7451359"><ele>135.0</ele><time>2026-04-04T11:38:56.932Z</time></trkpt><trkpt lat="43.4681516" lon="10.7450297"><ele>135.0</ele><time>2026-04-04T11:38:57.931Z</time></trkpt><trkpt lat="43.4680693" lon="10.7449424"><ele>135.0</ele><time>2026-04-04T11:38:58.932Z</time></trkpt><trkpt lat="43.4679719" lon="10.7448554"><ele>136.25</ele><time>2026-04-04T11:38:59.932Z</time></trkpt><trkpt lat="43.4678638" lon="10.7447649"><ele>137.5</ele><time>2026-04-04T11:39:00.931Z</time></trkpt><trkpt lat="43.467757" lon="10.7446883"><ele>138.75</ele><time>2026-04-04T11:39:01.931Z</time></trkpt><trkpt lat="43.4676589" lon="10.7446191"><ele>140.0</ele><time>2026-04-04T11:39:02.931Z</time></trkpt><trkpt lat="43.4675701" lon="10.744554"><ele>140.0</ele><time>2026-04-04T11:39:03.931Z</time></trkpt><trkpt lat="43.4674909" lon="10.7444909"><ele>140.0</ele><time>2026-04-04T11:39:04.931Z</time></trkpt><trkpt lat="43.4674223" lon="10.7444347"><ele>140.0</ele><time>2026-04-04T11:39:05.931Z</time></trkpt><trkpt lat="43.4673619" lon="10.7443744"><ele>140.0</ele><time>2026-04-04T11:39:06.932Z</time></trkpt><trkpt lat="43.4673069" lon="10.7442884"><ele>140.0</ele><time>2026-04-04T11:39:07.931Z</time></trkpt><trkpt lat="43.4672644" lon="10.7441834"><ele>140.0</ele><time>2026-04-04T11:39:08.931Z</time></trkpt><trkpt lat="43.4672458" lon="10.7440638"><ele>139.0</ele><time>2026-04-04T11:39:09.932Z</time></trkpt><trkpt lat="43.4672451" lon="10.7439441"><ele>138.0</ele><time>2026-04-04T11:39:10.931Z</time></trkpt><trkpt lat="43.4672442" lon="10.7438389"><ele>137.0</ele><time>2026-04-04T11:39:11.931Z</time></trkpt><trkpt lat="43.4672776" lon="10.7436861"><ele>136.0</ele><time>2026-04-04T11:39:12.932Z</time></trkpt><trkpt lat="43.4673038" lon="10.7435224"><ele>135.0</ele><time>2026-04-04T11:39:13.931Z</time></trkpt><trkpt lat="43.4673172" lon="10.7433635"><ele>134.6</ele><time>2026-04-04T11:39:14.931Z</time></trkpt><trkpt lat="43.4673275" lon="10.7432236"><ele>134.2</ele><time>2026-04-04T11:39:15.932Z</time></trkpt><trkpt lat="43.4673395" lon="10.7430854"><ele>133.8</ele><time>2026-04-04T11:39:16.931Z</time></trkpt><trkpt lat="43.4673578" lon="10.7429457"><ele>133.4</ele><time>2026-04-04T11:39:17.932Z</time></trkpt><trkpt lat="43.4673875" lon="10.742802"><ele>133.0</ele><time>2026-04-04T11:39:18.932Z</time></trkpt><trkpt lat="43.4674259" lon="10.74266"><ele>133.0</ele><time>2026-04-04T11:39:19.932Z</time></trkpt><trkpt lat="43.4674678" lon="10.7425215"><ele>133.0</ele><time>2026-04-04T11:39:20.932Z</time></trkpt><trkpt lat="43.4675134" lon="10.7423892"><ele>133.0</ele><time>2026-04-04T11:39:21.931Z</time></trkpt><trkpt lat="43.4675638" lon="10.7422667"><ele>133.0</ele><time>2026-04-04T11:39:22.931Z</time></trkpt><trkpt lat="43.4676126" lon="10.7421405"><ele>133.0</ele><time>2026-04-04T11:39:23.932Z</time></trkpt><trkpt lat="43.4676542" lon="10.7420155"><ele>133.0</ele><time>2026-04-04T11:39:24.932Z</time></trkpt><trkpt lat="43.4676943" lon="10.7418952"><ele>133.0</ele><time>2026-04-04T11:39:25.931Z</time></trkpt><trkpt lat="43.4677376" lon="10.7417751"><ele>133.0</ele><time>2026-04-04T11:39:26.931Z</time></trkpt><trkpt lat="43.4677831" lon="10.7416491"><ele>133.0</ele><time>2026-04-04T11:39:27.931Z</time></trkpt><trkpt lat="43.4678438" lon="10.741497"><ele>133.0</ele><time>2026-04-04T11:39:28.931Z</time></trkpt><trkpt lat="43.4678991" lon="10.7413536"><ele>132.6</ele><time>2026-04-04T11:39:29.931Z</time></trkpt><trkpt lat="43.4679596" lon="10.7412335"><ele>132.20000000000002</ele><time>2026-04-04T11:39:30.932Z</time></trkpt><trkpt lat="43.4680338" lon="10.7411162"><ele>131.8</ele><time>2026-04-04T11:39:31.931Z</time></trkpt><trkpt lat="43.468118" lon="10.7410118"><ele>131.4</ele><time>2026-04-04T11:39:32.932Z</time></trkpt><trkpt lat="43.4682009" lon="10.7409206"><ele>131.0</ele><time>2026-04-04T11:39:33.931Z</time></trkpt><trkpt lat="43.4682814" lon="10.7408249"><ele>131.0</ele><time>2026-04-04T11:39:34.932Z</time></trkpt><trkpt lat="43.4683538" lon="10.7407207"><ele>131.0</ele><time>2026-04-04T11:39:35.931Z</time></trkpt><trkpt lat="43.4684045" lon="10.7406009"><ele>131.0</ele><time>2026-04-04T11:39:36.932Z</time></trkpt><trkpt lat="43.4684404" lon="10.7404544"><ele>131.0</ele><time>2026-04-04T11:39:37.931Z</time></trkpt><trkpt lat="43.4684695" lon="10.7402916"><ele>131.0</ele><time>2026-04-04T11:39:38.932Z</time></trkpt><trkpt lat="43.4684882" lon="10.7401268"><ele>131.0</ele><time>2026-04-04T11:39:39.932Z</time></trkpt><trkpt lat="43.4685024" lon="10.7399692"><ele>131.0</ele><time>2026-04-04T11:39:40.932Z</time></trkpt><trkpt lat="43.4685209" lon="10.7398157"><ele>131.0</ele><time>2026-04-04T11:39:41.932Z</time></trkpt><trkpt lat="43.4685389" lon="10.7396696"><ele>131.0</ele><time>2026-04-04T11:39:42.932Z</time></trkpt><trkpt lat="43.4685454" lon="10.7395307"><ele>131.0</ele><time>2026-04-04T11:39:43.932Z</time></trkpt><trkpt lat="43.4685329" lon="10.7393976"><ele>131.5</ele><time>2026-04-04T11:39:44.931Z</time></trkpt><trkpt lat="43.4685037" lon="10.739261"><ele>132.0</ele><time>2026-04-04T11:39:45.932Z</time></trkpt><trkpt lat="43.4684538" lon="10.7391229"><ele>132.5</ele><time>2026-04-04T11:39:46.931Z</time></trkpt><trkpt lat="43.4683843" lon="10.7389825"><ele>133.0</ele><time>2026-04-04T11:39:47.931Z</time></trkpt><trkpt lat="43.4683161" lon="10.7388562"><ele>133.0</ele><time>2026-04-04T11:39:48.931Z</time></trkpt><trkpt lat="43.4682651" lon="10.738738"><ele>133.0</ele><time>2026-04-04T11:39:49.931Z</time></trkpt><trkpt lat="43.46823" lon="10.7386354"><ele>133.0</ele><time>2026-04-04T11:39:50.931Z</time></trkpt><trkpt lat="43.4682232" lon="10.7385409"><ele>133.0</ele><time>2026-04-04T11:39:51.932Z</time></trkpt><trkpt lat="43.4682425" lon="10.7384502"><ele>133.0</ele><time>2026-04-04T11:39:52.931Z</time></trkpt><trkpt lat="43.4682881" lon="10.7383608"><ele>133.0</ele><time>2026-04-04T11:39:53.932Z</time></trkpt><trkpt lat="43.4683437" lon="10.7382673"><ele>133.8</ele><time>2026-04-04T11:39:54.932Z</time></trkpt><trkpt lat="43.4684199" lon="10.7382036"><ele>134.60000000000002</ele><time>2026-04-04T11:39:55.932Z</time></trkpt><trkpt lat="43.4684991" lon="10.7381486"><ele>135.39999999999998</ele><time>2026-04-04T11:39:56.931Z</time></trkpt><trkpt lat="43.4685856" lon="10.7381099"><ele>136.2</ele><time>2026-04-04T11:39:57.932Z</time></trkpt><trkpt lat="43.468664" lon="10.7380794"><ele>137.0</ele><time>2026-04-04T11:39:58.932Z</time></trkpt><trkpt lat="43.468781" lon="10.7380708"><ele>137.6</ele><time>2026-04-04T11:39:59.931Z</time></trkpt><trkpt lat="43.4688956" lon="10.7380725"><ele>138.2</ele><time>2026-04-04T11:40:00.932Z</time></trkpt><trkpt lat="43.4689914" lon="10.7380557"><ele>138.8</ele><time>2026-04-04T11:40:01.931Z</time></trkpt><trkpt lat="43.4690869" lon="10.7380284"><ele>139.4</ele><time>2026-04-04T11:40:02.932Z</time></trkpt><trkpt lat="43.4691765" lon="10.7379812"><ele>140.0</ele><time>2026-04-04T11:40:03.931Z</time></trkpt><trkpt lat="43.4692615" lon="10.7379129"><ele>140.0</ele><time>2026-04-04T11:40:04.931Z</time></trkpt><trkpt lat="43.46934" lon="10.7378171"><ele>140.0</ele><time>2026-04-04T11:40:05.932Z</time></trkpt><trkpt lat="43.4694112" lon="10.7376989"><ele>140.0</ele><time>2026-04-04T11:40:06.931Z</time></trkpt><trkpt lat="43.4694809" lon="10.7375728"><ele>140.0</ele><time>2026-04-04T11:40:07.932Z</time></trkpt><trkpt lat="43.4695474" lon="10.7374337"><ele>142.25</ele><time>2026-04-04T11:40:08.932Z</time></trkpt><trkpt lat="43.4696186" lon="10.7372916"><ele>144.5</ele><time>2026-04-04T11:40:09.931Z</time></trkpt><trkpt lat="43.4696992" lon="10.73716"><ele>146.75</ele><time>2026-04-04T11:40:10.932Z</time></trkpt><trkpt lat="43.4697767" lon="10.7370245"><ele>149.0</ele><time>2026-04-04T11:40:11.932Z</time></trkpt><trkpt lat="43.4698407" lon="10.7368773"><ele>150.5</ele><time>2026-04-04T11:40:12.932Z</time></trkpt><trkpt lat="43.4699056" lon="10.7367281"><ele>152.0</ele><time>2026-04-04T11:40:13.932Z</time></trkpt><trkpt lat="43.469964" lon="10.7365861"><ele>153.5</ele><time>2026-04-04T11:40:14.931Z</time></trkpt><trkpt lat="43.4700176" lon="10.7364528"><ele>155.0</ele><time>2026-04-04T11:40:15.932Z</time></trkpt><trkpt lat="43.4700756" lon="10.7363255"><ele>155.0</ele><time>2026-04-04T11:40:16.932Z</time></trkpt><trkpt lat="43.4701304" lon="10.7362282"><ele>155.0</ele><time>2026-04-04T11:40:17.932Z</time></trkpt><trkpt lat="43.4701878" lon="10.7361265"><ele>155.0</ele><time>2026-04-04T11:40:18.932Z</time></trkpt><trkpt lat="43.4702444" lon="10.7360105"><ele>155.0</ele><time>2026-04-04T11:40:19.931Z</time></trkpt><trkpt lat="43.4702871" lon="10.7358704"><ele>155.0</ele><time>2026-04-04T11:40:20.931Z</time></trkpt><trkpt lat="43.4703193" lon="10.7357037"><ele>156.75</ele><time>2026-04-04T11:40:21.931Z</time></trkpt><trkpt lat="43.4703476" lon="10.7355297"><ele>158.5</ele><time>2026-04-04T11:40:22.932Z</time></trkpt><trkpt lat="43.4703736" lon="10.7353494"><ele>160.25</ele><time>2026-04-04T11:40:23.931Z</time></trkpt><trkpt lat="43.4704014" lon="10.7351764"><ele>162.0</ele><time>2026-04-04T11:40:24.931Z</time></trkpt><trkpt lat="43.470423" lon="10.7350094"><ele>166.0</ele><time>2026-04-04T11:40:25.931Z</time></trkpt><trkpt lat="43.470424" lon="10.7348393"><ele>170.0</ele><time>2026-04-04T11:40:26.931Z</time></trkpt><trkpt lat="43.4704071" lon="10.7346604"><ele>174.0</ele><time>2026-04-04T11:40:27.931Z</time></trkpt><trkpt lat="43.4703776" lon="10.7344796"><ele>178.0</ele><time>2026-04-04T11:40:28.932Z</time></trkpt><trkpt lat="43.4703525" lon="10.7343088"><ele>178.0</ele><time>2026-04-04T11:40:29.932Z</time></trkpt><trkpt lat="43.4703317" lon="10.7341421"><ele>178.0</ele><time>2026-04-04T11:40:30.931Z</time></trkpt><trkpt lat="43.4703302" lon="10.7339804"><ele>178.0</ele><time>2026-04-04T11:40:31.931Z</time></trkpt><trkpt lat="43.4703516" lon="10.7338094"><ele>178.0</ele><time>2026-04-04T11:40:32.932Z</time></trkpt><trkpt lat="43.4703757" lon="10.7336206"><ele>178.25</ele><time>2026-04-04T11:40:33.931Z</time></trkpt><trkpt lat="43.4703937" lon="10.7334205"><ele>178.5</ele><time>2026-04-04T11:40:34.931Z</time></trkpt><trkpt lat="43.4704069" lon="10.7332144"><ele>178.75</ele><time>2026-04-04T11:40:35.931Z</time></trkpt><trkpt lat="43.4704206" lon="10.7330077"><ele>179.0</ele><time>2026-04-04T11:40:36.932Z</time></trkpt><trkpt lat="43.470442" lon="10.7327996"><ele>181.66666666666666</ele><time>2026-04-04T11:40:37.932Z</time></trkpt><trkpt lat="43.4704754" lon="10.7325839"><ele>184.33333333333334</ele><time>2026-04-04T11:40:38.931Z</time></trkpt><trkpt lat="43.4705154" lon="10.7323609"><ele>187.0</ele><time>2026-04-04T11:40:39.932Z</time></trkpt><trkpt lat="43.4705526" lon="10.7321393"><ele>187.0</ele><time>2026-04-04T11:40:40.931Z</time></trkpt><trkpt lat="43.4705849" lon="10.7319202"><ele>187.0</ele><time>2026-04-04T11:40:41.931Z</time></trkpt><trkpt lat="43.4706214" lon="10.7317093"><ele>187.0</ele><time>2026-04-04T11:40:42.931Z</time></trkpt><trkpt lat="43.4706516" lon="10.7315067"><ele>189.25</ele><time>2026-04-04T11:40:43.931Z</time></trkpt><trkpt lat="43.4706781" lon="10.7313047"><ele>191.5</ele><time>2026-04-04T11:40:44.932Z</time></trkpt><trkpt lat="43.4707014" lon="10.731116"><ele>193.75</ele><time>2026-04-04T11:40:45.932Z</time></trkpt><trkpt lat="43.4707207" lon="10.730938"><ele>196.0</ele><time>2026-04-04T11:40:46.931Z</time></trkpt><trkpt lat="43.4707399" lon="10.7307741"><ele>196.25</ele><time>2026-04-04T11:40:47.932Z</time></trkpt><trkpt lat="43.4707431" lon="10.7306259"><ele>196.5</ele><time>2026-04-04T11:40:48.931Z</time></trkpt><trkpt lat="43.4707314" lon="10.7304732"><ele>196.75</ele><time>2026-04-04T11:40:49.931Z</time></trkpt><trkpt lat="43.4706948" lon="10.7303034"><ele>197.0</ele><time>2026-04-04T11:40:50.931Z</time></trkpt><trkpt lat="43.4706531" lon="10.7301289"><ele>197.0</ele><time>2026-04-04T11:40:51.932Z</time></trkpt><trkpt lat="43.4706162" lon="10.7299648"><ele>197.0</ele><time>2026-04-04T11:40:52.931Z</time></trkpt><trkpt lat="43.4705835" lon="10.7298126"><ele>197.0</ele><time>2026-04-04T11:40:53.931Z</time></trkpt><trkpt lat="43.470552" lon="10.7296685"><ele>197.0</ele><time>2026-04-04T11:40:54.931Z</time></trkpt><trkpt lat="43.4705245" lon="10.7295344"><ele>197.0</ele><time>2026-04-04T11:40:55.932Z</time></trkpt><trkpt lat="43.4705076" lon="10.7294273"><ele>197.0</ele><time>2026-04-04T11:40:56.931Z</time></trkpt><trkpt lat="43.4705093" lon="10.729296"><ele>197.0</ele><time>2026-04-04T11:40:58.931Z</time></trkpt><trkpt lat="43.4705738" lon="10.7291974"><ele>197.0</ele><time>2026-04-04T11:41:00.932Z</time></trkpt><trkpt lat="43.4706726" lon="10.7291086"><ele>197.0</ele><time>2026-04-04T11:41:02.931Z</time></trkpt><trkpt lat="43.4707382" lon="10.7290552"><ele>198.2</ele><time>2026-04-04T11:41:04.931Z</time></trkpt><trkpt lat="43.4706576" lon="10.7290845"><ele>199.39999999999998</ele><time>2026-04-04T11:41:14.932Z</time></trkpt><trkpt lat="43.4705537" lon="10.7291756"><ele>200.60000000000002</ele><time>2026-04-04T11:41:16.932Z</time></trkpt><trkpt lat="43.4704524" lon="10.7292092"><ele>201.8</ele><time>2026-04-04T11:41:18.931Z</time></trkpt><trkpt lat="43.4704041" lon="10.7291301"><ele>203.0</ele><time>2026-04-04T11:41:19.932Z</time></trkpt><trkpt lat="43.4703567" lon="10.7290343"><ele>203.0</ele><time>2026-04-04T11:41:20.931Z</time></trkpt><trkpt lat="43.4703169" lon="10.72892"><ele>203.0</ele><time>2026-04-04T11:41:21.931Z</time></trkpt><trkpt lat="43.4702784" lon="10.7287972"><ele>203.0</ele><time>2026-04-04T11:41:22.932Z</time></trkpt><trkpt lat="43.4702389" lon="10.7286792"><ele>203.0</ele><time>2026-04-04T11:41:23.931Z</time></trkpt><trkpt lat="43.4701935" lon="10.7285636"><ele>203.0</ele><time>2026-04-04T11:41:24.932Z</time></trkpt><trkpt lat="43.4701554" lon="10.7284301"><ele>202.0</ele><time>2026-04-04T11:41:25.932Z</time></trkpt><trkpt lat="43.4701189" lon="10.7282839"><ele>201.0</ele><time>2026-04-04T11:41:26.932Z</time></trkpt><trkpt lat="43.4700825" lon="10.7281335"><ele>200.0</ele><time>2026-04-04T11:41:27.931Z</time></trkpt><trkpt lat="43.4700584" lon="10.7279802"><ele>199.0</ele><time>2026-04-04T11:41:28.932Z</time></trkpt><trkpt lat="43.4700573" lon="10.7278174"><ele>196.75</ele><time>2026-04-04T11:41:29.931Z</time></trkpt><trkpt lat="43.4700833" lon="10.7276501"><ele>194.5</ele><time>2026-04-04T11:41:30.932Z</time></trkpt><trkpt lat="43.4701194" lon="10.7274949"><ele>192.25</ele><time>2026-04-04T11:41:31.932Z</time></trkpt><trkpt lat="43.4701629" lon="10.7273426"><ele>190.0</ele><time>2026-04-04T11:41:32.931Z</time></trkpt><trkpt lat="43.4702049" lon="10.7271914"><ele>190.0</ele><time>2026-04-04T11:41:33.932Z</time></trkpt><trkpt lat="43.470245" lon="10.7270491"><ele>190.0</ele><time>2026-04-04T11:41:34.932Z</time></trkpt><trkpt lat="43.4702853" lon="10.7269149"><ele>190.0</ele><time>2026-04-04T11:41:35.932Z</time></trkpt><trkpt lat="43.4703212" lon="10.7267831"><ele>190.0</ele><time>2026-04-04T11:41:36.931Z</time></trkpt><trkpt lat="43.470354" lon="10.7266522"><ele>190.0</ele><time>2026-04-04T11:41:37.931Z</time></trkpt><trkpt lat="43.4703855" lon="10.7265168"><ele>188.8</ele><time>2026-04-04T11:41:38.931Z</time></trkpt><trkpt lat="43.4704191" lon="10.7263806"><ele>187.6</ele><time>2026-04-04T11:41:39.931Z</time></trkpt><trkpt lat="43.470454" lon="10.7262566"><ele>186.39999999999998</ele><time>2026-04-04T11:41:40.931Z</time></trkpt><trkpt lat="43.4704838" lon="10.7261531"><ele>185.2</ele><time>2026-04-04T11:41:41.931Z</time></trkpt><trkpt lat="43.4705247" lon="10.7260161"><ele>184.0</ele><time>2026-04-04T11:41:43.931Z</time></trkpt><trkpt lat="43.4705379" lon="10.7259272"><ele>182.2</ele><time>2026-04-04T11:41:51.932Z</time></trkpt><trkpt lat="43.4704737" lon="10.7257963"><ele>180.39999999999998</ele><time>2026-04-04T11:41:53.931Z</time></trkpt><trkpt lat="43.4704024" lon="10.7257172"><ele>178.6</ele><time>2026-04-04T11:41:54.931Z</time></trkpt><trkpt lat="43.4703257" lon="10.7256203"><ele>176.8</ele><time>2026-04-04T11:41:55.931Z</time></trkpt><trkpt lat="43.4702481" lon="10.7254978"><ele>175.0</ele><time>2026-04-04T11:41:56.932Z</time></trkpt><trkpt lat="43.4701748" lon="10.7253442"><ele>174.0</ele><time>2026-04-04T11:41:57.932Z</time></trkpt><trkpt lat="43.4701028" lon="10.7251714"><ele>173.0</ele><time>2026-04-04T11:41:58.931Z</time></trkpt><trkpt lat="43.470038" lon="10.7249892"><ele>172.0</ele><time>2026-04-04T11:41:59.931Z</time></trkpt><trkpt lat="43.4699719" lon="10.7248101"><ele>171.0</ele><time>2026-04-04T11:42:00.931Z</time></trkpt><trkpt lat="43.4699147" lon="10.7246446"><ele>171.0</ele><time>2026-04-04T11:42:01.932Z</time></trkpt><trkpt lat="43.4698687" lon="10.7244907"><ele>171.0</ele><time>2026-04-04T11:42:02.931Z</time></trkpt><trkpt lat="43.4698448" lon="10.724359"><ele>171.0</ele><time>2026-04-04T11:42:03.931Z</time></trkpt><trkpt lat="43.4698415" lon="10.7242385"><ele>171.0</ele><time>2026-04-04T11:42:04.931Z</time></trkpt><trkpt lat="43.4698593" lon="10.724121"><ele>171.0</ele><time>2026-04-04T11:42:05.931Z</time></trkpt><trkpt lat="43.4698925" lon="10.7240132"><ele>170.8</ele><time>2026-04-04T11:42:06.932Z</time></trkpt><trkpt lat="43.4699318" lon="10.7239004"><ele>170.60000000000002</ele><time>2026-04-04T11:42:07.931Z</time></trkpt><trkpt lat="43.469977" lon="10.7237746"><ele>170.4</ele><time>2026-04-04T11:42:08.931Z</time></trkpt><trkpt lat="43.4700296" lon="10.7236493"><ele>170.2</ele><time>2026-04-04T11:42:09.931Z</time></trkpt><trkpt lat="43.4700808" lon="10.7235255"><ele>170.0</ele><time>2026-04-04T11:42:10.932Z</time></trkpt><trkpt lat="43.4701319" lon="10.7234017"><ele>170.4</ele><time>2026-04-04T11:42:11.932Z</time></trkpt><trkpt lat="43.470184" lon="10.7232772"><ele>170.8</ele><time>2026-04-04T11:42:12.932Z</time></trkpt><trkpt lat="43.4702381" lon="10.7231572"><ele>171.2</ele><time>2026-04-04T11:42:13.932Z</time></trkpt><trkpt lat="43.4702914" lon="10.7230447"><ele>171.6</ele><time>2026-04-04T11:42:14.931Z</time></trkpt><trkpt lat="43.470344" lon="10.7229307"><ele>172.0</ele><time>2026-04-04T11:42:15.932Z</time></trkpt><trkpt lat="43.4703885" lon="10.7228141"><ele>171.0</ele><time>2026-04-04T11:42:16.932Z</time></trkpt><trkpt lat="43.4704255" lon="10.7226963"><ele>170.0</ele><time>2026-04-04T11:42:17.931Z</time></trkpt><trkpt lat="43.4704476" lon="10.7225788"><ele>169.0</ele><time>2026-04-04T11:42:18.932Z</time></trkpt><trkpt lat="43.4704491" lon="10.722461"><ele>168.0</ele><time>2026-04-04T11:42:19.932Z</time></trkpt><trkpt lat="43.4704236" lon="10.7223504"><ele>167.0</ele><time>2026-04-04T11:42:20.932Z</time></trkpt><trkpt lat="43.4703779" lon="10.7222491"><ele>166.0</ele><time>2026-04-04T11:42:21.931Z</time></trkpt><trkpt lat="43.4703306" lon="10.7221577"><ele>166.0</ele><time>2026-04-04T11:42:22.931Z</time></trkpt><trkpt lat="43.4702912" lon="10.7220577"><ele>166.0</ele><time>2026-04-04T11:42:23.931Z</time></trkpt><trkpt lat="43.4702629" lon="10.7219528"><ele>166.0</ele><time>2026-04-04T11:42:24.932Z</time></trkpt><trkpt lat="43.4702483" lon="10.7218523"><ele>166.0</ele><time>2026-04-04T11:42:25.932Z</time></trkpt><trkpt lat="43.4702522" lon="10.7217481"><ele>166.0</ele><time>2026-04-04T11:42:26.931Z</time></trkpt><trkpt lat="43.4702716" lon="10.7216453"><ele>166.0</ele><time>2026-04-04T11:42:27.931Z</time></trkpt><trkpt lat="43.4703137" lon="10.7215435"><ele>164.4</ele><time>2026-04-04T11:42:28.931Z</time></trkpt><trkpt lat="43.4703752" lon="10.7214379"><ele>162.8</ele><time>2026-04-04T11:42:29.931Z</time></trkpt><trkpt lat="43.4704486" lon="10.7213314"><ele>161.20000000000002</ele><time>2026-04-04T11:42:30.931Z</time></trkpt><trkpt lat="43.4705257" lon="10.7212208"><ele>159.60000000000002</ele><time>2026-04-04T11:42:31.931Z</time></trkpt><trkpt lat="43.4706106" lon="10.7211055"><ele>158.0</ele><time>2026-04-04T11:42:32.932Z</time></trkpt><trkpt lat="43.4707044" lon="10.7209849"><ele>155.75</ele><time>2026-04-04T11:42:33.931Z</time></trkpt><trkpt lat="43.4707989" lon="10.7208552"><ele>153.5</ele><time>2026-04-04T11:42:34.931Z</time></trkpt><trkpt lat="43.470892" lon="10.7207214"><ele>151.25</ele><time>2026-04-04T11:42:35.931Z</time></trkpt><trkpt lat="43.4709876" lon="10.7205869"><ele>149.0</ele><time>2026-04-04T11:42:36.932Z</time></trkpt><trkpt lat="43.4710841" lon="10.7204588"><ele>149.0</ele><time>2026-04-04T11:42:37.931Z</time></trkpt><trkpt lat="43.4711796" lon="10.7203282"><ele>149.0</ele><time>2026-04-04T11:42:38.931Z</time></trkpt><trkpt lat="43.471278" lon="10.720189"><ele>149.0</ele><time>2026-04-04T11:42:39.932Z</time></trkpt><trkpt lat="43.4713748" lon="10.7200501"><ele>149.0</ele><time>2026-04-04T11:42:40.931Z</time></trkpt><trkpt lat="43.4714728" lon="10.7199155"><ele>148.5</ele><time>2026-04-04T11:42:41.931Z</time></trkpt><trkpt lat="43.4715736" lon="10.7197841"><ele>148.0</ele><time>2026-04-04T11:42:42.931Z</time></trkpt><trkpt lat="43.4716727" lon="10.7196468"><ele>147.5</ele><time>2026-04-04T11:42:43.931Z</time></trkpt><trkpt lat="43.47177" lon="10.7195125"><ele>147.0</ele><time>2026-04-04T11:42:44.932Z</time></trkpt><trkpt lat="43.4718684" lon="10.719376"><ele>146.5</ele><time>2026-04-04T11:42:45.931Z</time></trkpt><trkpt lat="43.4719683" lon="10.7192393"><ele>146.0</ele><time>2026-04-04T11:42:46.932Z</time></trkpt><trkpt lat="43.4720668" lon="10.7191001"><ele>145.5</ele><time>2026-04-04T11:42:47.932Z</time></trkpt><trkpt lat="43.4721653" lon="10.7189568"><ele>145.0</ele><time>2026-04-04T11:42:48.932Z</time></trkpt><trkpt lat="43.4722719" lon="10.7188114"><ele>144.0</ele><time>2026-04-04T11:42:49.931Z</time></trkpt><trkpt lat="43.4723805" lon="10.7186668"><ele>143.0</ele><time>2026-04-04T11:42:50.931Z</time></trkpt><trkpt lat="43.4724875" lon="10.7185141"><ele>142.0</ele><time>2026-04-04T11:42:51.932Z</time></trkpt><trkpt lat="43.4725938" lon="10.7183656"><ele>142.0</ele><time>2026-04-04T11:42:52.932Z</time></trkpt><trkpt lat="43.4726967" lon="10.7182233"><ele>142.0</ele><time>2026-04-04T11:42:53.932Z</time></trkpt><trkpt lat="43.4727978" lon="10.7180879"><ele>142.0</ele><time>2026-04-04T11:42:54.931Z</time></trkpt><trkpt lat="43.4728936" lon="10.717956"><ele>142.0</ele><time>2026-04-04T11:42:55.931Z</time></trkpt><trkpt lat="43.4729876" lon="10.7178255"><ele>141.5</ele><time>2026-04-04T11:42:56.931Z</time></trkpt><trkpt lat="43.4730846" lon="10.7176931"><ele>141.0</ele><time>2026-04-04T11:42:57.932Z</time></trkpt><trkpt lat="43.4731841" lon="10.7175623"><ele>140.5</ele><time>2026-04-04T11:42:58.932Z</time></trkpt><trkpt lat="43.4732801" lon="10.7174311"><ele>140.0</ele><time>2026-04-04T11:42:59.932Z</time></trkpt><trkpt lat="43.4733715" lon="10.717301"><ele>140.0</ele><time>2026-04-04T11:43:00.932Z</time></trkpt><trkpt lat="43.4734591" lon="10.7171768"><ele>140.0</ele><time>2026-04-04T11:43:01.932Z</time></trkpt><trkpt lat="43.4735431" lon="10.7170575"><ele>140.0</ele><time>2026-04-04T11:43:02.931Z</time></trkpt><trkpt lat="43.4736234" lon="10.7169404"><ele>140.0</ele><time>2026-04-04T11:43:03.931Z</time></trkpt><trkpt lat="43.4737032" lon="10.716831"><ele>139.0</ele><time>2026-04-04T11:43:04.932Z</time></trkpt><trkpt lat="43.4737805" lon="10.7167244"><ele>138.0</ele><time>2026-04-04T11:43:05.931Z</time></trkpt><trkpt lat="43.4738536" lon="10.7166056"><ele>137.0</ele><time>2026-04-04T11:43:06.931Z</time></trkpt><trkpt lat="43.4739158" lon="10.7164768"><ele>136.0</ele><time>2026-04-04T11:43:07.931Z</time></trkpt><trkpt lat="43.4739734" lon="10.7163369"><ele>136.0</ele><time>2026-04-04T11:43:08.932Z</time></trkpt><trkpt lat="43.4740204" lon="10.7161904"><ele>136.0</ele><time>2026-04-04T11:43:09.932Z</time></trkpt><trkpt lat="43.4740516" lon="10.7160412"><ele>136.0</ele><time>2026-04-04T11:43:10.931Z</time></trkpt><trkpt lat="43.4740701" lon="10.7158907"><ele>136.0</ele><time>2026-04-04T11:43:11.931Z</time></trkpt><trkpt lat="43.4740845" lon="10.7157383"><ele>136.5</ele><time>2026-04-04T11:43:12.931Z</time></trkpt><trkpt lat="43.4740864" lon="10.7155809"><ele>137.0</ele><time>2026-04-04T11:43:13.931Z</time></trkpt><trkpt lat="43.4740758" lon="10.7154218"><ele>137.5</ele><time>2026-04-04T11:43:14.931Z</time></trkpt><trkpt lat="43.4740554" lon="10.7152559"><ele>138.0</ele><time>2026-04-04T11:43:15.932Z</time></trkpt><trkpt lat="43.4740166" lon="10.7150884"><ele>138.25</ele><time>2026-04-04T11:43:16.932Z</time></trkpt><trkpt lat="43.4739646" lon="10.7149315"><ele>138.5</ele><time>2026-04-04T11:43:17.931Z</time></trkpt><trkpt lat="43.4739099" lon="10.7147855"><ele>138.75</ele><time>2026-04-04T11:43:18.931Z</time></trkpt><trkpt lat="43.4738577" lon="10.714651"><ele>139.0</ele><time>2026-04-04T11:43:19.932Z</time></trkpt><trkpt lat="43.4738118" lon="10.7145165"><ele>139.75</ele><time>2026-04-04T11:43:20.931Z</time></trkpt><trkpt lat="43.4737779" lon="10.7143685"><ele>140.5</ele><time>2026-04-04T11:43:21.931Z</time></trkpt><trkpt lat="43.4737575" lon="10.7142083"><ele>141.25</ele><time>2026-04-04T11:43:22.932Z</time></trkpt><trkpt lat="43.4737524" lon="10.714044"><ele>142.0</ele><time>2026-04-04T11:43:23.932Z</time></trkpt><trkpt lat="43.4737559" lon="10.7138689"><ele>141.75</ele><time>2026-04-04T11:43:24.931Z</time></trkpt><trkpt lat="43.4737647" lon="10.7136816"><ele>141.5</ele><time>2026-04-04T11:43:25.931Z</time></trkpt><trkpt lat="43.4737767" lon="10.713495"><ele>141.25</ele><time>2026-04-04T11:43:26.931Z</time></trkpt><trkpt lat="43.4737882" lon="10.7133081"><ele>141.0</ele><time>2026-04-04T11:43:27.932Z</time></trkpt><trkpt lat="43.4737935" lon="10.7131277"><ele>141.0</ele><time>2026-04-04T11:43:28.932Z</time></trkpt><trkpt lat="43.4738008" lon="10.7129554"><ele>141.0</ele><time>2026-04-04T11:43:29.931Z</time></trkpt><trkpt lat="43.4738086" lon="10.7127948"><ele>141.0</ele><time>2026-04-04T11:43:30.931Z</time></trkpt><trkpt lat="43.4738136" lon="10.7126454"><ele>141.0</ele><time>2026-04-04T11:43:31.931Z</time></trkpt><trkpt lat="43.4738214" lon="10.7124986"><ele>140.4</ele><time>2026-04-04T11:43:32.931Z</time></trkpt><trkpt lat="43.4738411" lon="10.712368"><ele>139.8</ele><time>2026-04-04T11:43:33.931Z</time></trkpt><trkpt lat="43.4738782" lon="10.7122497"><ele>139.20000000000002</ele><time>2026-04-04T11:43:34.931Z</time></trkpt><trkpt lat="43.4739337" lon="10.7121567"><ele>138.6</ele><time>2026-04-04T11:43:35.931Z</time></trkpt><trkpt lat="43.4740086" lon="10.7120895"><ele>138.0</ele><time>2026-04-04T11:43:36.931Z</time></trkpt><trkpt lat="43.4740945" lon="10.7120475"><ele>138.0</ele><time>2026-04-04T11:43:37.932Z</time></trkpt><trkpt lat="43.4741893" lon="10.7120404"><ele>138.0</ele><time>2026-04-04T11:43:38.931Z</time></trkpt><trkpt lat="43.4742874" lon="10.7120461"><ele>138.0</ele><time>2026-04-04T11:43:39.932Z</time></trkpt><trkpt lat="43.474387" lon="10.7120457"><ele>138.0</ele><time>2026-04-04T11:43:40.932Z</time></trkpt><trkpt lat="43.4744819" lon="10.7120403"><ele>138.0</ele><time>2026-04-04T11:43:41.932Z</time></trkpt><trkpt lat="43.4745682" lon="10.7120431"><ele>137.0</ele><time>2026-04-04T11:43:42.931Z</time></trkpt><trkpt lat="43.4746483" lon="10.7120432"><ele>136.0</ele><time>2026-04-04T11:43:43.932Z</time></trkpt><trkpt lat="43.4747267" lon="10.7120222"><ele>135.0</ele><time>2026-04-04T11:43:44.932Z</time></trkpt><trkpt lat="43.4747982" lon="10.7119774"><ele>134.0</ele><time>2026-04-04T11:43:45.932Z</time></trkpt><trkpt lat="43.4748605" lon="10.7119008"><ele>133.0</ele><time>2026-04-04T11:43:46.931Z</time></trkpt><trkpt lat="43.4749096" lon="10.7118096"><ele>132.0</ele><time>2026-04-04T11:43:47.932Z</time></trkpt><trkpt lat="43.4749485" lon="10.7117058"><ele>131.79999999999998</ele><time>2026-04-04T11:43:48.931Z</time></trkpt><trkpt lat="43.4749857" lon="10.7115836"><ele>131.6</ele><time>2026-04-04T11:43:49.931Z</time></trkpt><trkpt lat="43.4750303" lon="10.7114417"><ele>131.39999999999998</ele><time>2026-04-04T11:43:50.932Z</time></trkpt><trkpt lat="43.4750764" lon="10.7112986"><ele>131.2</ele><time>2026-04-04T11:43:51.932Z</time></trkpt><trkpt lat="43.4751208" lon="10.7111508"><ele>131.0</ele><time>2026-04-04T11:43:52.932Z</time></trkpt><trkpt lat="43.4751631" lon="10.7110068"><ele>131.0</ele><time>2026-04-04T11:43:53.932Z</time></trkpt><trkpt lat="43.4752076" lon="10.710864"><ele>131.0</ele><time>2026-04-04T11:43:54.931Z</time></trkpt><trkpt lat="43.4752537" lon="10.7107211"><ele>131.0</ele><time>2026-04-04T11:43:55.931Z</time></trkpt><trkpt lat="43.475305" lon="10.7105782"><ele>131.0</ele><time>2026-04-04T11:43:56.931Z</time></trkpt><trkpt lat="43.4753649" lon="10.710447"><ele>131.0</ele><time>2026-04-04T11:43:57.932Z</time></trkpt><trkpt lat="43.4754364" lon="10.7103315"><ele>131.0</ele><time>2026-04-04T11:43:58.931Z</time></trkpt><trkpt lat="43.4755184" lon="10.7102395"><ele>131.0</ele><time>2026-04-04T11:43:59.931Z</time></trkpt><trkpt lat="43.4756029" lon="10.7101556"><ele>131.0</ele><time>2026-04-04T11:44:00.931Z</time></trkpt><trkpt lat="43.4756861" lon="10.7100645"><ele>131.0</ele><time>2026-04-04T11:44:01.931Z</time></trkpt><trkpt lat="43.4757625" lon="10.7099732"><ele>128.8</ele><time>2026-04-04T11:44:02.932Z</time></trkpt><trkpt lat="43.4758309" lon="10.7098753"><ele>126.6</ele><time>2026-04-04T11:44:03.932Z</time></trkpt><trkpt lat="43.4758927" lon="10.7097737"><ele>124.4</ele><time>2026-04-04T11:44:04.931Z</time></trkpt><trkpt lat="43.4759425" lon="10.7096762"><ele>122.2</ele><time>2026-04-04T11:44:05.931Z</time></trkpt><trkpt lat="43.4759842" lon="10.7095809"><ele>120.0</ele><time>2026-04-04T11:44:06.931Z</time></trkpt><trkpt lat="43.4760197" lon="10.7094695"><ele>120.0</ele><time>2026-04-04T11:44:07.931Z</time></trkpt><trkpt lat="43.4760549" lon="10.7093427"><ele>120.0</ele><time>2026-04-04T11:44:08.932Z</time></trkpt><trkpt lat="43.4760859" lon="10.7092201"><ele>120.0</ele><time>2026-04-04T11:44:09.931Z</time></trkpt><trkpt lat="43.4761223" lon="10.7091079"><ele>120.0</ele><time>2026-04-04T11:44:10.932Z</time></trkpt><trkpt lat="43.4761555" lon="10.7089978"><ele>120.0</ele><time>2026-04-04T11:44:11.932Z</time></trkpt><trkpt lat="43.4761811" lon="10.7088985"><ele>120.0</ele><time>2026-04-04T11:44:12.932Z</time></trkpt><trkpt lat="43.4761959" lon="10.7088075"><ele>120.0</ele><time>2026-04-04T11:44:13.931Z</time></trkpt><trkpt lat="43.4762023" lon="10.7087188"><ele>120.0</ele><time>2026-04-04T11:44:14.931Z</time></trkpt><trkpt lat="43.476193" lon="10.7086205"><ele>120.0</ele><time>2026-04-04T11:44:15.931Z</time></trkpt><trkpt lat="43.4761706" lon="10.708519"><ele>120.0</ele><time>2026-04-04T11:44:16.932Z</time></trkpt><trkpt lat="43.476136" lon="10.7084172"><ele>120.0</ele><time>2026-04-04T11:44:17.931Z</time></trkpt><trkpt lat="43.4760932" lon="10.7083096"><ele>120.0</ele><time>2026-04-04T11:44:18.932Z</time></trkpt><trkpt lat="43.4760455" lon="10.7082107"><ele>118.83333333333333</ele><time>2026-04-04T11:44:19.931Z</time></trkpt><trkpt lat="43.475993" lon="10.7081154"><ele>117.66666666666666</ele><time>2026-04-04T11:44:20.931Z</time></trkpt><trkpt lat="43.4759381" lon="10.7080301"><ele>116.5</ele><time>2026-04-04T11:44:21.931Z</time></trkpt><trkpt lat="43.4758832" lon="10.7079545"><ele>115.33333333333333</ele><time>2026-04-04T11:44:22.932Z</time></trkpt><trkpt lat="43.4758262" lon="10.7078915"><ele>114.16666666666666</ele><time>2026-04-04T11:44:23.931Z</time></trkpt><trkpt lat="43.4757616" lon="10.7078377"><ele>113.0</ele><time>2026-04-04T11:44:24.931Z</time></trkpt><trkpt lat="43.4756912" lon="10.7077883"><ele>113.0</ele><time>2026-04-04T11:44:25.932Z</time></trkpt><trkpt lat="43.4756147" lon="10.7077469"><ele>113.00000000000001</ele><time>2026-04-04T11:44:26.931Z</time></trkpt><trkpt lat="43.4755335" lon="10.7077178"><ele>113.00000000000001</ele><time>2026-04-04T11:44:27.932Z</time></trkpt><trkpt lat="43.4754445" lon="10.7076997"><ele>113.0</ele><time>2026-04-04T11:44:28.932Z</time></trkpt><trkpt lat="43.4753428" lon="10.7076915"><ele>113.0</ele><time>2026-04-04T11:44:29.931Z</time></trkpt><trkpt lat="43.4752435" lon="10.7076884"><ele>112.83333333333333</ele><time>2026-04-04T11:44:30.932Z</time></trkpt><trkpt lat="43.4751516" lon="10.7076896"><ele>112.66666666666666</ele><time>2026-04-04T11:44:31.932Z</time></trkpt><trkpt lat="43.4750702" lon="10.7076946"><ele>112.5</ele><time>2026-04-04T11:44:32.932Z</time></trkpt><trkpt lat="43.4749994" lon="10.7077101"><ele>112.33333333333334</ele><time>2026-04-04T11:44:33.932Z</time></trkpt><trkpt lat="43.4749372" lon="10.7077464"><ele>112.16666666666667</ele><time>2026-04-04T11:44:34.932Z</time></trkpt><trkpt lat="43.4748723" lon="10.7077972"><ele>112.0</ele><time>2026-04-04T11:44:35.931Z</time></trkpt><trkpt lat="43.4748048" lon="10.7078565"><ele>112.00000000000001</ele><time>2026-04-04T11:44:36.931Z</time></trkpt><trkpt lat="43.4747447" lon="10.7079179"><ele>112.0</ele><time>2026-04-04T11:44:37.932Z</time></trkpt><trkpt lat="43.4746852" lon="10.7079718"><ele>112.0</ele><time>2026-04-04T11:44:38.931Z</time></trkpt><trkpt lat="43.4746151" lon="10.7080119"><ele>112.0</ele><time>2026-04-04T11:44:39.932Z</time></trkpt><trkpt lat="43.4745414" lon="10.7080186"><ele>112.00000000000001</ele><time>2026-04-04T11:44:40.932Z</time></trkpt><trkpt lat="43.4744649" lon="10.7079933"><ele>112.0</ele><time>2026-04-04T11:44:41.931Z</time></trkpt><trkpt lat="43.4743911" lon="10.7079426"><ele>111.0</ele><time>2026-04-04T11:44:42.931Z</time></trkpt><trkpt lat="43.4743248" lon="10.7078709"><ele>109.99999999999999</ele><time>2026-04-04T11:44:43.931Z</time></trkpt><trkpt lat="43.4742746" lon="10.7077766"><ele>108.99999999999999</ele><time>2026-04-04T11:44:44.932Z</time></trkpt><trkpt lat="43.4742432" lon="10.7076674"><ele>108.0</ele><time>2026-04-04T11:44:45.932Z</time></trkpt><trkpt lat="43.4742321" lon="10.7075454"><ele>107.0</ele><time>2026-04-04T11:44:46.932Z</time></trkpt><trkpt lat="43.4742384" lon="10.7073997"><ele>105.25</ele><time>2026-04-04T11:44:47.931Z</time></trkpt><trkpt lat="43.4742501" lon="10.7072386"><ele>103.5</ele><time>2026-04-04T11:44:48.932Z</time></trkpt><trkpt lat="43.4742605" lon="10.7070672"><ele>101.75</ele><time>2026-04-04T11:44:49.932Z</time></trkpt><trkpt lat="43.474273" lon="10.7068966"><ele>100.0</ele><time>2026-04-04T11:44:50.931Z</time></trkpt><trkpt lat="43.4742866" lon="10.7067287"><ele>99.5</ele><time>2026-04-04T11:44:51.931Z</time></trkpt><trkpt lat="43.4743004" lon="10.7065632"><ele>99.0</ele><time>2026-04-04T11:44:52.931Z</time></trkpt><trkpt lat="43.4743156" lon="10.706395"><ele>98.5</ele><time>2026-04-04T11:44:53.932Z</time></trkpt><trkpt lat="43.4743417" lon="10.7062406"><ele>98.0</ele><time>2026-04-04T11:44:54.931Z</time></trkpt><trkpt lat="43.4743857" lon="10.7061026"><ele>98.25</ele><time>2026-04-04T11:44:55.931Z</time></trkpt><trkpt lat="43.474446" lon="10.7059771"><ele>98.5</ele><time>2026-04-04T11:44:56.931Z</time></trkpt><trkpt lat="43.4745318" lon="10.7058628"><ele>98.75</ele><time>2026-04-04T11:44:57.931Z</time></trkpt><trkpt lat="43.4746344" lon="10.7057558"><ele>99.0</ele><time>2026-04-04T11:44:58.932Z</time></trkpt><trkpt lat="43.4747509" lon="10.7056588"><ele>98.25</ele><time>2026-04-04T11:44:59.932Z</time></trkpt><trkpt lat="43.4748714" lon="10.7055683"><ele>97.5</ele><time>2026-04-04T11:45:00.931Z</time></trkpt><trkpt lat="43.4749844" lon="10.7054817"><ele>96.75</ele><time>2026-04-04T11:45:01.931Z</time></trkpt><trkpt lat="43.4750923" lon="10.7054004"><ele>96.0</ele><time>2026-04-04T11:45:02.932Z</time></trkpt><trkpt lat="43.4751982" lon="10.7053087"><ele>96.25</ele><time>2026-04-04T11:45:03.931Z</time></trkpt><trkpt lat="43.4752921" lon="10.7052111"><ele>96.5</ele><time>2026-04-04T11:45:04.931Z</time></trkpt><trkpt lat="43.4753706" lon="10.7051049"><ele>96.75</ele><time>2026-04-04T11:45:05.931Z</time></trkpt><trkpt lat="43.4754401" lon="10.704972"><ele>97.0</ele><time>2026-04-04T11:45:06.932Z</time></trkpt><trkpt lat="43.4755026" lon="10.704803"><ele>96.0</ele><time>2026-04-04T11:45:07.931Z</time></trkpt><trkpt lat="43.4755612" lon="10.7046146"><ele>95.0</ele><time>2026-04-04T11:45:08.931Z</time></trkpt><trkpt lat="43.4756229" lon="10.7044124"><ele>94.0</ele><time>2026-04-04T11:45:09.932Z</time></trkpt><trkpt lat="43.475688" lon="10.7042015"><ele>94.0</ele><time>2026-04-04T11:45:10.932Z</time></trkpt><trkpt lat="43.4757495" lon="10.703991"><ele>94.0</ele><time>2026-04-04T11:45:11.932Z</time></trkpt><trkpt lat="43.4758092" lon="10.7037884"><ele>94.0</ele><time>2026-04-04T11:45:12.931Z</time></trkpt><trkpt lat="43.4758695" lon="10.7035849"><ele>94.33333333333333</ele><time>2026-04-04T11:45:13.931Z</time></trkpt><trkpt lat="43.4759333" lon="10.7033777"><ele>94.66666666666667</ele><time>2026-04-04T11:45:14.932Z</time></trkpt><trkpt lat="43.4759964" lon="10.7031676"><ele>95.0</ele><time>2026-04-04T11:45:15.932Z</time></trkpt><trkpt lat="43.4760607" lon="10.702956"><ele>95.33333333333334</ele><time>2026-04-04T11:45:16.932Z</time></trkpt><trkpt lat="43.4761221" lon="10.7027387"><ele>95.66666666666667</ele><time>2026-04-04T11:45:17.932Z</time></trkpt><trkpt lat="43.4761861" lon="10.7025221"><ele>96.0</ele><time>2026-04-04T11:45:18.932Z</time></trkpt><trkpt lat="43.4762505" lon="10.7023105"><ele>95.66666666666667</ele><time>2026-04-04T11:45:19.932Z</time></trkpt><trkpt lat="43.4763161" lon="10.7020882"><ele>95.33333333333334</ele><time>2026-04-04T11:45:20.931Z</time></trkpt><trkpt lat="43.4763807" lon="10.7018713"><ele>95.0</ele><time>2026-04-04T11:45:21.932Z</time></trkpt><trkpt lat="43.4764433" lon="10.7016696"><ele>94.75</ele><time>2026-04-04T11:45:22.932Z</time></trkpt><trkpt lat="43.4765006" lon="10.7014818"><ele>94.5</ele><time>2026-04-04T11:45:23.931Z</time></trkpt><trkpt lat="43.4765527" lon="10.7013053"><ele>94.25</ele><time>2026-04-04T11:45:24.931Z</time></trkpt><trkpt lat="43.4766047" lon="10.7011294"><ele>94.0</ele><time>2026-04-04T11:45:25.931Z</time></trkpt><trkpt lat="43.476655" lon="10.7009666"><ele>94.5</ele><time>2026-04-04T11:45:26.932Z</time></trkpt><trkpt lat="43.4767036" lon="10.7008051"><ele>95.0</ele><time>2026-04-04T11:45:27.931Z</time></trkpt><trkpt lat="43.476753" lon="10.700643"><ele>95.5</ele><time>2026-04-04T11:45:28.931Z</time></trkpt><trkpt lat="43.4767971" lon="10.7004853"><ele>96.0</ele><time>2026-04-04T11:45:29.931Z</time></trkpt><trkpt lat="43.4768328" lon="10.7003321"><ele>95.83333333333333</ele><time>2026-04-04T11:45:30.932Z</time></trkpt><trkpt lat="43.4768518" lon="10.700186"><ele>95.66666666666667</ele><time>2026-04-04T11:45:31.931Z</time></trkpt><trkpt lat="43.4768637" lon="10.7000547"><ele>95.5</ele><time>2026-04-04T11:45:32.931Z</time></trkpt><trkpt lat="43.476873" lon="10.6999265"><ele>95.33333333333334</ele><time>2026-04-04T11:45:33.932Z</time></trkpt><trkpt lat="43.4768841" lon="10.6998177"><ele>95.16666666666667</ele><time>2026-04-04T11:45:34.932Z</time></trkpt><trkpt lat="43.4769048" lon="10.699726"><ele>95.0</ele><time>2026-04-04T11:45:35.931Z</time></trkpt><trkpt lat="43.4769355" lon="10.6996337"><ele>95.0</ele><time>2026-04-04T11:45:36.932Z</time></trkpt><trkpt lat="43.4769557" lon="10.6995431"><ele>95.0</ele><time>2026-04-04T11:45:37.932Z</time></trkpt><trkpt lat="43.4769543" lon="10.6994514"><ele>95.0</ele><time>2026-04-04T11:45:38.931Z</time></trkpt><trkpt lat="43.4769154" lon="10.6993078"><ele>95.0</ele><time>2026-04-04T11:45:40.932Z</time></trkpt><trkpt lat="43.4769139" lon="10.6991727"><ele>95.0</ele><time>2026-04-04T11:45:42.932Z</time></trkpt><trkpt lat="43.4769254" lon="10.699076"><ele>95.0</ele><time>2026-04-04T11:45:43.932Z</time></trkpt><trkpt lat="43.4769392" lon="10.698978"><ele>95.0</ele><time>2026-04-04T11:45:44.932Z</time></trkpt><trkpt lat="43.4769507" lon="10.6988909"><ele>95.0</ele><time>2026-04-04T11:45:45.932Z</time></trkpt><trkpt lat="43.476982" lon="10.6987388"><ele>95.0</ele><time>2026-04-04T11:45:47.932Z</time></trkpt><trkpt lat="43.4770338" lon="10.6986039"><ele>95.0</ele><time>2026-04-04T11:45:49.932Z</time></trkpt><trkpt lat="43.4770795" lon="10.6985333"><ele>95.0</ele><time>2026-04-04T11:45:51.932Z</time></trkpt><trkpt lat="43.4771517" lon="10.6984632"><ele>95.0</ele><time>2026-04-04T11:45:54.931Z</time></trkpt><trkpt lat="43.4772454" lon="10.6984083"><ele>95.2</ele><time>2026-04-04T11:45:56.931Z</time></trkpt><trkpt lat="43.4773355" lon="10.6983979"><ele>95.4</ele><time>2026-04-04T11:45:58.931Z</time></trkpt><trkpt lat="43.4774306" lon="10.6984196"><ele>95.6</ele><time>2026-04-04T11:46:01.931Z</time></trkpt><trkpt lat="43.4775258" lon="10.6985318"><ele>95.8</ele><time>2026-04-04T11:46:03.931Z</time></trkpt><trkpt lat="43.4775826" lon="10.6986044"><ele>96.0</ele><time>2026-04-04T11:46:04.932Z</time></trkpt><trkpt lat="43.4776502" lon="10.6986886"><ele>96.25</ele><time>2026-04-04T11:46:05.932Z</time></trkpt><trkpt lat="43.4777201" lon="10.6987836"><ele>96.5</ele><time>2026-04-04T11:46:06.931Z</time></trkpt><trkpt lat="43.4777994" lon="10.6988885"><ele>96.75</ele><time>2026-04-04T11:46:07.932Z</time></trkpt><trkpt lat="43.4778854" lon="10.6990013"><ele>97.0</ele><time>2026-04-04T11:46:08.932Z</time></trkpt><trkpt lat="43.4779775" lon="10.6991187"><ele>97.0</ele><time>2026-04-04T11:46:09.931Z</time></trkpt><trkpt lat="43.478073" lon="10.699244"><ele>97.0</ele><time>2026-04-04T11:46:10.931Z</time></trkpt><trkpt lat="43.4781745" lon="10.6993745"><ele>97.0</ele><time>2026-04-04T11:46:11.931Z</time></trkpt><trkpt lat="43.4782836" lon="10.6995175"><ele>97.0</ele><time>2026-04-04T11:46:12.931Z</time></trkpt><trkpt lat="43.4783986" lon="10.6996679"><ele>96.66666666666667</ele><time>2026-04-04T11:46:13.931Z</time></trkpt><trkpt lat="43.4785179" lon="10.6998187"><ele>96.33333333333334</ele><time>2026-04-04T11:46:14.931Z</time></trkpt><trkpt lat="43.4786439" lon="10.6999751"><ele>96.0</ele><time>2026-04-04T11:46:15.931Z</time></trkpt><trkpt lat="43.4787741" lon="10.7001386"><ele>95.0</ele><time>2026-04-04T11:46:16.932Z</time></trkpt><trkpt lat="43.4789093" lon="10.7003099"><ele>94.0</ele><time>2026-04-04T11:46:17.931Z</time></trkpt><trkpt lat="43.47905" lon="10.700488"><ele>93.0</ele><time>2026-04-04T11:46:18.931Z</time></trkpt><trkpt lat="43.4791909" lon="10.7006715"><ele>93.0</ele><time>2026-04-04T11:46:19.931Z</time></trkpt><trkpt lat="43.4793347" lon="10.7008583"><ele>93.0</ele><time>2026-04-04T11:46:20.931Z</time></trkpt><trkpt lat="43.479486" lon="10.7010465"><ele>93.0</ele><time>2026-04-04T11:46:21.931Z</time></trkpt><trkpt lat="43.4796401" lon="10.7012414"><ele>92.66666666666667</ele><time>2026-04-04T11:46:22.931Z</time></trkpt><trkpt lat="43.4797965" lon="10.7014391"><ele>92.33333333333334</ele><time>2026-04-04T11:46:23.931Z</time></trkpt><trkpt lat="43.4799557" lon="10.7016401"><ele>92.0</ele><time>2026-04-04T11:46:24.931Z</time></trkpt><trkpt lat="43.4801075" lon="10.7018289"><ele>91.33333333333334</ele><time>2026-04-04T11:46:25.931Z</time></trkpt><trkpt lat="43.4802697" lon="10.7020336"><ele>90.66666666666667</ele><time>2026-04-04T11:46:26.931Z</time></trkpt><trkpt lat="43.4804275" lon="10.7022403"><ele>90.0</ele><time>2026-04-04T11:46:27.932Z</time></trkpt><trkpt lat="43.4805816" lon="10.7024447"><ele>90.0</ele><time>2026-04-04T11:46:28.931Z</time></trkpt><trkpt lat="43.4807368" lon="10.7026411"><ele>90.0</ele><time>2026-04-04T11:46:29.931Z</time></trkpt><trkpt lat="43.4808885" lon="10.7028307"><ele>90.0</ele><time>2026-04-04T11:46:30.932Z</time></trkpt><trkpt lat="43.4810395" lon="10.7030257"><ele>90.0</ele><time>2026-04-04T11:46:31.931Z</time></trkpt><trkpt lat="43.4811927" lon="10.7032208"><ele>90.0</ele><time>2026-04-04T11:46:32.931Z</time></trkpt><trkpt lat="43.4813465" lon="10.7034118"><ele>90.0</ele><time>2026-04-04T11:46:33.931Z</time></trkpt><trkpt lat="43.4814993" lon="10.7036027"><ele>90.0</ele><time>2026-04-04T11:46:34.932Z</time></trkpt><trkpt lat="43.4816505" lon="10.7037947"><ele>90.0</ele><time>2026-04-04T11:46:35.931Z</time></trkpt><trkpt lat="43.4818014" lon="10.7039861"><ele>90.0</ele><time>2026-04-04T11:46:36.932Z</time></trkpt><trkpt lat="43.4819547" lon="10.7041805"><ele>90.33333333333333</ele><time>2026-04-04T11:46:37.932Z</time></trkpt><trkpt lat="43.482107" lon="10.7043764"><ele>90.66666666666666</ele><time>2026-04-04T11:46:38.932Z</time></trkpt><trkpt lat="43.4822608" lon="10.7045714"><ele>91.0</ele><time>2026-04-04T11:46:39.932Z</time></trkpt><trkpt lat="43.4824159" lon="10.7047665"><ele>91.0</ele><time>2026-04-04T11:46:40.931Z</time></trkpt><trkpt lat="43.4825693" lon="10.7049674"><ele>91.0</ele><time>2026-04-04T11:46:41.931Z</time></trkpt><trkpt lat="43.4827223" lon="10.7051622"><ele>91.0</ele><time>2026-04-04T11:46:42.932Z</time></trkpt><trkpt lat="43.4828795" lon="10.7053553"><ele>91.33333333333333</ele><time>2026-04-04T11:46:43.932Z</time></trkpt><trkpt lat="43.4830428" lon="10.7055372"><ele>91.66666666666667</ele><time>2026-04-04T11:46:44.932Z</time></trkpt><trkpt lat="43.4832154" lon="10.7057042"><ele>92.0</ele><time>2026-04-04T11:46:45.932Z</time></trkpt><trkpt lat="43.4833942" lon="10.7058526"><ele>92.0</ele><time>2026-04-04T11:46:46.931Z</time></trkpt><trkpt lat="43.4835727" lon="10.7059967"><ele>92.0</ele><time>2026-04-04T11:46:47.931Z</time></trkpt><trkpt lat="43.4837538" lon="10.70614"><ele>92.0</ele><time>2026-04-04T11:46:48.931Z</time></trkpt><trkpt lat="43.4839379" lon="10.7062791"><ele>90.33333333333334</ele><time>2026-04-04T11:46:49.932Z</time></trkpt><trkpt lat="43.4841216" lon="10.7064174"><ele>88.66666666666667</ele><time>2026-04-04T11:46:50.931Z</time></trkpt><trkpt lat="43.4843059" lon="10.7065565"><ele>87.0</ele><time>2026-04-04T11:46:51.931Z</time></trkpt><trkpt lat="43.4844873" lon="10.7066932"><ele>87.0</ele><time>2026-04-04T11:46:52.932Z</time></trkpt><trkpt lat="43.4846667" lon="10.7068319"><ele>87.0</ele><time>2026-04-04T11:46:53.932Z</time></trkpt><trkpt lat="43.484849" lon="10.7069686"><ele>87.0</ele><time>2026-04-04T11:46:54.931Z</time></trkpt><trkpt lat="43.4850302" lon="10.7071099"><ele>87.0</ele><time>2026-04-04T11:46:55.932Z</time></trkpt><trkpt lat="43.4852104" lon="10.7072488"><ele>87.0</ele><time>2026-04-04T11:46:56.931Z</time></trkpt><trkpt lat="43.4853943" lon="10.7073905"><ele>87.0</ele><time>2026-04-04T11:46:57.932Z</time></trkpt><trkpt lat="43.4855759" lon="10.7075316"><ele>85.66666666666667</ele><time>2026-04-04T11:46:58.932Z</time></trkpt><trkpt lat="43.4857575" lon="10.7076719"><ele>84.33333333333334</ele><time>2026-04-04T11:46:59.932Z</time></trkpt><trkpt lat="43.4859401" lon="10.7078139"><ele>83.0</ele><time>2026-04-04T11:47:00.932Z</time></trkpt><trkpt lat="43.4861222" lon="10.7079584"><ele>83.66666666666667</ele><time>2026-04-04T11:47:01.931Z</time></trkpt><trkpt lat="43.4863068" lon="10.7080952"><ele>84.33333333333333</ele><time>2026-04-04T11:47:02.931Z</time></trkpt><trkpt lat="43.486491" lon="10.7082193"><ele>85.0</ele><time>2026-04-04T11:47:03.932Z</time></trkpt><trkpt lat="43.4866716" lon="10.7083018"><ele>85.0</ele><time>2026-04-04T11:47:04.931Z</time></trkpt><trkpt lat="43.4868631" lon="10.7083517"><ele>85.0</ele><time>2026-04-04T11:47:05.931Z</time></trkpt><trkpt lat="43.4870638" lon="10.7083715"><ele>85.0</ele><time>2026-04-04T11:47:06.932Z</time></trkpt><trkpt lat="43.4872745" lon="10.7083775"><ele>85.66666666666666</ele><time>2026-04-04T11:47:07.931Z</time></trkpt><trkpt lat="43.487493" lon="10.7083795"><ele>86.33333333333333</ele><time>2026-04-04T11:47:08.931Z</time></trkpt><trkpt lat="43.4877082" lon="10.7083856"><ele>87.0</ele><time>2026-04-04T11:47:09.931Z</time></trkpt><trkpt lat="43.4879126" lon="10.7083893"><ele>86.0</ele><time>2026-04-04T11:47:10.931Z</time></trkpt><trkpt lat="43.4881064" lon="10.7083931"><ele>85.0</ele><time>2026-04-04T11:47:11.931Z</time></trkpt><trkpt lat="43.4882915" lon="10.708402"><ele>84.0</ele><time>2026-04-04T11:47:12.931Z</time></trkpt><trkpt lat="43.4884751" lon="10.7084242"><ele>84.0</ele><time>2026-04-04T11:47:13.932Z</time></trkpt><trkpt lat="43.4886578" lon="10.7084703"><ele>84.0</ele><time>2026-04-04T11:47:14.931Z</time></trkpt><trkpt lat="43.4888386" lon="10.7085461"><ele>84.0</ele><time>2026-04-04T11:47:15.932Z</time></trkpt><trkpt lat="43.4890154" lon="10.7086415"><ele>83.33333333333333</ele><time>2026-04-04T11:47:16.932Z</time></trkpt><trkpt lat="43.4891916" lon="10.7087418"><ele>82.66666666666666</ele><time>2026-04-04T11:47:17.932Z</time></trkpt><trkpt lat="43.4893561" lon="10.7088371"><ele>82.0</ele><time>2026-04-04T11:47:18.932Z</time></trkpt><trkpt lat="43.4895104" lon="10.7089307"><ele>82.25</ele><time>2026-04-04T11:47:19.931Z</time></trkpt><trkpt lat="43.4896543" lon="10.7090159"><ele>82.5</ele><time>2026-04-04T11:47:20.931Z</time></trkpt><trkpt lat="43.4897821" lon="10.7090865"><ele>82.75</ele><time>2026-04-04T11:47:21.932Z</time></trkpt><trkpt lat="43.4898897" lon="10.7091463"><ele>83.0</ele><time>2026-04-04T11:47:22.931Z</time></trkpt><trkpt lat="43.4899836" lon="10.7092014"><ele>83.0</ele><time>2026-04-04T11:47:23.932Z</time></trkpt><trkpt lat="43.4900527" lon="10.7092456"><ele>83.0</ele><time>2026-04-04T11:47:24.931Z</time></trkpt><trkpt lat="43.490147" lon="10.7092596"><ele>83.0</ele><time>2026-04-04T11:47:26.931Z</time></trkpt><trkpt lat="43.4901471" lon="10.7091363"><ele>83.0</ele><time>2026-04-04T11:47:29.931Z</time></trkpt><trkpt lat="43.4900831" lon="10.7090511"><ele>83.0</ele><time>2026-04-04T11:47:31.931Z</time></trkpt><trkpt lat="43.490006" lon="10.7089808"><ele>83.0</ele><time>2026-04-04T11:47:33.931Z</time></trkpt><trkpt lat="43.4899022" lon="10.7089005"><ele>83.0</ele><time>2026-04-04T11:47:35.931Z</time></trkpt><trkpt lat="43.4898479" lon="10.7088378"><ele>83.0</ele><time>2026-04-04T11:47:36.931Z</time></trkpt><trkpt lat="43.4897941" lon="10.7087698"><ele>83.0</ele><time>2026-04-04T11:47:37.932Z</time></trkpt><trkpt lat="43.4897555" lon="10.7086962"><ele>83.0</ele><time>2026-04-04T11:47:38.931Z</time></trkpt><trkpt lat="43.4897294" lon="10.7086003"><ele>83.0</ele><time>2026-04-04T11:47:39.932Z</time></trkpt><trkpt lat="43.4897135" lon="10.7084883"><ele>83.0</ele><time>2026-04-04T11:47:40.932Z</time></trkpt><trkpt lat="43.4897124" lon="10.7083732"><ele>84.60000000000001</ele><time>2026-04-04T11:47:41.931Z</time></trkpt><trkpt lat="43.489722" lon="10.7082525"><ele>86.2</ele><time>2026-04-04T11:47:42.932Z</time></trkpt><trkpt lat="43.4897489" lon="10.7081238"><ele>87.8</ele><time>2026-04-04T11:47:43.931Z</time></trkpt><trkpt lat="43.4897919" lon="10.7079971"><ele>89.4</ele><time>2026-04-04T11:47:44.932Z</time></trkpt><trkpt lat="43.4898463" lon="10.7078696"><ele>91.0</ele><time>2026-04-04T11:47:45.931Z</time></trkpt><trkpt lat="43.489909" lon="10.7077391"><ele>91.5</ele><time>2026-04-04T11:47:46.932Z</time></trkpt><trkpt lat="43.4899749" lon="10.7075985"><ele>92.0</ele><time>2026-04-04T11:47:47.931Z</time></trkpt><trkpt lat="43.4900437" lon="10.7074509"><ele>92.5</ele><time>2026-04-04T11:47:48.932Z</time></trkpt><trkpt lat="43.4901036" lon="10.7073174"><ele>93.0</ele><time>2026-04-04T11:47:49.932Z</time></trkpt><trkpt lat="43.4901558" lon="10.7071944"><ele>93.0</ele><time>2026-04-04T11:47:50.931Z</time></trkpt><trkpt lat="43.4902115" lon="10.7070779"><ele>93.0</ele><time>2026-04-04T11:47:51.932Z</time></trkpt><trkpt lat="43.4902759" lon="10.7069643"><ele>93.0</ele><time>2026-04-04T11:47:52.931Z</time></trkpt><trkpt lat="43.4903485" lon="10.7068532"><ele>93.0</ele><time>2026-04-04T11:47:53.932Z</time></trkpt><trkpt lat="43.4904294" lon="10.7067443"><ele>93.0</ele><time>2026-04-04T11:47:54.931Z</time></trkpt><trkpt lat="43.4905084" lon="10.7066258"><ele>94.5</ele><time>2026-04-04T11:47:55.932Z</time></trkpt><trkpt lat="43.4905703" lon="10.7064939"><ele>96.0</ele><time>2026-04-04T11:47:56.931Z</time></trkpt><trkpt lat="43.4906248" lon="10.7063431"><ele>97.5</ele><time>2026-04-04T11:47:57.932Z</time></trkpt><trkpt lat="43.4906738" lon="10.7061743"><ele>99.0</ele><time>2026-04-04T11:47:58.931Z</time></trkpt><trkpt lat="43.4907222" lon="10.7059967"><ele>99.5</ele><time>2026-04-04T11:47:59.931Z</time></trkpt><trkpt lat="43.4907739" lon="10.7058148"><ele>100.0</ele><time>2026-04-04T11:48:00.931Z</time></trkpt><trkpt lat="43.4908274" lon="10.7056261"><ele>100.5</ele><time>2026-04-04T11:48:01.932Z</time></trkpt><trkpt lat="43.4908837" lon="10.7054297"><ele>101.0</ele><time>2026-04-04T11:48:02.932Z</time></trkpt><trkpt lat="43.4909391" lon="10.7052215"><ele>101.66666666666666</ele><time>2026-04-04T11:48:03.931Z</time></trkpt><trkpt lat="43.4909953" lon="10.7050159"><ele>102.33333333333334</ele><time>2026-04-04T11:48:04.931Z</time></trkpt><trkpt lat="43.4910492" lon="10.7048139"><ele>103.0</ele><time>2026-04-04T11:48:05.932Z</time></trkpt><trkpt lat="43.4911012" lon="10.7046103"><ele>103.33333333333334</ele><time>2026-04-04T11:48:06.931Z</time></trkpt><trkpt lat="43.4911582" lon="10.7044052"><ele>103.66666666666666</ele><time>2026-04-04T11:48:07.932Z</time></trkpt><trkpt lat="43.4912142" lon="10.7041973"><ele>104.0</ele><time>2026-04-04T11:48:08.931Z</time></trkpt><trkpt lat="43.4912721" lon="10.7039951"><ele>104.66666666666666</ele><time>2026-04-04T11:48:09.931Z</time></trkpt><trkpt lat="43.4913255" lon="10.7037962"><ele>105.33333333333334</ele><time>2026-04-04T11:48:10.932Z</time></trkpt><trkpt lat="43.4913803" lon="10.7035936"><ele>106.0</ele><time>2026-04-04T11:48:11.931Z</time></trkpt><trkpt lat="43.4914334" lon="10.7033993"><ele>107.66666666666667</ele><time>2026-04-04T11:48:12.931Z</time></trkpt><trkpt lat="43.491487" lon="10.7032043"><ele>109.33333333333334</ele><time>2026-04-04T11:48:13.931Z</time></trkpt><trkpt lat="43.4915489" lon="10.7030129"><ele>111.0</ele><time>2026-04-04T11:48:14.932Z</time></trkpt><trkpt lat="43.491619" lon="10.7028314"><ele>111.75</ele><time>2026-04-04T11:48:15.931Z</time></trkpt><trkpt lat="43.4916912" lon="10.7026581"><ele>112.5</ele><time>2026-04-04T11:48:16.931Z</time></trkpt><trkpt lat="43.4917675" lon="10.702485"><ele>113.25</ele><time>2026-04-04T11:48:17.932Z</time></trkpt><trkpt lat="43.491826" lon="10.7023309"><ele>114.0</ele><time>2026-04-04T11:48:18.931Z</time></trkpt><trkpt lat="43.4918838" lon="10.7021859"><ele>114.0</ele><time>2026-04-04T11:48:19.931Z</time></trkpt><trkpt lat="43.4919344" lon="10.7020327"><ele>114.0</ele><time>2026-04-04T11:48:20.932Z</time></trkpt><trkpt lat="43.4919793" lon="10.701862"><ele>114.0</ele><time>2026-04-04T11:48:21.932Z</time></trkpt><trkpt lat="43.4920305" lon="10.701693"><ele>114.0</ele><time>2026-04-04T11:48:22.931Z</time></trkpt><trkpt lat="43.492078" lon="10.7015199"><ele>114.5</ele><time>2026-04-04T11:48:23.932Z</time></trkpt><trkpt lat="43.4921183" lon="10.7013587"><ele>115.0</ele><time>2026-04-04T11:48:24.932Z</time></trkpt><trkpt lat="43.4921504" lon="10.7012043"><ele>115.5</ele><time>2026-04-04T11:48:25.931Z</time></trkpt><trkpt lat="43.4921628" lon="10.7010473"><ele>116.0</ele><time>2026-04-04T11:48:26.931Z</time></trkpt><trkpt lat="43.4921652" lon="10.7008892"><ele>116.5</ele><time>2026-04-04T11:48:27.932Z</time></trkpt><trkpt lat="43.4921707" lon="10.7007266"><ele>117.0</ele><time>2026-04-04T11:48:28.931Z</time></trkpt><trkpt lat="43.4921716" lon="10.7005622"><ele>117.5</ele><time>2026-04-04T11:48:29.932Z</time></trkpt><trkpt lat="43.4921609" lon="10.7003839"><ele>118.0</ele><time>2026-04-04T11:48:30.931Z</time></trkpt><trkpt lat="43.4921581" lon="10.7002157"><ele>118.80000000000001</ele><time>2026-04-04T11:48:31.931Z</time></trkpt><trkpt lat="43.492167" lon="10.7000649"><ele>119.60000000000001</ele><time>2026-04-04T11:48:32.931Z</time></trkpt><trkpt lat="43.4921876" lon="10.6999096"><ele>120.39999999999999</ele><time>2026-04-04T11:48:33.931Z</time></trkpt><trkpt lat="43.4922188" lon="10.6997652"><ele>121.19999999999999</ele><time>2026-04-04T11:48:34.931Z</time></trkpt><trkpt lat="43.4922647" lon="10.6996263"><ele>122.0</ele><time>2026-04-04T11:48:35.932Z</time></trkpt><trkpt lat="43.492317" lon="10.6995005"><ele>123.0</ele><time>2026-04-04T11:48:36.931Z</time></trkpt><trkpt lat="43.492372" lon="10.699385"><ele>123.99999999999999</ele><time>2026-04-04T11:48:37.932Z</time></trkpt><trkpt lat="43.4924141" lon="10.6992704"><ele>124.99999999999999</ele><time>2026-04-04T11:48:38.932Z</time></trkpt><trkpt lat="43.492431" lon="10.6991422"><ele>126.0</ele><time>2026-04-04T11:48:39.932Z</time></trkpt><trkpt lat="43.492438" lon="10.69901"><ele>127.0</ele><time>2026-04-04T11:48:40.931Z</time></trkpt><trkpt lat="43.4924522" lon="10.6988664"><ele>127.0</ele><time>2026-04-04T11:48:41.931Z</time></trkpt><trkpt lat="43.4924789" lon="10.6987026"><ele>127.0</ele><time>2026-04-04T11:48:42.931Z</time></trkpt><trkpt lat="43.4925159" lon="10.6985315"><ele>127.0</ele><time>2026-04-04T11:48:43.932Z</time></trkpt><trkpt lat="43.4925554" lon="10.6983576"><ele>127.0</ele><time>2026-04-04T11:48:44.932Z</time></trkpt><trkpt lat="43.4926071" lon="10.6981849"><ele>128.0</ele><time>2026-04-04T11:48:45.932Z</time></trkpt><trkpt lat="43.4926576" lon="10.6980069"><ele>129.0</ele><time>2026-04-04T11:48:46.931Z</time></trkpt><trkpt lat="43.4927087" lon="10.6978449"><ele>130.0</ele><time>2026-04-04T11:48:47.931Z</time></trkpt><trkpt lat="43.4927541" lon="10.69769"><ele>131.0</ele><time>2026-04-04T11:48:48.931Z</time></trkpt><trkpt lat="43.4928015" lon="10.6975386"><ele>130.75</ele><time>2026-04-04T11:48:49.931Z</time></trkpt><trkpt lat="43.4928655" lon="10.6973919"><ele>130.5</ele><time>2026-04-04T11:48:50.932Z</time></trkpt><trkpt lat="43.492948" lon="10.6972771"><ele>130.25</ele><time>2026-04-04T11:48:51.932Z</time></trkpt><trkpt lat="43.4930462" lon="10.697166"><ele>130.0</ele><time>2026-04-04T11:48:52.931Z</time></trkpt><trkpt lat="43.4931515" lon="10.6970493"><ele>130.0</ele><time>2026-04-04T11:48:53.932Z</time></trkpt><trkpt lat="43.4932603" lon="10.6969362"><ele>130.0</ele><time>2026-04-04T11:48:54.931Z</time></trkpt><trkpt lat="43.4933819" lon="10.6968057"><ele>130.0</ele><time>2026-04-04T11:48:55.931Z</time></trkpt><trkpt lat="43.4935043" lon="10.6966744"><ele>130.0</ele><time>2026-04-04T11:48:56.931Z</time></trkpt><trkpt lat="43.4936307" lon="10.6965609"><ele>131.0</ele><time>2026-04-04T11:48:57.932Z</time></trkpt><trkpt lat="43.4937593" lon="10.6964321"><ele>132.0</ele><time>2026-04-04T11:48:58.932Z</time></trkpt><trkpt lat="43.4938853" lon="10.6962914"><ele>133.0</ele><time>2026-04-04T11:48:59.932Z</time></trkpt><trkpt lat="43.49401" lon="10.6961708"><ele>133.75</ele><time>2026-04-04T11:49:00.932Z</time></trkpt><trkpt lat="43.4941233" lon="10.6960509"><ele>134.5</ele><time>2026-04-04T11:49:01.931Z</time></trkpt><trkpt lat="43.4942301" lon="10.6959346"><ele>135.25</ele><time>2026-04-04T11:49:02.931Z</time></trkpt><trkpt lat="43.4943333" lon="10.6958278"><ele>136.0</ele><time>2026-04-04T11:49:03.931Z</time></trkpt><trkpt lat="43.4944305" lon="10.69573"><ele>136.0</ele><time>2026-04-04T11:49:04.932Z</time></trkpt><trkpt lat="43.4945329" lon="10.6956338"><ele>136.0</ele><time>2026-04-04T11:49:05.931Z</time></trkpt><trkpt lat="43.4946408" lon="10.6955348"><ele>136.0</ele><time>2026-04-04T11:49:06.931Z</time></trkpt><trkpt lat="43.4947408" lon="10.6954281"><ele>136.0</ele><time>2026-04-04T11:49:07.931Z</time></trkpt><trkpt lat="43.4948372" lon="10.6953353"><ele>137.75</ele><time>2026-04-04T11:49:08.931Z</time></trkpt><trkpt lat="43.494937" lon="10.6952423"><ele>139.5</ele><time>2026-04-04T11:49:09.932Z</time></trkpt><trkpt lat="43.4950368" lon="10.6951422"><ele>141.25</ele><time>2026-04-04T11:49:10.931Z</time></trkpt><trkpt lat="43.4951375" lon="10.6950285"><ele>143.0</ele><time>2026-04-04T11:49:11.931Z</time></trkpt><trkpt lat="43.495239" lon="10.694933"><ele>143.0</ele><time>2026-04-04T11:49:12.931Z</time></trkpt><trkpt lat="43.4953494" lon="10.6948426"><ele>143.0</ele><time>2026-04-04T11:49:13.931Z</time></trkpt><trkpt lat="43.495453" lon="10.694768"><ele>143.0</ele><time>2026-04-04T11:49:14.931Z</time></trkpt><trkpt lat="43.4955698" lon="10.6947067"><ele>143.0</ele><time>2026-04-04T11:49:15.931Z</time></trkpt><trkpt lat="43.4956924" lon="10.6946603"><ele>141.25</ele><time>2026-04-04T11:49:16.931Z</time></trkpt><trkpt lat="43.4958068" lon="10.6946207"><ele>139.5</ele><time>2026-04-04T11:49:17.931Z</time></trkpt><trkpt lat="43.495923" lon="10.69458"><ele>137.75</ele><time>2026-04-04T11:49:18.931Z</time></trkpt><trkpt lat="43.4960402" lon="10.6945411"><ele>136.0</ele><time>2026-04-04T11:49:19.931Z</time></trkpt><trkpt lat="43.4961561" lon="10.6945068"><ele>136.2</ele><time>2026-04-04T11:49:20.932Z</time></trkpt><trkpt lat="43.4962615" lon="10.6944699"><ele>136.39999999999998</ele><time>2026-04-04T11:49:21.932Z</time></trkpt><trkpt lat="43.4963571" lon="10.6944328"><ele>136.6</ele><time>2026-04-04T11:49:22.931Z</time></trkpt><trkpt lat="43.4964407" lon="10.6943882"><ele>136.79999999999998</ele><time>2026-04-04T11:49:23.931Z</time></trkpt><trkpt lat="43.4965196" lon="10.6943316"><ele>137.0</ele><time>2026-04-04T11:49:24.931Z</time></trkpt><trkpt lat="43.4965961" lon="10.6942659"><ele>139.0</ele><time>2026-04-04T11:49:25.932Z</time></trkpt><trkpt lat="43.4966628" lon="10.6941979"><ele>141.0</ele><time>2026-04-04T11:49:26.931Z</time></trkpt><trkpt lat="43.4967092" lon="10.6941313"><ele>143.0</ele><time>2026-04-04T11:49:27.932Z</time></trkpt><trkpt lat="43.4967461" lon="10.6940459"><ele>145.0</ele><time>2026-04-04T11:49:28.931Z</time></trkpt><trkpt lat="43.4967858" lon="10.693936"><ele>147.0</ele><time>2026-04-04T11:49:29.931Z</time></trkpt><trkpt lat="43.496813" lon="10.6938165"><ele>149.0</ele><time>2026-04-04T11:49:30.931Z</time></trkpt><trkpt lat="43.4968375" lon="10.693672"><ele>148.5</ele><time>2026-04-04T11:49:31.931Z</time></trkpt><trkpt lat="43.4968556" lon="10.6935174"><ele>148.0</ele><time>2026-04-04T11:49:32.932Z</time></trkpt><trkpt lat="43.4968743" lon="10.6933666"><ele>147.5</ele><time>2026-04-04T11:49:33.931Z</time></trkpt><trkpt lat="43.4968938" lon="10.6932107"><ele>147.0</ele><time>2026-04-04T11:49:34.932Z</time></trkpt><trkpt lat="43.4969115" lon="10.6930536"><ele>147.0</ele><time>2026-04-04T11:49:35.932Z</time></trkpt><trkpt lat="43.4969282" lon="10.6928951"><ele>147.0</ele><time>2026-04-04T11:49:36.932Z</time></trkpt><trkpt lat="43.4969526" lon="10.6927323"><ele>147.0</ele><time>2026-04-04T11:49:37.931Z</time></trkpt><trkpt lat="43.4969726" lon="10.6925635"><ele>147.0</ele><time>2026-04-04T11:49:38.931Z</time></trkpt><trkpt lat="43.4969936" lon="10.6924121"><ele>145.6</ele><time>2026-04-04T11:49:39.931Z</time></trkpt><trkpt lat="43.4970139" lon="10.6922591"><ele>144.2</ele><time>2026-04-04T11:49:40.932Z</time></trkpt><trkpt lat="43.4970362" lon="10.6921403"><ele>142.8</ele><time>2026-04-04T11:49:41.931Z</time></trkpt><trkpt lat="43.4970522" lon="10.6920201"><ele>141.4</ele><time>2026-04-04T11:49:42.931Z</time></trkpt><trkpt lat="43.4970656" lon="10.6919074"><ele>140.0</ele><time>2026-04-04T11:49:43.932Z</time></trkpt><trkpt lat="43.4970978" lon="10.691781"><ele>140.0</ele><time>2026-04-04T11:49:44.931Z</time></trkpt><trkpt lat="43.4971237" lon="10.6916422"><ele>140.0</ele><time>2026-04-04T11:49:45.932Z</time></trkpt><trkpt lat="43.497143" lon="10.6915044"><ele>140.0</ele><time>2026-04-04T11:49:46.932Z</time></trkpt><trkpt lat="43.4971555" lon="10.6913796"><ele>140.0</ele><time>2026-04-04T11:49:47.932Z</time></trkpt><trkpt lat="43.4971682" lon="10.6912562"><ele>140.0</ele><time>2026-04-04T11:49:48.931Z</time></trkpt><trkpt lat="43.4971844" lon="10.6911251"><ele>140.16666666666666</ele><time>2026-04-04T11:49:49.932Z</time></trkpt><trkpt lat="43.4972008" lon="10.6910013"><ele>140.33333333333331</ele><time>2026-04-04T11:49:50.931Z</time></trkpt><trkpt lat="43.4972136" lon="10.6908917"><ele>140.5</ele><time>2026-04-04T11:49:51.931Z</time></trkpt><trkpt lat="43.497223" lon="10.6907928"><ele>140.66666666666666</ele><time>2026-04-04T11:49:52.931Z</time></trkpt><trkpt lat="43.497229" lon="10.6907011"><ele>140.83333333333334</ele><time>2026-04-04T11:49:53.932Z</time></trkpt><trkpt lat="43.497236" lon="10.6906106"><ele>141.0</ele><time>2026-04-04T11:49:54.932Z</time></trkpt><trkpt lat="43.4972289" lon="10.690455"><ele>141.0</ele><time>2026-04-04T11:49:56.931Z</time></trkpt><trkpt lat="43.4972376" lon="10.6903175"><ele>141.0</ele><time>2026-04-04T11:49:58.931Z</time></trkpt><trkpt lat="43.4972685" lon="10.6901743"><ele>141.0</ele><time>2026-04-04T11:50:00.932Z</time></trkpt><trkpt lat="43.4973087" lon="10.6899958"><ele>141.0</ele><time>2026-04-04T11:50:02.932Z</time></trkpt><trkpt lat="43.4973313" lon="10.6898845"><ele>141.0</ele><time>2026-04-04T11:50:03.932Z</time></trkpt><trkpt lat="43.4973515" lon="10.689763"><ele>141.16666666666666</ele><time>2026-04-04T11:50:04.932Z</time></trkpt><trkpt lat="43.4973723" lon="10.6896482"><ele>141.33333333333334</ele><time>2026-04-04T11:50:05.932Z</time></trkpt><trkpt lat="43.4973903" lon="10.6895403"><ele>141.5</ele><time>2026-04-04T11:50:06.932Z</time></trkpt><trkpt lat="43.4974078" lon="10.6894228"><ele>141.66666666666669</ele><time>2026-04-04T11:50:07.931Z</time></trkpt><trkpt lat="43.4974308" lon="10.6892983"><ele>141.83333333333334</ele><time>2026-04-04T11:50:08.931Z</time></trkpt><trkpt lat="43.4974511" lon="10.6891648"><ele>142.0</ele><time>2026-04-04T11:50:09.932Z</time></trkpt><trkpt lat="43.4974677" lon="10.6890312"><ele>142.0</ele><time>2026-04-04T11:50:10.932Z</time></trkpt><trkpt lat="43.497486" lon="10.6889148"><ele>142.0</ele><time>2026-04-04T11:50:11.931Z</time></trkpt><trkpt lat="43.4975027" lon="10.6887917"><ele>142.0</ele><time>2026-04-04T11:50:12.931Z</time></trkpt><trkpt lat="43.4975205" lon="10.688653"><ele>142.0</ele><time>2026-04-04T11:50:13.931Z</time></trkpt><trkpt lat="43.4975408" lon="10.6885016"><ele>142.0</ele><time>2026-04-04T11:50:14.931Z</time></trkpt><trkpt lat="43.4975608" lon="10.6883525"><ele>142.2</ele><time>2026-04-04T11:50:15.931Z</time></trkpt><trkpt lat="43.4975784" lon="10.6882067"><ele>142.39999999999998</ele><time>2026-04-04T11:50:16.931Z</time></trkpt><trkpt lat="43.4975983" lon="10.6880704"><ele>142.60000000000002</ele><time>2026-04-04T11:50:17.931Z</time></trkpt><trkpt lat="43.4976156" lon="10.6879464"><ele>142.8</ele><time>2026-04-04T11:50:18.932Z</time></trkpt><trkpt lat="43.4976335" lon="10.6878097"><ele>143.0</ele><time>2026-04-04T11:50:19.932Z</time></trkpt><trkpt lat="43.4976501" lon="10.6876656"><ele>143.6</ele><time>2026-04-04T11:50:20.931Z</time></trkpt><trkpt lat="43.4976702" lon="10.6875244"><ele>144.20000000000002</ele><time>2026-04-04T11:50:21.931Z</time></trkpt><trkpt lat="43.4976904" lon="10.6873783"><ele>144.8</ele><time>2026-04-04T11:50:22.932Z</time></trkpt><trkpt lat="43.4977083" lon="10.6872401"><ele>145.4</ele><time>2026-04-04T11:50:23.931Z</time></trkpt><trkpt lat="43.4977274" lon="10.6871053"><ele>146.0</ele><time>2026-04-04T11:50:24.932Z</time></trkpt><trkpt lat="43.4977528" lon="10.686964"><ele>146.25</ele><time>2026-04-04T11:50:25.931Z</time></trkpt><trkpt lat="43.4977909" lon="10.6868191"><ele>146.5</ele><time>2026-04-04T11:50:26.932Z</time></trkpt><trkpt lat="43.4978407" lon="10.6866843"><ele>146.75</ele><time>2026-04-04T11:50:27.932Z</time></trkpt><trkpt lat="43.4979015" lon="10.6865535"><ele>147.0</ele><time>2026-04-04T11:50:28.931Z</time></trkpt><trkpt lat="43.4979636" lon="10.6864178"><ele>147.0</ele><time>2026-04-04T11:50:29.932Z</time></trkpt><trkpt lat="43.4980288" lon="10.6862855"><ele>147.0</ele><time>2026-04-04T11:50:30.932Z</time></trkpt><trkpt lat="43.4980926" lon="10.6861617"><ele>147.0</ele><time>2026-04-04T11:50:31.932Z</time></trkpt><trkpt lat="43.4981548" lon="10.686036"><ele>147.0</ele><time>2026-04-04T11:50:32.931Z</time></trkpt><trkpt lat="43.4982149" lon="10.685912"><ele>147.0</ele><time>2026-04-04T11:50:33.931Z</time></trkpt><trkpt lat="43.4982676" lon="10.6857889"><ele>147.0</ele><time>2026-04-04T11:50:34.932Z</time></trkpt><trkpt lat="43.4983145" lon="10.6856852"><ele>147.0</ele><time>2026-04-04T11:50:35.932Z</time></trkpt><trkpt lat="43.4983555" lon="10.6855891"><ele>147.0</ele><time>2026-04-04T11:50:36.931Z</time></trkpt><trkpt lat="43.4983895" lon="10.6854894"><ele>147.0</ele><time>2026-04-04T11:50:37.931Z</time></trkpt><trkpt lat="43.4984143" lon="10.6853835"><ele>147.0</ele><time>2026-04-04T11:50:38.931Z</time></trkpt><trkpt lat="43.4984341" lon="10.6852723"><ele>147.0</ele><time>2026-04-04T11:50:39.931Z</time></trkpt><trkpt lat="43.498446" lon="10.6851582"><ele>148.0</ele><time>2026-04-04T11:50:40.932Z</time></trkpt><trkpt lat="43.4984488" lon="10.6850543"><ele>149.0</ele><time>2026-04-04T11:50:41.932Z</time></trkpt><trkpt lat="43.4984482" lon="10.6849571"><ele>150.0</ele><time>2026-04-04T11:50:42.931Z</time></trkpt><trkpt lat="43.4984375" lon="10.684848"><ele>151.0</ele><time>2026-04-04T11:50:43.932Z</time></trkpt><trkpt lat="43.4984137" lon="10.6847189"><ele>152.0</ele><time>2026-04-04T11:50:44.931Z</time></trkpt><trkpt lat="43.4983845" lon="10.6845845"><ele>153.0</ele><time>2026-04-04T11:50:45.931Z</time></trkpt><trkpt lat="43.4983523" lon="10.6844537"><ele>153.0</ele><time>2026-04-04T11:50:46.932Z</time></trkpt><trkpt lat="43.4983193" lon="10.6843155"><ele>153.0</ele><time>2026-04-04T11:50:47.931Z</time></trkpt><trkpt lat="43.4982869" lon="10.6841781"><ele>153.0</ele><time>2026-04-04T11:50:48.931Z</time></trkpt><trkpt lat="43.4982543" lon="10.6840507"><ele>153.0</ele><time>2026-04-04T11:50:49.931Z</time></trkpt><trkpt lat="43.498229" lon="10.6839149"><ele>153.0</ele><time>2026-04-04T11:50:50.932Z</time></trkpt><trkpt lat="43.4982179" lon="10.6837718"><ele>153.0</ele><time>2026-04-04T11:50:51.931Z</time></trkpt><trkpt lat="43.4982263" lon="10.6836288"><ele>153.0</ele><time>2026-04-04T11:50:52.931Z</time></trkpt><trkpt lat="43.4982479" lon="10.6834765"><ele>153.0</ele><time>2026-04-04T11:50:53.932Z</time></trkpt><trkpt lat="43.4982762" lon="10.6833168"><ele>153.0</ele><time>2026-04-04T11:50:54.931Z</time></trkpt><trkpt lat="43.4983053" lon="10.6831718"><ele>153.0</ele><time>2026-04-04T11:50:55.931Z</time></trkpt><trkpt lat="43.4983266" lon="10.6830301"><ele>152.8</ele><time>2026-04-04T11:50:56.931Z</time></trkpt><trkpt lat="43.4983477" lon="10.6828805"><ele>152.60000000000002</ele><time>2026-04-04T11:50:57.932Z</time></trkpt><trkpt lat="43.4983704" lon="10.6827414"><ele>152.39999999999998</ele><time>2026-04-04T11:50:58.931Z</time></trkpt><trkpt lat="43.4983956" lon="10.682608"><ele>152.2</ele><time>2026-04-04T11:50:59.932Z</time></trkpt><trkpt lat="43.4984304" lon="10.6824789"><ele>152.0</ele><time>2026-04-04T11:51:00.932Z</time></trkpt><trkpt lat="43.4984791" lon="10.6823645"><ele>151.4</ele><time>2026-04-04T11:51:01.932Z</time></trkpt><trkpt lat="43.4985427" lon="10.6822689"><ele>150.79999999999998</ele><time>2026-04-04T11:51:02.932Z</time></trkpt><trkpt lat="43.49862" lon="10.6821894"><ele>150.2</ele><time>2026-04-04T11:51:03.931Z</time></trkpt><trkpt lat="43.4987121" lon="10.682126"><ele>149.6</ele><time>2026-04-04T11:51:04.931Z</time></trkpt><trkpt lat="43.4988237" lon="10.6820738"><ele>149.0</ele><time>2026-04-04T11:51:05.932Z</time></trkpt><trkpt lat="43.4989393" lon="10.6820292"><ele>149.0</ele><time>2026-04-04T11:51:06.931Z</time></trkpt><trkpt lat="43.4990452" lon="10.681984"><ele>149.0</ele><time>2026-04-04T11:51:07.932Z</time></trkpt><trkpt lat="43.4991487" lon="10.6819407"><ele>149.0</ele><time>2026-04-04T11:51:08.932Z</time></trkpt><trkpt lat="43.499256" lon="10.6818977"><ele>149.0</ele><time>2026-04-04T11:51:09.931Z</time></trkpt><trkpt lat="43.499361" lon="10.6818592"><ele>149.0</ele><time>2026-04-04T11:51:10.931Z</time></trkpt><trkpt lat="43.4994607" lon="10.6818236"><ele>149.8</ele><time>2026-04-04T11:51:11.931Z</time></trkpt><trkpt lat="43.4995569" lon="10.6817868"><ele>150.60000000000002</ele><time>2026-04-04T11:51:12.932Z</time></trkpt><trkpt lat="43.4996544" lon="10.6817441"><ele>151.4</ele><time>2026-04-04T11:51:13.932Z</time></trkpt><trkpt lat="43.4997468" lon="10.6817057"><ele>152.20000000000002</ele><time>2026-04-04T11:51:14.932Z</time></trkpt><trkpt lat="43.4998385" lon="10.6816717"><ele>153.0</ele><time>2026-04-04T11:51:15.932Z</time></trkpt><trkpt lat="43.4999239" lon="10.6816337"><ele>153.0</ele><time>2026-04-04T11:51:16.931Z</time></trkpt><trkpt lat="43.499998" lon="10.6815994"><ele>153.0</ele><time>2026-04-04T11:51:17.931Z</time></trkpt><trkpt lat="43.5000728" lon="10.681567"><ele>153.0</ele><time>2026-04-04T11:51:18.931Z</time></trkpt><trkpt lat="43.5001518" lon="10.6815381"><ele>153.0</ele><time>2026-04-04T11:51:19.932Z</time></trkpt><trkpt lat="43.5002266" lon="10.6815097"><ele>153.0</ele><time>2026-04-04T11:51:20.932Z</time></trkpt><trkpt lat="43.5003033" lon="10.6814745"><ele>153.0</ele><time>2026-04-04T11:51:21.932Z</time></trkpt><trkpt lat="43.5003786" lon="10.6814462"><ele>152.6</ele><time>2026-04-04T11:51:22.931Z</time></trkpt><trkpt lat="43.5004487" lon="10.6814231"><ele>152.20000000000002</ele><time>2026-04-04T11:51:23.932Z</time></trkpt><trkpt lat="43.5005669" lon="10.6813919"><ele>151.8</ele><time>2026-04-04T11:51:25.931Z</time></trkpt><trkpt lat="43.500677" lon="10.6813702"><ele>151.4</ele><time>2026-04-04T11:51:27.931Z</time></trkpt><trkpt lat="43.500791" lon="10.6813475"><ele>151.0</ele><time>2026-04-04T11:51:29.931Z</time></trkpt><trkpt lat="43.500866" lon="10.6813345"><ele>151.0</ele><time>2026-04-04T11:51:30.931Z</time></trkpt><trkpt lat="43.500941" lon="10.681329"><ele>151.0</ele><time>2026-04-04T11:51:31.931Z</time></trkpt><trkpt lat="43.5010137" lon="10.681326"><ele>151.0</ele><time>2026-04-04T11:51:32.932Z</time></trkpt><trkpt lat="43.5010791" lon="10.681321"><ele>151.0</ele><time>2026-04-04T11:51:33.931Z</time></trkpt><trkpt lat="43.5011432" lon="10.6813112"><ele>151.0</ele><time>2026-04-04T11:51:34.931Z</time></trkpt><trkpt lat="43.501272" lon="10.6812564"><ele>151.0</ele><time>2026-04-04T11:51:36.931Z</time></trkpt><trkpt lat="43.501346" lon="10.6812182"><ele>150.8</ele><time>2026-04-04T11:51:37.932Z</time></trkpt><trkpt lat="43.5014259" lon="10.6811625"><ele>150.6</ele><time>2026-04-04T11:51:38.932Z</time></trkpt><trkpt lat="43.5015047" lon="10.6811014"><ele>150.4</ele><time>2026-04-04T11:51:39.931Z</time></trkpt><trkpt lat="43.5015757" lon="10.6810284"><ele>150.2</ele><time>2026-04-04T11:51:40.931Z</time></trkpt><trkpt lat="43.5016524" lon="10.6809419"><ele>150.0</ele><time>2026-04-04T11:51:41.931Z</time></trkpt><trkpt lat="43.5017322" lon="10.6808559"><ele>150.0</ele><time>2026-04-04T11:51:42.932Z</time></trkpt><trkpt lat="43.5018058" lon="10.6807678"><ele>150.0</ele><time>2026-04-04T11:51:43.931Z</time></trkpt><trkpt lat="43.501873" lon="10.6806786"><ele>150.0</ele><time>2026-04-04T11:51:44.932Z</time></trkpt><trkpt lat="43.5019323" lon="10.6805994"><ele>150.0</ele><time>2026-04-04T11:51:45.931Z</time></trkpt><trkpt lat="43.5019882" lon="10.6805241"><ele>150.0</ele><time>2026-04-04T11:51:46.932Z</time></trkpt><trkpt lat="43.5020478" lon="10.6804467"><ele>150.0</ele><time>2026-04-04T11:51:47.931Z</time></trkpt><trkpt lat="43.5021151" lon="10.6803633"><ele>149.0</ele><time>2026-04-04T11:51:48.932Z</time></trkpt><trkpt lat="43.502185" lon="10.6802709"><ele>148.0</ele><time>2026-04-04T11:51:49.931Z</time></trkpt><trkpt lat="43.5022534" lon="10.6801826"><ele>147.0</ele><time>2026-04-04T11:51:50.931Z</time></trkpt><trkpt lat="43.5023224" lon="10.6800958"><ele>146.0</ele><time>2026-04-04T11:51:51.931Z</time></trkpt><trkpt lat="43.5024043" lon="10.6800026"><ele>145.0</ele><time>2026-04-04T11:51:52.932Z</time></trkpt><trkpt lat="43.5024882" lon="10.6799049"><ele>145.0</ele><time>2026-04-04T11:51:53.932Z</time></trkpt><trkpt lat="43.5025597" lon="10.679815"><ele>145.0</ele><time>2026-04-04T11:51:54.931Z</time></trkpt><trkpt lat="43.5026256" lon="10.6797413"><ele>145.0</ele><time>2026-04-04T11:51:55.932Z</time></trkpt><trkpt lat="43.5026869" lon="10.6796631"><ele>145.0</ele><time>2026-04-04T11:51:56.932Z</time></trkpt><trkpt lat="43.5027606" lon="10.6795775"><ele>145.0</ele><time>2026-04-04T11:51:57.932Z</time></trkpt><trkpt lat="43.5028427" lon="10.6795004"><ele>147.2</ele><time>2026-04-04T11:51:58.932Z</time></trkpt><trkpt lat="43.5029293" lon="10.6794313"><ele>149.4</ele><time>2026-04-04T11:51:59.931Z</time></trkpt><trkpt lat="43.5030242" lon="10.6793678"><ele>151.6</ele><time>2026-04-04T11:52:00.931Z</time></trkpt><trkpt lat="43.5031186" lon="10.6793156"><ele>153.8</ele><time>2026-04-04T11:52:01.931Z</time></trkpt><trkpt lat="43.5032139" lon="10.6792645"><ele>156.0</ele><time>2026-04-04T11:52:02.931Z</time></trkpt><trkpt lat="43.503302" lon="10.6792172"><ele>156.0</ele><time>2026-04-04T11:52:03.931Z</time></trkpt><trkpt lat="43.5033865" lon="10.6791827"><ele>156.0</ele><time>2026-04-04T11:52:04.931Z</time></trkpt><trkpt lat="43.5034813" lon="10.6791629"><ele>156.0</ele><time>2026-04-04T11:52:05.932Z</time></trkpt><trkpt lat="43.503584" lon="10.6791643"><ele>156.0</ele><time>2026-04-04T11:52:06.931Z</time></trkpt><trkpt lat="43.5036838" lon="10.6791762"><ele>156.0</ele><time>2026-04-04T11:52:07.931Z</time></trkpt><trkpt lat="43.5037744" lon="10.6791994"><ele>155.6</ele><time>2026-04-04T11:52:08.931Z</time></trkpt><trkpt lat="43.5038582" lon="10.6792238"><ele>155.2</ele><time>2026-04-04T11:52:09.932Z</time></trkpt><trkpt lat="43.5039489" lon="10.6792478"><ele>154.8</ele><time>2026-04-04T11:52:10.932Z</time></trkpt><trkpt lat="43.5040399" lon="10.6792733"><ele>154.4</ele><time>2026-04-04T11:52:11.932Z</time></trkpt><trkpt lat="43.5041334" lon="10.6793024"><ele>154.0</ele><time>2026-04-04T11:52:12.931Z</time></trkpt><trkpt lat="43.5042285" lon="10.6793325"><ele>154.0</ele><time>2026-04-04T11:52:13.932Z</time></trkpt><trkpt lat="43.5043344" lon="10.6793622"><ele>154.0</ele><time>2026-04-04T11:52:14.931Z</time></trkpt><trkpt lat="43.5044357" lon="10.6793964"><ele>154.0</ele><time>2026-04-04T11:52:15.932Z</time></trkpt><trkpt lat="43.504531" lon="10.6794258"><ele>154.0</ele><time>2026-04-04T11:52:16.932Z</time></trkpt><trkpt lat="43.5046259" lon="10.6794561"><ele>154.0</ele><time>2026-04-04T11:52:17.932Z</time></trkpt><trkpt lat="43.5047217" lon="10.679482"><ele>154.0</ele><time>2026-04-04T11:52:18.931Z</time></trkpt><trkpt lat="43.5048032" lon="10.6795133"><ele>154.0</ele><time>2026-04-04T11:52:19.931Z</time></trkpt><trkpt lat="43.5048718" lon="10.6795411"><ele>154.0</ele><time>2026-04-04T11:52:20.932Z</time></trkpt><trkpt lat="43.5049286" lon="10.6795802"><ele>154.0</ele><time>2026-04-04T11:52:21.931Z</time></trkpt><trkpt lat="43.5049835" lon="10.6796357"><ele>154.0</ele><time>2026-04-04T11:52:22.931Z</time></trkpt><trkpt lat="43.5050275" lon="10.6796991"><ele>154.0</ele><time>2026-04-04T11:52:23.932Z</time></trkpt><trkpt lat="43.5050861" lon="10.6798322"><ele>154.0</ele><time>2026-04-04T11:52:25.932Z</time></trkpt><trkpt lat="43.5051332" lon="10.6800014"><ele>154.0</ele><time>2026-04-04T11:52:27.932Z</time></trkpt><trkpt lat="43.5051588" lon="10.6800923"><ele>154.0</ele><time>2026-04-04T11:52:28.932Z</time></trkpt><trkpt lat="43.5051814" lon="10.6801911"><ele>154.0</ele><time>2026-04-04T11:52:29.932Z</time></trkpt><trkpt lat="43.5052036" lon="10.6802929"><ele>154.0</ele><time>2026-04-04T11:52:30.932Z</time></trkpt><trkpt lat="43.5052256" lon="10.6804001"><ele>154.0</ele><time>2026-04-04T11:52:31.931Z</time></trkpt><trkpt lat="43.5052512" lon="10.6805071"><ele>153.85714285714286</ele><time>2026-04-04T11:52:32.932Z</time></trkpt><trkpt lat="43.5052824" lon="10.6806023"><ele>153.71428571428572</ele><time>2026-04-04T11:52:33.932Z</time></trkpt><trkpt lat="43.5053209" lon="10.6806906"><ele>153.57142857142856</ele><time>2026-04-04T11:52:34.932Z</time></trkpt><trkpt lat="43.5053634" lon="10.6807762"><ele>153.42857142857144</ele><time>2026-04-04T11:52:35.932Z</time></trkpt><trkpt lat="43.5054016" lon="10.6808635"><ele>153.28571428571428</ele><time>2026-04-04T11:52:36.931Z</time></trkpt><trkpt lat="43.5054433" lon="10.6809481"><ele>153.14285714285714</ele><time>2026-04-04T11:52:37.932Z</time></trkpt><trkpt lat="43.5054935" lon="10.6810168"><ele>153.0</ele><time>2026-04-04T11:52:38.931Z</time></trkpt><trkpt lat="43.5055585" lon="10.6810836"><ele>150.8</ele><time>2026-04-04T11:52:39.932Z</time></trkpt><trkpt lat="43.5056317" lon="10.6811492"><ele>148.60000000000002</ele><time>2026-04-04T11:52:40.932Z</time></trkpt><trkpt lat="43.5057116" lon="10.6812035"><ele>146.39999999999998</ele><time>2026-04-04T11:52:41.932Z</time></trkpt><trkpt lat="43.5058009" lon="10.6812516"><ele>144.2</ele><time>2026-04-04T11:52:42.931Z</time></trkpt><trkpt lat="43.5058904" lon="10.6812947"><ele>142.0</ele><time>2026-04-04T11:52:43.931Z</time></trkpt><trkpt lat="43.5059764" lon="10.6813351"><ele>142.0</ele><time>2026-04-04T11:52:44.932Z</time></trkpt><trkpt lat="43.5060597" lon="10.6813733"><ele>142.0</ele><time>2026-04-04T11:52:45.931Z</time></trkpt><trkpt lat="43.5061498" lon="10.681415"><ele>142.0</ele><time>2026-04-04T11:52:46.932Z</time></trkpt><trkpt lat="43.5062347" lon="10.681462"><ele>142.0</ele><time>2026-04-04T11:52:47.931Z</time></trkpt><trkpt lat="43.5063176" lon="10.6815073"><ele>142.0</ele><time>2026-04-04T11:52:48.931Z</time></trkpt><trkpt lat="43.506405" lon="10.6815469"><ele>141.83333333333334</ele><time>2026-04-04T11:52:49.931Z</time></trkpt><trkpt lat="43.5064944" lon="10.6815774"><ele>141.66666666666669</ele><time>2026-04-04T11:52:50.931Z</time></trkpt><trkpt lat="43.5065802" lon="10.6816021"><ele>141.5</ele><time>2026-04-04T11:52:51.931Z</time></trkpt><trkpt lat="43.5066632" lon="10.681617"><ele>141.33333333333334</ele><time>2026-04-04T11:52:52.932Z</time></trkpt><trkpt lat="43.506741" lon="10.6816223"><ele>141.16666666666666</ele><time>2026-04-04T11:52:53.932Z</time></trkpt><trkpt lat="43.5068143" lon="10.6816216"><ele>141.0</ele><time>2026-04-04T11:52:54.932Z</time></trkpt><trkpt lat="43.5069025" lon="10.6816146"><ele>141.0</ele><time>2026-04-04T11:52:55.932Z</time></trkpt><trkpt lat="43.5069923" lon="10.681612"><ele>141.0</ele><time>2026-04-04T11:52:56.932Z</time></trkpt><trkpt lat="43.5070873" lon="10.6816128"><ele>141.0</ele><time>2026-04-04T11:52:57.931Z</time></trkpt><trkpt lat="43.5071791" lon="10.6816077"><ele>141.0</ele><time>2026-04-04T11:52:58.931Z</time></trkpt><trkpt lat="43.507275" lon="10.6816002"><ele>141.0</ele><time>2026-04-04T11:52:59.932Z</time></trkpt><trkpt lat="43.5073686" lon="10.681595"><ele>141.0</ele><time>2026-04-04T11:53:00.932Z</time></trkpt><trkpt lat="43.5074569" lon="10.6815962"><ele>141.0</ele><time>2026-04-04T11:53:01.931Z</time></trkpt><trkpt lat="43.5075383" lon="10.6815961"><ele>141.0</ele><time>2026-04-04T11:53:02.931Z</time></trkpt><trkpt lat="43.507617" lon="10.6815928"><ele>141.0</ele><time>2026-04-04T11:53:03.932Z</time></trkpt><trkpt lat="43.5076933" lon="10.6815868"><ele>141.0</ele><time>2026-04-04T11:53:04.932Z</time></trkpt><trkpt lat="43.5077705" lon="10.6815782"><ele>141.0</ele><time>2026-04-04T11:53:05.931Z</time></trkpt><trkpt lat="43.507847" lon="10.6815682"><ele>141.0</ele><time>2026-04-04T11:53:06.931Z</time></trkpt><trkpt lat="43.5079124" lon="10.6815237"><ele>141.0</ele><time>2026-04-04T11:53:07.931Z</time></trkpt><trkpt lat="43.5079629" lon="10.6814693"><ele>141.0</ele><time>2026-04-04T11:53:08.931Z</time></trkpt><trkpt lat="43.5080061" lon="10.6813893"><ele>141.0</ele><time>2026-04-04T11:53:09.932Z</time></trkpt><trkpt lat="43.5080433" lon="10.6812851"><ele>141.0</ele><time>2026-04-04T11:53:10.932Z</time></trkpt><trkpt lat="43.5080826" lon="10.6811814"><ele>141.0</ele><time>2026-04-04T11:53:11.931Z</time></trkpt><trkpt lat="43.5081309" lon="10.6810653"><ele>141.0</ele><time>2026-04-04T11:53:12.932Z</time></trkpt><trkpt lat="43.5081835" lon="10.6809604"><ele>141.0</ele><time>2026-04-04T11:53:13.932Z</time></trkpt><trkpt lat="43.5082373" lon="10.6808629"><ele>141.0</ele><time>2026-04-04T11:53:14.931Z</time></trkpt><trkpt lat="43.5082898" lon="10.6807675"><ele>141.0</ele><time>2026-04-04T11:53:15.932Z</time></trkpt><trkpt lat="43.508342" lon="10.6806696"><ele>141.0</ele><time>2026-04-04T11:53:16.931Z</time></trkpt><trkpt lat="43.5083889" lon="10.6805901"><ele>141.0</ele><time>2026-04-04T11:53:17.931Z</time></trkpt><trkpt lat="43.5084315" lon="10.6805192"><ele>141.0</ele><time>2026-04-04T11:53:18.932Z</time></trkpt><trkpt lat="43.5084819" lon="10.6804539"><ele>141.0</ele><time>2026-04-04T11:53:19.932Z</time></trkpt><trkpt lat="43.5085481" lon="10.6804386"><ele>141.0</ele><time>2026-04-04T11:53:20.932Z</time></trkpt><trkpt lat="43.5086148" lon="10.6804523"><ele>141.0</ele><time>2026-04-04T11:53:21.932Z</time></trkpt><trkpt lat="43.5086741" lon="10.6804934"><ele>141.0</ele><time>2026-04-04T11:53:22.931Z</time></trkpt><trkpt lat="43.5087331" lon="10.6805482"><ele>141.0</ele><time>2026-04-04T11:53:23.931Z</time></trkpt><trkpt lat="43.5087948" lon="10.6806129"><ele>141.0</ele><time>2026-04-04T11:53:24.931Z</time></trkpt><trkpt lat="43.5088445" lon="10.6806744"><ele>140.6</ele><time>2026-04-04T11:53:25.932Z</time></trkpt><trkpt lat="43.508942" lon="10.6807641"><ele>140.2</ele><time>2026-04-04T11:53:27.931Z</time></trkpt><trkpt lat="43.5090597" lon="10.6807797"><ele>139.8</ele><time>2026-04-04T11:53:29.932Z</time></trkpt><trkpt lat="43.5091213" lon="10.6807616"><ele>139.4</ele><time>2026-04-04T11:53:30.931Z</time></trkpt><trkpt lat="43.5091924" lon="10.680721"><ele>139.0</ele><time>2026-04-04T11:53:31.931Z</time></trkpt><trkpt lat="43.5092738" lon="10.6806682"><ele>139.0</ele><time>2026-04-04T11:53:32.932Z</time></trkpt><trkpt lat="43.5093586" lon="10.6806275"><ele>139.0</ele><time>2026-04-04T11:53:33.931Z</time></trkpt><trkpt lat="43.5094347" lon="10.680566"><ele>139.0</ele><time>2026-04-04T11:53:34.931Z</time></trkpt><trkpt lat="43.5095" lon="10.6805207"><ele>139.0</ele><time>2026-04-04T11:53:35.932Z</time></trkpt><trkpt lat="43.5095559" lon="10.6804765"><ele>139.0</ele><time>2026-04-04T11:53:36.931Z</time></trkpt><trkpt lat="43.5096294" lon="10.6803492"><ele>139.0</ele><time>2026-04-04T11:53:38.931Z</time></trkpt><trkpt lat="43.5097109" lon="10.6802107"><ele>137.8</ele><time>2026-04-04T11:53:40.931Z</time></trkpt><trkpt lat="43.5097749" lon="10.6801319"><ele>136.60000000000002</ele><time>2026-04-04T11:53:41.931Z</time></trkpt><trkpt lat="43.5098564" lon="10.6800424"><ele>135.4</ele><time>2026-04-04T11:53:42.932Z</time></trkpt><trkpt lat="43.5099381" lon="10.6799644"><ele>134.20000000000002</ele><time>2026-04-04T11:53:43.931Z</time></trkpt><trkpt lat="43.5100131" lon="10.6798902"><ele>133.0</ele><time>2026-04-04T11:53:44.932Z</time></trkpt><trkpt lat="43.5100867" lon="10.6798165"><ele>133.0</ele><time>2026-04-04T11:53:45.931Z</time></trkpt><trkpt lat="43.5101591" lon="10.679744"><ele>133.0</ele><time>2026-04-04T11:53:46.932Z</time></trkpt><trkpt lat="43.5102334" lon="10.6796705"><ele>133.0</ele><time>2026-04-04T11:53:47.931Z</time></trkpt><trkpt lat="43.5103096" lon="10.6795951"><ele>133.0</ele><time>2026-04-04T11:53:48.931Z</time></trkpt><trkpt lat="43.5103788" lon="10.679516"><ele>133.0</ele><time>2026-04-04T11:53:49.931Z</time></trkpt><trkpt lat="43.5104391" lon="10.6794331"><ele>132.6</ele><time>2026-04-04T11:53:50.931Z</time></trkpt><trkpt lat="43.5104953" lon="10.679342"><ele>132.20000000000002</ele><time>2026-04-04T11:53:51.931Z</time></trkpt><trkpt lat="43.5105449" lon="10.6792405"><ele>131.8</ele><time>2026-04-04T11:53:52.932Z</time></trkpt><trkpt lat="43.5105964" lon="10.6791346"><ele>131.4</ele><time>2026-04-04T11:53:53.931Z</time></trkpt><trkpt lat="43.5106536" lon="10.6790209"><ele>131.0</ele><time>2026-04-04T11:53:54.931Z</time></trkpt><trkpt lat="43.5107101" lon="10.6789211"><ele>131.0</ele><time>2026-04-04T11:53:55.931Z</time></trkpt><trkpt lat="43.5107732" lon="10.6788275"><ele>131.0</ele><time>2026-04-04T11:53:56.931Z</time></trkpt><trkpt lat="43.510853" lon="10.6787504"><ele>131.0</ele><time>2026-04-04T11:53:57.932Z</time></trkpt><trkpt lat="43.5109398" lon="10.6786903"><ele>131.0</ele><time>2026-04-04T11:53:58.932Z</time></trkpt><trkpt lat="43.5110371" lon="10.6786323"><ele>131.0</ele><time>2026-04-04T11:53:59.931Z</time></trkpt><trkpt lat="43.511133" lon="10.6785849"><ele>131.16666666666666</ele><time>2026-04-04T11:54:00.932Z</time></trkpt><trkpt lat="43.5112298" lon="10.6785372"><ele>131.33333333333331</ele><time>2026-04-04T11:54:01.932Z</time></trkpt><trkpt lat="43.5113183" lon="10.6784931"><ele>131.5</ele><time>2026-04-04T11:54:02.932Z</time></trkpt><trkpt lat="43.5113989" lon="10.678451"><ele>131.66666666666666</ele><time>2026-04-04T11:54:03.932Z</time></trkpt><trkpt lat="43.5114755" lon="10.6784113"><ele>131.83333333333334</ele><time>2026-04-04T11:54:04.932Z</time></trkpt><trkpt lat="43.5115455" lon="10.6783613"><ele>132.0</ele><time>2026-04-04T11:54:05.931Z</time></trkpt><trkpt lat="43.5116116" lon="10.678295"><ele>132.0</ele><time>2026-04-04T11:54:06.932Z</time></trkpt><trkpt lat="43.5116719" lon="10.6782145"><ele>132.0</ele><time>2026-04-04T11:54:07.931Z</time></trkpt><trkpt lat="43.5117304" lon="10.6781265"><ele>132.0</ele><time>2026-04-04T11:54:08.931Z</time></trkpt><trkpt lat="43.5117832" lon="10.6780283"><ele>132.0</ele><time>2026-04-04T11:54:09.931Z</time></trkpt><trkpt lat="43.5118371" lon="10.6779355"><ele>132.0</ele><time>2026-04-04T11:54:10.932Z</time></trkpt><trkpt lat="43.5118958" lon="10.6778569"><ele>132.0</ele><time>2026-04-04T11:54:11.931Z</time></trkpt><trkpt lat="43.5119623" lon="10.6777877"><ele>132.5</ele><time>2026-04-04T11:54:12.931Z</time></trkpt><trkpt lat="43.5120379" lon="10.677732"><ele>133.0</ele><time>2026-04-04T11:54:13.932Z</time></trkpt><trkpt lat="43.512114" lon="10.6776907"><ele>133.5</ele><time>2026-04-04T11:54:14.931Z</time></trkpt><trkpt lat="43.5121853" lon="10.6776614"><ele>134.0</ele><time>2026-04-04T11:54:15.931Z</time></trkpt><trkpt lat="43.5122533" lon="10.6776672"><ele>134.5</ele><time>2026-04-04T11:54:16.931Z</time></trkpt><trkpt lat="43.5123423" lon="10.67778"><ele>135.0</ele><time>2026-04-04T11:54:18.931Z</time></trkpt><trkpt lat="43.512388" lon="10.6778417"><ele>132.0</ele><time>2026-04-04T11:54:19.931Z</time></trkpt><trkpt lat="43.5125012" lon="10.6779093"><ele>129.0</ele><time>2026-04-04T11:54:21.932Z</time></trkpt><trkpt lat="43.5126025" lon="10.6779301"><ele>126.0</ele><time>2026-04-04T11:54:23.931Z</time></trkpt><trkpt lat="43.5127074" lon="10.6779134"><ele>123.0</ele><time>2026-04-04T11:54:25.931Z</time></trkpt><trkpt lat="43.5127984" lon="10.6778451"><ele>120.0</ele><time>2026-04-04T11:54:27.932Z</time></trkpt><trkpt lat="43.5128528" lon="10.6777893"><ele>120.0</ele><time>2026-04-04T11:54:28.931Z</time></trkpt><trkpt lat="43.5129036" lon="10.6777316"><ele>120.0</ele><time>2026-04-04T11:54:29.932Z</time></trkpt><trkpt lat="43.5129876" lon="10.6776361"><ele>120.0</ele><time>2026-04-04T11:54:31.931Z</time></trkpt><trkpt lat="43.5130426" lon="10.6775692"><ele>120.0</ele><time>2026-04-04T11:54:33.932Z</time></trkpt><trkpt lat="43.5131131" lon="10.6774721"><ele>120.0</ele><time>2026-04-04T11:54:35.932Z</time></trkpt><trkpt lat="43.5131944" lon="10.6773665"><ele>120.0</ele><time>2026-04-04T11:54:37.931Z</time></trkpt><trkpt lat="43.5132652" lon="10.6773063"><ele>120.0</ele><time>2026-04-04T11:54:39.931Z</time></trkpt><trkpt lat="43.5133383" lon="10.6772272"><ele>120.0</ele><time>2026-04-04T11:54:41.932Z</time></trkpt><trkpt lat="43.5133959" lon="10.6770958"><ele>120.0</ele><time>2026-04-04T11:54:43.932Z</time></trkpt><trkpt lat="43.5134274" lon="10.6769526"><ele>120.0</ele><time>2026-04-04T11:54:45.931Z</time></trkpt><trkpt lat="43.5134647" lon="10.6768629"><ele>120.0</ele><time>2026-04-04T11:54:47.932Z</time></trkpt><trkpt lat="43.5135303" lon="10.6768413"><ele>120.0</ele><time>2026-04-04T11:54:49.932Z</time></trkpt><trkpt lat="43.5136279" lon="10.6769021"><ele>120.0</ele><time>2026-04-04T11:54:51.932Z</time></trkpt><trkpt lat="43.5137284" lon="10.6769552"><ele>120.0</ele><time>2026-04-04T11:54:53.932Z</time></trkpt><trkpt lat="43.5138553" lon="10.6769491"><ele>120.0</ele><time>2026-04-04T11:54:55.932Z</time></trkpt><trkpt lat="43.5139246" lon="10.6769311"><ele>120.28571428571429</ele><time>2026-04-04T11:54:56.931Z</time></trkpt><trkpt lat="43.5139908" lon="10.6769109"><ele>120.57142857142856</ele><time>2026-04-04T11:54:57.931Z</time></trkpt><trkpt lat="43.5140565" lon="10.6768813"><ele>120.85714285714285</ele><time>2026-04-04T11:54:58.932Z</time></trkpt><trkpt lat="43.5141218" lon="10.676851"><ele>121.14285714285714</ele><time>2026-04-04T11:54:59.931Z</time></trkpt><trkpt lat="43.514191" lon="10.6768278"><ele>121.42857142857142</ele><time>2026-04-04T11:55:00.931Z</time></trkpt><trkpt lat="43.514259" lon="10.6768078"><ele>121.7142857142857</ele><time>2026-04-04T11:55:01.931Z</time></trkpt><trkpt lat="43.5143256" lon="10.6767905"><ele>121.99999999999999</ele><time>2026-04-04T11:55:02.932Z</time></trkpt><trkpt lat="43.5143891" lon="10.6767714"><ele>121.99999999999999</ele><time>2026-04-04T11:55:03.931Z</time></trkpt><trkpt lat="43.5144539" lon="10.6767543"><ele>122.0</ele><time>2026-04-04T11:55:04.932Z</time></trkpt><trkpt lat="43.5145201" lon="10.6767372"><ele>121.99999999999999</ele><time>2026-04-04T11:55:05.931Z</time></trkpt><trkpt lat="43.5145845" lon="10.6767198"><ele>121.99999999999999</ele><time>2026-04-04T11:55:06.931Z</time></trkpt><trkpt lat="43.5146558" lon="10.6767003"><ele>122.0</ele><time>2026-04-04T11:55:07.931Z</time></trkpt><trkpt lat="43.5147287" lon="10.6766749"><ele>121.99999999999999</ele><time>2026-04-04T11:55:08.931Z</time></trkpt><trkpt lat="43.5148022" lon="10.6766418"><ele>121.99999999999999</ele><time>2026-04-04T11:55:09.931Z</time></trkpt><trkpt lat="43.5148756" lon="10.6765975"><ele>120.16666666666666</ele><time>2026-04-04T11:55:10.931Z</time></trkpt><trkpt lat="43.5149407" lon="10.676541"><ele>118.33333333333333</ele><time>2026-04-04T11:55:11.932Z</time></trkpt><trkpt lat="43.5150113" lon="10.6764698"><ele>116.5</ele><time>2026-04-04T11:55:12.932Z</time></trkpt><trkpt lat="43.5150836" lon="10.6763953"><ele>114.66666666666666</ele><time>2026-04-04T11:55:13.931Z</time></trkpt><trkpt lat="43.51515" lon="10.676323"><ele>112.83333333333333</ele><time>2026-04-04T11:55:14.931Z</time></trkpt><trkpt lat="43.5152127" lon="10.6762574"><ele>111.0</ele><time>2026-04-04T11:55:15.931Z</time></trkpt><trkpt lat="43.5152752" lon="10.6761884"><ele>111.0</ele><time>2026-04-04T11:55:16.931Z</time></trkpt><trkpt lat="43.5153416" lon="10.6761198"><ele>111.0</ele><time>2026-04-04T11:55:17.932Z</time></trkpt><trkpt lat="43.5154034" lon="10.6760599"><ele>111.0</ele><time>2026-04-04T11:55:18.931Z</time></trkpt><trkpt lat="43.5154652" lon="10.6759954"><ele>111.0</ele><time>2026-04-04T11:55:19.932Z</time></trkpt><trkpt lat="43.5155368" lon="10.6759254"><ele>111.0</ele><time>2026-04-04T11:55:20.932Z</time></trkpt><trkpt lat="43.5156055" lon="10.6758588"><ele>111.0</ele><time>2026-04-04T11:55:21.931Z</time></trkpt><trkpt lat="43.5156713" lon="10.6757947"><ele>110.0</ele><time>2026-04-04T11:55:22.931Z</time></trkpt><trkpt lat="43.5157381" lon="10.6757268"><ele>109.0</ele><time>2026-04-04T11:55:23.931Z</time></trkpt><trkpt lat="43.5158084" lon="10.6756594"><ele>108.0</ele><time>2026-04-04T11:55:24.931Z</time></trkpt><trkpt lat="43.5158832" lon="10.6755893"><ele>107.0</ele><time>2026-04-04T11:55:25.932Z</time></trkpt><trkpt lat="43.5159596" lon="10.6755247"><ele>106.0</ele><time>2026-04-04T11:55:26.932Z</time></trkpt><trkpt lat="43.5160398" lon="10.6754751"><ele>105.0</ele><time>2026-04-04T11:55:27.931Z</time></trkpt><trkpt lat="43.5161279" lon="10.675442"><ele>105.0</ele><time>2026-04-04T11:55:28.931Z</time></trkpt><trkpt lat="43.5162208" lon="10.6754253"><ele>105.0</ele><time>2026-04-04T11:55:29.932Z</time></trkpt><trkpt lat="43.5163124" lon="10.675436"><ele>105.0</ele><time>2026-04-04T11:55:30.931Z</time></trkpt><trkpt lat="43.5164002" lon="10.6754458"><ele>105.0</ele><time>2026-04-04T11:55:31.931Z</time></trkpt><trkpt lat="43.5164961" lon="10.6754506"><ele>105.0</ele><time>2026-04-04T11:55:32.931Z</time></trkpt><trkpt lat="43.5165898" lon="10.6754588"><ele>105.66666666666667</ele><time>2026-04-04T11:55:33.931Z</time></trkpt><trkpt lat="43.5166748" lon="10.6754583"><ele>106.33333333333334</ele><time>2026-04-04T11:55:34.931Z</time></trkpt><trkpt lat="43.5167525" lon="10.6754378"><ele>107.0</ele><time>2026-04-04T11:55:35.932Z</time></trkpt><trkpt lat="43.5168297" lon="10.6753991"><ele>107.66666666666667</ele><time>2026-04-04T11:55:36.931Z</time></trkpt><trkpt lat="43.5168894" lon="10.6753534"><ele>108.33333333333334</ele><time>2026-04-04T11:55:37.931Z</time></trkpt><trkpt lat="43.5169485" lon="10.6752997"><ele>109.0</ele><time>2026-04-04T11:55:38.932Z</time></trkpt><trkpt lat="43.5170128" lon="10.6752409"><ele>112.33333333333334</ele><time>2026-04-04T11:55:39.931Z</time></trkpt><trkpt lat="43.5170853" lon="10.6751741"><ele>115.66666666666667</ele><time>2026-04-04T11:55:40.932Z</time></trkpt><trkpt lat="43.5171532" lon="10.6751063"><ele>119.0</ele><time>2026-04-04T11:55:41.931Z</time></trkpt><trkpt lat="43.5172232" lon="10.6750334"><ele>122.33333333333334</ele><time>2026-04-04T11:55:42.932Z</time></trkpt><trkpt lat="43.5172985" lon="10.6749626"><ele>125.66666666666667</ele><time>2026-04-04T11:55:43.931Z</time></trkpt><trkpt lat="43.5173737" lon="10.6748932"><ele>129.0</ele><time>2026-04-04T11:55:44.931Z</time></trkpt><trkpt lat="43.5174388" lon="10.6748368"><ele>129.0</ele><time>2026-04-04T11:55:45.932Z</time></trkpt><trkpt lat="43.5175284" lon="10.6747995"><ele>129.0</ele><time>2026-04-04T11:55:47.931Z</time></trkpt><trkpt lat="43.5175899" lon="10.6748649"><ele>129.0</ele><time>2026-04-04T11:55:50.931Z</time></trkpt><trkpt lat="43.5176019" lon="10.6749775"><ele>129.0</ele><time>2026-04-04T11:55:52.931Z</time></trkpt><trkpt lat="43.5176017" lon="10.6750647"><ele>129.0</ele><time>2026-04-04T11:55:53.931Z</time></trkpt><trkpt lat="43.5176079" lon="10.6751534"><ele>129.0</ele><time>2026-04-04T11:55:54.931Z</time></trkpt><trkpt lat="43.5176268" lon="10.6752911"><ele>129.6</ele><time>2026-04-04T11:55:56.932Z</time></trkpt><trkpt lat="43.517674" lon="10.6754178"><ele>130.2</ele><time>2026-04-04T11:55:58.932Z</time></trkpt><trkpt lat="43.5177564" lon="10.6754986"><ele>130.79999999999998</ele><time>2026-04-04T11:56:00.931Z</time></trkpt><trkpt lat="43.5178767" lon="10.6755647"><ele>131.4</ele><time>2026-04-04T11:56:02.931Z</time></trkpt><trkpt lat="43.5179352" lon="10.6756015"><ele>132.0</ele><time>2026-04-04T11:56:03.931Z</time></trkpt><trkpt lat="43.518022" lon="10.6756055"><ele>132.0</ele><time>2026-04-04T11:56:04.931Z</time></trkpt><trkpt lat="43.5181134" lon="10.6756202"><ele>132.0</ele><time>2026-04-04T11:56:05.931Z</time></trkpt><trkpt lat="43.5182013" lon="10.6756502"><ele>132.0</ele><time>2026-04-04T11:56:06.932Z</time></trkpt><trkpt lat="43.5182955" lon="10.6756819"><ele>132.0</ele><time>2026-04-04T11:56:07.931Z</time></trkpt><trkpt lat="43.5183888" lon="10.6757058"><ele>132.0</ele><time>2026-04-04T11:56:08.932Z</time></trkpt><trkpt lat="43.5184743" lon="10.6757128"><ele>132.0</ele><time>2026-04-04T11:56:09.932Z</time></trkpt><trkpt lat="43.5185552" lon="10.6757025"><ele>132.0</ele><time>2026-04-04T11:56:10.932Z</time></trkpt><trkpt lat="43.5186317" lon="10.6756802"><ele>132.0</ele><time>2026-04-04T11:56:11.932Z</time></trkpt><trkpt lat="43.5187071" lon="10.6756466"><ele>132.0</ele><time>2026-04-04T11:56:12.931Z</time></trkpt><trkpt lat="43.5187871" lon="10.6756109"><ele>132.0</ele><time>2026-04-04T11:56:13.932Z</time></trkpt><trkpt lat="43.5188697" lon="10.6755761"><ele>132.0</ele><time>2026-04-04T11:56:14.932Z</time></trkpt><trkpt lat="43.518949" lon="10.6755291"><ele>133.0</ele><time>2026-04-04T11:56:15.931Z</time></trkpt><trkpt lat="43.5190247" lon="10.6754664"><ele>134.0</ele><time>2026-04-04T11:56:16.931Z</time></trkpt><trkpt lat="43.5191015" lon="10.6753888"><ele>135.0</ele><time>2026-04-04T11:56:17.932Z</time></trkpt><trkpt lat="43.519176" lon="10.6752988"><ele>136.0</ele><time>2026-04-04T11:56:18.931Z</time></trkpt><trkpt lat="43.5192487" lon="10.675205"><ele>137.0</ele><time>2026-04-04T11:56:19.931Z</time></trkpt><trkpt lat="43.5193155" lon="10.6751227"><ele>139.0</ele><time>2026-04-04T11:56:20.931Z</time></trkpt><trkpt lat="43.5193932" lon="10.6750546"><ele>141.0</ele><time>2026-04-04T11:56:21.931Z</time></trkpt><trkpt lat="43.5194802" lon="10.6750378"><ele>143.0</ele><time>2026-04-04T11:56:22.931Z</time></trkpt><trkpt lat="43.5195576" lon="10.6750377"><ele>145.0</ele><time>2026-04-04T11:56:23.931Z</time></trkpt><trkpt lat="43.5196595" lon="10.6749892"><ele>147.0</ele><time>2026-04-04T11:56:25.931Z</time></trkpt><trkpt lat="43.519715" lon="10.6748629"><ele>147.0</ele><time>2026-04-04T11:56:27.931Z</time></trkpt><trkpt lat="43.5196851" lon="10.6746773"><ele>147.0</ele><time>2026-04-04T11:56:29.931Z</time></trkpt><trkpt lat="43.5196446" lon="10.6745714"><ele>147.0</ele><time>2026-04-04T11:56:30.932Z</time></trkpt><trkpt lat="43.5195986" lon="10.674462"><ele>147.0</ele><time>2026-04-04T11:56:31.932Z</time></trkpt><trkpt lat="43.5195557" lon="10.6743467"><ele>147.0</ele><time>2026-04-04T11:56:32.931Z</time></trkpt><trkpt lat="43.5195212" lon="10.6742393"><ele>147.0</ele><time>2026-04-04T11:56:33.932Z</time></trkpt><trkpt lat="43.5194931" lon="10.6741502"><ele>147.0</ele><time>2026-04-04T11:56:34.931Z</time></trkpt><trkpt lat="43.5194643" lon="10.6739914"><ele>147.0</ele><time>2026-04-04T11:56:36.932Z</time></trkpt><trkpt lat="43.5195634" lon="10.6739462"><ele>147.0</ele><time>2026-04-04T11:56:38.931Z</time></trkpt><trkpt lat="43.5196872" lon="10.6739611"><ele>147.0</ele><time>2026-04-04T11:56:40.932Z</time></trkpt><trkpt lat="43.5197576" lon="10.6739844"><ele>150.39999999999998</ele><time>2026-04-04T11:56:41.932Z</time></trkpt><trkpt lat="43.519858" lon="10.6740168"><ele>153.79999999999998</ele><time>2026-04-04T11:56:43.931Z</time></trkpt><trkpt lat="43.5199479" lon="10.6740651"><ele>157.2</ele><time>2026-04-04T11:56:45.932Z</time></trkpt><trkpt lat="43.5200159" lon="10.6741083"><ele>160.6</ele><time>2026-04-04T11:56:46.931Z</time></trkpt><trkpt lat="43.5201017" lon="10.6741702"><ele>164.0</ele><time>2026-04-04T11:56:47.932Z</time></trkpt><trkpt lat="43.5201967" lon="10.6742452"><ele>164.0</ele><time>2026-04-04T11:56:48.932Z</time></trkpt><trkpt lat="43.5203196" lon="10.6743376"><ele>164.0</ele><time>2026-04-04T11:56:49.931Z</time></trkpt><trkpt lat="43.5204564" lon="10.674441"><ele>164.0</ele><time>2026-04-04T11:56:50.931Z</time></trkpt><trkpt lat="43.5205995" lon="10.6745459"><ele>164.33333333333331</ele><time>2026-04-04T11:56:51.932Z</time></trkpt><trkpt lat="43.5207536" lon="10.6746606"><ele>164.66666666666666</ele><time>2026-04-04T11:56:52.932Z</time></trkpt><trkpt lat="43.5209059" lon="10.6747647"><ele>165.0</ele><time>2026-04-04T11:56:53.931Z</time></trkpt><trkpt lat="43.5210479" lon="10.6748484"><ele>165.0</ele><time>2026-04-04T11:56:54.932Z</time></trkpt><trkpt lat="43.5211817" lon="10.6749246"><ele>165.0</ele><time>2026-04-04T11:56:55.932Z</time></trkpt><trkpt lat="43.5213164" lon="10.6750133"><ele>165.0</ele><time>2026-04-04T11:56:56.931Z</time></trkpt><trkpt lat="43.5214519" lon="10.6751157"><ele>165.0</ele><time>2026-04-04T11:56:57.931Z</time></trkpt><trkpt lat="43.5215748" lon="10.6752281"><ele>163.0</ele><time>2026-04-04T11:56:58.931Z</time></trkpt><trkpt lat="43.5216904" lon="10.675337"><ele>161.0</ele><time>2026-04-04T11:56:59.932Z</time></trkpt><trkpt lat="43.5217971" lon="10.6754432"><ele>159.0</ele><time>2026-04-04T11:57:00.932Z</time></trkpt><trkpt lat="43.5219107" lon="10.6755432"><ele>157.0</ele><time>2026-04-04T11:57:01.931Z</time></trkpt><trkpt lat="43.522" lon="10.6756671"><ele>158.0</ele><time>2026-04-04T11:57:02.932Z</time></trkpt><trkpt lat="43.5220891" lon="10.6757894"><ele>159.0</ele><time>2026-04-04T11:57:03.931Z</time></trkpt><trkpt lat="43.5221517" lon="10.6759302"><ele>160.0</ele><time>2026-04-04T11:57:04.931Z</time></trkpt><trkpt lat="43.5222199" lon="10.6760544"><ele>161.0</ele><time>2026-04-04T11:57:05.931Z</time></trkpt><trkpt lat="43.5222982" lon="10.6761508"><ele>161.0</ele><time>2026-04-04T11:57:06.932Z</time></trkpt><trkpt lat="43.522389" lon="10.6762381"><ele>161.0</ele><time>2026-04-04T11:57:07.932Z</time></trkpt><trkpt lat="43.5224863" lon="10.6763275"><ele>161.0</ele><time>2026-04-04T11:57:08.931Z</time></trkpt><trkpt lat="43.522599" lon="10.67642"><ele>161.0</ele><time>2026-04-04T11:57:09.931Z</time></trkpt><trkpt lat="43.5227159" lon="10.6765071"><ele>161.0</ele><time>2026-04-04T11:57:10.932Z</time></trkpt><trkpt lat="43.5228283" lon="10.6765881"><ele>161.0</ele><time>2026-04-04T11:57:11.932Z</time></trkpt><trkpt lat="43.5229404" lon="10.6766633"><ele>161.0</ele><time>2026-04-04T11:57:12.931Z</time></trkpt><trkpt lat="43.5230515" lon="10.6767317"><ele>161.0</ele><time>2026-04-04T11:57:13.931Z</time></trkpt><trkpt lat="43.5231677" lon="10.6767905"><ele>162.75</ele><time>2026-04-04T11:57:14.931Z</time></trkpt><trkpt lat="43.5232838" lon="10.6768393"><ele>164.5</ele><time>2026-04-04T11:57:15.931Z</time></trkpt><trkpt lat="43.5233897" lon="10.6769032"><ele>166.25</ele><time>2026-04-04T11:57:16.931Z</time></trkpt><trkpt lat="43.5234782" lon="10.6770021"><ele>168.0</ele><time>2026-04-04T11:57:17.931Z</time></trkpt><trkpt lat="43.5235425" lon="10.6771423"><ele>162.33333333333334</ele><time>2026-04-04T11:57:18.931Z</time></trkpt><trkpt lat="43.5235745" lon="10.67733"><ele>156.66666666666669</ele><time>2026-04-04T11:57:19.932Z</time></trkpt><trkpt lat="43.5235962" lon="10.6775405"><ele>151.0</ele><time>2026-04-04T11:57:20.931Z</time></trkpt><trkpt lat="43.5236254" lon="10.6777686"><ele>147.66666666666669</ele><time>2026-04-04T11:57:21.931Z</time></trkpt><trkpt lat="43.5236574" lon="10.678031"><ele>144.33333333333334</ele><time>2026-04-04T11:57:22.932Z</time></trkpt><trkpt lat="43.5236898" lon="10.6783159"><ele>141.0</ele><time>2026-04-04T11:57:23.931Z</time></trkpt><trkpt lat="43.5237237" lon="10.6786184"><ele>147.66666666666666</ele><time>2026-04-04T11:57:24.931Z</time></trkpt><trkpt lat="43.5237537" lon="10.6789072"><ele>154.33333333333331</ele><time>2026-04-04T11:57:25.931Z</time></trkpt><trkpt lat="43.5237783" lon="10.6791811"><ele>161.0</ele><time>2026-04-04T11:57:26.931Z</time></trkpt><trkpt lat="43.5237996" lon="10.6794416"><ele>161.0</ele><time>2026-04-04T11:57:27.932Z</time></trkpt><trkpt lat="43.5238175" lon="10.6796817"><ele>161.0</ele><time>2026-04-04T11:57:28.932Z</time></trkpt><trkpt lat="43.5238428" lon="10.6798846"><ele>161.0</ele><time>2026-04-04T11:57:29.932Z</time></trkpt><trkpt lat="43.5238889" lon="10.680058"><ele>161.0</ele><time>2026-04-04T11:57:30.932Z</time></trkpt><trkpt lat="43.523969" lon="10.6802103"><ele>161.0</ele><time>2026-04-04T11:57:31.931Z</time></trkpt><trkpt lat="43.5240762" lon="10.6803438"><ele>161.0</ele><time>2026-04-04T11:57:32.932Z</time></trkpt><trkpt lat="43.5241935" lon="10.6804818"><ele>161.0</ele><time>2026-04-04T11:57:33.932Z</time></trkpt><trkpt lat="43.5243072" lon="10.6806244"><ele>156.0</ele><time>2026-04-04T11:57:34.932Z</time></trkpt><trkpt lat="43.5243735" lon="10.6808137"><ele>151.0</ele><time>2026-04-04T11:57:35.931Z</time></trkpt><trkpt lat="43.5244304" lon="10.6809991"><ele>146.0</ele><time>2026-04-04T11:57:36.932Z</time></trkpt><trkpt lat="43.5243887" lon="10.6812659"><ele>145.66666666666666</ele><time>2026-04-04T11:57:37.932Z</time></trkpt><trkpt lat="43.5243833" lon="10.6815284"><ele>145.33333333333334</ele><time>2026-04-04T11:57:38.932Z</time></trkpt><trkpt lat="43.5243928" lon="10.6817917"><ele>145.0</ele><time>2026-04-04T11:57:39.931Z</time></trkpt><trkpt lat="43.5243997" lon="10.6820598"><ele>145.0</ele><time>2026-04-04T11:57:40.931Z</time></trkpt><trkpt lat="43.5244123" lon="10.6823062"><ele>145.0</ele><time>2026-04-04T11:57:41.932Z</time></trkpt><trkpt lat="43.5244338" lon="10.6825482"><ele>145.0</ele><time>2026-04-04T11:57:42.931Z</time></trkpt><trkpt lat="43.5244606" lon="10.6827811"><ele>145.0</ele><time>2026-04-04T11:57:43.932Z</time></trkpt><trkpt lat="43.5244884" lon="10.6829935"><ele>145.0</ele><time>2026-04-04T11:57:44.931Z</time></trkpt><trkpt lat="43.5245128" lon="10.6831873"><ele>145.0</ele><time>2026-04-04T11:57:45.932Z</time></trkpt><trkpt lat="43.5245312" lon="10.6833639"><ele>145.0</ele><time>2026-04-04T11:57:46.932Z</time></trkpt><trkpt lat="43.5245429" lon="10.6835114"><ele>144.5</ele><time>2026-04-04T11:57:47.931Z</time></trkpt><trkpt lat="43.5245565" lon="10.6836304"><ele>144.0</ele><time>2026-04-04T11:57:48.932Z</time></trkpt><trkpt lat="43.5245712" lon="10.6837181"><ele>143.5</ele><time>2026-04-04T11:57:49.932Z</time></trkpt><trkpt lat="43.5246007" lon="10.6838025"><ele>143.0</ele><time>2026-04-04T11:57:50.931Z</time></trkpt><trkpt lat="43.5246475" lon="10.6838828"><ele>142.5</ele><time>2026-04-04T11:57:51.932Z</time></trkpt><trkpt lat="43.5247162" lon="10.6839386"><ele>142.0</ele><time>2026-04-04T11:57:52.932Z</time></trkpt><trkpt lat="43.5248033" lon="10.6839606"><ele>144.2</ele><time>2026-04-04T11:57:53.932Z</time></trkpt><trkpt lat="43.524896" lon="10.6839481"><ele>146.39999999999998</ele><time>2026-04-04T11:57:54.931Z</time></trkpt><trkpt lat="43.524999" lon="10.683883"><ele>148.60000000000002</ele><time>2026-04-04T11:57:55.932Z</time></trkpt><trkpt lat="43.5250947" lon="10.6838121"><ele>150.8</ele><time>2026-04-04T11:57:56.931Z</time></trkpt><trkpt lat="43.5251762" lon="10.6837462"><ele>153.0</ele><time>2026-04-04T11:57:57.931Z</time></trkpt><trkpt lat="43.5252529" lon="10.6836914"><ele>153.0</ele><time>2026-04-04T11:57:58.931Z</time></trkpt><trkpt lat="43.5253308" lon="10.683636"><ele>153.0</ele><time>2026-04-04T11:57:59.931Z</time></trkpt><trkpt lat="43.5254087" lon="10.6835797"><ele>153.0</ele><time>2026-04-04T11:58:00.932Z</time></trkpt><trkpt lat="43.5254846" lon="10.6835328"><ele>153.0</ele><time>2026-04-04T11:58:01.931Z</time></trkpt><trkpt lat="43.525549" lon="10.683498"><ele>153.0</ele><time>2026-04-04T11:58:02.931Z</time></trkpt><trkpt lat="43.5256293" lon="10.6834663"><ele>153.0</ele><time>2026-04-04T11:58:04.932Z</time></trkpt><trkpt lat="43.5256535" lon="10.6833694"><ele>153.0</ele><time>2026-04-04T11:58:07.932Z</time></trkpt><trkpt lat="43.5255722" lon="10.6833518"><ele>153.0</ele><time>2026-04-04T11:58:09.931Z</time></trkpt><trkpt lat="43.5255252" lon="10.6834225"><ele>153.0</ele><time>2026-04-04T11:58:10.932Z</time></trkpt><trkpt lat="43.5254554" lon="10.683496"><ele>153.0</ele><time>2026-04-04T11:58:11.932Z</time></trkpt><trkpt lat="43.5253722" lon="10.6835598"><ele>153.0</ele><time>2026-04-04T11:58:12.931Z</time></trkpt><trkpt lat="43.5252822" lon="10.6836251"><ele>153.0</ele><time>2026-04-04T11:58:13.931Z</time></trkpt><trkpt lat="43.5251842" lon="10.6836994"><ele>153.0</ele><time>2026-04-04T11:58:14.931Z</time></trkpt><trkpt lat="43.5250877" lon="10.683773"><ele>153.0</ele><time>2026-04-04T11:58:15.931Z</time></trkpt><trkpt lat="43.5249969" lon="10.6838323"><ele>153.0</ele><time>2026-04-04T11:58:16.932Z</time></trkpt><trkpt lat="43.5249071" lon="10.6838791"><ele>153.0</ele><time>2026-04-04T11:58:17.931Z</time></trkpt><trkpt lat="43.5248206" lon="10.683923"><ele>153.0</ele><time>2026-04-04T11:58:18.932Z</time></trkpt><trkpt lat="43.5247582" lon="10.6839023"><ele>153.0</ele><time>2026-04-04T11:58:19.931Z</time></trkpt><trkpt lat="43.5246842" lon="10.6838545"><ele>153.0</ele><time>2026-04-04T11:58:21.931Z</time></trkpt><trkpt lat="43.5245878" lon="10.6839003"><ele>153.0</ele><time>2026-04-04T11:58:23.931Z</time></trkpt><trkpt lat="43.5245428" lon="10.6839814"><ele>153.0</ele><time>2026-04-04T11:58:24.931Z</time></trkpt><trkpt lat="43.5245179" lon="10.6840962"><ele>153.0</ele><time>2026-04-04T11:58:25.932Z</time></trkpt><trkpt lat="43.5245147" lon="10.6842095"><ele>153.0</ele><time>2026-04-04T11:58:26.931Z</time></trkpt><trkpt lat="43.5245254" lon="10.6843074"><ele>151.4</ele><time>2026-04-04T11:58:27.931Z</time></trkpt><trkpt lat="43.5245623" lon="10.6844"><ele>149.8</ele><time>2026-04-04T11:58:28.932Z</time></trkpt><trkpt lat="43.5246013" lon="10.6844869"><ele>148.2</ele><time>2026-04-04T11:58:29.931Z</time></trkpt><trkpt lat="43.5247194" lon="10.6845099"><ele>146.6</ele><time>2026-04-04T11:58:30.932Z</time></trkpt><trkpt lat="43.5248376" lon="10.6845274"><ele>145.0</ele><time>2026-04-04T11:58:31.931Z</time></trkpt><trkpt lat="43.5249471" lon="10.6845609"><ele>145.0</ele><time>2026-04-04T11:58:32.932Z</time></trkpt><trkpt lat="43.5250505" lon="10.6846119"><ele>145.0</ele><time>2026-04-04T11:58:33.932Z</time></trkpt><trkpt lat="43.5251431" lon="10.6846888"><ele>145.0</ele><time>2026-04-04T11:58:34.932Z</time></trkpt><trkpt lat="43.5252148" lon="10.6847857"><ele>145.0</ele><time>2026-04-04T11:58:35.932Z</time></trkpt><trkpt lat="43.5252727" lon="10.684903"><ele>145.0</ele><time>2026-04-04T11:58:36.931Z</time></trkpt><trkpt lat="43.5253185" lon="10.6850545"><ele>145.0</ele><time>2026-04-04T11:58:37.931Z</time></trkpt><trkpt lat="43.5253536" lon="10.6852118"><ele>145.0</ele><time>2026-04-04T11:58:38.931Z</time></trkpt><trkpt lat="43.5253915" lon="10.6853864"><ele>145.0</ele><time>2026-04-04T11:58:39.931Z</time></trkpt><trkpt lat="43.5254318" lon="10.6855561"><ele>145.0</ele><time>2026-04-04T11:58:40.931Z</time></trkpt><trkpt lat="43.5254722" lon="10.6857254"><ele>146.0</ele><time>2026-04-04T11:58:41.932Z</time></trkpt><trkpt lat="43.525511" lon="10.6858902"><ele>147.0</ele><time>2026-04-04T11:58:42.932Z</time></trkpt><trkpt lat="43.525549" lon="10.6860514"><ele>148.0</ele><time>2026-04-04T11:58:43.932Z</time></trkpt><trkpt lat="43.5255786" lon="10.6862203"><ele>149.0</ele><time>2026-04-04T11:58:44.931Z</time></trkpt><trkpt lat="43.5255922" lon="10.686387"><ele>146.0</ele><time>2026-04-04T11:58:45.932Z</time></trkpt><trkpt lat="43.5255959" lon="10.6865517"><ele>143.0</ele><time>2026-04-04T11:58:46.931Z</time></trkpt><trkpt lat="43.5255928" lon="10.6867099"><ele>140.0</ele><time>2026-04-04T11:58:47.932Z</time></trkpt><trkpt lat="43.5255787" lon="10.6868718"><ele>137.0</ele><time>2026-04-04T11:58:48.931Z</time></trkpt><trkpt lat="43.5255493" lon="10.6870344"><ele>135.25</ele><time>2026-04-04T11:58:49.931Z</time></trkpt><trkpt lat="43.5255103" lon="10.6872007"><ele>133.5</ele><time>2026-04-04T11:58:50.931Z</time></trkpt><trkpt lat="43.5254611" lon="10.6873724"><ele>131.75</ele><time>2026-04-04T11:58:51.931Z</time></trkpt><trkpt lat="43.5254012" lon="10.6875531"><ele>130.0</ele><time>2026-04-04T11:58:52.931Z</time></trkpt><trkpt lat="43.5253436" lon="10.6877449"><ele>127.75</ele><time>2026-04-04T11:58:53.932Z</time></trkpt><trkpt lat="43.5252926" lon="10.6879369"><ele>125.5</ele><time>2026-04-04T11:58:54.932Z</time></trkpt><trkpt lat="43.5252441" lon="10.6881286"><ele>123.25</ele><time>2026-04-04T11:58:55.931Z</time></trkpt><trkpt lat="43.5251943" lon="10.6883236"><ele>121.0</ele><time>2026-04-04T11:58:56.932Z</time></trkpt><trkpt lat="43.5251761" lon="10.6885453"><ele>120.66666666666667</ele><time>2026-04-04T11:58:57.931Z</time></trkpt><trkpt lat="43.5251543" lon="10.6887636"><ele>120.33333333333334</ele><time>2026-04-04T11:58:58.931Z</time></trkpt><trkpt lat="43.5251234" lon="10.6889715"><ele>120.0</ele><time>2026-04-04T11:58:59.931Z</time></trkpt><trkpt lat="43.5250926" lon="10.6891832"><ele>120.0</ele><time>2026-04-04T11:59:00.931Z</time></trkpt><trkpt lat="43.5250715" lon="10.689366"><ele>120.0</ele><time>2026-04-04T11:59:01.932Z</time></trkpt><trkpt lat="43.5250437" lon="10.689554"><ele>120.0</ele><time>2026-04-04T11:59:02.931Z</time></trkpt><trkpt lat="43.525006" lon="10.689725"><ele>120.0</ele><time>2026-04-04T11:59:03.932Z</time></trkpt><trkpt lat="43.5249957" lon="10.6899089"><ele>120.0</ele><time>2026-04-04T11:59:04.932Z</time></trkpt><trkpt lat="43.5249874" lon="10.6900895"><ele>120.0</ele><time>2026-04-04T11:59:05.932Z</time></trkpt><trkpt lat="43.5250123" lon="10.6902888"><ele>120.0</ele><time>2026-04-04T11:59:06.931Z</time></trkpt><trkpt lat="43.525047" lon="10.690482"><ele>120.0</ele><time>2026-04-04T11:59:07.931Z</time></trkpt><trkpt lat="43.5250701" lon="10.6906668"><ele>119.0</ele><time>2026-04-04T11:59:08.931Z</time></trkpt><trkpt lat="43.5250948" lon="10.6908465"><ele>118.0</ele><time>2026-04-04T11:59:09.931Z</time></trkpt><trkpt lat="43.525116" lon="10.6910183"><ele>117.0</ele><time>2026-04-04T11:59:10.931Z</time></trkpt><trkpt lat="43.5251399" lon="10.6911841"><ele>116.0</ele><time>2026-04-04T11:59:11.932Z</time></trkpt><trkpt lat="43.5251741" lon="10.6913531"><ele>114.5</ele><time>2026-04-04T11:59:12.932Z</time></trkpt><trkpt lat="43.5252199" lon="10.6915321"><ele>113.0</ele><time>2026-04-04T11:59:13.931Z</time></trkpt><trkpt lat="43.5252741" lon="10.6917251"><ele>111.5</ele><time>2026-04-04T11:59:14.932Z</time></trkpt><trkpt lat="43.5253271" lon="10.6919334"><ele>110.0</ele><time>2026-04-04T11:59:15.931Z</time></trkpt><trkpt lat="43.5253664" lon="10.692156"><ele>109.75</ele><time>2026-04-04T11:59:16.932Z</time></trkpt><trkpt lat="43.5253892" lon="10.6923721"><ele>109.5</ele><time>2026-04-04T11:59:17.931Z</time></trkpt><trkpt lat="43.5254052" lon="10.6925766"><ele>109.25</ele><time>2026-04-04T11:59:18.931Z</time></trkpt><trkpt lat="43.5254157" lon="10.6927684"><ele>109.0</ele><time>2026-04-04T11:59:19.931Z</time></trkpt><trkpt lat="43.5254159" lon="10.6929525"><ele>109.0</ele><time>2026-04-04T11:59:20.931Z</time></trkpt><trkpt lat="43.5254177" lon="10.693124"><ele>109.0</ele><time>2026-04-04T11:59:21.931Z</time></trkpt><trkpt lat="43.5254345" lon="10.693291"><ele>109.0</ele><time>2026-04-04T11:59:22.932Z</time></trkpt><trkpt lat="43.5254823" lon="10.6934607"><ele>109.0</ele><time>2026-04-04T11:59:23.932Z</time></trkpt><trkpt lat="43.5255578" lon="10.6936315"><ele>108.5</ele><time>2026-04-04T11:59:24.931Z</time></trkpt><trkpt lat="43.5256403" lon="10.6938065"><ele>108.0</ele><time>2026-04-04T11:59:25.931Z</time></trkpt><trkpt lat="43.5257202" lon="10.6939806"><ele>107.5</ele><time>2026-04-04T11:59:26.931Z</time></trkpt><trkpt lat="43.525786" lon="10.6941533"><ele>107.0</ele><time>2026-04-04T11:59:27.931Z</time></trkpt><trkpt lat="43.5258301" lon="10.6943315"><ele>106.5</ele><time>2026-04-04T11:59:28.932Z</time></trkpt><trkpt lat="43.5258561" lon="10.6945158"><ele>106.0</ele><time>2026-04-04T11:59:29.931Z</time></trkpt><trkpt lat="43.5258635" lon="10.6947021"><ele>105.5</ele><time>2026-04-04T11:59:30.931Z</time></trkpt><trkpt lat="43.5258417" lon="10.6948826"><ele>105.0</ele><time>2026-04-04T11:59:31.932Z</time></trkpt><trkpt lat="43.5257946" lon="10.6950397"><ele>105.0</ele><time>2026-04-04T11:59:32.932Z</time></trkpt><trkpt lat="43.5257342" lon="10.6951805"><ele>105.0</ele><time>2026-04-04T11:59:33.931Z</time></trkpt><trkpt lat="43.5256713" lon="10.6952973"><ele>105.0</ele><time>2026-04-04T11:59:34.931Z</time></trkpt><trkpt lat="43.5256099" lon="10.6954164"><ele>105.0</ele><time>2026-04-04T11:59:35.931Z</time></trkpt><trkpt lat="43.5256412" lon="10.6956137"><ele>103.75</ele><time>2026-04-04T11:59:36.932Z</time></trkpt><trkpt lat="43.5256542" lon="10.6957844"><ele>102.5</ele><time>2026-04-04T11:59:37.932Z</time></trkpt><trkpt lat="43.5257074" lon="10.6959632"><ele>101.25</ele><time>2026-04-04T11:59:38.931Z</time></trkpt><trkpt lat="43.5257337" lon="10.696151"><ele>100.0</ele><time>2026-04-04T11:59:39.931Z</time></trkpt><trkpt lat="43.525755" lon="10.6963467"><ele>98.75</ele><time>2026-04-04T11:59:40.931Z</time></trkpt><trkpt lat="43.5257303" lon="10.6965491"><ele>97.5</ele><time>2026-04-04T11:59:41.932Z</time></trkpt><trkpt lat="43.525703" lon="10.6967446"><ele>96.25</ele><time>2026-04-04T11:59:42.932Z</time></trkpt><trkpt lat="43.5256707" lon="10.6969377"><ele>95.0</ele><time>2026-04-04T11:59:43.931Z</time></trkpt><trkpt lat="43.5256165" lon="10.6971151"><ele>94.5</ele><time>2026-04-04T11:59:44.932Z</time></trkpt><trkpt lat="43.5255436" lon="10.6972701"><ele>94.0</ele><time>2026-04-04T11:59:45.932Z</time></trkpt><trkpt lat="43.525472" lon="10.6974183"><ele>93.5</ele><time>2026-04-04T11:59:46.931Z</time></trkpt><trkpt lat="43.5254194" lon="10.6975796"><ele>93.0</ele><time>2026-04-04T11:59:47.931Z</time></trkpt><trkpt lat="43.5253978" lon="10.6977624"><ele>92.0</ele><time>2026-04-04T11:59:48.931Z</time></trkpt><trkpt lat="43.5254067" lon="10.6979486"><ele>91.0</ele><time>2026-04-04T11:59:49.931Z</time></trkpt><trkpt lat="43.5254413" lon="10.6981349"><ele>90.0</ele><time>2026-04-04T11:59:50.932Z</time></trkpt><trkpt lat="43.5254844" lon="10.698317"><ele>89.0</ele><time>2026-04-04T11:59:51.931Z</time></trkpt><trkpt lat="43.5255142" lon="10.6985075"><ele>88.25</ele><time>2026-04-04T11:59:52.932Z</time></trkpt><trkpt lat="43.5255157" lon="10.6987053"><ele>87.5</ele><time>2026-04-04T11:59:53.931Z</time></trkpt><trkpt lat="43.525522" lon="10.6988978"><ele>86.75</ele><time>2026-04-04T11:59:54.932Z</time></trkpt><trkpt lat="43.5254609" lon="10.6990794"><ele>86.0</ele><time>2026-04-04T11:59:55.931Z</time></trkpt><trkpt lat="43.5253915" lon="10.6992369"><ele>80.75</ele><time>2026-04-04T11:59:56.932Z</time></trkpt><trkpt lat="43.5253346" lon="10.6993706"><ele>75.5</ele><time>2026-04-04T11:59:57.932Z</time></trkpt><trkpt lat="43.5252992" lon="10.6995085"><ele>70.25</ele><time>2026-04-04T11:59:58.932Z</time></trkpt><trkpt lat="43.5252719" lon="10.6996471"><ele>65.0</ele><time>2026-04-04T11:59:59.932Z</time></trkpt><trkpt lat="43.5253392" lon="10.699826"><ele>65.25</ele><time>2026-04-04T12:00:00.931Z</time></trkpt><trkpt lat="43.5254055" lon="10.6999987"><ele>65.5</ele><time>2026-04-04T12:00:01.931Z</time></trkpt><trkpt lat="43.5254657" lon="10.700174"><ele>65.75</ele><time>2026-04-04T12:00:02.931Z</time></trkpt><trkpt lat="43.5255263" lon="10.7003408"><ele>66.0</ele><time>2026-04-04T12:00:03.931Z</time></trkpt><trkpt lat="43.5255836" lon="10.7005111"><ele>66.0</ele><time>2026-04-04T12:00:04.931Z</time></trkpt><trkpt lat="43.5256365" lon="10.7006789"><ele>66.0</ele><time>2026-04-04T12:00:05.931Z</time></trkpt><trkpt lat="43.5256827" lon="10.700852"><ele>66.0</ele><time>2026-04-04T12:00:06.931Z</time></trkpt><trkpt lat="43.5257186" lon="10.701027"><ele>66.0</ele><time>2026-04-04T12:00:07.931Z</time></trkpt><trkpt lat="43.5257361" lon="10.7011982"><ele>64.5</ele><time>2026-04-04T12:00:08.931Z</time></trkpt><trkpt lat="43.5257427" lon="10.7013702"><ele>63.0</ele><time>2026-04-04T12:00:09.932Z</time></trkpt><trkpt lat="43.5257443" lon="10.7015377"><ele>61.5</ele><time>2026-04-04T12:00:10.931Z</time></trkpt><trkpt lat="43.525744" lon="10.701702"><ele>60.0</ele><time>2026-04-04T12:00:11.931Z</time></trkpt><trkpt lat="43.5257485" lon="10.7018647"><ele>59.4</ele><time>2026-04-04T12:00:12.931Z</time></trkpt><trkpt lat="43.5257693" lon="10.7020191"><ele>58.8</ele><time>2026-04-04T12:00:13.931Z</time></trkpt><trkpt lat="43.5258106" lon="10.7021651"><ele>58.2</ele><time>2026-04-04T12:00:14.931Z</time></trkpt><trkpt lat="43.5258567" lon="10.7023082"><ele>57.6</ele><time>2026-04-04T12:00:15.932Z</time></trkpt><trkpt lat="43.525898" lon="10.7024355"><ele>57.0</ele><time>2026-04-04T12:00:16.932Z</time></trkpt><trkpt lat="43.525931" lon="10.7025406"><ele>57.0</ele><time>2026-04-04T12:00:17.931Z</time></trkpt><trkpt lat="43.5259537" lon="10.7026233"><ele>57.0</ele><time>2026-04-04T12:00:18.931Z</time></trkpt><trkpt lat="43.5259959" lon="10.7027087"><ele>57.0</ele><time>2026-04-04T12:00:21.931Z</time></trkpt><trkpt lat="43.5261079" lon="10.702677"><ele>57.0</ele><time>2026-04-04T12:00:23.932Z</time></trkpt><trkpt lat="43.5261666" lon="10.7026272"><ele>57.0</ele><time>2026-04-04T12:00:24.932Z</time></trkpt><trkpt lat="43.5262367" lon="10.7025639"><ele>57.0</ele><time>2026-04-04T12:00:25.932Z</time></trkpt><trkpt lat="43.526328" lon="10.7024964"><ele>56.75</ele><time>2026-04-04T12:00:26.931Z</time></trkpt><trkpt lat="43.5264356" lon="10.7024272"><ele>56.5</ele><time>2026-04-04T12:00:27.932Z</time></trkpt><trkpt lat="43.5265514" lon="10.7023686"><ele>56.25</ele><time>2026-04-04T12:00:28.931Z</time></trkpt><trkpt lat="43.5266804" lon="10.7023193"><ele>56.0</ele><time>2026-04-04T12:00:29.931Z</time></trkpt><trkpt lat="43.526823" lon="10.7022895"><ele>56.0</ele><time>2026-04-04T12:00:30.931Z</time></trkpt><trkpt lat="43.5269792" lon="10.7022787"><ele>56.0</ele><time>2026-04-04T12:00:31.932Z</time></trkpt><trkpt lat="43.5271444" lon="10.7022741"><ele>56.0</ele><time>2026-04-04T12:00:32.931Z</time></trkpt><trkpt lat="43.5273134" lon="10.7022697"><ele>56.0</ele><time>2026-04-04T12:00:33.932Z</time></trkpt><trkpt lat="43.5274856" lon="10.7022632"><ele>56.0</ele><time>2026-04-04T12:00:34.931Z</time></trkpt><trkpt lat="43.5276677" lon="10.7022572"><ele>56.0</ele><time>2026-04-04T12:00:35.931Z</time></trkpt><trkpt lat="43.5278357" lon="10.702261"><ele>56.66666666666667</ele><time>2026-04-04T12:00:36.931Z</time></trkpt><trkpt lat="43.5280268" lon="10.7022514"><ele>57.33333333333333</ele><time>2026-04-04T12:00:37.932Z</time></trkpt><trkpt lat="43.5282219" lon="10.7022382"><ele>58.0</ele><time>2026-04-04T12:00:38.931Z</time></trkpt><trkpt lat="43.528413" lon="10.7022262"><ele>58.0</ele><time>2026-04-04T12:00:39.931Z</time></trkpt><trkpt lat="43.5286001" lon="10.7022218"><ele>58.0</ele><time>2026-04-04T12:00:40.932Z</time></trkpt><trkpt lat="43.5287858" lon="10.7022195"><ele>58.0</ele><time>2026-04-04T12:00:41.932Z</time></trkpt><trkpt lat="43.5289718" lon="10.7022193"><ele>57.0</ele><time>2026-04-04T12:00:42.932Z</time></trkpt><trkpt lat="43.5291534" lon="10.7022058"><ele>56.0</ele><time>2026-04-04T12:00:43.931Z</time></trkpt><trkpt lat="43.5293369" lon="10.7021883"><ele>55.0</ele><time>2026-04-04T12:00:44.932Z</time></trkpt><trkpt lat="43.5295248" lon="10.7021677"><ele>54.666666666666664</ele><time>2026-04-04T12:00:45.932Z</time></trkpt><trkpt lat="43.5297172" lon="10.7021435"><ele>54.33333333333333</ele><time>2026-04-04T12:00:46.931Z</time></trkpt><trkpt lat="43.5299126" lon="10.7021148"><ele>54.0</ele><time>2026-04-04T12:00:47.932Z</time></trkpt><trkpt lat="43.5301099" lon="10.7020897"><ele>54.0</ele><time>2026-04-04T12:00:48.932Z</time></trkpt><trkpt lat="43.5303154" lon="10.7020588"><ele>54.0</ele><time>2026-04-04T12:00:49.932Z</time></trkpt><trkpt lat="43.5305228" lon="10.7020298"><ele>54.0</ele><time>2026-04-04T12:00:50.932Z</time></trkpt><trkpt lat="43.5307281" lon="10.7020019"><ele>54.33333333333333</ele><time>2026-04-04T12:00:51.931Z</time></trkpt><trkpt lat="43.5309413" lon="10.7019823"><ele>54.666666666666664</ele><time>2026-04-04T12:00:52.931Z</time></trkpt><trkpt lat="43.5311478" lon="10.7019445"><ele>55.0</ele><time>2026-04-04T12:00:53.931Z</time></trkpt><trkpt lat="43.5313511" lon="10.7019045"><ele>55.0</ele><time>2026-04-04T12:00:54.932Z</time></trkpt><trkpt lat="43.5315579" lon="10.7018597"><ele>55.0</ele><time>2026-04-04T12:00:55.932Z</time></trkpt><trkpt lat="43.5317619" lon="10.7018143"><ele>55.0</ele><time>2026-04-04T12:00:56.931Z</time></trkpt><trkpt lat="43.5319642" lon="10.7017738"><ele>55.0</ele><time>2026-04-04T12:00:57.932Z</time></trkpt><trkpt lat="43.5321701" lon="10.7017275"><ele>55.0</ele><time>2026-04-04T12:00:58.931Z</time></trkpt><trkpt lat="43.5323733" lon="10.7016902"><ele>55.0</ele><time>2026-04-04T12:00:59.931Z</time></trkpt><trkpt lat="43.5325772" lon="10.7016519"><ele>55.0</ele><time>2026-04-04T12:01:00.931Z</time></trkpt><trkpt lat="43.5327812" lon="10.7016056"><ele>55.0</ele><time>2026-04-04T12:01:01.932Z</time></trkpt><trkpt lat="43.5329829" lon="10.701562"><ele>55.0</ele><time>2026-04-04T12:01:02.932Z</time></trkpt><trkpt lat="43.5331844" lon="10.7015185"><ele>55.33333333333333</ele><time>2026-04-04T12:01:03.931Z</time></trkpt><trkpt lat="43.5333876" lon="10.7014775"><ele>55.66666666666667</ele><time>2026-04-04T12:01:04.932Z</time></trkpt><trkpt lat="43.5335898" lon="10.701434"><ele>56.0</ele><time>2026-04-04T12:01:05.931Z</time></trkpt><trkpt lat="43.5337923" lon="10.7013897"><ele>56.66666666666667</ele><time>2026-04-04T12:01:06.932Z</time></trkpt><trkpt lat="43.533994" lon="10.7013538"><ele>57.33333333333333</ele><time>2026-04-04T12:01:07.932Z</time></trkpt><trkpt lat="43.5341958" lon="10.7013159"><ele>58.0</ele><time>2026-04-04T12:01:08.932Z</time></trkpt><trkpt lat="43.5343976" lon="10.7012655"><ele>57.33333333333333</ele><time>2026-04-04T12:01:09.932Z</time></trkpt><trkpt lat="43.5346009" lon="10.7012184"><ele>56.66666666666667</ele><time>2026-04-04T12:01:10.931Z</time></trkpt><trkpt lat="43.5348061" lon="10.7011752"><ele>56.0</ele><time>2026-04-04T12:01:11.932Z</time></trkpt><trkpt lat="43.5350103" lon="10.7011326"><ele>56.0</ele><time>2026-04-04T12:01:12.931Z</time></trkpt><trkpt lat="43.5352161" lon="10.7010927"><ele>56.0</ele><time>2026-04-04T12:01:13.932Z</time></trkpt><trkpt lat="43.5354096" lon="10.7010597"><ele>56.0</ele><time>2026-04-04T12:01:14.932Z</time></trkpt><trkpt lat="43.5355915" lon="10.7010212"><ele>56.333333333333336</ele><time>2026-04-04T12:01:15.932Z</time></trkpt><trkpt lat="43.5357655" lon="10.7009834"><ele>56.66666666666667</ele><time>2026-04-04T12:01:16.932Z</time></trkpt><trkpt lat="43.5359421" lon="10.7009467"><ele>57.0</ele><time>2026-04-04T12:01:17.932Z</time></trkpt><trkpt lat="43.5361189" lon="10.7009083"><ele>56.33333333333333</ele><time>2026-04-04T12:01:18.931Z</time></trkpt><trkpt lat="43.5362946" lon="10.7008673"><ele>55.666666666666664</ele><time>2026-04-04T12:01:19.932Z</time></trkpt><trkpt lat="43.536473" lon="10.7008299"><ele>55.0</ele><time>2026-04-04T12:01:20.932Z</time></trkpt><trkpt lat="43.5366519" lon="10.7007931"><ele>55.0</ele><time>2026-04-04T12:01:21.931Z</time></trkpt><trkpt lat="43.5368236" lon="10.7007567"><ele>55.0</ele><time>2026-04-04T12:01:22.931Z</time></trkpt><trkpt lat="43.5369943" lon="10.7007208"><ele>55.0</ele><time>2026-04-04T12:01:23.932Z</time></trkpt><trkpt lat="43.5371676" lon="10.7006841"><ele>55.666666666666664</ele><time>2026-04-04T12:01:24.932Z</time></trkpt><trkpt lat="43.5373385" lon="10.7006498"><ele>56.33333333333333</ele><time>2026-04-04T12:01:25.931Z</time></trkpt><trkpt lat="43.5375092" lon="10.700619"><ele>57.0</ele><time>2026-04-04T12:01:26.931Z</time></trkpt><trkpt lat="43.5376812" lon="10.7005929"><ele>57.0</ele><time>2026-04-04T12:01:27.932Z</time></trkpt><trkpt lat="43.5378547" lon="10.7005665"><ele>57.0</ele><time>2026-04-04T12:01:28.932Z</time></trkpt><trkpt lat="43.5380251" lon="10.7005454"><ele>57.0</ele><time>2026-04-04T12:01:29.931Z</time></trkpt><trkpt lat="43.5381968" lon="10.7005228"><ele>57.0</ele><time>2026-04-04T12:01:30.931Z</time></trkpt><trkpt lat="43.5383691" lon="10.7004983"><ele>57.0</ele><time>2026-04-04T12:01:31.932Z</time></trkpt><trkpt lat="43.5385451" lon="10.7004799"><ele>57.0</ele><time>2026-04-04T12:01:32.931Z</time></trkpt><trkpt lat="43.5387163" lon="10.7004612"><ele>56.66666666666667</ele><time>2026-04-04T12:01:33.931Z</time></trkpt><trkpt lat="43.5388865" lon="10.700441"><ele>56.333333333333336</ele><time>2026-04-04T12:01:34.932Z</time></trkpt><trkpt lat="43.5390571" lon="10.7004202"><ele>56.0</ele><time>2026-04-04T12:01:35.932Z</time></trkpt><trkpt lat="43.5392272" lon="10.7004022"><ele>56.0</ele><time>2026-04-04T12:01:36.931Z</time></trkpt><trkpt lat="43.5393899" lon="10.7003816"><ele>56.0</ele><time>2026-04-04T12:01:37.931Z</time></trkpt><trkpt lat="43.5395452" lon="10.7003611"><ele>56.0</ele><time>2026-04-04T12:01:38.931Z</time></trkpt><trkpt lat="43.5396929" lon="10.700342"><ele>56.25</ele><time>2026-04-04T12:01:39.932Z</time></trkpt><trkpt lat="43.5398316" lon="10.7003222"><ele>56.5</ele><time>2026-04-04T12:01:40.932Z</time></trkpt><trkpt lat="43.5399679" lon="10.7003041"><ele>56.75</ele><time>2026-04-04T12:01:41.931Z</time></trkpt><trkpt lat="43.5401059" lon="10.7002851"><ele>57.0</ele><time>2026-04-04T12:01:42.931Z</time></trkpt><trkpt lat="43.5402452" lon="10.7002647"><ele>57.25</ele><time>2026-04-04T12:01:43.931Z</time></trkpt><trkpt lat="43.5403833" lon="10.7002464"><ele>57.5</ele><time>2026-04-04T12:01:44.932Z</time></trkpt><trkpt lat="43.5405225" lon="10.70023"><ele>57.75</ele><time>2026-04-04T12:01:45.931Z</time></trkpt><trkpt lat="43.5406576" lon="10.7002079"><ele>58.0</ele><time>2026-04-04T12:01:46.932Z</time></trkpt><trkpt lat="43.5407866" lon="10.7001883"><ele>58.0</ele><time>2026-04-04T12:01:47.931Z</time></trkpt><trkpt lat="43.5409157" lon="10.7001719"><ele>58.0</ele><time>2026-04-04T12:01:48.932Z</time></trkpt><trkpt lat="43.5410282" lon="10.7001549"><ele>58.0</ele><time>2026-04-04T12:01:49.932Z</time></trkpt><trkpt lat="43.5411379" lon="10.7001346"><ele>58.0</ele><time>2026-04-04T12:01:50.931Z</time></trkpt><trkpt lat="43.5412447" lon="10.7001179"><ele>57.599999999999994</ele><time>2026-04-04T12:01:51.932Z</time></trkpt><trkpt lat="43.5413448" lon="10.7001021"><ele>57.199999999999996</ele><time>2026-04-04T12:01:52.931Z</time></trkpt><trkpt lat="43.5414383" lon="10.7000866"><ele>56.8</ele><time>2026-04-04T12:01:53.932Z</time></trkpt><trkpt lat="43.5415271" lon="10.7000854"><ele>56.4</ele><time>2026-04-04T12:01:54.931Z</time></trkpt><trkpt lat="43.5416125" lon="10.7001164"><ele>56.0</ele><time>2026-04-04T12:01:55.931Z</time></trkpt><trkpt lat="43.5416838" lon="10.7001595"><ele>56.0</ele><time>2026-04-04T12:01:56.931Z</time></trkpt><trkpt lat="43.5417372" lon="10.7002776"><ele>56.0</ele><time>2026-04-04T12:01:57.932Z</time></trkpt><trkpt lat="43.5417665" lon="10.7004225"><ele>56.0</ele><time>2026-04-04T12:01:58.932Z</time></trkpt><trkpt lat="43.5417837" lon="10.7005801"><ele>56.0</ele><time>2026-04-04T12:01:59.931Z</time></trkpt><trkpt lat="43.5418064" lon="10.7007491"><ele>56.0</ele><time>2026-04-04T12:02:00.931Z</time></trkpt><trkpt lat="43.5418302" lon="10.7009353"><ele>56.0</ele><time>2026-04-04T12:02:01.932Z</time></trkpt><trkpt lat="43.541856" lon="10.7011306"><ele>56.0</ele><time>2026-04-04T12:02:02.932Z</time></trkpt><trkpt lat="43.5418797" lon="10.7013282"><ele>56.0</ele><time>2026-04-04T12:02:03.931Z</time></trkpt><trkpt lat="43.5419082" lon="10.7015318"><ele>55.333333333333336</ele><time>2026-04-04T12:02:04.931Z</time></trkpt><trkpt lat="43.5419369" lon="10.7017475"><ele>54.66666666666667</ele><time>2026-04-04T12:02:05.932Z</time></trkpt><trkpt lat="43.5419656" lon="10.7019643"><ele>54.0</ele><time>2026-04-04T12:02:06.932Z</time></trkpt><trkpt lat="43.5419971" lon="10.7021933"><ele>54.0</ele><time>2026-04-04T12:02:07.931Z</time></trkpt><trkpt lat="43.542026" lon="10.7024137"><ele>54.0</ele><time>2026-04-04T12:02:08.931Z</time></trkpt><trkpt lat="43.5420566" lon="10.7026461"><ele>54.0</ele><time>2026-04-04T12:02:09.931Z</time></trkpt><trkpt lat="43.5420888" lon="10.7028735"><ele>53.0</ele><time>2026-04-04T12:02:10.931Z</time></trkpt><trkpt lat="43.5421223" lon="10.7031064"><ele>52.0</ele><time>2026-04-04T12:02:11.932Z</time></trkpt><trkpt lat="43.5421537" lon="10.7033365"><ele>51.0</ele><time>2026-04-04T12:02:12.931Z</time></trkpt><trkpt lat="43.5421882" lon="10.7035696"><ele>51.0</ele><time>2026-04-04T12:02:13.932Z</time></trkpt><trkpt lat="43.5422215" lon="10.7037994"><ele>51.0</ele><time>2026-04-04T12:02:14.931Z</time></trkpt><trkpt lat="43.5422543" lon="10.7040249"><ele>51.0</ele><time>2026-04-04T12:02:15.931Z</time></trkpt><trkpt lat="43.5422886" lon="10.7042551"><ele>50.33333333333333</ele><time>2026-04-04T12:02:16.931Z</time></trkpt><trkpt lat="43.5423182" lon="10.704485"><ele>49.666666666666664</ele><time>2026-04-04T12:02:17.931Z</time></trkpt><trkpt lat="43.542347" lon="10.7047179"><ele>49.0</ele><time>2026-04-04T12:02:18.931Z</time></trkpt><trkpt lat="43.5423769" lon="10.7049537"><ele>49.0</ele><time>2026-04-04T12:02:19.931Z</time></trkpt><trkpt lat="43.5424046" lon="10.7051877"><ele>49.0</ele><time>2026-04-04T12:02:20.932Z</time></trkpt><trkpt lat="43.5424344" lon="10.7054216"><ele>49.0</ele><time>2026-04-04T12:02:21.931Z</time></trkpt><trkpt lat="43.542466" lon="10.7056548"><ele>49.33333333333333</ele><time>2026-04-04T12:02:22.932Z</time></trkpt><trkpt lat="43.5424956" lon="10.7058905"><ele>49.66666666666667</ele><time>2026-04-04T12:02:23.932Z</time></trkpt><trkpt lat="43.5425288" lon="10.7061254"><ele>50.0</ele><time>2026-04-04T12:02:24.932Z</time></trkpt><trkpt lat="43.542564" lon="10.7063611"><ele>50.333333333333336</ele><time>2026-04-04T12:02:25.931Z</time></trkpt><trkpt lat="43.5425997" lon="10.7065919"><ele>50.66666666666667</ele><time>2026-04-04T12:02:26.931Z</time></trkpt><trkpt lat="43.5426302" lon="10.7068225"><ele>51.0</ele><time>2026-04-04T12:02:27.931Z</time></trkpt><trkpt lat="43.542661" lon="10.7070576"><ele>50.33333333333333</ele><time>2026-04-04T12:02:28.932Z</time></trkpt><trkpt lat="43.5426922" lon="10.7072888"><ele>49.666666666666664</ele><time>2026-04-04T12:02:29.931Z</time></trkpt><trkpt lat="43.5427265" lon="10.7075201"><ele>49.0</ele><time>2026-04-04T12:02:30.931Z</time></trkpt><trkpt lat="43.5427601" lon="10.7077508"><ele>48.666666666666664</ele><time>2026-04-04T12:02:31.931Z</time></trkpt><trkpt lat="43.5427915" lon="10.7079827"><ele>48.33333333333333</ele><time>2026-04-04T12:02:32.932Z</time></trkpt><trkpt lat="43.5428242" lon="10.7082184"><ele>48.0</ele><time>2026-04-04T12:02:33.931Z</time></trkpt><trkpt lat="43.5428532" lon="10.7084539"><ele>48.33333333333333</ele><time>2026-04-04T12:02:34.931Z</time></trkpt><trkpt lat="43.5428854" lon="10.7086858"><ele>48.666666666666664</ele><time>2026-04-04T12:02:35.931Z</time></trkpt><trkpt lat="43.5429157" lon="10.7089146"><ele>49.0</ele><time>2026-04-04T12:02:36.931Z</time></trkpt><trkpt lat="43.5429454" lon="10.709146"><ele>49.0</ele><time>2026-04-04T12:02:37.931Z</time></trkpt><trkpt lat="43.5429816" lon="10.7093724"><ele>49.0</ele><time>2026-04-04T12:02:38.932Z</time></trkpt><trkpt lat="43.5430135" lon="10.7096079"><ele>49.0</ele><time>2026-04-04T12:02:39.931Z</time></trkpt><trkpt lat="43.5430453" lon="10.7098426"><ele>48.666666666666664</ele><time>2026-04-04T12:02:40.932Z</time></trkpt><trkpt lat="43.5430744" lon="10.7100824"><ele>48.33333333333333</ele><time>2026-04-04T12:02:41.931Z</time></trkpt><trkpt lat="43.5431018" lon="10.7103209"><ele>48.0</ele><time>2026-04-04T12:02:42.932Z</time></trkpt><trkpt lat="43.5431328" lon="10.7105554"><ele>47.0</ele><time>2026-04-04T12:02:43.932Z</time></trkpt><trkpt lat="43.543168" lon="10.7107932"><ele>46.0</ele><time>2026-04-04T12:02:44.931Z</time></trkpt><trkpt lat="43.5431992" lon="10.7110249"><ele>45.0</ele><time>2026-04-04T12:02:45.931Z</time></trkpt><trkpt lat="43.5432355" lon="10.7112583"><ele>44.333333333333336</ele><time>2026-04-04T12:02:46.932Z</time></trkpt><trkpt lat="43.5432684" lon="10.7114862"><ele>43.66666666666667</ele><time>2026-04-04T12:02:47.931Z</time></trkpt><trkpt lat="43.5433" lon="10.7117195"><ele>43.0</ele><time>2026-04-04T12:02:48.931Z</time></trkpt><trkpt lat="43.543328" lon="10.7119524"><ele>43.0</ele><time>2026-04-04T12:02:49.932Z</time></trkpt><trkpt lat="43.5433569" lon="10.7121871"><ele>43.0</ele><time>2026-04-04T12:02:50.932Z</time></trkpt><trkpt lat="43.5433859" lon="10.7124186"><ele>43.0</ele><time>2026-04-04T12:02:51.931Z</time></trkpt><trkpt lat="43.5434149" lon="10.7126529"><ele>42.66666666666667</ele><time>2026-04-04T12:02:52.931Z</time></trkpt><trkpt lat="43.5434464" lon="10.7128796"><ele>42.333333333333336</ele><time>2026-04-04T12:02:53.932Z</time></trkpt><trkpt lat="43.5434781" lon="10.7131085"><ele>42.0</ele><time>2026-04-04T12:02:54.932Z</time></trkpt><trkpt lat="43.5435102" lon="10.7133435"><ele>41.666666666666664</ele><time>2026-04-04T12:02:55.931Z</time></trkpt><trkpt lat="43.5435419" lon="10.7135759"><ele>41.33333333333333</ele><time>2026-04-04T12:02:56.931Z</time></trkpt><trkpt lat="43.5435728" lon="10.7138148"><ele>41.0</ele><time>2026-04-04T12:02:57.932Z</time></trkpt><trkpt lat="43.543601" lon="10.7140166"><ele>41.0</ele><time>2026-04-04T12:02:58.931Z</time></trkpt><trkpt lat="43.5436275" lon="10.7142105"><ele>41.0</ele><time>2026-04-04T12:02:59.932Z</time></trkpt><trkpt lat="43.5436482" lon="10.7143936"><ele>41.0</ele><time>2026-04-04T12:03:00.932Z</time></trkpt><trkpt lat="43.5436687" lon="10.7145664"><ele>41.0</ele><time>2026-04-04T12:03:01.932Z</time></trkpt><trkpt lat="43.5437037" lon="10.7147155"><ele>44.25</ele><time>2026-04-04T12:03:02.931Z</time></trkpt><trkpt lat="43.5437413" lon="10.7148591"><ele>47.5</ele><time>2026-04-04T12:03:03.931Z</time></trkpt><trkpt lat="43.5438717" lon="10.7149074"><ele>50.75</ele><time>2026-04-04T12:03:04.931Z</time></trkpt><trkpt lat="43.5439974" lon="10.7149399"><ele>54.0</ele><time>2026-04-04T12:03:05.931Z</time></trkpt><trkpt lat="43.5441287" lon="10.7149342"><ele>54.0</ele><time>2026-04-04T12:03:06.932Z</time></trkpt><trkpt lat="43.5442651" lon="10.7149355"><ele>54.0</ele><time>2026-04-04T12:03:07.932Z</time></trkpt><trkpt lat="43.544405" lon="10.7149427"><ele>54.0</ele><time>2026-04-04T12:03:08.932Z</time></trkpt><trkpt lat="43.544562" lon="10.7149468"><ele>54.0</ele><time>2026-04-04T12:03:09.932Z</time></trkpt><trkpt lat="43.5447161" lon="10.7149531"><ele>54.75</ele><time>2026-04-04T12:03:10.931Z</time></trkpt><trkpt lat="43.544865" lon="10.714955"><ele>55.5</ele><time>2026-04-04T12:03:11.931Z</time></trkpt><trkpt lat="43.5450061" lon="10.7149521"><ele>56.25</ele><time>2026-04-04T12:03:12.931Z</time></trkpt><trkpt lat="43.5451374" lon="10.7149445"><ele>57.0</ele><time>2026-04-04T12:03:13.932Z</time></trkpt><trkpt lat="43.5452735" lon="10.7149378"><ele>57.0</ele><time>2026-04-04T12:03:14.931Z</time></trkpt><trkpt lat="43.5454163" lon="10.7149323"><ele>57.0</ele><time>2026-04-04T12:03:15.931Z</time></trkpt><trkpt lat="43.5455474" lon="10.7149336"><ele>57.0</ele><time>2026-04-04T12:03:16.932Z</time></trkpt><trkpt lat="43.5456836" lon="10.7149318"><ele>57.0</ele><time>2026-04-04T12:03:17.931Z</time></trkpt><trkpt lat="43.5457766" lon="10.7149785"><ele>57.0</ele><time>2026-04-04T12:03:18.932Z</time></trkpt><trkpt lat="43.5458374" lon="10.7150596"><ele>57.0</ele><time>2026-04-04T12:03:19.932Z</time></trkpt><trkpt lat="43.5458958" lon="10.7151393"><ele>57.0</ele><time>2026-04-04T12:03:20.931Z</time></trkpt><trkpt lat="43.5458272" lon="10.7152493"><ele>57.0</ele><time>2026-04-04T12:03:21.931Z</time></trkpt><trkpt lat="43.545738" lon="10.7153206"><ele>57.0</ele><time>2026-04-04T12:03:22.932Z</time></trkpt><trkpt lat="43.5456391" lon="10.7153693"><ele>59.25</ele><time>2026-04-04T12:03:23.932Z</time></trkpt><trkpt lat="43.5455296" lon="10.7154342"><ele>61.5</ele><time>2026-04-04T12:03:24.931Z</time></trkpt><trkpt lat="43.5454084" lon="10.7155078"><ele>63.75</ele><time>2026-04-04T12:03:25.932Z</time></trkpt><trkpt lat="43.5452817" lon="10.7155754"><ele>66.0</ele><time>2026-04-04T12:03:26.931Z</time></trkpt><trkpt lat="43.545154" lon="10.7156429"><ele>66.0</ele><time>2026-04-04T12:03:27.932Z</time></trkpt><trkpt lat="43.5450394" lon="10.7157007"><ele>66.0</ele><time>2026-04-04T12:03:28.932Z</time></trkpt><trkpt lat="43.5449374" lon="10.7157563"><ele>66.0</ele><time>2026-04-04T12:03:29.931Z</time></trkpt><trkpt lat="43.5448518" lon="10.7158202"><ele>66.0</ele><time>2026-04-04T12:03:30.932Z</time></trkpt><trkpt lat="43.5447966" lon="10.7159091"><ele>66.0</ele><time>2026-04-04T12:03:31.931Z</time></trkpt><trkpt lat="43.5447714" lon="10.7160192"><ele>69.0</ele><time>2026-04-04T12:03:32.932Z</time></trkpt><trkpt lat="43.5447949" lon="10.7161258"><ele>72.0</ele><time>2026-04-04T12:03:33.931Z</time></trkpt><trkpt lat="43.5448594" lon="10.7161981"><ele>75.0</ele><time>2026-04-04T12:03:34.931Z</time></trkpt><trkpt lat="43.5449259" lon="10.7162673"><ele>78.0</ele><time>2026-04-04T12:03:35.931Z</time></trkpt><trkpt lat="43.5450467" lon="10.7162673"><ele>81.0</ele><time>2026-04-04T12:03:36.932Z</time></trkpt><trkpt lat="43.5451764" lon="10.7162742"><ele>81.0</ele><time>2026-04-04T12:03:37.931Z</time></trkpt><trkpt lat="43.5453111" lon="10.7162909"><ele>81.0</ele><time>2026-04-04T12:03:38.932Z</time></trkpt><trkpt lat="43.5454434" lon="10.7163151"><ele>81.0</ele><time>2026-04-04T12:03:39.931Z</time></trkpt><trkpt lat="43.5455632" lon="10.7163346"><ele>81.0</ele><time>2026-04-04T12:03:40.931Z</time></trkpt><trkpt lat="43.5456752" lon="10.7163557"><ele>81.33333333333333</ele><time>2026-04-04T12:03:41.931Z</time></trkpt><trkpt lat="43.5457797" lon="10.7163972"><ele>81.66666666666667</ele><time>2026-04-04T12:03:42.931Z</time></trkpt><trkpt lat="43.5458555" lon="10.7164785"><ele>82.0</ele><time>2026-04-04T12:03:43.932Z</time></trkpt><trkpt lat="43.5458836" lon="10.7165836"><ele>82.33333333333334</ele><time>2026-04-04T12:03:44.932Z</time></trkpt><trkpt lat="43.5458646" lon="10.7166887"><ele>82.66666666666667</ele><time>2026-04-04T12:03:45.931Z</time></trkpt><trkpt lat="43.5458056" lon="10.7167576"><ele>83.0</ele><time>2026-04-04T12:03:46.931Z</time></trkpt><trkpt lat="43.5457247" lon="10.716804"><ele>83.0</ele><time>2026-04-04T12:03:47.932Z</time></trkpt><trkpt lat="43.5456267" lon="10.7168331"><ele>83.0</ele><time>2026-04-04T12:03:48.932Z</time></trkpt><trkpt lat="43.5455146" lon="10.7168614"><ele>83.0</ele><time>2026-04-04T12:03:49.931Z</time></trkpt><trkpt lat="43.5453936" lon="10.716897"><ele>83.0</ele><time>2026-04-04T12:03:50.931Z</time></trkpt><trkpt lat="43.5452647" lon="10.7169319"><ele>85.5</ele><time>2026-04-04T12:03:51.931Z</time></trkpt><trkpt lat="43.5451327" lon="10.7169674"><ele>88.0</ele><time>2026-04-04T12:03:52.931Z</time></trkpt><trkpt lat="43.5450079" lon="10.7169973"><ele>90.5</ele><time>2026-04-04T12:03:53.932Z</time></trkpt><trkpt lat="43.5448814" lon="10.7170263"><ele>93.0</ele><time>2026-04-04T12:03:54.932Z</time></trkpt><trkpt lat="43.5447684" lon="10.7170569"><ele>93.0</ele><time>2026-04-04T12:03:55.932Z</time></trkpt><trkpt lat="43.5446655" lon="10.7170802"><ele>93.0</ele><time>2026-04-04T12:03:56.931Z</time></trkpt><trkpt lat="43.5445746" lon="10.7171141"><ele>93.0</ele><time>2026-04-04T12:03:57.932Z</time></trkpt><trkpt lat="43.544505" lon="10.71718"><ele>93.0</ele><time>2026-04-04T12:03:58.931Z</time></trkpt><trkpt lat="43.5444729" lon="10.7172813"><ele>93.0</ele><time>2026-04-04T12:03:59.931Z</time></trkpt><trkpt lat="43.5444501" lon="10.717393"><ele>93.0</ele><time>2026-04-04T12:04:00.931Z</time></trkpt><trkpt lat="43.5445254" lon="10.7174609"><ele>93.0</ele><time>2026-04-04T12:04:01.931Z</time></trkpt><trkpt lat="43.5446198" lon="10.7175093"><ele>93.0</ele><time>2026-04-04T12:04:02.932Z</time></trkpt><trkpt lat="43.5447153" lon="10.7175738"><ele>93.0</ele><time>2026-04-04T12:04:03.931Z</time></trkpt><trkpt lat="43.5448216" lon="10.7175731"><ele>93.0</ele><time>2026-04-04T12:04:04.932Z</time></trkpt><trkpt lat="43.5449433" lon="10.7175896"><ele>93.0</ele><time>2026-04-04T12:04:05.931Z</time></trkpt><trkpt lat="43.5450773" lon="10.7176033"><ele>93.0</ele><time>2026-04-04T12:04:06.932Z</time></trkpt><trkpt lat="43.5452151" lon="10.7176249"><ele>93.0</ele><time>2026-04-04T12:04:07.931Z</time></trkpt><trkpt lat="43.5453562" lon="10.7176432"><ele>93.0</ele><time>2026-04-04T12:04:08.932Z</time></trkpt><trkpt lat="43.5454892" lon="10.7176547"><ele>93.0</ele><time>2026-04-04T12:04:09.932Z</time></trkpt><trkpt lat="43.5456205" lon="10.7176762"><ele>92.5</ele><time>2026-04-04T12:04:10.931Z</time></trkpt><trkpt lat="43.5457444" lon="10.7176867"><ele>92.0</ele><time>2026-04-04T12:04:11.931Z</time></trkpt><trkpt lat="43.5458637" lon="10.7176914"><ele>91.5</ele><time>2026-04-04T12:04:12.932Z</time></trkpt><trkpt lat="43.5459846" lon="10.7177072"><ele>91.0</ele><time>2026-04-04T12:04:13.932Z</time></trkpt><trkpt lat="43.5461008" lon="10.7177371"><ele>92.66666666666666</ele><time>2026-04-04T12:04:14.931Z</time></trkpt><trkpt lat="43.5461674" lon="10.7178186"><ele>94.33333333333333</ele><time>2026-04-04T12:04:15.932Z</time></trkpt><trkpt lat="43.5462289" lon="10.7178967"><ele>96.0</ele><time>2026-04-04T12:04:16.931Z</time></trkpt><trkpt lat="43.5462745" lon="10.7180054"><ele>97.66666666666666</ele><time>2026-04-04T12:04:17.931Z</time></trkpt><trkpt lat="43.5463112" lon="10.7181179"><ele>99.33333333333333</ele><time>2026-04-04T12:04:18.932Z</time></trkpt><trkpt lat="43.5463412" lon="10.7182359"><ele>101.0</ele><time>2026-04-04T12:04:19.931Z</time></trkpt><trkpt lat="43.5463716" lon="10.7183553"><ele>101.19999999999999</ele><time>2026-04-04T12:04:20.932Z</time></trkpt><trkpt lat="43.5464064" lon="10.7184755"><ele>101.39999999999999</ele><time>2026-04-04T12:04:21.932Z</time></trkpt><trkpt lat="43.546444" lon="10.7186033"><ele>101.6</ele><time>2026-04-04T12:04:22.932Z</time></trkpt><trkpt lat="43.5464777" lon="10.718729"><ele>101.8</ele><time>2026-04-04T12:04:23.932Z</time></trkpt><trkpt lat="43.5465085" lon="10.718848"><ele>102.0</ele><time>2026-04-04T12:04:24.932Z</time></trkpt><trkpt lat="43.5465343" lon="10.7189585"><ele>103.33333333333333</ele><time>2026-04-04T12:04:25.931Z</time></trkpt><trkpt lat="43.5465471" lon="10.7190509"><ele>104.66666666666666</ele><time>2026-04-04T12:04:26.931Z</time></trkpt><trkpt lat="43.5465206" lon="10.7192165"><ele>106.0</ele><time>2026-04-04T12:04:28.931Z</time></trkpt><trkpt lat="43.5464734" lon="10.7192893"><ele>107.33333333333333</ele><time>2026-04-04T12:04:29.931Z</time></trkpt><trkpt lat="43.5464071" lon="10.7193356"><ele>108.66666666666666</ele><time>2026-04-04T12:04:30.931Z</time></trkpt><trkpt lat="43.5463245" lon="10.7193719"><ele>110.0</ele><time>2026-04-04T12:04:31.932Z</time></trkpt><trkpt lat="43.5462311" lon="10.7194139"><ele>112.25</ele><time>2026-04-04T12:04:32.931Z</time></trkpt><trkpt lat="43.5461321" lon="10.7194623"><ele>114.5</ele><time>2026-04-04T12:04:33.931Z</time></trkpt><trkpt lat="43.5460301" lon="10.7195122"><ele>116.75</ele><time>2026-04-04T12:04:34.931Z</time></trkpt><trkpt lat="43.5459214" lon="10.7195609"><ele>119.0</ele><time>2026-04-04T12:04:35.932Z</time></trkpt><trkpt lat="43.5458001" lon="10.7196047"><ele>119.0</ele><time>2026-04-04T12:04:36.931Z</time></trkpt><trkpt lat="43.5456873" lon="10.7196502"><ele>119.0</ele><time>2026-04-04T12:04:37.932Z</time></trkpt><trkpt lat="43.5455815" lon="10.7196998"><ele>119.0</ele><time>2026-04-04T12:04:38.932Z</time></trkpt><trkpt lat="43.5454749" lon="10.719742"><ele>119.0</ele><time>2026-04-04T12:04:39.932Z</time></trkpt><trkpt lat="43.5453874" lon="10.7198243"><ele>119.0</ele><time>2026-04-04T12:04:40.931Z</time></trkpt><trkpt lat="43.5453047" lon="10.7199192"><ele>119.4</ele><time>2026-04-04T12:04:41.931Z</time></trkpt><trkpt lat="43.5452266" lon="10.7200077"><ele>119.80000000000001</ele><time>2026-04-04T12:04:42.932Z</time></trkpt><trkpt lat="43.5451543" lon="10.7201062"><ele>120.19999999999999</ele><time>2026-04-04T12:04:43.932Z</time></trkpt><trkpt lat="43.5450874" lon="10.7202083"><ele>120.6</ele><time>2026-04-04T12:04:44.931Z</time></trkpt><trkpt lat="43.5450301" lon="10.7203038"><ele>121.0</ele><time>2026-04-04T12:04:45.931Z</time></trkpt><trkpt lat="43.5449752" lon="10.7203899"><ele>121.0</ele><time>2026-04-04T12:04:46.932Z</time></trkpt><trkpt lat="43.5449326" lon="10.7204698"><ele>121.0</ele><time>2026-04-04T12:04:47.932Z</time></trkpt><trkpt lat="43.5449465" lon="10.7205986"><ele>121.0</ele><time>2026-04-04T12:04:49.931Z</time></trkpt><trkpt lat="43.5450587" lon="10.7206731"><ele>121.0</ele><time>2026-04-04T12:04:51.932Z</time></trkpt><trkpt lat="43.5451376" lon="10.720693"><ele>121.0</ele><time>2026-04-04T12:04:52.931Z</time></trkpt><trkpt lat="43.5452234" lon="10.720716"><ele>121.00000000000001</ele><time>2026-04-04T12:04:53.932Z</time></trkpt><trkpt lat="43.5453111" lon="10.7207452"><ele>121.0</ele><time>2026-04-04T12:04:54.931Z</time></trkpt><trkpt lat="43.5453912" lon="10.7207729"><ele>121.0</ele><time>2026-04-04T12:04:55.931Z</time></trkpt><trkpt lat="43.5454689" lon="10.7207999"><ele>121.0</ele><time>2026-04-04T12:04:56.932Z</time></trkpt><trkpt lat="43.5455425" lon="10.7208452"><ele>121.00000000000001</ele><time>2026-04-04T12:04:57.931Z</time></trkpt><trkpt lat="43.5456075" lon="10.7209035"><ele>121.0</ele><time>2026-04-04T12:04:58.931Z</time></trkpt><trkpt lat="43.5456672" lon="10.7209721"><ele>120.33333333333334</ele><time>2026-04-04T12:04:59.931Z</time></trkpt><trkpt lat="43.5457116" lon="10.7210443"><ele>119.66666666666667</ele><time>2026-04-04T12:05:00.931Z</time></trkpt><trkpt lat="43.5456986" lon="10.7211702"><ele>119.0</ele><time>2026-04-04T12:05:02.931Z</time></trkpt><trkpt lat="43.545641" lon="10.7212087"><ele>118.33333333333334</ele><time>2026-04-04T12:05:03.931Z</time></trkpt><trkpt lat="43.5455672" lon="10.7212461"><ele>117.66666666666667</ele><time>2026-04-04T12:05:04.931Z</time></trkpt><trkpt lat="43.545487" lon="10.7212946"><ele>117.0</ele><time>2026-04-04T12:05:05.931Z</time></trkpt><trkpt lat="43.5454004" lon="10.721352"><ele>117.6</ele><time>2026-04-04T12:05:06.931Z</time></trkpt><trkpt lat="43.5453172" lon="10.7214004"><ele>118.19999999999999</ele><time>2026-04-04T12:05:07.931Z</time></trkpt><trkpt lat="43.5452281" lon="10.7214451"><ele>118.8</ele><time>2026-04-04T12:05:08.931Z</time></trkpt><trkpt lat="43.5451417" lon="10.7214859"><ele>119.4</ele><time>2026-04-04T12:05:09.932Z</time></trkpt><trkpt lat="43.5450526" lon="10.721516"><ele>120.0</ele><time>2026-04-04T12:05:10.932Z</time></trkpt><trkpt lat="43.5449693" lon="10.7215446"><ele>120.0</ele><time>2026-04-04T12:05:11.931Z</time></trkpt><trkpt lat="43.5448905" lon="10.7215799"><ele>120.0</ele><time>2026-04-04T12:05:12.931Z</time></trkpt><trkpt lat="43.5448165" lon="10.7216276"><ele>120.0</ele><time>2026-04-04T12:05:13.931Z</time></trkpt><trkpt lat="43.5447444" lon="10.7216806"><ele>120.0</ele><time>2026-04-04T12:05:14.931Z</time></trkpt><trkpt lat="43.5446772" lon="10.7217436"><ele>120.0</ele><time>2026-04-04T12:05:15.931Z</time></trkpt><trkpt lat="43.5446208" lon="10.7218091"><ele>120.0</ele><time>2026-04-04T12:05:16.931Z</time></trkpt><trkpt lat="43.5445603" lon="10.7218809"><ele>120.33333333333333</ele><time>2026-04-04T12:05:17.931Z</time></trkpt><trkpt lat="43.5445004" lon="10.7219593"><ele>120.66666666666666</ele><time>2026-04-04T12:05:18.931Z</time></trkpt><trkpt lat="43.5444481" lon="10.7220499"><ele>121.0</ele><time>2026-04-04T12:05:19.932Z</time></trkpt><trkpt lat="43.5443982" lon="10.7221501"><ele>121.33333333333333</ele><time>2026-04-04T12:05:20.931Z</time></trkpt><trkpt lat="43.5443483" lon="10.7222551"><ele>121.66666666666666</ele><time>2026-04-04T12:05:21.932Z</time></trkpt><trkpt lat="43.544301" lon="10.7223635"><ele>122.0</ele><time>2026-04-04T12:05:22.932Z</time></trkpt><trkpt lat="43.544253" lon="10.7224687"><ele>121.99999999999999</ele><time>2026-04-04T12:05:23.932Z</time></trkpt><trkpt lat="43.5442079" lon="10.7225792"><ele>122.0</ele><time>2026-04-04T12:05:24.931Z</time></trkpt><trkpt lat="43.5441621" lon="10.722686"><ele>122.0</ele><time>2026-04-04T12:05:25.932Z</time></trkpt><trkpt lat="43.5441209" lon="10.7227856"><ele>122.0</ele><time>2026-04-04T12:05:26.932Z</time></trkpt><trkpt lat="43.5440876" lon="10.7228828"><ele>121.99999999999999</ele><time>2026-04-04T12:05:27.932Z</time></trkpt><trkpt lat="43.5440675" lon="10.7229806"><ele>122.0</ele><time>2026-04-04T12:05:28.931Z</time></trkpt><trkpt lat="43.5440513" lon="10.7230778"><ele>121.28571428571428</ele><time>2026-04-04T12:05:29.932Z</time></trkpt><trkpt lat="43.5440293" lon="10.723165"><ele>120.57142857142857</ele><time>2026-04-04T12:05:30.932Z</time></trkpt><trkpt lat="43.5440021" lon="10.7232495"><ele>119.85714285714286</ele><time>2026-04-04T12:05:31.931Z</time></trkpt><trkpt lat="43.5439694" lon="10.723327"><ele>119.14285714285714</ele><time>2026-04-04T12:05:32.931Z</time></trkpt><trkpt lat="43.5439265" lon="10.7234089"><ele>118.42857142857144</ele><time>2026-04-04T12:05:33.931Z</time></trkpt><trkpt lat="43.5438817" lon="10.7234783"><ele>117.71428571428572</ele><time>2026-04-04T12:05:34.931Z</time></trkpt><trkpt lat="43.5438271" lon="10.7235459"><ele>117.0</ele><time>2026-04-04T12:05:35.931Z</time></trkpt><trkpt lat="43.5437711" lon="10.7236185"><ele>115.83333333333333</ele><time>2026-04-04T12:05:36.931Z</time></trkpt><trkpt lat="43.5437159" lon="10.7236817"><ele>114.66666666666666</ele><time>2026-04-04T12:05:37.932Z</time></trkpt><trkpt lat="43.5436633" lon="10.7237363"><ele>113.5</ele><time>2026-04-04T12:05:38.931Z</time></trkpt><trkpt lat="43.5435848" lon="10.7238653"><ele>112.33333333333333</ele><time>2026-04-04T12:05:40.931Z</time></trkpt><trkpt lat="43.5435245" lon="10.7240045"><ele>111.16666666666666</ele><time>2026-04-04T12:05:42.932Z</time></trkpt><trkpt lat="43.5435009" lon="10.724086"><ele>110.0</ele><time>2026-04-04T12:05:43.932Z</time></trkpt><trkpt lat="43.5434518" lon="10.7242301"><ele>107.6</ele><time>2026-04-04T12:05:45.931Z</time></trkpt><trkpt lat="43.5433977" lon="10.7243283"><ele>105.2</ele><time>2026-04-04T12:05:47.932Z</time></trkpt><trkpt lat="43.5433134" lon="10.7243814"><ele>102.80000000000001</ele><time>2026-04-04T12:05:49.932Z</time></trkpt><trkpt lat="43.5432133" lon="10.7244338"><ele>100.4</ele><time>2026-04-04T12:05:51.932Z</time></trkpt><trkpt lat="43.5431133" lon="10.724484"><ele>98.0</ele><time>2026-04-04T12:05:53.932Z</time></trkpt><trkpt lat="43.5430336" lon="10.7245548"><ele>97.49999999999999</ele><time>2026-04-04T12:05:55.931Z</time></trkpt><trkpt lat="43.5429896" lon="10.7246653"><ele>97.0</ele><time>2026-04-04T12:05:57.931Z</time></trkpt><trkpt lat="43.5429745" lon="10.7248243"><ele>96.5</ele><time>2026-04-04T12:05:59.932Z</time></trkpt><trkpt lat="43.5429596" lon="10.7249098"><ele>96.0</ele><time>2026-04-04T12:06:00.932Z</time></trkpt><trkpt lat="43.5429456" lon="10.7249952"><ele>95.5</ele><time>2026-04-04T12:06:01.931Z</time></trkpt><trkpt lat="43.542927" lon="10.7250871"><ele>95.0</ele><time>2026-04-04T12:06:02.932Z</time></trkpt><trkpt lat="43.5429085" lon="10.7251723"><ele>89.2</ele><time>2026-04-04T12:06:03.932Z</time></trkpt><trkpt lat="43.5428791" lon="10.7253144"><ele>83.4</ele><time>2026-04-04T12:06:05.931Z</time></trkpt><trkpt lat="43.5428463" lon="10.7254484"><ele>77.6</ele><time>2026-04-04T12:06:07.931Z</time></trkpt><trkpt lat="43.542789" lon="10.725568"><ele>71.8</ele><time>2026-04-04T12:06:09.931Z</time></trkpt><trkpt lat="43.5426891" lon="10.7256255"><ele>66.0</ele><time>2026-04-04T12:06:11.932Z</time></trkpt><trkpt lat="43.5425942" lon="10.7256212"><ele>66.0</ele><time>2026-04-04T12:06:13.932Z</time></trkpt><trkpt lat="43.5425117" lon="10.7256425"><ele>66.0</ele><time>2026-04-04T12:06:15.932Z</time></trkpt><trkpt lat="43.5424321" lon="10.7257137"><ele>66.0</ele><time>2026-04-04T12:06:17.931Z</time></trkpt><trkpt lat="43.5423264" lon="10.7258399"><ele>66.0</ele><time>2026-04-04T12:06:19.932Z</time></trkpt><trkpt lat="43.5422628" lon="10.7259294"><ele>66.0</ele><time>2026-04-04T12:06:20.931Z</time></trkpt><trkpt lat="43.5422" lon="10.7260186"><ele>64.6</ele><time>2026-04-04T12:06:21.932Z</time></trkpt><trkpt lat="43.5421394" lon="10.7261109"><ele>63.199999999999996</ele><time>2026-04-04T12:06:22.931Z</time></trkpt><trkpt lat="43.5420745" lon="10.7262128"><ele>61.800000000000004</ele><time>2026-04-04T12:06:23.931Z</time></trkpt><trkpt lat="43.5420145" lon="10.7263086"><ele>60.400000000000006</ele><time>2026-04-04T12:06:24.932Z</time></trkpt><trkpt lat="43.5419551" lon="10.7264008"><ele>59.0</ele><time>2026-04-04T12:06:25.932Z</time></trkpt><trkpt lat="43.5418987" lon="10.7264835"><ele>59.0</ele><time>2026-04-04T12:06:26.931Z</time></trkpt><trkpt lat="43.541841" lon="10.7265714"><ele>59.00000000000001</ele><time>2026-04-04T12:06:27.932Z</time></trkpt><trkpt lat="43.5417735" lon="10.726674"><ele>59.00000000000001</ele><time>2026-04-04T12:06:28.931Z</time></trkpt><trkpt lat="43.5417146" lon="10.7267741"><ele>59.0</ele><time>2026-04-04T12:06:29.931Z</time></trkpt><trkpt lat="43.5416498" lon="10.7268709"><ele>59.0</ele><time>2026-04-04T12:06:30.931Z</time></trkpt><trkpt lat="43.5415847" lon="10.7269667"><ele>58.66666666666667</ele><time>2026-04-04T12:06:31.931Z</time></trkpt><trkpt lat="43.5415265" lon="10.7270597"><ele>58.333333333333336</ele><time>2026-04-04T12:06:32.931Z</time></trkpt><trkpt lat="43.5414679" lon="10.7271508"><ele>58.0</ele><time>2026-04-04T12:06:33.931Z</time></trkpt><trkpt lat="43.5414165" lon="10.7272537"><ele>57.66666666666667</ele><time>2026-04-04T12:06:34.932Z</time></trkpt><trkpt lat="43.5413901" lon="10.7273717"><ele>57.333333333333336</ele><time>2026-04-04T12:06:35.932Z</time></trkpt><trkpt lat="43.5413716" lon="10.7274897"><ele>57.0</ele><time>2026-04-04T12:06:36.932Z</time></trkpt><trkpt lat="43.5413514" lon="10.7276181"><ele>57.400000000000006</ele><time>2026-04-04T12:06:37.932Z</time></trkpt><trkpt lat="43.5413348" lon="10.7277551"><ele>57.800000000000004</ele><time>2026-04-04T12:06:38.931Z</time></trkpt><trkpt lat="43.5413067" lon="10.7278652"><ele>58.2</ele><time>2026-04-04T12:06:39.932Z</time></trkpt><trkpt lat="43.5412703" lon="10.7279777"><ele>58.6</ele><time>2026-04-04T12:06:40.931Z</time></trkpt><trkpt lat="43.5412233" lon="10.7280989"><ele>59.0</ele><time>2026-04-04T12:06:41.931Z</time></trkpt><trkpt lat="43.5411778" lon="10.728237"><ele>59.400000000000006</ele><time>2026-04-04T12:06:42.932Z</time></trkpt><trkpt lat="43.5411325" lon="10.7283797"><ele>59.800000000000004</ele><time>2026-04-04T12:06:43.931Z</time></trkpt><trkpt lat="43.5410929" lon="10.7285124"><ele>60.199999999999996</ele><time>2026-04-04T12:06:44.932Z</time></trkpt><trkpt lat="43.5410493" lon="10.7286474"><ele>60.599999999999994</ele><time>2026-04-04T12:06:45.931Z</time></trkpt><trkpt lat="43.541007" lon="10.7287839"><ele>61.0</ele><time>2026-04-04T12:06:46.932Z</time></trkpt><trkpt lat="43.5409623" lon="10.7289129"><ele>62.4</ele><time>2026-04-04T12:06:47.932Z</time></trkpt><trkpt lat="43.5409157" lon="10.7290391"><ele>63.8</ele><time>2026-04-04T12:06:48.931Z</time></trkpt><trkpt lat="43.5408695" lon="10.7291588"><ele>65.19999999999999</ele><time>2026-04-04T12:06:49.932Z</time></trkpt><trkpt lat="43.5408192" lon="10.7292582"><ele>66.6</ele><time>2026-04-04T12:06:50.931Z</time></trkpt><trkpt lat="43.5407703" lon="10.7293505"><ele>68.0</ele><time>2026-04-04T12:06:51.932Z</time></trkpt><trkpt lat="43.5406965" lon="10.7294003"><ele>70.0</ele><time>2026-04-04T12:06:52.932Z</time></trkpt><trkpt lat="43.5406314" lon="10.7294615"><ele>72.0</ele><time>2026-04-04T12:06:53.932Z</time></trkpt><trkpt lat="43.5405081" lon="10.7294623"><ele>74.0</ele><time>2026-04-04T12:06:55.932Z</time></trkpt><trkpt lat="43.5404216" lon="10.7294743"><ele>76.0</ele><time>2026-04-04T12:06:56.932Z</time></trkpt><trkpt lat="43.5403384" lon="10.7294969"><ele>78.0</ele><time>2026-04-04T12:06:57.931Z</time></trkpt><trkpt lat="43.5402566" lon="10.7295315"><ele>78.0</ele><time>2026-04-04T12:06:58.931Z</time></trkpt><trkpt lat="43.5401643" lon="10.7295887"><ele>78.0</ele><time>2026-04-04T12:06:59.931Z</time></trkpt><trkpt lat="43.5400612" lon="10.7296565"><ele>78.0</ele><time>2026-04-04T12:07:00.932Z</time></trkpt><trkpt lat="43.5399554" lon="10.7297148"><ele>78.0</ele><time>2026-04-04T12:07:01.932Z</time></trkpt><trkpt lat="43.5398539" lon="10.7297684"><ele>78.0</ele><time>2026-04-04T12:07:02.931Z</time></trkpt><trkpt lat="43.5397655" lon="10.7298148"><ele>78.0</ele><time>2026-04-04T12:07:03.932Z</time></trkpt><trkpt lat="43.5396843" lon="10.7298769"><ele>78.0</ele><time>2026-04-04T12:07:04.932Z</time></trkpt><trkpt lat="43.5396118" lon="10.729947"><ele>78.0</ele><time>2026-04-04T12:07:05.932Z</time></trkpt><trkpt lat="43.5395492" lon="10.7300233"><ele>78.0</ele><time>2026-04-04T12:07:06.931Z</time></trkpt><trkpt lat="43.539487" lon="10.7301171"><ele>78.0</ele><time>2026-04-04T12:07:07.932Z</time></trkpt><trkpt lat="43.5394212" lon="10.7302254"><ele>80.8</ele><time>2026-04-04T12:07:08.931Z</time></trkpt><trkpt lat="43.5393631" lon="10.7303439"><ele>83.6</ele><time>2026-04-04T12:07:09.932Z</time></trkpt><trkpt lat="43.5393012" lon="10.7304608"><ele>86.39999999999999</ele><time>2026-04-04T12:07:10.931Z</time></trkpt><trkpt lat="43.5392358" lon="10.7305767"><ele>89.19999999999999</ele><time>2026-04-04T12:07:11.931Z</time></trkpt><trkpt lat="43.5391621" lon="10.7307001"><ele>92.0</ele><time>2026-04-04T12:07:12.932Z</time></trkpt><trkpt lat="43.539081" lon="10.7308114"><ele>92.0</ele><time>2026-04-04T12:07:13.931Z</time></trkpt><trkpt lat="43.5389922" lon="10.7309154"><ele>92.0</ele><time>2026-04-04T12:07:14.932Z</time></trkpt><trkpt lat="43.5388965" lon="10.7310231"><ele>92.0</ele><time>2026-04-04T12:07:15.931Z</time></trkpt><trkpt lat="43.5387884" lon="10.7311186"><ele>92.0</ele><time>2026-04-04T12:07:16.931Z</time></trkpt><trkpt lat="43.5386707" lon="10.7312137"><ele>94.75</ele><time>2026-04-04T12:07:17.932Z</time></trkpt><trkpt lat="43.5385581" lon="10.7313012"><ele>97.5</ele><time>2026-04-04T12:07:18.932Z</time></trkpt><trkpt lat="43.5384492" lon="10.7313816"><ele>100.25</ele><time>2026-04-04T12:07:19.931Z</time></trkpt><trkpt lat="43.5383475" lon="10.731449"><ele>103.0</ele><time>2026-04-04T12:07:20.931Z</time></trkpt><trkpt lat="43.5382581" lon="10.7315013"><ele>103.00000000000001</ele><time>2026-04-04T12:07:21.931Z</time></trkpt><trkpt lat="43.538173" lon="10.7315568"><ele>103.0</ele><time>2026-04-04T12:07:22.931Z</time></trkpt><trkpt lat="43.5380982" lon="10.731615"><ele>103.0</ele><time>2026-04-04T12:07:23.932Z</time></trkpt><trkpt lat="43.5380362" lon="10.7316778"><ele>103.0</ele><time>2026-04-04T12:07:24.931Z</time></trkpt><trkpt lat="43.5379837" lon="10.7317475"><ele>103.00000000000001</ele><time>2026-04-04T12:07:25.931Z</time></trkpt><trkpt lat="43.5379356" lon="10.7318311"><ele>103.0</ele><time>2026-04-04T12:07:26.932Z</time></trkpt><trkpt lat="43.537887" lon="10.7319295"><ele>102.33333333333334</ele><time>2026-04-04T12:07:27.932Z</time></trkpt><trkpt lat="43.5378325" lon="10.7320388"><ele>101.66666666666667</ele><time>2026-04-04T12:07:28.931Z</time></trkpt><trkpt lat="43.537791" lon="10.7321381"><ele>101.0</ele><time>2026-04-04T12:07:29.932Z</time></trkpt><trkpt lat="43.5377666" lon="10.7322387"><ele>100.33333333333334</ele><time>2026-04-04T12:07:30.932Z</time></trkpt><trkpt lat="43.5377445" lon="10.732361"><ele>99.66666666666667</ele><time>2026-04-04T12:07:31.931Z</time></trkpt><trkpt lat="43.5377353" lon="10.7324951"><ele>99.0</ele><time>2026-04-04T12:07:32.932Z</time></trkpt><trkpt lat="43.5377276" lon="10.7326318"><ele>100.2</ele><time>2026-04-04T12:07:33.932Z</time></trkpt><trkpt lat="43.5377304" lon="10.7327759"><ele>101.4</ele><time>2026-04-04T12:07:34.931Z</time></trkpt><trkpt lat="43.5377401" lon="10.7329291"><ele>102.6</ele><time>2026-04-04T12:07:35.932Z</time></trkpt><trkpt lat="43.5377609" lon="10.7330806"><ele>103.8</ele><time>2026-04-04T12:07:36.931Z</time></trkpt><trkpt lat="43.5377842" lon="10.7332187"><ele>105.0</ele><time>2026-04-04T12:07:37.931Z</time></trkpt><trkpt lat="43.5378036" lon="10.733362"><ele>105.0</ele><time>2026-04-04T12:07:38.931Z</time></trkpt><trkpt lat="43.5378121" lon="10.7335198"><ele>105.0</ele><time>2026-04-04T12:07:39.932Z</time></trkpt><trkpt lat="43.53781" lon="10.7336698"><ele>105.0</ele><time>2026-04-04T12:07:40.931Z</time></trkpt><trkpt lat="43.5377946" lon="10.7338162"><ele>105.0</ele><time>2026-04-04T12:07:41.931Z</time></trkpt><trkpt lat="43.537771" lon="10.7339527"><ele>105.0</ele><time>2026-04-04T12:07:42.931Z</time></trkpt><trkpt lat="43.5377428" lon="10.7340818"><ele>106.33333333333333</ele><time>2026-04-04T12:07:43.931Z</time></trkpt><trkpt lat="43.5377164" lon="10.7342"><ele>107.66666666666666</ele><time>2026-04-04T12:07:44.931Z</time></trkpt><trkpt lat="43.537684" lon="10.7342948"><ele>109.0</ele><time>2026-04-04T12:07:45.931Z</time></trkpt><trkpt lat="43.537646" lon="10.7343728"><ele>110.33333333333333</ele><time>2026-04-04T12:07:46.932Z</time></trkpt><trkpt lat="43.5375982" lon="10.7344463"><ele>111.66666666666666</ele><time>2026-04-04T12:07:47.931Z</time></trkpt><trkpt lat="43.5375418" lon="10.7345142"><ele>113.0</ele><time>2026-04-04T12:07:48.932Z</time></trkpt><trkpt lat="43.5374746" lon="10.7345859"><ele>114.80000000000001</ele><time>2026-04-04T12:07:49.932Z</time></trkpt><trkpt lat="43.537401" lon="10.7346543"><ele>116.60000000000001</ele><time>2026-04-04T12:07:50.932Z</time></trkpt><trkpt lat="43.5373337" lon="10.7347196"><ele>118.39999999999999</ele><time>2026-04-04T12:07:51.932Z</time></trkpt><trkpt lat="43.5372618" lon="10.73479"><ele>120.19999999999999</ele><time>2026-04-04T12:07:52.932Z</time></trkpt><trkpt lat="43.537189" lon="10.7348635"><ele>122.0</ele><time>2026-04-04T12:07:53.931Z</time></trkpt><trkpt lat="43.5371063" lon="10.7349437"><ele>121.8</ele><time>2026-04-04T12:07:54.932Z</time></trkpt><trkpt lat="43.5370214" lon="10.735028"><ele>121.6</ele><time>2026-04-04T12:07:55.931Z</time></trkpt><trkpt lat="43.536937" lon="10.7351087"><ele>121.39999999999999</ele><time>2026-04-04T12:07:56.932Z</time></trkpt><trkpt lat="43.5368571" lon="10.7351877"><ele>121.19999999999999</ele><time>2026-04-04T12:07:57.931Z</time></trkpt><trkpt lat="43.5367795" lon="10.7352618"><ele>121.0</ele><time>2026-04-04T12:07:58.931Z</time></trkpt><trkpt lat="43.5367012" lon="10.7353278"><ele>122.0</ele><time>2026-04-04T12:07:59.931Z</time></trkpt><trkpt lat="43.5366211" lon="10.7353856"><ele>123.0</ele><time>2026-04-04T12:08:00.931Z</time></trkpt><trkpt lat="43.5365391" lon="10.7354572"><ele>124.0</ele><time>2026-04-04T12:08:01.932Z</time></trkpt><trkpt lat="43.5364541" lon="10.7355369"><ele>125.0</ele><time>2026-04-04T12:08:02.932Z</time></trkpt><trkpt lat="43.5363838" lon="10.7356097"><ele>126.0</ele><time>2026-04-04T12:08:03.932Z</time></trkpt><trkpt lat="43.5363177" lon="10.7356836"><ele>126.0</ele><time>2026-04-04T12:08:04.932Z</time></trkpt><trkpt lat="43.5362636" lon="10.7357443"><ele>126.0</ele><time>2026-04-04T12:08:05.932Z</time></trkpt><trkpt lat="43.5362096" lon="10.7358019"><ele>126.0</ele><time>2026-04-04T12:08:06.931Z</time></trkpt><trkpt lat="43.5361535" lon="10.7358461"><ele>126.0</ele><time>2026-04-04T12:08:07.931Z</time></trkpt><trkpt lat="43.5360913" lon="10.735889"><ele>126.0</ele><time>2026-04-04T12:08:08.932Z</time></trkpt><trkpt lat="43.5360297" lon="10.7359403"><ele>126.0</ele><time>2026-04-04T12:08:09.932Z</time></trkpt><trkpt lat="43.5359595" lon="10.7360102"><ele>126.0</ele><time>2026-04-04T12:08:10.931Z</time></trkpt><trkpt lat="43.5358739" lon="10.7360973"><ele>128.0</ele><time>2026-04-04T12:08:11.932Z</time></trkpt><trkpt lat="43.5357844" lon="10.7361833"><ele>130.0</ele><time>2026-04-04T12:08:12.931Z</time></trkpt><trkpt lat="43.5357001" lon="10.7362583"><ele>132.0</ele><time>2026-04-04T12:08:13.931Z</time></trkpt><trkpt lat="43.5356128" lon="10.736335"><ele>134.0</ele><time>2026-04-04T12:08:14.931Z</time></trkpt><trkpt lat="43.5355215" lon="10.7364219"><ele>136.0</ele><time>2026-04-04T12:08:15.932Z</time></trkpt><trkpt lat="43.5354215" lon="10.7365183"><ele>136.4</ele><time>2026-04-04T12:08:16.932Z</time></trkpt><trkpt lat="43.5353238" lon="10.7366118"><ele>136.8</ele><time>2026-04-04T12:08:17.931Z</time></trkpt><trkpt lat="43.5352321" lon="10.7366991"><ele>137.20000000000002</ele><time>2026-04-04T12:08:18.931Z</time></trkpt><trkpt lat="43.5351423" lon="10.7367847"><ele>137.6</ele><time>2026-04-04T12:08:19.932Z</time></trkpt><trkpt lat="43.5350509" lon="10.7368653"><ele>138.0</ele><time>2026-04-04T12:08:20.931Z</time></trkpt><trkpt lat="43.5349596" lon="10.736945"><ele>138.25</ele><time>2026-04-04T12:08:21.931Z</time></trkpt><trkpt lat="43.5348584" lon="10.7370211"><ele>138.5</ele><time>2026-04-04T12:08:22.931Z</time></trkpt><trkpt lat="43.5347475" lon="10.7370838"><ele>138.75</ele><time>2026-04-04T12:08:23.931Z</time></trkpt><trkpt lat="43.534628" lon="10.7371444"><ele>139.0</ele><time>2026-04-04T12:08:24.932Z</time></trkpt><trkpt lat="43.5345048" lon="10.7372161"><ele>140.25</ele><time>2026-04-04T12:08:25.932Z</time></trkpt><trkpt lat="43.5343822" lon="10.737288"><ele>141.5</ele><time>2026-04-04T12:08:26.932Z</time></trkpt><trkpt lat="43.534265" lon="10.7373492"><ele>142.75</ele><time>2026-04-04T12:08:27.932Z</time></trkpt><trkpt lat="43.5341419" lon="10.737406"><ele>144.0</ele><time>2026-04-04T12:08:28.932Z</time></trkpt><trkpt lat="43.5340264" lon="10.7374569"><ele>144.0</ele><time>2026-04-04T12:08:29.932Z</time></trkpt><trkpt lat="43.533921" lon="10.7375085"><ele>144.0</ele><time>2026-04-04T12:08:30.931Z</time></trkpt><trkpt lat="43.5338175" lon="10.7375578"><ele>144.0</ele><time>2026-04-04T12:08:31.931Z</time></trkpt><trkpt lat="43.5337138" lon="10.737599"><ele>144.0</ele><time>2026-04-04T12:08:32.932Z</time></trkpt><trkpt lat="43.5336258" lon="10.7376352"><ele>144.0</ele><time>2026-04-04T12:08:33.931Z</time></trkpt><trkpt lat="43.5335491" lon="10.7376643"><ele>144.5</ele><time>2026-04-04T12:08:34.931Z</time></trkpt><trkpt lat="43.5334789" lon="10.737689"><ele>145.0</ele><time>2026-04-04T12:08:35.932Z</time></trkpt><trkpt lat="43.5334159" lon="10.7377224"><ele>145.5</ele><time>2026-04-04T12:08:36.932Z</time></trkpt><trkpt lat="43.5333596" lon="10.7377704"><ele>146.0</ele><time>2026-04-04T12:08:37.932Z</time></trkpt><trkpt lat="43.533297" lon="10.7378321"><ele>146.5</ele><time>2026-04-04T12:08:38.931Z</time></trkpt><trkpt lat="43.53323" lon="10.7379051"><ele>147.0</ele><time>2026-04-04T12:08:39.931Z</time></trkpt><trkpt lat="43.5331569" lon="10.7379771"><ele>147.2</ele><time>2026-04-04T12:08:40.931Z</time></trkpt><trkpt lat="43.5330836" lon="10.7380509"><ele>147.39999999999998</ele><time>2026-04-04T12:08:41.932Z</time></trkpt><trkpt lat="43.5330105" lon="10.738126"><ele>147.60000000000002</ele><time>2026-04-04T12:08:42.932Z</time></trkpt><trkpt lat="43.5329382" lon="10.7381996"><ele>147.8</ele><time>2026-04-04T12:08:43.932Z</time></trkpt><trkpt lat="43.5328672" lon="10.7382868"><ele>148.0</ele><time>2026-04-04T12:08:44.931Z</time></trkpt><trkpt lat="43.5327705" lon="10.7383436"><ele>148.8</ele><time>2026-04-04T12:08:45.932Z</time></trkpt><trkpt lat="43.5326856" lon="10.7384026"><ele>149.60000000000002</ele><time>2026-04-04T12:08:46.931Z</time></trkpt><trkpt lat="43.5326052" lon="10.7384631"><ele>150.39999999999998</ele><time>2026-04-04T12:08:47.931Z</time></trkpt><trkpt lat="43.5325214" lon="10.738523"><ele>151.2</ele><time>2026-04-04T12:08:48.932Z</time></trkpt><trkpt lat="43.5324342" lon="10.7385828"><ele>152.0</ele><time>2026-04-04T12:08:49.931Z</time></trkpt><trkpt lat="43.532345" lon="10.7386358"><ele>153.2</ele><time>2026-04-04T12:08:50.932Z</time></trkpt><trkpt lat="43.532254" lon="10.7386869"><ele>154.39999999999998</ele><time>2026-04-04T12:08:51.931Z</time></trkpt><trkpt lat="43.5321737" lon="10.7387429"><ele>155.60000000000002</ele><time>2026-04-04T12:08:52.931Z</time></trkpt><trkpt lat="43.5320938" lon="10.7388066"><ele>156.8</ele><time>2026-04-04T12:08:53.931Z</time></trkpt><trkpt lat="43.5320068" lon="10.7388662"><ele>158.0</ele><time>2026-04-04T12:08:54.931Z</time></trkpt><trkpt lat="43.5319281" lon="10.7389303"><ele>158.0</ele><time>2026-04-04T12:08:55.931Z</time></trkpt><trkpt lat="43.5318524" lon="10.7389884"><ele>158.0</ele><time>2026-04-04T12:08:56.932Z</time></trkpt><trkpt lat="43.5317765" lon="10.7390512"><ele>158.0</ele><time>2026-04-04T12:08:57.932Z</time></trkpt><trkpt lat="43.5317241" lon="10.7391023"><ele>158.0</ele><time>2026-04-04T12:08:58.931Z</time></trkpt><trkpt lat="43.5316721" lon="10.7391649"><ele>158.0</ele><time>2026-04-04T12:08:59.932Z</time></trkpt><trkpt lat="43.5315822" lon="10.7392857"><ele>158.0</ele><time>2026-04-04T12:09:01.932Z</time></trkpt><trkpt lat="43.5315315" lon="10.739343"><ele>156.25</ele><time>2026-04-04T12:09:02.932Z</time></trkpt><trkpt lat="43.5314357" lon="10.7394421"><ele>154.5</ele><time>2026-04-04T12:09:04.932Z</time></trkpt><trkpt lat="43.5313456" lon="10.7395435"><ele>152.75</ele><time>2026-04-04T12:09:06.931Z</time></trkpt><trkpt lat="43.5312494" lon="10.7396406"><ele>151.0</ele><time>2026-04-04T12:09:08.932Z</time></trkpt><trkpt lat="43.5311838" lon="10.739823"><ele>154.4</ele><time>2026-04-04T12:09:10.931Z</time></trkpt><trkpt lat="43.5311668" lon="10.7399341"><ele>157.8</ele><time>2026-04-04T12:09:11.932Z</time></trkpt><trkpt lat="43.5311315" lon="10.740053"><ele>161.20000000000002</ele><time>2026-04-04T12:09:12.932Z</time></trkpt><trkpt lat="43.5310884" lon="10.7401869"><ele>164.6</ele><time>2026-04-04T12:09:13.932Z</time></trkpt><trkpt lat="43.5310511" lon="10.7403065"><ele>168.0</ele><time>2026-04-04T12:09:14.931Z</time></trkpt><trkpt lat="43.531015" lon="10.7404372"><ele>168.0</ele><time>2026-04-04T12:09:15.932Z</time></trkpt><trkpt lat="43.5309952" lon="10.7405648"><ele>168.0</ele><time>2026-04-04T12:09:16.932Z</time></trkpt><trkpt lat="43.5309693" lon="10.7406769"><ele>168.0</ele><time>2026-04-04T12:09:17.932Z</time></trkpt><trkpt lat="43.5309431" lon="10.7407812"><ele>168.0</ele><time>2026-04-04T12:09:18.931Z</time></trkpt><trkpt lat="43.5309079" lon="10.7408911"><ele>168.0</ele><time>2026-04-04T12:09:19.931Z</time></trkpt><trkpt lat="43.5308618" lon="10.7409897"><ele>168.0</ele><time>2026-04-04T12:09:20.932Z</time></trkpt><trkpt lat="43.5307999" lon="10.7410934"><ele>168.2</ele><time>2026-04-04T12:09:21.932Z</time></trkpt><trkpt lat="43.5307546" lon="10.7411928"><ele>168.4</ele><time>2026-04-04T12:09:22.932Z</time></trkpt><trkpt lat="43.5307151" lon="10.7413018"><ele>168.6</ele><time>2026-04-04T12:09:23.931Z</time></trkpt><trkpt lat="43.5306884" lon="10.741419"><ele>168.79999999999998</ele><time>2026-04-04T12:09:24.931Z</time></trkpt><trkpt lat="43.5306943" lon="10.7415862"><ele>169.0</ele><time>2026-04-04T12:09:26.931Z</time></trkpt><trkpt lat="43.5307178" lon="10.7416954"><ele>169.0</ele><time>2026-04-04T12:09:27.931Z</time></trkpt><trkpt lat="43.5307547" lon="10.7418143"><ele>169.0</ele><time>2026-04-04T12:09:28.931Z</time></trkpt><trkpt lat="43.5307912" lon="10.741942"><ele>169.0</ele><time>2026-04-04T12:09:29.932Z</time></trkpt><trkpt lat="43.530823" lon="10.7420615"><ele>169.0</ele><time>2026-04-04T12:09:30.932Z</time></trkpt><trkpt lat="43.5308481" lon="10.7421604"><ele>169.0</ele><time>2026-04-04T12:09:31.932Z</time></trkpt><trkpt lat="43.5308722" lon="10.7422589"><ele>169.0</ele><time>2026-04-04T12:09:32.931Z</time></trkpt><trkpt lat="43.5309078" lon="10.7424122"><ele>168.39999999999998</ele><time>2026-04-04T12:09:34.932Z</time></trkpt><trkpt lat="43.5309125" lon="10.7425472"><ele>167.8</ele><time>2026-04-04T12:09:36.931Z</time></trkpt><trkpt lat="43.5308832" lon="10.7426701"><ele>167.2</ele><time>2026-04-04T12:09:38.931Z</time></trkpt><trkpt lat="43.5308551" lon="10.7427923"><ele>166.60000000000002</ele><time>2026-04-04T12:09:40.931Z</time></trkpt><trkpt lat="43.530841" lon="10.7429257"><ele>166.0</ele><time>2026-04-04T12:09:42.932Z</time></trkpt><trkpt lat="43.5308375" lon="10.7430562"><ele>165.33333333333334</ele><time>2026-04-04T12:09:44.932Z</time></trkpt><trkpt lat="43.5308529" lon="10.7431517"><ele>164.66666666666669</ele><time>2026-04-04T12:09:45.932Z</time></trkpt><trkpt lat="43.5308692" lon="10.7432441"><ele>164.0</ele><time>2026-04-04T12:09:46.931Z</time></trkpt><trkpt lat="43.5308862" lon="10.7433421"><ele>163.33333333333334</ele><time>2026-04-04T12:09:47.932Z</time></trkpt><trkpt lat="43.5308951" lon="10.7434417"><ele>162.66666666666666</ele><time>2026-04-04T12:09:48.931Z</time></trkpt><trkpt lat="43.5309365" lon="10.7436142"><ele>162.0</ele><time>2026-04-04T12:09:50.932Z</time></trkpt><trkpt lat="43.5309522" lon="10.7437242"><ele>161.0</ele><time>2026-04-04T12:09:51.932Z</time></trkpt><trkpt lat="43.5309626" lon="10.7438484"><ele>160.0</ele><time>2026-04-04T12:09:52.931Z</time></trkpt><trkpt lat="43.5309651" lon="10.7439694"><ele>159.0</ele><time>2026-04-04T12:09:53.932Z</time></trkpt><trkpt lat="43.5309523" lon="10.7440888"><ele>158.0</ele><time>2026-04-04T12:09:54.932Z</time></trkpt><trkpt lat="43.5309418" lon="10.7442023"><ele>157.0</ele><time>2026-04-04T12:09:55.931Z</time></trkpt><trkpt lat="43.5309216" lon="10.744303"><ele>156.0</ele><time>2026-04-04T12:09:56.932Z</time></trkpt><trkpt lat="43.5309004" lon="10.7443963"><ele>156.0</ele><time>2026-04-04T12:09:57.932Z</time></trkpt><trkpt lat="43.5308715" lon="10.7444818"><ele>156.0</ele><time>2026-04-04T12:09:58.932Z</time></trkpt><trkpt lat="43.5308383" lon="10.7445697"><ele>156.0</ele><time>2026-04-04T12:09:59.932Z</time></trkpt><trkpt lat="43.530773" lon="10.7446415"><ele>156.0</ele><time>2026-04-04T12:10:00.932Z</time></trkpt><trkpt lat="43.5306983" lon="10.7447069"><ele>156.0</ele><time>2026-04-04T12:10:01.931Z</time></trkpt><trkpt lat="43.5306038" lon="10.7447455"><ele>156.0</ele><time>2026-04-04T12:10:02.931Z</time></trkpt><trkpt lat="43.5305184" lon="10.7447735"><ele>156.0</ele><time>2026-04-04T12:10:03.931Z</time></trkpt><trkpt lat="43.530435" lon="10.7448111"><ele>156.0</ele><time>2026-04-04T12:10:04.931Z</time></trkpt><trkpt lat="43.5303596" lon="10.7448713"><ele>156.0</ele><time>2026-04-04T12:10:05.931Z</time></trkpt><trkpt lat="43.5302842" lon="10.7449536"><ele>156.0</ele><time>2026-04-04T12:10:06.932Z</time></trkpt><trkpt lat="43.5301993" lon="10.7450386"><ele>156.0</ele><time>2026-04-04T12:10:07.931Z</time></trkpt><trkpt lat="43.5301185" lon="10.7451141"><ele>156.16666666666666</ele><time>2026-04-04T12:10:08.931Z</time></trkpt><trkpt lat="43.5300294" lon="10.7451711"><ele>156.33333333333334</ele><time>2026-04-04T12:10:09.932Z</time></trkpt><trkpt lat="43.5299437" lon="10.7452055"><ele>156.5</ele><time>2026-04-04T12:10:10.932Z</time></trkpt><trkpt lat="43.5298664" lon="10.7452285"><ele>156.66666666666669</ele><time>2026-04-04T12:10:11.932Z</time></trkpt><trkpt lat="43.5298049" lon="10.7452642"><ele>156.83333333333334</ele><time>2026-04-04T12:10:12.931Z</time></trkpt><trkpt lat="43.5297547" lon="10.7453178"><ele>157.0</ele><time>2026-04-04T12:10:13.932Z</time></trkpt><trkpt lat="43.5297074" lon="10.7454762"><ele>157.0</ele><time>2026-04-04T12:10:15.932Z</time></trkpt><trkpt lat="43.5296929" lon="10.7455902"><ele>157.0</ele><time>2026-04-04T12:10:16.931Z</time></trkpt><trkpt lat="43.5296769" lon="10.7457301"><ele>157.0</ele><time>2026-04-04T12:10:17.932Z</time></trkpt><trkpt lat="43.5296564" lon="10.7458681"><ele>157.0</ele><time>2026-04-04T12:10:18.931Z</time></trkpt><trkpt lat="43.5296334" lon="10.7459797"><ele>157.0</ele><time>2026-04-04T12:10:19.932Z</time></trkpt><trkpt lat="43.5296349" lon="10.7460751"><ele>157.0</ele><time>2026-04-04T12:10:20.932Z</time></trkpt><trkpt lat="43.5296335" lon="10.746177"><ele>155.5</ele><time>2026-04-04T12:10:21.931Z</time></trkpt><trkpt lat="43.5296098" lon="10.7462684"><ele>154.0</ele><time>2026-04-04T12:10:22.931Z</time></trkpt><trkpt lat="43.5295841" lon="10.7463628"><ele>152.5</ele><time>2026-04-04T12:10:23.931Z</time></trkpt><trkpt lat="43.5295235" lon="10.7464355"><ele>151.0</ele><time>2026-04-04T12:10:24.931Z</time></trkpt><trkpt lat="43.529462" lon="10.7465228"><ele>149.5</ele><time>2026-04-04T12:10:25.931Z</time></trkpt><trkpt lat="43.5293951" lon="10.7466537"><ele>148.0</ele><time>2026-04-04T12:10:26.932Z</time></trkpt><trkpt lat="43.52933" lon="10.7467806"><ele>150.8</ele><time>2026-04-04T12:10:27.932Z</time></trkpt><trkpt lat="43.529266" lon="10.7469197"><ele>153.60000000000002</ele><time>2026-04-04T12:10:28.931Z</time></trkpt><trkpt lat="43.5292096" lon="10.7470412"><ele>156.39999999999998</ele><time>2026-04-04T12:10:29.931Z</time></trkpt><trkpt lat="43.5291613" lon="10.7471608"><ele>159.2</ele><time>2026-04-04T12:10:30.932Z</time></trkpt><trkpt lat="43.5291158" lon="10.7472871"><ele>162.0</ele><time>2026-04-04T12:10:31.931Z</time></trkpt><trkpt lat="43.5290743" lon="10.7474035"><ele>162.0</ele><time>2026-04-04T12:10:32.931Z</time></trkpt><trkpt lat="43.5290382" lon="10.7475086"><ele>162.0</ele><time>2026-04-04T12:10:33.931Z</time></trkpt><trkpt lat="43.5289668" lon="10.7476192"><ele>162.0</ele><time>2026-04-04T12:10:35.932Z</time></trkpt><trkpt lat="43.5288834" lon="10.747639"><ele>162.0</ele><time>2026-04-04T12:10:37.932Z</time></trkpt><trkpt lat="43.5287901" lon="10.7475626"><ele>162.0</ele><time>2026-04-04T12:10:39.931Z</time></trkpt><trkpt lat="43.5287058" lon="10.7474377"><ele>160.33333333333334</ele><time>2026-04-04T12:10:41.932Z</time></trkpt><trkpt lat="43.5286563" lon="10.7473607"><ele>158.66666666666666</ele><time>2026-04-04T12:10:42.931Z</time></trkpt><trkpt lat="43.5286151" lon="10.7472532"><ele>157.0</ele><time>2026-04-04T12:10:43.931Z</time></trkpt><trkpt lat="43.5285909" lon="10.7471509"><ele>155.33333333333331</ele><time>2026-04-04T12:10:44.932Z</time></trkpt><trkpt lat="43.5285787" lon="10.7470314"><ele>153.66666666666666</ele><time>2026-04-04T12:10:45.932Z</time></trkpt><trkpt lat="43.5285663" lon="10.7468887"><ele>152.0</ele><time>2026-04-04T12:10:46.932Z</time></trkpt><trkpt lat="43.5285608" lon="10.7467469"><ele>151.6</ele><time>2026-04-04T12:10:47.932Z</time></trkpt><trkpt lat="43.5285425" lon="10.7465971"><ele>151.2</ele><time>2026-04-04T12:10:48.931Z</time></trkpt><trkpt lat="43.5285272" lon="10.7464513"><ele>150.8</ele><time>2026-04-04T12:10:49.931Z</time></trkpt><trkpt lat="43.5285064" lon="10.7462912"><ele>150.4</ele><time>2026-04-04T12:10:50.931Z</time></trkpt><trkpt lat="43.5285009" lon="10.7462012"><ele>150.0</ele><time>2026-04-04T12:10:51.931Z</time></trkpt><trkpt lat="43.5284886" lon="10.7460892"><ele>151.6</ele><time>2026-04-04T12:10:52.931Z</time></trkpt><trkpt lat="43.5284872" lon="10.7459756"><ele>153.2</ele><time>2026-04-04T12:10:53.931Z</time></trkpt><trkpt lat="43.5285257" lon="10.7457948"><ele>154.8</ele><time>2026-04-04T12:10:55.931Z</time></trkpt><trkpt lat="43.5285356" lon="10.7456755"><ele>156.4</ele><time>2026-04-04T12:10:56.932Z</time></trkpt><trkpt lat="43.5285187" lon="10.7455601"><ele>158.0</ele><time>2026-04-04T12:10:57.932Z</time></trkpt><trkpt lat="43.5284843" lon="10.7454552"><ele>158.0</ele><time>2026-04-04T12:10:58.931Z</time></trkpt><trkpt lat="43.5284398" lon="10.7453461"><ele>158.0</ele><time>2026-04-04T12:10:59.931Z</time></trkpt><trkpt lat="43.5283922" lon="10.7452308"><ele>158.0</ele><time>2026-04-04T12:11:00.931Z</time></trkpt><trkpt lat="43.5283534" lon="10.7451178"><ele>158.0</ele><time>2026-04-04T12:11:01.932Z</time></trkpt><trkpt lat="43.5283166" lon="10.7450034"><ele>158.0</ele><time>2026-04-04T12:11:02.932Z</time></trkpt><trkpt lat="43.5282767" lon="10.7448869"><ele>159.16666666666666</ele><time>2026-04-04T12:11:03.931Z</time></trkpt><trkpt lat="43.5282359" lon="10.7447837"><ele>160.33333333333331</ele><time>2026-04-04T12:11:04.932Z</time></trkpt><trkpt lat="43.5281664" lon="10.7446902"><ele>161.5</ele><time>2026-04-04T12:11:05.932Z</time></trkpt><trkpt lat="43.5281025" lon="10.7446027"><ele>162.66666666666666</ele><time>2026-04-04T12:11:06.931Z</time></trkpt><trkpt lat="43.5280282" lon="10.7445404"><ele>163.83333333333334</ele><time>2026-04-04T12:11:07.932Z</time></trkpt><trkpt lat="43.5279511" lon="10.7444876"><ele>165.0</ele><time>2026-04-04T12:11:08.931Z</time></trkpt><trkpt lat="43.5278713" lon="10.7444248"><ele>166.2</ele><time>2026-04-04T12:11:09.931Z</time></trkpt><trkpt lat="43.5277774" lon="10.7443708"><ele>167.4</ele><time>2026-04-04T12:11:10.932Z</time></trkpt><trkpt lat="43.5276846" lon="10.7443123"><ele>168.60000000000002</ele><time>2026-04-04T12:11:11.931Z</time></trkpt><trkpt lat="43.5275992" lon="10.7442709"><ele>169.8</ele><time>2026-04-04T12:11:12.932Z</time></trkpt><trkpt lat="43.5275215" lon="10.7442351"><ele>171.0</ele><time>2026-04-04T12:11:13.931Z</time></trkpt><trkpt lat="43.527458" lon="10.7441825"><ele>171.0</ele><time>2026-04-04T12:11:14.932Z</time></trkpt><trkpt lat="43.5273972" lon="10.7441329"><ele>171.0</ele><time>2026-04-04T12:11:15.932Z</time></trkpt><trkpt lat="43.5273468" lon="10.744028"><ele>171.0</ele><time>2026-04-04T12:11:16.931Z</time></trkpt><trkpt lat="43.5273086" lon="10.7439184"><ele>171.0</ele><time>2026-04-04T12:11:17.931Z</time></trkpt><trkpt lat="43.5272747" lon="10.74381"><ele>171.0</ele><time>2026-04-04T12:11:18.931Z</time></trkpt><trkpt lat="43.5272718" lon="10.7437076"><ele>171.0</ele><time>2026-04-04T12:11:19.932Z</time></trkpt><trkpt lat="43.5272482" lon="10.7435965"><ele>171.4</ele><time>2026-04-04T12:11:20.931Z</time></trkpt><trkpt lat="43.5272218" lon="10.7434929"><ele>171.8</ele><time>2026-04-04T12:11:21.931Z</time></trkpt><trkpt lat="43.5271866" lon="10.743382"><ele>172.20000000000002</ele><time>2026-04-04T12:11:22.931Z</time></trkpt><trkpt lat="43.5271456" lon="10.7432615"><ele>172.60000000000002</ele><time>2026-04-04T12:11:23.931Z</time></trkpt><trkpt lat="43.5271002" lon="10.7431228"><ele>173.0</ele><time>2026-04-04T12:11:24.932Z</time></trkpt><trkpt lat="43.527058" lon="10.7429752"><ele>173.0</ele><time>2026-04-04T12:11:25.931Z</time></trkpt><trkpt lat="43.5270155" lon="10.7428337"><ele>173.0</ele><time>2026-04-04T12:11:26.932Z</time></trkpt><trkpt lat="43.5269616" lon="10.7427056"><ele>173.0</ele><time>2026-04-04T12:11:27.932Z</time></trkpt><trkpt lat="43.5268958" lon="10.7425853"><ele>173.0</ele><time>2026-04-04T12:11:28.931Z</time></trkpt><trkpt lat="43.5268234" lon="10.7424719"><ele>173.0</ele><time>2026-04-04T12:11:29.932Z</time></trkpt><trkpt lat="43.526751" lon="10.7423663"><ele>172.60000000000002</ele><time>2026-04-04T12:11:30.932Z</time></trkpt><trkpt lat="43.5266801" lon="10.7422652"><ele>172.20000000000002</ele><time>2026-04-04T12:11:31.932Z</time></trkpt><trkpt lat="43.5266131" lon="10.7421692"><ele>171.8</ele><time>2026-04-04T12:11:32.931Z</time></trkpt><trkpt lat="43.5265518" lon="10.7420727"><ele>171.4</ele><time>2026-04-04T12:11:33.932Z</time></trkpt><trkpt lat="43.5264913" lon="10.7419786"><ele>171.0</ele><time>2026-04-04T12:11:34.931Z</time></trkpt><trkpt lat="43.5264306" lon="10.741894"><ele>170.66666666666666</ele><time>2026-04-04T12:11:35.931Z</time></trkpt><trkpt lat="43.5263663" lon="10.741809"><ele>170.33333333333334</ele><time>2026-04-04T12:11:36.932Z</time></trkpt><trkpt lat="43.5263032" lon="10.7417324"><ele>170.0</ele><time>2026-04-04T12:11:37.932Z</time></trkpt><trkpt lat="43.5262383" lon="10.741661"><ele>169.66666666666669</ele><time>2026-04-04T12:11:38.932Z</time></trkpt><trkpt lat="43.5261734" lon="10.7415841"><ele>169.33333333333334</ele><time>2026-04-04T12:11:39.932Z</time></trkpt><trkpt lat="43.5261178" lon="10.7415166"><ele>169.0</ele><time>2026-04-04T12:11:40.932Z</time></trkpt><trkpt lat="43.5260741" lon="10.7414527"><ele>169.0</ele><time>2026-04-04T12:11:41.931Z</time></trkpt><trkpt lat="43.5260066" lon="10.7413297"><ele>169.0</ele><time>2026-04-04T12:11:43.932Z</time></trkpt><trkpt lat="43.5259595" lon="10.7412538"><ele>169.0</ele><time>2026-04-04T12:11:46.931Z</time></trkpt><trkpt lat="43.5258463" lon="10.7412921"><ele>169.0</ele><time>2026-04-04T12:11:49.931Z</time></trkpt><trkpt lat="43.5257907" lon="10.7413417"><ele>169.0</ele><time>2026-04-04T12:11:50.932Z</time></trkpt><trkpt lat="43.5257272" lon="10.7414037"><ele>169.0</ele><time>2026-04-04T12:11:51.932Z</time></trkpt><trkpt lat="43.5256527" lon="10.7414626"><ele>169.0</ele><time>2026-04-04T12:11:52.931Z</time></trkpt><trkpt lat="43.5255624" lon="10.7415304"><ele>169.0</ele><time>2026-04-04T12:11:53.931Z</time></trkpt><trkpt lat="43.5254672" lon="10.7416005"><ele>169.0</ele><time>2026-04-04T12:11:54.932Z</time></trkpt><trkpt lat="43.5253637" lon="10.7416646"><ele>169.0</ele><time>2026-04-04T12:11:55.932Z</time></trkpt><trkpt lat="43.5252462" lon="10.7417125"><ele>169.0</ele><time>2026-04-04T12:11:56.931Z</time></trkpt><trkpt lat="43.5251179" lon="10.7417446"><ele>169.6</ele><time>2026-04-04T12:11:57.932Z</time></trkpt><trkpt lat="43.5249966" lon="10.7417597"><ele>170.2</ele><time>2026-04-04T12:11:58.932Z</time></trkpt><trkpt lat="43.5248889" lon="10.7417635"><ele>170.79999999999998</ele><time>2026-04-04T12:11:59.931Z</time></trkpt><trkpt lat="43.5247829" lon="10.7417619"><ele>171.39999999999998</ele><time>2026-04-04T12:12:00.931Z</time></trkpt><trkpt lat="43.5246864" lon="10.7417316"><ele>172.0</ele><time>2026-04-04T12:12:01.932Z</time></trkpt><trkpt lat="43.524581" lon="10.7417212"><ele>170.6</ele><time>2026-04-04T12:12:02.931Z</time></trkpt><trkpt lat="43.5244776" lon="10.7417367"><ele>169.2</ele><time>2026-04-04T12:12:03.931Z</time></trkpt><trkpt lat="43.5243796" lon="10.7417686"><ele>167.8</ele><time>2026-04-04T12:12:04.931Z</time></trkpt><trkpt lat="43.5242772" lon="10.7418094"><ele>166.4</ele><time>2026-04-04T12:12:05.931Z</time></trkpt><trkpt lat="43.524168" lon="10.7418422"><ele>165.0</ele><time>2026-04-04T12:12:06.931Z</time></trkpt><trkpt lat="43.5240613" lon="10.7418808"><ele>164.4</ele><time>2026-04-04T12:12:07.931Z</time></trkpt><trkpt lat="43.5239523" lon="10.7419199"><ele>163.8</ele><time>2026-04-04T12:12:08.932Z</time></trkpt><trkpt lat="43.5238412" lon="10.7419539"><ele>163.2</ele><time>2026-04-04T12:12:09.931Z</time></trkpt><trkpt lat="43.5237437" lon="10.7419823"><ele>162.6</ele><time>2026-04-04T12:12:10.931Z</time></trkpt><trkpt lat="43.523654" lon="10.741983"><ele>162.0</ele><time>2026-04-04T12:12:11.932Z</time></trkpt><trkpt lat="43.5235693" lon="10.741949"><ele>161.4</ele><time>2026-04-04T12:12:12.931Z</time></trkpt><trkpt lat="43.5234838" lon="10.7418848"><ele>160.79999999999998</ele><time>2026-04-04T12:12:13.932Z</time></trkpt><trkpt lat="43.5233941" lon="10.7418037"><ele>160.2</ele><time>2026-04-04T12:12:14.931Z</time></trkpt><trkpt lat="43.5232961" lon="10.741718"><ele>159.6</ele><time>2026-04-04T12:12:15.931Z</time></trkpt><trkpt lat="43.5231865" lon="10.7416256"><ele>159.0</ele><time>2026-04-04T12:12:16.932Z</time></trkpt><trkpt lat="43.5230791" lon="10.7415294"><ele>159.0</ele><time>2026-04-04T12:12:17.932Z</time></trkpt><trkpt lat="43.5229842" lon="10.7414375"><ele>159.0</ele><time>2026-04-04T12:12:18.931Z</time></trkpt><trkpt lat="43.5228995" lon="10.7413471"><ele>159.0</ele><time>2026-04-04T12:12:19.932Z</time></trkpt><trkpt lat="43.5228288" lon="10.7412569"><ele>159.0</ele><time>2026-04-04T12:12:20.932Z</time></trkpt><trkpt lat="43.5227667" lon="10.7411519"><ele>159.0</ele><time>2026-04-04T12:12:21.931Z</time></trkpt><trkpt lat="43.5227011" lon="10.7410279"><ele>159.25</ele><time>2026-04-04T12:12:22.931Z</time></trkpt><trkpt lat="43.5226374" lon="10.7408953"><ele>159.5</ele><time>2026-04-04T12:12:23.932Z</time></trkpt><trkpt lat="43.5225726" lon="10.7407571"><ele>159.75</ele><time>2026-04-04T12:12:24.931Z</time></trkpt><trkpt lat="43.5225051" lon="10.7406281"><ele>160.0</ele><time>2026-04-04T12:12:25.932Z</time></trkpt><trkpt lat="43.5224453" lon="10.7404906"><ele>160.0</ele><time>2026-04-04T12:12:26.932Z</time></trkpt><trkpt lat="43.5223854" lon="10.7403469"><ele>160.0</ele><time>2026-04-04T12:12:27.932Z</time></trkpt><trkpt lat="43.5223213" lon="10.7402119"><ele>160.0</ele><time>2026-04-04T12:12:28.931Z</time></trkpt><trkpt lat="43.5222641" lon="10.740074"><ele>160.0</ele><time>2026-04-04T12:12:29.932Z</time></trkpt><trkpt lat="43.5222155" lon="10.7399374"><ele>159.0</ele><time>2026-04-04T12:12:30.931Z</time></trkpt><trkpt lat="43.5221745" lon="10.7397981"><ele>158.0</ele><time>2026-04-04T12:12:31.931Z</time></trkpt><trkpt lat="43.5221267" lon="10.7396543"><ele>157.0</ele><time>2026-04-04T12:12:32.932Z</time></trkpt><trkpt lat="43.5220868" lon="10.7395029"><ele>156.0</ele><time>2026-04-04T12:12:33.932Z</time></trkpt><trkpt lat="43.5220294" lon="10.7393632"><ele>153.0</ele><time>2026-04-04T12:12:34.931Z</time></trkpt><trkpt lat="43.5219736" lon="10.7392266"><ele>150.0</ele><time>2026-04-04T12:12:35.932Z</time></trkpt><trkpt lat="43.5219255" lon="10.7390952"><ele>147.0</ele><time>2026-04-04T12:12:36.931Z</time></trkpt><trkpt lat="43.521864" lon="10.73895"><ele>144.0</ele><time>2026-04-04T12:12:37.931Z</time></trkpt><trkpt lat="43.5218254" lon="10.7388072"><ele>144.0</ele><time>2026-04-04T12:12:38.932Z</time></trkpt><trkpt lat="43.5217977" lon="10.7386673"><ele>144.0</ele><time>2026-04-04T12:12:39.931Z</time></trkpt><trkpt lat="43.5217736" lon="10.7385338"><ele>144.0</ele><time>2026-04-04T12:12:40.932Z</time></trkpt><trkpt lat="43.5217531" lon="10.7384051"><ele>144.0</ele><time>2026-04-04T12:12:41.932Z</time></trkpt><trkpt lat="43.5217308" lon="10.7382687"><ele>144.0</ele><time>2026-04-04T12:12:42.931Z</time></trkpt><trkpt lat="43.5217327" lon="10.7381684"><ele>144.0</ele><time>2026-04-04T12:12:44.931Z</time></trkpt><trkpt lat="43.5216782" lon="10.7380919"><ele>144.0</ele><time>2026-04-04T12:12:48.931Z</time></trkpt><trkpt lat="43.5215791" lon="10.7381318"><ele>144.0</ele><time>2026-04-04T12:12:50.932Z</time></trkpt><trkpt lat="43.521526" lon="10.7382249"><ele>144.0</ele><time>2026-04-04T12:12:51.932Z</time></trkpt><trkpt lat="43.5214937" lon="10.7383416"><ele>144.0</ele><time>2026-04-04T12:12:52.932Z</time></trkpt><trkpt lat="43.5214922" lon="10.7384758"><ele>144.0</ele><time>2026-04-04T12:12:53.931Z</time></trkpt><trkpt lat="43.5215173" lon="10.73863"><ele>144.0</ele><time>2026-04-04T12:12:54.931Z</time></trkpt><trkpt lat="43.5215527" lon="10.7387982"><ele>144.0</ele><time>2026-04-04T12:12:55.931Z</time></trkpt><trkpt lat="43.5215853" lon="10.7389766"><ele>144.0</ele><time>2026-04-04T12:12:56.931Z</time></trkpt><trkpt lat="43.5216109" lon="10.7391523"><ele>144.0</ele><time>2026-04-04T12:12:57.932Z</time></trkpt><trkpt lat="43.5216334" lon="10.7393157"><ele>144.0</ele><time>2026-04-04T12:12:58.932Z</time></trkpt><trkpt lat="43.5216526" lon="10.7394703"><ele>144.0</ele><time>2026-04-04T12:12:59.932Z</time></trkpt><trkpt lat="43.5216666" lon="10.7396227"><ele>144.0</ele><time>2026-04-04T12:13:00.932Z</time></trkpt><trkpt lat="43.5216843" lon="10.7397656"><ele>143.6</ele><time>2026-04-04T12:13:01.931Z</time></trkpt><trkpt lat="43.5217002" lon="10.7399096"><ele>143.2</ele><time>2026-04-04T12:13:02.932Z</time></trkpt><trkpt lat="43.5217153" lon="10.7400616"><ele>142.79999999999998</ele><time>2026-04-04T12:13:03.931Z</time></trkpt><trkpt lat="43.521724" lon="10.7402228"><ele>142.4</ele><time>2026-04-04T12:13:04.931Z</time></trkpt><trkpt lat="43.5217237" lon="10.7403801"><ele>142.0</ele><time>2026-04-04T12:13:05.931Z</time></trkpt><trkpt lat="43.5216865" lon="10.7405364"><ele>142.0</ele><time>2026-04-04T12:13:06.932Z</time></trkpt><trkpt lat="43.5216424" lon="10.7406813"><ele>142.0</ele><time>2026-04-04T12:13:07.931Z</time></trkpt><trkpt lat="43.5216077" lon="10.7408212"><ele>142.0</ele><time>2026-04-04T12:13:08.932Z</time></trkpt><trkpt lat="43.5215947" lon="10.7409728"><ele>142.0</ele><time>2026-04-04T12:13:09.931Z</time></trkpt><trkpt lat="43.5216071" lon="10.7411368"><ele>141.0</ele><time>2026-04-04T12:13:10.931Z</time></trkpt><trkpt lat="43.5216472" lon="10.7413163"><ele>140.0</ele><time>2026-04-04T12:13:11.931Z</time></trkpt><trkpt lat="43.5216941" lon="10.7415106"><ele>139.0</ele><time>2026-04-04T12:13:12.932Z</time></trkpt><trkpt lat="43.5217383" lon="10.7417061"><ele>138.0</ele><time>2026-04-04T12:13:13.931Z</time></trkpt><trkpt lat="43.5217794" lon="10.7418967"><ele>133.75</ele><time>2026-04-04T12:13:14.931Z</time></trkpt><trkpt lat="43.521815" lon="10.7420846"><ele>129.5</ele><time>2026-04-04T12:13:15.932Z</time></trkpt><trkpt lat="43.5218524" lon="10.7422649"><ele>125.25</ele><time>2026-04-04T12:13:16.931Z</time></trkpt><trkpt lat="43.5218934" lon="10.742439"><ele>121.0</ele><time>2026-04-04T12:13:17.931Z</time></trkpt><trkpt lat="43.5219405" lon="10.7426112"><ele>123.0</ele><time>2026-04-04T12:13:18.931Z</time></trkpt><trkpt lat="43.5219967" lon="10.7427818"><ele>125.0</ele><time>2026-04-04T12:13:19.931Z</time></trkpt><trkpt lat="43.5220636" lon="10.7429508"><ele>127.0</ele><time>2026-04-04T12:13:20.931Z</time></trkpt><trkpt lat="43.5221376" lon="10.7431259"><ele>129.0</ele><time>2026-04-04T12:13:21.932Z</time></trkpt><trkpt lat="43.5222174" lon="10.7433063"><ele>129.0</ele><time>2026-04-04T12:13:22.932Z</time></trkpt><trkpt lat="43.5222928" lon="10.7434785"><ele>129.0</ele><time>2026-04-04T12:13:23.932Z</time></trkpt><trkpt lat="43.5223597" lon="10.7436449"><ele>129.0</ele><time>2026-04-04T12:13:24.932Z</time></trkpt><trkpt lat="43.5224078" lon="10.7438254"><ele>129.0</ele><time>2026-04-04T12:13:25.932Z</time></trkpt><trkpt lat="43.5224344" lon="10.7440222"><ele>126.0</ele><time>2026-04-04T12:13:26.931Z</time></trkpt><trkpt lat="43.5224387" lon="10.7442336"><ele>123.0</ele><time>2026-04-04T12:13:27.932Z</time></trkpt><trkpt lat="43.5224232" lon="10.7444554"><ele>120.0</ele><time>2026-04-04T12:13:28.931Z</time></trkpt><trkpt lat="43.5223859" lon="10.7446841"><ele>118.0</ele><time>2026-04-04T12:13:29.932Z</time></trkpt><trkpt lat="43.5223352" lon="10.7449112"><ele>116.0</ele><time>2026-04-04T12:13:30.932Z</time></trkpt><trkpt lat="43.5222874" lon="10.7451433"><ele>114.0</ele><time>2026-04-04T12:13:31.932Z</time></trkpt><trkpt lat="43.5222425" lon="10.7453791"><ele>112.66666666666666</ele><time>2026-04-04T12:13:32.931Z</time></trkpt><trkpt lat="43.522197" lon="10.7456108"><ele>111.33333333333333</ele><time>2026-04-04T12:13:33.931Z</time></trkpt><trkpt lat="43.5221522" lon="10.7458385"><ele>110.0</ele><time>2026-04-04T12:13:34.932Z</time></trkpt><trkpt lat="43.5221062" lon="10.7460619"><ele>111.0</ele><time>2026-04-04T12:13:35.931Z</time></trkpt><trkpt lat="43.5220658" lon="10.7462723"><ele>112.0</ele><time>2026-04-04T12:13:36.932Z</time></trkpt><trkpt lat="43.5220244" lon="10.7464809"><ele>113.0</ele><time>2026-04-04T12:13:37.931Z</time></trkpt><trkpt lat="43.5219862" lon="10.7466762"><ele>113.0</ele><time>2026-04-04T12:13:38.931Z</time></trkpt><trkpt lat="43.5219487" lon="10.7468568"><ele>113.0</ele><time>2026-04-04T12:13:39.931Z</time></trkpt><trkpt lat="43.5219073" lon="10.7470261"><ele>113.0</ele><time>2026-04-04T12:13:40.932Z</time></trkpt><trkpt lat="43.5218499" lon="10.7471677"><ele>113.0</ele><time>2026-04-04T12:13:41.932Z</time></trkpt><trkpt lat="43.521783" lon="10.7473053"><ele>114.5</ele><time>2026-04-04T12:13:42.932Z</time></trkpt><trkpt lat="43.5216737" lon="10.7473041"><ele>116.0</ele><time>2026-04-04T12:13:43.932Z</time></trkpt><trkpt lat="43.5215612" lon="10.7472811"><ele>117.5</ele><time>2026-04-04T12:13:44.931Z</time></trkpt><trkpt lat="43.5214526" lon="10.7472326"><ele>119.0</ele><time>2026-04-04T12:13:45.932Z</time></trkpt><trkpt lat="43.5213332" lon="10.7471173"><ele>121.0</ele><time>2026-04-04T12:13:46.931Z</time></trkpt><trkpt lat="43.5212071" lon="10.7469838"><ele>123.0</ele><time>2026-04-04T12:13:47.931Z</time></trkpt><trkpt lat="43.521072" lon="10.7468321"><ele>125.0</ele><time>2026-04-04T12:13:48.932Z</time></trkpt><trkpt lat="43.5209192" lon="10.746677"><ele>125.0</ele><time>2026-04-04T12:13:49.931Z</time></trkpt><trkpt lat="43.5207715" lon="10.7465213"><ele>125.0</ele><time>2026-04-04T12:13:50.931Z</time></trkpt><trkpt lat="43.5206312" lon="10.746376"><ele>125.0</ele><time>2026-04-04T12:13:51.931Z</time></trkpt><trkpt lat="43.5204976" lon="10.7462277"><ele>125.66666666666666</ele><time>2026-04-04T12:13:52.932Z</time></trkpt><trkpt lat="43.5203503" lon="10.746093"><ele>126.33333333333334</ele><time>2026-04-04T12:13:53.931Z</time></trkpt><trkpt lat="43.5201874" lon="10.7459707"><ele>127.0</ele><time>2026-04-04T12:13:54.931Z</time></trkpt><trkpt lat="43.5200145" lon="10.7458644"><ele>127.0</ele><time>2026-04-04T12:13:55.932Z</time></trkpt><trkpt lat="43.5198342" lon="10.7457771"><ele>127.0</ele><time>2026-04-04T12:13:56.932Z</time></trkpt><trkpt lat="43.5196612" lon="10.7457107"><ele>127.0</ele><time>2026-04-04T12:13:57.931Z</time></trkpt><trkpt lat="43.5195079" lon="10.745652"><ele>128.5</ele><time>2026-04-04T12:13:58.931Z</time></trkpt><trkpt lat="43.5193733" lon="10.7456008"><ele>130.0</ele><time>2026-04-04T12:13:59.931Z</time></trkpt><trkpt lat="43.5192544" lon="10.7455723"><ele>131.5</ele><time>2026-04-04T12:14:00.932Z</time></trkpt><trkpt lat="43.5191441" lon="10.7455515"><ele>133.0</ele><time>2026-04-04T12:14:01.932Z</time></trkpt><trkpt lat="43.5190653" lon="10.7456537"><ele>133.0</ele><time>2026-04-04T12:14:02.931Z</time></trkpt><trkpt lat="43.518995" lon="10.7457717"><ele>133.0</ele><time>2026-04-04T12:14:03.931Z</time></trkpt><trkpt lat="43.5189778" lon="10.7459531"><ele>133.0</ele><time>2026-04-04T12:14:04.932Z</time></trkpt><trkpt lat="43.5189774" lon="10.7461602"><ele>133.0</ele><time>2026-04-04T12:14:05.931Z</time></trkpt><trkpt lat="43.5189659" lon="10.7463543"><ele>133.0</ele><time>2026-04-04T12:14:06.931Z</time></trkpt><trkpt lat="43.5189456" lon="10.7466149"><ele>133.0</ele><time>2026-04-04T12:14:07.932Z</time></trkpt><trkpt lat="43.5189074" lon="10.7468808"><ele>133.0</ele><time>2026-04-04T12:14:08.931Z</time></trkpt><trkpt lat="43.5188509" lon="10.747148"><ele>133.0</ele><time>2026-04-04T12:14:09.931Z</time></trkpt><trkpt lat="43.5187788" lon="10.7474255"><ele>133.0</ele><time>2026-04-04T12:14:10.931Z</time></trkpt><trkpt lat="43.5187081" lon="10.747716"><ele>133.0</ele><time>2026-04-04T12:14:11.931Z</time></trkpt><trkpt lat="43.5186356" lon="10.7480129"><ele>131.5</ele><time>2026-04-04T12:14:12.931Z</time></trkpt><trkpt lat="43.5185647" lon="10.7483017"><ele>130.0</ele><time>2026-04-04T12:14:13.931Z</time></trkpt><trkpt lat="43.518481" lon="10.7485984"><ele>130.0</ele><time>2026-04-04T12:14:14.931Z</time></trkpt><trkpt lat="43.5184062" lon="10.7488909"><ele>130.0</ele><time>2026-04-04T12:14:15.931Z</time></trkpt><trkpt lat="43.5183343" lon="10.7491763"><ele>130.0</ele><time>2026-04-04T12:14:16.932Z</time></trkpt><trkpt lat="43.5182613" lon="10.7494657"><ele>130.33333333333334</ele><time>2026-04-04T12:14:17.932Z</time></trkpt><trkpt lat="43.5181919" lon="10.7497448"><ele>130.66666666666666</ele><time>2026-04-04T12:14:18.932Z</time></trkpt><trkpt lat="43.5181329" lon="10.7499926"><ele>131.0</ele><time>2026-04-04T12:14:19.931Z</time></trkpt><trkpt lat="43.5180713" lon="10.7502382"><ele>130.33333333333331</ele><time>2026-04-04T12:14:20.931Z</time></trkpt><trkpt lat="43.5180138" lon="10.7504873"><ele>129.66666666666666</ele><time>2026-04-04T12:14:21.932Z</time></trkpt><trkpt lat="43.5179643" lon="10.7506992"><ele>129.0</ele><time>2026-04-04T12:14:22.932Z</time></trkpt><trkpt lat="43.5179199" lon="10.7509156"><ele>129.0</ele><time>2026-04-04T12:14:23.932Z</time></trkpt><trkpt lat="43.5178828" lon="10.7511325"><ele>129.0</ele><time>2026-04-04T12:14:24.931Z</time></trkpt><trkpt lat="43.5178543" lon="10.7513521"><ele>129.0</ele><time>2026-04-04T12:14:25.932Z</time></trkpt><trkpt lat="43.5178472" lon="10.7515915"><ele>129.0</ele><time>2026-04-04T12:14:26.932Z</time></trkpt><trkpt lat="43.5178533" lon="10.7518357"><ele>129.0</ele><time>2026-04-04T12:14:27.931Z</time></trkpt><trkpt lat="43.5178619" lon="10.7520868"><ele>129.0</ele><time>2026-04-04T12:14:28.931Z</time></trkpt><trkpt lat="43.517868" lon="10.7523362"><ele>129.0</ele><time>2026-04-04T12:14:29.932Z</time></trkpt><trkpt lat="43.5178632" lon="10.7525812"><ele>129.0</ele><time>2026-04-04T12:14:30.931Z</time></trkpt><trkpt lat="43.5178537" lon="10.752817"><ele>129.0</ele><time>2026-04-04T12:14:31.932Z</time></trkpt><trkpt lat="43.5178327" lon="10.7530407"><ele>129.33333333333334</ele><time>2026-04-04T12:14:32.931Z</time></trkpt><trkpt lat="43.5177998" lon="10.7532597"><ele>129.66666666666669</ele><time>2026-04-04T12:14:33.931Z</time></trkpt><trkpt lat="43.5177643" lon="10.7534693"><ele>130.0</ele><time>2026-04-04T12:14:34.932Z</time></trkpt><trkpt lat="43.5177041" lon="10.7536506"><ele>131.75</ele><time>2026-04-04T12:14:35.931Z</time></trkpt><trkpt lat="43.5176248" lon="10.7538147"><ele>133.5</ele><time>2026-04-04T12:14:36.931Z</time></trkpt><trkpt lat="43.5175446" lon="10.7539763"><ele>135.25</ele><time>2026-04-04T12:14:37.931Z</time></trkpt><trkpt lat="43.5174307" lon="10.7541239"><ele>137.0</ele><time>2026-04-04T12:14:38.931Z</time></trkpt><trkpt lat="43.5173093" lon="10.7542633"><ele>138.33333333333331</ele><time>2026-04-04T12:14:39.932Z</time></trkpt><trkpt lat="43.5171823" lon="10.7543996"><ele>139.66666666666666</ele><time>2026-04-04T12:14:40.931Z</time></trkpt><trkpt lat="43.5170508" lon="10.754539"><ele>141.0</ele><time>2026-04-04T12:14:41.932Z</time></trkpt><trkpt lat="43.5169194" lon="10.7546842"><ele>141.0</ele><time>2026-04-04T12:14:42.932Z</time></trkpt><trkpt lat="43.5167871" lon="10.7548328"><ele>141.0</ele><time>2026-04-04T12:14:43.931Z</time></trkpt><trkpt lat="43.5166541" lon="10.754976"><ele>141.0</ele><time>2026-04-04T12:14:44.932Z</time></trkpt><trkpt lat="43.5165235" lon="10.7551146"><ele>139.66666666666666</ele><time>2026-04-04T12:14:45.932Z</time></trkpt><trkpt lat="43.5163975" lon="10.7552374"><ele>138.33333333333331</ele><time>2026-04-04T12:14:46.932Z</time></trkpt><trkpt lat="43.5162616" lon="10.7553389"><ele>137.0</ele><time>2026-04-04T12:14:47.932Z</time></trkpt><trkpt lat="43.5161118" lon="10.7554033"><ele>136.33333333333331</ele><time>2026-04-04T12:14:48.932Z</time></trkpt><trkpt lat="43.5159562" lon="10.7554364"><ele>135.66666666666666</ele><time>2026-04-04T12:14:49.931Z</time></trkpt><trkpt lat="43.5157963" lon="10.7554498"><ele>135.0</ele><time>2026-04-04T12:14:50.932Z</time></trkpt><trkpt lat="43.5156244" lon="10.7554609"><ele>135.0</ele><time>2026-04-04T12:14:51.932Z</time></trkpt><trkpt lat="43.5154462" lon="10.7554861"><ele>135.0</ele><time>2026-04-04T12:14:52.931Z</time></trkpt><trkpt lat="43.5152724" lon="10.7555192"><ele>135.0</ele><time>2026-04-04T12:14:53.931Z</time></trkpt><trkpt lat="43.5151099" lon="10.7555586"><ele>138.0</ele><time>2026-04-04T12:14:54.931Z</time></trkpt><trkpt lat="43.5149409" lon="10.7555909"><ele>141.0</ele><time>2026-04-04T12:14:55.931Z</time></trkpt><trkpt lat="43.5147911" lon="10.7556126"><ele>144.0</ele><time>2026-04-04T12:14:56.932Z</time></trkpt><trkpt lat="43.5146501" lon="10.7556118"><ele>145.5</ele><time>2026-04-04T12:14:57.932Z</time></trkpt><trkpt lat="43.5145066" lon="10.7555849"><ele>147.0</ele><time>2026-04-04T12:14:58.931Z</time></trkpt><trkpt lat="43.5143603" lon="10.7555421"><ele>148.5</ele><time>2026-04-04T12:14:59.932Z</time></trkpt><trkpt lat="43.5142218" lon="10.7554976"><ele>150.0</ele><time>2026-04-04T12:15:00.931Z</time></trkpt><trkpt lat="43.514096" lon="10.7554485"><ele>150.0</ele><time>2026-04-04T12:15:01.931Z</time></trkpt><trkpt lat="43.5139672" lon="10.7554248"><ele>150.0</ele><time>2026-04-04T12:15:02.932Z</time></trkpt><trkpt lat="43.5138262" lon="10.7554528"><ele>150.0</ele><time>2026-04-04T12:15:03.932Z</time></trkpt><trkpt lat="43.5136854" lon="10.7555307"><ele>150.0</ele><time>2026-04-04T12:15:04.932Z</time></trkpt><trkpt lat="43.5135507" lon="10.7556329"><ele>146.66666666666666</ele><time>2026-04-04T12:15:05.931Z</time></trkpt><trkpt lat="43.5134112" lon="10.7557608"><ele>143.33333333333331</ele><time>2026-04-04T12:15:06.931Z</time></trkpt><trkpt lat="43.5132741" lon="10.7558885"><ele>140.0</ele><time>2026-04-04T12:15:07.931Z</time></trkpt><trkpt lat="43.513144" lon="10.75599"><ele>139.66666666666666</ele><time>2026-04-04T12:15:08.931Z</time></trkpt><trkpt lat="43.5130038" lon="10.7560799"><ele>139.33333333333334</ele><time>2026-04-04T12:15:09.932Z</time></trkpt><trkpt lat="43.512859" lon="10.7561571"><ele>139.0</ele><time>2026-04-04T12:15:10.931Z</time></trkpt><trkpt lat="43.5127076" lon="10.7562222"><ele>139.0</ele><time>2026-04-04T12:15:11.931Z</time></trkpt><trkpt lat="43.5125566" lon="10.7562881"><ele>139.0</ele><time>2026-04-04T12:15:12.932Z</time></trkpt><trkpt lat="43.512402" lon="10.7563551"><ele>139.0</ele><time>2026-04-04T12:15:13.931Z</time></trkpt><trkpt lat="43.5122475" lon="10.75642"><ele>139.0</ele><time>2026-04-04T12:15:14.932Z</time></trkpt><trkpt lat="43.5120751" lon="10.7564947"><ele>139.0</ele><time>2026-04-04T12:15:15.932Z</time></trkpt><trkpt lat="43.5119027" lon="10.7565682"><ele>139.0</ele><time>2026-04-04T12:15:16.932Z</time></trkpt><trkpt lat="43.5117351" lon="10.7566432"><ele>139.66666666666669</ele><time>2026-04-04T12:15:17.931Z</time></trkpt><trkpt lat="43.5115573" lon="10.7567128"><ele>140.33333333333334</ele><time>2026-04-04T12:15:18.931Z</time></trkpt><trkpt lat="43.5113768" lon="10.7567896"><ele>141.0</ele><time>2026-04-04T12:15:19.931Z</time></trkpt><trkpt lat="43.5112164" lon="10.7568569"><ele>140.33333333333334</ele><time>2026-04-04T12:15:20.932Z</time></trkpt><trkpt lat="43.5110644" lon="10.7569184"><ele>139.66666666666669</ele><time>2026-04-04T12:15:21.931Z</time></trkpt><trkpt lat="43.5109137" lon="10.7569837"><ele>139.0</ele><time>2026-04-04T12:15:22.932Z</time></trkpt><trkpt lat="43.5107739" lon="10.7570182"><ele>139.0</ele><time>2026-04-04T12:15:23.931Z</time></trkpt><trkpt lat="43.5106306" lon="10.7570495"><ele>139.0</ele><time>2026-04-04T12:15:24.931Z</time></trkpt><trkpt lat="43.51047" lon="10.7570784"><ele>139.0</ele><time>2026-04-04T12:15:25.932Z</time></trkpt><trkpt lat="43.5103481" lon="10.7570962"><ele>139.0</ele><time>2026-04-04T12:15:26.932Z</time></trkpt><trkpt lat="43.5102231" lon="10.7571119"><ele>141.25</ele><time>2026-04-04T12:15:27.931Z</time></trkpt><trkpt lat="43.5101054" lon="10.7571465"><ele>143.5</ele><time>2026-04-04T12:15:28.931Z</time></trkpt><trkpt lat="43.5099855" lon="10.757194"><ele>145.75</ele><time>2026-04-04T12:15:29.931Z</time></trkpt><trkpt lat="43.5098631" lon="10.7572482"><ele>148.0</ele><time>2026-04-04T12:15:30.931Z</time></trkpt><trkpt lat="43.5097314" lon="10.7573035"><ele>148.0</ele><time>2026-04-04T12:15:31.931Z</time></trkpt><trkpt lat="43.5095946" lon="10.757359"><ele>148.0</ele><time>2026-04-04T12:15:32.931Z</time></trkpt><trkpt lat="43.5094582" lon="10.7574122"><ele>148.0</ele><time>2026-04-04T12:15:33.931Z</time></trkpt><trkpt lat="43.5093203" lon="10.757457"><ele>148.0</ele><time>2026-04-04T12:15:34.932Z</time></trkpt><trkpt lat="43.5091823" lon="10.7575046"><ele>150.25</ele><time>2026-04-04T12:15:35.931Z</time></trkpt><trkpt lat="43.5090399" lon="10.7575518"><ele>152.5</ele><time>2026-04-04T12:15:36.931Z</time></trkpt><trkpt lat="43.5088988" lon="10.7575972"><ele>154.75</ele><time>2026-04-04T12:15:37.931Z</time></trkpt><trkpt lat="43.508766" lon="10.7576526"><ele>157.0</ele><time>2026-04-04T12:15:38.931Z</time></trkpt><trkpt lat="43.5086372" lon="10.7577214"><ele>159.75</ele><time>2026-04-04T12:15:39.932Z</time></trkpt><trkpt lat="43.5085132" lon="10.7577929"><ele>162.5</ele><time>2026-04-04T12:15:40.931Z</time></trkpt><trkpt lat="43.5083937" lon="10.7578587"><ele>165.25</ele><time>2026-04-04T12:15:41.932Z</time></trkpt><trkpt lat="43.5082723" lon="10.7579028"><ele>168.0</ele><time>2026-04-04T12:15:42.932Z</time></trkpt><trkpt lat="43.5081501" lon="10.757927"><ele>168.0</ele><time>2026-04-04T12:15:43.931Z</time></trkpt><trkpt lat="43.5080306" lon="10.7579305"><ele>168.0</ele><time>2026-04-04T12:15:44.931Z</time></trkpt><trkpt lat="43.5079193" lon="10.757928"><ele>168.0</ele><time>2026-04-04T12:15:45.932Z</time></trkpt><trkpt lat="43.5078179" lon="10.7579296"><ele>168.0</ele><time>2026-04-04T12:15:46.932Z</time></trkpt><trkpt lat="43.5077278" lon="10.7579363"><ele>168.0</ele><time>2026-04-04T12:15:47.931Z</time></trkpt><trkpt lat="43.5076392" lon="10.7579382"><ele>169.8</ele><time>2026-04-04T12:15:48.932Z</time></trkpt><trkpt lat="43.5075655" lon="10.7579506"><ele>171.60000000000002</ele><time>2026-04-04T12:15:49.931Z</time></trkpt><trkpt lat="43.5074935" lon="10.7579678"><ele>173.39999999999998</ele><time>2026-04-04T12:15:50.932Z</time></trkpt><trkpt lat="43.5073833" lon="10.7580105"><ele>175.2</ele><time>2026-04-04T12:15:52.931Z</time></trkpt><trkpt lat="43.5073027" lon="10.7580869"><ele>177.0</ele><time>2026-04-04T12:15:54.932Z</time></trkpt><trkpt lat="43.5072414" lon="10.7582237"><ele>177.0</ele><time>2026-04-04T12:15:56.931Z</time></trkpt><trkpt lat="43.5071937" lon="10.758448"><ele>177.0</ele><time>2026-04-04T12:15:58.931Z</time></trkpt><trkpt lat="43.5071725" lon="10.7585741"><ele>177.0</ele><time>2026-04-04T12:15:59.931Z</time></trkpt><trkpt lat="43.5071475" lon="10.758682"><ele>177.0</ele><time>2026-04-04T12:16:00.932Z</time></trkpt><trkpt lat="43.5071244" lon="10.758808"><ele>177.0</ele><time>2026-04-04T12:16:01.931Z</time></trkpt><trkpt lat="43.5071009" lon="10.7589353"><ele>177.0</ele><time>2026-04-04T12:16:02.932Z</time></trkpt><trkpt lat="43.5070794" lon="10.7590595"><ele>177.0</ele><time>2026-04-04T12:16:03.932Z</time></trkpt><trkpt lat="43.507059" lon="10.7591844"><ele>177.0</ele><time>2026-04-04T12:16:04.932Z</time></trkpt><trkpt lat="43.5070303" lon="10.7593023"><ele>177.0</ele><time>2026-04-04T12:16:05.931Z</time></trkpt><trkpt lat="43.5070181" lon="10.7594267"><ele>177.0</ele><time>2026-04-04T12:16:06.931Z</time></trkpt><trkpt lat="43.5070093" lon="10.7595489"><ele>176.0</ele><time>2026-04-04T12:16:07.932Z</time></trkpt><trkpt lat="43.5070121" lon="10.7596786"><ele>175.0</ele><time>2026-04-04T12:16:08.932Z</time></trkpt><trkpt lat="43.5070272" lon="10.7598103"><ele>174.0</ele><time>2026-04-04T12:16:09.931Z</time></trkpt><trkpt lat="43.5070509" lon="10.7599321"><ele>173.0</ele><time>2026-04-04T12:16:10.931Z</time></trkpt><trkpt lat="43.5070886" lon="10.7600399"><ele>172.0</ele><time>2026-04-04T12:16:11.931Z</time></trkpt><trkpt lat="43.5071426" lon="10.7601351"><ele>171.0</ele><time>2026-04-04T12:16:12.931Z</time></trkpt><trkpt lat="43.5072137" lon="10.7602013"><ele>170.0</ele><time>2026-04-04T12:16:13.931Z</time></trkpt><trkpt lat="43.5073015" lon="10.7602437"><ele>169.0</ele><time>2026-04-04T12:16:14.931Z</time></trkpt><trkpt lat="43.5074001" lon="10.7602824"><ele>168.0</ele><time>2026-04-04T12:16:15.931Z</time></trkpt><trkpt lat="43.5074918" lon="10.7603232"><ele>167.0</ele><time>2026-04-04T12:16:16.932Z</time></trkpt><trkpt lat="43.507566" lon="10.760384"><ele>167.0</ele><time>2026-04-04T12:16:17.931Z</time></trkpt><trkpt lat="43.5076298" lon="10.7604711"><ele>167.0</ele><time>2026-04-04T12:16:18.931Z</time></trkpt><trkpt lat="43.5076841" lon="10.7605824"><ele>167.0</ele><time>2026-04-04T12:16:19.932Z</time></trkpt><trkpt lat="43.5077252" lon="10.7607188"><ele>167.0</ele><time>2026-04-04T12:16:20.931Z</time></trkpt><trkpt lat="43.507758" lon="10.760876"><ele>167.0</ele><time>2026-04-04T12:16:21.931Z</time></trkpt><trkpt lat="43.5077823" lon="10.7610529"><ele>166.5</ele><time>2026-04-04T12:16:22.932Z</time></trkpt><trkpt lat="43.5078066" lon="10.7612289"><ele>166.0</ele><time>2026-04-04T12:16:23.931Z</time></trkpt><trkpt lat="43.5078468" lon="10.7613969"><ele>165.5</ele><time>2026-04-04T12:16:24.931Z</time></trkpt><trkpt lat="43.5079005" lon="10.7615486"><ele>165.0</ele><time>2026-04-04T12:16:25.932Z</time></trkpt><trkpt lat="43.5079647" lon="10.7616927"><ele>167.25</ele><time>2026-04-04T12:16:26.931Z</time></trkpt><trkpt lat="43.5080422" lon="10.7618349"><ele>169.5</ele><time>2026-04-04T12:16:27.932Z</time></trkpt><trkpt lat="43.5081195" lon="10.761984"><ele>171.75</ele><time>2026-04-04T12:16:28.931Z</time></trkpt><trkpt lat="43.5081996" lon="10.762133"><ele>174.0</ele><time>2026-04-04T12:16:29.931Z</time></trkpt><trkpt lat="43.5082819" lon="10.7622735"><ele>174.0</ele><time>2026-04-04T12:16:30.931Z</time></trkpt><trkpt lat="43.5083647" lon="10.7624114"><ele>174.0</ele><time>2026-04-04T12:16:31.932Z</time></trkpt><trkpt lat="43.5084402" lon="10.7625457"><ele>174.0</ele><time>2026-04-04T12:16:32.931Z</time></trkpt><trkpt lat="43.5084864" lon="10.7626821"><ele>174.0</ele><time>2026-04-04T12:16:33.931Z</time></trkpt><trkpt lat="43.5085155" lon="10.7628248"><ele>172.75</ele><time>2026-04-04T12:16:34.931Z</time></trkpt><trkpt lat="43.5085384" lon="10.7629673"><ele>171.5</ele><time>2026-04-04T12:16:35.932Z</time></trkpt><trkpt lat="43.5085524" lon="10.7631149"><ele>170.25</ele><time>2026-04-04T12:16:36.931Z</time></trkpt><trkpt lat="43.5084637" lon="10.7632342"><ele>169.0</ele><time>2026-04-04T12:16:37.931Z</time></trkpt><trkpt lat="43.5083641" lon="10.7633604"><ele>169.0</ele><time>2026-04-04T12:16:38.932Z</time></trkpt><trkpt lat="43.5082516" lon="10.7634748"><ele>169.0</ele><time>2026-04-04T12:16:39.931Z</time></trkpt><trkpt lat="43.5081387" lon="10.7636002"><ele>169.0</ele><time>2026-04-04T12:16:40.931Z</time></trkpt><trkpt lat="43.5080311" lon="10.7637214"><ele>169.0</ele><time>2026-04-04T12:16:41.931Z</time></trkpt><trkpt lat="43.5079058" lon="10.7638702"><ele>167.66666666666669</ele><time>2026-04-04T12:16:42.931Z</time></trkpt><trkpt lat="43.5077727" lon="10.7640081"><ele>166.33333333333334</ele><time>2026-04-04T12:16:43.931Z</time></trkpt><trkpt lat="43.5076414" lon="10.764122"><ele>165.0</ele><time>2026-04-04T12:16:44.932Z</time></trkpt><trkpt lat="43.5074998" lon="10.7642291"><ele>165.0</ele><time>2026-04-04T12:16:45.931Z</time></trkpt><trkpt lat="43.5073509" lon="10.7643263"><ele>165.0</ele><time>2026-04-04T12:16:46.931Z</time></trkpt><trkpt lat="43.5072138" lon="10.764419"><ele>165.0</ele><time>2026-04-04T12:16:47.931Z</time></trkpt><trkpt lat="43.5070779" lon="10.7645152"><ele>166.66666666666666</ele><time>2026-04-04T12:16:48.932Z</time></trkpt><trkpt lat="43.5069373" lon="10.7646195"><ele>168.33333333333331</ele><time>2026-04-04T12:16:49.932Z</time></trkpt><trkpt lat="43.5067985" lon="10.7647419"><ele>170.0</ele><time>2026-04-04T12:16:50.931Z</time></trkpt><trkpt lat="43.5066689" lon="10.7648714"><ele>170.0</ele><time>2026-04-04T12:16:51.932Z</time></trkpt><trkpt lat="43.5065473" lon="10.7650021"><ele>170.0</ele><time>2026-04-04T12:16:52.932Z</time></trkpt><trkpt lat="43.5064289" lon="10.7651265"><ele>170.0</ele><time>2026-04-04T12:16:53.932Z</time></trkpt><trkpt lat="43.5063204" lon="10.7652499"><ele>170.0</ele><time>2026-04-04T12:16:54.932Z</time></trkpt><trkpt lat="43.506219" lon="10.7653583"><ele>170.25</ele><time>2026-04-04T12:16:55.931Z</time></trkpt><trkpt lat="43.5061202" lon="10.7654558"><ele>170.5</ele><time>2026-04-04T12:16:56.931Z</time></trkpt><trkpt lat="43.5060181" lon="10.7655593"><ele>170.75</ele><time>2026-04-04T12:16:57.932Z</time></trkpt><trkpt lat="43.5059352" lon="10.7657043"><ele>171.0</ele><time>2026-04-04T12:16:58.932Z</time></trkpt><trkpt lat="43.5058387" lon="10.7658153"><ele>171.0</ele><time>2026-04-04T12:16:59.931Z</time></trkpt><trkpt lat="43.5057398" lon="10.765925"><ele>171.0</ele><time>2026-04-04T12:17:00.932Z</time></trkpt><trkpt lat="43.5056373" lon="10.7660329"><ele>171.0</ele><time>2026-04-04T12:17:01.932Z</time></trkpt><trkpt lat="43.5055308" lon="10.76614"><ele>171.0</ele><time>2026-04-04T12:17:02.931Z</time></trkpt><trkpt lat="43.5054361" lon="10.7662671"><ele>169.75</ele><time>2026-04-04T12:17:03.931Z</time></trkpt><trkpt lat="43.505349" lon="10.7663846"><ele>168.5</ele><time>2026-04-04T12:17:04.931Z</time></trkpt><trkpt lat="43.5052643" lon="10.7665036"><ele>167.25</ele><time>2026-04-04T12:17:05.931Z</time></trkpt><trkpt lat="43.5051755" lon="10.7666285"><ele>166.0</ele><time>2026-04-04T12:17:06.932Z</time></trkpt><trkpt lat="43.5051245" lon="10.766788"><ele>163.0</ele><time>2026-04-04T12:17:07.932Z</time></trkpt><trkpt lat="43.5050729" lon="10.7669455"><ele>160.0</ele><time>2026-04-04T12:17:08.931Z</time></trkpt><trkpt lat="43.5050231" lon="10.7671263"><ele>157.0</ele><time>2026-04-04T12:17:09.932Z</time></trkpt><trkpt lat="43.5049729" lon="10.7673153"><ele>154.0</ele><time>2026-04-04T12:17:10.932Z</time></trkpt><trkpt lat="43.504922" lon="10.7675171"><ele>152.0</ele><time>2026-04-04T12:17:11.931Z</time></trkpt><trkpt lat="43.5048657" lon="10.7677107"><ele>150.0</ele><time>2026-04-04T12:17:12.931Z</time></trkpt><trkpt lat="43.5048162" lon="10.7678949"><ele>148.0</ele><time>2026-04-04T12:17:13.931Z</time></trkpt><trkpt lat="43.5047714" lon="10.7680748"><ele>146.0</ele><time>2026-04-04T12:17:14.932Z</time></trkpt><trkpt lat="43.5047319" lon="10.7682597"><ele>146.0</ele><time>2026-04-04T12:17:15.931Z</time></trkpt><trkpt lat="43.504679" lon="10.7684103"><ele>146.0</ele><time>2026-04-04T12:17:16.931Z</time></trkpt><trkpt lat="43.5046431" lon="10.7685545"><ele>146.0</ele><time>2026-04-04T12:17:17.932Z</time></trkpt><trkpt lat="43.5046219" lon="10.7687225"><ele>146.0</ele><time>2026-04-04T12:17:18.932Z</time></trkpt><trkpt lat="43.5046201" lon="10.7689009"><ele>147.0</ele><time>2026-04-04T12:17:19.932Z</time></trkpt><trkpt lat="43.5046452" lon="10.769073"><ele>148.0</ele><time>2026-04-04T12:17:20.932Z</time></trkpt><trkpt lat="43.5046981" lon="10.7692412"><ele>149.0</ele><time>2026-04-04T12:17:21.931Z</time></trkpt><trkpt lat="43.504787" lon="10.7693792"><ele>150.0</ele><time>2026-04-04T12:17:22.931Z</time></trkpt><trkpt lat="43.5048808" lon="10.7695144"><ele>152.5</ele><time>2026-04-04T12:17:23.932Z</time></trkpt><trkpt lat="43.5049659" lon="10.7696419"><ele>155.0</ele><time>2026-04-04T12:17:24.932Z</time></trkpt><trkpt lat="43.5050286" lon="10.7697733"><ele>157.5</ele><time>2026-04-04T12:17:25.931Z</time></trkpt><trkpt lat="43.5050602" lon="10.769918"><ele>160.0</ele><time>2026-04-04T12:17:26.931Z</time></trkpt><trkpt lat="43.5050697" lon="10.7700729"><ele>161.25</ele><time>2026-04-04T12:17:27.931Z</time></trkpt><trkpt lat="43.5050651" lon="10.7702376"><ele>162.5</ele><time>2026-04-04T12:17:28.931Z</time></trkpt><trkpt lat="43.5050544" lon="10.770412"><ele>163.75</ele><time>2026-04-04T12:17:29.932Z</time></trkpt><trkpt lat="43.5050385" lon="10.7705969"><ele>165.0</ele><time>2026-04-04T12:17:30.932Z</time></trkpt><trkpt lat="43.5050081" lon="10.7707914"><ele>165.0</ele><time>2026-04-04T12:17:31.931Z</time></trkpt><trkpt lat="43.5049886" lon="10.7709931"><ele>165.0</ele><time>2026-04-04T12:17:32.931Z</time></trkpt><trkpt lat="43.5050063" lon="10.7711967"><ele>165.0</ele><time>2026-04-04T12:17:33.932Z</time></trkpt><trkpt lat="43.505024" lon="10.7714072"><ele>165.33333333333334</ele><time>2026-04-04T12:17:34.931Z</time></trkpt><trkpt lat="43.5050712" lon="10.7716007"><ele>165.66666666666669</ele><time>2026-04-04T12:17:35.931Z</time></trkpt><trkpt lat="43.5051433" lon="10.7718205"><ele>166.0</ele><time>2026-04-04T12:17:36.931Z</time></trkpt><trkpt lat="43.5052187" lon="10.7720192"><ele>164.0</ele><time>2026-04-04T12:17:37.931Z</time></trkpt><trkpt lat="43.5053024" lon="10.772204"><ele>162.0</ele><time>2026-04-04T12:17:38.932Z</time></trkpt><trkpt lat="43.5053844" lon="10.7723925"><ele>160.0</ele><time>2026-04-04T12:17:39.931Z</time></trkpt><trkpt lat="43.5055259" lon="10.772521"><ele>159.33333333333334</ele><time>2026-04-04T12:17:40.931Z</time></trkpt><trkpt lat="43.5056763" lon="10.7726326"><ele>158.66666666666666</ele><time>2026-04-04T12:17:41.932Z</time></trkpt><trkpt lat="43.505829" lon="10.7727398"><ele>158.0</ele><time>2026-04-04T12:17:42.932Z</time></trkpt><trkpt lat="43.5059889" lon="10.7728484"><ele>163.0</ele><time>2026-04-04T12:17:43.931Z</time></trkpt><trkpt lat="43.5061469" lon="10.7729415"><ele>168.0</ele><time>2026-04-04T12:17:44.931Z</time></trkpt><trkpt lat="43.5063097" lon="10.7730158"><ele>173.0</ele><time>2026-04-04T12:17:45.931Z</time></trkpt><trkpt lat="43.5064685" lon="10.7730468"><ele>174.0</ele><time>2026-04-04T12:17:46.931Z</time></trkpt><trkpt lat="43.5066023" lon="10.7730587"><ele>175.0</ele><time>2026-04-04T12:17:47.932Z</time></trkpt><trkpt lat="43.5067284" lon="10.7730704"><ele>176.0</ele><time>2026-04-04T12:17:48.931Z</time></trkpt><trkpt lat="43.506851" lon="10.7731053"><ele>177.0</ele><time>2026-04-04T12:17:49.932Z</time></trkpt><trkpt lat="43.5069615" lon="10.7731808"><ele>177.0</ele><time>2026-04-04T12:17:50.931Z</time></trkpt><trkpt lat="43.507069" lon="10.7732929"><ele>177.0</ele><time>2026-04-04T12:17:51.931Z</time></trkpt><trkpt lat="43.5071797" lon="10.7733801"><ele>177.0</ele><time>2026-04-04T12:17:52.931Z</time></trkpt><trkpt lat="43.5073084" lon="10.7734476"><ele>177.0</ele><time>2026-04-04T12:17:53.931Z</time></trkpt><trkpt lat="43.5074387" lon="10.773474"><ele>177.0</ele><time>2026-04-04T12:17:54.931Z</time></trkpt><trkpt lat="43.5075663" lon="10.7735074"><ele>177.0</ele><time>2026-04-04T12:17:55.931Z</time></trkpt><trkpt lat="43.5076752" lon="10.7734815"><ele>177.0</ele><time>2026-04-04T12:17:56.932Z</time></trkpt><trkpt lat="43.5077794" lon="10.7734777"><ele>177.0</ele><time>2026-04-04T12:17:57.932Z</time></trkpt><trkpt lat="43.5078856" lon="10.7734873"><ele>173.5</ele><time>2026-04-04T12:17:58.931Z</time></trkpt><trkpt lat="43.5079806" lon="10.773524"><ele>170.0</ele><time>2026-04-04T12:17:59.931Z</time></trkpt><trkpt lat="43.5080818" lon="10.7735867"><ele>166.5</ele><time>2026-04-04T12:18:00.932Z</time></trkpt><trkpt lat="43.5081941" lon="10.7736603"><ele>163.0</ele><time>2026-04-04T12:18:01.932Z</time></trkpt><trkpt lat="43.5083136" lon="10.7737348"><ele>163.0</ele><time>2026-04-04T12:18:02.932Z</time></trkpt><trkpt lat="43.5084276" lon="10.7738146"><ele>163.0</ele><time>2026-04-04T12:18:03.932Z</time></trkpt><trkpt lat="43.5085386" lon="10.7738994"><ele>163.0</ele><time>2026-04-04T12:18:04.931Z</time></trkpt><trkpt lat="43.5086435" lon="10.7739764"><ele>163.0</ele><time>2026-04-04T12:18:05.931Z</time></trkpt><trkpt lat="43.5087346" lon="10.774044"><ele>162.16666666666669</ele><time>2026-04-04T12:18:06.931Z</time></trkpt><trkpt lat="43.5088103" lon="10.774114"><ele>161.33333333333334</ele><time>2026-04-04T12:18:07.932Z</time></trkpt><trkpt lat="43.5088489" lon="10.7741964"><ele>160.5</ele><time>2026-04-04T12:18:08.931Z</time></trkpt><trkpt lat="43.5088596" lon="10.7742959"><ele>159.66666666666666</ele><time>2026-04-04T12:18:09.932Z</time></trkpt><trkpt lat="43.5088297" lon="10.7743922"><ele>158.83333333333331</ele><time>2026-04-04T12:18:10.931Z</time></trkpt><trkpt lat="43.5087961" lon="10.774497"><ele>158.0</ele><time>2026-04-04T12:18:11.932Z</time></trkpt><trkpt lat="43.5088123" lon="10.7746105"><ele>158.0</ele><time>2026-04-04T12:18:12.931Z</time></trkpt><trkpt lat="43.5088687" lon="10.7747151"><ele>158.0</ele><time>2026-04-04T12:18:13.932Z</time></trkpt><trkpt lat="43.5089519" lon="10.7748043"><ele>158.0</ele><time>2026-04-04T12:18:14.931Z</time></trkpt><trkpt lat="43.5090444" lon="10.7748716"><ele>158.0</ele><time>2026-04-04T12:18:15.932Z</time></trkpt><trkpt lat="43.509135" lon="10.7748738"><ele>158.0</ele><time>2026-04-04T12:18:16.932Z</time></trkpt><trkpt lat="43.5092248" lon="10.7748163"><ele>158.0</ele><time>2026-04-04T12:18:17.932Z</time></trkpt><trkpt lat="43.5093199" lon="10.7747238"><ele>158.0</ele><time>2026-04-04T12:18:18.932Z</time></trkpt><trkpt lat="43.5094202" lon="10.7746461"><ele>158.0</ele><time>2026-04-04T12:18:19.931Z</time></trkpt><trkpt lat="43.5095144" lon="10.774604"><ele>158.0</ele><time>2026-04-04T12:18:20.932Z</time></trkpt><trkpt lat="43.5095847" lon="10.7746033"><ele>158.0</ele><time>2026-04-04T12:18:21.932Z</time></trkpt><trkpt lat="43.5096713" lon="10.7746718"><ele>158.0</ele><time>2026-04-04T12:18:23.931Z</time></trkpt><trkpt lat="43.5096343" lon="10.774802"><ele>158.0</ele><time>2026-04-04T12:18:24.931Z</time></trkpt><trkpt lat="43.5096107" lon="10.7749045"><ele>158.0</ele><time>2026-04-04T12:18:25.932Z</time></trkpt><trkpt lat="43.5095473" lon="10.7750342"><ele>158.0</ele><time>2026-04-04T12:18:26.931Z</time></trkpt><trkpt lat="43.5094997" lon="10.7751545"><ele>158.0</ele><time>2026-04-04T12:18:27.931Z</time></trkpt><trkpt lat="43.5094713" lon="10.7752508"><ele>154.66666666666666</ele><time>2026-04-04T12:18:28.932Z</time></trkpt><trkpt lat="43.5094701" lon="10.7753409"><ele>151.33333333333331</ele><time>2026-04-04T12:18:29.931Z</time></trkpt><trkpt lat="43.5095107" lon="10.7754231"><ele>148.0</ele><time>2026-04-04T12:18:30.931Z</time></trkpt><trkpt lat="43.5095818" lon="10.7754727"><ele>144.66666666666666</ele><time>2026-04-04T12:18:31.932Z</time></trkpt><trkpt lat="43.5096778" lon="10.7755179"><ele>141.33333333333334</ele><time>2026-04-04T12:18:32.932Z</time></trkpt><trkpt lat="43.5097713" lon="10.7755862"><ele>138.0</ele><time>2026-04-04T12:18:33.932Z</time></trkpt><trkpt lat="43.5098548" lon="10.7756964"><ele>138.0</ele><time>2026-04-04T12:18:34.932Z</time></trkpt><trkpt lat="43.5099375" lon="10.7758585"><ele>138.0</ele><time>2026-04-04T12:18:35.932Z</time></trkpt><trkpt lat="43.5100343" lon="10.7760165"><ele>138.0</ele><time>2026-04-04T12:18:36.931Z</time></trkpt><trkpt lat="43.5101382" lon="10.7761649"><ele>138.0</ele><time>2026-04-04T12:18:37.931Z</time></trkpt><trkpt lat="43.5102474" lon="10.7763015"><ele>135.33333333333334</ele><time>2026-04-04T12:18:38.932Z</time></trkpt><trkpt lat="43.5103617" lon="10.7764379"><ele>132.66666666666669</ele><time>2026-04-04T12:18:39.931Z</time></trkpt><trkpt lat="43.5104649" lon="10.7765924"><ele>130.0</ele><time>2026-04-04T12:18:40.931Z</time></trkpt><trkpt lat="43.5105569" lon="10.776753"><ele>130.25</ele><time>2026-04-04T12:18:41.932Z</time></trkpt><trkpt lat="43.5106481" lon="10.7769111"><ele>130.5</ele><time>2026-04-04T12:18:42.931Z</time></trkpt><trkpt lat="43.5107388" lon="10.7770675"><ele>130.75</ele><time>2026-04-04T12:18:43.932Z</time></trkpt><trkpt lat="43.5108305" lon="10.7772287"><ele>131.0</ele><time>2026-04-04T12:18:44.932Z</time></trkpt><trkpt lat="43.5109299" lon="10.777387"><ele>131.0</ele><time>2026-04-04T12:18:45.932Z</time></trkpt><trkpt lat="43.5110274" lon="10.7775313"><ele>131.0</ele><time>2026-04-04T12:18:46.931Z</time></trkpt><trkpt lat="43.511114" lon="10.7776688"><ele>131.0</ele><time>2026-04-04T12:18:47.932Z</time></trkpt><trkpt lat="43.5111984" lon="10.7777989"><ele>131.0</ele><time>2026-04-04T12:18:48.932Z</time></trkpt><trkpt lat="43.5112862" lon="10.7779178"><ele>130.0</ele><time>2026-04-04T12:18:49.931Z</time></trkpt><trkpt lat="43.5113718" lon="10.7780417"><ele>129.0</ele><time>2026-04-04T12:18:50.932Z</time></trkpt><trkpt lat="43.5114613" lon="10.7781618"><ele>128.0</ele><time>2026-04-04T12:18:51.931Z</time></trkpt><trkpt lat="43.5115458" lon="10.7782774"><ele>127.0</ele><time>2026-04-04T12:18:52.931Z</time></trkpt><trkpt lat="43.5116292" lon="10.7783899"><ele>127.0</ele><time>2026-04-04T12:18:53.931Z</time></trkpt><trkpt lat="43.5116942" lon="10.7785081"><ele>126.99999999999999</ele><time>2026-04-04T12:18:54.931Z</time></trkpt><trkpt lat="43.5117555" lon="10.7786264"><ele>126.99999999999999</ele><time>2026-04-04T12:18:55.931Z</time></trkpt><trkpt lat="43.5118202" lon="10.7787557"><ele>127.0</ele><time>2026-04-04T12:18:56.932Z</time></trkpt><trkpt lat="43.5118926" lon="10.778886"><ele>127.0</ele><time>2026-04-04T12:18:57.932Z</time></trkpt><trkpt lat="43.5119895" lon="10.7790181"><ele>125.25</ele><time>2026-04-04T12:18:58.931Z</time></trkpt><trkpt lat="43.5120894" lon="10.7791609"><ele>123.5</ele><time>2026-04-04T12:18:59.932Z</time></trkpt><trkpt lat="43.512201" lon="10.7792978"><ele>121.75</ele><time>2026-04-04T12:19:00.931Z</time></trkpt><trkpt lat="43.5122964" lon="10.7794424"><ele>120.0</ele><time>2026-04-04T12:19:01.931Z</time></trkpt><trkpt lat="43.5123908" lon="10.7795819"><ele>120.0</ele><time>2026-04-04T12:19:02.932Z</time></trkpt><trkpt lat="43.5124938" lon="10.7797042"><ele>120.0</ele><time>2026-04-04T12:19:03.932Z</time></trkpt><trkpt lat="43.5125847" lon="10.7798219"><ele>120.0</ele><time>2026-04-04T12:19:04.932Z</time></trkpt><trkpt lat="43.5126649" lon="10.7799375"><ele>120.0</ele><time>2026-04-04T12:19:05.931Z</time></trkpt><trkpt lat="43.5127422" lon="10.7800491"><ele>120.0</ele><time>2026-04-04T12:19:06.931Z</time></trkpt><trkpt lat="43.5128211" lon="10.7801512"><ele>120.0</ele><time>2026-04-04T12:19:07.932Z</time></trkpt><trkpt lat="43.5129045" lon="10.7802662"><ele>120.0</ele><time>2026-04-04T12:19:08.932Z</time></trkpt><trkpt lat="43.5129844" lon="10.7803785"><ele>120.0</ele><time>2026-04-04T12:19:09.932Z</time></trkpt><trkpt lat="43.5130627" lon="10.7804882"><ele>118.6</ele><time>2026-04-04T12:19:10.931Z</time></trkpt><trkpt lat="43.5131393" lon="10.7805842"><ele>117.2</ele><time>2026-04-04T12:19:11.931Z</time></trkpt><trkpt lat="43.5132285" lon="10.7806597"><ele>115.80000000000001</ele><time>2026-04-04T12:19:12.932Z</time></trkpt><trkpt lat="43.5133282" lon="10.7806957"><ele>114.4</ele><time>2026-04-04T12:19:13.932Z</time></trkpt><trkpt lat="43.5134375" lon="10.7807411"><ele>113.0</ele><time>2026-04-04T12:19:14.931Z</time></trkpt><trkpt lat="43.513565" lon="10.7807906"><ele>113.0</ele><time>2026-04-04T12:19:15.931Z</time></trkpt><trkpt lat="43.513666" lon="10.7808681"><ele>113.0</ele><time>2026-04-04T12:19:16.931Z</time></trkpt><trkpt lat="43.5137558" lon="10.7809721"><ele>113.0</ele><time>2026-04-04T12:19:17.931Z</time></trkpt><trkpt lat="43.5138504" lon="10.781107"><ele>113.0</ele><time>2026-04-04T12:19:18.931Z</time></trkpt><trkpt lat="43.5139542" lon="10.7812692"><ele>111.33333333333333</ele><time>2026-04-04T12:19:19.931Z</time></trkpt><trkpt lat="43.5140582" lon="10.7814446"><ele>109.66666666666666</ele><time>2026-04-04T12:19:20.932Z</time></trkpt><trkpt lat="43.5141499" lon="10.7816454"><ele>108.0</ele><time>2026-04-04T12:19:21.932Z</time></trkpt><trkpt lat="43.5142302" lon="10.7818536"><ele>108.0</ele><time>2026-04-04T12:19:22.931Z</time></trkpt><trkpt lat="43.5142953" lon="10.7820643"><ele>108.0</ele><time>2026-04-04T12:19:23.931Z</time></trkpt><trkpt lat="43.5143484" lon="10.7822763"><ele>108.0</ele><time>2026-04-04T12:19:24.931Z</time></trkpt><trkpt lat="43.5144012" lon="10.7825023"><ele>109.33333333333334</ele><time>2026-04-04T12:19:25.931Z</time></trkpt><trkpt lat="43.514445" lon="10.7827233"><ele>110.66666666666667</ele><time>2026-04-04T12:19:26.931Z</time></trkpt><trkpt lat="43.5144887" lon="10.7829349"><ele>112.0</ele><time>2026-04-04T12:19:27.931Z</time></trkpt><trkpt lat="43.5145298" lon="10.7831385"><ele>111.66666666666667</ele><time>2026-04-04T12:19:28.931Z</time></trkpt><trkpt lat="43.5145854" lon="10.783338"><ele>111.33333333333334</ele><time>2026-04-04T12:19:29.932Z</time></trkpt><trkpt lat="43.5146567" lon="10.7835385"><ele>111.0</ele><time>2026-04-04T12:19:30.932Z</time></trkpt><trkpt lat="43.5147257" lon="10.783728"><ele>111.0</ele><time>2026-04-04T12:19:31.931Z</time></trkpt><trkpt lat="43.5147925" lon="10.7839061"><ele>111.0</ele><time>2026-04-04T12:19:32.932Z</time></trkpt><trkpt lat="43.514863" lon="10.7840777"><ele>111.0</ele><time>2026-04-04T12:19:33.932Z</time></trkpt><trkpt lat="43.5149334" lon="10.7842515"><ele>111.0</ele><time>2026-04-04T12:19:34.931Z</time></trkpt><trkpt lat="43.5150052" lon="10.7844214"><ele>109.5</ele><time>2026-04-04T12:19:35.932Z</time></trkpt><trkpt lat="43.5150652" lon="10.7845845"><ele>108.0</ele><time>2026-04-04T12:19:36.932Z</time></trkpt><trkpt lat="43.5151282" lon="10.7847386"><ele>106.5</ele><time>2026-04-04T12:19:37.931Z</time></trkpt><trkpt lat="43.5152095" lon="10.7848829"><ele>105.0</ele><time>2026-04-04T12:19:38.931Z</time></trkpt><trkpt lat="43.5153043" lon="10.7850129"><ele>104.75</ele><time>2026-04-04T12:19:39.931Z</time></trkpt><trkpt lat="43.5154124" lon="10.7851391"><ele>104.5</ele><time>2026-04-04T12:19:40.931Z</time></trkpt><trkpt lat="43.5155157" lon="10.7852605"><ele>104.25</ele><time>2026-04-04T12:19:41.931Z</time></trkpt><trkpt lat="43.5156157" lon="10.7853849"><ele>104.0</ele><time>2026-04-04T12:19:42.931Z</time></trkpt><trkpt lat="43.5157187" lon="10.785497"><ele>104.6</ele><time>2026-04-04T12:19:43.931Z</time></trkpt><trkpt lat="43.5158168" lon="10.7856145"><ele>105.2</ele><time>2026-04-04T12:19:44.932Z</time></trkpt><trkpt lat="43.5158969" lon="10.7857361"><ele>105.79999999999998</ele><time>2026-04-04T12:19:45.932Z</time></trkpt><trkpt lat="43.5159577" lon="10.7858609"><ele>106.39999999999999</ele><time>2026-04-04T12:19:46.932Z</time></trkpt><trkpt lat="43.5159905" lon="10.7859784"><ele>107.0</ele><time>2026-04-04T12:19:47.932Z</time></trkpt><trkpt lat="43.5160018" lon="10.7860941"><ele>105.19999999999999</ele><time>2026-04-04T12:19:48.931Z</time></trkpt><trkpt lat="43.515983" lon="10.786203"><ele>103.39999999999999</ele><time>2026-04-04T12:19:49.932Z</time></trkpt><trkpt lat="43.5159273" lon="10.7862773"><ele>101.6</ele><time>2026-04-04T12:19:50.931Z</time></trkpt><trkpt lat="43.5158494" lon="10.7863078"><ele>99.80000000000001</ele><time>2026-04-04T12:19:51.931Z</time></trkpt><trkpt lat="43.5157532" lon="10.7862893"><ele>98.0</ele><time>2026-04-04T12:19:52.931Z</time></trkpt><trkpt lat="43.5156395" lon="10.7862513"><ele>98.0</ele><time>2026-04-04T12:19:53.931Z</time></trkpt><trkpt lat="43.5155097" lon="10.7862099"><ele>98.0</ele><time>2026-04-04T12:19:54.932Z</time></trkpt><trkpt lat="43.5153799" lon="10.7861679"><ele>98.0</ele><time>2026-04-04T12:19:55.931Z</time></trkpt><trkpt lat="43.5152517" lon="10.7861297"><ele>98.0</ele><time>2026-04-04T12:19:56.932Z</time></trkpt><trkpt lat="43.5151244" lon="10.7860912"><ele>98.0</ele><time>2026-04-04T12:19:57.932Z</time></trkpt><trkpt lat="43.5150007" lon="10.7860474"><ele>98.0</ele><time>2026-04-04T12:19:58.931Z</time></trkpt><trkpt lat="43.514888" lon="10.7860034"><ele>98.0</ele><time>2026-04-04T12:19:59.932Z</time></trkpt><trkpt lat="43.514782" lon="10.7859621"><ele>98.0</ele><time>2026-04-04T12:20:00.931Z</time></trkpt><trkpt lat="43.5146821" lon="10.7859329"><ele>98.0</ele><time>2026-04-04T12:20:01.932Z</time></trkpt><trkpt lat="43.5145837" lon="10.7859435"><ele>98.0</ele><time>2026-04-04T12:20:02.931Z</time></trkpt><trkpt lat="43.5144897" lon="10.7860127"><ele>98.0</ele><time>2026-04-04T12:20:03.932Z</time></trkpt><trkpt lat="43.5143979" lon="10.7861338"><ele>98.0</ele><time>2026-04-04T12:20:04.932Z</time></trkpt><trkpt lat="43.5143125" lon="10.7862706"><ele>94.0</ele><time>2026-04-04T12:20:05.932Z</time></trkpt><trkpt lat="43.5142318" lon="10.7864148"><ele>90.0</ele><time>2026-04-04T12:20:06.931Z</time></trkpt><trkpt lat="43.5141513" lon="10.7865542"><ele>86.0</ele><time>2026-04-04T12:20:07.932Z</time></trkpt><trkpt lat="43.5140735" lon="10.7866787"><ele>82.0</ele><time>2026-04-04T12:20:08.931Z</time></trkpt><trkpt lat="43.5140057" lon="10.7868126"><ele>81.0</ele><time>2026-04-04T12:20:09.932Z</time></trkpt><trkpt lat="43.5139507" lon="10.7869788"><ele>80.0</ele><time>2026-04-04T12:20:10.931Z</time></trkpt><trkpt lat="43.5139128" lon="10.7871737"><ele>79.0</ele><time>2026-04-04T12:20:11.932Z</time></trkpt><trkpt lat="43.5138812" lon="10.787373"><ele>78.0</ele><time>2026-04-04T12:20:12.931Z</time></trkpt><trkpt lat="43.5138488" lon="10.787569"><ele>76.75</ele><time>2026-04-04T12:20:13.931Z</time></trkpt><trkpt lat="43.5138217" lon="10.7877469"><ele>75.5</ele><time>2026-04-04T12:20:14.931Z</time></trkpt><trkpt lat="43.513805" lon="10.7879118"><ele>74.25</ele><time>2026-04-04T12:20:15.931Z</time></trkpt><trkpt lat="43.5138089" lon="10.7880782"><ele>73.0</ele><time>2026-04-04T12:20:16.932Z</time></trkpt><trkpt lat="43.5138429" lon="10.7882512"><ele>73.0</ele><time>2026-04-04T12:20:17.932Z</time></trkpt><trkpt lat="43.5139013" lon="10.7884273"><ele>73.0</ele><time>2026-04-04T12:20:18.931Z</time></trkpt><trkpt lat="43.5139784" lon="10.7886157"><ele>73.0</ele><time>2026-04-04T12:20:19.932Z</time></trkpt><trkpt lat="43.5140634" lon="10.7888183"><ele>72.66666666666666</ele><time>2026-04-04T12:20:20.931Z</time></trkpt><trkpt lat="43.5141408" lon="10.7890116"><ele>72.33333333333333</ele><time>2026-04-04T12:20:21.932Z</time></trkpt><trkpt lat="43.5142144" lon="10.7891949"><ele>72.0</ele><time>2026-04-04T12:20:22.932Z</time></trkpt><trkpt lat="43.5142796" lon="10.7893663"><ele>72.0</ele><time>2026-04-04T12:20:23.932Z</time></trkpt><trkpt lat="43.5143448" lon="10.7895222"><ele>72.0</ele><time>2026-04-04T12:20:24.931Z</time></trkpt><trkpt lat="43.5144012" lon="10.7896659"><ele>72.0</ele><time>2026-04-04T12:20:25.932Z</time></trkpt><trkpt lat="43.5144437" lon="10.7897838"><ele>72.0</ele><time>2026-04-04T12:20:26.932Z</time></trkpt><trkpt lat="43.5144761" lon="10.7898733"><ele>72.0</ele><time>2026-04-04T12:20:27.932Z</time></trkpt><trkpt lat="43.5144933" lon="10.78996"><ele>71.8</ele><time>2026-04-04T12:20:32.932Z</time></trkpt><trkpt lat="43.5145762" lon="10.7900267"><ele>71.6</ele><time>2026-04-04T12:20:34.931Z</time></trkpt><trkpt lat="43.5146508" lon="10.7900365"><ele>71.39999999999999</ele><time>2026-04-04T12:20:35.931Z</time></trkpt><trkpt lat="43.5147435" lon="10.7900379"><ele>71.2</ele><time>2026-04-04T12:20:36.931Z</time></trkpt><trkpt lat="43.5148559" lon="10.7900467"><ele>71.0</ele><time>2026-04-04T12:20:37.932Z</time></trkpt><trkpt lat="43.5149828" lon="10.7900621"><ele>71.0</ele><time>2026-04-04T12:20:38.931Z</time></trkpt><trkpt lat="43.5151304" lon="10.7900822"><ele>71.0</ele><time>2026-04-04T12:20:39.931Z</time></trkpt><trkpt lat="43.5152956" lon="10.7901024"><ele>71.0</ele><time>2026-04-04T12:20:40.931Z</time></trkpt><trkpt lat="43.515466" lon="10.7901262"><ele>71.0</ele><time>2026-04-04T12:20:41.931Z</time></trkpt><trkpt lat="43.5156593" lon="10.7901519"><ele>71.0</ele><time>2026-04-04T12:20:42.932Z</time></trkpt><trkpt lat="43.5158571" lon="10.7901797"><ele>71.0</ele><time>2026-04-04T12:20:43.931Z</time></trkpt><trkpt lat="43.5160618" lon="10.7902158"><ele>71.66666666666667</ele><time>2026-04-04T12:20:44.931Z</time></trkpt><trkpt lat="43.5162764" lon="10.7902459"><ele>72.33333333333333</ele><time>2026-04-04T12:20:45.931Z</time></trkpt><trkpt lat="43.5164979" lon="10.7902774"><ele>73.0</ele><time>2026-04-04T12:20:46.932Z</time></trkpt><trkpt lat="43.516723" lon="10.7903177"><ele>73.0</ele><time>2026-04-04T12:20:47.931Z</time></trkpt><trkpt lat="43.5169392" lon="10.7903547"><ele>73.0</ele><time>2026-04-04T12:20:48.931Z</time></trkpt><trkpt lat="43.517144" lon="10.7903876"><ele>73.0</ele><time>2026-04-04T12:20:49.931Z</time></trkpt><trkpt lat="43.5173402" lon="10.7904211"><ele>72.33333333333333</ele><time>2026-04-04T12:20:50.932Z</time></trkpt><trkpt lat="43.5175295" lon="10.7904543"><ele>71.66666666666667</ele><time>2026-04-04T12:20:51.932Z</time></trkpt><trkpt lat="43.5177065" lon="10.7904802"><ele>71.0</ele><time>2026-04-04T12:20:52.931Z</time></trkpt><trkpt lat="43.5178767" lon="10.7904827"><ele>71.0</ele><time>2026-04-04T12:20:53.932Z</time></trkpt><trkpt lat="43.518039" lon="10.7904496"><ele>71.0</ele><time>2026-04-04T12:20:54.931Z</time></trkpt><trkpt lat="43.5181969" lon="10.7903799"><ele>71.0</ele><time>2026-04-04T12:20:55.931Z</time></trkpt><trkpt lat="43.518344" lon="10.7903026"><ele>71.33333333333334</ele><time>2026-04-04T12:20:56.932Z</time></trkpt><trkpt lat="43.5184882" lon="10.7901592"><ele>71.66666666666667</ele><time>2026-04-04T12:20:57.931Z</time></trkpt><trkpt lat="43.5186295" lon="10.7900064"><ele>72.0</ele><time>2026-04-04T12:20:58.931Z</time></trkpt><trkpt lat="43.5187723" lon="10.7898631"><ele>72.0</ele><time>2026-04-04T12:20:59.931Z</time></trkpt><trkpt lat="43.5189073" lon="10.7897232"><ele>72.0</ele><time>2026-04-04T12:21:00.932Z</time></trkpt><trkpt lat="43.5190387" lon="10.7895903"><ele>72.0</ele><time>2026-04-04T12:21:01.932Z</time></trkpt><trkpt lat="43.5191706" lon="10.7894576"><ele>72.0</ele><time>2026-04-04T12:21:02.932Z</time></trkpt><trkpt lat="43.5193056" lon="10.789322"><ele>72.0</ele><time>2026-04-04T12:21:03.931Z</time></trkpt><trkpt lat="43.5194313" lon="10.7891825"><ele>72.0</ele><time>2026-04-04T12:21:04.931Z</time></trkpt><trkpt lat="43.5195484" lon="10.7890259"><ele>71.66666666666667</ele><time>2026-04-04T12:21:05.932Z</time></trkpt><trkpt lat="43.5196542" lon="10.7888457"><ele>71.33333333333334</ele><time>2026-04-04T12:21:06.932Z</time></trkpt><trkpt lat="43.5197568" lon="10.7886613"><ele>71.0</ele><time>2026-04-04T12:21:07.931Z</time></trkpt><trkpt lat="43.5198562" lon="10.7884756"><ele>71.0</ele><time>2026-04-04T12:21:08.931Z</time></trkpt><trkpt lat="43.5199554" lon="10.7882885"><ele>71.0</ele><time>2026-04-04T12:21:09.931Z</time></trkpt><trkpt lat="43.5200533" lon="10.7880959"><ele>71.0</ele><time>2026-04-04T12:21:10.931Z</time></trkpt><trkpt lat="43.5201529" lon="10.7879067"><ele>71.0</ele><time>2026-04-04T12:21:11.931Z</time></trkpt><trkpt lat="43.5202533" lon="10.7877192"><ele>71.0</ele><time>2026-04-04T12:21:12.931Z</time></trkpt><trkpt lat="43.5203539" lon="10.7875328"><ele>71.0</ele><time>2026-04-04T12:21:13.931Z</time></trkpt><trkpt lat="43.5204507" lon="10.7873482"><ele>70.33333333333334</ele><time>2026-04-04T12:21:14.931Z</time></trkpt><trkpt lat="43.5205523" lon="10.7871671"><ele>69.66666666666667</ele><time>2026-04-04T12:21:15.931Z</time></trkpt><trkpt lat="43.5206499" lon="10.7869784"><ele>69.0</ele><time>2026-04-04T12:21:16.931Z</time></trkpt><trkpt lat="43.5207511" lon="10.7867947"><ele>69.0</ele><time>2026-04-04T12:21:17.932Z</time></trkpt><trkpt lat="43.5208543" lon="10.7866101"><ele>69.0</ele><time>2026-04-04T12:21:18.931Z</time></trkpt><trkpt lat="43.5209551" lon="10.7864301"><ele>69.0</ele><time>2026-04-04T12:21:19.932Z</time></trkpt><trkpt lat="43.5210483" lon="10.7862584"><ele>69.0</ele><time>2026-04-04T12:21:20.931Z</time></trkpt><trkpt lat="43.5211481" lon="10.786108"><ele>69.0</ele><time>2026-04-04T12:21:21.931Z</time></trkpt><trkpt lat="43.5212551" lon="10.7859851"><ele>69.0</ele><time>2026-04-04T12:21:22.931Z</time></trkpt><trkpt lat="43.5213701" lon="10.7858826"><ele>69.0</ele><time>2026-04-04T12:21:23.931Z</time></trkpt><trkpt lat="43.5214992" lon="10.785793"><ele>68.33333333333333</ele><time>2026-04-04T12:21:24.931Z</time></trkpt><trkpt lat="43.521633" lon="10.785708"><ele>67.66666666666666</ele><time>2026-04-04T12:21:25.931Z</time></trkpt><trkpt lat="43.521769" lon="10.7856219"><ele>67.0</ele><time>2026-04-04T12:21:26.932Z</time></trkpt><trkpt lat="43.5219147" lon="10.7855266"><ele>67.0</ele><time>2026-04-04T12:21:27.932Z</time></trkpt><trkpt lat="43.5220245" lon="10.7854605"><ele>67.0</ele><time>2026-04-04T12:21:28.932Z</time></trkpt><trkpt lat="43.5221244" lon="10.7854021"><ele>67.0</ele><time>2026-04-04T12:21:29.931Z</time></trkpt><trkpt lat="43.522205" lon="10.78535"><ele>67.0</ele><time>2026-04-04T12:21:30.932Z</time></trkpt><trkpt lat="43.522265" lon="10.7853172"><ele>67.0</ele><time>2026-04-04T12:21:31.931Z</time></trkpt><trkpt lat="43.5223549" lon="10.7853008"><ele>67.33333333333333</ele><time>2026-04-04T12:21:34.931Z</time></trkpt><trkpt lat="43.5224155" lon="10.7853653"><ele>67.66666666666666</ele><time>2026-04-04T12:21:55.932Z</time></trkpt><trkpt lat="43.5224946" lon="10.7854919"><ele>68.0</ele><time>2026-04-04T12:21:57.931Z</time></trkpt><trkpt lat="43.5225346" lon="10.785578"><ele>68.33333333333333</ele><time>2026-04-04T12:21:58.932Z</time></trkpt><trkpt lat="43.522562" lon="10.7856766"><ele>68.66666666666667</ele><time>2026-04-04T12:21:59.932Z</time></trkpt><trkpt lat="43.5225776" lon="10.7857894"><ele>69.0</ele><time>2026-04-04T12:22:00.931Z</time></trkpt><trkpt lat="43.522582" lon="10.7859194"><ele>69.2</ele><time>2026-04-04T12:22:01.931Z</time></trkpt><trkpt lat="43.5225872" lon="10.7860522"><ele>69.4</ele><time>2026-04-04T12:22:02.931Z</time></trkpt><trkpt lat="43.5225822" lon="10.7861888"><ele>69.6</ele><time>2026-04-04T12:22:03.931Z</time></trkpt><trkpt lat="43.5225831" lon="10.7863327"><ele>69.8</ele><time>2026-04-04T12:22:04.932Z</time></trkpt><trkpt lat="43.5225852" lon="10.7864741"><ele>70.0</ele><time>2026-04-04T12:22:05.932Z</time></trkpt><trkpt lat="43.5225928" lon="10.7866153"><ele>70.0</ele><time>2026-04-04T12:22:06.931Z</time></trkpt><trkpt lat="43.5226087" lon="10.78676"><ele>70.0</ele><time>2026-04-04T12:22:07.931Z</time></trkpt><trkpt lat="43.5226273" lon="10.7869097"><ele>70.0</ele><time>2026-04-04T12:22:08.932Z</time></trkpt><trkpt lat="43.5226501" lon="10.7870574"><ele>70.0</ele><time>2026-04-04T12:22:09.932Z</time></trkpt><trkpt lat="43.5226764" lon="10.7872132"><ele>70.0</ele><time>2026-04-04T12:22:10.931Z</time></trkpt><trkpt lat="43.5227012" lon="10.7873646"><ele>70.4</ele><time>2026-04-04T12:22:11.932Z</time></trkpt><trkpt lat="43.5227249" lon="10.7875051"><ele>70.8</ele><time>2026-04-04T12:22:12.932Z</time></trkpt><trkpt lat="43.5227451" lon="10.7876575"><ele>71.2</ele><time>2026-04-04T12:22:13.932Z</time></trkpt><trkpt lat="43.5227652" lon="10.7878116"><ele>71.6</ele><time>2026-04-04T12:22:14.931Z</time></trkpt><trkpt lat="43.5227834" lon="10.7879598"><ele>72.0</ele><time>2026-04-04T12:22:15.931Z</time></trkpt><trkpt lat="43.5228043" lon="10.7881103"><ele>72.4</ele><time>2026-04-04T12:22:16.931Z</time></trkpt><trkpt lat="43.5228273" lon="10.7882524"><ele>72.80000000000001</ele><time>2026-04-04T12:22:17.931Z</time></trkpt><trkpt lat="43.5228478" lon="10.7883985"><ele>73.2</ele><time>2026-04-04T12:22:18.932Z</time></trkpt><trkpt lat="43.5228668" lon="10.7885349"><ele>73.60000000000001</ele><time>2026-04-04T12:22:19.932Z</time></trkpt><trkpt lat="43.5228832" lon="10.7886704"><ele>74.0</ele><time>2026-04-04T12:22:20.932Z</time></trkpt><trkpt lat="43.5229007" lon="10.7888022"><ele>76.0</ele><time>2026-04-04T12:22:21.932Z</time></trkpt><trkpt lat="43.5229208" lon="10.7889346"><ele>78.0</ele><time>2026-04-04T12:22:22.931Z</time></trkpt><trkpt lat="43.5229381" lon="10.7890611"><ele>80.0</ele><time>2026-04-04T12:22:23.931Z</time></trkpt><trkpt lat="43.5229532" lon="10.7891865"><ele>82.0</ele><time>2026-04-04T12:22:24.932Z</time></trkpt><trkpt lat="43.522971" lon="10.7893108"><ele>84.0</ele><time>2026-04-04T12:22:25.931Z</time></trkpt><trkpt lat="43.5229927" lon="10.7894315"><ele>85.2</ele><time>2026-04-04T12:22:26.931Z</time></trkpt><trkpt lat="43.5230141" lon="10.789551"><ele>86.4</ele><time>2026-04-04T12:22:27.932Z</time></trkpt><trkpt lat="43.5230378" lon="10.7896646"><ele>87.6</ele><time>2026-04-04T12:22:28.931Z</time></trkpt><trkpt lat="43.5230624" lon="10.789773"><ele>88.8</ele><time>2026-04-04T12:22:29.931Z</time></trkpt><trkpt lat="43.5230861" lon="10.7898667"><ele>90.0</ele><time>2026-04-04T12:22:30.931Z</time></trkpt><trkpt lat="43.5231115" lon="10.7900292"><ele>91.4</ele><time>2026-04-04T12:22:32.932Z</time></trkpt><trkpt lat="43.5231373" lon="10.7902193"><ele>92.8</ele><time>2026-04-04T12:22:34.932Z</time></trkpt><trkpt lat="43.5231516" lon="10.7903406"><ele>94.19999999999999</ele><time>2026-04-04T12:22:35.932Z</time></trkpt><trkpt lat="43.5231705" lon="10.7904631"><ele>95.6</ele><time>2026-04-04T12:22:36.931Z</time></trkpt><trkpt lat="43.5231857" lon="10.7905876"><ele>97.0</ele><time>2026-04-04T12:22:37.932Z</time></trkpt><trkpt lat="43.5232022" lon="10.7907099"><ele>97.00000000000001</ele><time>2026-04-04T12:22:38.932Z</time></trkpt><trkpt lat="43.5232166" lon="10.7908361"><ele>97.0</ele><time>2026-04-04T12:22:39.932Z</time></trkpt><trkpt lat="43.5232443" lon="10.790952"><ele>97.0</ele><time>2026-04-04T12:22:40.931Z</time></trkpt><trkpt lat="43.5232842" lon="10.7910607"><ele>97.0</ele><time>2026-04-04T12:22:41.932Z</time></trkpt><trkpt lat="43.5233338" lon="10.7911515"><ele>97.00000000000001</ele><time>2026-04-04T12:22:42.931Z</time></trkpt><trkpt lat="43.5233945" lon="10.7912324"><ele>97.0</ele><time>2026-04-04T12:22:43.932Z</time></trkpt><trkpt lat="43.5234531" lon="10.7913155"><ele>96.33333333333334</ele><time>2026-04-04T12:22:44.931Z</time></trkpt><trkpt lat="43.523511" lon="10.7913981"><ele>95.66666666666667</ele><time>2026-04-04T12:22:45.931Z</time></trkpt><trkpt lat="43.5235705" lon="10.7914861"><ele>95.0</ele><time>2026-04-04T12:22:46.931Z</time></trkpt><trkpt lat="43.5236257" lon="10.7915767"><ele>94.33333333333334</ele><time>2026-04-04T12:22:47.932Z</time></trkpt><trkpt lat="43.5236736" lon="10.791671"><ele>93.66666666666667</ele><time>2026-04-04T12:22:48.932Z</time></trkpt><trkpt lat="43.5236941" lon="10.7917836"><ele>93.0</ele><time>2026-04-04T12:22:49.932Z</time></trkpt><trkpt lat="43.5237022" lon="10.7918959"><ele>93.0</ele><time>2026-04-04T12:22:50.932Z</time></trkpt><trkpt lat="43.5237004" lon="10.7920056"><ele>93.0</ele><time>2026-04-04T12:22:51.932Z</time></trkpt><trkpt lat="43.5236938" lon="10.792119"><ele>93.0</ele><time>2026-04-04T12:22:52.931Z</time></trkpt><trkpt lat="43.5236798" lon="10.7922352"><ele>93.0</ele><time>2026-04-04T12:22:53.932Z</time></trkpt><trkpt lat="43.5236536" lon="10.7923519"><ele>93.0</ele><time>2026-04-04T12:22:54.931Z</time></trkpt><trkpt lat="43.5236185" lon="10.7924787"><ele>93.0</ele><time>2026-04-04T12:22:55.932Z</time></trkpt><trkpt lat="43.5235757" lon="10.7926178"><ele>93.75</ele><time>2026-04-04T12:22:56.932Z</time></trkpt><trkpt lat="43.5235447" lon="10.792761"><ele>94.5</ele><time>2026-04-04T12:22:57.931Z</time></trkpt><trkpt lat="43.5235238" lon="10.7929204"><ele>95.25</ele><time>2026-04-04T12:22:58.931Z</time></trkpt><trkpt lat="43.5235125" lon="10.7930986"><ele>96.0</ele><time>2026-04-04T12:22:59.932Z</time></trkpt><trkpt lat="43.5235076" lon="10.7932795"><ele>96.0</ele><time>2026-04-04T12:23:00.931Z</time></trkpt><trkpt lat="43.523513" lon="10.7934584"><ele>96.0</ele><time>2026-04-04T12:23:01.931Z</time></trkpt><trkpt lat="43.5235179" lon="10.7936232"><ele>96.0</ele><time>2026-04-04T12:23:02.932Z</time></trkpt><trkpt lat="43.523519" lon="10.7937855"><ele>96.0</ele><time>2026-04-04T12:23:03.932Z</time></trkpt><trkpt lat="43.5235181" lon="10.7939582"><ele>96.0</ele><time>2026-04-04T12:23:04.931Z</time></trkpt><trkpt lat="43.5235084" lon="10.7941302"><ele>96.0</ele><time>2026-04-04T12:23:05.932Z</time></trkpt><trkpt lat="43.5234985" lon="10.7942999"><ele>96.0</ele><time>2026-04-04T12:23:06.932Z</time></trkpt><trkpt lat="43.5234884" lon="10.7944659"><ele>96.0</ele><time>2026-04-04T12:23:07.932Z</time></trkpt><trkpt lat="43.5234771" lon="10.7946224"><ele>96.0</ele><time>2026-04-04T12:23:08.931Z</time></trkpt><trkpt lat="43.5234702" lon="10.7947635"><ele>96.0</ele><time>2026-04-04T12:23:09.931Z</time></trkpt><trkpt lat="43.5234624" lon="10.794896"><ele>96.0</ele><time>2026-04-04T12:23:10.931Z</time></trkpt><trkpt lat="43.5234674" lon="10.795017"><ele>96.0</ele><time>2026-04-04T12:23:11.931Z</time></trkpt><trkpt lat="43.5234856" lon="10.7951462"><ele>96.0</ele><time>2026-04-04T12:23:12.932Z</time></trkpt><trkpt lat="43.5235105" lon="10.7953036"><ele>95.0</ele><time>2026-04-04T12:23:13.931Z</time></trkpt><trkpt lat="43.5235437" lon="10.7954612"><ele>94.0</ele><time>2026-04-04T12:23:14.932Z</time></trkpt><trkpt lat="43.5235865" lon="10.7956277"><ele>93.0</ele><time>2026-04-04T12:23:15.932Z</time></trkpt><trkpt lat="43.5236263" lon="10.7957907"><ele>92.0</ele><time>2026-04-04T12:23:16.932Z</time></trkpt><trkpt lat="43.5236755" lon="10.7959379"><ele>92.75</ele><time>2026-04-04T12:23:17.932Z</time></trkpt><trkpt lat="43.5237312" lon="10.796087"><ele>93.5</ele><time>2026-04-04T12:23:18.932Z</time></trkpt><trkpt lat="43.5237903" lon="10.7962337"><ele>94.25</ele><time>2026-04-04T12:23:19.931Z</time></trkpt><trkpt lat="43.5238392" lon="10.7963774"><ele>95.0</ele><time>2026-04-04T12:23:20.932Z</time></trkpt><trkpt lat="43.5238811" lon="10.7965357"><ele>95.0</ele><time>2026-04-04T12:23:21.931Z</time></trkpt><trkpt lat="43.523919" lon="10.7967058"><ele>95.0</ele><time>2026-04-04T12:23:22.931Z</time></trkpt><trkpt lat="43.5239511" lon="10.7968861"><ele>95.0</ele><time>2026-04-04T12:23:23.931Z</time></trkpt><trkpt lat="43.523977" lon="10.7970701"><ele>95.0</ele><time>2026-04-04T12:23:24.931Z</time></trkpt><trkpt lat="43.5239969" lon="10.7972641"><ele>94.75</ele><time>2026-04-04T12:23:25.932Z</time></trkpt><trkpt lat="43.5240115" lon="10.7974664"><ele>94.5</ele><time>2026-04-04T12:23:26.931Z</time></trkpt><trkpt lat="43.5240247" lon="10.7976608"><ele>94.25</ele><time>2026-04-04T12:23:27.931Z</time></trkpt><trkpt lat="43.5240369" lon="10.7978456"><ele>94.0</ele><time>2026-04-04T12:23:28.931Z</time></trkpt><trkpt lat="43.5240478" lon="10.7980214"><ele>95.0</ele><time>2026-04-04T12:23:29.931Z</time></trkpt><trkpt lat="43.524061" lon="10.7981944"><ele>96.0</ele><time>2026-04-04T12:23:30.932Z</time></trkpt><trkpt lat="43.5240863" lon="10.7983698"><ele>97.0</ele><time>2026-04-04T12:23:31.932Z</time></trkpt><trkpt lat="43.5241193" lon="10.7985477"><ele>98.0</ele><time>2026-04-04T12:23:32.931Z</time></trkpt><trkpt lat="43.5241541" lon="10.7987286"><ele>98.75</ele><time>2026-04-04T12:23:33.931Z</time></trkpt><trkpt lat="43.5241858" lon="10.7989179"><ele>99.5</ele><time>2026-04-04T12:23:34.931Z</time></trkpt><trkpt lat="43.5242112" lon="10.7990964"><ele>100.25</ele><time>2026-04-04T12:23:35.932Z</time></trkpt><trkpt lat="43.5242304" lon="10.7992604"><ele>101.0</ele><time>2026-04-04T12:23:36.932Z</time></trkpt><trkpt lat="43.5242429" lon="10.7994153"><ele>101.5</ele><time>2026-04-04T12:23:37.931Z</time></trkpt><trkpt lat="43.5242467" lon="10.7995668"><ele>102.0</ele><time>2026-04-04T12:23:38.932Z</time></trkpt><trkpt lat="43.5242381" lon="10.7997336"><ele>102.5</ele><time>2026-04-04T12:23:39.931Z</time></trkpt><trkpt lat="43.5242228" lon="10.7999107"><ele>103.0</ele><time>2026-04-04T12:23:40.931Z</time></trkpt><trkpt lat="43.5242011" lon="10.8000895"><ele>102.4</ele><time>2026-04-04T12:23:41.932Z</time></trkpt><trkpt lat="43.524188" lon="10.8002619"><ele>101.80000000000001</ele><time>2026-04-04T12:23:42.931Z</time></trkpt><trkpt lat="43.524176" lon="10.800433"><ele>101.2</ele><time>2026-04-04T12:23:43.931Z</time></trkpt><trkpt lat="43.5241691" lon="10.8005768"><ele>100.6</ele><time>2026-04-04T12:23:44.932Z</time></trkpt><trkpt lat="43.5241612" lon="10.8007067"><ele>100.0</ele><time>2026-04-04T12:23:45.932Z</time></trkpt><trkpt lat="43.5241481" lon="10.8008422"><ele>100.0</ele><time>2026-04-04T12:23:46.932Z</time></trkpt><trkpt lat="43.5241247" lon="10.800971"><ele>100.0</ele><time>2026-04-04T12:23:47.931Z</time></trkpt><trkpt lat="43.5240898" lon="10.8011154"><ele>100.0</ele><time>2026-04-04T12:23:48.932Z</time></trkpt><trkpt lat="43.524043" lon="10.8012635"><ele>100.0</ele><time>2026-04-04T12:23:49.931Z</time></trkpt><trkpt lat="43.5239887" lon="10.8014015"><ele>100.0</ele><time>2026-04-04T12:23:50.932Z</time></trkpt><trkpt lat="43.5239361" lon="10.8015329"><ele>100.6</ele><time>2026-04-04T12:23:51.932Z</time></trkpt><trkpt lat="43.5238803" lon="10.8016629"><ele>101.2</ele><time>2026-04-04T12:23:52.932Z</time></trkpt><trkpt lat="43.523825" lon="10.8017749"><ele>101.80000000000001</ele><time>2026-04-04T12:23:53.931Z</time></trkpt><trkpt lat="43.5237601" lon="10.8018793"><ele>102.4</ele><time>2026-04-04T12:23:54.931Z</time></trkpt><trkpt lat="43.5236754" lon="10.8019647"><ele>103.0</ele><time>2026-04-04T12:23:55.932Z</time></trkpt><trkpt lat="43.5235725" lon="10.8020345"><ele>103.0</ele><time>2026-04-04T12:23:56.931Z</time></trkpt><trkpt lat="43.5234665" lon="10.8021007"><ele>103.0</ele><time>2026-04-04T12:23:57.932Z</time></trkpt><trkpt lat="43.523371" lon="10.8021668"><ele>103.0</ele><time>2026-04-04T12:23:58.931Z</time></trkpt><trkpt lat="43.5232861" lon="10.8022313"><ele>103.0</ele><time>2026-04-04T12:23:59.931Z</time></trkpt><trkpt lat="43.523214" lon="10.8022985"><ele>103.0</ele><time>2026-04-04T12:24:00.931Z</time></trkpt><trkpt lat="43.5231488" lon="10.8023697"><ele>102.99999999999999</ele><time>2026-04-04T12:24:01.932Z</time></trkpt><trkpt lat="43.5230978" lon="10.8024429"><ele>103.0</ele><time>2026-04-04T12:24:02.931Z</time></trkpt><trkpt lat="43.5230479" lon="10.8025227"><ele>103.0</ele><time>2026-04-04T12:24:03.931Z</time></trkpt><trkpt lat="43.5230213" lon="10.8026021"><ele>103.0</ele><time>2026-04-04T12:24:04.932Z</time></trkpt><trkpt lat="43.5230029" lon="10.8026887"><ele>103.0</ele><time>2026-04-04T12:24:05.931Z</time></trkpt><trkpt lat="43.5229821" lon="10.8027987"><ele>102.99999999999999</ele><time>2026-04-04T12:24:06.932Z</time></trkpt><trkpt lat="43.5229654" lon="10.8029032"><ele>103.0</ele><time>2026-04-04T12:24:07.932Z</time></trkpt><trkpt lat="43.5229494" lon="10.8030012"><ele>103.50000000000001</ele><time>2026-04-04T12:24:08.932Z</time></trkpt><trkpt lat="43.5229344" lon="10.8031105"><ele>104.0</ele><time>2026-04-04T12:24:09.931Z</time></trkpt><trkpt lat="43.5229213" lon="10.803228"><ele>104.5</ele><time>2026-04-04T12:24:10.932Z</time></trkpt><trkpt lat="43.5229152" lon="10.8033472"><ele>105.0</ele><time>2026-04-04T12:24:11.932Z</time></trkpt><trkpt lat="43.5228996" lon="10.8034731"><ele>105.50000000000001</ele><time>2026-04-04T12:24:12.932Z</time></trkpt><trkpt lat="43.5229218" lon="10.8035882"><ele>106.0</ele><time>2026-04-04T12:24:13.932Z</time></trkpt><trkpt lat="43.5229497" lon="10.803699"><ele>106.0</ele><time>2026-04-04T12:24:14.931Z</time></trkpt><trkpt lat="43.5229858" lon="10.8038142"><ele>106.0</ele><time>2026-04-04T12:24:15.932Z</time></trkpt><trkpt lat="43.5230413" lon="10.8039377"><ele>106.0</ele><time>2026-04-04T12:24:16.931Z</time></trkpt><trkpt lat="43.5231115" lon="10.8040755"><ele>106.0</ele><time>2026-04-04T12:24:17.932Z</time></trkpt><trkpt lat="43.5231891" lon="10.8042247"><ele>104.5</ele><time>2026-04-04T12:24:18.931Z</time></trkpt><trkpt lat="43.5232662" lon="10.8043938"><ele>103.0</ele><time>2026-04-04T12:24:19.931Z</time></trkpt><trkpt lat="43.523341" lon="10.8045613"><ele>101.5</ele><time>2026-04-04T12:24:20.932Z</time></trkpt><trkpt lat="43.5234047" lon="10.8047165"><ele>100.0</ele><time>2026-04-04T12:24:21.931Z</time></trkpt><trkpt lat="43.5234666" lon="10.8048732"><ele>100.0</ele><time>2026-04-04T12:24:22.931Z</time></trkpt><trkpt lat="43.5235276" lon="10.8050125"><ele>100.0</ele><time>2026-04-04T12:24:23.931Z</time></trkpt><trkpt lat="43.5235843" lon="10.8051533"><ele>100.0</ele><time>2026-04-04T12:24:24.931Z</time></trkpt><trkpt lat="43.5236255" lon="10.8053088"><ele>100.0</ele><time>2026-04-04T12:24:25.931Z</time></trkpt><trkpt lat="43.5236547" lon="10.8054908"><ele>99.75</ele><time>2026-04-04T12:24:26.931Z</time></trkpt><trkpt lat="43.5236903" lon="10.8056782"><ele>99.5</ele><time>2026-04-04T12:24:27.932Z</time></trkpt><trkpt lat="43.5237313" lon="10.80584"><ele>99.25</ele><time>2026-04-04T12:24:28.932Z</time></trkpt><trkpt lat="43.5237697" lon="10.8059796"><ele>99.0</ele><time>2026-04-04T12:24:29.931Z</time></trkpt><trkpt lat="43.5237981" lon="10.8061164"><ele>98.4</ele><time>2026-04-04T12:24:30.932Z</time></trkpt><trkpt lat="43.5238065" lon="10.8062174"><ele>97.80000000000001</ele><time>2026-04-04T12:24:31.932Z</time></trkpt><trkpt lat="43.5238124" lon="10.8063195"><ele>97.19999999999999</ele><time>2026-04-04T12:24:33.931Z</time></trkpt><trkpt lat="43.523809" lon="10.8064461"><ele>96.6</ele><time>2026-04-04T12:24:36.931Z</time></trkpt><trkpt lat="43.5237935" lon="10.8065864"><ele>96.0</ele><time>2026-04-04T12:24:38.931Z</time></trkpt><trkpt lat="43.523752" lon="10.8067546"><ele>96.0</ele><time>2026-04-04T12:24:40.931Z</time></trkpt><trkpt lat="43.5237402" lon="10.8068472"><ele>96.0</ele><time>2026-04-04T12:24:41.931Z</time></trkpt><trkpt lat="43.5237369" lon="10.8069491"><ele>96.0</ele><time>2026-04-04T12:24:42.931Z</time></trkpt><trkpt lat="43.5237385" lon="10.807059"><ele>96.0</ele><time>2026-04-04T12:24:43.932Z</time></trkpt><trkpt lat="43.5237458" lon="10.8071855"><ele>96.0</ele><time>2026-04-04T12:24:44.931Z</time></trkpt><trkpt lat="43.5237622" lon="10.8073185"><ele>96.0</ele><time>2026-04-04T12:24:45.932Z</time></trkpt><trkpt lat="43.5237888" lon="10.8074492"><ele>96.0</ele><time>2026-04-04T12:24:46.932Z</time></trkpt><trkpt lat="43.5238247" lon="10.8075712"><ele>96.0</ele><time>2026-04-04T12:24:47.931Z</time></trkpt><trkpt lat="43.5238649" lon="10.8076971"><ele>96.0</ele><time>2026-04-04T12:24:48.932Z</time></trkpt><trkpt lat="43.5239124" lon="10.8078228"><ele>96.0</ele><time>2026-04-04T12:24:49.932Z</time></trkpt><trkpt lat="43.5239658" lon="10.8079467"><ele>96.0</ele><time>2026-04-04T12:24:50.931Z</time></trkpt><trkpt lat="43.5240169" lon="10.8080671"><ele>96.0</ele><time>2026-04-04T12:24:51.931Z</time></trkpt><trkpt lat="43.52407" lon="10.808192"><ele>96.0</ele><time>2026-04-04T12:24:52.931Z</time></trkpt><trkpt lat="43.5240931" lon="10.8083133"><ele>96.0</ele><time>2026-04-04T12:24:53.931Z</time></trkpt><trkpt lat="43.5241011" lon="10.8084359"><ele>96.0</ele><time>2026-04-04T12:24:54.931Z</time></trkpt><trkpt lat="43.5240944" lon="10.8085659"><ele>96.0</ele><time>2026-04-04T12:24:55.931Z</time></trkpt><trkpt lat="43.5240829" lon="10.8087131"><ele>96.8</ele><time>2026-04-04T12:24:56.932Z</time></trkpt><trkpt lat="43.524067" lon="10.8088549"><ele>97.6</ele><time>2026-04-04T12:24:57.932Z</time></trkpt><trkpt lat="43.5240558" lon="10.8089785"><ele>98.4</ele><time>2026-04-04T12:24:58.932Z</time></trkpt><trkpt lat="43.5240464" lon="10.8090994"><ele>99.2</ele><time>2026-04-04T12:24:59.931Z</time></trkpt><trkpt lat="43.5240496" lon="10.8092301"><ele>100.0</ele><time>2026-04-04T12:25:00.932Z</time></trkpt><trkpt lat="43.5240594" lon="10.8093689"><ele>100.6</ele><time>2026-04-04T12:25:01.931Z</time></trkpt><trkpt lat="43.5240752" lon="10.8095164"><ele>101.2</ele><time>2026-04-04T12:25:02.931Z</time></trkpt><trkpt lat="43.5240956" lon="10.8096719"><ele>101.80000000000001</ele><time>2026-04-04T12:25:03.931Z</time></trkpt><trkpt lat="43.5241118" lon="10.8098216"><ele>102.4</ele><time>2026-04-04T12:25:04.932Z</time></trkpt><trkpt lat="43.524126" lon="10.809967"><ele>103.0</ele><time>2026-04-04T12:25:05.931Z</time></trkpt><trkpt lat="43.5241309" lon="10.8101127"><ele>103.2</ele><time>2026-04-04T12:25:06.931Z</time></trkpt><trkpt lat="43.5241154" lon="10.8102579"><ele>103.4</ele><time>2026-04-04T12:25:07.931Z</time></trkpt><trkpt lat="43.5240928" lon="10.8104042"><ele>103.60000000000001</ele><time>2026-04-04T12:25:08.931Z</time></trkpt><trkpt lat="43.5240591" lon="10.8105475"><ele>103.80000000000001</ele><time>2026-04-04T12:25:09.931Z</time></trkpt><trkpt lat="43.524025" lon="10.8106971"><ele>104.0</ele><time>2026-04-04T12:25:10.931Z</time></trkpt><trkpt lat="43.5240027" lon="10.8108483"><ele>103.6</ele><time>2026-04-04T12:25:11.931Z</time></trkpt><trkpt lat="43.5239887" lon="10.8109974"><ele>103.2</ele><time>2026-04-04T12:25:12.932Z</time></trkpt><trkpt lat="43.5239684" lon="10.8111445"><ele>102.8</ele><time>2026-04-04T12:25:13.931Z</time></trkpt><trkpt lat="43.5239394" lon="10.8112822"><ele>102.39999999999999</ele><time>2026-04-04T12:25:14.931Z</time></trkpt><trkpt lat="43.5239016" lon="10.8114079"><ele>102.0</ele><time>2026-04-04T12:25:15.932Z</time></trkpt><trkpt lat="43.523848" lon="10.811526"><ele>102.0</ele><time>2026-04-04T12:25:16.932Z</time></trkpt><trkpt lat="43.5237842" lon="10.811623"><ele>102.0</ele><time>2026-04-04T12:25:17.932Z</time></trkpt><trkpt lat="43.5237167" lon="10.811711"><ele>102.0</ele><time>2026-04-04T12:25:18.932Z</time></trkpt><trkpt lat="43.5236453" lon="10.8117993"><ele>102.0</ele><time>2026-04-04T12:25:19.932Z</time></trkpt><trkpt lat="43.5235707" lon="10.8118862"><ele>102.0</ele><time>2026-04-04T12:25:20.932Z</time></trkpt><trkpt lat="43.5234998" lon="10.8119499"><ele>104.8</ele><time>2026-04-04T12:25:21.932Z</time></trkpt><trkpt lat="43.5234202" lon="10.812001"><ele>107.6</ele><time>2026-04-04T12:25:22.931Z</time></trkpt><trkpt lat="43.5233287" lon="10.8120463"><ele>110.39999999999999</ele><time>2026-04-04T12:25:23.931Z</time></trkpt><trkpt lat="43.5232376" lon="10.8120917"><ele>113.19999999999999</ele><time>2026-04-04T12:25:24.932Z</time></trkpt><trkpt lat="43.5231484" lon="10.8121453"><ele>116.0</ele><time>2026-04-04T12:25:25.932Z</time></trkpt><trkpt lat="43.5230704" lon="10.8122155"><ele>116.0</ele><time>2026-04-04T12:25:26.932Z</time></trkpt><trkpt lat="43.5230048" lon="10.8123091"><ele>116.0</ele><time>2026-04-04T12:25:27.931Z</time></trkpt><trkpt lat="43.5229534" lon="10.8124207"><ele>116.0</ele><time>2026-04-04T12:25:28.932Z</time></trkpt><trkpt lat="43.5229112" lon="10.8125475"><ele>116.0</ele><time>2026-04-04T12:25:29.931Z</time></trkpt><trkpt lat="43.5228661" lon="10.8126948"><ele>116.0</ele><time>2026-04-04T12:25:30.932Z</time></trkpt><trkpt lat="43.5228306" lon="10.812827"><ele>116.99999999999999</ele><time>2026-04-04T12:25:31.931Z</time></trkpt><trkpt lat="43.5227879" lon="10.812934"><ele>118.0</ele><time>2026-04-04T12:25:32.931Z</time></trkpt><trkpt lat="43.5227362" lon="10.8130277"><ele>119.0</ele><time>2026-04-04T12:25:33.931Z</time></trkpt><trkpt lat="43.5226831" lon="10.813109"><ele>120.0</ele><time>2026-04-04T12:25:34.931Z</time></trkpt><trkpt lat="43.5226184" lon="10.8131785"><ele>120.99999999999999</ele><time>2026-04-04T12:25:35.931Z</time></trkpt><trkpt lat="43.5225511" lon="10.8132381"><ele>122.0</ele><time>2026-04-04T12:25:36.931Z</time></trkpt><trkpt lat="43.5224912" lon="10.8132966"><ele>121.99999999999999</ele><time>2026-04-04T12:25:37.931Z</time></trkpt><trkpt lat="43.5224368" lon="10.8133503"><ele>122.0</ele><time>2026-04-04T12:25:38.931Z</time></trkpt><trkpt lat="43.5223784" lon="10.813397"><ele>121.99999999999999</ele><time>2026-04-04T12:25:39.932Z</time></trkpt><trkpt lat="43.5223225" lon="10.8134455"><ele>121.99999999999999</ele><time>2026-04-04T12:25:40.932Z</time></trkpt><trkpt lat="43.5222643" lon="10.8135002"><ele>122.0</ele><time>2026-04-04T12:25:41.932Z</time></trkpt><trkpt lat="43.5222092" lon="10.8135606"><ele>121.99999999999999</ele><time>2026-04-04T12:25:42.932Z</time></trkpt><trkpt lat="43.5221556" lon="10.813623"><ele>121.99999999999999</ele><time>2026-04-04T12:25:43.932Z</time></trkpt><trkpt lat="43.5221143" lon="10.8136902"><ele>122.49999999999999</ele><time>2026-04-04T12:25:44.932Z</time></trkpt><trkpt lat="43.5220823" lon="10.8137677"><ele>123.0</ele><time>2026-04-04T12:25:45.932Z</time></trkpt><trkpt lat="43.5220483" lon="10.8138531"><ele>123.5</ele><time>2026-04-04T12:25:46.931Z</time></trkpt><trkpt lat="43.5220201" lon="10.8139543"><ele>124.0</ele><time>2026-04-04T12:25:47.931Z</time></trkpt><trkpt lat="43.5219954" lon="10.8140703"><ele>124.49999999999999</ele><time>2026-04-04T12:25:48.932Z</time></trkpt><trkpt lat="43.5219707" lon="10.8141847"><ele>125.0</ele><time>2026-04-04T12:25:49.932Z</time></trkpt><trkpt lat="43.5219411" lon="10.8143044"><ele>125.49999999999999</ele><time>2026-04-04T12:25:50.931Z</time></trkpt><trkpt lat="43.521907" lon="10.8144138"><ele>126.0</ele><time>2026-04-04T12:25:51.932Z</time></trkpt><trkpt lat="43.5218681" lon="10.8145187"><ele>126.5</ele><time>2026-04-04T12:25:52.932Z</time></trkpt><trkpt lat="43.5218283" lon="10.8146177"><ele>127.0</ele><time>2026-04-04T12:25:53.932Z</time></trkpt><trkpt lat="43.5217908" lon="10.8146981"><ele>127.49999999999999</ele><time>2026-04-04T12:25:54.931Z</time></trkpt><trkpt lat="43.5217478" lon="10.8148513"><ele>128.0</ele><time>2026-04-04T12:25:56.932Z</time></trkpt><trkpt lat="43.5217421" lon="10.8149581"><ele>127.99999999999999</ele><time>2026-04-04T12:25:57.932Z</time></trkpt><trkpt lat="43.5217321" lon="10.8150776"><ele>128.0</ele><time>2026-04-04T12:25:58.931Z</time></trkpt><trkpt lat="43.5217222" lon="10.8152053"><ele>128.0</ele><time>2026-04-04T12:25:59.932Z</time></trkpt><trkpt lat="43.5217185" lon="10.8153221"><ele>128.0</ele><time>2026-04-04T12:26:00.932Z</time></trkpt><trkpt lat="43.521716" lon="10.815439"><ele>127.99999999999999</ele><time>2026-04-04T12:26:01.931Z</time></trkpt><trkpt lat="43.5217135" lon="10.8155557"><ele>128.0</ele><time>2026-04-04T12:26:02.931Z</time></trkpt><trkpt lat="43.5217125" lon="10.8156676"><ele>127.83333333333333</ele><time>2026-04-04T12:26:03.932Z</time></trkpt><trkpt lat="43.5217203" lon="10.81578"><ele>127.66666666666666</ele><time>2026-04-04T12:26:04.932Z</time></trkpt><trkpt lat="43.521734" lon="10.8158967"><ele>127.5</ele><time>2026-04-04T12:26:05.932Z</time></trkpt><trkpt lat="43.5217841" lon="10.8160152"><ele>127.33333333333334</ele><time>2026-04-04T12:26:06.932Z</time></trkpt><trkpt lat="43.5218421" lon="10.8161115"><ele>127.16666666666667</ele><time>2026-04-04T12:26:07.931Z</time></trkpt><trkpt lat="43.5219044" lon="10.8161887"><ele>127.0</ele><time>2026-04-04T12:26:08.931Z</time></trkpt><trkpt lat="43.5219555" lon="10.8162729"><ele>126.50000000000001</ele><time>2026-04-04T12:26:09.932Z</time></trkpt><trkpt lat="43.5220015" lon="10.8163691"><ele>126.0</ele><time>2026-04-04T12:26:10.932Z</time></trkpt><trkpt lat="43.5220403" lon="10.816471"><ele>125.5</ele><time>2026-04-04T12:26:11.931Z</time></trkpt><trkpt lat="43.5220707" lon="10.8165666"><ele>125.0</ele><time>2026-04-04T12:26:12.931Z</time></trkpt><trkpt lat="43.5220934" lon="10.8166642"><ele>124.50000000000001</ele><time>2026-04-04T12:26:13.931Z</time></trkpt><trkpt lat="43.5221027" lon="10.8167531"><ele>124.0</ele><time>2026-04-04T12:26:14.931Z</time></trkpt><trkpt lat="43.5221054" lon="10.8168466"><ele>123.66666666666667</ele><time>2026-04-04T12:26:15.932Z</time></trkpt><trkpt lat="43.5221135" lon="10.8169398"><ele>123.33333333333334</ele><time>2026-04-04T12:26:16.931Z</time></trkpt><trkpt lat="43.5221271" lon="10.8170329"><ele>123.0</ele><time>2026-04-04T12:26:17.932Z</time></trkpt><trkpt lat="43.5221406" lon="10.8171186"><ele>122.66666666666666</ele><time>2026-04-04T12:26:18.932Z</time></trkpt><trkpt lat="43.5221564" lon="10.8172074"><ele>122.33333333333333</ele><time>2026-04-04T12:26:19.931Z</time></trkpt><trkpt lat="43.5221872" lon="10.8173648"><ele>122.0</ele><time>2026-04-04T12:26:21.931Z</time></trkpt><trkpt lat="43.5222378" lon="10.8174962"><ele>121.99999999999999</ele><time>2026-04-04T12:26:23.931Z</time></trkpt><trkpt lat="43.5223317" lon="10.8175396"><ele>122.0</ele><time>2026-04-04T12:26:25.931Z</time></trkpt><trkpt lat="43.5224342" lon="10.8175274"><ele>122.0</ele><time>2026-04-04T12:26:27.932Z</time></trkpt><trkpt lat="43.5225393" lon="10.8174935"><ele>122.0</ele><time>2026-04-04T12:26:29.931Z</time></trkpt><trkpt lat="43.522602" lon="10.8174769"><ele>121.99999999999999</ele><time>2026-04-04T12:26:30.931Z</time></trkpt><trkpt lat="43.5226644" lon="10.8174603"><ele>122.0</ele><time>2026-04-04T12:26:31.932Z</time></trkpt><trkpt lat="43.5227834" lon="10.817426"><ele>122.0</ele><time>2026-04-04T12:26:33.932Z</time></trkpt><trkpt lat="43.5228449" lon="10.8174045"><ele>121.99999999999999</ele><time>2026-04-04T12:26:34.931Z</time></trkpt><trkpt lat="43.5229577" lon="10.8173749"><ele>121.99999999999999</ele><time>2026-04-04T12:26:36.931Z</time></trkpt><trkpt lat="43.5230523" lon="10.8173312"><ele>122.0</ele><time>2026-04-04T12:26:38.932Z</time></trkpt><trkpt lat="43.5231471" lon="10.8172681"><ele>122.0</ele><time>2026-04-04T12:26:40.931Z</time></trkpt><trkpt lat="43.5232493" lon="10.8172084"><ele>118.8</ele><time>2026-04-04T12:26:42.932Z</time></trkpt><trkpt lat="43.5233619" lon="10.8171879"><ele>115.6</ele><time>2026-04-04T12:26:44.931Z</time></trkpt><trkpt lat="43.5234778" lon="10.8171753"><ele>112.39999999999999</ele><time>2026-04-04T12:26:46.932Z</time></trkpt><trkpt lat="43.5235902" lon="10.8171407"><ele>109.19999999999999</ele><time>2026-04-04T12:26:48.931Z</time></trkpt><trkpt lat="43.5236749" lon="10.8171296"><ele>106.0</ele><time>2026-04-04T12:26:50.931Z</time></trkpt><trkpt lat="43.5237163" lon="10.8172026"><ele>106.0</ele><time>2026-04-04T12:26:52.931Z</time></trkpt><trkpt lat="43.5236937" lon="10.8173006"><ele>106.0</ele><time>2026-04-04T12:26:54.932Z</time></trkpt><trkpt lat="43.5236597" lon="10.817425"><ele>106.0</ele><time>2026-04-04T12:26:56.932Z</time></trkpt><trkpt lat="43.523669" lon="10.8175378"><ele>106.0</ele><time>2026-04-04T12:26:58.931Z</time></trkpt><trkpt lat="43.5237459" lon="10.8175984"><ele>106.0</ele><time>2026-04-04T12:27:00.931Z</time></trkpt><trkpt lat="43.5238697" lon="10.8175792"><ele>103.83333333333334</ele><time>2026-04-04T12:27:02.931Z</time></trkpt><trkpt lat="43.5239498" lon="10.8175661"><ele>101.66666666666667</ele><time>2026-04-04T12:27:03.931Z</time></trkpt><trkpt lat="43.524019" lon="10.8175531"><ele>99.5</ele><time>2026-04-04T12:27:04.931Z</time></trkpt><trkpt lat="43.5240918" lon="10.8175521"><ele>97.33333333333334</ele><time>2026-04-04T12:27:05.932Z</time></trkpt><trkpt lat="43.5241633" lon="10.8175344"><ele>95.16666666666667</ele><time>2026-04-04T12:27:06.932Z</time></trkpt><trkpt lat="43.524286" lon="10.817487"><ele>93.0</ele><time>2026-04-04T12:27:08.932Z</time></trkpt><trkpt lat="43.5243526" lon="10.8174614"><ele>93.0</ele><time>2026-04-04T12:27:09.932Z</time></trkpt><trkpt lat="43.5244168" lon="10.8174398"><ele>93.0</ele><time>2026-04-04T12:27:10.932Z</time></trkpt><trkpt lat="43.5245196" lon="10.8173688"><ele>93.0</ele><time>2026-04-04T12:27:12.931Z</time></trkpt><trkpt lat="43.5246109" lon="10.8172595"><ele>93.0</ele><time>2026-04-04T12:27:14.931Z</time></trkpt><trkpt lat="43.5246535" lon="10.8171742"><ele>93.0</ele><time>2026-04-04T12:27:15.931Z</time></trkpt><trkpt lat="43.524706" lon="10.8170931"><ele>91.4</ele><time>2026-04-04T12:27:16.932Z</time></trkpt><trkpt lat="43.5247617" lon="10.816993"><ele>89.80000000000001</ele><time>2026-04-04T12:27:17.931Z</time></trkpt><trkpt lat="43.5248168" lon="10.8169065"><ele>88.2</ele><time>2026-04-04T12:27:18.931Z</time></trkpt><trkpt lat="43.5248654" lon="10.816796"><ele>86.6</ele><time>2026-04-04T12:27:19.931Z</time></trkpt><trkpt lat="43.5249211" lon="10.8166958"><ele>85.0</ele><time>2026-04-04T12:27:20.932Z</time></trkpt><trkpt lat="43.5249748" lon="10.8165853"><ele>85.0</ele><time>2026-04-04T12:27:21.932Z</time></trkpt><trkpt lat="43.5250318" lon="10.8164723"><ele>85.0</ele><time>2026-04-04T12:27:22.931Z</time></trkpt><trkpt lat="43.5250928" lon="10.8163794"><ele>85.0</ele><time>2026-04-04T12:27:23.932Z</time></trkpt><trkpt lat="43.5251417" lon="10.8163119"><ele>85.0</ele><time>2026-04-04T12:27:24.932Z</time></trkpt><trkpt lat="43.5252016" lon="10.8162652"><ele>85.0</ele><time>2026-04-04T12:27:25.931Z</time></trkpt><trkpt lat="43.5253048" lon="10.8162289"><ele>85.0</ele><time>2026-04-04T12:27:27.931Z</time></trkpt><trkpt lat="43.5253855" lon="10.8162772"><ele>84.2</ele><time>2026-04-04T12:27:28.931Z</time></trkpt><trkpt lat="43.5254598" lon="10.8163438"><ele>83.4</ele><time>2026-04-04T12:27:29.931Z</time></trkpt><trkpt lat="43.5255138" lon="10.8164177"><ele>82.6</ele><time>2026-04-04T12:27:30.932Z</time></trkpt><trkpt lat="43.5255802" lon="10.8165139"><ele>81.8</ele><time>2026-04-04T12:27:31.932Z</time></trkpt><trkpt lat="43.5256507" lon="10.8166129"><ele>81.0</ele><time>2026-04-04T12:27:32.932Z</time></trkpt><trkpt lat="43.5257201" lon="10.8167064"><ele>81.0</ele><time>2026-04-04T12:27:33.932Z</time></trkpt><trkpt lat="43.5257825" lon="10.8167967"><ele>81.0</ele><time>2026-04-04T12:27:34.931Z</time></trkpt><trkpt lat="43.5258406" lon="10.8168779"><ele>81.0</ele><time>2026-04-04T12:27:35.931Z</time></trkpt><trkpt lat="43.5259061" lon="10.816977"><ele>81.0</ele><time>2026-04-04T12:27:36.932Z</time></trkpt><trkpt lat="43.5259667" lon="10.8170712"><ele>81.0</ele><time>2026-04-04T12:27:37.932Z</time></trkpt><trkpt lat="43.5260222" lon="10.8171546"><ele>81.0</ele><time>2026-04-04T12:27:38.932Z</time></trkpt><trkpt lat="43.5260771" lon="10.8172425"><ele>81.6</ele><time>2026-04-04T12:27:39.932Z</time></trkpt><trkpt lat="43.5261239" lon="10.8173371"><ele>82.19999999999999</ele><time>2026-04-04T12:27:40.931Z</time></trkpt><trkpt lat="43.5261563" lon="10.8174453"><ele>82.80000000000001</ele><time>2026-04-04T12:27:41.932Z</time></trkpt><trkpt lat="43.5261884" lon="10.8175806"><ele>83.4</ele><time>2026-04-04T12:27:42.931Z</time></trkpt><trkpt lat="43.5262287" lon="10.8177033"><ele>84.0</ele><time>2026-04-04T12:27:43.931Z</time></trkpt><trkpt lat="43.5262761" lon="10.8178044"><ele>85.0</ele><time>2026-04-04T12:27:44.932Z</time></trkpt><trkpt lat="43.5263272" lon="10.8179083"><ele>86.0</ele><time>2026-04-04T12:27:45.932Z</time></trkpt><trkpt lat="43.5263932" lon="10.8180221"><ele>87.0</ele><time>2026-04-04T12:27:46.931Z</time></trkpt><trkpt lat="43.5264543" lon="10.8181324"><ele>88.0</ele><time>2026-04-04T12:27:47.931Z</time></trkpt><trkpt lat="43.5265083" lon="10.8182328"><ele>89.0</ele><time>2026-04-04T12:27:48.932Z</time></trkpt><trkpt lat="43.5265622" lon="10.8183106"><ele>89.0</ele><time>2026-04-04T12:27:49.932Z</time></trkpt><trkpt lat="43.5266149" lon="10.818376"><ele>89.0</ele><time>2026-04-04T12:27:50.931Z</time></trkpt><trkpt lat="43.5266673" lon="10.8184258"><ele>89.0</ele><time>2026-04-04T12:27:51.932Z</time></trkpt><trkpt lat="43.5267502" lon="10.8184956"><ele>89.0</ele><time>2026-04-04T12:27:53.932Z</time></trkpt><trkpt lat="43.5268195" lon="10.8184799"><ele>89.0</ele><time>2026-04-04T12:27:56.931Z</time></trkpt><trkpt lat="43.5268826" lon="10.818379"><ele>89.0</ele><time>2026-04-04T12:27:58.931Z</time></trkpt><trkpt lat="43.5269302" lon="10.8182982"><ele>89.0</ele><time>2026-04-04T12:27:59.932Z</time></trkpt><trkpt lat="43.5269783" lon="10.8182032"><ele>89.0</ele><time>2026-04-04T12:28:00.932Z</time></trkpt><trkpt lat="43.5270365" lon="10.8180896"><ele>89.0</ele><time>2026-04-04T12:28:01.932Z</time></trkpt><trkpt lat="43.5270954" lon="10.8179809"><ele>89.0</ele><time>2026-04-04T12:28:02.932Z</time></trkpt><trkpt lat="43.5271586" lon="10.8178768"><ele>89.0</ele><time>2026-04-04T12:28:03.931Z</time></trkpt><trkpt lat="43.5272273" lon="10.8177767"><ele>88.0</ele><time>2026-04-04T12:28:04.932Z</time></trkpt><trkpt lat="43.527286" lon="10.8176628"><ele>87.0</ele><time>2026-04-04T12:28:05.932Z</time></trkpt><trkpt lat="43.5273545" lon="10.817547"><ele>86.0</ele><time>2026-04-04T12:28:06.932Z</time></trkpt><trkpt lat="43.5274388" lon="10.8174375"><ele>85.0</ele><time>2026-04-04T12:28:07.932Z</time></trkpt><trkpt lat="43.5275267" lon="10.8173548"><ele>84.0</ele><time>2026-04-04T12:28:08.932Z</time></trkpt><trkpt lat="43.5276176" lon="10.8172804"><ele>84.0</ele><time>2026-04-04T12:28:09.932Z</time></trkpt><trkpt lat="43.5276933" lon="10.8172029"><ele>84.0</ele><time>2026-04-04T12:28:10.931Z</time></trkpt><trkpt lat="43.5277496" lon="10.8171156"><ele>84.0</ele><time>2026-04-04T12:28:11.931Z</time></trkpt><trkpt lat="43.527793" lon="10.817014"><ele>84.0</ele><time>2026-04-04T12:28:12.932Z</time></trkpt><trkpt lat="43.5278295" lon="10.8168892"><ele>84.0</ele><time>2026-04-04T12:28:13.931Z</time></trkpt><trkpt lat="43.5278728" lon="10.8167408"><ele>85.5</ele><time>2026-04-04T12:28:14.932Z</time></trkpt><trkpt lat="43.5279286" lon="10.8165772"><ele>87.0</ele><time>2026-04-04T12:28:15.932Z</time></trkpt><trkpt lat="43.5279801" lon="10.8164312"><ele>88.5</ele><time>2026-04-04T12:28:16.932Z</time></trkpt><trkpt lat="43.5280252" lon="10.816302"><ele>90.0</ele><time>2026-04-04T12:28:17.931Z</time></trkpt><trkpt lat="43.5280718" lon="10.816176"><ele>90.0</ele><time>2026-04-04T12:28:18.932Z</time></trkpt><trkpt lat="43.5281363" lon="10.8160707"><ele>90.0</ele><time>2026-04-04T12:28:19.931Z</time></trkpt><trkpt lat="43.5282054" lon="10.8160103"><ele>90.0</ele><time>2026-04-04T12:28:20.931Z</time></trkpt><trkpt lat="43.5282812" lon="10.8159866"><ele>90.0</ele><time>2026-04-04T12:28:21.932Z</time></trkpt><trkpt lat="43.5283752" lon="10.8159974"><ele>90.0</ele><time>2026-04-04T12:28:22.931Z</time></trkpt><trkpt lat="43.528482" lon="10.8160259"><ele>90.0</ele><time>2026-04-04T12:28:23.932Z</time></trkpt><trkpt lat="43.5285994" lon="10.816053"><ele>90.0</ele><time>2026-04-04T12:28:24.931Z</time></trkpt><trkpt lat="43.5287171" lon="10.8160758"><ele>90.0</ele><time>2026-04-04T12:28:25.931Z</time></trkpt><trkpt lat="43.5288293" lon="10.8160833"><ele>90.0</ele><time>2026-04-04T12:28:26.931Z</time></trkpt><trkpt lat="43.5289455" lon="10.8160691"><ele>92.25</ele><time>2026-04-04T12:28:27.931Z</time></trkpt><trkpt lat="43.5290688" lon="10.8160302"><ele>94.5</ele><time>2026-04-04T12:28:28.931Z</time></trkpt><trkpt lat="43.5292034" lon="10.815966"><ele>96.75</ele><time>2026-04-04T12:28:29.932Z</time></trkpt><trkpt lat="43.5293345" lon="10.8159018"><ele>99.0</ele><time>2026-04-04T12:28:30.932Z</time></trkpt><trkpt lat="43.5294611" lon="10.8158528"><ele>105.25</ele><time>2026-04-04T12:28:31.931Z</time></trkpt><trkpt lat="43.529593" lon="10.8158076"><ele>111.5</ele><time>2026-04-04T12:28:32.932Z</time></trkpt><trkpt lat="43.5297229" lon="10.815768"><ele>117.75</ele><time>2026-04-04T12:28:33.932Z</time></trkpt><trkpt lat="43.5298459" lon="10.8157336"><ele>124.0</ele><time>2026-04-04T12:28:34.931Z</time></trkpt><trkpt lat="43.5299654" lon="10.8157131"><ele>124.0</ele><time>2026-04-04T12:28:35.932Z</time></trkpt><trkpt lat="43.5300872" lon="10.815694"><ele>124.0</ele><time>2026-04-04T12:28:36.932Z</time></trkpt><trkpt lat="43.5302043" lon="10.8156753"><ele>124.0</ele><time>2026-04-04T12:28:37.931Z</time></trkpt><trkpt lat="43.530313" lon="10.8156531"><ele>124.0</ele><time>2026-04-04T12:28:38.932Z</time></trkpt><trkpt lat="43.5304135" lon="10.8156274"><ele>124.6</ele><time>2026-04-04T12:28:39.931Z</time></trkpt><trkpt lat="43.5305139" lon="10.8156075"><ele>125.2</ele><time>2026-04-04T12:28:40.932Z</time></trkpt><trkpt lat="43.5306222" lon="10.8155809"><ele>125.79999999999998</ele><time>2026-04-04T12:28:41.932Z</time></trkpt><trkpt lat="43.5307345" lon="10.8155702"><ele>126.39999999999999</ele><time>2026-04-04T12:28:42.931Z</time></trkpt><trkpt lat="43.530854" lon="10.8155932"><ele>127.0</ele><time>2026-04-04T12:28:43.931Z</time></trkpt><trkpt lat="43.5309876" lon="10.8156455"><ele>127.0</ele><time>2026-04-04T12:28:44.932Z</time></trkpt><trkpt lat="43.5311153" lon="10.815699"><ele>127.0</ele><time>2026-04-04T12:28:45.932Z</time></trkpt><trkpt lat="43.5312329" lon="10.8157452"><ele>127.0</ele><time>2026-04-04T12:28:46.931Z</time></trkpt><trkpt lat="43.5313424" lon="10.8157834"><ele>127.0</ele><time>2026-04-04T12:28:47.932Z</time></trkpt><trkpt lat="43.5314509" lon="10.8158103"><ele>128.0</ele><time>2026-04-04T12:28:48.931Z</time></trkpt><trkpt lat="43.5315618" lon="10.8158295"><ele>129.0</ele><time>2026-04-04T12:28:49.932Z</time></trkpt><trkpt lat="43.5316697" lon="10.8158284"><ele>130.0</ele><time>2026-04-04T12:28:50.931Z</time></trkpt><trkpt lat="43.5317755" lon="10.8158292"><ele>131.0</ele><time>2026-04-04T12:28:51.932Z</time></trkpt><trkpt lat="43.5318818" lon="10.8158491"><ele>132.0</ele><time>2026-04-04T12:28:52.931Z</time></trkpt><trkpt lat="43.5319754" lon="10.8158875"><ele>132.25</ele><time>2026-04-04T12:28:53.932Z</time></trkpt><trkpt lat="43.5320676" lon="10.8159462"><ele>132.5</ele><time>2026-04-04T12:28:54.932Z</time></trkpt><trkpt lat="43.532164" lon="10.8160219"><ele>132.75</ele><time>2026-04-04T12:28:55.931Z</time></trkpt><trkpt lat="43.5322728" lon="10.8161192"><ele>133.0</ele><time>2026-04-04T12:28:56.932Z</time></trkpt><trkpt lat="43.5323814" lon="10.81621"><ele>134.25</ele><time>2026-04-04T12:28:57.932Z</time></trkpt><trkpt lat="43.5324848" lon="10.8162809"><ele>135.5</ele><time>2026-04-04T12:28:58.932Z</time></trkpt><trkpt lat="43.5325948" lon="10.8163379"><ele>136.75</ele><time>2026-04-04T12:28:59.931Z</time></trkpt><trkpt lat="43.5327236" lon="10.8163879"><ele>138.0</ele><time>2026-04-04T12:29:00.931Z</time></trkpt><trkpt lat="43.5328635" lon="10.8164322"><ele>137.75</ele><time>2026-04-04T12:29:01.932Z</time></trkpt><trkpt lat="43.5329968" lon="10.8164924"><ele>137.5</ele><time>2026-04-04T12:29:02.931Z</time></trkpt><trkpt lat="43.5331275" lon="10.8165535"><ele>137.25</ele><time>2026-04-04T12:29:03.931Z</time></trkpt><trkpt lat="43.533256" lon="10.8166057"><ele>137.0</ele><time>2026-04-04T12:29:04.932Z</time></trkpt><trkpt lat="43.5333669" lon="10.8166606"><ele>137.0</ele><time>2026-04-04T12:29:05.932Z</time></trkpt><trkpt lat="43.5334581" lon="10.816714"><ele>137.0</ele><time>2026-04-04T12:29:06.932Z</time></trkpt><trkpt lat="43.533544" lon="10.8167489"><ele>137.0</ele><time>2026-04-04T12:29:07.931Z</time></trkpt><trkpt lat="43.5336412" lon="10.8167474"><ele>137.0</ele><time>2026-04-04T12:29:08.931Z</time></trkpt><trkpt lat="43.5337538" lon="10.816722"><ele>137.0</ele><time>2026-04-04T12:29:09.932Z</time></trkpt><trkpt lat="43.5338843" lon="10.816671"><ele>138.5</ele><time>2026-04-04T12:29:10.932Z</time></trkpt><trkpt lat="43.5340131" lon="10.8166417"><ele>140.0</ele><time>2026-04-04T12:29:11.932Z</time></trkpt><trkpt lat="43.5341506" lon="10.8166324"><ele>141.5</ele><time>2026-04-04T12:29:12.931Z</time></trkpt><trkpt lat="43.5342877" lon="10.816637"><ele>143.0</ele><time>2026-04-04T12:29:13.931Z</time></trkpt><trkpt lat="43.5344012" lon="10.8166443"><ele>143.0</ele><time>2026-04-04T12:29:14.931Z</time></trkpt><trkpt lat="43.5344965" lon="10.8166595"><ele>143.0</ele><time>2026-04-04T12:29:15.931Z</time></trkpt><trkpt lat="43.5345909" lon="10.8166713"><ele>143.0</ele><time>2026-04-04T12:29:16.932Z</time></trkpt><trkpt lat="43.5346671" lon="10.8166837"><ele>143.0</ele><time>2026-04-04T12:29:17.932Z</time></trkpt><trkpt lat="43.5348026" lon="10.8167244"><ele>143.0</ele><time>2026-04-04T12:29:19.932Z</time></trkpt><trkpt lat="43.5348983" lon="10.8167197"><ele>144.8</ele><time>2026-04-04T12:29:20.932Z</time></trkpt><trkpt lat="43.5349924" lon="10.8166942"><ele>146.60000000000002</ele><time>2026-04-04T12:29:21.931Z</time></trkpt><trkpt lat="43.5350796" lon="10.8166676"><ele>148.39999999999998</ele><time>2026-04-04T12:29:22.931Z</time></trkpt><trkpt lat="43.5351792" lon="10.8166051"><ele>150.2</ele><time>2026-04-04T12:29:23.932Z</time></trkpt><trkpt lat="43.5352748" lon="10.8165163"><ele>152.0</ele><time>2026-04-04T12:29:24.931Z</time></trkpt><trkpt lat="43.5354037" lon="10.8164035"><ele>155.0</ele><time>2026-04-04T12:29:25.932Z</time></trkpt><trkpt lat="43.5355194" lon="10.8162995"><ele>158.0</ele><time>2026-04-04T12:29:26.931Z</time></trkpt><trkpt lat="43.5356186" lon="10.8162037"><ele>161.0</ele><time>2026-04-04T12:29:27.931Z</time></trkpt><trkpt lat="43.535713" lon="10.8161084"><ele>164.0</ele><time>2026-04-04T12:29:28.932Z</time></trkpt><trkpt lat="43.5358119" lon="10.8160159"><ele>164.0</ele><time>2026-04-04T12:29:29.932Z</time></trkpt><trkpt lat="43.5359144" lon="10.8159275"><ele>164.0</ele><time>2026-04-04T12:29:30.931Z</time></trkpt><trkpt lat="43.5360181" lon="10.8158473"><ele>164.0</ele><time>2026-04-04T12:29:31.932Z</time></trkpt><trkpt lat="43.5361163" lon="10.8157881"><ele>164.0</ele><time>2026-04-04T12:29:32.932Z</time></trkpt><trkpt lat="43.5362133" lon="10.815736"><ele>165.6</ele><time>2026-04-04T12:29:33.932Z</time></trkpt><trkpt lat="43.5363101" lon="10.8156955"><ele>167.2</ele><time>2026-04-04T12:29:34.931Z</time></trkpt><trkpt lat="43.5364007" lon="10.8156622"><ele>168.79999999999998</ele><time>2026-04-04T12:29:35.931Z</time></trkpt><trkpt lat="43.536491" lon="10.8156435"><ele>170.39999999999998</ele><time>2026-04-04T12:29:36.931Z</time></trkpt><trkpt lat="43.5365756" lon="10.8156284"><ele>172.0</ele><time>2026-04-04T12:29:37.931Z</time></trkpt><trkpt lat="43.5366546" lon="10.815626"><ele>172.0</ele><time>2026-04-04T12:29:38.931Z</time></trkpt><trkpt lat="43.536737" lon="10.8156358"><ele>172.0</ele><time>2026-04-04T12:29:39.931Z</time></trkpt><trkpt lat="43.5368121" lon="10.8156453"><ele>172.0</ele><time>2026-04-04T12:29:40.931Z</time></trkpt><trkpt lat="43.536883" lon="10.8156365"><ele>172.0</ele><time>2026-04-04T12:29:41.932Z</time></trkpt><trkpt lat="43.5369486" lon="10.8156005"><ele>172.0</ele><time>2026-04-04T12:29:42.932Z</time></trkpt><trkpt lat="43.537006" lon="10.8155386"><ele>172.0</ele><time>2026-04-04T12:29:43.931Z</time></trkpt><trkpt lat="43.5370553" lon="10.8154527"><ele>170.33333333333334</ele><time>2026-04-04T12:29:44.932Z</time></trkpt><trkpt lat="43.5371037" lon="10.8153594"><ele>168.66666666666669</ele><time>2026-04-04T12:29:45.932Z</time></trkpt><trkpt lat="43.5371484" lon="10.8152743"><ele>167.0</ele><time>2026-04-04T12:29:46.931Z</time></trkpt><trkpt lat="43.5371853" lon="10.8151971"><ele>165.33333333333334</ele><time>2026-04-04T12:29:47.931Z</time></trkpt><trkpt lat="43.5372384" lon="10.8150853"><ele>163.66666666666666</ele><time>2026-04-04T12:29:49.931Z</time></trkpt><trkpt lat="43.537326" lon="10.8151428"><ele>162.0</ele><time>2026-04-04T12:29:53.932Z</time></trkpt><trkpt lat="43.537353" lon="10.8152452"><ele>162.0</ele><time>2026-04-04T12:29:54.931Z</time></trkpt><trkpt lat="43.5373874" lon="10.8153514"><ele>162.0</ele><time>2026-04-04T12:29:55.932Z</time></trkpt><trkpt lat="43.5374264" lon="10.8155197"><ele>162.0</ele><time>2026-04-04T12:29:56.932Z</time></trkpt><trkpt lat="43.5374775" lon="10.8157078"><ele>162.0</ele><time>2026-04-04T12:29:57.931Z</time></trkpt><trkpt lat="43.5375346" lon="10.8159019"><ele>164.66666666666666</ele><time>2026-04-04T12:29:58.931Z</time></trkpt><trkpt lat="43.5375962" lon="10.8160974"><ele>167.33333333333331</ele><time>2026-04-04T12:29:59.931Z</time></trkpt><trkpt lat="43.5376815" lon="10.8162963"><ele>170.0</ele><time>2026-04-04T12:30:00.931Z</time></trkpt><trkpt lat="43.5377714" lon="10.8164911"><ele>170.0</ele><time>2026-04-04T12:30:01.931Z</time></trkpt><trkpt lat="43.537866" lon="10.8167039"><ele>170.0</ele><time>2026-04-04T12:30:02.931Z</time></trkpt><trkpt lat="43.5379619" lon="10.8169316"><ele>170.0</ele><time>2026-04-04T12:30:03.931Z</time></trkpt><trkpt lat="43.5380619" lon="10.8171608"><ele>170.33333333333331</ele><time>2026-04-04T12:30:04.931Z</time></trkpt><trkpt lat="43.5381588" lon="10.8173841"><ele>170.66666666666666</ele><time>2026-04-04T12:30:05.932Z</time></trkpt><trkpt lat="43.5382546" lon="10.817605"><ele>171.0</ele><time>2026-04-04T12:30:06.932Z</time></trkpt><trkpt lat="43.5383414" lon="10.8178102"><ele>171.0</ele><time>2026-04-04T12:30:07.931Z</time></trkpt><trkpt lat="43.5384294" lon="10.818015"><ele>171.0</ele><time>2026-04-04T12:30:08.932Z</time></trkpt><trkpt lat="43.538515" lon="10.8182147"><ele>171.0</ele><time>2026-04-04T12:30:09.931Z</time></trkpt><trkpt lat="43.5385838" lon="10.818422"><ele>171.33333333333334</ele><time>2026-04-04T12:30:10.932Z</time></trkpt><trkpt lat="43.5386329" lon="10.8186322"><ele>171.66666666666669</ele><time>2026-04-04T12:30:11.931Z</time></trkpt><trkpt lat="43.5386633" lon="10.8188445"><ele>172.0</ele><time>2026-04-04T12:30:12.931Z</time></trkpt><trkpt lat="43.5386977" lon="10.8190521"><ele>169.33333333333334</ele><time>2026-04-04T12:30:13.931Z</time></trkpt><trkpt lat="43.5387423" lon="10.8192504"><ele>166.66666666666666</ele><time>2026-04-04T12:30:14.931Z</time></trkpt><trkpt lat="43.5387944" lon="10.819449"><ele>164.0</ele><time>2026-04-04T12:30:15.932Z</time></trkpt><trkpt lat="43.5388531" lon="10.8196619"><ele>164.0</ele><time>2026-04-04T12:30:16.931Z</time></trkpt><trkpt lat="43.5389101" lon="10.819877"><ele>164.0</ele><time>2026-04-04T12:30:17.931Z</time></trkpt><trkpt lat="43.5389708" lon="10.8200738"><ele>164.0</ele><time>2026-04-04T12:30:18.932Z</time></trkpt><trkpt lat="43.5390174" lon="10.8202674"><ele>164.5</ele><time>2026-04-04T12:30:19.932Z</time></trkpt><trkpt lat="43.5390451" lon="10.8204729"><ele>165.0</ele><time>2026-04-04T12:30:20.931Z</time></trkpt><trkpt lat="43.5390712" lon="10.820673"><ele>165.5</ele><time>2026-04-04T12:30:21.932Z</time></trkpt><trkpt lat="43.539064" lon="10.8208731"><ele>166.0</ele><time>2026-04-04T12:30:22.931Z</time></trkpt><trkpt lat="43.5390617" lon="10.8210623"><ele>166.25</ele><time>2026-04-04T12:30:23.932Z</time></trkpt><trkpt lat="43.5390627" lon="10.8212381"><ele>166.5</ele><time>2026-04-04T12:30:24.932Z</time></trkpt><trkpt lat="43.5390689" lon="10.8214185"><ele>166.75</ele><time>2026-04-04T12:30:25.931Z</time></trkpt><trkpt lat="43.5390832" lon="10.8215923"><ele>167.0</ele><time>2026-04-04T12:30:26.931Z</time></trkpt><trkpt lat="43.5391124" lon="10.8217918"><ele>167.5</ele><time>2026-04-04T12:30:27.932Z</time></trkpt><trkpt lat="43.5391394" lon="10.8219834"><ele>168.0</ele><time>2026-04-04T12:30:28.931Z</time></trkpt><trkpt lat="43.5391632" lon="10.8221746"><ele>168.5</ele><time>2026-04-04T12:30:29.932Z</time></trkpt><trkpt lat="43.5391898" lon="10.8223687"><ele>169.0</ele><time>2026-04-04T12:30:30.932Z</time></trkpt><trkpt lat="43.5392186" lon="10.8225696"><ele>169.0</ele><time>2026-04-04T12:30:31.931Z</time></trkpt><trkpt lat="43.5392503" lon="10.8227807"><ele>169.0</ele><time>2026-04-04T12:30:32.931Z</time></trkpt><trkpt lat="43.5392793" lon="10.8229731"><ele>169.0</ele><time>2026-04-04T12:30:33.931Z</time></trkpt><trkpt lat="43.539304" lon="10.8231588"><ele>169.0</ele><time>2026-04-04T12:30:34.931Z</time></trkpt><trkpt lat="43.5393303" lon="10.8233489"><ele>167.75</ele><time>2026-04-04T12:30:35.932Z</time></trkpt><trkpt lat="43.5393596" lon="10.8235467"><ele>166.5</ele><time>2026-04-04T12:30:36.931Z</time></trkpt><trkpt lat="43.5393891" lon="10.8237467"><ele>165.25</ele><time>2026-04-04T12:30:37.931Z</time></trkpt><trkpt lat="43.5394142" lon="10.8239469"><ele>164.0</ele><time>2026-04-04T12:30:38.931Z</time></trkpt><trkpt lat="43.5394384" lon="10.8241392"><ele>161.75</ele><time>2026-04-04T12:30:39.932Z</time></trkpt><trkpt lat="43.5394623" lon="10.8243177"><ele>159.5</ele><time>2026-04-04T12:30:40.932Z</time></trkpt><trkpt lat="43.5394859" lon="10.8245003"><ele>157.25</ele><time>2026-04-04T12:30:41.932Z</time></trkpt><trkpt lat="43.5395115" lon="10.8246819"><ele>155.0</ele><time>2026-04-04T12:30:42.931Z</time></trkpt><trkpt lat="43.5395334" lon="10.8248607"><ele>156.0</ele><time>2026-04-04T12:30:43.931Z</time></trkpt><trkpt lat="43.5395583" lon="10.8250337"><ele>157.0</ele><time>2026-04-04T12:30:44.932Z</time></trkpt><trkpt lat="43.539582" lon="10.8252051"><ele>158.0</ele><time>2026-04-04T12:30:45.932Z</time></trkpt><trkpt lat="43.5396043" lon="10.8253741"><ele>159.0</ele><time>2026-04-04T12:30:46.931Z</time></trkpt><trkpt lat="43.5396272" lon="10.8255441"><ele>159.0</ele><time>2026-04-04T12:30:47.932Z</time></trkpt><trkpt lat="43.5396548" lon="10.8257192"><ele>159.0</ele><time>2026-04-04T12:30:48.931Z</time></trkpt><trkpt lat="43.5396826" lon="10.8259022"><ele>159.0</ele><time>2026-04-04T12:30:49.931Z</time></trkpt><trkpt lat="43.5397101" lon="10.8260869"><ele>159.0</ele><time>2026-04-04T12:30:50.931Z</time></trkpt><trkpt lat="43.5397372" lon="10.8262753"><ele>158.25</ele><time>2026-04-04T12:30:51.931Z</time></trkpt><trkpt lat="43.5397675" lon="10.8264733"><ele>157.5</ele><time>2026-04-04T12:30:52.932Z</time></trkpt><trkpt lat="43.5397966" lon="10.826672"><ele>156.75</ele><time>2026-04-04T12:30:53.931Z</time></trkpt><trkpt lat="43.5398254" lon="10.826864"><ele>156.0</ele><time>2026-04-04T12:30:54.931Z</time></trkpt><trkpt lat="43.5398519" lon="10.827048"><ele>154.75</ele><time>2026-04-04T12:30:55.932Z</time></trkpt><trkpt lat="43.5398751" lon="10.8272221"><ele>153.5</ele><time>2026-04-04T12:30:56.931Z</time></trkpt><trkpt lat="43.5398984" lon="10.8273875"><ele>152.25</ele><time>2026-04-04T12:30:57.931Z</time></trkpt><trkpt lat="43.5399163" lon="10.8275395"><ele>151.0</ele><time>2026-04-04T12:30:58.932Z</time></trkpt><trkpt lat="43.5399261" lon="10.8276733"><ele>151.0</ele><time>2026-04-04T12:30:59.931Z</time></trkpt><trkpt lat="43.5399388" lon="10.8277931"><ele>151.0</ele><time>2026-04-04T12:31:00.932Z</time></trkpt><trkpt lat="43.5399456" lon="10.8279038"><ele>151.0</ele><time>2026-04-04T12:31:01.932Z</time></trkpt><trkpt lat="43.5399772" lon="10.8280134"><ele>151.0</ele><time>2026-04-04T12:31:03.931Z</time></trkpt><trkpt lat="43.5400532" lon="10.8280509"><ele>151.0</ele><time>2026-04-04T12:31:05.932Z</time></trkpt><trkpt lat="43.5401452" lon="10.8279737"><ele>151.0</ele><time>2026-04-04T12:31:07.932Z</time></trkpt><trkpt lat="43.5401949" lon="10.8278922"><ele>151.0</ele><time>2026-04-04T12:31:08.931Z</time></trkpt><trkpt lat="43.5402503" lon="10.8277857"><ele>151.0</ele><time>2026-04-04T12:31:09.931Z</time></trkpt><trkpt lat="43.5403106" lon="10.8276713"><ele>151.0</ele><time>2026-04-04T12:31:10.932Z</time></trkpt><trkpt lat="43.5403744" lon="10.8275576"><ele>151.0</ele><time>2026-04-04T12:31:11.931Z</time></trkpt><trkpt lat="43.5404341" lon="10.827436"><ele>151.0</ele><time>2026-04-04T12:31:12.932Z</time></trkpt><trkpt lat="43.5404934" lon="10.8272979"><ele>149.0</ele><time>2026-04-04T12:31:13.931Z</time></trkpt><trkpt lat="43.5405488" lon="10.8271502"><ele>147.0</ele><time>2026-04-04T12:31:14.932Z</time></trkpt><trkpt lat="43.5406002" lon="10.8270114"><ele>145.0</ele><time>2026-04-04T12:31:15.931Z</time></trkpt><trkpt lat="43.5406505" lon="10.8268113"><ele>143.0</ele><time>2026-04-04T12:31:16.932Z</time></trkpt><trkpt lat="43.5407014" lon="10.8266084"><ele>143.0</ele><time>2026-04-04T12:31:17.931Z</time></trkpt><trkpt lat="43.5407485" lon="10.8264211"><ele>143.0</ele><time>2026-04-04T12:31:18.931Z</time></trkpt><trkpt lat="43.5407949" lon="10.8262271"><ele>143.0</ele><time>2026-04-04T12:31:19.932Z</time></trkpt><trkpt lat="43.540845" lon="10.8260335"><ele>143.0</ele><time>2026-04-04T12:31:20.932Z</time></trkpt><trkpt lat="43.5408971" lon="10.825833"><ele>142.5</ele><time>2026-04-04T12:31:21.931Z</time></trkpt><trkpt lat="43.5409464" lon="10.8256392"><ele>142.0</ele><time>2026-04-04T12:31:22.932Z</time></trkpt><trkpt lat="43.5409965" lon="10.8254564"><ele>141.5</ele><time>2026-04-04T12:31:23.932Z</time></trkpt><trkpt lat="43.541046" lon="10.8252787"><ele>141.0</ele><time>2026-04-04T12:31:24.932Z</time></trkpt><trkpt lat="43.5410949" lon="10.825103"><ele>141.0</ele><time>2026-04-04T12:31:25.931Z</time></trkpt><trkpt lat="43.5411442" lon="10.8249285"><ele>141.0</ele><time>2026-04-04T12:31:26.932Z</time></trkpt><trkpt lat="43.5412009" lon="10.8247537"><ele>141.0</ele><time>2026-04-04T12:31:27.932Z</time></trkpt><trkpt lat="43.5412549" lon="10.8245777"><ele>141.0</ele><time>2026-04-04T12:31:28.931Z</time></trkpt><trkpt lat="43.5413086" lon="10.824402"><ele>137.0</ele><time>2026-04-04T12:31:29.931Z</time></trkpt><trkpt lat="43.5413647" lon="10.824226"><ele>133.0</ele><time>2026-04-04T12:31:30.931Z</time></trkpt><trkpt lat="43.5414173" lon="10.8240625"><ele>129.0</ele><time>2026-04-04T12:31:31.932Z</time></trkpt><trkpt lat="43.5414683" lon="10.8238992"><ele>125.0</ele><time>2026-04-04T12:31:32.931Z</time></trkpt><trkpt lat="43.5415201" lon="10.8237413"><ele>125.0</ele><time>2026-04-04T12:31:33.932Z</time></trkpt><trkpt lat="43.5415676" lon="10.8235911"><ele>125.0</ele><time>2026-04-04T12:31:34.931Z</time></trkpt><trkpt lat="43.5416099" lon="10.8234386"><ele>125.0</ele><time>2026-04-04T12:31:35.931Z</time></trkpt><trkpt lat="43.5416527" lon="10.823289"><ele>125.0</ele><time>2026-04-04T12:31:36.932Z</time></trkpt><trkpt lat="43.5416933" lon="10.8231477"><ele>125.0</ele><time>2026-04-04T12:31:37.932Z</time></trkpt><trkpt lat="43.5417294" lon="10.8230076"><ele>125.0</ele><time>2026-04-04T12:31:38.932Z</time></trkpt><trkpt lat="43.5417573" lon="10.8228651"><ele>125.0</ele><time>2026-04-04T12:31:39.932Z</time></trkpt><trkpt lat="43.5417761" lon="10.8227193"><ele>125.0</ele><time>2026-04-04T12:31:40.931Z</time></trkpt><trkpt lat="43.5417889" lon="10.82257"><ele>125.0</ele><time>2026-04-04T12:31:41.931Z</time></trkpt><trkpt lat="43.5417943" lon="10.8224135"><ele>124.4</ele><time>2026-04-04T12:31:42.931Z</time></trkpt><trkpt lat="43.5417993" lon="10.8222598"><ele>123.8</ele><time>2026-04-04T12:31:43.931Z</time></trkpt><trkpt lat="43.5418068" lon="10.8221048"><ele>123.19999999999999</ele><time>2026-04-04T12:31:44.932Z</time></trkpt><trkpt lat="43.5418246" lon="10.8219527"><ele>122.6</ele><time>2026-04-04T12:31:45.931Z</time></trkpt><trkpt lat="43.5418583" lon="10.8218038"><ele>122.0</ele><time>2026-04-04T12:31:46.931Z</time></trkpt><trkpt lat="43.5419072" lon="10.8216634"><ele>121.6</ele><time>2026-04-04T12:31:47.932Z</time></trkpt><trkpt lat="43.5419681" lon="10.8215343"><ele>121.19999999999999</ele><time>2026-04-04T12:31:48.931Z</time></trkpt><trkpt lat="43.5420345" lon="10.8214168"><ele>120.8</ele><time>2026-04-04T12:31:49.932Z</time></trkpt><trkpt lat="43.5421011" lon="10.8213009"><ele>120.4</ele><time>2026-04-04T12:31:50.932Z</time></trkpt><trkpt lat="43.5421628" lon="10.8211818"><ele>120.0</ele><time>2026-04-04T12:31:51.932Z</time></trkpt><trkpt lat="43.5422191" lon="10.8210543"><ele>116.0</ele><time>2026-04-04T12:31:52.931Z</time></trkpt><trkpt lat="43.5422739" lon="10.8209052"><ele>112.0</ele><time>2026-04-04T12:31:53.932Z</time></trkpt><trkpt lat="43.5423214" lon="10.8207459"><ele>108.0</ele><time>2026-04-04T12:31:54.932Z</time></trkpt><trkpt lat="43.5423657" lon="10.8205768"><ele>104.0</ele><time>2026-04-04T12:31:55.931Z</time></trkpt><trkpt lat="43.5424107" lon="10.8204039"><ele>104.0</ele><time>2026-04-04T12:31:56.932Z</time></trkpt><trkpt lat="43.5424484" lon="10.8202324"><ele>104.0</ele><time>2026-04-04T12:31:57.931Z</time></trkpt><trkpt lat="43.5424829" lon="10.8200668"><ele>104.0</ele><time>2026-04-04T12:31:58.932Z</time></trkpt><trkpt lat="43.5425149" lon="10.8199054"><ele>104.0</ele><time>2026-04-04T12:31:59.931Z</time></trkpt><trkpt lat="43.5425411" lon="10.8197307"><ele>103.25</ele><time>2026-04-04T12:32:00.932Z</time></trkpt><trkpt lat="43.5425622" lon="10.8195409"><ele>102.5</ele><time>2026-04-04T12:32:01.932Z</time></trkpt><trkpt lat="43.5425788" lon="10.8193363"><ele>101.75</ele><time>2026-04-04T12:32:02.932Z</time></trkpt><trkpt lat="43.5425925" lon="10.819127"><ele>101.0</ele><time>2026-04-04T12:32:03.931Z</time></trkpt><trkpt lat="43.5426046" lon="10.8189283"><ele>100.0</ele><time>2026-04-04T12:32:04.931Z</time></trkpt><trkpt lat="43.5426148" lon="10.8187302"><ele>99.0</ele><time>2026-04-04T12:32:05.931Z</time></trkpt><trkpt lat="43.5426251" lon="10.8185342"><ele>98.0</ele><time>2026-04-04T12:32:06.932Z</time></trkpt><trkpt lat="43.5426375" lon="10.8183465"><ele>97.0</ele><time>2026-04-04T12:32:07.931Z</time></trkpt><trkpt lat="43.5426498" lon="10.818177"><ele>95.75</ele><time>2026-04-04T12:32:08.931Z</time></trkpt><trkpt lat="43.5426589" lon="10.817999"><ele>94.5</ele><time>2026-04-04T12:32:09.931Z</time></trkpt><trkpt lat="43.542675" lon="10.8178531"><ele>93.25</ele><time>2026-04-04T12:32:10.931Z</time></trkpt><trkpt lat="43.5426966" lon="10.8177091"><ele>92.0</ele><time>2026-04-04T12:32:11.931Z</time></trkpt><trkpt lat="43.5427332" lon="10.8175658"><ele>90.8</ele><time>2026-04-04T12:32:12.931Z</time></trkpt><trkpt lat="43.5427865" lon="10.8174368"><ele>89.6</ele><time>2026-04-04T12:32:13.932Z</time></trkpt><trkpt lat="43.5428509" lon="10.8173292"><ele>88.39999999999999</ele><time>2026-04-04T12:32:14.932Z</time></trkpt><trkpt lat="43.542945" lon="10.8172376"><ele>87.19999999999999</ele><time>2026-04-04T12:32:15.931Z</time></trkpt><trkpt lat="43.5430524" lon="10.8171671"><ele>86.0</ele><time>2026-04-04T12:32:16.932Z</time></trkpt><trkpt lat="43.5431849" lon="10.8171044"><ele>84.5</ele><time>2026-04-04T12:32:17.932Z</time></trkpt><trkpt lat="43.5433255" lon="10.8170375"><ele>83.0</ele><time>2026-04-04T12:32:18.932Z</time></trkpt><trkpt lat="43.5434569" lon="10.8169769"><ele>81.5</ele><time>2026-04-04T12:32:19.932Z</time></trkpt><trkpt lat="43.543583" lon="10.8169158"><ele>80.0</ele><time>2026-04-04T12:32:20.932Z</time></trkpt><trkpt lat="43.5436998" lon="10.8168554"><ele>81.0</ele><time>2026-04-04T12:32:21.931Z</time></trkpt><trkpt lat="43.5438155" lon="10.8168075"><ele>82.0</ele><time>2026-04-04T12:32:22.931Z</time></trkpt><trkpt lat="43.5439195" lon="10.8167793"><ele>83.0</ele><time>2026-04-04T12:32:23.932Z</time></trkpt><trkpt lat="43.5440267" lon="10.8167493"><ele>84.0</ele><time>2026-04-04T12:32:24.931Z</time></trkpt><trkpt lat="43.5441102" lon="10.8167703"><ele>85.0</ele><time>2026-04-04T12:32:25.931Z</time></trkpt><trkpt lat="43.5441945" lon="10.8168137"><ele>84.6</ele><time>2026-04-04T12:32:26.931Z</time></trkpt><trkpt lat="43.5442682" lon="10.8168825"><ele>84.2</ele><time>2026-04-04T12:32:27.931Z</time></trkpt><trkpt lat="43.5443267" lon="10.8169784"><ele>83.80000000000001</ele><time>2026-04-04T12:32:28.931Z</time></trkpt><trkpt lat="43.5443775" lon="10.8171042"><ele>83.4</ele><time>2026-04-04T12:32:29.932Z</time></trkpt><trkpt lat="43.5444155" lon="10.8172467"><ele>83.0</ele><time>2026-04-04T12:32:30.932Z</time></trkpt><trkpt lat="43.544443" lon="10.8174019"><ele>83.0</ele><time>2026-04-04T12:32:31.932Z</time></trkpt><trkpt lat="43.5444691" lon="10.8175852"><ele>83.0</ele><time>2026-04-04T12:32:32.932Z</time></trkpt><trkpt lat="43.5444912" lon="10.8177948"><ele>83.0</ele><time>2026-04-04T12:32:33.932Z</time></trkpt><trkpt lat="43.5445141" lon="10.8180252"><ele>83.0</ele><time>2026-04-04T12:32:34.931Z</time></trkpt><trkpt lat="43.5445392" lon="10.8182487"><ele>83.0</ele><time>2026-04-04T12:32:35.931Z</time></trkpt><trkpt lat="43.5445659" lon="10.8184521"><ele>83.0</ele><time>2026-04-04T12:32:36.932Z</time></trkpt><trkpt lat="43.5445886" lon="10.8186389"><ele>87.25</ele><time>2026-04-04T12:32:37.932Z</time></trkpt><trkpt lat="43.5446105" lon="10.8188115"><ele>91.5</ele><time>2026-04-04T12:32:38.932Z</time></trkpt><trkpt lat="43.5446315" lon="10.8189694"><ele>95.75</ele><time>2026-04-04T12:32:39.931Z</time></trkpt><trkpt lat="43.5446555" lon="10.8191178"><ele>100.0</ele><time>2026-04-04T12:32:40.931Z</time></trkpt><trkpt lat="43.5446804" lon="10.819268"><ele>99.25</ele><time>2026-04-04T12:32:41.931Z</time></trkpt><trkpt lat="43.5447086" lon="10.8194137"><ele>98.5</ele><time>2026-04-04T12:32:42.931Z</time></trkpt><trkpt lat="43.5447519" lon="10.8195627"><ele>97.75</ele><time>2026-04-04T12:32:43.931Z</time></trkpt><trkpt lat="43.5448108" lon="10.8197139"><ele>97.0</ele><time>2026-04-04T12:32:44.932Z</time></trkpt><trkpt lat="43.544887" lon="10.8198515"><ele>97.0</ele><time>2026-04-04T12:32:45.932Z</time></trkpt><trkpt lat="43.5449808" lon="10.8199785"><ele>97.0</ele><time>2026-04-04T12:32:46.931Z</time></trkpt><trkpt lat="43.5450875" lon="10.8200987"><ele>97.0</ele><time>2026-04-04T12:32:47.932Z</time></trkpt><trkpt lat="43.5451903" lon="10.8202122"><ele>97.0</ele><time>2026-04-04T12:32:48.931Z</time></trkpt><trkpt lat="43.5452779" lon="10.8203311"><ele>96.5</ele><time>2026-04-04T12:32:49.931Z</time></trkpt><trkpt lat="43.5453487" lon="10.8204691"><ele>96.0</ele><time>2026-04-04T12:32:50.931Z</time></trkpt><trkpt lat="43.5454019" lon="10.8206231"><ele>95.5</ele><time>2026-04-04T12:32:51.931Z</time></trkpt><trkpt lat="43.5454423" lon="10.820792"><ele>95.0</ele><time>2026-04-04T12:32:52.931Z</time></trkpt><trkpt lat="43.5454777" lon="10.8209747"><ele>98.75</ele><time>2026-04-04T12:32:53.932Z</time></trkpt><trkpt lat="43.5455146" lon="10.8211773"><ele>102.5</ele><time>2026-04-04T12:32:54.932Z</time></trkpt><trkpt lat="43.5455492" lon="10.821368"><ele>106.25</ele><time>2026-04-04T12:32:55.931Z</time></trkpt><trkpt lat="43.5455811" lon="10.8215473"><ele>110.0</ele><time>2026-04-04T12:32:56.932Z</time></trkpt><trkpt lat="43.5456111" lon="10.8217165"><ele>110.0</ele><time>2026-04-04T12:32:57.932Z</time></trkpt><trkpt lat="43.5456464" lon="10.821877"><ele>110.0</ele><time>2026-04-04T12:32:58.932Z</time></trkpt><trkpt lat="43.5456933" lon="10.8220367"><ele>110.0</ele><time>2026-04-04T12:32:59.931Z</time></trkpt><trkpt lat="43.5457527" lon="10.8221963"><ele>110.0</ele><time>2026-04-04T12:33:00.932Z</time></trkpt><trkpt lat="43.54582" lon="10.8223617"><ele>110.0</ele><time>2026-04-04T12:33:01.932Z</time></trkpt><trkpt lat="43.5458839" lon="10.8225128"><ele>110.0</ele><time>2026-04-04T12:33:02.931Z</time></trkpt><trkpt lat="43.5459435" lon="10.8226388"><ele>110.0</ele><time>2026-04-04T12:33:03.932Z</time></trkpt><trkpt lat="43.5459992" lon="10.8227383"><ele>110.0</ele><time>2026-04-04T12:33:04.931Z</time></trkpt><trkpt lat="43.5460553" lon="10.8228173"><ele>110.0</ele><time>2026-04-04T12:33:05.932Z</time></trkpt><trkpt lat="43.5461117" lon="10.8228639"><ele>112.4</ele><time>2026-04-04T12:33:06.931Z</time></trkpt><trkpt lat="43.5462346" lon="10.8228764"><ele>114.8</ele><time>2026-04-04T12:33:08.932Z</time></trkpt><trkpt lat="43.546338" lon="10.8227776"><ele>117.19999999999999</ele><time>2026-04-04T12:33:10.932Z</time></trkpt><trkpt lat="43.5463761" lon="10.8226842"><ele>119.6</ele><time>2026-04-04T12:33:11.931Z</time></trkpt><trkpt lat="43.5464114" lon="10.822567"><ele>122.0</ele><time>2026-04-04T12:33:12.932Z</time></trkpt><trkpt lat="43.5464451" lon="10.8224327"><ele>122.5</ele><time>2026-04-04T12:33:13.932Z</time></trkpt><trkpt lat="43.5464789" lon="10.8222819"><ele>123.0</ele><time>2026-04-04T12:33:14.932Z</time></trkpt><trkpt lat="43.5465158" lon="10.8221191"><ele>123.5</ele><time>2026-04-04T12:33:15.931Z</time></trkpt><trkpt lat="43.5465541" lon="10.8219448"><ele>124.0</ele><time>2026-04-04T12:33:16.931Z</time></trkpt><trkpt lat="43.5465962" lon="10.8217558"><ele>125.0</ele><time>2026-04-04T12:33:17.931Z</time></trkpt><trkpt lat="43.5466414" lon="10.8215499"><ele>126.0</ele><time>2026-04-04T12:33:18.932Z</time></trkpt><trkpt lat="43.5466869" lon="10.8213375"><ele>127.0</ele><time>2026-04-04T12:33:19.931Z</time></trkpt><trkpt lat="43.5467267" lon="10.8211449"><ele>127.39999999999999</ele><time>2026-04-04T12:33:20.931Z</time></trkpt><trkpt lat="43.546764" lon="10.8209809"><ele>127.79999999999998</ele><time>2026-04-04T12:33:21.931Z</time></trkpt><trkpt lat="43.5468002" lon="10.820831"><ele>128.2</ele><time>2026-04-04T12:33:22.931Z</time></trkpt><trkpt lat="43.5468356" lon="10.8206892"><ele>128.6</ele><time>2026-04-04T12:33:23.931Z</time></trkpt><trkpt lat="43.5468679" lon="10.8205693"><ele>129.0</ele><time>2026-04-04T12:33:24.931Z</time></trkpt><trkpt lat="43.5469106" lon="10.820478"><ele>128.99999999999997</ele><time>2026-04-04T12:33:25.932Z</time></trkpt><trkpt lat="43.5469622" lon="10.8204116"><ele>129.0</ele><time>2026-04-04T12:33:26.932Z</time></trkpt><trkpt lat="43.5470224" lon="10.8203756"><ele>129.0</ele><time>2026-04-04T12:33:27.932Z</time></trkpt><trkpt lat="43.5470858" lon="10.8203752"><ele>129.0</ele><time>2026-04-04T12:33:28.931Z</time></trkpt><trkpt lat="43.5471496" lon="10.8204028"><ele>129.0</ele><time>2026-04-04T12:33:29.931Z</time></trkpt><trkpt lat="43.5472142" lon="10.8204582"><ele>128.99999999999997</ele><time>2026-04-04T12:33:30.931Z</time></trkpt><trkpt lat="43.5472856" lon="10.8205221"><ele>129.0</ele><time>2026-04-04T12:33:31.932Z</time></trkpt><trkpt lat="43.5473485" lon="10.8206246"><ele>132.5</ele><time>2026-04-04T12:33:32.932Z</time></trkpt><trkpt lat="43.5474202" lon="10.8207411"><ele>136.0</ele><time>2026-04-04T12:33:33.932Z</time></trkpt><trkpt lat="43.5475028" lon="10.8208624"><ele>139.5</ele><time>2026-04-04T12:33:34.932Z</time></trkpt><trkpt lat="43.5475775" lon="10.8209742"><ele>143.0</ele><time>2026-04-04T12:33:35.932Z</time></trkpt><trkpt lat="43.5476539" lon="10.8210797"><ele>143.0</ele><time>2026-04-04T12:33:36.932Z</time></trkpt><trkpt lat="43.5477351" lon="10.821193"><ele>143.0</ele><time>2026-04-04T12:33:37.931Z</time></trkpt><trkpt lat="43.5478232" lon="10.8213217"><ele>143.0</ele><time>2026-04-04T12:33:38.931Z</time></trkpt><trkpt lat="43.5479214" lon="10.8214517"><ele>143.0</ele><time>2026-04-04T12:33:39.932Z</time></trkpt><trkpt lat="43.5480183" lon="10.8215889"><ele>144.0</ele><time>2026-04-04T12:33:40.931Z</time></trkpt><trkpt lat="43.548117" lon="10.8217309"><ele>145.0</ele><time>2026-04-04T12:33:41.932Z</time></trkpt><trkpt lat="43.5482063" lon="10.8218651"><ele>146.0</ele><time>2026-04-04T12:33:42.932Z</time></trkpt><trkpt lat="43.5482937" lon="10.821988"><ele>147.0</ele><time>2026-04-04T12:33:43.931Z</time></trkpt><trkpt lat="43.5483862" lon="10.8220992"><ele>146.5</ele><time>2026-04-04T12:33:44.931Z</time></trkpt><trkpt lat="43.5484844" lon="10.8221981"><ele>146.0</ele><time>2026-04-04T12:33:45.931Z</time></trkpt><trkpt lat="43.548599" lon="10.8222854"><ele>145.5</ele><time>2026-04-04T12:33:46.932Z</time></trkpt><trkpt lat="43.5487281" lon="10.8223629"><ele>145.0</ele><time>2026-04-04T12:33:47.932Z</time></trkpt><trkpt lat="43.5488752" lon="10.8224261"><ele>145.0</ele><time>2026-04-04T12:33:48.931Z</time></trkpt><trkpt lat="43.54903" lon="10.822474"><ele>145.0</ele><time>2026-04-04T12:33:49.931Z</time></trkpt><trkpt lat="43.5491928" lon="10.8225182"><ele>145.0</ele><time>2026-04-04T12:33:50.932Z</time></trkpt><trkpt lat="43.5493504" lon="10.8225572"><ele>145.0</ele><time>2026-04-04T12:33:51.932Z</time></trkpt><trkpt lat="43.5495008" lon="10.822594"><ele>145.0</ele><time>2026-04-04T12:33:52.932Z</time></trkpt><trkpt lat="43.5496457" lon="10.8226295"><ele>145.0</ele><time>2026-04-04T12:33:53.932Z</time></trkpt><trkpt lat="43.5497921" lon="10.8226625"><ele>145.0</ele><time>2026-04-04T12:33:54.932Z</time></trkpt><trkpt lat="43.549941" lon="10.8226968"><ele>145.5</ele><time>2026-04-04T12:33:55.932Z</time></trkpt><trkpt lat="43.5500857" lon="10.8227316"><ele>146.0</ele><time>2026-04-04T12:33:56.931Z</time></trkpt><trkpt lat="43.5502301" lon="10.822772"><ele>146.5</ele><time>2026-04-04T12:33:57.931Z</time></trkpt><trkpt lat="43.5503678" lon="10.8228074"><ele>147.0</ele><time>2026-04-04T12:33:58.932Z</time></trkpt><trkpt lat="43.5504984" lon="10.8228489"><ele>147.0</ele><time>2026-04-04T12:33:59.932Z</time></trkpt><trkpt lat="43.5506228" lon="10.8228914"><ele>147.0</ele><time>2026-04-04T12:34:00.932Z</time></trkpt><trkpt lat="43.5507366" lon="10.8229337"><ele>147.0</ele><time>2026-04-04T12:34:01.931Z</time></trkpt><trkpt lat="43.5508473" lon="10.8229606"><ele>147.0</ele><time>2026-04-04T12:34:02.931Z</time></trkpt><trkpt lat="43.5509599" lon="10.8229703"><ele>147.0</ele><time>2026-04-04T12:34:03.931Z</time></trkpt><trkpt lat="43.5510704" lon="10.8229669"><ele>147.0</ele><time>2026-04-04T12:34:04.932Z</time></trkpt><trkpt lat="43.5511753" lon="10.8229592"><ele>147.0</ele><time>2026-04-04T12:34:05.932Z</time></trkpt><trkpt lat="43.5468002" lon="10.820831"><ele>146.5</ele><time>2026-04-04T12:33:22.931Z</time></trkpt><trkpt lat="43.5468356" lon="10.8206892"><ele>146.0</ele><time>2026-04-04T12:33:23.931Z</time></trkpt><trkpt lat="43.5468679" lon="10.8205693"><ele>145.5</ele><time>2026-04-04T12:33:24.931Z</time></trkpt><trkpt lat="43.5469106" lon="10.820478"><ele>145.0</ele><time>2026-04-04T12:33:25.932Z</time></trkpt><trkpt lat="43.5469622" lon="10.8204116"><ele>144.5</ele><time>2026-04-04T12:33:26.932Z</time></trkpt><trkpt lat="43.5470224" lon="10.8203756"><ele>144.0</ele><time>2026-04-04T12:33:27.932Z</time></trkpt><trkpt lat="43.5470858" lon="10.8203752"><ele>144.0</ele><time>2026-04-04T12:33:28.931Z</time></trkpt><trkpt lat="43.5471496" lon="10.8204028"><ele>144.0</ele><time>2026-04-04T12:33:29.931Z</time></trkpt><trkpt lat="43.5472142" lon="10.8204582"><ele>144.0</ele><time>2026-04-04T12:33:30.931Z</time></trkpt><trkpt lat="43.5472856" lon="10.8205221"><ele>144.0</ele><time>2026-04-04T12:33:31.932Z</time></trkpt><trkpt lat="43.5473485" lon="10.8206246"><ele>144.0</ele><time>2026-04-04T12:33:32.932Z</time></trkpt><trkpt lat="43.5474202" lon="10.8207411"><ele>144.0</ele><time>2026-04-04T12:33:33.932Z</time></trkpt><trkpt lat="43.5475028" lon="10.8208624"><ele>144.0</ele><time>2026-04-04T12:33:34.932Z</time></trkpt><trkpt lat="43.5475775" lon="10.8209742"><ele>144.0</ele><time>2026-04-04T12:33:35.932Z</time></trkpt><trkpt lat="43.5476539" lon="10.8210797"><ele>144.0</ele><time>2026-04-04T12:33:36.932Z</time></trkpt><trkpt lat="43.5477351" lon="10.821193"><ele>144.0</ele><time>2026-04-04T12:33:37.931Z</time></trkpt><trkpt lat="43.5478232" lon="10.8213217"><ele>144.75</ele><time>2026-04-04T12:33:38.931Z</time></trkpt><trkpt lat="43.5479214" lon="10.8214517"><ele>145.5</ele><time>2026-04-04T12:33:39.932Z</time></trkpt><trkpt lat="43.5480183" lon="10.8215889"><ele>146.25</ele><time>2026-04-04T12:33:40.931Z</time></trkpt><trkpt lat="43.548117" lon="10.8217309"><ele>147.0</ele><time>2026-04-04T12:33:41.932Z</time></trkpt><trkpt lat="43.5482063" lon="10.8218651"><ele>148.75</ele><time>2026-04-04T12:33:42.932Z</time></trkpt><trkpt lat="43.5482937" lon="10.821988"><ele>150.5</ele><time>2026-04-04T12:33:43.931Z</time></trkpt><trkpt lat="43.5483862" lon="10.8220992"><ele>152.25</ele><time>2026-04-04T12:33:44.931Z</time></trkpt><trkpt lat="43.5484844" lon="10.8221981"><ele>154.0</ele><time>2026-04-04T12:33:45.931Z</time></trkpt><trkpt lat="43.548599" lon="10.8222854"><ele>151.0</ele><time>2026-04-04T12:33:46.932Z</time></trkpt><trkpt lat="43.5487281" lon="10.8223629"><ele>148.0</ele><time>2026-04-04T12:33:47.932Z</time></trkpt><trkpt lat="43.5488752" lon="10.8224261"><ele>145.0</ele><time>2026-04-04T12:33:48.931Z</time></trkpt><trkpt lat="43.54903" lon="10.822474"><ele>145.0</ele><time>2026-04-04T12:33:49.931Z</time></trkpt><trkpt lat="43.5491928" lon="10.8225182"><ele>145.0</ele><time>2026-04-04T12:33:50.932Z</time></trkpt><trkpt lat="43.5493504" lon="10.8225572"><ele>145.0</ele><time>2026-04-04T12:33:51.932Z</time></trkpt><trkpt lat="43.5495008" lon="10.822594"><ele>143.75</ele><time>2026-04-04T12:33:52.932Z</time></trkpt><trkpt lat="43.5496457" lon="10.8226295"><ele>142.5</ele><time>2026-04-04T12:33:53.932Z</time></trkpt><trkpt lat="43.5497921" lon="10.8226625"><ele>141.25</ele><time>2026-04-04T12:33:54.932Z</time></trkpt><trkpt lat="43.549941" lon="10.8226968"><ele>140.0</ele><time>2026-04-04T12:33:55.932Z</time></trkpt><trkpt lat="43.5500857" lon="10.8227316"><ele>141.75</ele><time>2026-04-04T12:33:56.931Z</time></trkpt><trkpt lat="43.5502301" lon="10.822772"><ele>143.5</ele><time>2026-04-04T12:33:57.931Z</time></trkpt><trkpt lat="43.5503678" lon="10.8228074"><ele>145.25</ele><time>2026-04-04T12:33:58.932Z</time></trkpt><trkpt lat="43.5504984" lon="10.8228489"><ele>147.0</ele><time>2026-04-04T12:33:59.932Z</time></trkpt><trkpt lat="43.5506228" lon="10.8228914"><ele>147.0</ele><time>2026-04-04T12:34:00.932Z</time></trkpt><trkpt lat="43.5507366" lon="10.8229337"><ele>147.0</ele><time>2026-04-04T12:34:01.931Z</time></trkpt><trkpt lat="43.5508473" lon="10.8229606"><ele>147.0</ele><time>2026-04-04T12:34:02.931Z</time></trkpt><trkpt lat="43.5509599" lon="10.8229703"><ele>147.0</ele><time>2026-04-04T12:34:03.931Z</time></trkpt><trkpt lat="43.5510704" lon="10.8229669"><ele>147.0</ele><time>2026-04-04T12:34:04.932Z</time></trkpt><trkpt lat="43.5511753" lon="10.8229592"><ele>147.0</ele><time>2026-04-04T12:34:05.932Z</time></trkpt><trkpt lat="43.5512746" lon="10.822952"><ele>147.0</ele><time>2026-04-04T12:34:06.932Z</time></trkpt><trkpt lat="43.5513673" lon="10.8229328"><ele>147.0</ele><time>2026-04-04T12:34:07.931Z</time></trkpt><trkpt lat="43.5514571" lon="10.822884"><ele>147.0</ele><time>2026-04-04T12:34:08.931Z</time></trkpt><trkpt lat="43.5515408" lon="10.8228034"><ele>147.0</ele><time>2026-04-04T12:34:09.932Z</time></trkpt><trkpt lat="43.5516218" lon="10.8226857"><ele>147.0</ele><time>2026-04-04T12:34:10.931Z</time></trkpt><trkpt lat="43.5517026" lon="10.8225502"><ele>147.0</ele><time>2026-04-04T12:34:11.931Z</time></trkpt><trkpt lat="43.5517795" lon="10.8224107"><ele>147.0</ele><time>2026-04-04T12:34:12.931Z</time></trkpt><trkpt lat="43.5518555" lon="10.8222754"><ele>144.5</ele><time>2026-04-04T12:34:13.932Z</time></trkpt><trkpt lat="43.5519355" lon="10.8221307"><ele>142.0</ele><time>2026-04-04T12:34:14.931Z</time></trkpt><trkpt lat="43.5520232" lon="10.8219688"><ele>139.5</ele><time>2026-04-04T12:34:15.932Z</time></trkpt><trkpt lat="43.5521101" lon="10.8218056"><ele>137.0</ele><time>2026-04-04T12:34:16.931Z</time></trkpt><trkpt lat="43.5521956" lon="10.8216422"><ele>135.5</ele><time>2026-04-04T12:34:17.932Z</time></trkpt><trkpt lat="43.5522837" lon="10.8214804"><ele>134.0</ele><time>2026-04-04T12:34:18.932Z</time></trkpt><trkpt lat="43.5523732" lon="10.8213197"><ele>132.5</ele><time>2026-04-04T12:34:19.931Z</time></trkpt><trkpt lat="43.5524616" lon="10.8211616"><ele>131.0</ele><time>2026-04-04T12:34:20.932Z</time></trkpt><trkpt lat="43.5525471" lon="10.8209999"><ele>130.25</ele><time>2026-04-04T12:34:21.931Z</time></trkpt><trkpt lat="43.5526298" lon="10.8208476"><ele>129.5</ele><time>2026-04-04T12:34:22.931Z</time></trkpt><trkpt lat="43.5527107" lon="10.8206986"><ele>128.75</ele><time>2026-04-04T12:34:23.931Z</time></trkpt><trkpt lat="43.5527925" lon="10.8205515"><ele>128.0</ele><time>2026-04-04T12:34:24.931Z</time></trkpt><trkpt lat="43.5528745" lon="10.8204053"><ele>128.0</ele><time>2026-04-04T12:34:25.932Z</time></trkpt><trkpt lat="43.5529523" lon="10.820261"><ele>128.0</ele><time>2026-04-04T12:34:26.932Z</time></trkpt><trkpt lat="43.5530334" lon="10.820117"><ele>128.0</ele><time>2026-04-04T12:34:27.931Z</time></trkpt><trkpt lat="43.5531129" lon="10.8199733"><ele>128.0</ele><time>2026-04-04T12:34:28.931Z</time></trkpt><trkpt lat="43.5531927" lon="10.819834"><ele>126.5</ele><time>2026-04-04T12:34:29.931Z</time></trkpt><trkpt lat="43.5532697" lon="10.8196946"><ele>125.0</ele><time>2026-04-04T12:34:30.931Z</time></trkpt><trkpt lat="43.5533433" lon="10.8195645"><ele>123.5</ele><time>2026-04-04T12:34:31.932Z</time></trkpt><trkpt lat="43.5534132" lon="10.8194343"><ele>122.0</ele><time>2026-04-04T12:34:32.931Z</time></trkpt><trkpt lat="43.5534888" lon="10.8193007"><ele>120.5</ele><time>2026-04-04T12:34:33.931Z</time></trkpt><trkpt lat="43.553563" lon="10.8191643"><ele>119.0</ele><time>2026-04-04T12:34:34.932Z</time></trkpt><trkpt lat="43.553635" lon="10.8190317"><ele>117.5</ele><time>2026-04-04T12:34:35.931Z</time></trkpt><trkpt lat="43.5537067" lon="10.8189043"><ele>116.0</ele><time>2026-04-04T12:34:36.931Z</time></trkpt><trkpt lat="43.5537817" lon="10.8187723"><ele>115.25</ele><time>2026-04-04T12:34:37.931Z</time></trkpt><trkpt lat="43.553858" lon="10.8186375"><ele>114.5</ele><time>2026-04-04T12:34:38.932Z</time></trkpt><trkpt lat="43.5539283" lon="10.8185028"><ele>113.75</ele><time>2026-04-04T12:34:39.932Z</time></trkpt><trkpt lat="43.5540016" lon="10.8183646"><ele>113.0</ele><time>2026-04-04T12:34:40.931Z</time></trkpt><trkpt lat="43.5540758" lon="10.8182255"><ele>112.0</ele><time>2026-04-04T12:34:41.931Z</time></trkpt><trkpt lat="43.5541514" lon="10.818093"><ele>111.0</ele><time>2026-04-04T12:34:42.932Z</time></trkpt><trkpt lat="43.5542285" lon="10.8179599"><ele>110.0</ele><time>2026-04-04T12:34:43.932Z</time></trkpt><trkpt lat="43.5543085" lon="10.8178243"><ele>109.0</ele><time>2026-04-04T12:34:44.932Z</time></trkpt><trkpt lat="43.5543851" lon="10.8176854"><ele>107.5</ele><time>2026-04-04T12:34:45.932Z</time></trkpt><trkpt lat="43.554464" lon="10.8175362"><ele>106.0</ele><time>2026-04-04T12:34:46.932Z</time></trkpt><trkpt lat="43.5545423" lon="10.8173891"><ele>104.5</ele><time>2026-04-04T12:34:47.932Z</time></trkpt><trkpt lat="43.5546182" lon="10.8172443"><ele>103.0</ele><time>2026-04-04T12:34:48.932Z</time></trkpt><trkpt lat="43.5546949" lon="10.8171033"><ele>102.5</ele><time>2026-04-04T12:34:49.931Z</time></trkpt><trkpt lat="43.5547698" lon="10.8169629"><ele>102.0</ele><time>2026-04-04T12:34:50.931Z</time></trkpt><trkpt lat="43.5548444" lon="10.8168303"><ele>101.5</ele><time>2026-04-04T12:34:51.931Z</time></trkpt><trkpt lat="43.5549179" lon="10.8167011"><ele>101.0</ele><time>2026-04-04T12:34:52.932Z</time></trkpt><trkpt lat="43.5549867" lon="10.8165759"><ele>100.19999999999999</ele><time>2026-04-04T12:34:53.931Z</time></trkpt><trkpt lat="43.5550529" lon="10.816451"><ele>99.39999999999999</ele><time>2026-04-04T12:34:54.931Z</time></trkpt><trkpt lat="43.5551171" lon="10.8163284"><ele>98.6</ele><time>2026-04-04T12:34:55.931Z</time></trkpt><trkpt lat="43.5551801" lon="10.8162066"><ele>97.8</ele><time>2026-04-04T12:34:56.931Z</time></trkpt><trkpt lat="43.5552417" lon="10.8160924"><ele>97.0</ele><time>2026-04-04T12:34:57.931Z</time></trkpt><trkpt lat="43.5553069" lon="10.8159853"><ele>95.0</ele><time>2026-04-04T12:34:58.931Z</time></trkpt><trkpt lat="43.555382" lon="10.8158712"><ele>93.0</ele><time>2026-04-04T12:34:59.932Z</time></trkpt><trkpt lat="43.5554704" lon="10.8157622"><ele>91.0</ele><time>2026-04-04T12:35:00.932Z</time></trkpt><trkpt lat="43.555573" lon="10.8156746"><ele>89.0</ele><time>2026-04-04T12:35:01.932Z</time></trkpt><trkpt lat="43.5556933" lon="10.815606"><ele>89.0</ele><time>2026-04-04T12:35:02.931Z</time></trkpt><trkpt lat="43.5558247" lon="10.8155481"><ele>89.0</ele><time>2026-04-04T12:35:03.931Z</time></trkpt><trkpt lat="43.5559583" lon="10.8154966"><ele>89.0</ele><time>2026-04-04T12:35:04.931Z</time></trkpt><trkpt lat="43.5560897" lon="10.8154535"><ele>89.0</ele><time>2026-04-04T12:35:05.932Z</time></trkpt><trkpt lat="43.5562162" lon="10.815413"><ele>87.0</ele><time>2026-04-04T12:35:06.931Z</time></trkpt><trkpt lat="43.556341" lon="10.8153655"><ele>85.0</ele><time>2026-04-04T12:35:07.931Z</time></trkpt><trkpt lat="43.5564713" lon="10.815318"><ele>83.0</ele><time>2026-04-04T12:35:08.931Z</time></trkpt><trkpt lat="43.5566117" lon="10.8152662"><ele>81.0</ele><time>2026-04-04T12:35:09.932Z</time></trkpt><trkpt lat="43.5567492" lon="10.8152238"><ele>81.0</ele><time>2026-04-04T12:35:10.931Z</time></trkpt><trkpt lat="43.5568867" lon="10.8151942"><ele>81.0</ele><time>2026-04-04T12:35:11.932Z</time></trkpt><trkpt lat="43.5570241" lon="10.8151893"><ele>81.0</ele><time>2026-04-04T12:35:12.931Z</time></trkpt><trkpt lat="43.5571648" lon="10.8152016"><ele>81.0</ele><time>2026-04-04T12:35:13.931Z</time></trkpt><trkpt lat="43.5573134" lon="10.8152308"><ele>79.66666666666667</ele><time>2026-04-04T12:35:14.932Z</time></trkpt><trkpt lat="43.5574709" lon="10.8152673"><ele>78.33333333333334</ele><time>2026-04-04T12:35:15.932Z</time></trkpt><trkpt lat="43.5576416" lon="10.8153079"><ele>77.0</ele><time>2026-04-04T12:35:16.931Z</time></trkpt><trkpt lat="43.5578284" lon="10.815358"><ele>78.0</ele><time>2026-04-04T12:35:17.932Z</time></trkpt><trkpt lat="43.5580203" lon="10.8154052"><ele>79.0</ele><time>2026-04-04T12:35:18.932Z</time></trkpt><trkpt lat="43.5582137" lon="10.8154513"><ele>80.0</ele><time>2026-04-04T12:35:19.932Z</time></trkpt><trkpt lat="43.5584133" lon="10.8154977"><ele>80.0</ele><time>2026-04-04T12:35:20.932Z</time></trkpt><trkpt lat="43.5586023" lon="10.8155372"><ele>80.0</ele><time>2026-04-04T12:35:21.931Z</time></trkpt><trkpt lat="43.5587741" lon="10.8155753"><ele>80.0</ele><time>2026-04-04T12:35:22.932Z</time></trkpt><trkpt lat="43.5589314" lon="10.8156106"><ele>80.25</ele><time>2026-04-04T12:35:23.932Z</time></trkpt><trkpt lat="43.5590801" lon="10.8156425"><ele>80.5</ele><time>2026-04-04T12:35:24.931Z</time></trkpt><trkpt lat="43.5592238" lon="10.8156713"><ele>80.75</ele><time>2026-04-04T12:35:25.929Z</time></trkpt><trkpt lat="43.5593641" lon="10.8157078"><ele>81.0</ele><time>2026-04-04T12:35:26.931Z</time></trkpt><trkpt lat="43.5595053" lon="10.8157586"><ele>80.0</ele><time>2026-04-04T12:35:27.931Z</time></trkpt><trkpt lat="43.55964" lon="10.8158324"><ele>79.0</ele><time>2026-04-04T12:35:28.931Z</time></trkpt><trkpt lat="43.5597663" lon="10.8159357"><ele>78.0</ele><time>2026-04-04T12:35:29.932Z</time></trkpt><trkpt lat="43.5598916" lon="10.8160553"><ele>77.0</ele><time>2026-04-04T12:35:30.932Z</time></trkpt><trkpt lat="43.5600226" lon="10.8161787"><ele>78.0</ele><time>2026-04-04T12:35:31.932Z</time></trkpt><trkpt lat="43.5601539" lon="10.8163072"><ele>79.0</ele><time>2026-04-04T12:35:32.932Z</time></trkpt><trkpt lat="43.5602747" lon="10.8164331"><ele>80.0</ele><time>2026-04-04T12:35:33.931Z</time></trkpt><trkpt lat="43.5603923" lon="10.8165463"><ele>80.0</ele><time>2026-04-04T12:35:34.932Z</time></trkpt><trkpt lat="43.5605068" lon="10.8166558"><ele>80.0</ele><time>2026-04-04T12:35:35.931Z</time></trkpt><trkpt lat="43.560616" lon="10.8167663"><ele>80.0</ele><time>2026-04-04T12:35:36.931Z</time></trkpt><trkpt lat="43.5607275" lon="10.8168862"><ele>80.0</ele><time>2026-04-04T12:35:37.931Z</time></trkpt><trkpt lat="43.5608366" lon="10.8170185"><ele>81.66666666666667</ele><time>2026-04-04T12:35:38.932Z</time></trkpt><trkpt lat="43.5609378" lon="10.8171745"><ele>83.33333333333333</ele><time>2026-04-04T12:35:39.932Z</time></trkpt><trkpt lat="43.561039" lon="10.8173426"><ele>85.0</ele><time>2026-04-04T12:35:40.931Z</time></trkpt><trkpt lat="43.561145" lon="10.8175247"><ele>84.0</ele><time>2026-04-04T12:35:41.931Z</time></trkpt><trkpt lat="43.5612561" lon="10.8177201"><ele>83.0</ele><time>2026-04-04T12:35:42.931Z</time></trkpt><trkpt lat="43.561369" lon="10.8179166"><ele>82.0</ele><time>2026-04-04T12:35:43.931Z</time></trkpt><trkpt lat="43.5614733" lon="10.8180956"><ele>82.0</ele><time>2026-04-04T12:35:44.931Z</time></trkpt><trkpt lat="43.5615709" lon="10.8182657"><ele>82.0</ele><time>2026-04-04T12:35:45.931Z</time></trkpt><trkpt lat="43.5616636" lon="10.8184286"><ele>82.0</ele><time>2026-04-04T12:35:46.931Z</time></trkpt><trkpt lat="43.5617496" lon="10.8185851"><ele>82.5</ele><time>2026-04-04T12:35:47.931Z</time></trkpt><trkpt lat="43.5618335" lon="10.8187351"><ele>83.0</ele><time>2026-04-04T12:35:48.931Z</time></trkpt><trkpt lat="43.5619124" lon="10.8188684"><ele>83.5</ele><time>2026-04-04T12:35:49.931Z</time></trkpt><trkpt lat="43.5619881" lon="10.8189886"><ele>84.0</ele><time>2026-04-04T12:35:50.931Z</time></trkpt><trkpt lat="43.5620658" lon="10.8190903"><ele>84.0</ele><time>2026-04-04T12:35:51.931Z</time></trkpt><trkpt lat="43.5621522" lon="10.8191696"><ele>84.0</ele><time>2026-04-04T12:35:52.931Z</time></trkpt><trkpt lat="43.5622496" lon="10.8192187"><ele>84.0</ele><time>2026-04-04T12:35:53.931Z</time></trkpt><trkpt lat="43.5623552" lon="10.8192372"><ele>84.0</ele><time>2026-04-04T12:35:54.932Z</time></trkpt><trkpt lat="43.5624651" lon="10.8192162"><ele>84.0</ele><time>2026-04-04T12:35:55.931Z</time></trkpt><trkpt lat="43.5625839" lon="10.8191609"><ele>84.0</ele><time>2026-04-04T12:35:56.932Z</time></trkpt><trkpt lat="43.5627092" lon="10.8190823"><ele>84.0</ele><time>2026-04-04T12:35:57.931Z</time></trkpt><trkpt lat="43.5628485" lon="10.8189924"><ele>84.0</ele><time>2026-04-04T12:35:58.932Z</time></trkpt><trkpt lat="43.5629843" lon="10.8189003"><ele>84.0</ele><time>2026-04-04T12:35:59.931Z</time></trkpt><trkpt lat="43.5631117" lon="10.8188075"><ele>82.75</ele><time>2026-04-04T12:36:00.931Z</time></trkpt><trkpt lat="43.5632355" lon="10.8187198"><ele>81.5</ele><time>2026-04-04T12:36:01.932Z</time></trkpt><trkpt lat="43.5633527" lon="10.8186479"><ele>80.25</ele><time>2026-04-04T12:36:02.931Z</time></trkpt><trkpt lat="43.563459" lon="10.818595"><ele>79.0</ele><time>2026-04-04T12:36:03.932Z</time></trkpt><trkpt lat="43.5635621" lon="10.8185739"><ele>79.0</ele><time>2026-04-04T12:36:04.931Z</time></trkpt><trkpt lat="43.5636618" lon="10.8185841"><ele>79.0</ele><time>2026-04-04T12:36:05.932Z</time></trkpt><trkpt lat="43.5637536" lon="10.818616"><ele>79.0</ele><time>2026-04-04T12:36:06.931Z</time></trkpt><trkpt lat="43.5638352" lon="10.8186795"><ele>79.0</ele><time>2026-04-04T12:36:07.931Z</time></trkpt><trkpt lat="43.5639065" lon="10.818768"><ele>79.0</ele><time>2026-04-04T12:36:08.932Z</time></trkpt><trkpt lat="43.5639703" lon="10.8188909"><ele>81.0</ele><time>2026-04-04T12:36:09.931Z</time></trkpt><trkpt lat="43.5640367" lon="10.8190461"><ele>83.0</ele><time>2026-04-04T12:36:10.932Z</time></trkpt><trkpt lat="43.5641104" lon="10.8192315"><ele>85.0</ele><time>2026-04-04T12:36:11.932Z</time></trkpt><trkpt lat="43.5641953" lon="10.8194332"><ele>85.0</ele><time>2026-04-04T12:36:12.931Z</time></trkpt><trkpt lat="43.5642892" lon="10.8196436"><ele>85.0</ele><time>2026-04-04T12:36:13.931Z</time></trkpt><trkpt lat="43.5644013" lon="10.8198504"><ele>85.0</ele><time>2026-04-04T12:36:14.931Z</time></trkpt><trkpt lat="43.564541" lon="10.8200473"><ele>89.66666666666666</ele><time>2026-04-04T12:36:15.932Z</time></trkpt><trkpt lat="43.5647031" lon="10.820233"><ele>94.33333333333333</ele><time>2026-04-04T12:36:16.931Z</time></trkpt><trkpt lat="43.5648752" lon="10.8204281"><ele>99.0</ele><time>2026-04-04T12:36:17.931Z</time></trkpt><trkpt lat="43.5650424" lon="10.8206198"><ele>99.0</ele><time>2026-04-04T12:36:18.932Z</time></trkpt><trkpt lat="43.5651934" lon="10.8207949"><ele>99.0</ele><time>2026-04-04T12:36:19.931Z</time></trkpt><trkpt lat="43.5653357" lon="10.8209528"><ele>99.0</ele><time>2026-04-04T12:36:20.931Z</time></trkpt><trkpt lat="43.56547" lon="10.8210843"><ele>99.0</ele><time>2026-04-04T12:36:21.932Z</time></trkpt><trkpt lat="43.5656121" lon="10.821182"><ele>99.0</ele><time>2026-04-04T12:36:22.931Z</time></trkpt><trkpt lat="43.5657616" lon="10.8212393"><ele>99.0</ele><time>2026-04-04T12:36:23.931Z</time></trkpt><trkpt lat="43.5659186" lon="10.8212765"><ele>99.0</ele><time>2026-04-04T12:36:24.932Z</time></trkpt><trkpt lat="43.5660766" lon="10.8213127"><ele>99.0</ele><time>2026-04-04T12:36:25.931Z</time></trkpt><trkpt lat="43.5662345" lon="10.8213589"><ele>99.0</ele><time>2026-04-04T12:36:26.932Z</time></trkpt><trkpt lat="43.5663906" lon="10.8214033"><ele>102.66666666666666</ele><time>2026-04-04T12:36:27.931Z</time></trkpt><trkpt lat="43.5665388" lon="10.821455"><ele>106.33333333333333</ele><time>2026-04-04T12:36:28.931Z</time></trkpt><trkpt lat="43.5666881" lon="10.8215069"><ele>110.0</ele><time>2026-04-04T12:36:29.932Z</time></trkpt><trkpt lat="43.566839" lon="10.8215557"><ele>110.0</ele><time>2026-04-04T12:36:30.931Z</time></trkpt><trkpt lat="43.5669903" lon="10.8215995"><ele>110.0</ele><time>2026-04-04T12:36:31.931Z</time></trkpt><trkpt lat="43.5671569" lon="10.8216466"><ele>110.0</ele><time>2026-04-04T12:36:32.931Z</time></trkpt><trkpt lat="43.5673376" lon="10.8216979"><ele>109.66666666666666</ele><time>2026-04-04T12:36:33.931Z</time></trkpt><trkpt lat="43.5675175" lon="10.8217476"><ele>109.33333333333334</ele><time>2026-04-04T12:36:34.932Z</time></trkpt><trkpt lat="43.5676898" lon="10.8217911"><ele>109.0</ele><time>2026-04-04T12:36:35.931Z</time></trkpt><trkpt lat="43.5678496" lon="10.8218265"><ele>114.25</ele><time>2026-04-04T12:36:36.932Z</time></trkpt><trkpt lat="43.5679933" lon="10.8218712"><ele>119.5</ele><time>2026-04-04T12:36:37.931Z</time></trkpt><trkpt lat="43.5681173" lon="10.821952"><ele>124.75</ele><time>2026-04-04T12:36:38.932Z</time></trkpt><trkpt lat="43.5682211" lon="10.8220679"><ele>130.0</ele><time>2026-04-04T12:36:39.931Z</time></trkpt><trkpt lat="43.568293" lon="10.8222207"><ele>130.0</ele><time>2026-04-04T12:36:40.932Z</time></trkpt><trkpt lat="43.5683304" lon="10.8224126"><ele>130.0</ele><time>2026-04-04T12:36:41.932Z</time></trkpt><trkpt lat="43.568349" lon="10.8226309"><ele>130.0</ele><time>2026-04-04T12:36:42.931Z</time></trkpt><trkpt lat="43.5683629" lon="10.8228715"><ele>129.66666666666669</ele><time>2026-04-04T12:36:43.932Z</time></trkpt><trkpt lat="43.5683774" lon="10.823124"><ele>129.33333333333334</ele><time>2026-04-04T12:36:44.931Z</time></trkpt><trkpt lat="43.5683982" lon="10.823366"><ele>129.0</ele><time>2026-04-04T12:36:45.932Z</time></trkpt><trkpt lat="43.5684157" lon="10.8235911"><ele>129.5</ele><time>2026-04-04T12:36:46.931Z</time></trkpt><trkpt lat="43.5684387" lon="10.823804"><ele>130.0</ele><time>2026-04-04T12:36:47.932Z</time></trkpt><trkpt lat="43.5684612" lon="10.8240086"><ele>130.5</ele><time>2026-04-04T12:36:48.931Z</time></trkpt><trkpt lat="43.568481" lon="10.8241949"><ele>131.0</ele><time>2026-04-04T12:36:49.932Z</time></trkpt><trkpt lat="43.5685038" lon="10.82437"><ele>132.0</ele><time>2026-04-04T12:36:50.931Z</time></trkpt><trkpt lat="43.568524" lon="10.8245314"><ele>133.0</ele><time>2026-04-04T12:36:51.932Z</time></trkpt><trkpt lat="43.5685354" lon="10.8246758"><ele>134.0</ele><time>2026-04-04T12:36:52.932Z</time></trkpt><trkpt lat="43.5685486" lon="10.8248032"><ele>135.0</ele><time>2026-04-04T12:36:53.931Z</time></trkpt><trkpt lat="43.568564" lon="10.8249098"><ele>136.0</ele><time>2026-04-04T12:36:54.932Z</time></trkpt><trkpt lat="43.5685913" lon="10.8249904"><ele>136.0</ele><time>2026-04-04T12:36:55.932Z</time></trkpt><trkpt lat="43.5686663" lon="10.8250561"><ele>136.0</ele><time>2026-04-04T12:36:57.931Z</time></trkpt><trkpt lat="43.5687548" lon="10.8250002"><ele>136.0</ele><time>2026-04-04T12:36:59.931Z</time></trkpt><trkpt lat="43.5688066" lon="10.8249358"><ele>136.0</ele><time>2026-04-04T12:37:00.931Z</time></trkpt><trkpt lat="43.5688701" lon="10.8248459"><ele>136.0</ele><time>2026-04-04T12:37:01.931Z</time></trkpt><trkpt lat="43.5689455" lon="10.8247404"><ele>136.25</ele><time>2026-04-04T12:37:02.931Z</time></trkpt><trkpt lat="43.5690274" lon="10.8246231"><ele>136.5</ele><time>2026-04-04T12:37:03.932Z</time></trkpt><trkpt lat="43.5691155" lon="10.8244871"><ele>136.75</ele><time>2026-04-04T12:37:04.931Z</time></trkpt><trkpt lat="43.5692127" lon="10.8243349"><ele>137.0</ele><time>2026-04-04T12:37:05.931Z</time></trkpt><trkpt lat="43.5693118" lon="10.8241702"><ele>138.33333333333331</ele><time>2026-04-04T12:37:06.931Z</time></trkpt><trkpt lat="43.5694163" lon="10.8240016"><ele>139.66666666666666</ele><time>2026-04-04T12:37:07.931Z</time></trkpt><trkpt lat="43.5695205" lon="10.823818"><ele>141.0</ele><time>2026-04-04T12:37:08.931Z</time></trkpt><trkpt lat="43.5696145" lon="10.8236143"><ele>139.0</ele><time>2026-04-04T12:37:09.931Z</time></trkpt><trkpt lat="43.5697012" lon="10.8233947"><ele>137.0</ele><time>2026-04-04T12:37:10.931Z</time></trkpt><trkpt lat="43.5697766" lon="10.8231621"><ele>135.0</ele><time>2026-04-04T12:37:11.932Z</time></trkpt><trkpt lat="43.5698426" lon="10.822912"><ele>135.0</ele><time>2026-04-04T12:37:12.931Z</time></trkpt><trkpt lat="43.5699034" lon="10.8226509"><ele>135.0</ele><time>2026-04-04T12:37:13.93Z</time></trkpt><trkpt lat="43.5699553" lon="10.8223973"><ele>135.0</ele><time>2026-04-04T12:37:14.932Z</time></trkpt><trkpt lat="43.5700015" lon="10.8221511"><ele>135.33333333333334</ele><time>2026-04-04T12:37:15.931Z</time></trkpt><trkpt lat="43.5700503" lon="10.8219212"><ele>135.66666666666669</ele><time>2026-04-04T12:37:16.931Z</time></trkpt><trkpt lat="43.5701018" lon="10.8216942"><ele>136.0</ele><time>2026-04-04T12:37:17.931Z</time></trkpt><trkpt lat="43.5701584" lon="10.8214589"><ele>136.33333333333334</ele><time>2026-04-04T12:37:18.932Z</time></trkpt><trkpt lat="43.5702243" lon="10.821236"><ele>136.66666666666666</ele><time>2026-04-04T12:37:19.932Z</time></trkpt><trkpt lat="43.5703025" lon="10.8210294"><ele>137.0</ele><time>2026-04-04T12:37:20.931Z</time></trkpt><trkpt lat="43.5704042" lon="10.8208395"><ele>132.66666666666666</ele><time>2026-04-04T12:37:21.931Z</time></trkpt><trkpt lat="43.5705213" lon="10.8206681"><ele>128.33333333333334</ele><time>2026-04-04T12:37:22.932Z</time></trkpt><trkpt lat="43.5706459" lon="10.8205225"><ele>124.0</ele><time>2026-04-04T12:37:23.931Z</time></trkpt><trkpt lat="43.5707831" lon="10.8204115"><ele>124.0</ele><time>2026-04-04T12:37:24.932Z</time></trkpt><trkpt lat="43.570934" lon="10.820338"><ele>124.0</ele><time>2026-04-04T12:37:25.931Z</time></trkpt><trkpt lat="43.5711022" lon="10.8203018"><ele>124.0</ele><time>2026-04-04T12:37:26.931Z</time></trkpt><trkpt lat="43.5712873" lon="10.8202803"><ele>120.0</ele><time>2026-04-04T12:37:27.931Z</time></trkpt><trkpt lat="43.571479" lon="10.8202569"><ele>116.0</ele><time>2026-04-04T12:37:28.931Z</time></trkpt><trkpt lat="43.571667" lon="10.8202372"><ele>112.0</ele><time>2026-04-04T12:37:29.931Z</time></trkpt><trkpt lat="43.5718467" lon="10.8202266"><ele>112.0</ele><time>2026-04-04T12:37:30.932Z</time></trkpt><trkpt lat="43.572021" lon="10.8202204"><ele>112.0</ele><time>2026-04-04T12:37:31.931Z</time></trkpt><trkpt lat="43.5721828" lon="10.820206"><ele>112.0</ele><time>2026-04-04T12:37:32.932Z</time></trkpt><trkpt lat="43.5723287" lon="10.8201828"><ele>114.0</ele><time>2026-04-04T12:37:33.931Z</time></trkpt><trkpt lat="43.5724725" lon="10.820137"><ele>116.0</ele><time>2026-04-04T12:37:34.932Z</time></trkpt><trkpt lat="43.5726096" lon="10.820046"><ele>118.0</ele><time>2026-04-04T12:37:35.932Z</time></trkpt><trkpt lat="43.572729" lon="10.819905"><ele>118.0</ele><time>2026-04-04T12:37:36.931Z</time></trkpt><trkpt lat="43.5728236" lon="10.8197201"><ele>118.0</ele><time>2026-04-04T12:37:37.931Z</time></trkpt><trkpt lat="43.5728975" lon="10.8195007"><ele>118.0</ele><time>2026-04-04T12:37:38.932Z</time></trkpt><trkpt lat="43.5729584" lon="10.8192435"><ele>115.0</ele><time>2026-04-04T12:37:39.932Z</time></trkpt><trkpt lat="43.573015" lon="10.8189597"><ele>112.0</ele><time>2026-04-04T12:37:40.93Z</time></trkpt><trkpt lat="43.5730785" lon="10.8186562"><ele>109.0</ele><time>2026-04-04T12:37:41.932Z</time></trkpt><trkpt lat="43.5731374" lon="10.818357"><ele>107.66666666666667</ele><time>2026-04-04T12:37:42.93Z</time></trkpt><trkpt lat="43.5731966" lon="10.8180713"><ele>106.33333333333334</ele><time>2026-04-04T12:37:43.931Z</time></trkpt><trkpt lat="43.573251" lon="10.8177948"><ele>105.0</ele><time>2026-04-04T12:37:44.931Z</time></trkpt><trkpt lat="43.5733043" lon="10.8175279"><ele>103.33333333333334</ele><time>2026-04-04T12:37:45.931Z</time></trkpt><trkpt lat="43.5733564" lon="10.8172699"><ele>101.66666666666667</ele><time>2026-04-04T12:37:46.932Z</time></trkpt><trkpt lat="43.5734007" lon="10.8170191"><ele>100.0</ele><time>2026-04-04T12:37:47.932Z</time></trkpt><trkpt lat="43.5734456" lon="10.8167751"><ele>99.0</ele><time>2026-04-04T12:37:48.932Z</time></trkpt><trkpt lat="43.573495" lon="10.8165419"><ele>98.0</ele><time>2026-04-04T12:37:49.931Z</time></trkpt><trkpt lat="43.5735473" lon="10.8163141"><ele>97.0</ele><time>2026-04-04T12:37:50.931Z</time></trkpt><trkpt lat="43.573616" lon="10.8160922"><ele>95.0</ele><time>2026-04-04T12:37:51.931Z</time></trkpt><trkpt lat="43.5736995" lon="10.8158792"><ele>93.0</ele><time>2026-04-04T12:37:52.931Z</time></trkpt><trkpt lat="43.5738042" lon="10.8156619"><ele>91.0</ele><time>2026-04-04T12:37:53.932Z</time></trkpt><trkpt lat="43.5739176" lon="10.8154508"><ele>91.0</ele><time>2026-04-04T12:37:54.931Z</time></trkpt><trkpt lat="43.5740399" lon="10.8152413"><ele>91.0</ele><time>2026-04-04T12:37:55.932Z</time></trkpt><trkpt lat="43.5741631" lon="10.8150216"><ele>91.0</ele><time>2026-04-04T12:37:56.931Z</time></trkpt><trkpt lat="43.574288" lon="10.8147928"><ele>90.33333333333333</ele><time>2026-04-04T12:37:57.932Z</time></trkpt><trkpt lat="43.5744204" lon="10.8145595"><ele>89.66666666666667</ele><time>2026-04-04T12:37:58.931Z</time></trkpt><trkpt lat="43.5745586" lon="10.8143168"><ele>89.0</ele><time>2026-04-04T12:37:59.932Z</time></trkpt><trkpt lat="43.5747012" lon="10.8140709"><ele>85.0</ele><time>2026-04-04T12:38:00.931Z</time></trkpt><trkpt lat="43.5748435" lon="10.8138197"><ele>81.0</ele><time>2026-04-04T12:38:01.931Z</time></trkpt><trkpt lat="43.5749882" lon="10.8135662"><ele>82.5</ele><time>2026-04-04T12:38:02.931Z</time></trkpt><trkpt lat="43.5751335" lon="10.8133066"><ele>84.0</ele><time>2026-04-04T12:38:03.932Z</time></trkpt><trkpt lat="43.5752786" lon="10.8130441"><ele>82.0</ele><time>2026-04-04T12:38:04.931Z</time></trkpt><trkpt lat="43.575425" lon="10.8127868"><ele>80.0</ele><time>2026-04-04T12:38:05.931Z</time></trkpt><trkpt lat="43.5755677" lon="10.8125335"><ele>80.0</ele><time>2026-04-04T12:38:06.932Z</time></trkpt><trkpt lat="43.5757013" lon="10.8122917"><ele>80.0</ele><time>2026-04-04T12:38:07.931Z</time></trkpt><trkpt lat="43.5758272" lon="10.8120626"><ele>80.0</ele><time>2026-04-04T12:38:08.931Z</time></trkpt><trkpt lat="43.5759478" lon="10.8118473"><ele>79.0</ele><time>2026-04-04T12:38:09.931Z</time></trkpt><trkpt lat="43.5760658" lon="10.8116412"><ele>78.0</ele><time>2026-04-04T12:38:10.931Z</time></trkpt><trkpt lat="43.5761831" lon="10.811434"><ele>77.0</ele><time>2026-04-04T12:38:11.932Z</time></trkpt><trkpt lat="43.5762981" lon="10.8112265"><ele>77.0</ele><time>2026-04-04T12:38:12.932Z</time></trkpt><trkpt lat="43.5764126" lon="10.81102"><ele>77.0</ele><time>2026-04-04T12:38:13.931Z</time></trkpt><trkpt lat="43.5765188" lon="10.8108251"><ele>77.0</ele><time>2026-04-04T12:38:14.931Z</time></trkpt><trkpt lat="43.5766218" lon="10.8106421"><ele>77.0</ele><time>2026-04-04T12:38:15.931Z</time></trkpt><trkpt lat="43.5767223" lon="10.8104605"><ele>77.0</ele><time>2026-04-04T12:38:16.931Z</time></trkpt><trkpt lat="43.576821" lon="10.8102736"><ele>77.0</ele><time>2026-04-04T12:38:17.932Z</time></trkpt><trkpt lat="43.5769002" lon="10.8100791"><ele>77.0</ele><time>2026-04-04T12:38:18.931Z</time></trkpt><trkpt lat="43.576971" lon="10.8098861"><ele>77.0</ele><time>2026-04-04T12:38:19.932Z</time></trkpt><trkpt lat="43.5770192" lon="10.8097087"><ele>77.0</ele><time>2026-04-04T12:38:20.932Z</time></trkpt><trkpt lat="43.5770592" lon="10.8095407"><ele>77.0</ele><time>2026-04-04T12:38:21.932Z</time></trkpt><trkpt lat="43.5770957" lon="10.8094006"><ele>76.8</ele><time>2026-04-04T12:38:22.932Z</time></trkpt><trkpt lat="43.5771227" lon="10.8092962"><ele>76.6</ele><time>2026-04-04T12:38:23.931Z</time></trkpt><trkpt lat="43.5772077" lon="10.8091908"><ele>76.39999999999999</ele><time>2026-04-04T12:38:25.932Z</time></trkpt><trkpt lat="43.5773384" lon="10.8091745"><ele>76.2</ele><time>2026-04-04T12:38:27.931Z</time></trkpt><trkpt lat="43.5774203" lon="10.8091897"><ele>76.0</ele><time>2026-04-04T12:38:28.932Z</time></trkpt><trkpt lat="43.5775189" lon="10.8092064"><ele>76.0</ele><time>2026-04-04T12:38:29.931Z</time></trkpt><trkpt lat="43.5776202" lon="10.8092267"><ele>76.0</ele><time>2026-04-04T12:38:30.931Z</time></trkpt><trkpt lat="43.5777446" lon="10.8092455"><ele>76.0</ele><time>2026-04-04T12:38:31.932Z</time></trkpt><trkpt lat="43.5778743" lon="10.8092762"><ele>76.0</ele><time>2026-04-04T12:38:32.931Z</time></trkpt><trkpt lat="43.5780104" lon="10.8093106"><ele>78.25</ele><time>2026-04-04T12:38:33.931Z</time></trkpt><trkpt lat="43.5781466" lon="10.8093604"><ele>80.5</ele><time>2026-04-04T12:38:34.932Z</time></trkpt><trkpt lat="43.5782916" lon="10.8094117"><ele>82.75</ele><time>2026-04-04T12:38:35.932Z</time></trkpt><trkpt lat="43.5784316" lon="10.8094555"><ele>85.0</ele><time>2026-04-04T12:38:36.932Z</time></trkpt><trkpt lat="43.5785603" lon="10.8095113"><ele>85.0</ele><time>2026-04-04T12:38:37.931Z</time></trkpt><trkpt lat="43.5786819" lon="10.8095851"><ele>85.0</ele><time>2026-04-04T12:38:38.932Z</time></trkpt><trkpt lat="43.5787995" lon="10.8096843"><ele>85.0</ele><time>2026-04-04T12:38:39.931Z</time></trkpt><trkpt lat="43.5789106" lon="10.8098029"><ele>85.0</ele><time>2026-04-04T12:38:40.931Z</time></trkpt><trkpt lat="43.5790131" lon="10.809927"><ele>85.0</ele><time>2026-04-04T12:38:41.931Z</time></trkpt><trkpt lat="43.5791083" lon="10.8100467"><ele>85.0</ele><time>2026-04-04T12:38:42.932Z</time></trkpt><trkpt lat="43.5792102" lon="10.810153"><ele>85.0</ele><time>2026-04-04T12:38:43.931Z</time></trkpt><trkpt lat="43.5793235" lon="10.8102354"><ele>85.0</ele><time>2026-04-04T12:38:44.932Z</time></trkpt><trkpt lat="43.5794348" lon="10.8102928"><ele>86.2</ele><time>2026-04-04T12:38:45.932Z</time></trkpt><trkpt lat="43.5795438" lon="10.8103273"><ele>87.4</ele><time>2026-04-04T12:38:46.932Z</time></trkpt><trkpt lat="43.5796427" lon="10.8103429"><ele>88.6</ele><time>2026-04-04T12:38:47.932Z</time></trkpt><trkpt lat="43.5797324" lon="10.8103294"><ele>89.8</ele><time>2026-04-04T12:38:48.932Z</time></trkpt><trkpt lat="43.5798169" lon="10.810281"><ele>91.0</ele><time>2026-04-04T12:38:49.931Z</time></trkpt><trkpt lat="43.5798916" lon="10.8101948"><ele>90.8</ele><time>2026-04-04T12:38:50.932Z</time></trkpt><trkpt lat="43.5799531" lon="10.8100878"><ele>90.6</ele><time>2026-04-04T12:38:51.931Z</time></trkpt><trkpt lat="43.5800137" lon="10.8099684"><ele>90.4</ele><time>2026-04-04T12:38:52.931Z</time></trkpt><trkpt lat="43.5800914" lon="10.8098591"><ele>90.2</ele><time>2026-04-04T12:38:53.931Z</time></trkpt><trkpt lat="43.5801815" lon="10.8097589"><ele>90.0</ele><time>2026-04-04T12:38:54.932Z</time></trkpt><trkpt lat="43.5802898" lon="10.8096587"><ele>93.4</ele><time>2026-04-04T12:38:55.932Z</time></trkpt><trkpt lat="43.5803963" lon="10.809569"><ele>96.8</ele><time>2026-04-04T12:38:56.931Z</time></trkpt><trkpt lat="43.5804912" lon="10.8094996"><ele>100.19999999999999</ele><time>2026-04-04T12:38:57.932Z</time></trkpt><trkpt lat="43.5805765" lon="10.8094422"><ele>103.6</ele><time>2026-04-04T12:38:58.931Z</time></trkpt><trkpt lat="43.580654" lon="10.809412"><ele>107.0</ele><time>2026-04-04T12:38:59.932Z</time></trkpt><trkpt lat="43.58073" lon="10.8094057"><ele>107.0</ele><time>2026-04-04T12:39:00.932Z</time></trkpt><trkpt lat="43.5807917" lon="10.8094306"><ele>106.99999999999999</ele><time>2026-04-04T12:39:01.931Z</time></trkpt><trkpt lat="43.5808493" lon="10.8095472"><ele>106.99999999999999</ele><time>2026-04-04T12:39:03.932Z</time></trkpt><trkpt lat="43.5808108" lon="10.8097065"><ele>107.0</ele><time>2026-04-04T12:39:05.931Z</time></trkpt><trkpt lat="43.5807707" lon="10.8097957"><ele>107.0</ele><time>2026-04-04T12:39:06.932Z</time></trkpt><trkpt lat="43.5807273" lon="10.809898"><ele>106.99999999999999</ele><time>2026-04-04T12:39:07.931Z</time></trkpt><trkpt lat="43.5806898" lon="10.8099931"><ele>107.0</ele><time>2026-04-04T12:39:08.931Z</time></trkpt><trkpt lat="43.5806644" lon="10.8100831"><ele>107.0</ele><time>2026-04-04T12:39:09.931Z</time></trkpt><trkpt lat="43.5806627" lon="10.8102211"><ele>107.0</ele><time>2026-04-04T12:39:11.931Z</time></trkpt><trkpt lat="43.5807058" lon="10.8103373"><ele>106.99999999999999</ele><time>2026-04-04T12:39:13.932Z</time></trkpt><trkpt lat="43.580782" lon="10.8104282"><ele>107.0</ele><time>2026-04-04T12:39:15.931Z</time></trkpt><trkpt lat="43.5809073" lon="10.8104906"><ele>107.39999999999999</ele><time>2026-04-04T12:39:17.932Z</time></trkpt><trkpt lat="43.5809838" lon="10.8105049"><ele>107.79999999999998</ele><time>2026-04-04T12:39:18.932Z</time></trkpt><trkpt lat="43.5810707" lon="10.8104984"><ele>108.2</ele><time>2026-04-04T12:39:19.932Z</time></trkpt><trkpt lat="43.5811633" lon="10.8104781"><ele>108.6</ele><time>2026-04-04T12:39:20.931Z</time></trkpt><trkpt lat="43.5812606" lon="10.8104475"><ele>109.0</ele><time>2026-04-04T12:39:21.932Z</time></trkpt><trkpt lat="43.5813646" lon="10.8104143"><ele>113.75</ele><time>2026-04-04T12:39:22.932Z</time></trkpt><trkpt lat="43.5814729" lon="10.810378"><ele>118.5</ele><time>2026-04-04T12:39:23.931Z</time></trkpt><trkpt lat="43.581583" lon="10.8103486"><ele>123.25</ele><time>2026-04-04T12:39:24.931Z</time></trkpt><trkpt lat="43.581695" lon="10.8103363"><ele>128.0</ele><time>2026-04-04T12:39:25.931Z</time></trkpt><trkpt lat="43.5818096" lon="10.8103357"><ele>128.0</ele><time>2026-04-04T12:39:26.931Z</time></trkpt><trkpt lat="43.581933" lon="10.8103484"><ele>128.0</ele><time>2026-04-04T12:39:27.932Z</time></trkpt><trkpt lat="43.5820676" lon="10.8103687"><ele>128.0</ele><time>2026-04-04T12:39:28.931Z</time></trkpt><trkpt lat="43.5822022" lon="10.8103937"><ele>128.0</ele><time>2026-04-04T12:39:29.931Z</time></trkpt><trkpt lat="43.5823293" lon="10.8104303"><ele>130.8</ele><time>2026-04-04T12:39:30.931Z</time></trkpt><trkpt lat="43.5824378" lon="10.8104753"><ele>133.60000000000002</ele><time>2026-04-04T12:39:31.931Z</time></trkpt><trkpt lat="43.5825297" lon="10.8105457"><ele>136.39999999999998</ele><time>2026-04-04T12:39:32.932Z</time></trkpt><trkpt lat="43.5826196" lon="10.8106419"><ele>139.2</ele><time>2026-04-04T12:39:33.932Z</time></trkpt><trkpt lat="43.582706" lon="10.8107506"><ele>142.0</ele><time>2026-04-04T12:39:34.931Z</time></trkpt><trkpt lat="43.5827857" lon="10.8108744"><ele>146.25</ele><time>2026-04-04T12:39:35.931Z</time></trkpt><trkpt lat="43.5828596" lon="10.8109896"><ele>150.5</ele><time>2026-04-04T12:39:36.931Z</time></trkpt><trkpt lat="43.5829551" lon="10.8111308"><ele>154.75</ele><time>2026-04-04T12:39:37.932Z</time></trkpt><trkpt lat="43.5830473" lon="10.8112704"><ele>159.0</ele><time>2026-04-04T12:39:38.931Z</time></trkpt><trkpt lat="43.5831199" lon="10.8113922"><ele>159.0</ele><time>2026-04-04T12:39:39.931Z</time></trkpt><trkpt lat="43.583179" lon="10.8114942"><ele>159.0</ele><time>2026-04-04T12:39:40.932Z</time></trkpt><trkpt lat="43.5832301" lon="10.8115794"><ele>159.0</ele><time>2026-04-04T12:39:41.931Z</time></trkpt><trkpt lat="43.583275" lon="10.811658"><ele>159.0</ele><time>2026-04-04T12:39:42.932Z</time></trkpt><trkpt lat="43.5833391" lon="10.8116786"><ele>159.0</ele><time>2026-04-04T12:39:44.932Z</time></trkpt><trkpt lat="43.5834153" lon="10.8116386"><ele>159.0</ele><time>2026-04-04T12:39:46.932Z</time></trkpt><trkpt lat="43.5834529" lon="10.8114976"><ele>159.0</ele><time>2026-04-04T12:39:48.931Z</time></trkpt><trkpt lat="43.5834642" lon="10.811314"><ele>159.0</ele><time>2026-04-04T12:39:50.932Z</time></trkpt><trkpt lat="43.5834842" lon="10.8112289"><ele>159.0</ele><time>2026-04-04T12:39:51.931Z</time></trkpt><trkpt lat="43.5835249" lon="10.8111487"><ele>159.0</ele><time>2026-04-04T12:39:52.931Z</time></trkpt><trkpt lat="43.5835828" lon="10.8110816"><ele>159.0</ele><time>2026-04-04T12:39:53.931Z</time></trkpt><trkpt lat="43.5836511" lon="10.8110313"><ele>159.0</ele><time>2026-04-04T12:39:54.931Z</time></trkpt><trkpt lat="43.5837291" lon="10.8109792"><ele>162.6</ele><time>2026-04-04T12:39:55.931Z</time></trkpt><trkpt lat="43.5838194" lon="10.8109279"><ele>166.2</ele><time>2026-04-04T12:39:56.932Z</time></trkpt><trkpt lat="43.5839097" lon="10.8108688"><ele>169.79999999999998</ele><time>2026-04-04T12:39:57.931Z</time></trkpt><trkpt lat="43.5839918" lon="10.8108167"><ele>173.4</ele><time>2026-04-04T12:39:58.932Z</time></trkpt><trkpt lat="43.5840666" lon="10.8107524"><ele>177.0</ele><time>2026-04-04T12:39:59.931Z</time></trkpt><trkpt lat="43.5841308" lon="10.8106728"><ele>177.0</ele><time>2026-04-04T12:40:00.931Z</time></trkpt><trkpt lat="43.5841811" lon="10.8105708"><ele>177.0</ele><time>2026-04-04T12:40:01.932Z</time></trkpt><trkpt lat="43.5842218" lon="10.8104526"><ele>177.0</ele><time>2026-04-04T12:40:02.932Z</time></trkpt><trkpt lat="43.5842506" lon="10.810323"><ele>177.0</ele><time>2026-04-04T12:40:03.932Z</time></trkpt><trkpt lat="43.5842831" lon="10.8101833"><ele>177.0</ele><time>2026-04-04T12:40:04.931Z</time></trkpt><trkpt lat="43.5843212" lon="10.8100391"><ele>176.6</ele><time>2026-04-04T12:40:05.93Z</time></trkpt><trkpt lat="43.5843577" lon="10.8099142"><ele>176.2</ele><time>2026-04-04T12:40:06.931Z</time></trkpt><trkpt lat="43.5843982" lon="10.8098052"><ele>175.8</ele><time>2026-04-04T12:40:07.931Z</time></trkpt><trkpt lat="43.5844509" lon="10.8097134"><ele>175.4</ele><time>2026-04-04T12:40:08.931Z</time></trkpt><trkpt lat="43.5845139" lon="10.8096285"><ele>175.0</ele><time>2026-04-04T12:40:09.93Z</time></trkpt><trkpt lat="43.584591" lon="10.8095613"><ele>179.2</ele><time>2026-04-04T12:40:10.932Z</time></trkpt><trkpt lat="43.5846839" lon="10.8095129"><ele>183.4</ele><time>2026-04-04T12:40:11.932Z</time></trkpt><trkpt lat="43.5847837" lon="10.8094905"><ele>187.60000000000002</ele><time>2026-04-04T12:40:12.932Z</time></trkpt><trkpt lat="43.5848746" lon="10.8095034"><ele>191.8</ele><time>2026-04-04T12:40:13.931Z</time></trkpt><trkpt lat="43.5849548" lon="10.8095434"><ele>196.0</ele><time>2026-04-04T12:40:14.932Z</time></trkpt><trkpt lat="43.585035" lon="10.809609"><ele>196.0</ele><time>2026-04-04T12:40:15.931Z</time></trkpt><trkpt lat="43.5851136" lon="10.8096941"><ele>196.0</ele><time>2026-04-04T12:40:16.932Z</time></trkpt><trkpt lat="43.5851951" lon="10.809789"><ele>196.0</ele><time>2026-04-04T12:40:17.932Z</time></trkpt><trkpt lat="43.5852809" lon="10.8098926"><ele>196.0</ele><time>2026-04-04T12:40:18.932Z</time></trkpt><trkpt lat="43.5853692" lon="10.8099918"><ele>196.0</ele><time>2026-04-04T12:40:19.932Z</time></trkpt><trkpt lat="43.5854531" lon="10.8100998"><ele>201.75</ele><time>2026-04-04T12:40:20.932Z</time></trkpt><trkpt lat="43.5855421" lon="10.8102113"><ele>207.5</ele><time>2026-04-04T12:40:21.931Z</time></trkpt><trkpt lat="43.5856304" lon="10.8103334"><ele>213.25</ele><time>2026-04-04T12:40:22.931Z</time></trkpt><trkpt lat="43.5857147" lon="10.810465"><ele>219.0</ele><time>2026-04-04T12:40:23.93Z</time></trkpt><trkpt lat="43.5858013" lon="10.8105951"><ele>219.0</ele><time>2026-04-04T12:40:24.931Z</time></trkpt><trkpt lat="43.5858781" lon="10.8107483"><ele>219.0</ele><time>2026-04-04T12:40:25.931Z</time></trkpt><trkpt lat="43.5859547" lon="10.8108848"><ele>219.0</ele><time>2026-04-04T12:40:26.931Z</time></trkpt><trkpt lat="43.586028" lon="10.8110221"><ele>219.0</ele><time>2026-04-04T12:40:27.931Z</time></trkpt><trkpt lat="43.5861083" lon="10.8111595"><ele>225.5</ele><time>2026-04-04T12:40:28.931Z</time></trkpt><trkpt lat="43.5861884" lon="10.8112992"><ele>232.0</ele><time>2026-04-04T12:40:29.932Z</time></trkpt><trkpt lat="43.5862745" lon="10.8114365"><ele>238.5</ele><time>2026-04-04T12:40:30.931Z</time></trkpt><trkpt lat="43.5863577" lon="10.8115683"><ele>245.0</ele><time>2026-04-04T12:40:31.93Z</time></trkpt><trkpt lat="43.5864472" lon="10.8117115"><ele>243.5</ele><time>2026-04-04T12:40:32.932Z</time></trkpt><trkpt lat="43.5865285" lon="10.8118448"><ele>242.0</ele><time>2026-04-04T12:40:33.931Z</time></trkpt><trkpt lat="43.586608" lon="10.8119641"><ele>240.5</ele><time>2026-04-04T12:40:34.931Z</time></trkpt><trkpt lat="43.5866897" lon="10.8120799"><ele>239.0</ele><time>2026-04-04T12:40:35.931Z</time></trkpt><trkpt lat="43.5867587" lon="10.8122066"><ele>239.0</ele><time>2026-04-04T12:40:36.927Z</time></trkpt><trkpt lat="43.5868093" lon="10.8123339"><ele>238.99999999999997</ele><time>2026-04-04T12:40:37.932Z</time></trkpt><trkpt lat="43.586836" lon="10.8124715"><ele>238.99999999999997</ele><time>2026-04-04T12:40:38.932Z</time></trkpt><trkpt lat="43.5868445" lon="10.8126198"><ele>239.0</ele><time>2026-04-04T12:40:39.931Z</time></trkpt><trkpt lat="43.5868421" lon="10.812787"><ele>239.0</ele><time>2026-04-04T12:40:40.932Z</time></trkpt><trkpt lat="43.5868316" lon="10.8129677"><ele>238.75</ele><time>2026-04-04T12:40:41.932Z</time></trkpt><trkpt lat="43.586814" lon="10.813146"><ele>238.5</ele><time>2026-04-04T12:40:42.931Z</time></trkpt><trkpt lat="43.5867952" lon="10.8133363"><ele>238.25</ele><time>2026-04-04T12:40:43.932Z</time></trkpt><trkpt lat="43.5867821" lon="10.8135246"><ele>238.0</ele><time>2026-04-04T12:40:44.932Z</time></trkpt><trkpt lat="43.5867678" lon="10.8136954"><ele>238.0</ele><time>2026-04-04T12:40:45.931Z</time></trkpt><trkpt lat="43.5867547" lon="10.8138545"><ele>238.0</ele><time>2026-04-04T12:40:46.931Z</time></trkpt><trkpt lat="43.5867493" lon="10.8140083"><ele>238.0</ele><time>2026-04-04T12:40:47.931Z</time></trkpt><trkpt lat="43.5867526" lon="10.8141675"><ele>238.0</ele><time>2026-04-04T12:40:48.932Z</time></trkpt><trkpt lat="43.5867656" lon="10.8143263"><ele>238.5</ele><time>2026-04-04T12:40:49.932Z</time></trkpt><trkpt lat="43.5867921" lon="10.8144908"><ele>239.0</ele><time>2026-04-04T12:40:50.931Z</time></trkpt><trkpt lat="43.5868326" lon="10.8146651"><ele>239.5</ele><time>2026-04-04T12:40:51.931Z</time></trkpt><trkpt lat="43.5868839" lon="10.8148321"><ele>240.0</ele><time>2026-04-04T12:40:52.932Z</time></trkpt><trkpt lat="43.5869446" lon="10.8149954"><ele>240.0</ele><time>2026-04-04T12:40:53.931Z</time></trkpt><trkpt lat="43.5870023" lon="10.8151429"><ele>240.0</ele><time>2026-04-04T12:40:54.93Z</time></trkpt><trkpt lat="43.5870578" lon="10.8152699"><ele>240.0</ele><time>2026-04-04T12:40:55.931Z</time></trkpt><trkpt lat="43.5871142" lon="10.8153652"><ele>240.0</ele><time>2026-04-04T12:40:56.931Z</time></trkpt><trkpt lat="43.5871718" lon="10.8154754"><ele>240.0</ele><time>2026-04-04T12:40:57.931Z</time></trkpt><trkpt lat="43.5872277" lon="10.8156237"><ele>241.33333333333334</ele><time>2026-04-04T12:40:59.931Z</time></trkpt><trkpt lat="43.5872357" lon="10.815738"><ele>242.66666666666669</ele><time>2026-04-04T12:41:00.931Z</time></trkpt><trkpt lat="43.5872339" lon="10.8158538"><ele>244.0</ele><time>2026-04-04T12:41:01.931Z</time></trkpt><trkpt lat="43.5872319" lon="10.8159669"><ele>245.33333333333334</ele><time>2026-04-04T12:41:02.927Z</time></trkpt><trkpt lat="43.587236" lon="10.8160889"><ele>246.66666666666669</ele><time>2026-04-04T12:41:03.931Z</time></trkpt><trkpt lat="43.5872475" lon="10.8162104"><ele>248.0</ele><time>2026-04-04T12:41:04.932Z</time></trkpt><trkpt lat="43.5872772" lon="10.816332"><ele>249.0</ele><time>2026-04-04T12:41:05.931Z</time></trkpt><trkpt lat="43.5873094" lon="10.8164505"><ele>250.0</ele><time>2026-04-04T12:41:06.932Z</time></trkpt><trkpt lat="43.587344" lon="10.8165721"><ele>251.0</ele><time>2026-04-04T12:41:07.931Z</time></trkpt><trkpt lat="43.5873746" lon="10.8166748"><ele>252.0</ele><time>2026-04-04T12:41:08.932Z</time></trkpt><trkpt lat="43.5873971" lon="10.8168025"><ele>253.0</ele><time>2026-04-04T12:41:09.932Z</time></trkpt><trkpt lat="43.5874128" lon="10.8169265"><ele>253.66666666666666</ele><time>2026-04-04T12:41:10.932Z</time></trkpt><trkpt lat="43.5874191" lon="10.8170474"><ele>254.33333333333331</ele><time>2026-04-04T12:41:11.931Z</time></trkpt><trkpt lat="43.5874259" lon="10.8171698"><ele>255.0</ele><time>2026-04-04T12:41:12.931Z</time></trkpt><trkpt lat="43.587431" lon="10.8172952"><ele>255.66666666666669</ele><time>2026-04-04T12:41:13.932Z</time></trkpt><trkpt lat="43.5874382" lon="10.817413"><ele>256.33333333333337</ele><time>2026-04-04T12:41:14.932Z</time></trkpt><trkpt lat="43.5874544" lon="10.8175235"><ele>257.0</ele><time>2026-04-04T12:41:15.931Z</time></trkpt><trkpt lat="43.5874745" lon="10.8176293"><ele>256.6</ele><time>2026-04-04T12:41:16.931Z</time></trkpt><trkpt lat="43.5875044" lon="10.8177388"><ele>256.2</ele><time>2026-04-04T12:41:17.929Z</time></trkpt><trkpt lat="43.5875464" lon="10.8178559"><ele>255.8</ele><time>2026-04-04T12:41:18.931Z</time></trkpt><trkpt lat="43.5875898" lon="10.8179792"><ele>255.4</ele><time>2026-04-04T12:41:19.931Z</time></trkpt><trkpt lat="43.5876343" lon="10.8181026"><ele>255.0</ele><time>2026-04-04T12:41:20.931Z</time></trkpt><trkpt lat="43.5876714" lon="10.8182343"><ele>255.0</ele><time>2026-04-04T12:41:21.932Z</time></trkpt><trkpt lat="43.5877028" lon="10.8183686"><ele>255.0</ele><time>2026-04-04T12:41:22.931Z</time></trkpt><trkpt lat="43.5877222" lon="10.8185009"><ele>255.0</ele><time>2026-04-04T12:41:23.931Z</time></trkpt><trkpt lat="43.5877437" lon="10.8186341"><ele>255.0</ele><time>2026-04-04T12:41:24.931Z</time></trkpt><trkpt lat="43.5877665" lon="10.8187731"><ele>255.0</ele><time>2026-04-04T12:41:25.932Z</time></trkpt><trkpt lat="43.5877904" lon="10.8189051"><ele>253.0</ele><time>2026-04-04T12:41:26.931Z</time></trkpt><trkpt lat="43.5878148" lon="10.8190317"><ele>251.0</ele><time>2026-04-04T12:41:27.932Z</time></trkpt><trkpt lat="43.5878371" lon="10.8191504"><ele>249.0</ele><time>2026-04-04T12:41:28.932Z</time></trkpt><trkpt lat="43.5878601" lon="10.8192632"><ele>247.0</ele><time>2026-04-04T12:41:29.932Z</time></trkpt><trkpt lat="43.5878876" lon="10.8193698"><ele>245.0</ele><time>2026-04-04T12:41:30.931Z</time></trkpt><trkpt lat="43.5879255" lon="10.8194793"><ele>243.0</ele><time>2026-04-04T12:41:31.932Z</time></trkpt><trkpt lat="43.587985" lon="10.8195539"><ele>242.2</ele><time>2026-04-04T12:41:32.931Z</time></trkpt><trkpt lat="43.5880464" lon="10.819643"><ele>241.4</ele><time>2026-04-04T12:41:33.932Z</time></trkpt><trkpt lat="43.5881221" lon="10.8197202"><ele>240.59999999999997</ele><time>2026-04-04T12:41:34.931Z</time></trkpt><trkpt lat="43.5882053" lon="10.8197919"><ele>239.79999999999998</ele><time>2026-04-04T12:41:35.932Z</time></trkpt><trkpt lat="43.5882934" lon="10.8198468"><ele>239.0</ele><time>2026-04-04T12:41:36.931Z</time></trkpt><trkpt lat="43.5883937" lon="10.8198957"><ele>239.0</ele><time>2026-04-04T12:41:37.932Z</time></trkpt><trkpt lat="43.5885036" lon="10.8199324"><ele>238.99999999999997</ele><time>2026-04-04T12:41:38.931Z</time></trkpt><trkpt lat="43.5886179" lon="10.8199326"><ele>238.99999999999997</ele><time>2026-04-04T12:41:39.931Z</time></trkpt><trkpt lat="43.5887313" lon="10.8199136"><ele>239.0</ele><time>2026-04-04T12:41:40.932Z</time></trkpt><trkpt lat="43.5888353" lon="10.8198796"><ele>239.0</ele><time>2026-04-04T12:41:41.931Z</time></trkpt><trkpt lat="43.5889339" lon="10.8198436"><ele>242.0</ele><time>2026-04-04T12:41:42.932Z</time></trkpt><trkpt lat="43.5890303" lon="10.8198077"><ele>244.99999999999997</ele><time>2026-04-04T12:41:43.932Z</time></trkpt><trkpt lat="43.5891246" lon="10.8197649"><ele>247.99999999999997</ele><time>2026-04-04T12:41:44.931Z</time></trkpt><trkpt lat="43.5892123" lon="10.8197373"><ele>251.0</ele><time>2026-04-04T12:41:45.93Z</time></trkpt><trkpt lat="43.5893074" lon="10.8197362"><ele>254.0</ele><time>2026-04-04T12:41:46.931Z</time></trkpt><trkpt lat="43.589406" lon="10.8197469"><ele>255.0</ele><time>2026-04-04T12:41:47.931Z</time></trkpt><trkpt lat="43.5895121" lon="10.8197698"><ele>255.99999999999997</ele><time>2026-04-04T12:41:48.931Z</time></trkpt><trkpt lat="43.5896221" lon="10.8197938"><ele>257.0</ele><time>2026-04-04T12:41:49.932Z</time></trkpt><trkpt lat="43.5897286" lon="10.8198404"><ele>258.0</ele><time>2026-04-04T12:41:50.931Z</time></trkpt><trkpt lat="43.5898274" lon="10.8198973"><ele>259.0</ele><time>2026-04-04T12:41:51.931Z</time></trkpt><trkpt lat="43.5899145" lon="10.8199488"><ele>259.0</ele><time>2026-04-04T12:41:52.931Z</time></trkpt><trkpt lat="43.5899969" lon="10.8199862"><ele>259.0</ele><time>2026-04-04T12:41:53.929Z</time></trkpt><trkpt lat="43.5900792" lon="10.8199778"><ele>259.0</ele><time>2026-04-04T12:41:54.93Z</time></trkpt><trkpt lat="43.5901639" lon="10.8199357"><ele>259.0</ele><time>2026-04-04T12:41:55.931Z</time></trkpt><trkpt lat="43.5902482" lon="10.8198727"><ele>259.0</ele><time>2026-04-04T12:41:56.931Z</time></trkpt><trkpt lat="43.590323" lon="10.8198087"><ele>259.0</ele><time>2026-04-04T12:41:57.931Z</time></trkpt><trkpt lat="43.5903781" lon="10.8197273"><ele>258.8333333333333</ele><time>2026-04-04T12:41:58.932Z</time></trkpt><trkpt lat="43.590413" lon="10.8196341"><ele>258.66666666666663</ele><time>2026-04-04T12:41:59.929Z</time></trkpt><trkpt lat="43.5904225" lon="10.8195352"><ele>258.5</ele><time>2026-04-04T12:42:00.931Z</time></trkpt><trkpt lat="43.5904111" lon="10.8194278"><ele>258.3333333333333</ele><time>2026-04-04T12:42:01.932Z</time></trkpt><trkpt lat="43.5903917" lon="10.8193145"><ele>258.1666666666667</ele><time>2026-04-04T12:42:02.932Z</time></trkpt><trkpt lat="43.5903851" lon="10.8192097"><ele>258.0</ele><time>2026-04-04T12:42:03.931Z</time></trkpt><trkpt lat="43.5903996" lon="10.8191025"><ele>256.3333333333333</ele><time>2026-04-04T12:42:04.931Z</time></trkpt><trkpt lat="43.5904424" lon="10.8190285"><ele>254.66666666666669</ele><time>2026-04-04T12:42:05.932Z</time></trkpt><trkpt lat="43.5905082" lon="10.8189851"><ele>253.0</ele><time>2026-04-04T12:42:06.932Z</time></trkpt><trkpt lat="43.5905863" lon="10.8189776"><ele>251.33333333333334</ele><time>2026-04-04T12:42:07.932Z</time></trkpt><trkpt lat="43.5906685" lon="10.8190079"><ele>249.66666666666669</ele><time>2026-04-04T12:42:08.93Z</time></trkpt><trkpt lat="43.5907533" lon="10.8190686"><ele>248.0</ele><time>2026-04-04T12:42:09.932Z</time></trkpt><trkpt lat="43.5908328" lon="10.8191428"><ele>248.00000000000003</ele><time>2026-04-04T12:42:10.931Z</time></trkpt><trkpt lat="43.5909024" lon="10.8192188"><ele>248.0</ele><time>2026-04-04T12:42:11.932Z</time></trkpt><trkpt lat="43.5909622" lon="10.8192965"><ele>248.0</ele><time>2026-04-04T12:42:12.93Z</time></trkpt><trkpt lat="43.5910125" lon="10.8193887"><ele>248.0</ele><time>2026-04-04T12:42:13.932Z</time></trkpt><trkpt lat="43.5910436" lon="10.8194923"><ele>248.00000000000003</ele><time>2026-04-04T12:42:14.931Z</time></trkpt><trkpt lat="43.5910643" lon="10.8195936"><ele>248.0</ele><time>2026-04-04T12:42:15.929Z</time></trkpt><trkpt lat="43.5910773" lon="10.8197006"><ele>247.83333333333334</ele><time>2026-04-04T12:42:16.932Z</time></trkpt><trkpt lat="43.5910953" lon="10.8198084"><ele>247.66666666666669</ele><time>2026-04-04T12:42:17.932Z</time></trkpt><trkpt lat="43.5911293" lon="10.8199094"><ele>247.5</ele><time>2026-04-04T12:42:18.932Z</time></trkpt><trkpt lat="43.591175" lon="10.8199985"><ele>247.33333333333331</ele><time>2026-04-04T12:42:19.927Z</time></trkpt><trkpt lat="43.59123" lon="10.8200713"><ele>247.16666666666666</ele><time>2026-04-04T12:42:20.931Z</time></trkpt><trkpt lat="43.5912934" lon="10.8201366"><ele>247.0</ele><time>2026-04-04T12:42:21.931Z</time></trkpt><trkpt lat="43.5913673" lon="10.8201842"><ele>247.6</ele><time>2026-04-04T12:42:22.932Z</time></trkpt><trkpt lat="43.5914512" lon="10.8202237"><ele>248.2</ele><time>2026-04-04T12:42:23.93Z</time></trkpt><trkpt lat="43.591532" lon="10.8202565"><ele>248.8</ele><time>2026-04-04T12:42:24.93Z</time></trkpt><trkpt lat="43.591616" lon="10.8202975"><ele>249.4</ele><time>2026-04-04T12:42:25.931Z</time></trkpt><trkpt lat="43.5917012" lon="10.8203375"><ele>250.0</ele><time>2026-04-04T12:42:26.932Z</time></trkpt><trkpt lat="43.5917957" lon="10.820382"><ele>250.0</ele><time>2026-04-04T12:42:27.931Z</time></trkpt><trkpt lat="43.5918911" lon="10.8204286"><ele>250.0</ele><time>2026-04-04T12:42:28.931Z</time></trkpt><trkpt lat="43.5919872" lon="10.820475"><ele>250.0</ele><time>2026-04-04T12:42:29.931Z</time></trkpt><trkpt lat="43.5920832" lon="10.8205208"><ele>250.0</ele><time>2026-04-04T12:42:30.932Z</time></trkpt><trkpt lat="43.5921764" lon="10.8205649"><ele>250.0</ele><time>2026-04-04T12:42:31.931Z</time></trkpt><trkpt lat="43.5922722" lon="10.8206101"><ele>249.6</ele><time>2026-04-04T12:42:32.929Z</time></trkpt><trkpt lat="43.5923645" lon="10.8206521"><ele>249.2</ele><time>2026-04-04T12:42:33.931Z</time></trkpt><trkpt lat="43.5924507" lon="10.8206912"><ele>248.8</ele><time>2026-04-04T12:42:34.931Z</time></trkpt><trkpt lat="43.5925388" lon="10.8207393"><ele>248.4</ele><time>2026-04-04T12:42:35.932Z</time></trkpt><trkpt lat="43.592628" lon="10.8207876"><ele>248.0</ele><time>2026-04-04T12:42:36.931Z</time></trkpt><trkpt lat="43.5927174" lon="10.8208344"><ele>248.00000000000003</ele><time>2026-04-04T12:42:37.931Z</time></trkpt><trkpt lat="43.5928032" lon="10.820883"><ele>248.0</ele><time>2026-04-04T12:42:38.931Z</time></trkpt><trkpt lat="43.5928876" lon="10.8209341"><ele>248.0</ele><time>2026-04-04T12:42:39.931Z</time></trkpt><trkpt lat="43.5929669" lon="10.8209803"><ele>248.0</ele><time>2026-04-04T12:42:40.93Z</time></trkpt><trkpt lat="43.593045" lon="10.8210269"><ele>248.00000000000003</ele><time>2026-04-04T12:42:41.929Z</time></trkpt><trkpt lat="43.5931142" lon="10.8210703"><ele>248.0</ele><time>2026-04-04T12:42:42.931Z</time></trkpt><trkpt lat="43.5931791" lon="10.8211322"><ele>247.50000000000003</ele><time>2026-04-04T12:42:43.931Z</time></trkpt><trkpt lat="43.5932313" lon="10.821209"><ele>247.0</ele><time>2026-04-04T12:42:44.928Z</time></trkpt><trkpt lat="43.5932766" lon="10.8212951"><ele>246.5</ele><time>2026-04-04T12:42:45.932Z</time></trkpt><trkpt lat="43.5933226" lon="10.8213945"><ele>246.0</ele><time>2026-04-04T12:42:46.928Z</time></trkpt><trkpt lat="43.5933749" lon="10.8214984"><ele>245.50000000000003</ele><time>2026-04-04T12:42:47.931Z</time></trkpt><trkpt lat="43.5934269" lon="10.8216035"><ele>245.0</ele><time>2026-04-04T12:42:48.931Z</time></trkpt><trkpt lat="43.5934894" lon="10.8217094"><ele>245.00000000000003</ele><time>2026-04-04T12:42:49.932Z</time></trkpt><trkpt lat="43.5935539" lon="10.8217857"><ele>245.0</ele><time>2026-04-04T12:42:50.929Z</time></trkpt><trkpt lat="43.5936243" lon="10.8218516"><ele>245.0</ele><time>2026-04-04T12:42:51.931Z</time></trkpt><trkpt lat="43.5936827" lon="10.8219254"><ele>245.0</ele><time>2026-04-04T12:42:52.931Z</time></trkpt><trkpt lat="43.5937196" lon="10.8220142"><ele>245.00000000000003</ele><time>2026-04-04T12:42:53.932Z</time></trkpt><trkpt lat="43.5937283" lon="10.8221146"><ele>245.0</ele><time>2026-04-04T12:42:54.931Z</time></trkpt><trkpt lat="43.5937197" lon="10.8222249"><ele>242.4</ele><time>2026-04-04T12:42:55.927Z</time></trkpt><trkpt lat="43.5937071" lon="10.8223428"><ele>239.8</ele><time>2026-04-04T12:42:56.93Z</time></trkpt><trkpt lat="43.5936883" lon="10.8224735"><ele>237.2</ele><time>2026-04-04T12:42:57.932Z</time></trkpt><trkpt lat="43.5936779" lon="10.8225963"><ele>234.6</ele><time>2026-04-04T12:42:58.931Z</time></trkpt><trkpt lat="43.5936839" lon="10.8227177"><ele>232.0</ele><time>2026-04-04T12:42:59.931Z</time></trkpt><trkpt lat="43.5936947" lon="10.8228538"><ele>231.8</ele><time>2026-04-04T12:43:00.932Z</time></trkpt><trkpt lat="43.5937307" lon="10.8229663"><ele>231.6</ele><time>2026-04-04T12:43:01.931Z</time></trkpt><trkpt lat="43.5937489" lon="10.8230964"><ele>231.40000000000003</ele><time>2026-04-04T12:43:02.931Z</time></trkpt><trkpt lat="43.5937584" lon="10.8232084"><ele>231.20000000000002</ele><time>2026-04-04T12:43:03.932Z</time></trkpt><trkpt lat="43.5937639" lon="10.8233123"><ele>231.0</ele><time>2026-04-04T12:43:04.932Z</time></trkpt><trkpt lat="43.5937882" lon="10.823473"><ele>231.0</ele><time>2026-04-04T12:43:06.931Z</time></trkpt><trkpt lat="43.5938918" lon="10.8234288"><ele>231.00000000000003</ele><time>2026-04-04T12:43:08.928Z</time></trkpt><trkpt lat="43.5938866" lon="10.823246"><ele>231.00000000000003</ele><time>2026-04-04T12:43:10.93Z</time></trkpt><trkpt lat="43.5938756" lon="10.8231305"><ele>231.0</ele><time>2026-04-04T12:43:11.929Z</time></trkpt><trkpt lat="43.5938621" lon="10.823017"><ele>231.0</ele><time>2026-04-04T12:43:12.929Z</time></trkpt><trkpt lat="43.5938565" lon="10.8229021"><ele>231.0</ele><time>2026-04-04T12:43:13.931Z</time></trkpt><trkpt lat="43.5938577" lon="10.8227892"><ele>231.0</ele><time>2026-04-04T12:43:14.931Z</time></trkpt><trkpt lat="43.5938578" lon="10.822665"><ele>231.0</ele><time>2026-04-04T12:43:15.928Z</time></trkpt><trkpt lat="43.5938547" lon="10.8225614"><ele>231.0</ele><time>2026-04-04T12:43:16.928Z</time></trkpt><trkpt lat="43.5938892" lon="10.8224488"><ele>231.0</ele><time>2026-04-04T12:43:17.931Z</time></trkpt><trkpt lat="43.5939404" lon="10.8223403"><ele>231.0</ele><time>2026-04-04T12:43:18.929Z</time></trkpt><trkpt lat="43.5940262" lon="10.8222766"><ele>231.16666666666666</ele><time>2026-04-04T12:43:19.932Z</time></trkpt><trkpt lat="43.5941075" lon="10.82224"><ele>231.33333333333331</ele><time>2026-04-04T12:43:20.931Z</time></trkpt><trkpt lat="43.5941928" lon="10.8222135"><ele>231.5</ele><time>2026-04-04T12:43:21.93Z</time></trkpt><trkpt lat="43.5942801" lon="10.8222171"><ele>231.66666666666666</ele><time>2026-04-04T12:43:22.931Z</time></trkpt><trkpt lat="43.594357" lon="10.8222487"><ele>231.83333333333331</ele><time>2026-04-04T12:43:23.932Z</time></trkpt><trkpt lat="43.5944309" lon="10.8222862"><ele>232.0</ele><time>2026-04-04T12:43:24.931Z</time></trkpt><trkpt lat="43.5945023" lon="10.8223067"><ele>229.6</ele><time>2026-04-04T12:43:25.932Z</time></trkpt><trkpt lat="43.594577" lon="10.8223132"><ele>227.2</ele><time>2026-04-04T12:43:26.932Z</time></trkpt><trkpt lat="43.5946574" lon="10.8222868"><ele>224.8</ele><time>2026-04-04T12:43:27.932Z</time></trkpt><trkpt lat="43.594737" lon="10.8222289"><ele>222.4</ele><time>2026-04-04T12:43:28.926Z</time></trkpt><trkpt lat="43.5948234" lon="10.8221548"><ele>220.0</ele><time>2026-04-04T12:43:29.932Z</time></trkpt><trkpt lat="43.5949144" lon="10.8220799"><ele>220.0</ele><time>2026-04-04T12:43:30.931Z</time></trkpt><trkpt lat="43.5950072" lon="10.8220216"><ele>220.0</ele><time>2026-04-04T12:43:31.931Z</time></trkpt><trkpt lat="43.5950945" lon="10.8219613"><ele>220.0</ele><time>2026-04-04T12:43:32.931Z</time></trkpt><trkpt lat="43.5951793" lon="10.8218989"><ele>220.0</ele><time>2026-04-04T12:43:33.931Z</time></trkpt><trkpt lat="43.59526" lon="10.821834"><ele>220.0</ele><time>2026-04-04T12:43:34.932Z</time></trkpt><trkpt lat="43.5953518" lon="10.8217683"><ele>219.0</ele><time>2026-04-04T12:43:35.929Z</time></trkpt><trkpt lat="43.5954453" lon="10.8217191"><ele>218.0</ele><time>2026-04-04T12:43:36.932Z</time></trkpt><trkpt lat="43.5955348" lon="10.8216678"><ele>217.0</ele><time>2026-04-04T12:43:37.931Z</time></trkpt><trkpt lat="43.5956217" lon="10.8216241"><ele>216.0</ele><time>2026-04-04T12:43:38.931Z</time></trkpt><trkpt lat="43.5957117" lon="10.8215904"><ele>215.0</ele><time>2026-04-04T12:43:39.932Z</time></trkpt><trkpt lat="43.5958035" lon="10.8215642"><ele>215.0</ele><time>2026-04-04T12:43:40.931Z</time></trkpt><trkpt lat="43.595897" lon="10.8215469"><ele>215.0</ele><time>2026-04-04T12:43:41.932Z</time></trkpt><trkpt lat="43.5959909" lon="10.8215276"><ele>215.0</ele><time>2026-04-04T12:43:42.932Z</time></trkpt><trkpt lat="43.5960907" lon="10.8214991"><ele>215.0</ele><time>2026-04-04T12:43:43.932Z</time></trkpt><trkpt lat="43.5961863" lon="10.8214621"><ele>215.0</ele><time>2026-04-04T12:43:44.931Z</time></trkpt><trkpt lat="43.5962885" lon="10.8214316"><ele>214.33333333333334</ele><time>2026-04-04T12:43:45.932Z</time></trkpt><trkpt lat="43.5963785" lon="10.8213892"><ele>213.66666666666669</ele><time>2026-04-04T12:43:46.932Z</time></trkpt><trkpt lat="43.5964639" lon="10.8213452"><ele>213.0</ele><time>2026-04-04T12:43:47.932Z</time></trkpt><trkpt lat="43.5965451" lon="10.8213112"><ele>212.33333333333331</ele><time>2026-04-04T12:43:48.931Z</time></trkpt><trkpt lat="43.5966278" lon="10.8213062"><ele>211.66666666666666</ele><time>2026-04-04T12:43:49.932Z</time></trkpt><trkpt lat="43.5967056" lon="10.8213083"><ele>211.0</ele><time>2026-04-04T12:43:50.929Z</time></trkpt><trkpt lat="43.5967926" lon="10.821317"><ele>211.0</ele><time>2026-04-04T12:43:51.931Z</time></trkpt><trkpt lat="43.5968793" lon="10.8213236"><ele>211.0</ele><time>2026-04-04T12:43:52.931Z</time></trkpt><trkpt lat="43.5969671" lon="10.821354"><ele>211.0</ele><time>2026-04-04T12:43:53.932Z</time></trkpt><trkpt lat="43.5970575" lon="10.8213961"><ele>211.0</ele><time>2026-04-04T12:43:54.932Z</time></trkpt><trkpt lat="43.5971469" lon="10.8214485"><ele>211.0</ele><time>2026-04-04T12:43:55.931Z</time></trkpt><trkpt lat="43.5972543" lon="10.8214845"><ele>211.16666666666666</ele><time>2026-04-04T12:43:56.931Z</time></trkpt><trkpt lat="43.5973592" lon="10.8215153"><ele>211.33333333333331</ele><time>2026-04-04T12:43:57.931Z</time></trkpt><trkpt lat="43.5974526" lon="10.8215618"><ele>211.5</ele><time>2026-04-04T12:43:58.931Z</time></trkpt><trkpt lat="43.597537" lon="10.8215991"><ele>211.66666666666669</ele><time>2026-04-04T12:43:59.931Z</time></trkpt><trkpt lat="43.5976105" lon="10.8216429"><ele>211.83333333333334</ele><time>2026-04-04T12:44:00.932Z</time></trkpt><trkpt lat="43.5976748" lon="10.8216807"><ele>212.0</ele><time>2026-04-04T12:44:01.932Z</time></trkpt><trkpt lat="43.5977919" lon="10.8217192"><ele>212.33333333333334</ele><time>2026-04-04T12:44:03.932Z</time></trkpt><trkpt lat="43.5978563" lon="10.8216969"><ele>212.66666666666669</ele><time>2026-04-04T12:44:04.931Z</time></trkpt><trkpt lat="43.5979111" lon="10.8216527"><ele>213.0</ele><time>2026-04-04T12:44:05.932Z</time></trkpt><trkpt lat="43.597991" lon="10.8215682"><ele>213.33333333333331</ele><time>2026-04-04T12:44:07.932Z</time></trkpt><trkpt lat="43.5980503" lon="10.8214877"><ele>213.66666666666666</ele><time>2026-04-04T12:44:10.929Z</time></trkpt><trkpt lat="43.5980508" lon="10.8213984"><ele>214.0</ele><time>2026-04-04T12:44:13.932Z</time></trkpt><trkpt lat="43.5980011" lon="10.8213231"><ele>214.0</ele><time>2026-04-04T12:44:15.93Z</time></trkpt><trkpt lat="43.5978827" lon="10.8212699"><ele>213.99999999999997</ele><time>2026-04-04T12:44:17.93Z</time></trkpt><trkpt lat="43.5978054" lon="10.8212416"><ele>213.99999999999997</ele><time>2026-04-04T12:44:18.931Z</time></trkpt><trkpt lat="43.5977328" lon="10.8211825"><ele>214.0</ele><time>2026-04-04T12:44:19.932Z</time></trkpt><trkpt lat="43.5976589" lon="10.8211065"><ele>214.0</ele><time>2026-04-04T12:44:20.93Z</time></trkpt><trkpt lat="43.597578" lon="10.8210265"><ele>214.79999999999998</ele><time>2026-04-04T12:44:21.932Z</time></trkpt><trkpt lat="43.5974936" lon="10.8209546"><ele>215.59999999999997</ele><time>2026-04-04T12:44:22.932Z</time></trkpt><trkpt lat="43.5974122" lon="10.8208629"><ele>216.4</ele><time>2026-04-04T12:44:23.931Z</time></trkpt><trkpt lat="43.5973839" lon="10.8207323"><ele>217.2</ele><time>2026-04-04T12:44:24.929Z</time></trkpt><trkpt lat="43.5973373" lon="10.8206047"><ele>218.0</ele><time>2026-04-04T12:44:25.93Z</time></trkpt><trkpt lat="43.597316" lon="10.8204273"><ele>218.0</ele><time>2026-04-04T12:44:26.932Z</time></trkpt><trkpt lat="43.5973058" lon="10.8202637"><ele>218.0</ele><time>2026-04-04T12:44:27.931Z</time></trkpt><trkpt lat="43.5973001" lon="10.820099"><ele>218.0</ele><time>2026-04-04T12:44:28.931Z</time></trkpt><trkpt lat="43.5973038" lon="10.8199426"><ele>218.0</ele><time>2026-04-04T12:44:29.932Z</time></trkpt><trkpt lat="43.5973184" lon="10.8197936"><ele>216.8</ele><time>2026-04-04T12:44:30.931Z</time></trkpt><trkpt lat="43.5973258" lon="10.8196512"><ele>215.60000000000002</ele><time>2026-04-04T12:44:31.932Z</time></trkpt><trkpt lat="43.5973115" lon="10.8195209"><ele>214.39999999999998</ele><time>2026-04-04T12:44:32.932Z</time></trkpt><trkpt lat="43.5972765" lon="10.8193963"><ele>213.2</ele><time>2026-04-04T12:44:33.928Z</time></trkpt><trkpt lat="43.5972013" lon="10.8192806"><ele>212.0</ele><time>2026-04-04T12:44:34.932Z</time></trkpt><trkpt lat="43.5971186" lon="10.8191685"><ele>211.0</ele><time>2026-04-04T12:44:35.93Z</time></trkpt><trkpt lat="43.5970373" lon="10.819045"><ele>210.0</ele><time>2026-04-04T12:44:36.931Z</time></trkpt><trkpt lat="43.5969577" lon="10.8189122"><ele>209.0</ele><time>2026-04-04T12:44:37.93Z</time></trkpt><trkpt lat="43.5968868" lon="10.818784"><ele>208.0</ele><time>2026-04-04T12:44:38.931Z</time></trkpt><trkpt lat="43.5968278" lon="10.8186553"><ele>210.4</ele><time>2026-04-04T12:44:39.931Z</time></trkpt><trkpt lat="43.596775" lon="10.818528"><ele>212.8</ele><time>2026-04-04T12:44:40.931Z</time></trkpt><trkpt lat="43.5967406" lon="10.8184026"><ele>215.2</ele><time>2026-04-04T12:44:41.931Z</time></trkpt><trkpt lat="43.5967108" lon="10.8182743"><ele>217.6</ele><time>2026-04-04T12:44:42.932Z</time></trkpt><trkpt lat="43.5966903" lon="10.8181441"><ele>220.0</ele><time>2026-04-04T12:44:43.931Z</time></trkpt><trkpt lat="43.5966785" lon="10.8180018"><ele>220.0</ele><time>2026-04-04T12:44:44.93Z</time></trkpt><trkpt lat="43.59667" lon="10.817865"><ele>220.0</ele><time>2026-04-04T12:44:45.929Z</time></trkpt><trkpt lat="43.5966629" lon="10.8177335"><ele>220.0</ele><time>2026-04-04T12:44:46.932Z</time></trkpt><trkpt lat="43.5966616" lon="10.8176104"><ele>220.0</ele><time>2026-04-04T12:44:47.932Z</time></trkpt><trkpt lat="43.5966539" lon="10.8174912"><ele>220.0</ele><time>2026-04-04T12:44:48.928Z</time></trkpt><trkpt lat="43.5966532" lon="10.8173786"><ele>220.0</ele><time>2026-04-04T12:44:49.93Z</time></trkpt><trkpt lat="43.5966628" lon="10.8172605"><ele>220.0</ele><time>2026-04-04T12:44:50.931Z</time></trkpt><trkpt lat="43.5966779" lon="10.8171405"><ele>220.0</ele><time>2026-04-04T12:44:51.932Z</time></trkpt><trkpt lat="43.5966892" lon="10.8170144"><ele>220.0</ele><time>2026-04-04T12:44:52.931Z</time></trkpt><trkpt lat="43.5966985" lon="10.8168834"><ele>220.0</ele><time>2026-04-04T12:44:53.932Z</time></trkpt><trkpt lat="43.5967175" lon="10.8167405"><ele>219.6</ele><time>2026-04-04T12:44:54.926Z</time></trkpt><trkpt lat="43.5967356" lon="10.8166044"><ele>219.2</ele><time>2026-04-04T12:44:55.931Z</time></trkpt><trkpt lat="43.5967654" lon="10.8164665"><ele>218.8</ele><time>2026-04-04T12:44:56.931Z</time></trkpt><trkpt lat="43.5968073" lon="10.8163389"><ele>218.4</ele><time>2026-04-04T12:44:57.931Z</time></trkpt><trkpt lat="43.5968441" lon="10.8162111"><ele>218.0</ele><time>2026-04-04T12:44:58.932Z</time></trkpt><trkpt lat="43.596883" lon="10.8160883"><ele>215.60000000000002</ele><time>2026-04-04T12:44:59.927Z</time></trkpt><trkpt lat="43.5969243" lon="10.8159719"><ele>213.20000000000002</ele><time>2026-04-04T12:45:00.931Z</time></trkpt><trkpt lat="43.5969662" lon="10.8158435"><ele>210.8</ele><time>2026-04-04T12:45:01.931Z</time></trkpt><trkpt lat="43.5970082" lon="10.815703"><ele>208.4</ele><time>2026-04-04T12:45:02.928Z</time></trkpt><trkpt lat="43.5970515" lon="10.8155647"><ele>206.0</ele><time>2026-04-04T12:45:03.929Z</time></trkpt><trkpt lat="43.5970882" lon="10.8154276"><ele>205.4</ele><time>2026-04-04T12:45:04.929Z</time></trkpt><trkpt lat="43.5971253" lon="10.8153009"><ele>204.8</ele><time>2026-04-04T12:45:05.932Z</time></trkpt><trkpt lat="43.59716" lon="10.8151754"><ele>204.20000000000002</ele><time>2026-04-04T12:45:06.931Z</time></trkpt><trkpt lat="43.597197" lon="10.8150549"><ele>203.60000000000002</ele><time>2026-04-04T12:45:07.931Z</time></trkpt><trkpt lat="43.5972284" lon="10.8149305"><ele>203.0</ele><time>2026-04-04T12:45:08.932Z</time></trkpt><trkpt lat="43.5972542" lon="10.8148143"><ele>203.0</ele><time>2026-04-04T12:45:09.931Z</time></trkpt><trkpt lat="43.5972737" lon="10.8146873"><ele>203.0</ele><time>2026-04-04T12:45:10.931Z</time></trkpt><trkpt lat="43.597286" lon="10.8145498"><ele>203.0</ele><time>2026-04-04T12:45:11.931Z</time></trkpt><trkpt lat="43.5972928" lon="10.8144094"><ele>203.0</ele><time>2026-04-04T12:45:12.93Z</time></trkpt><trkpt lat="43.5972982" lon="10.8142703"><ele>203.0</ele><time>2026-04-04T12:45:13.931Z</time></trkpt><trkpt lat="43.5973026" lon="10.8141289"><ele>202.75</ele><time>2026-04-04T12:45:14.931Z</time></trkpt><trkpt lat="43.5973167" lon="10.8139827"><ele>202.5</ele><time>2026-04-04T12:45:15.932Z</time></trkpt><trkpt lat="43.597328" lon="10.8138308"><ele>202.25</ele><time>2026-04-04T12:45:16.932Z</time></trkpt><trkpt lat="43.5973357" lon="10.8136716"><ele>202.0</ele><time>2026-04-04T12:45:17.931Z</time></trkpt><trkpt lat="43.5973486" lon="10.8135091"><ele>200.0</ele><time>2026-04-04T12:45:18.929Z</time></trkpt><trkpt lat="43.5973763" lon="10.8133466"><ele>198.0</ele><time>2026-04-04T12:45:19.93Z</time></trkpt><trkpt lat="43.5974224" lon="10.8131782"><ele>196.0</ele><time>2026-04-04T12:45:20.932Z</time></trkpt><trkpt lat="43.5974719" lon="10.81302"><ele>194.0</ele><time>2026-04-04T12:45:21.931Z</time></trkpt><trkpt lat="43.5975271" lon="10.8128849"><ele>194.0</ele><time>2026-04-04T12:45:22.932Z</time></trkpt><trkpt lat="43.5975893" lon="10.8127665"><ele>194.0</ele><time>2026-04-04T12:45:23.931Z</time></trkpt><trkpt lat="43.5976516" lon="10.8126701"><ele>194.0</ele><time>2026-04-04T12:45:24.927Z</time></trkpt><trkpt lat="43.5977104" lon="10.8125587"><ele>194.0</ele><time>2026-04-04T12:45:25.932Z</time></trkpt><trkpt lat="43.5978051" lon="10.8124708"><ele>194.0</ele><time>2026-04-04T12:45:27.932Z</time></trkpt><trkpt lat="43.5978718" lon="10.8123969"><ele>195.2</ele><time>2026-04-04T12:45:28.932Z</time></trkpt><trkpt lat="43.5979482" lon="10.8123234"><ele>196.39999999999998</ele><time>2026-04-04T12:45:29.931Z</time></trkpt><trkpt lat="43.5980239" lon="10.812242"><ele>197.6</ele><time>2026-04-04T12:45:30.93Z</time></trkpt><trkpt lat="43.5981022" lon="10.8121559"><ele>198.8</ele><time>2026-04-04T12:45:31.928Z</time></trkpt><trkpt lat="43.598183" lon="10.812067"><ele>200.0</ele><time>2026-04-04T12:45:32.932Z</time></trkpt><trkpt lat="43.5982621" lon="10.8119705"><ele>200.0</ele><time>2026-04-04T12:45:33.93Z</time></trkpt><trkpt lat="43.5983332" lon="10.8118543"><ele>200.0</ele><time>2026-04-04T12:45:34.931Z</time></trkpt><trkpt lat="43.5983943" lon="10.8117236"><ele>200.0</ele><time>2026-04-04T12:45:35.932Z</time></trkpt><trkpt lat="43.5984449" lon="10.8116089"><ele>200.0</ele><time>2026-04-04T12:45:36.931Z</time></trkpt><trkpt lat="43.5984876" lon="10.8115064"><ele>200.0</ele><time>2026-04-04T12:45:37.932Z</time></trkpt><trkpt lat="43.5985267" lon="10.8114265"><ele>200.83333333333334</ele><time>2026-04-04T12:45:38.93Z</time></trkpt><trkpt lat="43.598621" lon="10.8113374"><ele>201.66666666666669</ele><time>2026-04-04T12:45:40.931Z</time></trkpt><trkpt lat="43.5986844" lon="10.8113321"><ele>202.5</ele><time>2026-04-04T12:45:41.932Z</time></trkpt><trkpt lat="43.5987558" lon="10.8113492"><ele>203.33333333333331</ele><time>2026-04-04T12:45:42.931Z</time></trkpt><trkpt lat="43.5988208" lon="10.8113463"><ele>204.16666666666666</ele><time>2026-04-04T12:45:43.932Z</time></trkpt><trkpt lat="43.5989391" lon="10.8113391"><ele>205.0</ele><time>2026-04-04T12:45:44.93Z</time></trkpt><trkpt lat="43.5990386" lon="10.8113444"><ele>205.6</ele><time>2026-04-04T12:45:45.931Z</time></trkpt><trkpt lat="43.5991299" lon="10.8113695"><ele>206.2</ele><time>2026-04-04T12:45:46.932Z</time></trkpt><trkpt lat="43.5992163" lon="10.8114077"><ele>206.8</ele><time>2026-04-04T12:45:47.931Z</time></trkpt><trkpt lat="43.599314" lon="10.8114131"><ele>207.4</ele><time>2026-04-04T12:45:48.931Z</time></trkpt><trkpt lat="43.5994037" lon="10.8113844"><ele>208.0</ele><time>2026-04-04T12:45:49.931Z</time></trkpt><trkpt lat="43.5995007" lon="10.8113147"><ele>205.5</ele><time>2026-04-04T12:45:50.929Z</time></trkpt><trkpt lat="43.5996047" lon="10.8112316"><ele>203.0</ele><time>2026-04-04T12:45:51.931Z</time></trkpt><trkpt lat="43.5997009" lon="10.8111456"><ele>200.5</ele><time>2026-04-04T12:45:52.932Z</time></trkpt><trkpt lat="43.5997982" lon="10.8110674"><ele>198.0</ele><time>2026-04-04T12:45:53.932Z</time></trkpt><trkpt lat="43.5998877" lon="10.8109803"><ele>197.0</ele><time>2026-04-04T12:45:54.931Z</time></trkpt><trkpt lat="43.5999681" lon="10.8108666"><ele>196.0</ele><time>2026-04-04T12:45:55.932Z</time></trkpt><trkpt lat="43.60004" lon="10.8107264"><ele>195.0</ele><time>2026-04-04T12:45:56.929Z</time></trkpt><trkpt lat="43.6001069" lon="10.8105821"><ele>194.0</ele><time>2026-04-04T12:45:57.931Z</time></trkpt><trkpt lat="43.6001646" lon="10.8104378"><ele>194.0</ele><time>2026-04-04T12:45:58.932Z</time></trkpt><trkpt lat="43.6002102" lon="10.8102856"><ele>194.0</ele><time>2026-04-04T12:45:59.929Z</time></trkpt><trkpt lat="43.6002439" lon="10.8101269"><ele>194.0</ele><time>2026-04-04T12:46:00.931Z</time></trkpt><trkpt lat="43.6002674" lon="10.8099643"><ele>194.0</ele><time>2026-04-04T12:46:01.932Z</time></trkpt><trkpt lat="43.6002847" lon="10.8097967"><ele>191.75</ele><time>2026-04-04T12:46:02.932Z</time></trkpt><trkpt lat="43.6003007" lon="10.8096187"><ele>189.5</ele><time>2026-04-04T12:46:03.931Z</time></trkpt><trkpt lat="43.6002934" lon="10.8094534"><ele>187.25</ele><time>2026-04-04T12:46:04.931Z</time></trkpt><trkpt lat="43.6002849" lon="10.8092953"><ele>185.0</ele><time>2026-04-04T12:46:05.932Z</time></trkpt><trkpt lat="43.6002736" lon="10.8091509"><ele>184.5</ele><time>2026-04-04T12:46:06.931Z</time></trkpt><trkpt lat="43.6002632" lon="10.8090179"><ele>184.0</ele><time>2026-04-04T12:46:07.931Z</time></trkpt><trkpt lat="43.6002818" lon="10.808898"><ele>183.5</ele><time>2026-04-04T12:46:08.93Z</time></trkpt><trkpt lat="43.6003216" lon="10.8088055"><ele>183.0</ele><time>2026-04-04T12:46:09.929Z</time></trkpt><trkpt lat="43.6003654" lon="10.8087317"><ele>182.5</ele><time>2026-04-04T12:46:10.93Z</time></trkpt><trkpt lat="43.6004423" lon="10.8086736"><ele>182.0</ele><time>2026-04-04T12:46:11.931Z</time></trkpt><trkpt lat="43.6005361" lon="10.8086311"><ele>182.0</ele><time>2026-04-04T12:46:12.927Z</time></trkpt><trkpt lat="43.6006413" lon="10.8085995"><ele>182.0</ele><time>2026-04-04T12:46:13.931Z</time></trkpt><trkpt lat="43.6007794" lon="10.8085623"><ele>182.0</ele><time>2026-04-04T12:46:14.931Z</time></trkpt><trkpt lat="43.6009214" lon="10.8085203"><ele>182.0</ele><time>2026-04-04T12:46:15.931Z</time></trkpt><trkpt lat="43.6010657" lon="10.8084531"><ele>185.25</ele><time>2026-04-04T12:46:16.931Z</time></trkpt><trkpt lat="43.6011998" lon="10.8083917"><ele>188.5</ele><time>2026-04-04T12:46:17.93Z</time></trkpt><trkpt lat="43.6013209" lon="10.8083478"><ele>191.75</ele><time>2026-04-04T12:46:18.932Z</time></trkpt><trkpt lat="43.6014256" lon="10.8083042"><ele>195.0</ele><time>2026-04-04T12:46:19.932Z</time></trkpt><trkpt lat="43.6015102" lon="10.8082565"><ele>195.0</ele><time>2026-04-04T12:46:20.928Z</time></trkpt><trkpt lat="43.6015871" lon="10.8081955"><ele>195.0</ele><time>2026-04-04T12:46:21.929Z</time></trkpt><trkpt lat="43.6016489" lon="10.8081108"><ele>195.0</ele><time>2026-04-04T12:46:22.929Z</time></trkpt><trkpt lat="43.6016979" lon="10.8080003"><ele>195.0</ele><time>2026-04-04T12:46:23.93Z</time></trkpt><trkpt lat="43.6017301" lon="10.8078675"><ele>195.0</ele><time>2026-04-04T12:46:24.932Z</time></trkpt><trkpt lat="43.6017452" lon="10.807739"><ele>196.6</ele><time>2026-04-04T12:46:25.931Z</time></trkpt><trkpt lat="43.601754" lon="10.807625"><ele>198.2</ele><time>2026-04-04T12:46:26.932Z</time></trkpt><trkpt lat="43.6017418" lon="10.8075053"><ele>199.8</ele><time>2026-04-04T12:46:27.928Z</time></trkpt><trkpt lat="43.601735" lon="10.8073917"><ele>201.4</ele><time>2026-04-04T12:46:28.932Z</time></trkpt><trkpt lat="43.6016824" lon="10.8072596"><ele>203.0</ele><time>2026-04-04T12:46:29.932Z</time></trkpt><trkpt lat="43.6016298" lon="10.8071289"><ele>203.0</ele><time>2026-04-04T12:46:30.927Z</time></trkpt><trkpt lat="43.6015867" lon="10.8070039"><ele>203.0</ele><time>2026-04-04T12:46:31.93Z</time></trkpt><trkpt lat="43.6015622" lon="10.8068728"><ele>203.0</ele><time>2026-04-04T12:46:32.931Z</time></trkpt><trkpt lat="43.6015582" lon="10.8067497"><ele>203.0</ele><time>2026-04-04T12:46:33.932Z</time></trkpt><trkpt lat="43.6015637" lon="10.8066439"><ele>203.0</ele><time>2026-04-04T12:46:34.926Z</time></trkpt><trkpt lat="43.6016138" lon="10.8065281"><ele>203.00000000000003</ele><time>2026-04-04T12:46:35.93Z</time></trkpt><trkpt lat="43.6016688" lon="10.8064138"><ele>203.0</ele><time>2026-04-04T12:46:36.932Z</time></trkpt><trkpt lat="43.6017132" lon="10.8062941"><ele>203.0</ele><time>2026-04-04T12:46:37.931Z</time></trkpt><trkpt lat="43.6017575" lon="10.8061857"><ele>203.0</ele><time>2026-04-04T12:46:38.932Z</time></trkpt><trkpt lat="43.6017902" lon="10.8060831"><ele>203.00000000000003</ele><time>2026-04-04T12:46:39.931Z</time></trkpt><trkpt lat="43.601809" lon="10.805992"><ele>203.0</ele><time>2026-04-04T12:46:40.931Z</time></trkpt><trkpt lat="43.6018043" lon="10.8059036"><ele>202.50000000000003</ele><time>2026-04-04T12:46:41.931Z</time></trkpt><trkpt lat="43.6017766" lon="10.8058099"><ele>202.0</ele><time>2026-04-04T12:46:42.931Z</time></trkpt><trkpt lat="43.6017336" lon="10.8057062"><ele>201.5</ele><time>2026-04-04T12:46:43.931Z</time></trkpt><trkpt lat="43.6016919" lon="10.8055788"><ele>201.0</ele><time>2026-04-04T12:46:44.93Z</time></trkpt><trkpt lat="43.6016503" lon="10.8054586"><ele>200.50000000000003</ele><time>2026-04-04T12:46:45.931Z</time></trkpt><trkpt lat="43.6016111" lon="10.8053505"><ele>200.0</ele><time>2026-04-04T12:46:46.932Z</time></trkpt><trkpt lat="43.6015685" lon="10.8052566"><ele>200.00000000000003</ele><time>2026-04-04T12:46:47.93Z</time></trkpt><trkpt lat="43.6015225" lon="10.805163"><ele>200.0</ele><time>2026-04-04T12:46:48.931Z</time></trkpt><trkpt lat="43.6014411" lon="10.8051268"><ele>200.0</ele><time>2026-04-04T12:46:49.931Z</time></trkpt><trkpt lat="43.6013699" lon="10.805067"><ele>200.0</ele><time>2026-04-04T12:46:50.931Z</time></trkpt><trkpt lat="43.6012937" lon="10.8050471"><ele>200.00000000000003</ele><time>2026-04-04T12:46:51.931Z</time></trkpt><trkpt lat="43.601222" lon="10.8050009"><ele>200.0</ele><time>2026-04-04T12:46:52.93Z</time></trkpt><trkpt lat="43.6011616" lon="10.8049115"><ele>201.0</ele><time>2026-04-04T12:46:53.931Z</time></trkpt><trkpt lat="43.6011151" lon="10.804815"><ele>202.0</ele><time>2026-04-04T12:46:54.931Z</time></trkpt><trkpt lat="43.6010757" lon="10.8047075"><ele>203.0</ele><time>2026-04-04T12:46:55.93Z</time></trkpt><trkpt lat="43.6011502" lon="10.8045461"><ele>204.0</ele><time>2026-04-04T12:46:56.93Z</time></trkpt><trkpt lat="43.6011861" lon="10.8043667"><ele>205.0</ele><time>2026-04-04T12:46:57.929Z</time></trkpt><trkpt lat="43.6012033" lon="10.8042162"><ele>205.0</ele><time>2026-04-04T12:46:58.932Z</time></trkpt><trkpt lat="43.6011782" lon="10.8040574"><ele>205.0</ele><time>2026-04-04T12:46:59.929Z</time></trkpt><trkpt lat="43.6011294" lon="10.8039093"><ele>205.0</ele><time>2026-04-04T12:47:00.93Z</time></trkpt><trkpt lat="43.6010669" lon="10.8037527"><ele>205.0</ele><time>2026-04-04T12:47:01.932Z</time></trkpt><trkpt lat="43.601022" lon="10.80361"><ele>202.66666666666666</ele><time>2026-04-04T12:47:02.932Z</time></trkpt><trkpt lat="43.6010051" lon="10.8034986"><ele>200.33333333333331</ele><time>2026-04-04T12:47:03.931Z</time></trkpt><trkpt lat="43.6010096" lon="10.8033878"><ele>198.0</ele><time>2026-04-04T12:47:04.932Z</time></trkpt><trkpt lat="43.6010305" lon="10.8033018"><ele>195.66666666666666</ele><time>2026-04-04T12:47:05.93Z</time></trkpt><trkpt lat="43.6010637" lon="10.8032069"><ele>193.33333333333331</ele><time>2026-04-04T12:47:08.931Z</time></trkpt><trkpt lat="43.6010535" lon="10.8031207"><ele>191.0</ele><time>2026-04-04T12:47:10.931Z</time></trkpt><trkpt lat="43.6010055" lon="10.8030246"><ele>191.0</ele><time>2026-04-04T12:47:12.932Z</time></trkpt><trkpt lat="43.6009462" lon="10.802947"><ele>191.0</ele><time>2026-04-04T12:47:13.932Z</time></trkpt><trkpt lat="43.6008745" lon="10.8028805"><ele>191.0</ele><time>2026-04-04T12:47:14.932Z</time></trkpt><trkpt lat="43.6008047" lon="10.8028166"><ele>191.0</ele><time>2026-04-04T12:47:15.931Z</time></trkpt><trkpt lat="43.6007172" lon="10.8027298"><ele>191.0</ele><time>2026-04-04T12:47:17.932Z</time></trkpt><trkpt lat="43.6006537" lon="10.8027293"><ele>191.0</ele><time>2026-04-04T12:47:22.929Z</time></trkpt><trkpt lat="43.6007329" lon="10.8027767"><ele>191.0</ele><time>2026-04-04T12:47:30.925Z</time></trkpt><trkpt lat="43.6008451" lon="10.8028615"><ele>191.0</ele><time>2026-04-04T12:47:32.931Z</time></trkpt><trkpt lat="43.6009064" lon="10.8029164"><ele>191.0</ele><time>2026-04-04T12:47:33.932Z</time></trkpt><trkpt lat="43.6009645" lon="10.802986"><ele>191.0</ele><time>2026-04-04T12:47:34.932Z</time></trkpt><trkpt lat="43.601009" lon="10.8030535"><ele>191.0</ele><time>2026-04-04T12:47:35.926Z</time></trkpt><trkpt lat="43.6010518" lon="10.8031634"><ele>191.0</ele><time>2026-04-04T12:47:37.93Z</time></trkpt><trkpt lat="43.6011184" lon="10.8032643"><ele>190.66666666666666</ele><time>2026-04-04T12:47:39.929Z</time></trkpt><trkpt lat="43.6011888" lon="10.803278"><ele>190.33333333333331</ele><time>2026-04-04T12:47:40.932Z</time></trkpt><trkpt lat="43.6012601" lon="10.8032959"><ele>190.0</ele><time>2026-04-04T12:47:41.926Z</time></trkpt><trkpt lat="43.6013428" lon="10.8033232"><ele>189.66666666666666</ele><time>2026-04-04T12:47:42.926Z</time></trkpt><trkpt lat="43.6014188" lon="10.8033598"><ele>189.33333333333334</ele><time>2026-04-04T12:47:43.924Z</time></trkpt><trkpt lat="43.6015022" lon="10.8034055"><ele>189.0</ele><time>2026-04-04T12:47:44.929Z</time></trkpt><trkpt lat="43.6015779" lon="10.8034516"><ele>189.16666666666666</ele><time>2026-04-04T12:47:45.927Z</time></trkpt><trkpt lat="43.6016517" lon="10.8035041"><ele>189.33333333333334</ele><time>2026-04-04T12:47:46.931Z</time></trkpt><trkpt lat="43.6017263" lon="10.8035254"><ele>189.5</ele><time>2026-04-04T12:47:47.932Z</time></trkpt><trkpt lat="43.6018033" lon="10.8035318"><ele>189.66666666666669</ele><time>2026-04-04T12:47:48.932Z</time></trkpt><trkpt lat="43.6018802" lon="10.8035247"><ele>189.83333333333334</ele><time>2026-04-04T12:47:49.929Z</time></trkpt><trkpt lat="43.6019521" lon="10.8035132"><ele>190.0</ele><time>2026-04-04T12:47:50.931Z</time></trkpt><trkpt lat="43.6020296" lon="10.8034497"><ele>190.0</ele><time>2026-04-04T12:47:51.931Z</time></trkpt><trkpt lat="43.602101" lon="10.8033986"><ele>190.0</ele><time>2026-04-04T12:47:52.929Z</time></trkpt><trkpt lat="43.6021644" lon="10.8033445"><ele>190.0</ele><time>2026-04-04T12:47:53.931Z</time></trkpt><trkpt lat="43.6022291" lon="10.8032962"><ele>190.0</ele><time>2026-04-04T12:47:54.93Z</time></trkpt><trkpt lat="43.6022951" lon="10.8032589"><ele>190.0</ele><time>2026-04-04T12:47:55.932Z</time></trkpt><trkpt lat="43.602358" lon="10.803247"><ele>190.0</ele><time>2026-04-04T12:47:56.932Z</time></trkpt><trkpt lat="43.6024301" lon="10.8032586"><ele>190.0</ele><time>2026-04-04T12:47:57.929Z</time></trkpt><trkpt lat="43.6025017" lon="10.8032817"><ele>190.0</ele><time>2026-04-04T12:47:58.932Z</time></trkpt><trkpt lat="43.6025685" lon="10.8032952"><ele>190.0</ele><time>2026-04-04T12:47:59.932Z</time></trkpt><trkpt lat="43.6027158" lon="10.8032864"><ele>190.0</ele><time>2026-04-04T12:48:01.931Z</time></trkpt><trkpt lat="43.6027969" lon="10.8032472"><ele>190.0</ele><time>2026-04-04T12:48:02.932Z</time></trkpt><trkpt lat="43.6028793" lon="10.8031999"><ele>190.0</ele><time>2026-04-04T12:48:03.929Z</time></trkpt><trkpt lat="43.6029433" lon="10.8031271"><ele>190.33333333333334</ele><time>2026-04-04T12:48:04.929Z</time></trkpt><trkpt lat="43.6030022" lon="10.8030516"><ele>190.66666666666669</ele><time>2026-04-04T12:48:05.931Z</time></trkpt><trkpt lat="43.6030667" lon="10.8029912"><ele>191.0</ele><time>2026-04-04T12:48:06.931Z</time></trkpt><trkpt lat="43.6031084" lon="10.8028936"><ele>191.33333333333334</ele><time>2026-04-04T12:48:07.928Z</time></trkpt><trkpt lat="43.603149" lon="10.8027972"><ele>191.66666666666666</ele><time>2026-04-04T12:48:08.931Z</time></trkpt><trkpt lat="43.6031837" lon="10.802695"><ele>192.0</ele><time>2026-04-04T12:48:09.93Z</time></trkpt><trkpt lat="43.6032172" lon="10.8025816"><ele>192.0</ele><time>2026-04-04T12:48:10.929Z</time></trkpt><trkpt lat="43.6032587" lon="10.8024723"><ele>192.0</ele><time>2026-04-04T12:48:11.931Z</time></trkpt><trkpt lat="43.6033067" lon="10.8023714"><ele>192.0</ele><time>2026-04-04T12:48:12.931Z</time></trkpt><trkpt lat="43.6033893" lon="10.8023118"><ele>192.0</ele><time>2026-04-04T12:48:13.928Z</time></trkpt><trkpt lat="43.6034761" lon="10.8022393"><ele>192.0</ele><time>2026-04-04T12:48:14.932Z</time></trkpt><trkpt lat="43.6035664" lon="10.8021782"><ele>192.0</ele><time>2026-04-04T12:48:15.93Z</time></trkpt><trkpt lat="43.6036555" lon="10.8021166"><ele>192.0</ele><time>2026-04-04T12:48:16.931Z</time></trkpt><trkpt lat="43.6037312" lon="10.8020446"><ele>192.0</ele><time>2026-04-04T12:48:17.929Z</time></trkpt><trkpt lat="43.6038163" lon="10.8019722"><ele>192.0</ele><time>2026-04-04T12:48:18.928Z</time></trkpt><trkpt lat="43.6039068" lon="10.8018896"><ele>192.0</ele><time>2026-04-04T12:48:19.929Z</time></trkpt><trkpt lat="43.6040023" lon="10.8018108"><ele>192.25</ele><time>2026-04-04T12:48:20.932Z</time></trkpt><trkpt lat="43.6040998" lon="10.8017252"><ele>192.5</ele><time>2026-04-04T12:48:21.931Z</time></trkpt><trkpt lat="43.6041984" lon="10.8016449"><ele>192.75</ele><time>2026-04-04T12:48:22.929Z</time></trkpt><trkpt lat="43.6042997" lon="10.8015551"><ele>193.0</ele><time>2026-04-04T12:48:23.932Z</time></trkpt><trkpt lat="43.6044071" lon="10.8014568"><ele>194.5</ele><time>2026-04-04T12:48:24.931Z</time></trkpt><trkpt lat="43.604519" lon="10.8013586"><ele>196.0</ele><time>2026-04-04T12:48:25.932Z</time></trkpt><trkpt lat="43.6046198" lon="10.8012794"><ele>197.5</ele><time>2026-04-04T12:48:26.928Z</time></trkpt><trkpt lat="43.6047162" lon="10.8011968"><ele>199.0</ele><time>2026-04-04T12:48:27.929Z</time></trkpt><trkpt lat="43.6048136" lon="10.8011115"><ele>199.0</ele><time>2026-04-04T12:48:28.93Z</time></trkpt><trkpt lat="43.604906" lon="10.8010316"><ele>199.0</ele><time>2026-04-04T12:48:29.932Z</time></trkpt><trkpt lat="43.6050005" lon="10.8009507"><ele>199.0</ele><time>2026-04-04T12:48:30.932Z</time></trkpt><trkpt lat="43.6050947" lon="10.8008668"><ele>199.0</ele><time>2026-04-04T12:48:31.929Z</time></trkpt><trkpt lat="43.60518" lon="10.800802"><ele>199.0</ele><time>2026-04-04T12:48:32.93Z</time></trkpt><trkpt lat="43.6052541" lon="10.8007423"><ele>199.79999999999998</ele><time>2026-04-04T12:48:33.932Z</time></trkpt><trkpt lat="43.6053285" lon="10.800688"><ele>200.6</ele><time>2026-04-04T12:48:34.932Z</time></trkpt><trkpt lat="43.6053931" lon="10.8006365"><ele>201.4</ele><time>2026-04-04T12:48:35.931Z</time></trkpt><trkpt lat="43.6054804" lon="10.8005521"><ele>202.2</ele><time>2026-04-04T12:48:37.931Z</time></trkpt><trkpt lat="43.6055073" lon="10.8004327"><ele>203.0</ele><time>2026-04-04T12:48:39.932Z</time></trkpt><trkpt lat="43.6054589" lon="10.8002947"><ele>204.60000000000002</ele><time>2026-04-04T12:48:41.931Z</time></trkpt><trkpt lat="43.6054309" lon="10.8002141"><ele>206.20000000000002</ele><time>2026-04-04T12:48:42.93Z</time></trkpt><trkpt lat="43.6053762" lon="10.8001019"><ele>207.8</ele><time>2026-04-04T12:48:43.93Z</time></trkpt><trkpt lat="43.6053265" lon="10.7999883"><ele>209.4</ele><time>2026-04-04T12:48:44.932Z</time></trkpt><trkpt lat="43.6052795" lon="10.7998728"><ele>211.0</ele><time>2026-04-04T12:48:45.928Z</time></trkpt><trkpt lat="43.6052381" lon="10.799751"><ele>211.0</ele><time>2026-04-04T12:48:46.93Z</time></trkpt><trkpt lat="43.6051785" lon="10.7996313"><ele>211.0</ele><time>2026-04-04T12:48:47.929Z</time></trkpt><trkpt lat="43.6051213" lon="10.7995116"><ele>211.0</ele><time>2026-04-04T12:48:48.931Z</time></trkpt><trkpt lat="43.6050657" lon="10.7993925"><ele>211.0</ele><time>2026-04-04T12:48:49.928Z</time></trkpt><trkpt lat="43.6050132" lon="10.7992831"><ele>211.0</ele><time>2026-04-04T12:48:50.93Z</time></trkpt><trkpt lat="43.604967" lon="10.7991887"><ele>213.33333333333331</ele><time>2026-04-04T12:48:51.932Z</time></trkpt><trkpt lat="43.604923" lon="10.7990917"><ele>215.66666666666666</ele><time>2026-04-04T12:48:52.931Z</time></trkpt><trkpt lat="43.6049625" lon="10.7990172"><ele>218.0</ele><time>2026-04-04T12:48:54.93Z</time></trkpt><trkpt lat="43.6050291" lon="10.7990134"><ele>220.33333333333331</ele><time>2026-04-04T12:48:56.929Z</time></trkpt><trkpt lat="43.6051403" lon="10.7991367"><ele>222.66666666666666</ele><time>2026-04-04T12:48:58.932Z</time></trkpt><trkpt lat="43.6052021" lon="10.7991958"><ele>225.0</ele><time>2026-04-04T12:48:59.932Z</time></trkpt><trkpt lat="43.6052592" lon="10.7992677"><ele>227.6</ele><time>2026-04-04T12:49:00.927Z</time></trkpt><trkpt lat="43.6053073" lon="10.7993614"><ele>230.2</ele><time>2026-04-04T12:49:01.931Z</time></trkpt><trkpt lat="43.6053569" lon="10.7994742"><ele>232.8</ele><time>2026-04-04T12:49:02.931Z</time></trkpt><trkpt lat="43.6054099" lon="10.7996012"><ele>235.4</ele><time>2026-04-04T12:49:03.931Z</time></trkpt><trkpt lat="43.6054554" lon="10.7997297"><ele>238.0</ele><time>2026-04-04T12:49:04.929Z</time></trkpt><trkpt lat="43.6055056" lon="10.7998567"><ele>238.0</ele><time>2026-04-04T12:49:05.93Z</time></trkpt><trkpt lat="43.6055585" lon="10.7999736"><ele>238.0</ele><time>2026-04-04T12:49:06.931Z</time></trkpt><trkpt lat="43.6056161" lon="10.8000854"><ele>238.0</ele><time>2026-04-04T12:49:07.931Z</time></trkpt><trkpt lat="43.6056809" lon="10.8001972"><ele>238.0</ele><time>2026-04-04T12:49:08.932Z</time></trkpt><trkpt lat="43.6057558" lon="10.8002958"><ele>238.0</ele><time>2026-04-04T12:49:09.932Z</time></trkpt><trkpt lat="43.6058324" lon="10.8003466"><ele>236.2</ele><time>2026-04-04T12:49:10.93Z</time></trkpt><trkpt lat="43.6059152" lon="10.8003939"><ele>234.4</ele><time>2026-04-04T12:49:11.931Z</time></trkpt><trkpt lat="43.606005" lon="10.8004348"><ele>232.59999999999997</ele><time>2026-04-04T12:49:12.928Z</time></trkpt><trkpt lat="43.6060987" lon="10.8004691"><ele>230.79999999999998</ele><time>2026-04-04T12:49:13.931Z</time></trkpt><trkpt lat="43.6061868" lon="10.8005001"><ele>229.0</ele><time>2026-04-04T12:49:14.931Z</time></trkpt><trkpt lat="43.6062628" lon="10.8005398"><ele>229.0</ele><time>2026-04-04T12:49:15.932Z</time></trkpt><trkpt lat="43.606328" lon="10.8005922"><ele>228.99999999999997</ele><time>2026-04-04T12:49:16.932Z</time></trkpt><trkpt lat="43.6063879" lon="10.8006274"><ele>228.99999999999997</ele><time>2026-04-04T12:49:17.931Z</time></trkpt><trkpt lat="43.6064835" lon="10.8007253"><ele>229.0</ele><time>2026-04-04T12:49:19.931Z</time></trkpt><trkpt lat="43.6065714" lon="10.8007806"><ele>229.0</ele><time>2026-04-04T12:49:21.929Z</time></trkpt><trkpt lat="43.6066439" lon="10.8008949"><ele>227.83333333333331</ele><time>2026-04-04T12:49:23.932Z</time></trkpt><trkpt lat="43.6067076" lon="10.8010546"><ele>226.66666666666666</ele><time>2026-04-04T12:49:25.931Z</time></trkpt><trkpt lat="43.6067406" lon="10.8011575"><ele>225.5</ele><time>2026-04-04T12:49:26.931Z</time></trkpt><trkpt lat="43.606769" lon="10.8012479"><ele>224.33333333333331</ele><time>2026-04-04T12:49:27.927Z</time></trkpt><trkpt lat="43.6067853" lon="10.8013453"><ele>223.16666666666666</ele><time>2026-04-04T12:49:28.93Z</time></trkpt><trkpt lat="43.6068112" lon="10.8014518"><ele>222.0</ele><time>2026-04-04T12:49:29.93Z</time></trkpt><trkpt lat="43.6068264" lon="10.8015471"><ele>222.0</ele><time>2026-04-04T12:49:30.93Z</time></trkpt><trkpt lat="43.6068671" lon="10.8016374"><ele>222.0</ele><time>2026-04-04T12:49:31.925Z</time></trkpt><trkpt lat="43.6069124" lon="10.8017416"><ele>222.0</ele><time>2026-04-04T12:49:32.929Z</time></trkpt><trkpt lat="43.6069594" lon="10.8018414"><ele>222.0</ele><time>2026-04-04T12:49:33.929Z</time></trkpt><trkpt lat="43.6070079" lon="10.8019275"><ele>222.0</ele><time>2026-04-04T12:49:34.931Z</time></trkpt><trkpt lat="43.6070601" lon="10.8020006"><ele>222.0</ele><time>2026-04-04T12:49:35.932Z</time></trkpt><trkpt lat="43.6071122" lon="10.8020925"><ele>222.83333333333334</ele><time>2026-04-04T12:49:36.925Z</time></trkpt><trkpt lat="43.6071725" lon="10.8021734"><ele>223.66666666666669</ele><time>2026-04-04T12:49:37.929Z</time></trkpt><trkpt lat="43.6072266" lon="10.8022524"><ele>224.5</ele><time>2026-04-04T12:49:38.931Z</time></trkpt><trkpt lat="43.607293" lon="10.8023442"><ele>225.33333333333334</ele><time>2026-04-04T12:49:39.931Z</time></trkpt><trkpt lat="43.6073444" lon="10.8024512"><ele>226.16666666666669</ele><time>2026-04-04T12:49:40.932Z</time></trkpt><trkpt lat="43.6074228" lon="10.8025294"><ele>227.0</ele><time>2026-04-04T12:49:41.928Z</time></trkpt><trkpt lat="43.6075027" lon="10.8026039"><ele>226.39999999999998</ele><time>2026-04-04T12:49:42.928Z</time></trkpt><trkpt lat="43.6075907" lon="10.8026737"><ele>225.79999999999998</ele><time>2026-04-04T12:49:43.932Z</time></trkpt><trkpt lat="43.6076856" lon="10.8027372"><ele>225.2</ele><time>2026-04-04T12:49:44.931Z</time></trkpt><trkpt lat="43.6077798" lon="10.8027888"><ele>224.6</ele><time>2026-04-04T12:49:45.931Z</time></trkpt><trkpt lat="43.607866" lon="10.8028379"><ele>224.0</ele><time>2026-04-04T12:49:46.93Z</time></trkpt><trkpt lat="43.6079427" lon="10.8028753"><ele>224.00000000000003</ele><time>2026-04-04T12:49:47.931Z</time></trkpt><trkpt lat="43.6080168" lon="10.8029089"><ele>224.0</ele><time>2026-04-04T12:49:48.932Z</time></trkpt><trkpt lat="43.6080875" lon="10.8029366"><ele>224.0</ele><time>2026-04-04T12:49:49.931Z</time></trkpt><trkpt lat="43.6081963" lon="10.8029773"><ele>224.0</ele><time>2026-04-04T12:49:51.932Z</time></trkpt><trkpt lat="43.6082518" lon="10.8030214"><ele>224.00000000000003</ele><time>2026-04-04T12:49:52.93Z</time></trkpt><trkpt lat="43.6083076" lon="10.8030681"><ele>224.0</ele><time>2026-04-04T12:49:53.928Z</time></trkpt><trkpt lat="43.608372" lon="10.8031166"><ele>224.0</ele><time>2026-04-04T12:49:54.931Z</time></trkpt><trkpt lat="43.6084197" lon="10.8031853"><ele>224.0</ele><time>2026-04-04T12:49:55.928Z</time></trkpt><trkpt lat="43.6084685" lon="10.8032499"><ele>224.0</ele><time>2026-04-04T12:49:56.931Z</time></trkpt><trkpt lat="43.6084907" lon="10.8033433"><ele>224.0</ele><time>2026-04-04T12:49:57.93Z</time></trkpt><trkpt lat="43.6085118" lon="10.8034416"><ele>224.0</ele><time>2026-04-04T12:49:58.929Z</time></trkpt><trkpt lat="43.6085385" lon="10.8035318"><ele>224.0</ele><time>2026-04-04T12:49:59.931Z</time></trkpt><trkpt lat="43.6085689" lon="10.803619"><ele>224.0</ele><time>2026-04-04T12:50:00.931Z</time></trkpt><trkpt lat="43.6086116" lon="10.8036931"><ele>223.2</ele><time>2026-04-04T12:50:01.932Z</time></trkpt><trkpt lat="43.6086647" lon="10.8037448"><ele>222.39999999999998</ele><time>2026-04-04T12:50:02.931Z</time></trkpt><trkpt lat="43.6087576" lon="10.8038479"><ele>221.6</ele><time>2026-04-04T12:50:04.928Z</time></trkpt><trkpt lat="43.6088499" lon="10.8038592"><ele>220.8</ele><time>2026-04-04T12:50:05.927Z</time></trkpt><trkpt lat="43.6089283" lon="10.8038858"><ele>220.0</ele><time>2026-04-04T12:50:06.931Z</time></trkpt><trkpt lat="43.6090193" lon="10.8039102"><ele>220.0</ele><time>2026-04-04T12:50:07.931Z</time></trkpt><trkpt lat="43.6091128" lon="10.803957"><ele>220.0</ele><time>2026-04-04T12:50:08.93Z</time></trkpt><trkpt lat="43.6092019" lon="10.8040128"><ele>220.0</ele><time>2026-04-04T12:50:09.93Z</time></trkpt><trkpt lat="43.6092903" lon="10.8040703"><ele>220.0</ele><time>2026-04-04T12:50:10.931Z</time></trkpt><trkpt lat="43.6093901" lon="10.8041238"><ele>220.0</ele><time>2026-04-04T12:50:11.931Z</time></trkpt><trkpt lat="43.6094741" lon="10.804184"><ele>218.99999999999997</ele><time>2026-04-04T12:50:12.931Z</time></trkpt><trkpt lat="43.6095441" lon="10.8042348"><ele>218.0</ele><time>2026-04-04T12:50:13.932Z</time></trkpt><trkpt lat="43.6096045" lon="10.8042608"><ele>217.0</ele><time>2026-04-04T12:50:14.927Z</time></trkpt><trkpt lat="43.609679" lon="10.8042691"><ele>216.0</ele><time>2026-04-04T12:50:15.931Z</time></trkpt><trkpt lat="43.609746" lon="10.8042624"><ele>214.99999999999997</ele><time>2026-04-04T12:50:16.93Z</time></trkpt><trkpt lat="43.6098608" lon="10.8041947"><ele>214.0</ele><time>2026-04-04T12:50:18.931Z</time></trkpt><trkpt lat="43.6099198" lon="10.8041491"><ele>214.0</ele><time>2026-04-04T12:50:19.931Z</time></trkpt><trkpt lat="43.6099759" lon="10.8040948"><ele>213.99999999999997</ele><time>2026-04-04T12:50:20.931Z</time></trkpt><trkpt lat="43.6100372" lon="10.8040439"><ele>213.99999999999997</ele><time>2026-04-04T12:50:21.932Z</time></trkpt><trkpt lat="43.6101353" lon="10.8039555"><ele>214.0</ele><time>2026-04-04T12:50:23.928Z</time></trkpt><trkpt lat="43.6102188" lon="10.803885"><ele>214.0</ele><time>2026-04-04T12:50:25.93Z</time></trkpt><trkpt lat="43.6103078" lon="10.8038306"><ele>211.6</ele><time>2026-04-04T12:50:27.932Z</time></trkpt><trkpt lat="43.6104145" lon="10.8038298"><ele>209.2</ele><time>2026-04-04T12:50:29.931Z</time></trkpt><trkpt lat="43.6105238" lon="10.8038408"><ele>206.79999999999998</ele><time>2026-04-04T12:50:31.931Z</time></trkpt><trkpt lat="43.6106322" lon="10.8037969"><ele>204.39999999999998</ele><time>2026-04-04T12:50:33.931Z</time></trkpt><trkpt lat="43.6107015" lon="10.8037144"><ele>202.0</ele><time>2026-04-04T12:50:34.932Z</time></trkpt><trkpt lat="43.6107807" lon="10.8036344"><ele>202.0</ele><time>2026-04-04T12:50:35.931Z</time></trkpt><trkpt lat="43.6108585" lon="10.8035535"><ele>202.0</ele><time>2026-04-04T12:50:36.926Z</time></trkpt><trkpt lat="43.6109242" lon="10.803485"><ele>202.0</ele><time>2026-04-04T12:50:37.928Z</time></trkpt><trkpt lat="43.6109903" lon="10.8034104"><ele>202.0</ele><time>2026-04-04T12:50:38.932Z</time></trkpt><trkpt lat="43.611063" lon="10.8033174"><ele>202.0</ele><time>2026-04-04T12:50:39.929Z</time></trkpt><trkpt lat="43.6111483" lon="10.8032641"><ele>201.0</ele><time>2026-04-04T12:50:41.928Z</time></trkpt><trkpt lat="43.6112842" lon="10.8032551"><ele>200.0</ele><time>2026-04-04T12:50:43.932Z</time></trkpt><trkpt lat="43.6113737" lon="10.8032445"><ele>199.0</ele><time>2026-04-04T12:50:44.928Z</time></trkpt><trkpt lat="43.6114554" lon="10.803238"><ele>198.0</ele><time>2026-04-04T12:50:45.929Z</time></trkpt><trkpt lat="43.6115414" lon="10.8032058"><ele>197.0</ele><time>2026-04-04T12:50:46.927Z</time></trkpt><trkpt lat="43.6116478" lon="10.803165"><ele>197.0</ele><time>2026-04-04T12:50:47.931Z</time></trkpt><trkpt lat="43.6117391" lon="10.8031329"><ele>197.0</ele><time>2026-04-04T12:50:48.93Z</time></trkpt><trkpt lat="43.6118341" lon="10.8031114"><ele>197.0</ele><time>2026-04-04T12:50:49.932Z</time></trkpt><trkpt lat="43.6119257" lon="10.8031024"><ele>197.0</ele><time>2026-04-04T12:50:50.931Z</time></trkpt><trkpt lat="43.6120129" lon="10.8031118"><ele>197.0</ele><time>2026-04-04T12:50:51.928Z</time></trkpt><trkpt lat="43.6121008" lon="10.8031164"><ele>197.39999999999998</ele><time>2026-04-04T12:50:52.932Z</time></trkpt><trkpt lat="43.6121936" lon="10.8031026"><ele>197.79999999999998</ele><time>2026-04-04T12:50:53.931Z</time></trkpt><trkpt lat="43.6122862" lon="10.8030672"><ele>198.2</ele><time>2026-04-04T12:50:54.929Z</time></trkpt><trkpt lat="43.6123952" lon="10.8030215"><ele>198.6</ele><time>2026-04-04T12:50:55.93Z</time></trkpt><trkpt lat="43.6125118" lon="10.8029834"><ele>199.0</ele><time>2026-04-04T12:50:56.927Z</time></trkpt><trkpt lat="43.6126103" lon="10.8029492"><ele>199.0</ele><time>2026-04-04T12:50:57.931Z</time></trkpt><trkpt lat="43.6127058" lon="10.8029354"><ele>199.0</ele><time>2026-04-04T12:50:58.931Z</time></trkpt><trkpt lat="43.6127968" lon="10.8029257"><ele>199.0</ele><time>2026-04-04T12:50:59.928Z</time></trkpt><trkpt lat="43.612882" lon="10.8029696"><ele>199.0</ele><time>2026-04-04T12:51:00.931Z</time></trkpt><trkpt lat="43.6129579" lon="10.8030543"><ele>199.0</ele><time>2026-04-04T12:51:01.929Z</time></trkpt><trkpt lat="43.6130321" lon="10.8031353"><ele>200.39999999999998</ele><time>2026-04-04T12:51:02.929Z</time></trkpt><trkpt lat="43.6131177" lon="10.8032102"><ele>201.8</ele><time>2026-04-04T12:51:03.931Z</time></trkpt><trkpt lat="43.6132075" lon="10.8032751"><ele>203.2</ele><time>2026-04-04T12:51:04.93Z</time></trkpt><trkpt lat="43.6132915" lon="10.8033139"><ele>204.60000000000002</ele><time>2026-04-04T12:51:05.928Z</time></trkpt><trkpt lat="43.613357" lon="10.8033462"><ele>206.0</ele><time>2026-04-04T12:51:06.929Z</time></trkpt><trkpt lat="43.6134539" lon="10.8033475"><ele>206.0</ele><time>2026-04-04T12:51:08.931Z</time></trkpt><trkpt lat="43.6135166" lon="10.8032781"><ele>206.0</ele><time>2026-04-04T12:51:11.93Z</time></trkpt><trkpt lat="43.6135198" lon="10.8031462"><ele>206.0</ele><time>2026-04-04T12:51:13.931Z</time></trkpt><trkpt lat="43.6135166" lon="10.8029786"><ele>206.0</ele><time>2026-04-04T12:51:15.932Z</time></trkpt><trkpt lat="43.6135279" lon="10.8028127"><ele>206.0</ele><time>2026-04-04T12:51:17.931Z</time></trkpt><trkpt lat="43.613555" lon="10.8027169"><ele>207.14285714285714</ele><time>2026-04-04T12:51:18.932Z</time></trkpt><trkpt lat="43.6136081" lon="10.8026555"><ele>208.28571428571428</ele><time>2026-04-04T12:51:19.93Z</time></trkpt><trkpt lat="43.6136543" lon="10.8025749"><ele>209.42857142857144</ele><time>2026-04-04T12:51:20.929Z</time></trkpt><trkpt lat="43.6137051" lon="10.8024915"><ele>210.57142857142856</ele><time>2026-04-04T12:51:21.931Z</time></trkpt><trkpt lat="43.613741" lon="10.8023982"><ele>211.71428571428572</ele><time>2026-04-04T12:51:22.932Z</time></trkpt><trkpt lat="43.6137748" lon="10.8023168"><ele>212.85714285714286</ele><time>2026-04-04T12:51:23.931Z</time></trkpt><trkpt lat="43.613822" lon="10.80224"><ele>214.0</ele><time>2026-04-04T12:51:24.927Z</time></trkpt><trkpt lat="43.6138712" lon="10.8021674"><ele>210.49999999999997</ele><time>2026-04-04T12:51:25.927Z</time></trkpt><trkpt lat="43.6139409" lon="10.8021187"><ele>207.0</ele><time>2026-04-04T12:51:26.927Z</time></trkpt><trkpt lat="43.6140075" lon="10.8020759"><ele>203.5</ele><time>2026-04-04T12:51:27.932Z</time></trkpt><trkpt lat="43.6140753" lon="10.8020596"><ele>200.0</ele><time>2026-04-04T12:51:28.928Z</time></trkpt><trkpt lat="43.6141641" lon="10.8020238"><ele>196.49999999999997</ele><time>2026-04-04T12:51:29.929Z</time></trkpt><trkpt lat="43.6142596" lon="10.8019977"><ele>193.0</ele><time>2026-04-04T12:51:30.931Z</time></trkpt><trkpt lat="43.6143377" lon="10.8019603"><ele>192.99999999999997</ele><time>2026-04-04T12:51:31.928Z</time></trkpt><trkpt lat="43.6144174" lon="10.8019048"><ele>193.0</ele><time>2026-04-04T12:51:32.93Z</time></trkpt><trkpt lat="43.6145121" lon="10.8018606"><ele>193.0</ele><time>2026-04-04T12:51:33.927Z</time></trkpt><trkpt lat="43.6145814" lon="10.8018112"><ele>193.0</ele><time>2026-04-04T12:51:34.927Z</time></trkpt><trkpt lat="43.614651" lon="10.8017684"><ele>192.99999999999997</ele><time>2026-04-04T12:51:35.928Z</time></trkpt><trkpt lat="43.6147008" lon="10.8016965"><ele>193.0</ele><time>2026-04-04T12:51:36.93Z</time></trkpt><trkpt lat="43.6147581" lon="10.8016338"><ele>192.16666666666666</ele><time>2026-04-04T12:51:37.932Z</time></trkpt><trkpt lat="43.6148128" lon="10.8015567"><ele>191.33333333333331</ele><time>2026-04-04T12:51:38.931Z</time></trkpt><trkpt lat="43.614867" lon="10.801501"><ele>190.5</ele><time>2026-04-04T12:51:39.925Z</time></trkpt><trkpt lat="43.6149444" lon="10.8014597"><ele>189.66666666666666</ele><time>2026-04-04T12:51:40.931Z</time></trkpt><trkpt lat="43.6150265" lon="10.8014276"><ele>188.83333333333331</ele><time>2026-04-04T12:51:41.928Z</time></trkpt><trkpt lat="43.6151102" lon="10.801389"><ele>188.0</ele><time>2026-04-04T12:51:42.932Z</time></trkpt><trkpt lat="43.6151927" lon="10.8013534"><ele>188.0</ele><time>2026-04-04T12:51:43.932Z</time></trkpt><trkpt lat="43.6152652" lon="10.801307"><ele>188.0</ele><time>2026-04-04T12:51:44.926Z</time></trkpt><trkpt lat="43.6153485" lon="10.8012948"><ele>188.0</ele><time>2026-04-04T12:51:45.928Z</time></trkpt><trkpt lat="43.6154307" lon="10.8012843"><ele>188.0</ele><time>2026-04-04T12:51:46.928Z</time></trkpt><trkpt lat="43.6155077" lon="10.8012512"><ele>188.0</ele><time>2026-04-04T12:51:47.931Z</time></trkpt><trkpt lat="43.6155806" lon="10.8011856"><ele>188.0</ele><time>2026-04-04T12:51:48.925Z</time></trkpt><trkpt lat="43.6156554" lon="10.8010954"><ele>186.25</ele><time>2026-04-04T12:51:49.931Z</time></trkpt><trkpt lat="43.6157298" lon="10.8009881"><ele>184.5</ele><time>2026-04-04T12:51:50.931Z</time></trkpt><trkpt lat="43.6158221" lon="10.8008784"><ele>182.75</ele><time>2026-04-04T12:51:51.928Z</time></trkpt><trkpt lat="43.6159257" lon="10.8007757"><ele>181.0</ele><time>2026-04-04T12:51:52.93Z</time></trkpt><trkpt lat="43.6160181" lon="10.8006782"><ele>181.0</ele><time>2026-04-04T12:51:53.927Z</time></trkpt><trkpt lat="43.6160973" lon="10.8005792"><ele>181.0</ele><time>2026-04-04T12:51:54.929Z</time></trkpt><trkpt lat="43.6161631" lon="10.8004722"><ele>181.0</ele><time>2026-04-04T12:51:55.926Z</time></trkpt><trkpt lat="43.6162249" lon="10.8003586"><ele>181.0</ele><time>2026-04-04T12:51:56.927Z</time></trkpt><trkpt lat="43.6162924" lon="10.8002276"><ele>181.0</ele><time>2026-04-04T12:51:57.932Z</time></trkpt><trkpt lat="43.6163639" lon="10.8000991"><ele>181.60000000000002</ele><time>2026-04-04T12:51:58.929Z</time></trkpt><trkpt lat="43.6164321" lon="10.799984"><ele>182.2</ele><time>2026-04-04T12:51:59.93Z</time></trkpt><trkpt lat="43.6165096" lon="10.7998646"><ele>182.8</ele><time>2026-04-04T12:52:00.927Z</time></trkpt><trkpt lat="43.616556" lon="10.7997718"><ele>183.39999999999998</ele><time>2026-04-04T12:52:01.929Z</time></trkpt><trkpt lat="43.6166101" lon="10.7996707"><ele>184.0</ele><time>2026-04-04T12:52:02.929Z</time></trkpt><trkpt lat="43.6166669" lon="10.7995736"><ele>184.0</ele><time>2026-04-04T12:52:03.928Z</time></trkpt><trkpt lat="43.616732" lon="10.7994641"><ele>184.0</ele><time>2026-04-04T12:52:04.93Z</time></trkpt><trkpt lat="43.6168117" lon="10.7993474"><ele>184.0</ele><time>2026-04-04T12:52:05.928Z</time></trkpt><trkpt lat="43.6168887" lon="10.7992313"><ele>184.0</ele><time>2026-04-04T12:52:06.927Z</time></trkpt><trkpt lat="43.6169603" lon="10.7991231"><ele>184.0</ele><time>2026-04-04T12:52:07.927Z</time></trkpt><trkpt lat="43.6170268" lon="10.7990242"><ele>183.66666666666669</ele><time>2026-04-04T12:52:08.931Z</time></trkpt><trkpt lat="43.6170842" lon="10.7989312"><ele>183.33333333333334</ele><time>2026-04-04T12:52:09.93Z</time></trkpt><trkpt lat="43.6171434" lon="10.79883"><ele>183.0</ele><time>2026-04-04T12:52:10.926Z</time></trkpt><trkpt lat="43.6171885" lon="10.7987642"><ele>182.66666666666666</ele><time>2026-04-04T12:52:11.932Z</time></trkpt><trkpt lat="43.6172202" lon="10.7986766"><ele>182.33333333333331</ele><time>2026-04-04T12:52:12.929Z</time></trkpt><trkpt lat="43.6172314" lon="10.7985761"><ele>182.0</ele><time>2026-04-04T12:52:13.929Z</time></trkpt><trkpt lat="43.6172333" lon="10.798418"><ele>183.71428571428572</ele><time>2026-04-04T12:52:15.932Z</time></trkpt><trkpt lat="43.617251" lon="10.7983309"><ele>185.42857142857144</ele><time>2026-04-04T12:52:16.923Z</time></trkpt><trkpt lat="43.6172525" lon="10.7982404"><ele>187.14285714285714</ele><time>2026-04-04T12:52:17.925Z</time></trkpt><trkpt lat="43.6172703" lon="10.7981475"><ele>188.85714285714286</ele><time>2026-04-04T12:52:18.931Z</time></trkpt><trkpt lat="43.6172829" lon="10.7980517"><ele>190.57142857142858</ele><time>2026-04-04T12:52:19.927Z</time></trkpt><trkpt lat="43.6173089" lon="10.7979571"><ele>192.28571428571428</ele><time>2026-04-04T12:52:20.924Z</time></trkpt><trkpt lat="43.6173335" lon="10.7978535"><ele>194.0</ele><time>2026-04-04T12:52:21.931Z</time></trkpt><trkpt lat="43.6173604" lon="10.7977466"><ele>192.83333333333334</ele><time>2026-04-04T12:52:22.924Z</time></trkpt><trkpt lat="43.6173948" lon="10.7976511"><ele>191.66666666666669</ele><time>2026-04-04T12:52:23.925Z</time></trkpt><trkpt lat="43.6174274" lon="10.7975719"><ele>190.5</ele><time>2026-04-04T12:52:24.927Z</time></trkpt><trkpt lat="43.6174703" lon="10.7974613"><ele>189.33333333333334</ele><time>2026-04-04T12:52:26.931Z</time></trkpt><trkpt lat="43.6174359" lon="10.7973225"><ele>188.16666666666669</ele><time>2026-04-04T12:52:28.928Z</time></trkpt><trkpt lat="43.617393" lon="10.7972412"><ele>187.0</ele><time>2026-04-04T12:52:29.932Z</time></trkpt><trkpt lat="43.6173518" lon="10.7971462"><ele>187.0</ele><time>2026-04-04T12:52:30.93Z</time></trkpt><trkpt lat="43.6173199" lon="10.7970506"><ele>187.0</ele><time>2026-04-04T12:52:31.926Z</time></trkpt><trkpt lat="43.6172986" lon="10.7969665"><ele>187.0</ele><time>2026-04-04T12:52:32.928Z</time></trkpt><trkpt lat="43.6172842" lon="10.7968747"><ele>187.0</ele><time>2026-04-04T12:52:33.928Z</time></trkpt><trkpt lat="43.6172699" lon="10.7967632"><ele>187.0</ele><time>2026-04-04T12:52:34.927Z</time></trkpt><trkpt lat="43.6172674" lon="10.7966175"><ele>187.0</ele><time>2026-04-04T12:52:35.932Z</time></trkpt><trkpt lat="43.6172788" lon="10.7964775"><ele>186.39999999999998</ele><time>2026-04-04T12:52:36.932Z</time></trkpt><trkpt lat="43.6173065" lon="10.7963221"><ele>185.79999999999998</ele><time>2026-04-04T12:52:37.926Z</time></trkpt><trkpt lat="43.6173196" lon="10.796171"><ele>185.2</ele><time>2026-04-04T12:52:38.93Z</time></trkpt><trkpt lat="43.6173286" lon="10.796019"><ele>184.6</ele><time>2026-04-04T12:52:39.927Z</time></trkpt><trkpt lat="43.6173262" lon="10.7958684"><ele>184.0</ele><time>2026-04-04T12:52:40.929Z</time></trkpt><trkpt lat="43.6173182" lon="10.795714"><ele>184.0</ele><time>2026-04-04T12:52:41.927Z</time></trkpt><trkpt lat="43.6173211" lon="10.7955631"><ele>184.0</ele><time>2026-04-04T12:52:42.93Z</time></trkpt><trkpt lat="43.617348" lon="10.7954282"><ele>184.0</ele><time>2026-04-04T12:52:43.924Z</time></trkpt><trkpt lat="43.6173682" lon="10.7952913"><ele>184.0</ele><time>2026-04-04T12:52:44.925Z</time></trkpt><trkpt lat="43.6173963" lon="10.7951602"><ele>184.0</ele><time>2026-04-04T12:52:45.927Z</time></trkpt><trkpt lat="43.6174445" lon="10.7950037"><ele>183.39999999999998</ele><time>2026-04-04T12:52:46.93Z</time></trkpt><trkpt lat="43.6174786" lon="10.7948677"><ele>182.8</ele><time>2026-04-04T12:52:47.931Z</time></trkpt><trkpt lat="43.6175215" lon="10.794735"><ele>182.2</ele><time>2026-04-04T12:52:48.93Z</time></trkpt><trkpt lat="43.6175922" lon="10.7946351"><ele>181.60000000000002</ele><time>2026-04-04T12:52:49.923Z</time></trkpt><trkpt lat="43.6176655" lon="10.7945254"><ele>181.0</ele><time>2026-04-04T12:52:50.932Z</time></trkpt><trkpt lat="43.6177592" lon="10.7944337"><ele>180.60000000000002</ele><time>2026-04-04T12:52:51.929Z</time></trkpt><trkpt lat="43.6178514" lon="10.7943577"><ele>180.2</ele><time>2026-04-04T12:52:52.932Z</time></trkpt><trkpt lat="43.617931" lon="10.7942813"><ele>179.8</ele><time>2026-04-04T12:52:53.927Z</time></trkpt><trkpt lat="43.6180017" lon="10.7941911"><ele>179.39999999999998</ele><time>2026-04-04T12:52:54.931Z</time></trkpt><trkpt lat="43.6181063" lon="10.7941065"><ele>179.0</ele><time>2026-04-04T12:52:55.925Z</time></trkpt><trkpt lat="43.6182017" lon="10.7939964"><ele>181.25</ele><time>2026-04-04T12:52:56.928Z</time></trkpt><trkpt lat="43.6182942" lon="10.7938746"><ele>183.5</ele><time>2026-04-04T12:52:57.925Z</time></trkpt><trkpt lat="43.6183898" lon="10.793764"><ele>185.75</ele><time>2026-04-04T12:52:58.932Z</time></trkpt><trkpt lat="43.6184857" lon="10.7936485"><ele>188.0</ele><time>2026-04-04T12:52:59.925Z</time></trkpt><trkpt lat="43.6185824" lon="10.7935504"><ele>188.5</ele><time>2026-04-04T12:53:00.932Z</time></trkpt><trkpt lat="43.6186845" lon="10.7934577"><ele>189.0</ele><time>2026-04-04T12:53:01.93Z</time></trkpt><trkpt lat="43.6187872" lon="10.7933834"><ele>189.5</ele><time>2026-04-04T12:53:02.932Z</time></trkpt><trkpt lat="43.6188964" lon="10.793299"><ele>190.0</ele><time>2026-04-04T12:53:03.932Z</time></trkpt><trkpt lat="43.618996" lon="10.7932662"><ele>190.0</ele><time>2026-04-04T12:53:04.931Z</time></trkpt><trkpt lat="43.6190977" lon="10.7932127"><ele>190.0</ele><time>2026-04-04T12:53:05.928Z</time></trkpt><trkpt lat="43.619192" lon="10.79318"><ele>190.0</ele><time>2026-04-04T12:53:06.931Z</time></trkpt><trkpt lat="43.6192731" lon="10.793155"><ele>190.0</ele><time>2026-04-04T12:53:07.926Z</time></trkpt><trkpt lat="43.6193442" lon="10.7931292"><ele>190.0</ele><time>2026-04-04T12:53:08.929Z</time></trkpt><trkpt lat="43.6194519" lon="10.7931245"><ele>188.83333333333334</ele><time>2026-04-04T12:53:10.929Z</time></trkpt><trkpt lat="43.6195165" lon="10.7931329"><ele>187.66666666666669</ele><time>2026-04-04T12:53:12.928Z</time></trkpt><trkpt lat="43.6195761" lon="10.7930765"><ele>186.5</ele><time>2026-04-04T12:53:14.931Z</time></trkpt><trkpt lat="43.6196456" lon="10.7929895"><ele>185.33333333333334</ele><time>2026-04-04T12:53:16.932Z</time></trkpt><trkpt lat="43.6196916" lon="10.7929076"><ele>184.16666666666666</ele><time>2026-04-04T12:53:17.932Z</time></trkpt><trkpt lat="43.6197361" lon="10.7928087"><ele>183.0</ele><time>2026-04-04T12:53:18.929Z</time></trkpt><trkpt lat="43.6197739" lon="10.7927056"><ele>182.5</ele><time>2026-04-04T12:53:19.93Z</time></trkpt><trkpt lat="43.6198182" lon="10.7926079"><ele>182.0</ele><time>2026-04-04T12:53:20.925Z</time></trkpt><trkpt lat="43.6198554" lon="10.7925042"><ele>181.5</ele><time>2026-04-04T12:53:21.929Z</time></trkpt><trkpt lat="43.6198915" lon="10.7923962"><ele>181.0</ele><time>2026-04-04T12:53:22.929Z</time></trkpt><trkpt lat="43.6199341" lon="10.792293"><ele>180.5</ele><time>2026-04-04T12:53:23.926Z</time></trkpt><trkpt lat="43.6199746" lon="10.7921921"><ele>180.0</ele><time>2026-04-04T12:53:24.926Z</time></trkpt><trkpt lat="43.6200232" lon="10.7921077"><ele>180.0</ele><time>2026-04-04T12:53:25.932Z</time></trkpt><trkpt lat="43.6200809" lon="10.7920333"><ele>180.0</ele><time>2026-04-04T12:53:26.926Z</time></trkpt><trkpt lat="43.6201525" lon="10.7919859"><ele>180.0</ele><time>2026-04-04T12:53:27.928Z</time></trkpt><trkpt lat="43.6202327" lon="10.7919637"><ele>180.0</ele><time>2026-04-04T12:53:28.928Z</time></trkpt><trkpt lat="43.6203093" lon="10.7919417"><ele>180.0</ele><time>2026-04-04T12:53:29.932Z</time></trkpt><trkpt lat="43.620389" lon="10.7919179"><ele>180.0</ele><time>2026-04-04T12:53:30.929Z</time></trkpt><trkpt lat="43.6204678" lon="10.791872"><ele>177.83333333333334</ele><time>2026-04-04T12:53:31.927Z</time></trkpt><trkpt lat="43.6205918" lon="10.7918156"><ele>175.66666666666666</ele><time>2026-04-04T12:53:33.93Z</time></trkpt><trkpt lat="43.6206533" lon="10.7917796"><ele>173.5</ele><time>2026-04-04T12:53:34.932Z</time></trkpt><trkpt lat="43.6207147" lon="10.7917401"><ele>171.33333333333331</ele><time>2026-04-04T12:53:35.929Z</time></trkpt><trkpt lat="43.6207727" lon="10.791696"><ele>169.16666666666666</ele><time>2026-04-04T12:53:36.927Z</time></trkpt><trkpt lat="43.620856" lon="10.7916003"><ele>167.0</ele><time>2026-04-04T12:53:38.93Z</time></trkpt><trkpt lat="43.6209225" lon="10.7914854"><ele>167.0</ele><time>2026-04-04T12:53:40.93Z</time></trkpt><trkpt lat="43.6210206" lon="10.791381"><ele>167.0</ele><time>2026-04-04T12:53:42.926Z</time></trkpt><trkpt lat="43.6211051" lon="10.7912749"><ele>167.0</ele><time>2026-04-04T12:53:44.93Z</time></trkpt><trkpt lat="43.6211639" lon="10.7911994"><ele>167.0</ele><time>2026-04-04T12:53:46.929Z</time></trkpt><trkpt lat="43.6212145" lon="10.7911376"><ele>167.0</ele><time>2026-04-04T12:54:41.932Z</time></trkpt><trkpt lat="43.6212965" lon="10.7910322"><ele>166.0</ele><time>2026-04-04T12:54:43.931Z</time></trkpt><trkpt lat="43.6213518" lon="10.7909573"><ele>165.0</ele><time>2026-04-04T12:54:44.932Z</time></trkpt><trkpt lat="43.6214168" lon="10.7908692"><ele>164.0</ele><time>2026-04-04T12:54:45.93Z</time></trkpt><trkpt lat="43.6214928" lon="10.790772"><ele>163.0</ele><time>2026-04-04T12:54:46.927Z</time></trkpt><trkpt lat="43.6215691" lon="10.7906762"><ele>162.0</ele><time>2026-04-04T12:54:47.931Z</time></trkpt><trkpt lat="43.6216407" lon="10.7905845"><ele>162.0</ele><time>2026-04-04T12:54:48.932Z</time></trkpt><trkpt lat="43.6217182" lon="10.7904876"><ele>162.0</ele><time>2026-04-04T12:54:49.932Z</time></trkpt><trkpt lat="43.6217958" lon="10.7903903"><ele>162.0</ele><time>2026-04-04T12:54:50.927Z</time></trkpt><trkpt lat="43.621866" lon="10.7902982"><ele>162.0</ele><time>2026-04-04T12:54:51.927Z</time></trkpt><trkpt lat="43.621935" lon="10.7902128"><ele>162.0</ele><time>2026-04-04T12:54:52.924Z</time></trkpt><trkpt lat="43.6219967" lon="10.7901239"><ele>162.39999999999998</ele><time>2026-04-04T12:54:53.928Z</time></trkpt><trkpt lat="43.6220479" lon="10.7900301"><ele>162.79999999999998</ele><time>2026-04-04T12:54:54.927Z</time></trkpt><trkpt lat="43.6220887" lon="10.7899249"><ele>163.2</ele><time>2026-04-04T12:54:55.931Z</time></trkpt><trkpt lat="43.6221217" lon="10.7898049"><ele>163.6</ele><time>2026-04-04T12:54:56.93Z</time></trkpt><trkpt lat="43.6221472" lon="10.7896645"><ele>164.0</ele><time>2026-04-04T12:54:57.927Z</time></trkpt><trkpt lat="43.6221692" lon="10.7895151"><ele>164.0</ele><time>2026-04-04T12:54:58.927Z</time></trkpt><trkpt lat="43.6221887" lon="10.7893641"><ele>164.0</ele><time>2026-04-04T12:54:59.929Z</time></trkpt><trkpt lat="43.622198" lon="10.7892092"><ele>164.0</ele><time>2026-04-04T12:55:00.932Z</time></trkpt><trkpt lat="43.6221961" lon="10.7890586"><ele>164.0</ele><time>2026-04-04T12:55:01.927Z</time></trkpt><trkpt lat="43.6221921" lon="10.7889157"><ele>164.0</ele><time>2026-04-04T12:55:02.927Z</time></trkpt><trkpt lat="43.6221901" lon="10.7887763"><ele>166.6</ele><time>2026-04-04T12:55:03.927Z</time></trkpt><trkpt lat="43.6221965" lon="10.7886405"><ele>169.2</ele><time>2026-04-04T12:55:04.928Z</time></trkpt><trkpt lat="43.6222222" lon="10.7884991"><ele>171.79999999999998</ele><time>2026-04-04T12:55:05.927Z</time></trkpt><trkpt lat="43.6222605" lon="10.7883622"><ele>174.39999999999998</ele><time>2026-04-04T12:55:06.929Z</time></trkpt><trkpt lat="43.6223045" lon="10.7882549"><ele>177.0</ele><time>2026-04-04T12:55:07.932Z</time></trkpt><trkpt lat="43.6223495" lon="10.7881733"><ele>177.6</ele><time>2026-04-04T12:55:08.927Z</time></trkpt><trkpt lat="43.6224122" lon="10.7880614"><ele>178.2</ele><time>2026-04-04T12:55:10.926Z</time></trkpt><trkpt lat="43.6224354" lon="10.7879445"><ele>178.8</ele><time>2026-04-04T12:55:12.926Z</time></trkpt><trkpt lat="43.622453" lon="10.7877753"><ele>179.4</ele><time>2026-04-04T12:55:14.932Z</time></trkpt><trkpt lat="43.622478" lon="10.7876656"><ele>180.0</ele><time>2026-04-04T12:55:15.928Z</time></trkpt><trkpt lat="43.6225049" lon="10.7875606"><ele>181.0</ele><time>2026-04-04T12:55:16.931Z</time></trkpt><trkpt lat="43.6225272" lon="10.7874589"><ele>182.0</ele><time>2026-04-04T12:55:17.931Z</time></trkpt><trkpt lat="43.6225387" lon="10.7873526"><ele>183.0</ele><time>2026-04-04T12:55:18.931Z</time></trkpt><trkpt lat="43.6225376" lon="10.7872494"><ele>184.0</ele><time>2026-04-04T12:55:19.929Z</time></trkpt><trkpt lat="43.6225303" lon="10.7871468"><ele>185.0</ele><time>2026-04-04T12:55:20.931Z</time></trkpt><trkpt lat="43.6225234" lon="10.7870389"><ele>186.0</ele><time>2026-04-04T12:55:21.93Z</time></trkpt><trkpt lat="43.6225208" lon="10.7869291"><ele>185.33333333333334</ele><time>2026-04-04T12:55:22.931Z</time></trkpt><trkpt lat="43.6225216" lon="10.78683"><ele>184.66666666666666</ele><time>2026-04-04T12:55:23.932Z</time></trkpt><trkpt lat="43.6225207" lon="10.7867343"><ele>184.0</ele><time>2026-04-04T12:55:24.932Z</time></trkpt><trkpt lat="43.6225246" lon="10.7866453"><ele>183.33333333333331</ele><time>2026-04-04T12:55:25.931Z</time></trkpt><trkpt lat="43.6225444" lon="10.7864899"><ele>182.66666666666666</ele><time>2026-04-04T12:55:27.931Z</time></trkpt><trkpt lat="43.6225795" lon="10.7863547"><ele>182.0</ele><time>2026-04-04T12:55:29.93Z</time></trkpt><trkpt lat="43.6226115" lon="10.7862756"><ele>182.0</ele><time>2026-04-04T12:55:30.928Z</time></trkpt><trkpt lat="43.6226503" lon="10.7861901"><ele>182.0</ele><time>2026-04-04T12:55:31.932Z</time></trkpt><trkpt lat="43.6227001" lon="10.7861023"><ele>182.0</ele><time>2026-04-04T12:55:32.929Z</time></trkpt><trkpt lat="43.6227575" lon="10.7860206"><ele>182.0</ele><time>2026-04-04T12:55:33.932Z</time></trkpt><trkpt lat="43.6228157" lon="10.7859313"><ele>182.0</ele><time>2026-04-04T12:55:34.928Z</time></trkpt><trkpt lat="43.6228801" lon="10.7858433"><ele>182.0</ele><time>2026-04-04T12:55:35.928Z</time></trkpt><trkpt lat="43.6229365" lon="10.7857558"><ele>181.42857142857142</ele><time>2026-04-04T12:55:36.927Z</time></trkpt><trkpt lat="43.6229854" lon="10.7856792"><ele>180.85714285714286</ele><time>2026-04-04T12:55:37.931Z</time></trkpt><trkpt lat="43.6230422" lon="10.7855938"><ele>180.28571428571428</ele><time>2026-04-04T12:55:38.93Z</time></trkpt><trkpt lat="43.6230936" lon="10.7855026"><ele>179.71428571428572</ele><time>2026-04-04T12:55:39.932Z</time></trkpt><trkpt lat="43.6231352" lon="10.7854306"><ele>179.14285714285714</ele><time>2026-04-04T12:55:40.932Z</time></trkpt><trkpt lat="43.6231823" lon="10.785358"><ele>178.57142857142856</ele><time>2026-04-04T12:55:41.928Z</time></trkpt><trkpt lat="43.6232301" lon="10.7852933"><ele>178.0</ele><time>2026-04-04T12:55:42.93Z</time></trkpt><trkpt lat="43.6232757" lon="10.7852333"><ele>176.60000000000002</ele><time>2026-04-04T12:55:43.925Z</time></trkpt><trkpt lat="43.6233627" lon="10.7851346"><ele>175.20000000000002</ele><time>2026-04-04T12:55:45.932Z</time></trkpt><trkpt lat="43.6234972" lon="10.7851216"><ele>173.8</ele><time>2026-04-04T12:55:47.932Z</time></trkpt><trkpt lat="43.6235725" lon="10.7851481"><ele>172.4</ele><time>2026-04-04T12:55:48.928Z</time></trkpt><trkpt lat="43.6236598" lon="10.7851735"><ele>171.0</ele><time>2026-04-04T12:55:49.926Z</time></trkpt><trkpt lat="43.623746" lon="10.785202"><ele>168.66666666666666</ele><time>2026-04-04T12:55:50.926Z</time></trkpt><trkpt lat="43.6238152" lon="10.7852365"><ele>166.33333333333334</ele><time>2026-04-04T12:55:51.925Z</time></trkpt><trkpt lat="43.6238816" lon="10.7852812"><ele>164.0</ele><time>2026-04-04T12:55:52.928Z</time></trkpt><trkpt lat="43.6239514" lon="10.7853362"><ele>161.66666666666669</ele><time>2026-04-04T12:55:53.927Z</time></trkpt><trkpt lat="43.6240282" lon="10.7853899"><ele>159.33333333333334</ele><time>2026-04-04T12:55:54.931Z</time></trkpt><trkpt lat="43.6241153" lon="10.7854281"><ele>157.0</ele><time>2026-04-04T12:55:55.93Z</time></trkpt><trkpt lat="43.624205" lon="10.7854528"><ele>157.0</ele><time>2026-04-04T12:55:56.93Z</time></trkpt><trkpt lat="43.6242967" lon="10.7854536"><ele>157.0</ele><time>2026-04-04T12:55:57.928Z</time></trkpt><trkpt lat="43.6243957" lon="10.7854466"><ele>157.0</ele><time>2026-04-04T12:55:58.928Z</time></trkpt><trkpt lat="43.6245067" lon="10.7854403"><ele>157.0</ele><time>2026-04-04T12:55:59.93Z</time></trkpt><trkpt lat="43.6246122" lon="10.7854395"><ele>157.0</ele><time>2026-04-04T12:56:00.93Z</time></trkpt><trkpt lat="43.6247177" lon="10.7854404"><ele>156.2</ele><time>2026-04-04T12:56:01.927Z</time></trkpt><trkpt lat="43.6248291" lon="10.7854456"><ele>155.39999999999998</ele><time>2026-04-04T12:56:02.932Z</time></trkpt><trkpt lat="43.6249311" lon="10.7854492"><ele>154.60000000000002</ele><time>2026-04-04T12:56:03.926Z</time></trkpt><trkpt lat="43.6250373" lon="10.7854569"><ele>153.8</ele><time>2026-04-04T12:56:04.93Z</time></trkpt><trkpt lat="43.6251442" lon="10.785468"><ele>153.0</ele><time>2026-04-04T12:56:05.93Z</time></trkpt><trkpt lat="43.6252499" lon="10.7854723"><ele>153.20000000000002</ele><time>2026-04-04T12:56:06.929Z</time></trkpt><trkpt lat="43.6253572" lon="10.7854878"><ele>153.4</ele><time>2026-04-04T12:56:07.929Z</time></trkpt><trkpt lat="43.6254412" lon="10.7854988"><ele>153.60000000000002</ele><time>2026-04-04T12:56:08.932Z</time></trkpt><trkpt lat="43.6255341" lon="10.7855098"><ele>153.8</ele><time>2026-04-04T12:56:09.926Z</time></trkpt><trkpt lat="43.6256238" lon="10.78551"><ele>154.0</ele><time>2026-04-04T12:56:10.931Z</time></trkpt><trkpt lat="43.6256975" lon="10.7855276"><ele>154.0</ele><time>2026-04-04T12:56:11.932Z</time></trkpt><trkpt lat="43.6257631" lon="10.7855589"><ele>154.0</ele><time>2026-04-04T12:56:12.929Z</time></trkpt><trkpt lat="43.625818" lon="10.7856042"><ele>154.0</ele><time>2026-04-04T12:56:13.927Z</time></trkpt><trkpt lat="43.6258774" lon="10.7856626"><ele>154.0</ele><time>2026-04-04T12:56:14.929Z</time></trkpt><trkpt lat="43.6259572" lon="10.7857247"><ele>154.0</ele><time>2026-04-04T12:56:15.927Z</time></trkpt><trkpt lat="43.6260546" lon="10.785782"><ele>154.0</ele><time>2026-04-04T12:56:16.929Z</time></trkpt><trkpt lat="43.6261678" lon="10.7858485"><ele>153.25</ele><time>2026-04-04T12:56:17.932Z</time></trkpt><trkpt lat="43.6262767" lon="10.785918"><ele>152.5</ele><time>2026-04-04T12:56:18.927Z</time></trkpt><trkpt lat="43.6263974" lon="10.7859905"><ele>151.75</ele><time>2026-04-04T12:56:19.93Z</time></trkpt><trkpt lat="43.6265265" lon="10.7860591"><ele>151.0</ele><time>2026-04-04T12:56:20.928Z</time></trkpt><trkpt lat="43.6266518" lon="10.7861341"><ele>149.75</ele><time>2026-04-04T12:56:21.93Z</time></trkpt><trkpt lat="43.6267724" lon="10.7862009"><ele>148.5</ele><time>2026-04-04T12:56:22.928Z</time></trkpt><trkpt lat="43.6268868" lon="10.7862663"><ele>147.25</ele><time>2026-04-04T12:56:23.926Z</time></trkpt><trkpt lat="43.6269915" lon="10.7863273"><ele>146.0</ele><time>2026-04-04T12:56:24.929Z</time></trkpt><trkpt lat="43.6271042" lon="10.7863977"><ele>148.4</ele><time>2026-04-04T12:56:25.923Z</time></trkpt><trkpt lat="43.6272039" lon="10.7864583"><ele>150.8</ele><time>2026-04-04T12:56:26.923Z</time></trkpt><trkpt lat="43.6272874" lon="10.7865123"><ele>153.20000000000002</ele><time>2026-04-04T12:56:27.926Z</time></trkpt><trkpt lat="43.6273721" lon="10.7865572"><ele>155.6</ele><time>2026-04-04T12:56:28.929Z</time></trkpt><trkpt lat="43.6274562" lon="10.786597"><ele>158.0</ele><time>2026-04-04T12:56:29.927Z</time></trkpt><trkpt lat="43.6275507" lon="10.7866206"><ele>158.0</ele><time>2026-04-04T12:56:30.928Z</time></trkpt><trkpt lat="43.627649" lon="10.7866491"><ele>158.0</ele><time>2026-04-04T12:56:31.928Z</time></trkpt><trkpt lat="43.6277533" lon="10.7866812"><ele>158.0</ele><time>2026-04-04T12:56:32.925Z</time></trkpt><trkpt lat="43.6278527" lon="10.7867159"><ele>158.0</ele><time>2026-04-04T12:56:33.925Z</time></trkpt><trkpt lat="43.6279624" lon="10.786758"><ele>158.0</ele><time>2026-04-04T12:56:34.925Z</time></trkpt><trkpt lat="43.6280757" lon="10.7868056"><ele>159.4</ele><time>2026-04-04T12:56:35.928Z</time></trkpt><trkpt lat="43.6281809" lon="10.7868511"><ele>160.8</ele><time>2026-04-04T12:56:36.929Z</time></trkpt><trkpt lat="43.6282871" lon="10.7868735"><ele>162.2</ele><time>2026-04-04T12:56:37.926Z</time></trkpt><trkpt lat="43.6283952" lon="10.7868864"><ele>163.6</ele><time>2026-04-04T12:56:38.931Z</time></trkpt><trkpt lat="43.6284851" lon="10.7869061"><ele>165.0</ele><time>2026-04-04T12:56:39.923Z</time></trkpt><trkpt lat="43.6285586" lon="10.786923"><ele>165.0</ele><time>2026-04-04T12:56:40.93Z</time></trkpt><trkpt lat="43.6286244" lon="10.786926"><ele>165.0</ele><time>2026-04-04T12:56:41.927Z</time></trkpt><trkpt lat="43.6287463" lon="10.7868705"><ele>165.0</ele><time>2026-04-04T12:56:43.929Z</time></trkpt><trkpt lat="43.6288191" lon="10.7868292"><ele>165.0</ele><time>2026-04-04T12:56:44.926Z</time></trkpt><trkpt lat="43.6288916" lon="10.7867864"><ele>165.0</ele><time>2026-04-04T12:56:45.926Z</time></trkpt><trkpt lat="43.6289703" lon="10.7867585"><ele>165.0</ele><time>2026-04-04T12:56:46.926Z</time></trkpt><trkpt lat="43.6290519" lon="10.7867336"><ele>164.83333333333334</ele><time>2026-04-04T12:56:47.927Z</time></trkpt><trkpt lat="43.6291395" lon="10.7867089"><ele>164.66666666666666</ele><time>2026-04-04T12:56:48.924Z</time></trkpt><trkpt lat="43.6292243" lon="10.7866738"><ele>164.5</ele><time>2026-04-04T12:56:49.931Z</time></trkpt><trkpt lat="43.6292975" lon="10.7866364"><ele>164.33333333333331</ele><time>2026-04-04T12:56:50.928Z</time></trkpt><trkpt lat="43.6293623" lon="10.7865955"><ele>164.16666666666666</ele><time>2026-04-04T12:56:51.926Z</time></trkpt><trkpt lat="43.6294193" lon="10.7865536"><ele>164.0</ele><time>2026-04-04T12:56:52.928Z</time></trkpt><trkpt lat="43.6294752" lon="10.7865099"><ele>163.66666666666666</ele><time>2026-04-04T12:56:53.926Z</time></trkpt><trkpt lat="43.6295346" lon="10.7864724"><ele>163.33333333333331</ele><time>2026-04-04T12:56:55.929Z</time></trkpt><trkpt lat="43.629593" lon="10.7864157"><ele>163.0</ele><time>2026-04-04T12:57:21.927Z</time></trkpt><trkpt lat="43.6296636" lon="10.7863869"><ele>162.66666666666666</ele><time>2026-04-04T12:57:23.93Z</time></trkpt><trkpt lat="43.6297528" lon="10.786358"><ele>162.33333333333334</ele><time>2026-04-04T12:57:25.922Z</time></trkpt><trkpt lat="43.6298663" lon="10.786312"><ele>162.0</ele><time>2026-04-04T12:57:27.93Z</time></trkpt><trkpt lat="43.6299902" lon="10.7862972"><ele>162.0</ele><time>2026-04-04T12:57:29.929Z</time></trkpt><trkpt lat="43.6300695" lon="10.7862769"><ele>162.0</ele><time>2026-04-04T12:57:30.925Z</time></trkpt><trkpt lat="43.6301878" lon="10.7862665"><ele>162.0</ele><time>2026-04-04T12:57:32.928Z</time></trkpt><trkpt lat="43.6303041" lon="10.7862515"><ele>162.0</ele><time>2026-04-04T12:57:34.928Z</time></trkpt><trkpt lat="43.6303747" lon="10.7862203"><ele>162.0</ele><time>2026-04-04T12:57:35.927Z</time></trkpt><trkpt lat="43.6304847" lon="10.7861666"><ele>161.16666666666666</ele><time>2026-04-04T12:57:37.928Z</time></trkpt><trkpt lat="43.6305549" lon="10.7861409"><ele>160.33333333333334</ele><time>2026-04-04T12:57:38.924Z</time></trkpt><trkpt lat="43.6306273" lon="10.7861113"><ele>159.5</ele><time>2026-04-04T12:57:39.927Z</time></trkpt><trkpt lat="43.63069" lon="10.7860783"><ele>158.66666666666669</ele><time>2026-04-04T12:57:40.928Z</time></trkpt><trkpt lat="43.6307472" lon="10.786035"><ele>157.83333333333334</ele><time>2026-04-04T12:57:41.93Z</time></trkpt><trkpt lat="43.6308917" lon="10.785971"><ele>157.0</ele><time>2026-04-04T12:57:43.93Z</time></trkpt><trkpt lat="43.630964" lon="10.7859215"><ele>156.99999999999997</ele><time>2026-04-04T12:57:44.929Z</time></trkpt><trkpt lat="43.6310237" lon="10.7858874"><ele>157.0</ele><time>2026-04-04T12:57:45.924Z</time></trkpt><trkpt lat="43.6310891" lon="10.7858471"><ele>157.0</ele><time>2026-04-04T12:57:46.932Z</time></trkpt><trkpt lat="43.6311556" lon="10.7858003"><ele>157.0</ele><time>2026-04-04T12:57:47.925Z</time></trkpt><trkpt lat="43.6312209" lon="10.7857464"><ele>157.0</ele><time>2026-04-04T12:57:48.925Z</time></trkpt><trkpt lat="43.6312883" lon="10.7856982"><ele>156.99999999999997</ele><time>2026-04-04T12:57:49.93Z</time></trkpt><trkpt lat="43.6313514" lon="10.7856597"><ele>157.0</ele><time>2026-04-04T12:57:50.931Z</time></trkpt><trkpt lat="43.6314397" lon="10.7855954"><ele>154.0</ele><time>2026-04-04T12:57:52.926Z</time></trkpt><trkpt lat="43.6315061" lon="10.78549"><ele>151.0</ele><time>2026-04-04T12:57:54.928Z</time></trkpt><trkpt lat="43.6315207" lon="10.7853223"><ele>148.0</ele><time>2026-04-04T12:57:56.929Z</time></trkpt><trkpt lat="43.6314777" lon="10.7851583"><ele>145.0</ele><time>2026-04-04T12:57:58.928Z</time></trkpt><trkpt lat="43.6314327" lon="10.7850673"><ele>142.0</ele><time>2026-04-04T12:57:59.93Z</time></trkpt><trkpt lat="43.6313845" lon="10.784982"><ele>142.0</ele><time>2026-04-04T12:58:00.929Z</time></trkpt><trkpt lat="43.6313344" lon="10.7849129"><ele>142.0</ele><time>2026-04-04T12:58:01.927Z</time></trkpt><trkpt lat="43.6312956" lon="10.7848366"><ele>142.0</ele><time>2026-04-04T12:58:02.928Z</time></trkpt><trkpt lat="43.6312588" lon="10.7847492"><ele>142.0</ele><time>2026-04-04T12:58:03.927Z</time></trkpt><trkpt lat="43.6312435" lon="10.7846227"><ele>142.0</ele><time>2026-04-04T12:58:04.932Z</time></trkpt><trkpt lat="43.6312315" lon="10.7844908"><ele>142.0</ele><time>2026-04-04T12:58:05.928Z</time></trkpt><trkpt lat="43.6312245" lon="10.7843707"><ele>140.83333333333334</ele><time>2026-04-04T12:58:06.926Z</time></trkpt><trkpt lat="43.6312158" lon="10.7842524"><ele>139.66666666666669</ele><time>2026-04-04T12:58:07.927Z</time></trkpt><trkpt lat="43.6312001" lon="10.7841411"><ele>138.5</ele><time>2026-04-04T12:58:08.928Z</time></trkpt><trkpt lat="43.6311783" lon="10.7840438"><ele>137.33333333333334</ele><time>2026-04-04T12:58:09.927Z</time></trkpt><trkpt lat="43.6311461" lon="10.7839469"><ele>136.16666666666666</ele><time>2026-04-04T12:58:10.925Z</time></trkpt><trkpt lat="43.6311189" lon="10.7838564"><ele>135.0</ele><time>2026-04-04T12:58:11.927Z</time></trkpt><trkpt lat="43.6310868" lon="10.7837703"><ele>135.6</ele><time>2026-04-04T12:58:12.928Z</time></trkpt><trkpt lat="43.6310358" lon="10.78363"><ele>136.2</ele><time>2026-04-04T12:58:14.926Z</time></trkpt><trkpt lat="43.6310579" lon="10.7835091"><ele>136.8</ele><time>2026-04-04T12:58:16.927Z</time></trkpt><trkpt lat="43.6311411" lon="10.7833892"><ele>137.4</ele><time>2026-04-04T12:58:18.931Z</time></trkpt><trkpt lat="43.6312037" lon="10.7833129"><ele>138.0</ele><time>2026-04-04T12:58:19.929Z</time></trkpt><trkpt lat="43.6312655" lon="10.7832291"><ele>136.85714285714286</ele><time>2026-04-04T12:58:20.925Z</time></trkpt><trkpt lat="43.6313186" lon="10.783158"><ele>135.71428571428572</ele><time>2026-04-04T12:58:21.928Z</time></trkpt><trkpt lat="43.6313716" lon="10.7830855"><ele>134.57142857142858</ele><time>2026-04-04T12:58:22.93Z</time></trkpt><trkpt lat="43.6314146" lon="10.7830088"><ele>133.42857142857144</ele><time>2026-04-04T12:58:23.931Z</time></trkpt><trkpt lat="43.631451" lon="10.7829309"><ele>132.28571428571428</ele><time>2026-04-04T12:58:24.924Z</time></trkpt><trkpt lat="43.6314741" lon="10.7828426"><ele>131.14285714285717</ele><time>2026-04-04T12:58:25.928Z</time></trkpt><trkpt lat="43.6315037" lon="10.7827517"><ele>130.0</ele><time>2026-04-04T12:58:26.928Z</time></trkpt><trkpt lat="43.6315459" lon="10.782657"><ele>129.83333333333334</ele><time>2026-04-04T12:58:27.925Z</time></trkpt><trkpt lat="43.6316036" lon="10.7825679"><ele>129.66666666666669</ele><time>2026-04-04T12:58:28.926Z</time></trkpt><trkpt lat="43.6316625" lon="10.7824731"><ele>129.5</ele><time>2026-04-04T12:58:29.926Z</time></trkpt><trkpt lat="43.6317191" lon="10.7823747"><ele>129.33333333333334</ele><time>2026-04-04T12:58:30.926Z</time></trkpt><trkpt lat="43.6317678" lon="10.7822775"><ele>129.16666666666666</ele><time>2026-04-04T12:58:31.927Z</time></trkpt><trkpt lat="43.6318161" lon="10.7821799"><ele>129.0</ele><time>2026-04-04T12:58:32.931Z</time></trkpt><trkpt lat="43.6318608" lon="10.7820729"><ele>129.0</ele><time>2026-04-04T12:58:33.924Z</time></trkpt><trkpt lat="43.6318958" lon="10.7819643"><ele>129.0</ele><time>2026-04-04T12:58:34.929Z</time></trkpt><trkpt lat="43.6319404" lon="10.7818518"><ele>129.0</ele><time>2026-04-04T12:58:35.928Z</time></trkpt><trkpt lat="43.6319908" lon="10.7817405"><ele>129.0</ele><time>2026-04-04T12:58:36.931Z</time></trkpt><trkpt lat="43.632043" lon="10.78163"><ele>129.0</ele><time>2026-04-04T12:58:37.928Z</time></trkpt><trkpt lat="43.6320877" lon="10.7815198"><ele>127.83333333333333</ele><time>2026-04-04T12:58:38.928Z</time></trkpt><trkpt lat="43.6321349" lon="10.7814143"><ele>126.66666666666666</ele><time>2026-04-04T12:58:39.928Z</time></trkpt><trkpt lat="43.6321828" lon="10.7813183"><ele>125.5</ele><time>2026-04-04T12:58:40.929Z</time></trkpt><trkpt lat="43.6322317" lon="10.7812279"><ele>124.33333333333333</ele><time>2026-04-04T12:58:41.924Z</time></trkpt><trkpt lat="43.6322846" lon="10.7811304"><ele>123.16666666666666</ele><time>2026-04-04T12:58:42.929Z</time></trkpt><trkpt lat="43.6323315" lon="10.7810352"><ele>122.0</ele><time>2026-04-04T12:58:43.925Z</time></trkpt><trkpt lat="43.6323785" lon="10.7809399"><ele>121.99999999999999</ele><time>2026-04-04T12:58:44.926Z</time></trkpt><trkpt lat="43.6324243" lon="10.7808594"><ele>122.0</ele><time>2026-04-04T12:58:45.93Z</time></trkpt><trkpt lat="43.6324661" lon="10.7807798"><ele>122.0</ele><time>2026-04-04T12:58:46.929Z</time></trkpt><trkpt lat="43.6325421" lon="10.7806811"><ele>122.0</ele><time>2026-04-04T12:58:48.925Z</time></trkpt><trkpt lat="43.6326169" lon="10.7806684"><ele>121.99999999999999</ele><time>2026-04-04T12:58:53.927Z</time></trkpt><trkpt lat="43.6326709" lon="10.7807168"><ele>122.0</ele><time>2026-04-04T12:58:55.927Z</time></trkpt><trkpt lat="43.6327299" lon="10.7806828"><ele>121.99999999999999</ele><time>2026-04-04T12:59:01.931Z</time></trkpt><trkpt lat="43.6326573" lon="10.7805982"><ele>122.0</ele><time>2026-04-04T12:59:44.923Z</time></trkpt><trkpt lat="43.6325622" lon="10.780574"><ele>122.0</ele><time>2026-04-04T12:59:46.929Z</time></trkpt><trkpt lat="43.6324873" lon="10.7805904"><ele>122.0</ele><time>2026-04-04T12:59:48.927Z</time></trkpt><trkpt lat="43.632403" lon="10.7806618"><ele>121.99999999999999</ele><time>2026-04-04T12:59:50.92Z</time></trkpt><trkpt lat="43.6323447" lon="10.7807176"><ele>122.0</ele><time>2026-04-04T12:59:51.932Z</time></trkpt><trkpt lat="43.6322813" lon="10.7807795"><ele>121.99999999999999</ele><time>2026-04-04T12:59:52.927Z</time></trkpt><trkpt lat="43.632217" lon="10.7808456"><ele>122.0</ele><time>2026-04-04T12:59:53.928Z</time></trkpt><trkpt lat="43.6321503" lon="10.7809167"><ele>122.0</ele><time>2026-04-04T12:59:54.932Z</time></trkpt><trkpt lat="43.6320831" lon="10.7809693"><ele>122.0</ele><time>2026-04-04T12:59:55.928Z</time></trkpt><trkpt lat="43.6320129" lon="10.7810136"><ele>121.99999999999999</ele><time>2026-04-04T12:59:56.924Z</time></trkpt><trkpt lat="43.6319446" lon="10.781047"><ele>122.0</ele><time>2026-04-04T12:59:57.928Z</time></trkpt><trkpt lat="43.6318861" lon="10.7810802"><ele>122.49999999999999</ele><time>2026-04-04T12:59:58.928Z</time></trkpt><trkpt lat="43.6317994" lon="10.781144"><ele>123.0</ele><time>2026-04-04T13:00:00.925Z</time></trkpt><trkpt lat="43.6317445" lon="10.7811883"><ele>123.5</ele><time>2026-04-04T13:00:02.926Z</time></trkpt><trkpt lat="43.6316804" lon="10.7811509"><ele>124.0</ele><time>2026-04-04T13:00:05.928Z</time></trkpt><trkpt lat="43.6317347" lon="10.7810824"><ele>124.49999999999999</ele><time>2026-04-04T13:00:06.927Z</time></trkpt><trkpt lat="43.6318106" lon="10.7809494"><ele>125.0</ele><time>2026-04-04T13:00:08.921Z</time></trkpt><trkpt lat="43.6318671" lon="10.7808711"><ele>124.4</ele><time>2026-04-04T13:00:10.924Z</time></trkpt><trkpt lat="43.6319162" lon="10.7807749"><ele>123.8</ele><time>2026-04-04T13:00:26.925Z</time></trkpt><trkpt lat="43.6319864" lon="10.7806275"><ele>123.19999999999999</ele><time>2026-04-04T13:00:28.93Z</time></trkpt><trkpt lat="43.6320133" lon="10.7805378"><ele>122.6</ele><time>2026-04-04T13:00:29.928Z</time></trkpt><trkpt lat="43.632038" lon="10.7804477"><ele>122.0</ele><time>2026-04-04T13:00:30.925Z</time></trkpt><trkpt lat="43.6320692" lon="10.7802819"><ele>121.99999999999999</ele><time>2026-04-04T13:00:32.928Z</time></trkpt><trkpt lat="43.6320841" lon="10.7801845"><ele>122.0</ele><time>2026-04-04T13:00:33.928Z</time></trkpt><trkpt lat="43.632097" lon="10.7800751"><ele>122.0</ele><time>2026-04-04T13:00:34.927Z</time></trkpt><trkpt lat="43.6321094" lon="10.7799826"><ele>122.0</ele><time>2026-04-04T13:00:35.925Z</time></trkpt><trkpt lat="43.6321269" lon="10.7798866"><ele>121.99999999999999</ele><time>2026-04-04T13:00:36.926Z</time></trkpt><trkpt lat="43.6321431" lon="10.7797093"><ele>122.0</ele><time>2026-04-04T13:00:38.927Z</time></trkpt><trkpt lat="43.6321486" lon="10.7795938"><ele>120.99999999999999</ele><time>2026-04-04T13:00:39.926Z</time></trkpt><trkpt lat="43.6321754" lon="10.7794736"><ele>120.0</ele><time>2026-04-04T13:00:40.927Z</time></trkpt><trkpt lat="43.6321929" lon="10.7793696"><ele>119.0</ele><time>2026-04-04T13:00:41.924Z</time></trkpt><trkpt lat="43.6322087" lon="10.7792704"><ele>118.0</ele><time>2026-04-04T13:00:42.924Z</time></trkpt><trkpt lat="43.6322263" lon="10.7791857"><ele>116.99999999999999</ele><time>2026-04-04T13:00:43.928Z</time></trkpt><trkpt lat="43.6322783" lon="10.7790618"><ele>116.0</ele><time>2026-04-04T13:00:45.931Z</time></trkpt><trkpt lat="43.6323472" lon="10.7789341"><ele>113.4</ele><time>2026-04-04T13:00:47.928Z</time></trkpt><trkpt lat="43.6324093" lon="10.7787993"><ele>110.8</ele><time>2026-04-04T13:00:49.931Z</time></trkpt><trkpt lat="43.6324598" lon="10.778647"><ele>108.2</ele><time>2026-04-04T13:00:51.928Z</time></trkpt><trkpt lat="43.632509" lon="10.7784932"><ele>105.60000000000001</ele><time>2026-04-04T13:00:53.929Z</time></trkpt><trkpt lat="43.6325361" lon="10.7784081"><ele>103.0</ele><time>2026-04-04T13:00:54.929Z</time></trkpt><trkpt lat="43.6325661" lon="10.7783181"><ele>100.66666666666667</ele><time>2026-04-04T13:00:55.926Z</time></trkpt><trkpt lat="43.6326013" lon="10.7782344"><ele>98.33333333333334</ele><time>2026-04-04T13:00:56.931Z</time></trkpt><trkpt lat="43.6326738" lon="10.7780992"><ele>96.0</ele><time>2026-04-04T13:00:58.93Z</time></trkpt><trkpt lat="43.6327146" lon="10.778019"><ele>93.66666666666667</ele><time>2026-04-04T13:01:00.922Z</time></trkpt><trkpt lat="43.6326773" lon="10.7778811"><ele>91.33333333333334</ele><time>2026-04-04T13:01:03.927Z</time></trkpt><trkpt lat="43.6326268" lon="10.7778172"><ele>89.0</ele><time>2026-04-04T13:01:04.931Z</time></trkpt><trkpt lat="43.6325704" lon="10.7777449"><ele>88.33333333333334</ele><time>2026-04-04T13:01:05.927Z</time></trkpt><trkpt lat="43.6325101" lon="10.7776731"><ele>87.66666666666667</ele><time>2026-04-04T13:01:06.924Z</time></trkpt><trkpt lat="43.6324507" lon="10.7775979"><ele>87.0</ele><time>2026-04-04T13:01:07.927Z</time></trkpt><trkpt lat="43.6323935" lon="10.7775197"><ele>86.33333333333333</ele><time>2026-04-04T13:01:08.927Z</time></trkpt><trkpt lat="43.6323416" lon="10.7774452"><ele>85.66666666666666</ele><time>2026-04-04T13:01:09.929Z</time></trkpt><trkpt lat="43.6322899" lon="10.7773758"><ele>85.0</ele><time>2026-04-04T13:01:10.925Z</time></trkpt><trkpt lat="43.6322488" lon="10.7773051"><ele>85.0</ele><time>2026-04-04T13:01:11.929Z</time></trkpt><trkpt lat="43.6322098" lon="10.7772074"><ele>85.0</ele><time>2026-04-04T13:01:12.929Z</time></trkpt><trkpt lat="43.6321868" lon="10.7771053"><ele>85.0</ele><time>2026-04-04T13:01:13.927Z</time></trkpt><trkpt lat="43.632164" lon="10.7769915"><ele>85.0</ele><time>2026-04-04T13:01:14.925Z</time></trkpt><trkpt lat="43.6321823" lon="10.7768831"><ele>85.0</ele><time>2026-04-04T13:01:15.928Z</time></trkpt><trkpt lat="43.6322011" lon="10.7767639"><ele>85.0</ele><time>2026-04-04T13:01:16.927Z</time></trkpt><trkpt lat="43.6322233" lon="10.7766336"><ele>83.8</ele><time>2026-04-04T13:01:17.923Z</time></trkpt><trkpt lat="43.6322448" lon="10.7765035"><ele>82.6</ele><time>2026-04-04T13:01:18.928Z</time></trkpt><trkpt lat="43.6322642" lon="10.7763796"><ele>81.4</ele><time>2026-04-04T13:01:19.925Z</time></trkpt><trkpt lat="43.6322874" lon="10.7762542"><ele>80.2</ele><time>2026-04-04T13:01:20.925Z</time></trkpt><trkpt lat="43.6323098" lon="10.7761348"><ele>79.0</ele><time>2026-04-04T13:01:21.929Z</time></trkpt><trkpt lat="43.63233" lon="10.7760095"><ele>77.5</ele><time>2026-04-04T13:01:22.925Z</time></trkpt><trkpt lat="43.6323563" lon="10.7758876"><ele>76.0</ele><time>2026-04-04T13:01:23.925Z</time></trkpt><trkpt lat="43.6323762" lon="10.7757743"><ele>74.5</ele><time>2026-04-04T13:01:24.926Z</time></trkpt><trkpt lat="43.6324015" lon="10.7756684"><ele>73.0</ele><time>2026-04-04T13:01:25.932Z</time></trkpt><trkpt lat="43.6324231" lon="10.7755521"><ele>71.5</ele><time>2026-04-04T13:01:26.922Z</time></trkpt><trkpt lat="43.6324477" lon="10.7754324"><ele>70.0</ele><time>2026-04-04T13:01:27.932Z</time></trkpt><trkpt lat="43.6324739" lon="10.7753192"><ele>70.0</ele><time>2026-04-04T13:01:28.925Z</time></trkpt><trkpt lat="43.6324939" lon="10.7752051"><ele>70.0</ele><time>2026-04-04T13:01:29.927Z</time></trkpt><trkpt lat="43.6324953" lon="10.775094"><ele>70.0</ele><time>2026-04-04T13:01:30.924Z</time></trkpt><trkpt lat="43.6324873" lon="10.774977"><ele>70.0</ele><time>2026-04-04T13:01:31.927Z</time></trkpt><trkpt lat="43.6324771" lon="10.7748469"><ele>70.0</ele><time>2026-04-04T13:01:32.931Z</time></trkpt><trkpt lat="43.6324695" lon="10.7746994"><ele>69.2</ele><time>2026-04-04T13:01:33.927Z</time></trkpt><trkpt lat="43.6324598" lon="10.7745463"><ele>68.4</ele><time>2026-04-04T13:01:34.926Z</time></trkpt><trkpt lat="43.6324483" lon="10.7744058"><ele>67.6</ele><time>2026-04-04T13:01:35.924Z</time></trkpt><trkpt lat="43.6324371" lon="10.7742734"><ele>66.8</ele><time>2026-04-04T13:01:36.925Z</time></trkpt><trkpt lat="43.6324283" lon="10.7741577"><ele>66.0</ele><time>2026-04-04T13:01:37.932Z</time></trkpt><trkpt lat="43.6324165" lon="10.7740369"><ele>65.0</ele><time>2026-04-04T13:01:38.925Z</time></trkpt><trkpt lat="43.6323965" lon="10.7738854"><ele>64.0</ele><time>2026-04-04T13:01:40.924Z</time></trkpt><trkpt lat="43.6323859" lon="10.7737719"><ele>63.0</ele><time>2026-04-04T13:01:42.924Z</time></trkpt><trkpt lat="43.6323648" lon="10.7736838"><ele>62.0</ele><time>2026-04-04T13:01:44.925Z</time></trkpt><trkpt lat="43.6323186" lon="10.7736091"><ele>61.0</ele><time>2026-04-04T13:02:29.927Z</time></trkpt><trkpt lat="43.6322461" lon="10.7735011"><ele>60.0</ele><time>2026-04-04T13:02:32.931Z</time></trkpt><trkpt lat="43.6321578" lon="10.7734127"><ele>59.333333333333336</ele><time>2026-04-04T13:02:34.931Z</time></trkpt><trkpt lat="43.6321029" lon="10.7733405"><ele>58.66666666666667</ele><time>2026-04-04T13:02:36.925Z</time></trkpt><trkpt lat="43.6321168" lon="10.7732552"><ele>58.0</ele><time>2026-04-04T13:02:39.924Z</time></trkpt><trkpt lat="43.6322058" lon="10.7732166"><ele>57.333333333333336</ele><time>2026-04-04T13:02:41.92Z</time></trkpt><trkpt lat="43.6322718" lon="10.7731931"><ele>56.66666666666667</ele><time>2026-04-04T13:02:42.927Z</time></trkpt><trkpt lat="43.6323497" lon="10.7731533"><ele>56.0</ele><time>2026-04-04T13:02:43.925Z</time></trkpt><trkpt lat="43.6324301" lon="10.7730924"><ele>56.0</ele><time>2026-04-04T13:02:44.92Z</time></trkpt><trkpt lat="43.6325161" lon="10.7730111"><ele>56.0</ele><time>2026-04-04T13:02:45.925Z</time></trkpt><trkpt lat="43.6325992" lon="10.7729176"><ele>56.0</ele><time>2026-04-04T13:02:46.924Z</time></trkpt><trkpt lat="43.632688" lon="10.772819"><ele>56.0</ele><time>2026-04-04T13:02:47.929Z</time></trkpt><trkpt lat="43.632789" lon="10.7727092"><ele>56.25</ele><time>2026-04-04T13:02:48.923Z</time></trkpt><trkpt lat="43.6328927" lon="10.7725971"><ele>56.5</ele><time>2026-04-04T13:02:49.925Z</time></trkpt><trkpt lat="43.6329967" lon="10.7724852"><ele>56.75</ele><time>2026-04-04T13:02:50.928Z</time></trkpt><trkpt lat="43.633099" lon="10.7723601"><ele>57.0</ele><time>2026-04-04T13:02:51.918Z</time></trkpt><trkpt lat="43.6332042" lon="10.7722405"><ele>57.0</ele><time>2026-04-04T13:02:52.932Z</time></trkpt><trkpt lat="43.6333101" lon="10.7721215"><ele>57.0</ele><time>2026-04-04T13:02:53.931Z</time></trkpt><trkpt lat="43.6334113" lon="10.7720088"><ele>57.0</ele><time>2026-04-04T13:02:54.929Z</time></trkpt><trkpt lat="43.633516" lon="10.7718992"><ele>57.0</ele><time>2026-04-04T13:02:55.932Z</time></trkpt><trkpt lat="43.633618" lon="10.7717881"><ele>57.5</ele><time>2026-04-04T13:02:56.931Z</time></trkpt><trkpt lat="43.6337148" lon="10.7716797"><ele>58.0</ele><time>2026-04-04T13:02:57.922Z</time></trkpt><trkpt lat="43.6338103" lon="10.7715758"><ele>58.5</ele><time>2026-04-04T13:02:58.92Z</time></trkpt><trkpt lat="43.6339078" lon="10.7714672"><ele>59.0</ele><time>2026-04-04T13:02:59.932Z</time></trkpt><trkpt lat="43.6340036" lon="10.7713603"><ele>59.0</ele><time>2026-04-04T13:03:00.918Z</time></trkpt><trkpt lat="43.6340998" lon="10.7712575"><ele>59.0</ele><time>2026-04-04T13:03:01.917Z</time></trkpt><trkpt lat="43.6341945" lon="10.7711495"><ele>59.0</ele><time>2026-04-04T13:03:02.932Z</time></trkpt><trkpt lat="43.6344562" lon="10.7708342"><ele>57.75</ele><time>2026-04-04T13:03:05.928Z</time></trkpt><trkpt lat="43.634543" lon="10.7707266"><ele>56.5</ele><time>2026-04-04T13:03:06.926Z</time></trkpt><trkpt lat="43.6346132" lon="10.7706161"><ele>55.25</ele><time>2026-04-04T13:03:07.918Z</time></trkpt><trkpt lat="43.634686" lon="10.7704964"><ele>54.0</ele><time>2026-04-04T13:03:08.929Z</time></trkpt><trkpt lat="43.6347595" lon="10.7703766"><ele>54.0</ele><time>2026-04-04T13:03:09.927Z</time></trkpt><trkpt lat="43.6348229" lon="10.7702319"><ele>54.0</ele><time>2026-04-04T13:03:10.931Z</time></trkpt><trkpt lat="43.634887" lon="10.7700871"><ele>54.0</ele><time>2026-04-04T13:03:11.932Z</time></trkpt><trkpt lat="43.6349441" lon="10.7699386"><ele>54.0</ele><time>2026-04-04T13:03:12.929Z</time></trkpt><trkpt lat="43.6350009" lon="10.7697822"><ele>54.0</ele><time>2026-04-04T13:03:13.932Z</time></trkpt><trkpt lat="43.6350574" lon="10.7696117"><ele>54.0</ele><time>2026-04-04T13:03:14.93Z</time></trkpt><trkpt lat="43.6351177" lon="10.7694582"><ele>54.0</ele><time>2026-04-04T13:03:15.926Z</time></trkpt><trkpt lat="43.6351781" lon="10.7693049"><ele>54.0</ele><time>2026-04-04T13:03:16.929Z</time></trkpt><trkpt lat="43.6352386" lon="10.7691537"><ele>53.25</ele><time>2026-04-04T13:03:17.932Z</time></trkpt><trkpt lat="43.6352995" lon="10.7690118"><ele>52.5</ele><time>2026-04-04T13:03:18.928Z</time></trkpt><trkpt lat="43.6353648" lon="10.768872"><ele>51.75</ele><time>2026-04-04T13:03:19.921Z</time></trkpt><trkpt lat="43.6354346" lon="10.7687398"><ele>51.0</ele><time>2026-04-04T13:03:20.926Z</time></trkpt><trkpt lat="43.6355052" lon="10.7686135"><ele>52.5</ele><time>2026-04-04T13:03:21.929Z</time></trkpt><trkpt lat="43.6355778" lon="10.7684884"><ele>54.0</ele><time>2026-04-04T13:03:22.918Z</time></trkpt><trkpt lat="43.6356618" lon="10.7683709"><ele>55.5</ele><time>2026-04-04T13:03:23.924Z</time></trkpt><trkpt lat="43.6357461" lon="10.7682545"><ele>57.0</ele><time>2026-04-04T13:03:24.927Z</time></trkpt><trkpt lat="43.6358283" lon="10.7681363"><ele>57.0</ele><time>2026-04-04T13:03:25.919Z</time></trkpt><trkpt lat="43.635915" lon="10.7680173"><ele>57.0</ele><time>2026-04-04T13:03:26.917Z</time></trkpt><trkpt lat="43.6360012" lon="10.7678944"><ele>57.0</ele><time>2026-04-04T13:03:27.917Z</time></trkpt><trkpt lat="43.6360856" lon="10.7677756"><ele>57.0</ele><time>2026-04-04T13:03:28.882Z</time></trkpt><trkpt lat="43.6361713" lon="10.7676585"><ele>56.5</ele><time>2026-04-04T13:03:29.881Z</time></trkpt><trkpt lat="43.6362437" lon="10.7675233"><ele>56.0</ele><time>2026-04-04T13:03:30.88Z</time></trkpt><trkpt lat="43.6363159" lon="10.7673929"><ele>55.5</ele><time>2026-04-04T13:03:31.881Z</time></trkpt><trkpt lat="43.6363868" lon="10.7672613"><ele>55.0</ele><time>2026-04-04T13:03:32.884Z</time></trkpt><trkpt lat="43.6364613" lon="10.7671323"><ele>55.0</ele><time>2026-04-04T13:03:33.882Z</time></trkpt><trkpt lat="43.636535" lon="10.7670055"><ele>55.0</ele><time>2026-04-04T13:03:34.879Z</time></trkpt><trkpt lat="43.6366097" lon="10.7668759"><ele>55.0</ele><time>2026-04-04T13:03:35.879Z</time></trkpt><trkpt lat="43.6366809" lon="10.7667545"><ele>55.0</ele><time>2026-04-04T13:03:36.881Z</time></trkpt><trkpt lat="43.6367544" lon="10.7666236"><ele>54.0</ele><time>2026-04-04T13:03:37.879Z</time></trkpt><trkpt lat="43.6368312" lon="10.7664849"><ele>53.0</ele><time>2026-04-04T13:03:38.882Z</time></trkpt><trkpt lat="43.6369047" lon="10.766352"><ele>52.0</ele><time>2026-04-04T13:03:39.883Z</time></trkpt><trkpt lat="43.6369845" lon="10.7662272"><ele>51.0</ele><time>2026-04-04T13:03:40.883Z</time></trkpt><trkpt lat="43.6370699" lon="10.7661103"><ele>52.25</ele><time>2026-04-04T13:03:41.884Z</time></trkpt><trkpt lat="43.6371577" lon="10.7660044"><ele>53.5</ele><time>2026-04-04T13:03:42.883Z</time></trkpt><trkpt lat="43.6372462" lon="10.7658985"><ele>54.75</ele><time>2026-04-04T13:03:43.881Z</time></trkpt><trkpt lat="43.6373378" lon="10.7657935"><ele>56.0</ele><time>2026-04-04T13:03:44.886Z</time></trkpt><trkpt lat="43.6374318" lon="10.7656883"><ele>56.0</ele><time>2026-04-04T13:03:45.881Z</time></trkpt><trkpt lat="43.6375328" lon="10.7655726"><ele>56.0</ele><time>2026-04-04T13:03:46.884Z</time></trkpt><trkpt lat="43.6376392" lon="10.7654469"><ele>56.0</ele><time>2026-04-04T13:03:47.88Z</time></trkpt><trkpt lat="43.6377533" lon="10.7653059"><ele>56.0</ele><time>2026-04-04T13:03:48.883Z</time></trkpt><trkpt lat="43.637875" lon="10.7651721"><ele>57.333333333333336</ele><time>2026-04-04T13:03:49.884Z</time></trkpt><trkpt lat="43.6380024" lon="10.7650253"><ele>58.66666666666667</ele><time>2026-04-04T13:03:50.882Z</time></trkpt><trkpt lat="43.6381333" lon="10.7648759"><ele>60.0</ele><time>2026-04-04T13:03:51.881Z</time></trkpt><trkpt lat="43.638258" lon="10.7647299"><ele>60.0</ele><time>2026-04-04T13:03:52.886Z</time></trkpt><trkpt lat="43.6383717" lon="10.7645913"><ele>60.0</ele><time>2026-04-04T13:03:53.88Z</time></trkpt><trkpt lat="43.6384821" lon="10.7644661"><ele>60.0</ele><time>2026-04-04T13:03:54.883Z</time></trkpt><trkpt lat="43.6385871" lon="10.7643492"><ele>60.0</ele><time>2026-04-04T13:03:55.886Z</time></trkpt><trkpt lat="43.6386919" lon="10.7642385"><ele>58.0</ele><time>2026-04-04T13:03:56.886Z</time></trkpt><trkpt lat="43.6388093" lon="10.7641395"><ele>56.0</ele><time>2026-04-04T13:03:57.882Z</time></trkpt><trkpt lat="43.6389352" lon="10.7640555"><ele>54.0</ele><time>2026-04-04T13:03:58.886Z</time></trkpt><trkpt lat="43.6390649" lon="10.763979"><ele>52.0</ele><time>2026-04-04T13:03:59.884Z</time></trkpt><trkpt lat="43.6391953" lon="10.7639028"><ele>52.0</ele><time>2026-04-04T13:04:00.883Z</time></trkpt><trkpt lat="43.6393152" lon="10.7638281"><ele>52.0</ele><time>2026-04-04T13:04:01.885Z</time></trkpt><trkpt lat="43.6394301" lon="10.7637515"><ele>52.0</ele><time>2026-04-04T13:04:02.882Z</time></trkpt><trkpt lat="43.6395395" lon="10.7636797"><ele>52.0</ele><time>2026-04-04T13:04:03.88Z</time></trkpt><trkpt lat="43.6396316" lon="10.7636132"><ele>51.83333333333333</ele><time>2026-04-04T13:04:04.883Z</time></trkpt><trkpt lat="43.6397092" lon="10.7635467"><ele>51.666666666666664</ele><time>2026-04-04T13:04:05.878Z</time></trkpt><trkpt lat="43.6397824" lon="10.7634784"><ele>51.5</ele><time>2026-04-04T13:04:06.88Z</time></trkpt><trkpt lat="43.6398428" lon="10.7634285"><ele>51.33333333333333</ele><time>2026-04-04T13:04:09.879Z</time></trkpt><trkpt lat="43.6397798" lon="10.7634567"><ele>51.166666666666664</ele><time>2026-04-04T13:04:38.886Z</time></trkpt><trkpt lat="43.6398463" lon="10.7634612"><ele>51.0</ele><time>2026-04-04T13:05:18.88Z</time></trkpt><trkpt lat="43.6399265" lon="10.7634227"><ele>50.0</ele><time>2026-04-04T13:05:19.887Z</time></trkpt><trkpt lat="43.6400245" lon="10.7633718"><ele>49.0</ele><time>2026-04-04T13:05:20.878Z</time></trkpt><trkpt lat="43.6401466" lon="10.7632964"><ele>48.0</ele><time>2026-04-04T13:05:21.882Z</time></trkpt><trkpt lat="43.6402872" lon="10.7632093"><ele>47.0</ele><time>2026-04-04T13:05:22.88Z</time></trkpt><trkpt lat="43.6404419" lon="10.7631111"><ele>52.666666666666664</ele><time>2026-04-04T13:05:23.88Z</time></trkpt><trkpt lat="43.640606" lon="10.7630084"><ele>58.33333333333333</ele><time>2026-04-04T13:05:24.884Z</time></trkpt><trkpt lat="43.6407788" lon="10.7629005"><ele>64.0</ele><time>2026-04-04T13:05:25.883Z</time></trkpt><trkpt lat="43.640949" lon="10.7627917"><ele>61.0</ele><time>2026-04-04T13:05:26.882Z</time></trkpt><trkpt lat="43.6411177" lon="10.7626879"><ele>58.0</ele><time>2026-04-04T13:05:27.883Z</time></trkpt><trkpt lat="43.641292" lon="10.76258"><ele>55.0</ele><time>2026-04-04T13:05:28.884Z</time></trkpt><trkpt lat="43.6414743" lon="10.7624642"><ele>55.0</ele><time>2026-04-04T13:05:29.882Z</time></trkpt><trkpt lat="43.6416674" lon="10.7623398"><ele>55.0</ele><time>2026-04-04T13:05:30.882Z</time></trkpt><trkpt lat="43.6418589" lon="10.7622191"><ele>55.0</ele><time>2026-04-04T13:05:31.881Z</time></trkpt><trkpt lat="43.6420411" lon="10.7620943"><ele>53.666666666666664</ele><time>2026-04-04T13:05:32.881Z</time></trkpt><trkpt lat="43.6422171" lon="10.7619614"><ele>52.33333333333333</ele><time>2026-04-04T13:05:33.884Z</time></trkpt><trkpt lat="43.642382" lon="10.7618161"><ele>51.0</ele><time>2026-04-04T13:05:34.882Z</time></trkpt><trkpt lat="43.6425377" lon="10.7616714"><ele>51.0</ele><time>2026-04-04T13:05:35.882Z</time></trkpt><trkpt lat="43.6426823" lon="10.7615291"><ele>51.0</ele><time>2026-04-04T13:05:36.881Z</time></trkpt><trkpt lat="43.64282" lon="10.7613998"><ele>51.0</ele><time>2026-04-04T13:05:37.88Z</time></trkpt><trkpt lat="43.6429499" lon="10.7612757"><ele>49.333333333333336</ele><time>2026-04-04T13:05:38.882Z</time></trkpt><trkpt lat="43.6430814" lon="10.7611574"><ele>47.66666666666667</ele><time>2026-04-04T13:05:39.881Z</time></trkpt><trkpt lat="43.6432219" lon="10.7610433"><ele>46.0</ele><time>2026-04-04T13:05:40.881Z</time></trkpt><trkpt lat="43.6433639" lon="10.7609286"><ele>46.0</ele><time>2026-04-04T13:05:41.88Z</time></trkpt><trkpt lat="43.6435216" lon="10.7608698"><ele>46.0</ele><time>2026-04-04T13:05:42.88Z</time></trkpt><trkpt lat="43.6436849" lon="10.760825"><ele>46.0</ele><time>2026-04-04T13:05:43.887Z</time></trkpt><trkpt lat="43.6438516" lon="10.7607985"><ele>45.333333333333336</ele><time>2026-04-04T13:05:44.879Z</time></trkpt><trkpt lat="43.6440236" lon="10.7607993"><ele>44.666666666666664</ele><time>2026-04-04T13:05:45.882Z</time></trkpt><trkpt lat="43.6442012" lon="10.7608145"><ele>44.0</ele><time>2026-04-04T13:05:46.882Z</time></trkpt><trkpt lat="43.6443876" lon="10.7608286"><ele>44.0</ele><time>2026-04-04T13:05:47.881Z</time></trkpt><trkpt lat="43.6445602" lon="10.7608366"><ele>44.0</ele><time>2026-04-04T13:05:48.881Z</time></trkpt><trkpt lat="43.644722" lon="10.7608443"><ele>44.0</ele><time>2026-04-04T13:05:49.883Z</time></trkpt><trkpt lat="43.6448783" lon="10.7608546"><ele>44.0</ele><time>2026-04-04T13:05:50.882Z</time></trkpt><trkpt lat="43.6450307" lon="10.7608536"><ele>44.0</ele><time>2026-04-04T13:05:51.883Z</time></trkpt><trkpt lat="43.6451901" lon="10.7608248"><ele>44.0</ele><time>2026-04-04T13:05:52.883Z</time></trkpt><trkpt lat="43.6453525" lon="10.7607613"><ele>43.0</ele><time>2026-04-04T13:05:53.882Z</time></trkpt><trkpt lat="43.6455154" lon="10.7606809"><ele>42.0</ele><time>2026-04-04T13:05:54.881Z</time></trkpt><trkpt lat="43.6456894" lon="10.7605849"><ele>41.0</ele><time>2026-04-04T13:05:55.882Z</time></trkpt><trkpt lat="43.645871" lon="10.7604777"><ele>41.0</ele><time>2026-04-04T13:05:56.883Z</time></trkpt><trkpt lat="43.6460571" lon="10.7603698"><ele>41.0</ele><time>2026-04-04T13:05:57.883Z</time></trkpt><trkpt lat="43.6462467" lon="10.760264"><ele>41.0</ele><time>2026-04-04T13:05:58.882Z</time></trkpt><trkpt lat="43.6464391" lon="10.7601543"><ele>41.0</ele><time>2026-04-04T13:05:59.881Z</time></trkpt><trkpt lat="43.6466318" lon="10.7600343"><ele>41.0</ele><time>2026-04-04T13:06:00.882Z</time></trkpt><trkpt lat="43.6468378" lon="10.7599141"><ele>41.0</ele><time>2026-04-04T13:06:01.882Z</time></trkpt><trkpt lat="43.6470371" lon="10.7597889"><ele>40.666666666666664</ele><time>2026-04-04T13:06:02.882Z</time></trkpt><trkpt lat="43.6472389" lon="10.7596711"><ele>40.333333333333336</ele><time>2026-04-04T13:06:03.883Z</time></trkpt><trkpt lat="43.6474359" lon="10.7595573"><ele>40.0</ele><time>2026-04-04T13:06:04.881Z</time></trkpt><trkpt lat="43.6476188" lon="10.759445"><ele>40.0</ele><time>2026-04-04T13:06:05.883Z</time></trkpt><trkpt lat="43.6477962" lon="10.7593445"><ele>40.0</ele><time>2026-04-04T13:06:06.882Z</time></trkpt><trkpt lat="43.6479699" lon="10.7592374"><ele>40.0</ele><time>2026-04-04T13:06:07.881Z</time></trkpt><trkpt lat="43.6481356" lon="10.7591258"><ele>40.0</ele><time>2026-04-04T13:06:08.882Z</time></trkpt><trkpt lat="43.6482908" lon="10.7589921"><ele>40.0</ele><time>2026-04-04T13:06:09.883Z</time></trkpt><trkpt lat="43.6484374" lon="10.7588345"><ele>40.0</ele><time>2026-04-04T13:06:10.882Z</time></trkpt><trkpt lat="43.6485843" lon="10.7586571"><ele>39.66666666666667</ele><time>2026-04-04T13:06:11.881Z</time></trkpt><trkpt lat="43.6487334" lon="10.7584719"><ele>39.333333333333336</ele><time>2026-04-04T13:06:12.882Z</time></trkpt><trkpt lat="43.6488882" lon="10.7582723"><ele>39.0</ele><time>2026-04-04T13:06:13.882Z</time></trkpt><trkpt lat="43.6490537" lon="10.7580744"><ele>39.0</ele><time>2026-04-04T13:06:14.882Z</time></trkpt><trkpt lat="43.6492305" lon="10.7578934"><ele>39.0</ele><time>2026-04-04T13:06:15.882Z</time></trkpt><trkpt lat="43.6494197" lon="10.7577172"><ele>39.0</ele><time>2026-04-04T13:06:16.881Z</time></trkpt><trkpt lat="43.6496156" lon="10.7575601"><ele>39.5</ele><time>2026-04-04T13:06:17.881Z</time></trkpt><trkpt lat="43.6498151" lon="10.7573999"><ele>40.0</ele><time>2026-04-04T13:06:18.881Z</time></trkpt><trkpt lat="43.6500178" lon="10.7572317"><ele>40.0</ele><time>2026-04-04T13:06:19.88Z</time></trkpt><trkpt lat="43.6502215" lon="10.757053"><ele>40.0</ele><time>2026-04-04T13:06:20.881Z</time></trkpt><trkpt lat="43.6504151" lon="10.7568561"><ele>39.66666666666667</ele><time>2026-04-04T13:06:21.882Z</time></trkpt><trkpt lat="43.6505926" lon="10.7566563"><ele>39.333333333333336</ele><time>2026-04-04T13:06:22.883Z</time></trkpt><trkpt lat="43.6507529" lon="10.7564636"><ele>39.0</ele><time>2026-04-04T13:06:23.882Z</time></trkpt><trkpt lat="43.6509002" lon="10.7562806"><ele>39.0</ele><time>2026-04-04T13:06:24.882Z</time></trkpt><trkpt lat="43.6510436" lon="10.756101"><ele>39.0</ele><time>2026-04-04T13:06:25.884Z</time></trkpt><trkpt lat="43.6511801" lon="10.7559256"><ele>39.0</ele><time>2026-04-04T13:06:26.882Z</time></trkpt><trkpt lat="43.6513136" lon="10.7557516"><ele>41.333333333333336</ele><time>2026-04-04T13:06:27.883Z</time></trkpt><trkpt lat="43.6514515" lon="10.7555837"><ele>43.66666666666667</ele><time>2026-04-04T13:06:28.882Z</time></trkpt><trkpt lat="43.6516023" lon="10.7554279"><ele>46.0</ele><time>2026-04-04T13:06:29.883Z</time></trkpt><trkpt lat="43.6517671" lon="10.7552742"><ele>46.66666666666667</ele><time>2026-04-04T13:06:30.881Z</time></trkpt><trkpt lat="43.6519531" lon="10.7551152"><ele>47.333333333333336</ele><time>2026-04-04T13:06:31.882Z</time></trkpt><trkpt lat="43.6521547" lon="10.7549618"><ele>48.0</ele><time>2026-04-04T13:06:32.881Z</time></trkpt><trkpt lat="43.6523767" lon="10.7548054"><ele>48.0</ele><time>2026-04-04T13:06:33.881Z</time></trkpt><trkpt lat="43.6526035" lon="10.7546542"><ele>48.0</ele><time>2026-04-04T13:06:34.882Z</time></trkpt><trkpt lat="43.652831" lon="10.7545054"><ele>47.5</ele><time>2026-04-04T13:06:35.88Z</time></trkpt><trkpt lat="43.6530549" lon="10.7543507"><ele>47.0</ele><time>2026-04-04T13:06:36.88Z</time></trkpt><trkpt lat="43.6532776" lon="10.7541919"><ele>47.0</ele><time>2026-04-04T13:06:37.881Z</time></trkpt><trkpt lat="43.6535012" lon="10.7540309"><ele>47.0</ele><time>2026-04-04T13:06:38.882Z</time></trkpt><trkpt lat="43.6537207" lon="10.7538623"><ele>41.5</ele><time>2026-04-04T13:06:39.883Z</time></trkpt><trkpt lat="43.6539436" lon="10.7536991"><ele>36.0</ele><time>2026-04-04T13:06:40.882Z</time></trkpt><trkpt lat="43.6541687" lon="10.7535346"><ele>35.5</ele><time>2026-04-04T13:06:41.881Z</time></trkpt><trkpt lat="43.6543913" lon="10.7533727"><ele>35.0</ele><time>2026-04-04T13:06:42.882Z</time></trkpt><trkpt lat="43.6546119" lon="10.7532167"><ele>35.0</ele><time>2026-04-04T13:06:43.884Z</time></trkpt><trkpt lat="43.6548274" lon="10.7530583"><ele>35.0</ele><time>2026-04-04T13:06:44.881Z</time></trkpt><trkpt lat="43.6550437" lon="10.7529062"><ele>35.0</ele><time>2026-04-04T13:06:45.883Z</time></trkpt><trkpt lat="43.6552618" lon="10.7527627"><ele>35.0</ele><time>2026-04-04T13:06:46.88Z</time></trkpt><trkpt lat="43.6554771" lon="10.75262"><ele>36.5</ele><time>2026-04-04T13:06:47.882Z</time></trkpt><trkpt lat="43.6556951" lon="10.7524929"><ele>38.0</ele><time>2026-04-04T13:06:48.882Z</time></trkpt><trkpt lat="43.6559144" lon="10.7523654"><ele>38.0</ele><time>2026-04-04T13:06:49.882Z</time></trkpt><trkpt lat="43.6561372" lon="10.7522418"><ele>38.0</ele><time>2026-04-04T13:06:50.884Z</time></trkpt><trkpt lat="43.6563506" lon="10.7521173"><ele>38.0</ele><time>2026-04-04T13:06:51.882Z</time></trkpt><trkpt lat="43.6565626" lon="10.7519926"><ele>38.0</ele><time>2026-04-04T13:06:52.88Z</time></trkpt><trkpt lat="43.6567764" lon="10.7518737"><ele>37.0</ele><time>2026-04-04T13:06:53.884Z</time></trkpt><trkpt lat="43.6569872" lon="10.7517589"><ele>36.0</ele><time>2026-04-04T13:06:54.882Z</time></trkpt><trkpt lat="43.6571971" lon="10.7516405"><ele>36.0</ele><time>2026-04-04T13:06:55.881Z</time></trkpt><trkpt lat="43.6574123" lon="10.7515208"><ele>36.0</ele><time>2026-04-04T13:06:56.881Z</time></trkpt><trkpt lat="43.6576229" lon="10.7513938"><ele>35.0</ele><time>2026-04-04T13:06:57.882Z</time></trkpt><trkpt lat="43.6578381" lon="10.7512763"><ele>34.0</ele><time>2026-04-04T13:06:58.882Z</time></trkpt><trkpt lat="43.6580535" lon="10.7511736"><ele>34.0</ele><time>2026-04-04T13:06:59.881Z</time></trkpt><trkpt lat="43.6582698" lon="10.7510747"><ele>34.0</ele><time>2026-04-04T13:07:00.881Z</time></trkpt><trkpt lat="43.6584925" lon="10.7509868"><ele>35.0</ele><time>2026-04-04T13:07:01.883Z</time></trkpt><trkpt lat="43.6587175" lon="10.7509148"><ele>36.0</ele><time>2026-04-04T13:07:02.883Z</time></trkpt><trkpt lat="43.6589518" lon="10.7508434"><ele>36.0</ele><time>2026-04-04T13:07:03.882Z</time></trkpt><trkpt lat="43.6591638" lon="10.750776"><ele>36.0</ele><time>2026-04-04T13:07:04.882Z</time></trkpt><trkpt lat="43.659368" lon="10.7507154"><ele>36.0</ele><time>2026-04-04T13:07:05.882Z</time></trkpt><trkpt lat="43.659567" lon="10.7506522"><ele>36.333333333333336</ele><time>2026-04-04T13:07:06.88Z</time></trkpt><trkpt lat="43.6597705" lon="10.7505845"><ele>36.66666666666667</ele><time>2026-04-04T13:07:07.883Z</time></trkpt><trkpt lat="43.6599656" lon="10.7505232"><ele>37.0</ele><time>2026-04-04T13:07:08.881Z</time></trkpt><trkpt lat="43.6601638" lon="10.7504625"><ele>36.66666666666667</ele><time>2026-04-04T13:07:09.884Z</time></trkpt><trkpt lat="43.6603579" lon="10.7503999"><ele>36.333333333333336</ele><time>2026-04-04T13:07:10.883Z</time></trkpt><trkpt lat="43.6605601" lon="10.750337"><ele>36.0</ele><time>2026-04-04T13:07:11.882Z</time></trkpt><trkpt lat="43.6607539" lon="10.7502844"><ele>36.0</ele><time>2026-04-04T13:07:12.882Z</time></trkpt><trkpt lat="43.6609344" lon="10.7502377"><ele>36.0</ele><time>2026-04-04T13:07:13.881Z</time></trkpt><trkpt lat="43.6611228" lon="10.7502216"><ele>36.0</ele><time>2026-04-04T13:07:14.882Z</time></trkpt><trkpt lat="43.6612833" lon="10.7502534"><ele>35.0</ele><time>2026-04-04T13:07:15.88Z</time></trkpt><trkpt lat="43.6614297" lon="10.7503233"><ele>34.0</ele><time>2026-04-04T13:07:16.881Z</time></trkpt><trkpt lat="43.661576" lon="10.7504446"><ele>33.0</ele><time>2026-04-04T13:07:17.88Z</time></trkpt><trkpt lat="43.6617183" lon="10.7505946"><ele>33.0</ele><time>2026-04-04T13:07:18.884Z</time></trkpt><trkpt lat="43.6618419" lon="10.750822"><ele>33.0</ele><time>2026-04-04T13:07:19.882Z</time></trkpt><trkpt lat="43.6619711" lon="10.7510687"><ele>33.0</ele><time>2026-04-04T13:07:20.881Z</time></trkpt><trkpt lat="43.6621001" lon="10.7513086"><ele>32.666666666666664</ele><time>2026-04-04T13:07:21.882Z</time></trkpt><trkpt lat="43.6622223" lon="10.7515327"><ele>32.33333333333333</ele><time>2026-04-04T13:07:22.882Z</time></trkpt><trkpt lat="43.6623364" lon="10.7517458"><ele>32.0</ele><time>2026-04-04T13:07:23.882Z</time></trkpt><trkpt lat="43.6624611" lon="10.7519535"><ele>32.0</ele><time>2026-04-04T13:07:24.881Z</time></trkpt><trkpt lat="43.6626073" lon="10.7521448"><ele>32.0</ele><time>2026-04-04T13:07:25.88Z</time></trkpt><trkpt lat="43.6627759" lon="10.7523192"><ele>32.0</ele><time>2026-04-04T13:07:26.881Z</time></trkpt><trkpt lat="43.6629551" lon="10.7524715"><ele>32.0</ele><time>2026-04-04T13:07:27.883Z</time></trkpt><trkpt lat="43.6631254" lon="10.7526145"><ele>32.0</ele><time>2026-04-04T13:07:28.881Z</time></trkpt><trkpt lat="43.6632692" lon="10.7527487"><ele>32.0</ele><time>2026-04-04T13:07:29.882Z</time></trkpt><trkpt lat="43.663409" lon="10.7528664"><ele>33.33333333333333</ele><time>2026-04-04T13:07:30.883Z</time></trkpt><trkpt lat="43.6635472" lon="10.7529726"><ele>34.666666666666664</ele><time>2026-04-04T13:07:31.88Z</time></trkpt><trkpt lat="43.6637049" lon="10.7530057"><ele>36.0</ele><time>2026-04-04T13:07:32.881Z</time></trkpt><trkpt lat="43.6638763" lon="10.7529858"><ele>38.0</ele><time>2026-04-04T13:07:33.879Z</time></trkpt><trkpt lat="43.6640451" lon="10.7529696"><ele>40.0</ele><time>2026-04-04T13:07:34.884Z</time></trkpt><trkpt lat="43.664248" lon="10.7528874"><ele>42.0</ele><time>2026-04-04T13:07:35.881Z</time></trkpt><trkpt lat="43.6644628" lon="10.7528116"><ele>42.5</ele><time>2026-04-04T13:07:36.882Z</time></trkpt><trkpt lat="43.6646855" lon="10.7527427"><ele>43.0</ele><time>2026-04-04T13:07:37.881Z</time></trkpt><trkpt lat="43.6649017" lon="10.7526702"><ele>42.0</ele><time>2026-04-04T13:07:38.88Z</time></trkpt><trkpt lat="43.6651419" lon="10.7525912"><ele>41.0</ele><time>2026-04-04T13:07:39.881Z</time></trkpt><trkpt lat="43.6653738" lon="10.7525127"><ele>41.0</ele><time>2026-04-04T13:07:40.88Z</time></trkpt><trkpt lat="43.6655909" lon="10.7524403"><ele>41.0</ele><time>2026-04-04T13:07:41.88Z</time></trkpt><trkpt lat="43.6657918" lon="10.7523833"><ele>41.0</ele><time>2026-04-04T13:07:42.88Z</time></trkpt><trkpt lat="43.6659881" lon="10.7523201"><ele>41.0</ele><time>2026-04-04T13:07:43.881Z</time></trkpt><trkpt lat="43.666172" lon="10.7522456"><ele>41.0</ele><time>2026-04-04T13:07:44.882Z</time></trkpt><trkpt lat="43.6663562" lon="10.7521496"><ele>41.0</ele><time>2026-04-04T13:07:45.879Z</time></trkpt><trkpt lat="43.6665416" lon="10.75203"><ele>41.0</ele><time>2026-04-04T13:07:46.881Z</time></trkpt><trkpt lat="43.6667262" lon="10.7518997"><ele>41.0</ele><time>2026-04-04T13:07:47.882Z</time></trkpt><trkpt lat="43.6669127" lon="10.7517672"><ele>41.0</ele><time>2026-04-04T13:07:48.881Z</time></trkpt><trkpt lat="43.6670953" lon="10.751636"><ele>40.666666666666664</ele><time>2026-04-04T13:07:49.88Z</time></trkpt><trkpt lat="43.6672801" lon="10.7514945"><ele>40.333333333333336</ele><time>2026-04-04T13:07:50.881Z</time></trkpt><trkpt lat="43.6674532" lon="10.7513744"><ele>40.0</ele><time>2026-04-04T13:07:51.883Z</time></trkpt><trkpt lat="43.6676191" lon="10.7512579"><ele>39.66666666666667</ele><time>2026-04-04T13:07:52.881Z</time></trkpt><trkpt lat="43.6677792" lon="10.7511494"><ele>39.333333333333336</ele><time>2026-04-04T13:07:53.881Z</time></trkpt><trkpt lat="43.6679226" lon="10.75107"><ele>39.0</ele><time>2026-04-04T13:07:54.88Z</time></trkpt><trkpt lat="43.6680586" lon="10.7510222"><ele>39.0</ele><time>2026-04-04T13:07:55.882Z</time></trkpt><trkpt lat="43.6681963" lon="10.7509929"><ele>39.0</ele><time>2026-04-04T13:07:56.883Z</time></trkpt><trkpt lat="43.6683118" lon="10.7510142"><ele>39.0</ele><time>2026-04-04T13:07:57.888Z</time></trkpt><trkpt lat="43.6684169" lon="10.75117"><ele>39.0</ele><time>2026-04-04T13:07:58.882Z</time></trkpt><trkpt lat="43.6685379" lon="10.7513372"><ele>42.0</ele><time>2026-04-04T13:07:59.883Z</time></trkpt><trkpt lat="43.6686666" lon="10.7515209"><ele>45.0</ele><time>2026-04-04T13:08:00.881Z</time></trkpt><trkpt lat="43.6687977" lon="10.7517118"><ele>48.0</ele><time>2026-04-04T13:08:01.88Z</time></trkpt><trkpt lat="43.6689185" lon="10.7519148"><ele>50.33333333333333</ele><time>2026-04-04T13:08:02.882Z</time></trkpt><trkpt lat="43.6690171" lon="10.7521429"><ele>52.666666666666664</ele><time>2026-04-04T13:08:03.882Z</time></trkpt><trkpt lat="43.669108" lon="10.7523748"><ele>55.0</ele><time>2026-04-04T13:08:04.881Z</time></trkpt><trkpt lat="43.6691965" lon="10.7525967"><ele>56.666666666666664</ele><time>2026-04-04T13:08:05.881Z</time></trkpt><trkpt lat="43.6692762" lon="10.7528032"><ele>58.33333333333333</ele><time>2026-04-04T13:08:06.882Z</time></trkpt><trkpt lat="43.6693505" lon="10.752998"><ele>60.0</ele><time>2026-04-04T13:08:07.882Z</time></trkpt><trkpt lat="43.6694265" lon="10.7531722"><ele>59.5</ele><time>2026-04-04T13:08:08.881Z</time></trkpt><trkpt lat="43.6694975" lon="10.7533346"><ele>59.0</ele><time>2026-04-04T13:08:09.881Z</time></trkpt><trkpt lat="43.66958" lon="10.7534921"><ele>58.5</ele><time>2026-04-04T13:08:10.882Z</time></trkpt><trkpt lat="43.6696697" lon="10.7536539"><ele>58.0</ele><time>2026-04-04T13:08:11.881Z</time></trkpt><trkpt lat="43.6697758" lon="10.7538197"><ele>60.33333333333333</ele><time>2026-04-04T13:08:12.879Z</time></trkpt><trkpt lat="43.6698899" lon="10.7539912"><ele>62.66666666666667</ele><time>2026-04-04T13:08:13.881Z</time></trkpt><trkpt lat="43.6699946" lon="10.7541322"><ele>65.0</ele><time>2026-04-04T13:08:14.882Z</time></trkpt><trkpt lat="43.6700998" lon="10.7542509"><ele>65.0</ele><time>2026-04-04T13:08:15.881Z</time></trkpt><trkpt lat="43.6702243" lon="10.7543465"><ele>65.0</ele><time>2026-04-04T13:08:16.882Z</time></trkpt><trkpt lat="43.6703629" lon="10.7544097"><ele>65.0</ele><time>2026-04-04T13:08:17.882Z</time></trkpt><trkpt lat="43.6704971" lon="10.7544474"><ele>65.0</ele><time>2026-04-04T13:08:18.882Z</time></trkpt><trkpt lat="43.6706157" lon="10.7544735"><ele>66.4</ele><time>2026-04-04T13:08:19.882Z</time></trkpt><trkpt lat="43.6707254" lon="10.754482"><ele>67.8</ele><time>2026-04-04T13:08:20.882Z</time></trkpt><trkpt lat="43.6708074" lon="10.7544786"><ele>69.2</ele><time>2026-04-04T13:08:21.882Z</time></trkpt><trkpt lat="43.6708914" lon="10.7544603"><ele>70.6</ele><time>2026-04-04T13:08:23.882Z</time></trkpt><trkpt lat="43.6709861" lon="10.7543942"><ele>72.0</ele><time>2026-04-04T13:08:26.879Z</time></trkpt><trkpt lat="43.6710312" lon="10.7543215"><ele>72.0</ele><time>2026-04-04T13:08:27.885Z</time></trkpt><trkpt lat="43.671084" lon="10.7542222"><ele>72.0</ele><time>2026-04-04T13:08:28.88Z</time></trkpt><trkpt lat="43.6711449" lon="10.7541056"><ele>72.0</ele><time>2026-04-04T13:08:29.881Z</time></trkpt><trkpt lat="43.6712192" lon="10.7539924"><ele>72.0</ele><time>2026-04-04T13:08:30.88Z</time></trkpt><trkpt lat="43.6712881" lon="10.7538687"><ele>72.0</ele><time>2026-04-04T13:08:31.883Z</time></trkpt><trkpt lat="43.6713882" lon="10.7537398"><ele>72.0</ele><time>2026-04-04T13:08:32.881Z</time></trkpt><trkpt lat="43.6714873" lon="10.753604"><ele>72.0</ele><time>2026-04-04T13:08:33.88Z</time></trkpt><trkpt lat="43.671586" lon="10.7534677"><ele>72.0</ele><time>2026-04-04T13:08:34.881Z</time></trkpt><trkpt lat="43.6716856" lon="10.7533342"><ele>72.0</ele><time>2026-04-04T13:08:35.881Z</time></trkpt><trkpt lat="43.6717957" lon="10.7532063"><ele>71.75</ele><time>2026-04-04T13:08:36.883Z</time></trkpt><trkpt lat="43.671918" lon="10.7530911"><ele>71.5</ele><time>2026-04-04T13:08:37.881Z</time></trkpt><trkpt lat="43.6720465" lon="10.7529899"><ele>71.25</ele><time>2026-04-04T13:08:38.881Z</time></trkpt><trkpt lat="43.6721744" lon="10.7529067"><ele>71.0</ele><time>2026-04-04T13:08:39.881Z</time></trkpt><trkpt lat="43.6722973" lon="10.7528324"><ele>70.0</ele><time>2026-04-04T13:08:40.882Z</time></trkpt><trkpt lat="43.6724162" lon="10.7527619"><ele>69.0</ele><time>2026-04-04T13:08:41.882Z</time></trkpt><trkpt lat="43.6725266" lon="10.7526911"><ele>68.0</ele><time>2026-04-04T13:08:42.882Z</time></trkpt><trkpt lat="43.6726213" lon="10.7526359"><ele>67.0</ele><time>2026-04-04T13:08:43.88Z</time></trkpt><trkpt lat="43.6727094" lon="10.7526167"><ele>66.0</ele><time>2026-04-04T13:08:44.88Z</time></trkpt><trkpt lat="43.6728075" lon="10.7525906"><ele>66.0</ele><time>2026-04-04T13:08:45.882Z</time></trkpt><trkpt lat="43.6729032" lon="10.7525798"><ele>66.0</ele><time>2026-04-04T13:08:46.881Z</time></trkpt><trkpt lat="43.6730041" lon="10.7525574"><ele>66.0</ele><time>2026-04-04T13:08:47.881Z</time></trkpt><trkpt lat="43.6731098" lon="10.7525085"><ele>66.0</ele><time>2026-04-04T13:08:48.881Z</time></trkpt><trkpt lat="43.6732122" lon="10.7524632"><ele>66.0</ele><time>2026-04-04T13:08:49.886Z</time></trkpt><trkpt lat="43.6733155" lon="10.7524225"><ele>66.0</ele><time>2026-04-04T13:08:50.883Z</time></trkpt><trkpt lat="43.6734074" lon="10.7523871"><ele>66.0</ele><time>2026-04-04T13:08:51.882Z</time></trkpt><trkpt lat="43.6734788" lon="10.7523624"><ele>66.0</ele><time>2026-04-04T13:08:52.881Z</time></trkpt><trkpt lat="43.6735866" lon="10.7523726"><ele>66.0</ele><time>2026-04-04T13:08:54.883Z</time></trkpt><trkpt lat="43.6736543" lon="10.7523982"><ele>66.0</ele><time>2026-04-04T13:08:55.881Z</time></trkpt><trkpt lat="43.6737325" lon="10.752424"><ele>66.0</ele><time>2026-04-04T13:08:56.883Z</time></trkpt><trkpt lat="43.6738263" lon="10.7524658"><ele>65.0</ele><time>2026-04-04T13:08:57.883Z</time></trkpt><trkpt lat="43.6739707" lon="10.7524694"><ele>64.0</ele><time>2026-04-04T13:08:58.883Z</time></trkpt><trkpt lat="43.6741122" lon="10.7524872"><ele>63.0</ele><time>2026-04-04T13:08:59.881Z</time></trkpt><trkpt lat="43.6742517" lon="10.752499"><ele>62.0</ele><time>2026-04-04T13:09:00.881Z</time></trkpt><trkpt lat="43.6744095" lon="10.7525557"><ele>60.0</ele><time>2026-04-04T13:09:01.884Z</time></trkpt><trkpt lat="43.6745667" lon="10.7526252"><ele>58.0</ele><time>2026-04-04T13:09:02.881Z</time></trkpt><trkpt lat="43.6747142" lon="10.7526983"><ele>56.0</ele><time>2026-04-04T13:09:03.88Z</time></trkpt><trkpt lat="43.6748566" lon="10.7527636"><ele>55.5</ele><time>2026-04-04T13:09:04.882Z</time></trkpt><trkpt lat="43.675" lon="10.7528315"><ele>55.0</ele><time>2026-04-04T13:09:05.881Z</time></trkpt><trkpt lat="43.6751427" lon="10.7528973"><ele>54.5</ele><time>2026-04-04T13:09:06.879Z</time></trkpt><trkpt lat="43.6752687" lon="10.7529763"><ele>54.0</ele><time>2026-04-04T13:09:07.88Z</time></trkpt><trkpt lat="43.675396" lon="10.7530594"><ele>54.0</ele><time>2026-04-04T13:09:08.881Z</time></trkpt><trkpt lat="43.6755199" lon="10.7531279"><ele>54.0</ele><time>2026-04-04T13:09:09.881Z</time></trkpt><trkpt lat="43.6756425" lon="10.7531806"><ele>54.0</ele><time>2026-04-04T13:09:10.881Z</time></trkpt><trkpt lat="43.6757706" lon="10.7532139"><ele>54.0</ele><time>2026-04-04T13:09:11.881Z</time></trkpt><trkpt lat="43.6758955" lon="10.7532145"><ele>54.0</ele><time>2026-04-04T13:09:12.879Z</time></trkpt><trkpt lat="43.6760216" lon="10.7532219"><ele>54.0</ele><time>2026-04-04T13:09:13.883Z</time></trkpt><trkpt lat="43.6761321" lon="10.7531774"><ele>54.0</ele><time>2026-04-04T13:09:14.879Z</time></trkpt><trkpt lat="43.676238" lon="10.7531501"><ele>54.0</ele><time>2026-04-04T13:09:15.879Z</time></trkpt><trkpt lat="43.6763548" lon="10.7531186"><ele>53.800000000000004</ele><time>2026-04-04T13:09:16.882Z</time></trkpt><trkpt lat="43.6764459" lon="10.7530845"><ele>53.60000000000001</ele><time>2026-04-04T13:09:17.882Z</time></trkpt><trkpt lat="43.6765391" lon="10.753071"><ele>53.4</ele><time>2026-04-04T13:09:18.881Z</time></trkpt><trkpt lat="43.6766357" lon="10.7530646"><ele>53.2</ele><time>2026-04-04T13:09:19.883Z</time></trkpt><trkpt lat="43.6767335" lon="10.7530842"><ele>53.0</ele><time>2026-04-04T13:09:20.881Z</time></trkpt><trkpt lat="43.6768305" lon="10.7530926"><ele>54.2</ele><time>2026-04-04T13:09:21.882Z</time></trkpt><trkpt lat="43.6769505" lon="10.7530892"><ele>55.4</ele><time>2026-04-04T13:09:22.88Z</time></trkpt><trkpt lat="43.6770579" lon="10.753087"><ele>56.60000000000001</ele><time>2026-04-04T13:09:23.882Z</time></trkpt><trkpt lat="43.6771636" lon="10.7530854"><ele>57.800000000000004</ele><time>2026-04-04T13:09:24.881Z</time></trkpt><trkpt lat="43.677266" lon="10.7530942"><ele>59.0</ele><time>2026-04-04T13:09:25.88Z</time></trkpt><trkpt lat="43.6773599" lon="10.7531167"><ele>59.0</ele><time>2026-04-04T13:09:26.879Z</time></trkpt><trkpt lat="43.6774438" lon="10.7531456"><ele>59.00000000000001</ele><time>2026-04-04T13:09:27.882Z</time></trkpt><trkpt lat="43.6775221" lon="10.7531792"><ele>59.00000000000001</ele><time>2026-04-04T13:09:28.882Z</time></trkpt><trkpt lat="43.6776057" lon="10.7532104"><ele>59.0</ele><time>2026-04-04T13:09:29.879Z</time></trkpt><trkpt lat="43.6776891" lon="10.7532412"><ele>59.0</ele><time>2026-04-04T13:09:30.883Z</time></trkpt><trkpt lat="43.677794" lon="10.7532842"><ele>58.50000000000001</ele><time>2026-04-04T13:09:31.882Z</time></trkpt><trkpt lat="43.6778961" lon="10.7533305"><ele>58.0</ele><time>2026-04-04T13:09:32.882Z</time></trkpt><trkpt lat="43.6779902" lon="10.753372"><ele>57.5</ele><time>2026-04-04T13:09:33.88Z</time></trkpt><trkpt lat="43.6780604" lon="10.7533892"><ele>57.0</ele><time>2026-04-04T13:09:34.884Z</time></trkpt><trkpt lat="43.6781315" lon="10.7534053"><ele>56.50000000000001</ele><time>2026-04-04T13:09:35.882Z</time></trkpt><trkpt lat="43.678217" lon="10.7533788"><ele>56.0</ele><time>2026-04-04T13:09:36.882Z</time></trkpt><trkpt lat="43.678305" lon="10.7533219"><ele>56.0</ele><time>2026-04-04T13:09:37.881Z</time></trkpt><trkpt lat="43.6784064" lon="10.7532501"><ele>56.0</ele><time>2026-04-04T13:09:38.881Z</time></trkpt><trkpt lat="43.6785277" lon="10.7531602"><ele>56.0</ele><time>2026-04-04T13:09:39.883Z</time></trkpt><trkpt lat="43.6786644" lon="10.7530682"><ele>56.0</ele><time>2026-04-04T13:09:40.88Z</time></trkpt><trkpt lat="43.6788093" lon="10.7529765"><ele>52.66666666666667</ele><time>2026-04-04T13:09:41.881Z</time></trkpt><trkpt lat="43.6789489" lon="10.7528761"><ele>49.333333333333336</ele><time>2026-04-04T13:09:42.882Z</time></trkpt><trkpt lat="43.6790819" lon="10.7527789"><ele>46.0</ele><time>2026-04-04T13:09:43.881Z</time></trkpt><trkpt lat="43.6792183" lon="10.7526785"><ele>46.0</ele><time>2026-04-04T13:09:44.882Z</time></trkpt><trkpt lat="43.6793273" lon="10.7526005"><ele>46.0</ele><time>2026-04-04T13:09:45.882Z</time></trkpt><trkpt lat="43.6794266" lon="10.7525212"><ele>46.0</ele><time>2026-04-04T13:09:46.882Z</time></trkpt><trkpt lat="43.6795108" lon="10.7524175"><ele>46.0</ele><time>2026-04-04T13:09:47.88Z</time></trkpt><trkpt lat="43.679583" lon="10.7522961"><ele>45.4</ele><time>2026-04-04T13:09:48.881Z</time></trkpt><trkpt lat="43.6796558" lon="10.7521801"><ele>44.8</ele><time>2026-04-04T13:09:49.882Z</time></trkpt><trkpt lat="43.6797325" lon="10.7520753"><ele>44.199999999999996</ele><time>2026-04-04T13:09:50.879Z</time></trkpt><trkpt lat="43.6798141" lon="10.7519825"><ele>43.599999999999994</ele><time>2026-04-04T13:09:51.881Z</time></trkpt><trkpt lat="43.6798895" lon="10.7519107"><ele>43.0</ele><time>2026-04-04T13:09:52.88Z</time></trkpt><trkpt lat="43.6799619" lon="10.7518354"><ele>43.0</ele><time>2026-04-04T13:09:53.879Z</time></trkpt><trkpt lat="43.6800309" lon="10.7517652"><ele>43.0</ele><time>2026-04-04T13:09:54.881Z</time></trkpt><trkpt lat="43.6800961" lon="10.7516966"><ele>43.0</ele><time>2026-04-04T13:09:55.881Z</time></trkpt><trkpt lat="43.6801649" lon="10.7516217"><ele>43.0</ele><time>2026-04-04T13:09:56.881Z</time></trkpt><trkpt lat="43.6802349" lon="10.7515483"><ele>43.0</ele><time>2026-04-04T13:09:57.88Z</time></trkpt><trkpt lat="43.6803077" lon="10.7514775"><ele>43.0</ele><time>2026-04-04T13:09:58.88Z</time></trkpt><trkpt lat="43.6803842" lon="10.7514142"><ele>40.6</ele><time>2026-04-04T13:09:59.881Z</time></trkpt><trkpt lat="43.6804619" lon="10.7513599"><ele>38.199999999999996</ele><time>2026-04-04T13:10:00.879Z</time></trkpt><trkpt lat="43.6805412" lon="10.7513092"><ele>35.8</ele><time>2026-04-04T13:10:01.88Z</time></trkpt><trkpt lat="43.6806272" lon="10.7512885"><ele>33.4</ele><time>2026-04-04T13:10:02.879Z</time></trkpt><trkpt lat="43.6807214" lon="10.7512934"><ele>31.0</ele><time>2026-04-04T13:10:03.879Z</time></trkpt><trkpt lat="43.6808215" lon="10.7513146"><ele>31.000000000000004</ele><time>2026-04-04T13:10:04.883Z</time></trkpt><trkpt lat="43.6809212" lon="10.7513308"><ele>31.0</ele><time>2026-04-04T13:10:05.882Z</time></trkpt><trkpt lat="43.6810133" lon="10.7513455"><ele>31.0</ele><time>2026-04-04T13:10:06.883Z</time></trkpt><trkpt lat="43.6811075" lon="10.7513607"><ele>31.0</ele><time>2026-04-04T13:10:07.881Z</time></trkpt><trkpt lat="43.6811861" lon="10.7513681"><ele>31.000000000000004</ele><time>2026-04-04T13:10:08.883Z</time></trkpt><trkpt lat="43.6812508" lon="10.7513444"><ele>31.0</ele><time>2026-04-04T13:10:09.881Z</time></trkpt><trkpt lat="43.6813094" lon="10.7512991"><ele>30.333333333333336</ele><time>2026-04-04T13:10:10.879Z</time></trkpt><trkpt lat="43.6813704" lon="10.7512422"><ele>29.666666666666668</ele><time>2026-04-04T13:10:11.884Z</time></trkpt><trkpt lat="43.6814315" lon="10.7511822"><ele>29.0</ele><time>2026-04-04T13:10:12.88Z</time></trkpt><trkpt lat="43.6815002" lon="10.7511317"><ele>28.333333333333336</ele><time>2026-04-04T13:10:13.88Z</time></trkpt><trkpt lat="43.6815792" lon="10.7510872"><ele>27.666666666666668</ele><time>2026-04-04T13:10:14.882Z</time></trkpt><trkpt lat="43.6816696" lon="10.7510445"><ele>27.0</ele><time>2026-04-04T13:10:15.88Z</time></trkpt><trkpt lat="43.6817684" lon="10.7510059"><ele>27.0</ele><time>2026-04-04T13:10:16.882Z</time></trkpt><trkpt lat="43.6818799" lon="10.7509729"><ele>27.0</ele><time>2026-04-04T13:10:17.879Z</time></trkpt><trkpt lat="43.6820055" lon="10.7509489"><ele>27.0</ele><time>2026-04-04T13:10:18.88Z</time></trkpt><trkpt lat="43.6821364" lon="10.7509279"><ele>27.0</ele><time>2026-04-04T13:10:19.881Z</time></trkpt><trkpt lat="43.6822638" lon="10.7509053"><ele>27.0</ele><time>2026-04-04T13:10:20.881Z</time></trkpt><trkpt lat="43.682391" lon="10.7508923"><ele>27.000000000000004</ele><time>2026-04-04T13:10:21.88Z</time></trkpt><trkpt lat="43.6824967" lon="10.7508772"><ele>27.000000000000004</ele><time>2026-04-04T13:10:22.881Z</time></trkpt><trkpt lat="43.6825961" lon="10.7508472"><ele>27.0</ele><time>2026-04-04T13:10:23.88Z</time></trkpt><trkpt lat="43.6826928" lon="10.7507998"><ele>27.0</ele><time>2026-04-04T13:10:24.882Z</time></trkpt><trkpt lat="43.6827891" lon="10.750735"><ele>29.0</ele><time>2026-04-04T13:10:25.883Z</time></trkpt><trkpt lat="43.6828924" lon="10.7506627"><ele>31.000000000000004</ele><time>2026-04-04T13:10:26.88Z</time></trkpt><trkpt lat="43.6829876" lon="10.7506068"><ele>33.0</ele><time>2026-04-04T13:10:27.881Z</time></trkpt><trkpt lat="43.6830612" lon="10.7505364"><ele>35.0</ele><time>2026-04-04T13:10:28.879Z</time></trkpt><trkpt lat="43.6831233" lon="10.7504393"><ele>37.0</ele><time>2026-04-04T13:10:29.881Z</time></trkpt><trkpt lat="43.6831754" lon="10.7503069"><ele>37.2</ele><time>2026-04-04T13:10:30.882Z</time></trkpt><trkpt lat="43.6832126" lon="10.7501488"><ele>37.400000000000006</ele><time>2026-04-04T13:10:31.88Z</time></trkpt><trkpt lat="43.6832354" lon="10.7499998"><ele>37.599999999999994</ele><time>2026-04-04T13:10:32.88Z</time></trkpt><trkpt lat="43.6832624" lon="10.7498797"><ele>37.8</ele><time>2026-04-04T13:10:33.881Z</time></trkpt><trkpt lat="43.6833158" lon="10.7498013"><ele>38.0</ele><time>2026-04-04T13:10:34.879Z</time></trkpt><trkpt lat="43.6833598" lon="10.7497319"><ele>38.0</ele><time>2026-04-04T13:10:35.883Z</time></trkpt><trkpt lat="43.6834434" lon="10.7497193"><ele>38.0</ele><time>2026-04-04T13:10:36.882Z</time></trkpt><trkpt lat="43.6835406" lon="10.7496913"><ele>38.0</ele><time>2026-04-04T13:10:37.881Z</time></trkpt><trkpt lat="43.6836498" lon="10.74966"><ele>38.0</ele><time>2026-04-04T13:10:38.881Z</time></trkpt><trkpt lat="43.6837439" lon="10.7496396"><ele>38.0</ele><time>2026-04-04T13:10:39.881Z</time></trkpt><trkpt lat="43.6838148" lon="10.7496132"><ele>39.4</ele><time>2026-04-04T13:10:40.88Z</time></trkpt><trkpt lat="43.6838979" lon="10.7495714"><ele>40.8</ele><time>2026-04-04T13:10:42.882Z</time></trkpt><trkpt lat="43.6839528" lon="10.7495234"><ele>42.2</ele><time>2026-04-04T13:10:44.881Z</time></trkpt><trkpt lat="43.6839321" lon="10.7493549"><ele>43.6</ele><time>2026-04-04T13:10:54.881Z</time></trkpt><trkpt lat="43.6838953" lon="10.7492507"><ele>45.0</ele><time>2026-04-04T13:10:55.879Z</time></trkpt><trkpt lat="43.6838401" lon="10.7491368"><ele>45.0</ele><time>2026-04-04T13:10:56.882Z</time></trkpt><trkpt lat="43.683779" lon="10.7490003"><ele>45.0</ele><time>2026-04-04T13:10:57.878Z</time></trkpt><trkpt lat="43.6837125" lon="10.7488264"><ele>45.0</ele><time>2026-04-04T13:10:58.88Z</time></trkpt><trkpt lat="43.6836338" lon="10.7486041"><ele>45.0</ele><time>2026-04-04T13:10:59.881Z</time></trkpt><trkpt lat="43.6835573" lon="10.7483736"><ele>44.0</ele><time>2026-04-04T13:11:00.879Z</time></trkpt><trkpt lat="43.6834926" lon="10.7481415"><ele>43.0</ele><time>2026-04-04T13:11:01.88Z</time></trkpt><trkpt lat="43.6834257" lon="10.7478982"><ele>42.0</ele><time>2026-04-04T13:11:02.884Z</time></trkpt><trkpt lat="43.6833582" lon="10.7476519"><ele>41.0</ele><time>2026-04-04T13:11:03.879Z</time></trkpt><trkpt lat="43.6832969" lon="10.7474258"><ele>40.0</ele><time>2026-04-04T13:11:04.881Z</time></trkpt><trkpt lat="43.6832366" lon="10.7472099"><ele>39.0</ele><time>2026-04-04T13:11:05.879Z</time></trkpt><trkpt lat="43.6831719" lon="10.7469975"><ele>37.666666666666664</ele><time>2026-04-04T13:11:06.881Z</time></trkpt><trkpt lat="43.6831215" lon="10.7467906"><ele>36.33333333333333</ele><time>2026-04-04T13:11:07.879Z</time></trkpt><trkpt lat="43.6830597" lon="10.7465814"><ele>35.0</ele><time>2026-04-04T13:11:08.883Z</time></trkpt><trkpt lat="43.6829988" lon="10.7463681"><ele>35.0</ele><time>2026-04-04T13:11:09.879Z</time></trkpt><trkpt lat="43.6829383" lon="10.7461629"><ele>35.0</ele><time>2026-04-04T13:11:10.88Z</time></trkpt><trkpt lat="43.6828737" lon="10.7459666"><ele>35.0</ele><time>2026-04-04T13:11:11.88Z</time></trkpt><trkpt lat="43.6827966" lon="10.7457666"><ele>34.666666666666664</ele><time>2026-04-04T13:11:12.881Z</time></trkpt><trkpt lat="43.6827021" lon="10.7455615"><ele>34.333333333333336</ele><time>2026-04-04T13:11:13.879Z</time></trkpt><trkpt lat="43.6826011" lon="10.7453503"><ele>34.0</ele><time>2026-04-04T13:11:14.88Z</time></trkpt><trkpt lat="43.6825013" lon="10.7451283"><ele>33.0</ele><time>2026-04-04T13:11:15.88Z</time></trkpt><trkpt lat="43.6823628" lon="10.7448743"><ele>32.0</ele><time>2026-04-04T13:11:16.88Z</time></trkpt><trkpt lat="43.6822168" lon="10.7446212"><ele>29.5</ele><time>2026-04-04T13:11:17.881Z</time></trkpt><trkpt lat="43.6820604" lon="10.7443641"><ele>27.0</ele><time>2026-04-04T13:11:18.88Z</time></trkpt><trkpt lat="43.6818967" lon="10.7441035"><ele>26.5</ele><time>2026-04-04T13:11:19.88Z</time></trkpt><trkpt lat="43.6817226" lon="10.7438482"><ele>26.0</ele><time>2026-04-04T13:11:20.879Z</time></trkpt><trkpt lat="43.6815493" lon="10.7436073"><ele>24.5</ele><time>2026-04-04T13:11:21.882Z</time></trkpt><trkpt lat="43.6813622" lon="10.7433348"><ele>23.0</ele><time>2026-04-04T13:11:22.881Z</time></trkpt><trkpt lat="43.6811804" lon="10.7430722"><ele>23.0</ele><time>2026-04-04T13:11:23.881Z</time></trkpt><trkpt lat="43.6810139" lon="10.7428434"><ele>23.0</ele><time>2026-04-04T13:11:24.879Z</time></trkpt><trkpt lat="43.6808458" lon="10.7426191"><ele>24.0</ele><time>2026-04-04T13:11:25.88Z</time></trkpt><trkpt lat="43.6806788" lon="10.7423859"><ele>25.0</ele><time>2026-04-04T13:11:26.881Z</time></trkpt><trkpt lat="43.6805147" lon="10.7421491"><ele>25.0</ele><time>2026-04-04T13:11:27.881Z</time></trkpt><trkpt lat="43.6803438" lon="10.7419141"><ele>25.0</ele><time>2026-04-04T13:11:28.881Z</time></trkpt><trkpt lat="43.6801765" lon="10.7416731"><ele>23.5</ele><time>2026-04-04T13:11:29.881Z</time></trkpt><trkpt lat="43.6800107" lon="10.7414439"><ele>22.0</ele><time>2026-04-04T13:11:30.881Z</time></trkpt><trkpt lat="43.6798538" lon="10.7412256"><ele>23.0</ele><time>2026-04-04T13:11:31.881Z</time></trkpt><trkpt lat="43.6797044" lon="10.7410306"><ele>24.0</ele><time>2026-04-04T13:11:32.881Z</time></trkpt><trkpt lat="43.6795465" lon="10.7408493"><ele>25.0</ele><time>2026-04-04T13:11:33.881Z</time></trkpt><trkpt lat="43.679374" lon="10.7406831"><ele>26.333333333333336</ele><time>2026-04-04T13:11:34.879Z</time></trkpt><trkpt lat="43.6791851" lon="10.7405356"><ele>27.666666666666664</ele><time>2026-04-04T13:11:35.88Z</time></trkpt><trkpt lat="43.6789955" lon="10.7403839"><ele>29.0</ele><time>2026-04-04T13:11:36.88Z</time></trkpt><trkpt lat="43.678799" lon="10.7402515"><ele>29.333333333333332</ele><time>2026-04-04T13:11:37.878Z</time></trkpt><trkpt lat="43.6786118" lon="10.7401175"><ele>29.666666666666664</ele><time>2026-04-04T13:11:38.88Z</time></trkpt><trkpt lat="43.6784231" lon="10.7399817"><ele>30.0</ele><time>2026-04-04T13:11:39.88Z</time></trkpt><trkpt lat="43.6782462" lon="10.7398527"><ele>31.666666666666664</ele><time>2026-04-04T13:11:40.881Z</time></trkpt><trkpt lat="43.6780745" lon="10.7397258"><ele>33.33333333333333</ele><time>2026-04-04T13:11:41.88Z</time></trkpt><trkpt lat="43.6779078" lon="10.7395944"><ele>35.0</ele><time>2026-04-04T13:11:42.88Z</time></trkpt><trkpt lat="43.6777539" lon="10.7394573"><ele>37.0</ele><time>2026-04-04T13:11:43.882Z</time></trkpt><trkpt lat="43.6776178" lon="10.7393169"><ele>39.0</ele><time>2026-04-04T13:11:44.879Z</time></trkpt><trkpt lat="43.677478" lon="10.7391784"><ele>41.0</ele><time>2026-04-04T13:11:45.882Z</time></trkpt><trkpt lat="43.6773416" lon="10.739045"><ele>41.0</ele><time>2026-04-04T13:11:46.883Z</time></trkpt><trkpt lat="43.6772158" lon="10.7389311"><ele>41.0</ele><time>2026-04-04T13:11:47.88Z</time></trkpt><trkpt lat="43.6770981" lon="10.7388323"><ele>41.0</ele><time>2026-04-04T13:11:48.879Z</time></trkpt><trkpt lat="43.676985" lon="10.7387401"><ele>41.0</ele><time>2026-04-04T13:11:49.881Z</time></trkpt><trkpt lat="43.6768794" lon="10.7386579"><ele>42.0</ele><time>2026-04-04T13:11:50.879Z</time></trkpt><trkpt lat="43.6767721" lon="10.7385669"><ele>43.0</ele><time>2026-04-04T13:11:51.879Z</time></trkpt><trkpt lat="43.6766741" lon="10.7384604"><ele>44.0</ele><time>2026-04-04T13:11:52.88Z</time></trkpt><trkpt lat="43.6765978" lon="10.7383418"><ele>45.0</ele><time>2026-04-04T13:11:53.883Z</time></trkpt><trkpt lat="43.6765503" lon="10.738206"><ele>45.25</ele><time>2026-04-04T13:11:54.882Z</time></trkpt><trkpt lat="43.6765316" lon="10.7380413"><ele>45.5</ele><time>2026-04-04T13:11:55.881Z</time></trkpt><trkpt lat="43.6765339" lon="10.7378709"><ele>45.75</ele><time>2026-04-04T13:11:56.881Z</time></trkpt><trkpt lat="43.6765582" lon="10.737688"><ele>46.0</ele><time>2026-04-04T13:11:57.88Z</time></trkpt><trkpt lat="43.6765865" lon="10.7375096"><ele>45.5</ele><time>2026-04-04T13:11:58.885Z</time></trkpt><trkpt lat="43.6766036" lon="10.7373425"><ele>45.0</ele><time>2026-04-04T13:11:59.883Z</time></trkpt><trkpt lat="43.6766213" lon="10.7371815"><ele>44.5</ele><time>2026-04-04T13:12:00.88Z</time></trkpt><trkpt lat="43.6766311" lon="10.7370232"><ele>44.0</ele><time>2026-04-04T13:12:01.881Z</time></trkpt><trkpt lat="43.6766298" lon="10.7368892"><ele>43.800000000000004</ele><time>2026-04-04T13:12:02.88Z</time></trkpt><trkpt lat="43.6766213" lon="10.736745"><ele>43.6</ele><time>2026-04-04T13:12:04.882Z</time></trkpt><trkpt lat="43.6766017" lon="10.7366393"><ele>43.4</ele><time>2026-04-04T13:12:12.878Z</time></trkpt><trkpt lat="43.6765926" lon="10.7364534"><ele>43.2</ele><time>2026-04-04T13:12:14.883Z</time></trkpt><trkpt lat="43.6765924" lon="10.7363102"><ele>43.0</ele><time>2026-04-04T13:12:15.881Z</time></trkpt><trkpt lat="43.6765772" lon="10.7361508"><ele>43.0</ele><time>2026-04-04T13:12:16.879Z</time></trkpt><trkpt lat="43.67655" lon="10.7359935"><ele>43.0</ele><time>2026-04-04T13:12:17.881Z</time></trkpt><trkpt lat="43.6765245" lon="10.7358322"><ele>43.0</ele><time>2026-04-04T13:12:18.881Z</time></trkpt><trkpt lat="43.6764995" lon="10.7357073"><ele>43.0</ele><time>2026-04-04T13:12:19.89Z</time></trkpt><trkpt lat="43.6764735" lon="10.7355838"><ele>43.0</ele><time>2026-04-04T13:12:20.88Z</time></trkpt><trkpt lat="43.6764498" lon="10.7354522"><ele>43.0</ele><time>2026-04-04T13:12:21.88Z</time></trkpt><trkpt lat="43.6764279" lon="10.7353226"><ele>43.0</ele><time>2026-04-04T13:12:22.879Z</time></trkpt><trkpt lat="43.6764031" lon="10.7351959"><ele>43.0</ele><time>2026-04-04T13:12:23.88Z</time></trkpt><trkpt lat="43.676375" lon="10.7350702"><ele>43.0</ele><time>2026-04-04T13:12:24.884Z</time></trkpt><trkpt lat="43.6763401" lon="10.7349189"><ele>43.0</ele><time>2026-04-04T13:12:25.881Z</time></trkpt><trkpt lat="43.676293" lon="10.734748"><ele>43.0</ele><time>2026-04-04T13:12:26.879Z</time></trkpt><trkpt lat="43.6762499" lon="10.7345665"><ele>43.0</ele><time>2026-04-04T13:12:27.882Z</time></trkpt><trkpt lat="43.6762057" lon="10.7343842"><ele>43.0</ele><time>2026-04-04T13:12:28.88Z</time></trkpt><trkpt lat="43.6761718" lon="10.7341999"><ele>43.0</ele><time>2026-04-04T13:12:29.879Z</time></trkpt><trkpt lat="43.6761393" lon="10.7340164"><ele>42.5</ele><time>2026-04-04T13:12:30.882Z</time></trkpt><trkpt lat="43.6760943" lon="10.7338329"><ele>42.0</ele><time>2026-04-04T13:12:31.881Z</time></trkpt><trkpt lat="43.6760573" lon="10.7336568"><ele>41.5</ele><time>2026-04-04T13:12:32.881Z</time></trkpt><trkpt lat="43.676022" lon="10.7334778"><ele>41.0</ele><time>2026-04-04T13:12:33.879Z</time></trkpt><trkpt lat="43.6759898" lon="10.7333002"><ele>41.0</ele><time>2026-04-04T13:12:34.881Z</time></trkpt><trkpt lat="43.6759524" lon="10.7331208"><ele>41.0</ele><time>2026-04-04T13:12:35.88Z</time></trkpt><trkpt lat="43.675915" lon="10.7329367"><ele>41.0</ele><time>2026-04-04T13:12:36.883Z</time></trkpt><trkpt lat="43.6758844" lon="10.7327453"><ele>41.0</ele><time>2026-04-04T13:12:37.881Z</time></trkpt><trkpt lat="43.6758483" lon="10.7325628"><ele>40.5</ele><time>2026-04-04T13:12:38.886Z</time></trkpt><trkpt lat="43.6758099" lon="10.7323843"><ele>40.0</ele><time>2026-04-04T13:12:39.879Z</time></trkpt><trkpt lat="43.6757731" lon="10.7322026"><ele>39.5</ele><time>2026-04-04T13:12:40.88Z</time></trkpt><trkpt lat="43.6757397" lon="10.7320316"><ele>39.0</ele><time>2026-04-04T13:12:41.882Z</time></trkpt><trkpt lat="43.6757045" lon="10.7318678"><ele>39.0</ele><time>2026-04-04T13:12:42.882Z</time></trkpt><trkpt lat="43.6756627" lon="10.731703"><ele>39.0</ele><time>2026-04-04T13:12:43.881Z</time></trkpt><trkpt lat="43.6756021" lon="10.7315562"><ele>39.0</ele><time>2026-04-04T13:12:44.88Z</time></trkpt><trkpt lat="43.6755351" lon="10.7314271"><ele>39.0</ele><time>2026-04-04T13:12:45.88Z</time></trkpt><trkpt lat="43.6754642" lon="10.7313127"><ele>39.0</ele><time>2026-04-04T13:12:46.879Z</time></trkpt><trkpt lat="43.675396" lon="10.7312031"><ele>39.0</ele><time>2026-04-04T13:12:47.879Z</time></trkpt><trkpt lat="43.675326" lon="10.7310961"><ele>39.0</ele><time>2026-04-04T13:12:48.879Z</time></trkpt><trkpt lat="43.6752542" lon="10.7309818"><ele>39.0</ele><time>2026-04-04T13:12:49.882Z</time></trkpt><trkpt lat="43.6751802" lon="10.7308626"><ele>39.0</ele><time>2026-04-04T13:12:50.88Z</time></trkpt><trkpt lat="43.6750966" lon="10.7307316"><ele>39.333333333333336</ele><time>2026-04-04T13:12:51.88Z</time></trkpt><trkpt lat="43.6750067" lon="10.7305933"><ele>39.66666666666667</ele><time>2026-04-04T13:12:52.878Z</time></trkpt><trkpt lat="43.6749045" lon="10.7304302"><ele>40.0</ele><time>2026-04-04T13:12:53.879Z</time></trkpt><trkpt lat="43.6747809" lon="10.7302519"><ele>39.0</ele><time>2026-04-04T13:12:54.88Z</time></trkpt><trkpt lat="43.6746611" lon="10.730083"><ele>38.0</ele><time>2026-04-04T13:12:55.882Z</time></trkpt><trkpt lat="43.6745002" lon="10.7298784"><ele>37.0</ele><time>2026-04-04T13:12:56.88Z</time></trkpt><trkpt lat="43.6743451" lon="10.7296685"><ele>36.333333333333336</ele><time>2026-04-04T13:12:57.88Z</time></trkpt><trkpt lat="43.6741946" lon="10.729456"><ele>35.666666666666664</ele><time>2026-04-04T13:12:58.88Z</time></trkpt><trkpt lat="43.67405" lon="10.7292537"><ele>35.0</ele><time>2026-04-04T13:12:59.882Z</time></trkpt><trkpt lat="43.6739089" lon="10.7290599"><ele>35.0</ele><time>2026-04-04T13:13:00.879Z</time></trkpt><trkpt lat="43.6737802" lon="10.7288769"><ele>35.0</ele><time>2026-04-04T13:13:01.882Z</time></trkpt><trkpt lat="43.6736562" lon="10.7287008"><ele>35.0</ele><time>2026-04-04T13:13:02.881Z</time></trkpt><trkpt lat="43.6735536" lon="10.7285177"><ele>33.666666666666664</ele><time>2026-04-04T13:13:03.88Z</time></trkpt><trkpt lat="43.6734683" lon="10.7283343"><ele>32.333333333333336</ele><time>2026-04-04T13:13:04.88Z</time></trkpt><trkpt lat="43.6733932" lon="10.7281373"><ele>31.0</ele><time>2026-04-04T13:13:05.881Z</time></trkpt><trkpt lat="43.6733216" lon="10.7279247"><ele>30.333333333333336</ele><time>2026-04-04T13:13:06.879Z</time></trkpt><trkpt lat="43.6732549" lon="10.7277022"><ele>29.666666666666664</ele><time>2026-04-04T13:13:07.879Z</time></trkpt><trkpt lat="43.6731917" lon="10.7274804"><ele>29.0</ele><time>2026-04-04T13:13:08.881Z</time></trkpt><trkpt lat="43.6731296" lon="10.7272703"><ele>29.0</ele><time>2026-04-04T13:13:09.883Z</time></trkpt><trkpt lat="43.6730724" lon="10.7270839"><ele>29.0</ele><time>2026-04-04T13:13:10.88Z</time></trkpt><trkpt lat="43.67302" lon="10.7269051"><ele>29.0</ele><time>2026-04-04T13:13:11.88Z</time></trkpt><trkpt lat="43.672972" lon="10.7267251"><ele>29.0</ele><time>2026-04-04T13:13:12.882Z</time></trkpt><trkpt lat="43.6729245" lon="10.7265366"><ele>28.333333333333332</ele><time>2026-04-04T13:13:13.883Z</time></trkpt><trkpt lat="43.6728727" lon="10.7263394"><ele>27.666666666666664</ele><time>2026-04-04T13:13:14.881Z</time></trkpt><trkpt lat="43.6728208" lon="10.7261362"><ele>27.0</ele><time>2026-04-04T13:13:15.88Z</time></trkpt><trkpt lat="43.6727632" lon="10.7259306"><ele>25.75</ele><time>2026-04-04T13:13:16.881Z</time></trkpt><trkpt lat="43.6727068" lon="10.7257422"><ele>24.5</ele><time>2026-04-04T13:13:17.88Z</time></trkpt><trkpt lat="43.6726559" lon="10.7255668"><ele>23.25</ele><time>2026-04-04T13:13:18.88Z</time></trkpt><trkpt lat="43.6726176" lon="10.7253991"><ele>22.0</ele><time>2026-04-04T13:13:19.879Z</time></trkpt><trkpt lat="43.6726" lon="10.7252349"><ele>22.0</ele><time>2026-04-04T13:13:20.881Z</time></trkpt><trkpt lat="43.6726147" lon="10.7250542"><ele>22.0</ele><time>2026-04-04T13:13:21.88Z</time></trkpt><trkpt lat="43.6726605" lon="10.724877"><ele>22.0</ele><time>2026-04-04T13:13:22.88Z</time></trkpt><trkpt lat="43.6727354" lon="10.7247065"><ele>22.0</ele><time>2026-04-04T13:13:23.88Z</time></trkpt><trkpt lat="43.6728346" lon="10.7245422"><ele>21.25</ele><time>2026-04-04T13:13:24.879Z</time></trkpt><trkpt lat="43.6729451" lon="10.724395"><ele>20.5</ele><time>2026-04-04T13:13:25.88Z</time></trkpt><trkpt lat="43.6730459" lon="10.7242504"><ele>19.75</ele><time>2026-04-04T13:13:26.881Z</time></trkpt><trkpt lat="43.6731347" lon="10.7241047"><ele>19.0</ele><time>2026-04-04T13:13:27.88Z</time></trkpt><trkpt lat="43.673213" lon="10.723962"><ele>19.0</ele><time>2026-04-04T13:13:28.88Z</time></trkpt><trkpt lat="43.6732816" lon="10.7238154"><ele>19.0</ele><time>2026-04-04T13:13:29.88Z</time></trkpt><trkpt lat="43.6733323" lon="10.7236647"><ele>19.0</ele><time>2026-04-04T13:13:30.88Z</time></trkpt><trkpt lat="43.6733489" lon="10.7234945"><ele>19.0</ele><time>2026-04-04T13:13:31.878Z</time></trkpt><trkpt lat="43.6733305" lon="10.723323"><ele>19.0</ele><time>2026-04-04T13:13:32.882Z</time></trkpt><trkpt lat="43.6732808" lon="10.7231733"><ele>19.0</ele><time>2026-04-04T13:13:33.88Z</time></trkpt><trkpt lat="43.6731993" lon="10.7230559"><ele>19.0</ele><time>2026-04-04T13:13:34.88Z</time></trkpt><trkpt lat="43.6730893" lon="10.7229451"><ele>19.0</ele><time>2026-04-04T13:13:35.88Z</time></trkpt><trkpt lat="43.6729738" lon="10.7228316"><ele>19.666666666666664</ele><time>2026-04-04T13:13:36.88Z</time></trkpt><trkpt lat="43.6728222" lon="10.7227071"><ele>20.333333333333332</ele><time>2026-04-04T13:13:37.881Z</time></trkpt><trkpt lat="43.6726605" lon="10.7225776"><ele>21.0</ele><time>2026-04-04T13:13:38.881Z</time></trkpt><trkpt lat="43.6724897" lon="10.722443"><ele>21.0</ele><time>2026-04-04T13:13:39.88Z</time></trkpt><trkpt lat="43.6723048" lon="10.7223003"><ele>21.0</ele><time>2026-04-04T13:13:40.882Z</time></trkpt><trkpt lat="43.6721303" lon="10.722162"><ele>21.0</ele><time>2026-04-04T13:13:41.88Z</time></trkpt><trkpt lat="43.6719677" lon="10.7220319"><ele>21.0</ele><time>2026-04-04T13:13:42.88Z</time></trkpt><trkpt lat="43.6718193" lon="10.7219024"><ele>21.0</ele><time>2026-04-04T13:13:43.881Z</time></trkpt><trkpt lat="43.6716884" lon="10.7217674"><ele>21.0</ele><time>2026-04-04T13:13:44.878Z</time></trkpt><trkpt lat="43.6715633" lon="10.7216271"><ele>21.0</ele><time>2026-04-04T13:13:45.879Z</time></trkpt><trkpt lat="43.6714826" lon="10.7214328"><ele>21.0</ele><time>2026-04-04T13:13:46.878Z</time></trkpt><trkpt lat="43.6714186" lon="10.7212202"><ele>21.0</ele><time>2026-04-04T13:13:47.881Z</time></trkpt><trkpt lat="43.6713568" lon="10.7209834"><ele>20.666666666666668</ele><time>2026-04-04T13:13:48.881Z</time></trkpt><trkpt lat="43.6712886" lon="10.7207218"><ele>20.333333333333336</ele><time>2026-04-04T13:13:49.881Z</time></trkpt><trkpt lat="43.6712143" lon="10.7204504"><ele>20.0</ele><time>2026-04-04T13:13:50.887Z</time></trkpt><trkpt lat="43.6711387" lon="10.7201638"><ele>21.0</ele><time>2026-04-04T13:13:51.88Z</time></trkpt><trkpt lat="43.6710592" lon="10.7198676"><ele>22.0</ele><time>2026-04-04T13:13:52.879Z</time></trkpt><trkpt lat="43.6709771" lon="10.7195626"><ele>21.0</ele><time>2026-04-04T13:13:53.878Z</time></trkpt><trkpt lat="43.6708943" lon="10.7192502"><ele>20.0</ele><time>2026-04-04T13:13:54.879Z</time></trkpt><trkpt lat="43.6708131" lon="10.7189402"><ele>20.0</ele><time>2026-04-04T13:13:55.88Z</time></trkpt><trkpt lat="43.6707312" lon="10.7186414"><ele>20.0</ele><time>2026-04-04T13:13:56.878Z</time></trkpt><trkpt lat="43.6706525" lon="10.718355"><ele>19.666666666666668</ele><time>2026-04-04T13:13:57.878Z</time></trkpt><trkpt lat="43.6705783" lon="10.7180553"><ele>19.333333333333332</ele><time>2026-04-04T13:13:58.878Z</time></trkpt><trkpt lat="43.6705005" lon="10.7177855"><ele>19.0</ele><time>2026-04-04T13:13:59.88Z</time></trkpt><trkpt lat="43.6704313" lon="10.7175113"><ele>19.333333333333332</ele><time>2026-04-04T13:14:00.88Z</time></trkpt><trkpt lat="43.6703596" lon="10.7172661"><ele>19.666666666666668</ele><time>2026-04-04T13:14:01.879Z</time></trkpt><trkpt lat="43.6702906" lon="10.717025"><ele>20.0</ele><time>2026-04-04T13:14:02.879Z</time></trkpt><trkpt lat="43.6702293" lon="10.716799"><ele>20.0</ele><time>2026-04-04T13:14:03.878Z</time></trkpt><trkpt lat="43.670177" lon="10.7165943"><ele>20.0</ele><time>2026-04-04T13:14:04.878Z</time></trkpt><trkpt lat="43.6701288" lon="10.7164075"><ele>20.0</ele><time>2026-04-04T13:14:05.878Z</time></trkpt><trkpt lat="43.670079" lon="10.716217"><ele>20.0</ele><time>2026-04-04T13:14:06.882Z</time></trkpt><trkpt lat="43.6700338" lon="10.7160313"><ele>20.0</ele><time>2026-04-04T13:14:07.879Z</time></trkpt><trkpt lat="43.6699854" lon="10.7158422"><ele>20.0</ele><time>2026-04-04T13:14:08.88Z</time></trkpt><trkpt lat="43.6699307" lon="10.7156432"><ele>20.0</ele><time>2026-04-04T13:14:09.88Z</time></trkpt><trkpt lat="43.669877" lon="10.7154372"><ele>19.666666666666668</ele><time>2026-04-04T13:14:10.879Z</time></trkpt><trkpt lat="43.6698213" lon="10.7152191"><ele>19.333333333333332</ele><time>2026-04-04T13:14:11.878Z</time></trkpt><trkpt lat="43.6697649" lon="10.7150012"><ele>19.0</ele><time>2026-04-04T13:14:12.881Z</time></trkpt><trkpt lat="43.6697107" lon="10.7147943"><ele>19.0</ele><time>2026-04-04T13:14:13.879Z</time></trkpt><trkpt lat="43.6696535" lon="10.7145839"><ele>19.0</ele><time>2026-04-04T13:14:14.88Z</time></trkpt><trkpt lat="43.6696012" lon="10.7143762"><ele>19.0</ele><time>2026-04-04T13:14:15.88Z</time></trkpt><trkpt lat="43.6695459" lon="10.7141732"><ele>19.0</ele><time>2026-04-04T13:14:16.88Z</time></trkpt><trkpt lat="43.6694897" lon="10.7139623"><ele>19.0</ele><time>2026-04-04T13:14:17.878Z</time></trkpt><trkpt lat="43.669432" lon="10.7137481"><ele>19.0</ele><time>2026-04-04T13:14:18.879Z</time></trkpt><trkpt lat="43.6693729" lon="10.7135242"><ele>19.0</ele><time>2026-04-04T13:14:19.878Z</time></trkpt><trkpt lat="43.6693171" lon="10.7132962"><ele>19.0</ele><time>2026-04-04T13:14:20.879Z</time></trkpt><trkpt lat="43.6692473" lon="10.7130366"><ele>19.0</ele><time>2026-04-04T13:14:21.878Z</time></trkpt><trkpt lat="43.6691776" lon="10.7127895"><ele>18.666666666666664</ele><time>2026-04-04T13:14:22.88Z</time></trkpt><trkpt lat="43.6691044" lon="10.7125105"><ele>18.333333333333332</ele><time>2026-04-04T13:14:23.882Z</time></trkpt><trkpt lat="43.6690269" lon="10.7122312"><ele>18.0</ele><time>2026-04-04T13:14:24.879Z</time></trkpt><trkpt lat="43.6689494" lon="10.7119494"><ele>17.666666666666668</ele><time>2026-04-04T13:14:25.878Z</time></trkpt><trkpt lat="43.6688737" lon="10.7116774"><ele>17.333333333333336</ele><time>2026-04-04T13:14:26.88Z</time></trkpt><trkpt lat="43.6688074" lon="10.7114133"><ele>17.0</ele><time>2026-04-04T13:14:27.88Z</time></trkpt><trkpt lat="43.6687405" lon="10.7111664"><ele>17.333333333333336</ele><time>2026-04-04T13:14:28.88Z</time></trkpt><trkpt lat="43.6686778" lon="10.7109318"><ele>17.666666666666668</ele><time>2026-04-04T13:14:29.882Z</time></trkpt><trkpt lat="43.6686184" lon="10.7106789"><ele>18.0</ele><time>2026-04-04T13:14:30.879Z</time></trkpt><trkpt lat="43.6685562" lon="10.7104574"><ele>18.0</ele><time>2026-04-04T13:14:31.877Z</time></trkpt><trkpt lat="43.6684984" lon="10.7102439"><ele>18.0</ele><time>2026-04-04T13:14:32.876Z</time></trkpt><trkpt lat="43.6684399" lon="10.7100266"><ele>18.0</ele><time>2026-04-04T13:14:33.877Z</time></trkpt><trkpt lat="43.6683787" lon="10.7098145"><ele>18.0</ele><time>2026-04-04T13:14:34.877Z</time></trkpt><trkpt lat="43.668321" lon="10.7096042"><ele>18.0</ele><time>2026-04-04T13:14:35.875Z</time></trkpt><trkpt lat="43.6682602" lon="10.7093796"><ele>18.0</ele><time>2026-04-04T13:14:36.875Z</time></trkpt><trkpt lat="43.668204" lon="10.7091716"><ele>18.0</ele><time>2026-04-04T13:14:37.878Z</time></trkpt><trkpt lat="43.6681424" lon="10.7089572"><ele>18.0</ele><time>2026-04-04T13:14:38.877Z</time></trkpt><trkpt lat="43.668084" lon="10.7087369"><ele>18.0</ele><time>2026-04-04T13:14:39.881Z</time></trkpt><trkpt lat="43.6680099" lon="10.7085122"><ele>18.333333333333332</ele><time>2026-04-04T13:14:40.877Z</time></trkpt><trkpt lat="43.6679391" lon="10.7082872"><ele>18.666666666666664</ele><time>2026-04-04T13:14:41.879Z</time></trkpt><trkpt lat="43.6678682" lon="10.7080719"><ele>19.0</ele><time>2026-04-04T13:14:42.88Z</time></trkpt><trkpt lat="43.6677839" lon="10.7078477"><ele>19.0</ele><time>2026-04-04T13:14:43.882Z</time></trkpt><trkpt lat="43.6677001" lon="10.7076297"><ele>19.0</ele><time>2026-04-04T13:14:44.88Z</time></trkpt><trkpt lat="43.6676317" lon="10.7074266"><ele>19.0</ele><time>2026-04-04T13:14:45.882Z</time></trkpt><trkpt lat="43.6675727" lon="10.707233"><ele>19.0</ele><time>2026-04-04T13:14:46.879Z</time></trkpt><trkpt lat="43.6675055" lon="10.7070471"><ele>19.0</ele><time>2026-04-04T13:14:47.881Z</time></trkpt><trkpt lat="43.6674386" lon="10.7068684"><ele>19.0</ele><time>2026-04-04T13:14:48.881Z</time></trkpt><trkpt lat="43.6673617" lon="10.7066882"><ele>19.0</ele><time>2026-04-04T13:14:49.881Z</time></trkpt><trkpt lat="43.6672749" lon="10.7065109"><ele>19.333333333333332</ele><time>2026-04-04T13:14:50.877Z</time></trkpt><trkpt lat="43.6671816" lon="10.7063379"><ele>19.666666666666668</ele><time>2026-04-04T13:14:51.881Z</time></trkpt><trkpt lat="43.667084" lon="10.7061855"><ele>20.0</ele><time>2026-04-04T13:14:52.881Z</time></trkpt><trkpt lat="43.6669838" lon="10.706034"><ele>20.333333333333336</ele><time>2026-04-04T13:14:53.879Z</time></trkpt><trkpt lat="43.6668723" lon="10.705879"><ele>20.666666666666668</ele><time>2026-04-04T13:14:54.877Z</time></trkpt><trkpt lat="43.6667576" lon="10.705726"><ele>21.0</ele><time>2026-04-04T13:14:55.881Z</time></trkpt><trkpt lat="43.6666503" lon="10.7055625"><ele>21.0</ele><time>2026-04-04T13:14:56.883Z</time></trkpt><trkpt lat="43.6665446" lon="10.7054043"><ele>21.0</ele><time>2026-04-04T13:14:57.88Z</time></trkpt><trkpt lat="43.6664267" lon="10.7052362"><ele>21.0</ele><time>2026-04-04T13:14:58.881Z</time></trkpt><trkpt lat="43.66631" lon="10.7050627"><ele>22.666666666666664</ele><time>2026-04-04T13:14:59.879Z</time></trkpt><trkpt lat="43.6661879" lon="10.7048915"><ele>24.333333333333332</ele><time>2026-04-04T13:15:00.88Z</time></trkpt><trkpt lat="43.6660615" lon="10.704712"><ele>26.0</ele><time>2026-04-04T13:15:01.881Z</time></trkpt><trkpt lat="43.6659241" lon="10.7045319"><ele>27.666666666666664</ele><time>2026-04-04T13:15:02.878Z</time></trkpt><trkpt lat="43.6657763" lon="10.7043599"><ele>29.333333333333336</ele><time>2026-04-04T13:15:03.878Z</time></trkpt><trkpt lat="43.6656272" lon="10.7041839"><ele>31.0</ele><time>2026-04-04T13:15:04.884Z</time></trkpt><trkpt lat="43.6654758" lon="10.7039959"><ele>31.0</ele><time>2026-04-04T13:15:05.879Z</time></trkpt><trkpt lat="43.6653232" lon="10.7038036"><ele>31.0</ele><time>2026-04-04T13:15:06.879Z</time></trkpt><trkpt lat="43.6651782" lon="10.7036189"><ele>31.0</ele><time>2026-04-04T13:15:07.879Z</time></trkpt><trkpt lat="43.6650321" lon="10.7034384"><ele>33.333333333333336</ele><time>2026-04-04T13:15:08.879Z</time></trkpt><trkpt lat="43.6648843" lon="10.7032499"><ele>35.666666666666664</ele><time>2026-04-04T13:15:09.88Z</time></trkpt><trkpt lat="43.6647418" lon="10.7030602"><ele>38.0</ele><time>2026-04-04T13:15:10.879Z</time></trkpt><trkpt lat="43.6646033" lon="10.7028903"><ele>38.33333333333333</ele><time>2026-04-04T13:15:11.879Z</time></trkpt><trkpt lat="43.6644768" lon="10.7027378"><ele>38.666666666666664</ele><time>2026-04-04T13:15:12.881Z</time></trkpt><trkpt lat="43.6643608" lon="10.7026056"><ele>39.0</ele><time>2026-04-04T13:15:13.879Z</time></trkpt><trkpt lat="43.6642553" lon="10.7024885"><ele>39.25</ele><time>2026-04-04T13:15:14.878Z</time></trkpt><trkpt lat="43.664153" lon="10.7023687"><ele>39.5</ele><time>2026-04-04T13:15:15.878Z</time></trkpt><trkpt lat="43.6640449" lon="10.7022506"><ele>39.75</ele><time>2026-04-04T13:15:16.878Z</time></trkpt><trkpt lat="43.6639352" lon="10.7021053"><ele>40.0</ele><time>2026-04-04T13:15:17.879Z</time></trkpt><trkpt lat="43.6638351" lon="10.7019375"><ele>38.0</ele><time>2026-04-04T13:15:18.88Z</time></trkpt><trkpt lat="43.6637718" lon="10.7017417"><ele>36.0</ele><time>2026-04-04T13:15:19.88Z</time></trkpt><trkpt lat="43.6637442" lon="10.7015231"><ele>34.0</ele><time>2026-04-04T13:15:20.881Z</time></trkpt><trkpt lat="43.6637587" lon="10.701299"><ele>33.66666666666667</ele><time>2026-04-04T13:15:21.878Z</time></trkpt><trkpt lat="43.6638136" lon="10.7010824"><ele>33.333333333333336</ele><time>2026-04-04T13:15:22.88Z</time></trkpt><trkpt lat="43.6639054" lon="10.7008746"><ele>33.0</ele><time>2026-04-04T13:15:23.88Z</time></trkpt><trkpt lat="43.6640191" lon="10.7006607"><ele>33.0</ele><time>2026-04-04T13:15:24.879Z</time></trkpt><trkpt lat="43.6641324" lon="10.7004528"><ele>33.0</ele><time>2026-04-04T13:15:25.878Z</time></trkpt><trkpt lat="43.6642712" lon="10.7002002"><ele>33.0</ele><time>2026-04-04T13:15:26.88Z</time></trkpt><trkpt lat="43.6644083" lon="10.6999471"><ele>31.333333333333336</ele><time>2026-04-04T13:15:27.878Z</time></trkpt><trkpt lat="43.664542" lon="10.6997107"><ele>29.666666666666668</ele><time>2026-04-04T13:15:28.88Z</time></trkpt><trkpt lat="43.6646623" lon="10.6994707"><ele>28.0</ele><time>2026-04-04T13:15:29.88Z</time></trkpt><trkpt lat="43.6647862" lon="10.6992281"><ele>28.0</ele><time>2026-04-04T13:15:30.88Z</time></trkpt><trkpt lat="43.664895" lon="10.6990165"><ele>28.0</ele><time>2026-04-04T13:15:31.881Z</time></trkpt><trkpt lat="43.6649833" lon="10.6988018"><ele>28.0</ele><time>2026-04-04T13:15:32.88Z</time></trkpt><trkpt lat="43.6650452" lon="10.6985844"><ele>27.0</ele><time>2026-04-04T13:15:33.88Z</time></trkpt><trkpt lat="43.6650783" lon="10.6983564"><ele>26.0</ele><time>2026-04-04T13:15:34.883Z</time></trkpt><trkpt lat="43.6650865" lon="10.6981103"><ele>25.0</ele><time>2026-04-04T13:15:35.88Z</time></trkpt><trkpt lat="43.6650815" lon="10.6978532"><ele>24.333333333333336</ele><time>2026-04-04T13:15:36.881Z</time></trkpt><trkpt lat="43.6650778" lon="10.6975908"><ele>23.666666666666668</ele><time>2026-04-04T13:15:37.879Z</time></trkpt><trkpt lat="43.6650494" lon="10.6972996"><ele>23.0</ele><time>2026-04-04T13:15:38.881Z</time></trkpt><trkpt lat="43.6650117" lon="10.6970102"><ele>22.333333333333336</ele><time>2026-04-04T13:15:39.879Z</time></trkpt><trkpt lat="43.6649752" lon="10.69673"><ele>21.666666666666668</ele><time>2026-04-04T13:15:40.879Z</time></trkpt><trkpt lat="43.6649366" lon="10.6964556"><ele>21.0</ele><time>2026-04-04T13:15:41.88Z</time></trkpt><trkpt lat="43.6648981" lon="10.6961781"><ele>20.333333333333332</ele><time>2026-04-04T13:15:42.88Z</time></trkpt><trkpt lat="43.6648628" lon="10.6959072"><ele>19.666666666666664</ele><time>2026-04-04T13:15:43.88Z</time></trkpt><trkpt lat="43.6648313" lon="10.6956353"><ele>19.0</ele><time>2026-04-04T13:15:44.88Z</time></trkpt><trkpt lat="43.6648004" lon="10.6953599"><ele>18.666666666666664</ele><time>2026-04-04T13:15:45.878Z</time></trkpt><trkpt lat="43.6647721" lon="10.6950788"><ele>18.333333333333332</ele><time>2026-04-04T13:15:46.882Z</time></trkpt><trkpt lat="43.6647505" lon="10.6948022"><ele>18.0</ele><time>2026-04-04T13:15:47.881Z</time></trkpt><trkpt lat="43.6647312" lon="10.6945287"><ele>18.0</ele><time>2026-04-04T13:15:48.878Z</time></trkpt><trkpt lat="43.6647077" lon="10.6942489"><ele>18.0</ele><time>2026-04-04T13:15:49.878Z</time></trkpt><trkpt lat="43.6646833" lon="10.6939937"><ele>18.0</ele><time>2026-04-04T13:15:50.88Z</time></trkpt><trkpt lat="43.6646539" lon="10.6937275"><ele>17.666666666666668</ele><time>2026-04-04T13:15:51.879Z</time></trkpt><trkpt lat="43.6646381" lon="10.6934996"><ele>17.333333333333336</ele><time>2026-04-04T13:15:52.879Z</time></trkpt><trkpt lat="43.6645993" lon="10.6932663"><ele>17.0</ele><time>2026-04-04T13:15:53.88Z</time></trkpt><trkpt lat="43.6645354" lon="10.6930213"><ele>17.0</ele><time>2026-04-04T13:15:54.881Z</time></trkpt><trkpt lat="43.6644613" lon="10.6927804"><ele>17.0</ele><time>2026-04-04T13:15:55.882Z</time></trkpt><trkpt lat="43.6643433" lon="10.6925387"><ele>17.0</ele><time>2026-04-04T13:15:56.878Z</time></trkpt><trkpt lat="43.6642223" lon="10.6922997"><ele>16.666666666666668</ele><time>2026-04-04T13:15:57.879Z</time></trkpt><trkpt lat="43.6641109" lon="10.6920563"><ele>16.333333333333332</ele><time>2026-04-04T13:15:58.881Z</time></trkpt><trkpt lat="43.6640001" lon="10.6918449"><ele>16.0</ele><time>2026-04-04T13:15:59.883Z</time></trkpt><trkpt lat="43.6638879" lon="10.691635"><ele>17.0</ele><time>2026-04-04T13:16:00.88Z</time></trkpt><trkpt lat="43.6638092" lon="10.6914534"><ele>18.0</ele><time>2026-04-04T13:16:01.88Z</time></trkpt><trkpt lat="43.6637463" lon="10.691258"><ele>19.0</ele><time>2026-04-04T13:16:02.879Z</time></trkpt><trkpt lat="43.663704" lon="10.691045"><ele>19.333333333333332</ele><time>2026-04-04T13:16:03.877Z</time></trkpt><trkpt lat="43.663687" lon="10.6908234"><ele>19.666666666666668</ele><time>2026-04-04T13:16:04.879Z</time></trkpt><trkpt lat="43.6636866" lon="10.690592"><ele>20.0</ele><time>2026-04-04T13:16:05.879Z</time></trkpt><trkpt lat="43.6636918" lon="10.6903508"><ele>20.0</ele><time>2026-04-04T13:16:06.881Z</time></trkpt><trkpt lat="43.6637003" lon="10.6900996"><ele>20.0</ele><time>2026-04-04T13:16:07.883Z</time></trkpt><trkpt lat="43.6637103" lon="10.6898714"><ele>20.0</ele><time>2026-04-04T13:16:08.879Z</time></trkpt><trkpt lat="43.6637217" lon="10.6896536"><ele>20.0</ele><time>2026-04-04T13:16:09.882Z</time></trkpt><trkpt lat="43.6637261" lon="10.6894352"><ele>20.0</ele><time>2026-04-04T13:16:10.877Z</time></trkpt><trkpt lat="43.6637266" lon="10.6892133"><ele>20.0</ele><time>2026-04-04T13:16:11.88Z</time></trkpt><trkpt lat="43.663684" lon="10.6889868"><ele>19.333333333333336</ele><time>2026-04-04T13:16:12.879Z</time></trkpt><trkpt lat="43.6636095" lon="10.6887777"><ele>18.666666666666668</ele><time>2026-04-04T13:16:13.88Z</time></trkpt><trkpt lat="43.6635416" lon="10.6885698"><ele>18.0</ele><time>2026-04-04T13:16:14.879Z</time></trkpt><trkpt lat="43.6634678" lon="10.6883651"><ele>18.0</ele><time>2026-04-04T13:16:15.881Z</time></trkpt><trkpt lat="43.6633894" lon="10.6881545"><ele>18.0</ele><time>2026-04-04T13:16:16.879Z</time></trkpt><trkpt lat="43.6633107" lon="10.6879391"><ele>18.0</ele><time>2026-04-04T13:16:17.879Z</time></trkpt><trkpt lat="43.6632388" lon="10.6877283"><ele>18.0</ele><time>2026-04-04T13:16:18.879Z</time></trkpt><trkpt lat="43.6631649" lon="10.6875152"><ele>18.0</ele><time>2026-04-04T13:16:19.878Z</time></trkpt><trkpt lat="43.6630871" lon="10.6872992"><ele>18.0</ele><time>2026-04-04T13:16:20.878Z</time></trkpt><trkpt lat="43.6630119" lon="10.6870968"><ele>17.666666666666668</ele><time>2026-04-04T13:16:21.879Z</time></trkpt><trkpt lat="43.6629391" lon="10.6869019"><ele>17.333333333333336</ele><time>2026-04-04T13:16:22.88Z</time></trkpt><trkpt lat="43.6628712" lon="10.6867142"><ele>17.0</ele><time>2026-04-04T13:16:23.881Z</time></trkpt><trkpt lat="43.6628107" lon="10.6865229"><ele>17.25</ele><time>2026-04-04T13:16:24.879Z</time></trkpt><trkpt lat="43.6627445" lon="10.6863332"><ele>17.5</ele><time>2026-04-04T13:16:25.879Z</time></trkpt><trkpt lat="43.6626772" lon="10.6861508"><ele>17.75</ele><time>2026-04-04T13:16:26.879Z</time></trkpt><trkpt lat="43.6626097" lon="10.6859787"><ele>18.0</ele><time>2026-04-04T13:16:27.881Z</time></trkpt><trkpt lat="43.6625376" lon="10.6858028"><ele>18.0</ele><time>2026-04-04T13:16:28.879Z</time></trkpt><trkpt lat="43.6624709" lon="10.6856212"><ele>18.0</ele><time>2026-04-04T13:16:29.878Z</time></trkpt><trkpt lat="43.6624085" lon="10.6854623"><ele>18.0</ele><time>2026-04-04T13:16:30.88Z</time></trkpt><trkpt lat="43.6623543" lon="10.685306"><ele>18.0</ele><time>2026-04-04T13:16:31.882Z</time></trkpt><trkpt lat="43.6622966" lon="10.685153"><ele>18.0</ele><time>2026-04-04T13:16:32.878Z</time></trkpt><trkpt lat="43.6622364" lon="10.6849983"><ele>18.0</ele><time>2026-04-04T13:16:33.879Z</time></trkpt><trkpt lat="43.6621765" lon="10.6848533"><ele>18.0</ele><time>2026-04-04T13:16:34.881Z</time></trkpt><trkpt lat="43.6621152" lon="10.6847145"><ele>18.0</ele><time>2026-04-04T13:16:35.878Z</time></trkpt><trkpt lat="43.6620519" lon="10.6845719"><ele>17.75</ele><time>2026-04-04T13:16:36.88Z</time></trkpt><trkpt lat="43.6619855" lon="10.6844259"><ele>17.5</ele><time>2026-04-04T13:16:37.883Z</time></trkpt><trkpt lat="43.661913" lon="10.6842783"><ele>17.25</ele><time>2026-04-04T13:16:38.881Z</time></trkpt><trkpt lat="43.6618417" lon="10.6841328"><ele>17.0</ele><time>2026-04-04T13:16:39.877Z</time></trkpt><trkpt lat="43.6617794" lon="10.6839927"><ele>17.0</ele><time>2026-04-04T13:16:40.877Z</time></trkpt><trkpt lat="43.6617141" lon="10.6838653"><ele>17.0</ele><time>2026-04-04T13:16:41.878Z</time></trkpt><trkpt lat="43.6616554" lon="10.6837373"><ele>17.0</ele><time>2026-04-04T13:16:42.877Z</time></trkpt><trkpt lat="43.6615995" lon="10.6836206"><ele>17.0</ele><time>2026-04-04T13:16:43.878Z</time></trkpt><trkpt lat="43.6615465" lon="10.6835029"><ele>17.0</ele><time>2026-04-04T13:16:44.877Z</time></trkpt><trkpt lat="43.6614876" lon="10.6833884"><ele>16.8</ele><time>2026-04-04T13:16:45.878Z</time></trkpt><trkpt lat="43.6614359" lon="10.683281"><ele>16.6</ele><time>2026-04-04T13:16:46.879Z</time></trkpt><trkpt lat="43.6613922" lon="10.6831736"><ele>16.400000000000002</ele><time>2026-04-04T13:16:47.877Z</time></trkpt><trkpt lat="43.6613409" lon="10.6830678"><ele>16.2</ele><time>2026-04-04T13:16:48.877Z</time></trkpt><trkpt lat="43.6612884" lon="10.6829731"><ele>16.0</ele><time>2026-04-04T13:16:49.877Z</time></trkpt><trkpt lat="43.6612364" lon="10.6828735"><ele>15.75</ele><time>2026-04-04T13:16:50.879Z</time></trkpt><trkpt lat="43.6611714" lon="10.6827364"><ele>15.5</ele><time>2026-04-04T13:16:51.879Z</time></trkpt><trkpt lat="43.6611012" lon="10.6825911"><ele>15.25</ele><time>2026-04-04T13:16:52.878Z</time></trkpt><trkpt lat="43.6610346" lon="10.6824627"><ele>15.0</ele><time>2026-04-04T13:16:53.881Z</time></trkpt><trkpt lat="43.6609729" lon="10.6823249"><ele>16.2</ele><time>2026-04-04T13:16:54.877Z</time></trkpt><trkpt lat="43.660902" lon="10.6822044"><ele>17.4</ele><time>2026-04-04T13:16:55.877Z</time></trkpt><trkpt lat="43.6608332" lon="10.6820883"><ele>18.6</ele><time>2026-04-04T13:16:56.88Z</time></trkpt><trkpt lat="43.6607631" lon="10.6819858"><ele>19.8</ele><time>2026-04-04T13:16:57.879Z</time></trkpt><trkpt lat="43.6606901" lon="10.6818901"><ele>21.0</ele><time>2026-04-04T13:16:58.881Z</time></trkpt><trkpt lat="43.6606134" lon="10.6818014"><ele>21.0</ele><time>2026-04-04T13:16:59.883Z</time></trkpt><trkpt lat="43.6605328" lon="10.6817188"><ele>21.0</ele><time>2026-04-04T13:17:00.88Z</time></trkpt><trkpt lat="43.6604581" lon="10.6816319"><ele>21.0</ele><time>2026-04-04T13:17:01.877Z</time></trkpt><trkpt lat="43.660383" lon="10.6815602"><ele>21.0</ele><time>2026-04-04T13:17:02.876Z</time></trkpt><trkpt lat="43.6603189" lon="10.6814343"><ele>21.0</ele><time>2026-04-04T13:17:03.877Z</time></trkpt><trkpt lat="43.660251" lon="10.6813317"><ele>22.5</ele><time>2026-04-04T13:17:04.879Z</time></trkpt><trkpt lat="43.660206" lon="10.6811945"><ele>24.0</ele><time>2026-04-04T13:17:05.88Z</time></trkpt><trkpt lat="43.6601648" lon="10.6810591"><ele>25.5</ele><time>2026-04-04T13:17:06.879Z</time></trkpt><trkpt lat="43.6601167" lon="10.6809196"><ele>27.0</ele><time>2026-04-04T13:17:07.879Z</time></trkpt><trkpt lat="43.6600516" lon="10.6807713"><ele>27.0</ele><time>2026-04-04T13:17:08.879Z</time></trkpt><trkpt lat="43.6599923" lon="10.680623"><ele>27.0</ele><time>2026-04-04T13:17:09.885Z</time></trkpt><trkpt lat="43.6599283" lon="10.6804788"><ele>27.0</ele><time>2026-04-04T13:17:10.88Z</time></trkpt><trkpt lat="43.659878" lon="10.6803318"><ele>27.0</ele><time>2026-04-04T13:17:11.879Z</time></trkpt><trkpt lat="43.6598332" lon="10.6801787"><ele>27.0</ele><time>2026-04-04T13:17:12.876Z</time></trkpt><trkpt lat="43.6598009" lon="10.6800125"><ele>27.0</ele><time>2026-04-04T13:17:13.879Z</time></trkpt><trkpt lat="43.659774" lon="10.6798289"><ele>27.0</ele><time>2026-04-04T13:17:14.881Z</time></trkpt><trkpt lat="43.6597572" lon="10.6796424"><ele>27.0</ele><time>2026-04-04T13:17:15.876Z</time></trkpt><trkpt lat="43.6597376" lon="10.6794512"><ele>26.75</ele><time>2026-04-04T13:17:16.879Z</time></trkpt><trkpt lat="43.6597216" lon="10.6792412"><ele>26.5</ele><time>2026-04-04T13:17:17.879Z</time></trkpt><trkpt lat="43.6596979" lon="10.6790442"><ele>26.25</ele><time>2026-04-04T13:17:18.88Z</time></trkpt><trkpt lat="43.6596795" lon="10.6788706"><ele>26.0</ele><time>2026-04-04T13:17:19.88Z</time></trkpt><trkpt lat="43.659662" lon="10.6786903"><ele>24.75</ele><time>2026-04-04T13:17:20.877Z</time></trkpt><trkpt lat="43.6596309" lon="10.6785113"><ele>23.5</ele><time>2026-04-04T13:17:21.879Z</time></trkpt><trkpt lat="43.659594" lon="10.6783465"><ele>22.25</ele><time>2026-04-04T13:17:22.877Z</time></trkpt><trkpt lat="43.6595546" lon="10.6781732"><ele>21.0</ele><time>2026-04-04T13:17:23.877Z</time></trkpt><trkpt lat="43.6595179" lon="10.6780002"><ele>21.0</ele><time>2026-04-04T13:17:24.878Z</time></trkpt><trkpt lat="43.659484" lon="10.6778478"><ele>21.0</ele><time>2026-04-04T13:17:25.878Z</time></trkpt><trkpt lat="43.659452" lon="10.6776966"><ele>21.0</ele><time>2026-04-04T13:17:26.876Z</time></trkpt><trkpt lat="43.6594203" lon="10.6775527"><ele>21.0</ele><time>2026-04-04T13:17:27.878Z</time></trkpt><trkpt lat="43.6593883" lon="10.6774156"><ele>21.0</ele><time>2026-04-04T13:17:28.878Z</time></trkpt><trkpt lat="43.6593575" lon="10.6772852"><ele>21.0</ele><time>2026-04-04T13:17:29.876Z</time></trkpt><trkpt lat="43.6593326" lon="10.677157"><ele>21.0</ele><time>2026-04-04T13:17:30.878Z</time></trkpt><trkpt lat="43.6593046" lon="10.6770314"><ele>21.0</ele><time>2026-04-04T13:17:31.88Z</time></trkpt><trkpt lat="43.6592758" lon="10.6769028"><ele>21.0</ele><time>2026-04-04T13:17:32.879Z</time></trkpt><trkpt lat="43.6592463" lon="10.6767706"><ele>21.0</ele><time>2026-04-04T13:17:33.878Z</time></trkpt><trkpt lat="43.6592172" lon="10.6766373"><ele>21.0</ele><time>2026-04-04T13:17:34.88Z</time></trkpt><trkpt lat="43.6591846" lon="10.6765064"><ele>21.0</ele><time>2026-04-04T13:17:35.881Z</time></trkpt><trkpt lat="43.6591503" lon="10.676365"><ele>21.0</ele><time>2026-04-04T13:17:36.881Z</time></trkpt><trkpt lat="43.6591162" lon="10.6762159"><ele>21.0</ele><time>2026-04-04T13:17:37.879Z</time></trkpt><trkpt lat="43.6590834" lon="10.6760688"><ele>21.0</ele><time>2026-04-04T13:17:38.88Z</time></trkpt><trkpt lat="43.6590413" lon="10.6759133"><ele>22.0</ele><time>2026-04-04T13:17:39.882Z</time></trkpt><trkpt lat="43.6590075" lon="10.6757563"><ele>23.0</ele><time>2026-04-04T13:17:40.88Z</time></trkpt><trkpt lat="43.6589701" lon="10.6756146"><ele>24.0</ele><time>2026-04-04T13:17:41.881Z</time></trkpt><trkpt lat="43.6589574" lon="10.6754548"><ele>25.0</ele><time>2026-04-04T13:17:42.879Z</time></trkpt><trkpt lat="43.6589643" lon="10.6753089"><ele>26.2</ele><time>2026-04-04T13:17:43.88Z</time></trkpt><trkpt lat="43.6589853" lon="10.6751831"><ele>27.4</ele><time>2026-04-04T13:17:44.881Z</time></trkpt><trkpt lat="43.6590102" lon="10.6750863"><ele>28.6</ele><time>2026-04-04T13:17:45.878Z</time></trkpt><trkpt lat="43.6590285" lon="10.6749942"><ele>29.8</ele><time>2026-04-04T13:17:46.879Z</time></trkpt><trkpt lat="43.6590969" lon="10.6748542"><ele>31.0</ele><time>2026-04-04T13:17:48.877Z</time></trkpt><trkpt lat="43.6591788" lon="10.6747399"><ele>31.0</ele><time>2026-04-04T13:17:50.878Z</time></trkpt><trkpt lat="43.6592775" lon="10.674618"><ele>31.0</ele><time>2026-04-04T13:17:52.877Z</time></trkpt><trkpt lat="43.6593445" lon="10.6745367"><ele>31.0</ele><time>2026-04-04T13:17:53.879Z</time></trkpt><trkpt lat="43.659421" lon="10.6744422"><ele>31.0</ele><time>2026-04-04T13:17:54.876Z</time></trkpt><trkpt lat="43.6594968" lon="10.6743507"><ele>31.0</ele><time>2026-04-04T13:17:55.877Z</time></trkpt><trkpt lat="43.6595752" lon="10.6742575"><ele>29.0</ele><time>2026-04-04T13:17:56.88Z</time></trkpt><trkpt lat="43.6596624" lon="10.6741572"><ele>27.0</ele><time>2026-04-04T13:17:57.877Z</time></trkpt><trkpt lat="43.6597443" lon="10.6740535"><ele>25.0</ele><time>2026-04-04T13:17:58.877Z</time></trkpt><trkpt lat="43.659825" lon="10.6739419"><ele>23.0</ele><time>2026-04-04T13:17:59.879Z</time></trkpt><trkpt lat="43.6599027" lon="10.6738404"><ele>21.0</ele><time>2026-04-04T13:18:00.881Z</time></trkpt><trkpt lat="43.6599743" lon="10.6737295"><ele>21.0</ele><time>2026-04-04T13:18:01.88Z</time></trkpt><trkpt lat="43.6600442" lon="10.6736084"><ele>21.0</ele><time>2026-04-04T13:18:02.88Z</time></trkpt><trkpt lat="43.6601098" lon="10.6734675"><ele>21.0</ele><time>2026-04-04T13:18:03.879Z</time></trkpt><trkpt lat="43.6601789" lon="10.6733185"><ele>21.0</ele><time>2026-04-04T13:18:04.879Z</time></trkpt><trkpt lat="43.6602516" lon="10.6731544"><ele>19.75</ele><time>2026-04-04T13:18:05.879Z</time></trkpt><trkpt lat="43.6603241" lon="10.672991"><ele>18.5</ele><time>2026-04-04T13:18:06.879Z</time></trkpt><trkpt lat="43.660394" lon="10.6728284"><ele>17.25</ele><time>2026-04-04T13:18:07.878Z</time></trkpt><trkpt lat="43.6604755" lon="10.6726728"><ele>16.0</ele><time>2026-04-04T13:18:08.887Z</time></trkpt><trkpt lat="43.6605624" lon="10.6725186"><ele>16.0</ele><time>2026-04-04T13:18:09.879Z</time></trkpt><trkpt lat="43.6606622" lon="10.6723709"><ele>16.0</ele><time>2026-04-04T13:18:10.878Z</time></trkpt><trkpt lat="43.6607723" lon="10.6722298"><ele>16.0</ele><time>2026-04-04T13:18:11.881Z</time></trkpt><trkpt lat="43.6608811" lon="10.6720907"><ele>16.0</ele><time>2026-04-04T13:18:12.88Z</time></trkpt><trkpt lat="43.6609815" lon="10.6719493"><ele>16.0</ele><time>2026-04-04T13:18:13.876Z</time></trkpt><trkpt lat="43.6610898" lon="10.6718016"><ele>16.0</ele><time>2026-04-04T13:18:14.876Z</time></trkpt><trkpt lat="43.661198" lon="10.6716518"><ele>16.0</ele><time>2026-04-04T13:18:15.878Z</time></trkpt><trkpt lat="43.6613" lon="10.6715074"><ele>15.75</ele><time>2026-04-04T13:18:16.879Z</time></trkpt><trkpt lat="43.6614014" lon="10.6713627"><ele>15.5</ele><time>2026-04-04T13:18:17.878Z</time></trkpt><trkpt lat="43.6615043" lon="10.6712126"><ele>15.25</ele><time>2026-04-04T13:18:18.877Z</time></trkpt><trkpt lat="43.6616085" lon="10.6710559"><ele>15.0</ele><time>2026-04-04T13:18:19.878Z</time></trkpt><trkpt lat="43.6617051" lon="10.6708959"><ele>15.0</ele><time>2026-04-04T13:18:20.876Z</time></trkpt><trkpt lat="43.6617884" lon="10.6707366"><ele>15.0</ele><time>2026-04-04T13:18:21.876Z</time></trkpt><trkpt lat="43.6618649" lon="10.6705727"><ele>15.0</ele><time>2026-04-04T13:18:22.876Z</time></trkpt><trkpt lat="43.6619399" lon="10.6704093"><ele>15.0</ele><time>2026-04-04T13:18:23.876Z</time></trkpt><trkpt lat="43.6620141" lon="10.6702359"><ele>14.75</ele><time>2026-04-04T13:18:24.876Z</time></trkpt><trkpt lat="43.6620878" lon="10.6700636"><ele>14.5</ele><time>2026-04-04T13:18:25.875Z</time></trkpt><trkpt lat="43.662155" lon="10.6698887"><ele>14.25</ele><time>2026-04-04T13:18:26.879Z</time></trkpt><trkpt lat="43.6622312" lon="10.6697192"><ele>14.0</ele><time>2026-04-04T13:18:27.879Z</time></trkpt><trkpt lat="43.6623054" lon="10.6695524"><ele>14.75</ele><time>2026-04-04T13:18:28.879Z</time></trkpt><trkpt lat="43.6623794" lon="10.6693906"><ele>15.5</ele><time>2026-04-04T13:18:29.88Z</time></trkpt><trkpt lat="43.6624547" lon="10.6692413"><ele>16.25</ele><time>2026-04-04T13:18:30.877Z</time></trkpt><trkpt lat="43.6625389" lon="10.6690893"><ele>17.0</ele><time>2026-04-04T13:18:31.879Z</time></trkpt><trkpt lat="43.6626491" lon="10.6689358"><ele>17.0</ele><time>2026-04-04T13:18:32.878Z</time></trkpt><trkpt lat="43.6627474" lon="10.6687938"><ele>17.0</ele><time>2026-04-04T13:18:33.879Z</time></trkpt><trkpt lat="43.6628454" lon="10.6686504"><ele>17.0</ele><time>2026-04-04T13:18:34.878Z</time></trkpt><trkpt lat="43.6629498" lon="10.6685076"><ele>17.0</ele><time>2026-04-04T13:18:35.877Z</time></trkpt><trkpt lat="43.6630474" lon="10.6683692"><ele>17.0</ele><time>2026-04-04T13:18:36.876Z</time></trkpt><trkpt lat="43.6631429" lon="10.668236"><ele>17.0</ele><time>2026-04-04T13:18:37.878Z</time></trkpt><trkpt lat="43.6632295" lon="10.6680916"><ele>17.0</ele><time>2026-04-04T13:18:38.877Z</time></trkpt><trkpt lat="43.6633083" lon="10.667933"><ele>17.0</ele><time>2026-04-04T13:18:39.877Z</time></trkpt><trkpt lat="43.6633677" lon="10.6677604"><ele>17.0</ele><time>2026-04-04T13:18:40.875Z</time></trkpt><trkpt lat="43.6634119" lon="10.6675748"><ele>17.0</ele><time>2026-04-04T13:18:41.879Z</time></trkpt><trkpt lat="43.6634495" lon="10.667391"><ele>17.0</ele><time>2026-04-04T13:18:42.882Z</time></trkpt><trkpt lat="43.6634803" lon="10.6672066"><ele>17.0</ele><time>2026-04-04T13:18:43.879Z</time></trkpt><trkpt lat="43.6635022" lon="10.6670268"><ele>16.5</ele><time>2026-04-04T13:18:44.878Z</time></trkpt><trkpt lat="43.663537" lon="10.666862"><ele>16.0</ele><time>2026-04-04T13:18:45.879Z</time></trkpt><trkpt lat="43.6635714" lon="10.6666804"><ele>15.5</ele><time>2026-04-04T13:18:46.879Z</time></trkpt><trkpt lat="43.6636035" lon="10.6665218"><ele>15.0</ele><time>2026-04-04T13:18:47.878Z</time></trkpt><trkpt lat="43.6636319" lon="10.6663671"><ele>15.0</ele><time>2026-04-04T13:18:48.881Z</time></trkpt><trkpt lat="43.6636616" lon="10.6662157"><ele>15.0</ele><time>2026-04-04T13:18:49.879Z</time></trkpt><trkpt lat="43.6636872" lon="10.6660823"><ele>15.0</ele><time>2026-04-04T13:18:50.879Z</time></trkpt><trkpt lat="43.6637066" lon="10.6659495"><ele>15.0</ele><time>2026-04-04T13:18:51.879Z</time></trkpt><trkpt lat="43.6637225" lon="10.6658287"><ele>15.0</ele><time>2026-04-04T13:18:52.88Z</time></trkpt><trkpt lat="43.6637416" lon="10.665717"><ele>15.0</ele><time>2026-04-04T13:18:53.878Z</time></trkpt><trkpt lat="43.6637702" lon="10.6655899"><ele>15.0</ele><time>2026-04-04T13:18:54.879Z</time></trkpt><trkpt lat="43.6637917" lon="10.6654623"><ele>15.0</ele><time>2026-04-04T13:18:55.877Z</time></trkpt><trkpt lat="43.6638175" lon="10.6653431"><ele>15.0</ele><time>2026-04-04T13:18:56.878Z</time></trkpt><trkpt lat="43.6638344" lon="10.6652104"><ele>15.0</ele><time>2026-04-04T13:18:57.877Z</time></trkpt><trkpt lat="43.663855" lon="10.6650812"><ele>15.0</ele><time>2026-04-04T13:18:58.877Z</time></trkpt><trkpt lat="43.6638837" lon="10.6649334"><ele>15.0</ele><time>2026-04-04T13:18:59.877Z</time></trkpt><trkpt lat="43.6639112" lon="10.664777"><ele>15.0</ele><time>2026-04-04T13:19:00.878Z</time></trkpt><trkpt lat="43.6639416" lon="10.6646192"><ele>15.0</ele><time>2026-04-04T13:19:01.878Z</time></trkpt><trkpt lat="43.663972" lon="10.6644602"><ele>14.5</ele><time>2026-04-04T13:19:02.879Z</time></trkpt><trkpt lat="43.6639955" lon="10.6643053"><ele>14.0</ele><time>2026-04-04T13:19:03.878Z</time></trkpt><trkpt lat="43.664019" lon="10.6641498"><ele>13.5</ele><time>2026-04-04T13:19:04.879Z</time></trkpt><trkpt lat="43.6640437" lon="10.6639885"><ele>13.0</ele><time>2026-04-04T13:19:05.877Z</time></trkpt><trkpt lat="43.6640743" lon="10.663808"><ele>13.0</ele><time>2026-04-04T13:19:06.878Z</time></trkpt><trkpt lat="43.6641046" lon="10.6636204"><ele>13.0</ele><time>2026-04-04T13:19:07.878Z</time></trkpt><trkpt lat="43.664143" lon="10.663437"><ele>13.0</ele><time>2026-04-04T13:19:08.879Z</time></trkpt><trkpt lat="43.6641784" lon="10.6632585"><ele>13.0</ele><time>2026-04-04T13:19:09.876Z</time></trkpt><trkpt lat="43.6642092" lon="10.6630758"><ele>13.0</ele><time>2026-04-04T13:19:10.878Z</time></trkpt><trkpt lat="43.6642376" lon="10.6629132"><ele>13.0</ele><time>2026-04-04T13:19:11.879Z</time></trkpt><trkpt lat="43.6642733" lon="10.6627416"><ele>13.0</ele><time>2026-04-04T13:19:12.879Z</time></trkpt><trkpt lat="43.6642967" lon="10.6625711"><ele>13.0</ele><time>2026-04-04T13:19:13.878Z</time></trkpt><trkpt lat="43.6643258" lon="10.6624005"><ele>13.25</ele><time>2026-04-04T13:19:14.88Z</time></trkpt><trkpt lat="43.6643593" lon="10.6622316"><ele>13.5</ele><time>2026-04-04T13:19:15.878Z</time></trkpt><trkpt lat="43.6643859" lon="10.6620684"><ele>13.75</ele><time>2026-04-04T13:19:16.879Z</time></trkpt><trkpt lat="43.6644169" lon="10.6619125"><ele>14.0</ele><time>2026-04-04T13:19:17.878Z</time></trkpt><trkpt lat="43.6644504" lon="10.6617419"><ele>14.25</ele><time>2026-04-04T13:19:18.878Z</time></trkpt><trkpt lat="43.6644806" lon="10.6615746"><ele>14.5</ele><time>2026-04-04T13:19:19.88Z</time></trkpt><trkpt lat="43.6645051" lon="10.6613917"><ele>14.75</ele><time>2026-04-04T13:19:20.879Z</time></trkpt><trkpt lat="43.6645346" lon="10.6611943"><ele>15.0</ele><time>2026-04-04T13:19:21.881Z</time></trkpt><trkpt lat="43.6645713" lon="10.660964"><ele>14.333333333333332</ele><time>2026-04-04T13:19:22.879Z</time></trkpt><trkpt lat="43.6646186" lon="10.6607353"><ele>13.666666666666666</ele><time>2026-04-04T13:19:23.879Z</time></trkpt><trkpt lat="43.6646674" lon="10.6605117"><ele>13.0</ele><time>2026-04-04T13:19:24.88Z</time></trkpt><trkpt lat="43.66471" lon="10.6602873"><ele>13.25</ele><time>2026-04-04T13:19:25.879Z</time></trkpt><trkpt lat="43.6647463" lon="10.6600803"><ele>13.5</ele><time>2026-04-04T13:19:26.878Z</time></trkpt><trkpt lat="43.6647813" lon="10.6598862"><ele>13.75</ele><time>2026-04-04T13:19:27.883Z</time></trkpt><trkpt lat="43.6648212" lon="10.6596995"><ele>14.0</ele><time>2026-04-04T13:19:28.877Z</time></trkpt><trkpt lat="43.6648522" lon="10.659519"><ele>14.2</ele><time>2026-04-04T13:19:29.877Z</time></trkpt><trkpt lat="43.6648876" lon="10.6593575"><ele>14.399999999999999</ele><time>2026-04-04T13:19:30.879Z</time></trkpt><trkpt lat="43.6649181" lon="10.6592006"><ele>14.6</ele><time>2026-04-04T13:19:31.878Z</time></trkpt><trkpt lat="43.664938" lon="10.659061"><ele>14.8</ele><time>2026-04-04T13:19:32.879Z</time></trkpt><trkpt lat="43.6649482" lon="10.6589334"><ele>15.0</ele><time>2026-04-04T13:19:33.878Z</time></trkpt><trkpt lat="43.6649659" lon="10.6588045"><ele>15.0</ele><time>2026-04-04T13:19:34.879Z</time></trkpt><trkpt lat="43.6649977" lon="10.6586716"><ele>15.0</ele><time>2026-04-04T13:19:35.879Z</time></trkpt><trkpt lat="43.6650347" lon="10.6585297"><ele>15.0</ele><time>2026-04-04T13:19:36.878Z</time></trkpt><trkpt lat="43.6650677" lon="10.6583684"><ele>15.0</ele><time>2026-04-04T13:19:37.878Z</time></trkpt><trkpt lat="43.6650939" lon="10.6581872"><ele>15.0</ele><time>2026-04-04T13:19:38.879Z</time></trkpt><trkpt lat="43.6651244" lon="10.6580045"><ele>15.0</ele><time>2026-04-04T13:19:39.878Z</time></trkpt><trkpt lat="43.6651755" lon="10.657824"><ele>15.0</ele><time>2026-04-04T13:19:40.878Z</time></trkpt><trkpt lat="43.6652338" lon="10.657624"><ele>15.0</ele><time>2026-04-04T13:19:41.879Z</time></trkpt><trkpt lat="43.6652821" lon="10.6573987"><ele>15.0</ele><time>2026-04-04T13:19:42.878Z</time></trkpt><trkpt lat="43.6653269" lon="10.6571598"><ele>15.0</ele><time>2026-04-04T13:19:43.88Z</time></trkpt><trkpt lat="43.665368" lon="10.6569198"><ele>15.0</ele><time>2026-04-04T13:19:44.878Z</time></trkpt><trkpt lat="43.6654025" lon="10.6566949"><ele>14.75</ele><time>2026-04-04T13:19:45.88Z</time></trkpt><trkpt lat="43.6654361" lon="10.6564895"><ele>14.5</ele><time>2026-04-04T13:19:46.88Z</time></trkpt><trkpt lat="43.6654726" lon="10.656298"><ele>14.25</ele><time>2026-04-04T13:19:47.878Z</time></trkpt><trkpt lat="43.6655159" lon="10.6561326"><ele>14.0</ele><time>2026-04-04T13:19:48.876Z</time></trkpt><trkpt lat="43.6655782" lon="10.6559948"><ele>14.0</ele><time>2026-04-04T13:19:49.877Z</time></trkpt><trkpt lat="43.6656576" lon="10.655887"><ele>13.999999999999998</ele><time>2026-04-04T13:19:50.877Z</time></trkpt><trkpt lat="43.6657509" lon="10.655828"><ele>13.999999999999998</ele><time>2026-04-04T13:19:51.88Z</time></trkpt><trkpt lat="43.665854" lon="10.6558068"><ele>14.0</ele><time>2026-04-04T13:19:52.88Z</time></trkpt><trkpt lat="43.6659545" lon="10.6558376"><ele>14.0</ele><time>2026-04-04T13:19:53.877Z</time></trkpt><trkpt lat="43.6660418" lon="10.6559047"><ele>13.75</ele><time>2026-04-04T13:19:54.875Z</time></trkpt><trkpt lat="43.666139" lon="10.6559628"><ele>13.5</ele><time>2026-04-04T13:19:55.878Z</time></trkpt><trkpt lat="43.6662423" lon="10.655962"><ele>13.25</ele><time>2026-04-04T13:19:56.875Z</time></trkpt><trkpt lat="43.6663521" lon="10.6559041"><ele>13.0</ele><time>2026-04-04T13:19:57.876Z</time></trkpt><trkpt lat="43.6664597" lon="10.655812"><ele>13.0</ele><time>2026-04-04T13:19:58.876Z</time></trkpt><trkpt lat="43.6665767" lon="10.6557443"><ele>13.0</ele><time>2026-04-04T13:19:59.875Z</time></trkpt><trkpt lat="43.6667079" lon="10.6557394"><ele>13.0</ele><time>2026-04-04T13:20:00.878Z</time></trkpt><trkpt lat="43.666871" lon="10.6557605"><ele>13.0</ele><time>2026-04-04T13:20:01.878Z</time></trkpt><trkpt lat="43.6670597" lon="10.6557776"><ele>13.5</ele><time>2026-04-04T13:20:02.877Z</time></trkpt><trkpt lat="43.667281" lon="10.6558022"><ele>14.0</ele><time>2026-04-04T13:20:03.877Z</time></trkpt><trkpt lat="43.6675334" lon="10.6558356"><ele>14.0</ele><time>2026-04-04T13:20:04.877Z</time></trkpt><trkpt lat="43.667804" lon="10.6558741"><ele>14.0</ele><time>2026-04-04T13:20:05.879Z</time></trkpt><trkpt lat="43.6680942" lon="10.655917"><ele>14.0</ele><time>2026-04-04T13:20:06.878Z</time></trkpt><trkpt lat="43.6683967" lon="10.6559581"><ele>14.0</ele><time>2026-04-04T13:20:07.879Z</time></trkpt><trkpt lat="43.6686977" lon="10.6560032"><ele>14.0</ele><time>2026-04-04T13:20:08.879Z</time></trkpt><trkpt lat="43.6689867" lon="10.6560435"><ele>14.0</ele><time>2026-04-04T13:20:09.878Z</time></trkpt><trkpt lat="43.6692669" lon="10.6560751"><ele>14.0</ele><time>2026-04-04T13:20:10.879Z</time></trkpt><trkpt lat="43.6695478" lon="10.6560943"><ele>14.0</ele><time>2026-04-04T13:20:11.877Z</time></trkpt><trkpt lat="43.6698284" lon="10.6561279"><ele>13.5</ele><time>2026-04-04T13:20:12.878Z</time></trkpt><trkpt lat="43.670096" lon="10.6560757"><ele>13.0</ele><time>2026-04-04T13:20:13.881Z</time></trkpt><trkpt lat="43.6703628" lon="10.6560354"><ele>14.0</ele><time>2026-04-04T13:20:14.878Z</time></trkpt><trkpt lat="43.6706081" lon="10.6559051"><ele>15.0</ele><time>2026-04-04T13:20:15.877Z</time></trkpt><trkpt lat="43.6708454" lon="10.6557463"><ele>15.0</ele><time>2026-04-04T13:20:16.878Z</time></trkpt><trkpt lat="43.6710776" lon="10.6555659"><ele>15.0</ele><time>2026-04-04T13:20:17.879Z</time></trkpt><trkpt lat="43.6712901" lon="10.6553503"><ele>15.0</ele><time>2026-04-04T13:20:18.88Z</time></trkpt><trkpt lat="43.6714774" lon="10.6551012"><ele>15.0</ele><time>2026-04-04T13:20:19.879Z</time></trkpt><trkpt lat="43.6716429" lon="10.6548245"><ele>15.0</ele><time>2026-04-04T13:20:20.879Z</time></trkpt><trkpt lat="43.6717813" lon="10.6545239"><ele>15.0</ele><time>2026-04-04T13:20:21.877Z</time></trkpt><trkpt lat="43.6718937" lon="10.6542044"><ele>15.0</ele><time>2026-04-04T13:20:22.879Z</time></trkpt><trkpt lat="43.6719842" lon="10.6538714"><ele>15.0</ele><time>2026-04-04T13:20:23.878Z</time></trkpt><trkpt lat="43.67205" lon="10.6535231"><ele>14.5</ele><time>2026-04-04T13:20:24.878Z</time></trkpt><trkpt lat="43.6720924" lon="10.6531709"><ele>14.0</ele><time>2026-04-04T13:20:25.878Z</time></trkpt><trkpt lat="43.6721154" lon="10.6528375"><ele>13.5</ele><time>2026-04-04T13:20:26.88Z</time></trkpt><trkpt lat="43.6721318" lon="10.6525248"><ele>13.0</ele><time>2026-04-04T13:20:27.88Z</time></trkpt><trkpt lat="43.6721457" lon="10.6522172"><ele>13.0</ele><time>2026-04-04T13:20:28.878Z</time></trkpt><trkpt lat="43.6721608" lon="10.6519202"><ele>13.0</ele><time>2026-04-04T13:20:29.877Z</time></trkpt><trkpt lat="43.6721714" lon="10.6516443"><ele>13.0</ele><time>2026-04-04T13:20:30.878Z</time></trkpt><trkpt lat="43.6721798" lon="10.6513969"><ele>13.0</ele><time>2026-04-04T13:20:31.88Z</time></trkpt><trkpt lat="43.6721954" lon="10.651177"><ele>13.0</ele><time>2026-04-04T13:20:32.879Z</time></trkpt><trkpt lat="43.6722221" lon="10.6509824"><ele>13.0</ele><time>2026-04-04T13:20:33.877Z</time></trkpt><trkpt lat="43.672265" lon="10.650809"><ele>13.0</ele><time>2026-04-04T13:20:34.877Z</time></trkpt><trkpt lat="43.6723253" lon="10.6506613"><ele>13.0</ele><time>2026-04-04T13:20:35.879Z</time></trkpt><trkpt lat="43.6724251" lon="10.650585"><ele>13.0</ele><time>2026-04-04T13:20:36.878Z</time></trkpt><trkpt lat="43.6725291" lon="10.6505448"><ele>13.0</ele><time>2026-04-04T13:20:37.879Z</time></trkpt><trkpt lat="43.672608" lon="10.6505462"><ele>13.0</ele><time>2026-04-04T13:20:38.878Z</time></trkpt><trkpt lat="43.6726832" lon="10.6505429"><ele>13.0</ele><time>2026-04-04T13:20:40.878Z</time></trkpt><trkpt lat="43.6725964" lon="10.6504276"><ele>13.0</ele><time>2026-04-04T13:20:44.881Z</time></trkpt><trkpt lat="43.6725243" lon="10.6503763"><ele>13.0</ele><time>2026-04-04T13:20:45.876Z</time></trkpt><trkpt lat="43.672463" lon="10.6502913"><ele>13.0</ele><time>2026-04-04T13:20:46.876Z</time></trkpt><trkpt lat="43.6723973" lon="10.6501721"><ele>13.0</ele><time>2026-04-04T13:20:47.877Z</time></trkpt><trkpt lat="43.6723346" lon="10.6500652"><ele>13.0</ele><time>2026-04-04T13:20:48.876Z</time></trkpt><trkpt lat="43.6723" lon="10.6499331"><ele>13.25</ele><time>2026-04-04T13:20:49.876Z</time></trkpt><trkpt lat="43.6722998" lon="10.6497525"><ele>13.5</ele><time>2026-04-04T13:20:50.876Z</time></trkpt><trkpt lat="43.6723139" lon="10.6495485"><ele>13.75</ele><time>2026-04-04T13:20:51.877Z</time></trkpt><trkpt lat="43.6723503" lon="10.6493306"><ele>14.0</ele><time>2026-04-04T13:20:52.876Z</time></trkpt><trkpt lat="43.6724094" lon="10.6490932"><ele>14.0</ele><time>2026-04-04T13:20:53.878Z</time></trkpt><trkpt lat="43.6724852" lon="10.648847"><ele>14.0</ele><time>2026-04-04T13:20:54.88Z</time></trkpt><trkpt lat="43.6725767" lon="10.648589"><ele>14.0</ele><time>2026-04-04T13:20:55.878Z</time></trkpt><trkpt lat="43.6726854" lon="10.6483298"><ele>14.5</ele><time>2026-04-04T13:20:56.879Z</time></trkpt><trkpt lat="43.6728142" lon="10.6480786"><ele>15.0</ele><time>2026-04-04T13:20:57.879Z</time></trkpt><trkpt lat="43.6729626" lon="10.6478351"><ele>14.0</ele><time>2026-04-04T13:20:58.877Z</time></trkpt><trkpt lat="43.6731309" lon="10.6475992"><ele>13.0</ele><time>2026-04-04T13:20:59.879Z</time></trkpt><trkpt lat="43.673314" lon="10.6473664"><ele>13.0</ele><time>2026-04-04T13:21:00.88Z</time></trkpt><trkpt lat="43.6735029" lon="10.6471369"><ele>13.0</ele><time>2026-04-04T13:21:01.876Z</time></trkpt><trkpt lat="43.673693" lon="10.6469019"><ele>12.5</ele><time>2026-04-04T13:21:02.878Z</time></trkpt><trkpt lat="43.6738882" lon="10.6466684"><ele>12.0</ele><time>2026-04-04T13:21:03.878Z</time></trkpt><trkpt lat="43.6740804" lon="10.6464428"><ele>12.0</ele><time>2026-04-04T13:21:04.879Z</time></trkpt><trkpt lat="43.6742725" lon="10.6462088"><ele>12.0</ele><time>2026-04-04T13:21:05.878Z</time></trkpt><trkpt lat="43.6744593" lon="10.6459835"><ele>13.0</ele><time>2026-04-04T13:21:06.879Z</time></trkpt><trkpt lat="43.674638" lon="10.6457704"><ele>14.0</ele><time>2026-04-04T13:21:07.88Z</time></trkpt><trkpt lat="43.6748087" lon="10.6455501"><ele>14.0</ele><time>2026-04-04T13:21:08.881Z</time></trkpt><trkpt lat="43.6749581" lon="10.6453231"><ele>14.0</ele><time>2026-04-04T13:21:09.877Z</time></trkpt><trkpt lat="43.6750853" lon="10.645094"><ele>14.0</ele><time>2026-04-04T13:21:10.878Z</time></trkpt><trkpt lat="43.6751926" lon="10.6448758"><ele>14.0</ele><time>2026-04-04T13:21:11.878Z</time></trkpt><trkpt lat="43.6752861" lon="10.6446829"><ele>14.0</ele><time>2026-04-04T13:21:12.878Z</time></trkpt><trkpt lat="43.6753687" lon="10.6445123"><ele>14.0</ele><time>2026-04-04T13:21:13.878Z</time></trkpt><trkpt lat="43.6754474" lon="10.6443785"><ele>14.0</ele><time>2026-04-04T13:21:14.882Z</time></trkpt><trkpt lat="43.6755309" lon="10.6442656"><ele>13.75</ele><time>2026-04-04T13:21:15.879Z</time></trkpt><trkpt lat="43.675631" lon="10.6441615"><ele>13.5</ele><time>2026-04-04T13:21:16.879Z</time></trkpt><trkpt lat="43.6757165" lon="10.6440281"><ele>13.25</ele><time>2026-04-04T13:21:17.877Z</time></trkpt><trkpt lat="43.6757809" lon="10.6438565"><ele>13.0</ele><time>2026-04-04T13:21:18.878Z</time></trkpt><trkpt lat="43.6758538" lon="10.643677"><ele>13.666666666666666</ele><time>2026-04-04T13:21:19.878Z</time></trkpt><trkpt lat="43.6759621" lon="10.6435191"><ele>14.333333333333332</ele><time>2026-04-04T13:21:20.879Z</time></trkpt><trkpt lat="43.6760965" lon="10.6433749"><ele>15.0</ele><time>2026-04-04T13:21:21.879Z</time></trkpt><trkpt lat="43.6762488" lon="10.6432154"><ele>15.0</ele><time>2026-04-04T13:21:22.877Z</time></trkpt><trkpt lat="43.6764003" lon="10.6430285"><ele>15.0</ele><time>2026-04-04T13:21:23.878Z</time></trkpt><trkpt lat="43.6765501" lon="10.6428146"><ele>15.0</ele><time>2026-04-04T13:21:24.879Z</time></trkpt><trkpt lat="43.6766961" lon="10.6425931"><ele>16.0</ele><time>2026-04-04T13:21:25.877Z</time></trkpt><trkpt lat="43.6768171" lon="10.6423294"><ele>17.0</ele><time>2026-04-04T13:21:26.878Z</time></trkpt><trkpt lat="43.6769319" lon="10.6420648"><ele>18.0</ele><time>2026-04-04T13:21:27.878Z</time></trkpt><trkpt lat="43.6770253" lon="10.6417636"><ele>18.0</ele><time>2026-04-04T13:21:28.878Z</time></trkpt><trkpt lat="43.6770997" lon="10.6414444"><ele>18.0</ele><time>2026-04-04T13:21:29.879Z</time></trkpt><trkpt lat="43.6771777" lon="10.6411318"><ele>17.5</ele><time>2026-04-04T13:21:30.876Z</time></trkpt><trkpt lat="43.677227" lon="10.6407893"><ele>17.0</ele><time>2026-04-04T13:21:31.878Z</time></trkpt><trkpt lat="43.6772375" lon="10.6404327"><ele>16.0</ele><time>2026-04-04T13:21:32.878Z</time></trkpt><trkpt lat="43.677234" lon="10.6400783"><ele>15.0</ele><time>2026-04-04T13:21:33.877Z</time></trkpt><trkpt lat="43.6772179" lon="10.6397124"><ele>15.5</ele><time>2026-04-04T13:21:34.878Z</time></trkpt><trkpt lat="43.6771849" lon="10.6393497"><ele>16.0</ele><time>2026-04-04T13:21:35.876Z</time></trkpt><trkpt lat="43.677153" lon="10.6389927"><ele>17.5</ele><time>2026-04-04T13:21:36.877Z</time></trkpt><trkpt lat="43.677094" lon="10.6386156"><ele>19.0</ele><time>2026-04-04T13:21:37.878Z</time></trkpt><trkpt lat="43.6770361" lon="10.6382476"><ele>19.0</ele><time>2026-04-04T13:21:38.877Z</time></trkpt><trkpt lat="43.6769841" lon="10.6378837"><ele>19.0</ele><time>2026-04-04T13:21:39.879Z</time></trkpt><trkpt lat="43.6769346" lon="10.6375183"><ele>16.5</ele><time>2026-04-04T13:21:40.878Z</time></trkpt><trkpt lat="43.6768848" lon="10.6371607"><ele>14.0</ele><time>2026-04-04T13:21:41.879Z</time></trkpt><trkpt lat="43.6768333" lon="10.6368266"><ele>13.5</ele><time>2026-04-04T13:21:42.878Z</time></trkpt><trkpt lat="43.6767888" lon="10.6364895"><ele>13.0</ele><time>2026-04-04T13:21:43.879Z</time></trkpt><trkpt lat="43.6767433" lon="10.6361548"><ele>13.0</ele><time>2026-04-04T13:21:44.877Z</time></trkpt><trkpt lat="43.6766956" lon="10.6358215"><ele>13.0</ele><time>2026-04-04T13:21:45.882Z</time></trkpt><trkpt lat="43.6766562" lon="10.6354926"><ele>12.666666666666666</ele><time>2026-04-04T13:21:46.878Z</time></trkpt><trkpt lat="43.676627" lon="10.6351931"><ele>12.333333333333332</ele><time>2026-04-04T13:21:47.878Z</time></trkpt><trkpt lat="43.6765867" lon="10.634885"><ele>12.0</ele><time>2026-04-04T13:21:48.878Z</time></trkpt><trkpt lat="43.6765775" lon="10.63457"><ele>11.666666666666666</ele><time>2026-04-04T13:21:49.877Z</time></trkpt><trkpt lat="43.6765771" lon="10.6342671"><ele>11.333333333333332</ele><time>2026-04-04T13:21:50.878Z</time></trkpt><trkpt lat="43.6765971" lon="10.6339793"><ele>11.0</ele><time>2026-04-04T13:21:51.878Z</time></trkpt><trkpt lat="43.6766394" lon="10.6337035"><ele>11.0</ele><time>2026-04-04T13:21:52.88Z</time></trkpt><trkpt lat="43.6767015" lon="10.6334601"><ele>11.0</ele><time>2026-04-04T13:21:53.879Z</time></trkpt><trkpt lat="43.6767661" lon="10.6332288"><ele>11.0</ele><time>2026-04-04T13:21:54.88Z</time></trkpt><trkpt lat="43.6768542" lon="10.6330289"><ele>11.666666666666666</ele><time>2026-04-04T13:21:55.879Z</time></trkpt><trkpt lat="43.6769467" lon="10.6328525"><ele>12.333333333333332</ele><time>2026-04-04T13:21:56.878Z</time></trkpt><trkpt lat="43.6770529" lon="10.6326951"><ele>13.0</ele><time>2026-04-04T13:21:57.878Z</time></trkpt><trkpt lat="43.677176" lon="10.6325501"><ele>13.0</ele><time>2026-04-04T13:21:58.877Z</time></trkpt><trkpt lat="43.6773158" lon="10.6324154"><ele>13.0</ele><time>2026-04-04T13:21:59.878Z</time></trkpt><trkpt lat="43.6774616" lon="10.6323029"><ele>13.0</ele><time>2026-04-04T13:22:00.878Z</time></trkpt><trkpt lat="43.6776089" lon="10.6322181"><ele>13.0</ele><time>2026-04-04T13:22:01.879Z</time></trkpt><trkpt lat="43.6777538" lon="10.6321612"><ele>13.0</ele><time>2026-04-04T13:22:02.879Z</time></trkpt><trkpt lat="43.6779015" lon="10.632123"><ele>13.0</ele><time>2026-04-04T13:22:03.879Z</time></trkpt><trkpt lat="43.6780485" lon="10.6321014"><ele>13.0</ele><time>2026-04-04T13:22:04.878Z</time></trkpt><trkpt lat="43.6781806" lon="10.6320993"><ele>13.0</ele><time>2026-04-04T13:22:05.88Z</time></trkpt><trkpt lat="43.6783084" lon="10.6321075"><ele>13.0</ele><time>2026-04-04T13:22:06.878Z</time></trkpt><trkpt lat="43.6784301" lon="10.6321122"><ele>13.0</ele><time>2026-04-04T13:22:07.877Z</time></trkpt><trkpt lat="43.6785325" lon="10.632154"><ele>13.0</ele><time>2026-04-04T13:22:08.879Z</time></trkpt><trkpt lat="43.6786177" lon="10.6321989"><ele>13.0</ele><time>2026-04-04T13:22:09.879Z</time></trkpt><trkpt lat="43.678693" lon="10.6322432"><ele>13.4</ele><time>2026-04-04T13:22:10.878Z</time></trkpt><trkpt lat="43.678769" lon="10.6323053"><ele>13.8</ele><time>2026-04-04T13:22:11.879Z</time></trkpt><trkpt lat="43.6788509" lon="10.632377"><ele>14.2</ele><time>2026-04-04T13:22:12.879Z</time></trkpt><trkpt lat="43.6789303" lon="10.6324465"><ele>14.6</ele><time>2026-04-04T13:22:13.879Z</time></trkpt><trkpt lat="43.6789759" lon="10.6325755"><ele>15.0</ele><time>2026-04-04T13:22:14.877Z</time></trkpt><trkpt lat="43.6790276" lon="10.6326969"><ele>15.0</ele><time>2026-04-04T13:22:15.88Z</time></trkpt><trkpt lat="43.6790922" lon="10.6328042"><ele>15.0</ele><time>2026-04-04T13:22:16.879Z</time></trkpt><trkpt lat="43.6792098" lon="10.6328434"><ele>15.0</ele><time>2026-04-04T13:22:18.877Z</time></trkpt><trkpt lat="43.6792703" lon="10.6328031"><ele>15.0</ele><time>2026-04-04T13:22:19.877Z</time></trkpt><trkpt lat="43.6793207" lon="10.632743"><ele>15.0</ele><time>2026-04-04T13:22:20.879Z</time></trkpt><trkpt lat="43.6793775" lon="10.6326853"><ele>15.0</ele><time>2026-04-04T13:22:21.878Z</time></trkpt><trkpt lat="43.679402" lon="10.632556"><ele>15.0</ele><time>2026-04-04T13:22:22.877Z</time></trkpt><trkpt lat="43.6794324" lon="10.6324253"><ele>15.0</ele><time>2026-04-04T13:22:23.879Z</time></trkpt><trkpt lat="43.6794905" lon="10.6323015"><ele>15.0</ele><time>2026-04-04T13:22:24.879Z</time></trkpt><trkpt lat="43.6795691" lon="10.6321566"><ele>15.0</ele><time>2026-04-04T13:22:25.879Z</time></trkpt><trkpt lat="43.6796668" lon="10.6319692"><ele>12.666666666666666</ele><time>2026-04-04T13:22:26.882Z</time></trkpt><trkpt lat="43.6797785" lon="10.631771"><ele>10.333333333333332</ele><time>2026-04-04T13:22:27.879Z</time></trkpt><trkpt lat="43.6798832" lon="10.6315801"><ele>8.0</ele><time>2026-04-04T13:22:28.876Z</time></trkpt><trkpt lat="43.6799935" lon="10.6313842"><ele>8.0</ele><time>2026-04-04T13:22:29.878Z</time></trkpt><trkpt lat="43.6800915" lon="10.631209"><ele>8.0</ele><time>2026-04-04T13:22:30.877Z</time></trkpt><trkpt lat="43.6801836" lon="10.6310313"><ele>8.0</ele><time>2026-04-04T13:22:31.88Z</time></trkpt><trkpt lat="43.6802769" lon="10.6308533"><ele>10.0</ele><time>2026-04-04T13:22:32.878Z</time></trkpt><trkpt lat="43.6803638" lon="10.6306983"><ele>12.0</ele><time>2026-04-04T13:22:33.877Z</time></trkpt><trkpt lat="43.6804481" lon="10.6305487"><ele>14.0</ele><time>2026-04-04T13:22:34.877Z</time></trkpt><trkpt lat="43.6805379" lon="10.630379"><ele>16.0</ele><time>2026-04-04T13:22:35.878Z</time></trkpt><trkpt lat="43.6806379" lon="10.6301835"><ele>16.333333333333332</ele><time>2026-04-04T13:22:36.891Z</time></trkpt><trkpt lat="43.6807485" lon="10.6299911"><ele>16.666666666666668</ele><time>2026-04-04T13:22:37.882Z</time></trkpt><trkpt lat="43.680857" lon="10.629805"><ele>17.0</ele><time>2026-04-04T13:22:38.88Z</time></trkpt><trkpt lat="43.6809567" lon="10.6296208"><ele>16.666666666666668</ele><time>2026-04-04T13:22:39.878Z</time></trkpt><trkpt lat="43.6810494" lon="10.6294403"><ele>16.333333333333332</ele><time>2026-04-04T13:22:40.878Z</time></trkpt><trkpt lat="43.6811365" lon="10.629279"><ele>16.0</ele><time>2026-04-04T13:22:41.878Z</time></trkpt><trkpt lat="43.6812227" lon="10.6291194"><ele>15.666666666666666</ele><time>2026-04-04T13:22:42.88Z</time></trkpt><trkpt lat="43.6813132" lon="10.6289418"><ele>15.333333333333332</ele><time>2026-04-04T13:22:43.877Z</time></trkpt><trkpt lat="43.6814069" lon="10.6287466"><ele>15.0</ele><time>2026-04-04T13:22:44.878Z</time></trkpt><trkpt lat="43.6815359" lon="10.6285143"><ele>16.0</ele><time>2026-04-04T13:22:45.88Z</time></trkpt><trkpt lat="43.6816646" lon="10.6282842"><ele>17.0</ele><time>2026-04-04T13:22:46.878Z</time></trkpt><trkpt lat="43.6817904" lon="10.6280611"><ele>18.0</ele><time>2026-04-04T13:22:47.879Z</time></trkpt><trkpt lat="43.6819126" lon="10.6278321"><ele>24.0</ele><time>2026-04-04T13:22:48.879Z</time></trkpt><trkpt lat="43.6820399" lon="10.627592"><ele>30.0</ele><time>2026-04-04T13:22:49.879Z</time></trkpt><trkpt lat="43.6821805" lon="10.6273337"><ele>36.0</ele><time>2026-04-04T13:22:50.878Z</time></trkpt><trkpt lat="43.6823111" lon="10.6270829"><ele>33.0</ele><time>2026-04-04T13:22:51.878Z</time></trkpt><trkpt lat="43.6824483" lon="10.626848"><ele>30.0</ele><time>2026-04-04T13:22:52.88Z</time></trkpt><trkpt lat="43.6825894" lon="10.6265776"><ele>30.0</ele><time>2026-04-04T13:22:53.878Z</time></trkpt><trkpt lat="43.6827014" lon="10.6263828"><ele>30.0</ele><time>2026-04-04T13:22:54.878Z</time></trkpt><trkpt lat="43.682807" lon="10.6261924"><ele>30.0</ele><time>2026-04-04T13:22:55.877Z</time></trkpt><trkpt lat="43.6829103" lon="10.626002"><ele>30.0</ele><time>2026-04-04T13:22:56.878Z</time></trkpt><trkpt lat="43.6830173" lon="10.6258213"><ele>30.0</ele><time>2026-04-04T13:22:57.878Z</time></trkpt><trkpt lat="43.683123" lon="10.6256717"><ele>30.0</ele><time>2026-04-04T13:22:58.879Z</time></trkpt><trkpt lat="43.6832259" lon="10.6255446"><ele>30.0</ele><time>2026-04-04T13:22:59.876Z</time></trkpt><trkpt lat="43.6833264" lon="10.6254162"><ele>30.0</ele><time>2026-04-04T13:23:00.879Z</time></trkpt><trkpt lat="43.6834271" lon="10.6253422"><ele>30.0</ele><time>2026-04-04T13:23:01.88Z</time></trkpt><trkpt lat="43.6835476" lon="10.6252978"><ele>30.0</ele><time>2026-04-04T13:23:02.879Z</time></trkpt><trkpt lat="43.6836852" lon="10.6252465"><ele>27.25</ele><time>2026-04-04T13:23:03.879Z</time></trkpt><trkpt lat="43.6838247" lon="10.6251986"><ele>24.5</ele><time>2026-04-04T13:23:04.878Z</time></trkpt><trkpt lat="43.6839694" lon="10.625183"><ele>21.75</ele><time>2026-04-04T13:23:05.878Z</time></trkpt><trkpt lat="43.6841228" lon="10.6251852"><ele>19.0</ele><time>2026-04-04T13:23:06.878Z</time></trkpt><trkpt lat="43.6842877" lon="10.6251744"><ele>17.666666666666664</ele><time>2026-04-04T13:23:07.878Z</time></trkpt><trkpt lat="43.6844728" lon="10.6251454"><ele>16.333333333333332</ele><time>2026-04-04T13:23:08.877Z</time></trkpt><trkpt lat="43.6846641" lon="10.6251267"><ele>15.0</ele><time>2026-04-04T13:23:09.878Z</time></trkpt><trkpt lat="43.6848483" lon="10.6250953"><ele>15.0</ele><time>2026-04-04T13:23:10.877Z</time></trkpt><trkpt lat="43.6850323" lon="10.6250685"><ele>15.0</ele><time>2026-04-04T13:23:11.879Z</time></trkpt><trkpt lat="43.6852207" lon="10.6250423"><ele>15.0</ele><time>2026-04-04T13:23:12.875Z</time></trkpt><trkpt lat="43.6854152" lon="10.6250053"><ele>14.333333333333332</ele><time>2026-04-04T13:23:13.877Z</time></trkpt><trkpt lat="43.6856154" lon="10.6249636"><ele>13.666666666666666</ele><time>2026-04-04T13:23:14.878Z</time></trkpt><trkpt lat="43.6858252" lon="10.6249321"><ele>13.0</ele><time>2026-04-04T13:23:15.877Z</time></trkpt><trkpt lat="43.68603" lon="10.6248957"><ele>13.333333333333332</ele><time>2026-04-04T13:23:16.877Z</time></trkpt><trkpt lat="43.6862208" lon="10.6248634"><ele>13.666666666666668</ele><time>2026-04-04T13:23:17.878Z</time></trkpt><trkpt lat="43.6864023" lon="10.624838"><ele>14.0</ele><time>2026-04-04T13:23:18.88Z</time></trkpt><trkpt lat="43.6865787" lon="10.6248181"><ele>14.0</ele><time>2026-04-04T13:23:19.88Z</time></trkpt><trkpt lat="43.6867499" lon="10.6247929"><ele>14.0</ele><time>2026-04-04T13:23:20.878Z</time></trkpt><trkpt lat="43.6869176" lon="10.6247654"><ele>14.0</ele><time>2026-04-04T13:23:21.879Z</time></trkpt><trkpt lat="43.6870742" lon="10.6247382"><ele>13.5</ele><time>2026-04-04T13:23:22.878Z</time></trkpt><trkpt lat="43.6872282" lon="10.6247043"><ele>13.0</ele><time>2026-04-04T13:23:23.878Z</time></trkpt><trkpt lat="43.6873757" lon="10.6246767"><ele>12.5</ele><time>2026-04-04T13:23:24.88Z</time></trkpt><trkpt lat="43.6875142" lon="10.6246546"><ele>12.0</ele><time>2026-04-04T13:23:25.879Z</time></trkpt><trkpt lat="43.6876471" lon="10.6246344"><ele>11.5</ele><time>2026-04-04T13:23:26.88Z</time></trkpt><trkpt lat="43.6877757" lon="10.6246119"><ele>11.0</ele><time>2026-04-04T13:23:27.878Z</time></trkpt><trkpt lat="43.6879147" lon="10.6245882"><ele>10.5</ele><time>2026-04-04T13:23:28.878Z</time></trkpt><trkpt lat="43.6880548" lon="10.624563"><ele>10.0</ele><time>2026-04-04T13:23:29.879Z</time></trkpt><trkpt lat="43.6881927" lon="10.624533"><ele>10.0</ele><time>2026-04-04T13:23:30.878Z</time></trkpt><trkpt lat="43.6883228" lon="10.6245087"><ele>10.0</ele><time>2026-04-04T13:23:31.877Z</time></trkpt><trkpt lat="43.6884495" lon="10.6244855"><ele>10.0</ele><time>2026-04-04T13:23:32.877Z</time></trkpt><trkpt lat="43.688572" lon="10.6244685"><ele>10.0</ele><time>2026-04-04T13:23:33.875Z</time></trkpt><trkpt lat="43.6886872" lon="10.6244479"><ele>10.4</ele><time>2026-04-04T13:23:34.878Z</time></trkpt><trkpt lat="43.688793" lon="10.62442"><ele>10.8</ele><time>2026-04-04T13:23:35.877Z</time></trkpt><trkpt lat="43.6888967" lon="10.6243943"><ele>11.2</ele><time>2026-04-04T13:23:36.886Z</time></trkpt><trkpt lat="43.6890021" lon="10.6243646"><ele>11.6</ele><time>2026-04-04T13:23:37.879Z</time></trkpt><trkpt lat="43.6891088" lon="10.6243361"><ele>12.0</ele><time>2026-04-04T13:23:38.878Z</time></trkpt><trkpt lat="43.6892151" lon="10.6243047"><ele>12.0</ele><time>2026-04-04T13:23:39.883Z</time></trkpt><trkpt lat="43.6893261" lon="10.6242692"><ele>12.0</ele><time>2026-04-04T13:23:40.88Z</time></trkpt><trkpt lat="43.6894417" lon="10.6242277"><ele>12.0</ele><time>2026-04-04T13:23:41.879Z</time></trkpt><trkpt lat="43.6895571" lon="10.6241815"><ele>12.0</ele><time>2026-04-04T13:23:42.878Z</time></trkpt><trkpt lat="43.6896692" lon="10.624145"><ele>12.0</ele><time>2026-04-04T13:23:43.877Z</time></trkpt><trkpt lat="43.6897801" lon="10.6241052"><ele>12.0</ele><time>2026-04-04T13:23:44.879Z</time></trkpt><trkpt lat="43.6898891" lon="10.6240674"><ele>12.0</ele><time>2026-04-04T13:23:45.878Z</time></trkpt><trkpt lat="43.6899825" lon="10.6240296"><ele>12.0</ele><time>2026-04-04T13:23:46.879Z</time></trkpt><trkpt lat="43.6900508" lon="10.624003"><ele>12.0</ele><time>2026-04-04T13:23:47.878Z</time></trkpt><trkpt lat="43.6901595" lon="10.6239632"><ele>12.0</ele><time>2026-04-04T13:23:49.878Z</time></trkpt><trkpt lat="43.6902299" lon="10.6239301"><ele>12.0</ele><time>2026-04-04T13:23:50.877Z</time></trkpt><trkpt lat="43.6903119" lon="10.6238949"><ele>12.0</ele><time>2026-04-04T13:23:51.876Z</time></trkpt><trkpt lat="43.6904414" lon="10.6238525"><ele>12.0</ele><time>2026-04-04T13:23:52.876Z</time></trkpt><trkpt lat="43.6905844" lon="10.6238062"><ele>12.0</ele><time>2026-04-04T13:23:53.876Z</time></trkpt><trkpt lat="43.69073" lon="10.6237628"><ele>12.25</ele><time>2026-04-04T13:23:54.881Z</time></trkpt><trkpt lat="43.6908706" lon="10.6237188"><ele>12.5</ele><time>2026-04-04T13:23:55.876Z</time></trkpt><trkpt lat="43.6910144" lon="10.6236673"><ele>12.75</ele><time>2026-04-04T13:23:56.88Z</time></trkpt><trkpt lat="43.6911478" lon="10.6236229"><ele>13.0</ele><time>2026-04-04T13:23:57.876Z</time></trkpt><trkpt lat="43.6912648" lon="10.6235844"><ele>13.0</ele><time>2026-04-04T13:23:58.875Z</time></trkpt><trkpt lat="43.6913732" lon="10.6235469"><ele>13.0</ele><time>2026-04-04T13:23:59.878Z</time></trkpt><trkpt lat="43.6914794" lon="10.6235091"><ele>13.0</ele><time>2026-04-04T13:24:00.877Z</time></trkpt><trkpt lat="43.6915895" lon="10.623472"><ele>13.0</ele><time>2026-04-04T13:24:01.875Z</time></trkpt><trkpt lat="43.6917075" lon="10.6234309"><ele>13.0</ele><time>2026-04-04T13:24:02.876Z</time></trkpt><trkpt lat="43.6918393" lon="10.6233792"><ele>13.0</ele><time>2026-04-04T13:24:03.876Z</time></trkpt><trkpt lat="43.6919862" lon="10.6233193"><ele>13.0</ele><time>2026-04-04T13:24:04.875Z</time></trkpt><trkpt lat="43.6921381" lon="10.6232625"><ele>13.0</ele><time>2026-04-04T13:24:05.877Z</time></trkpt><trkpt lat="43.6922948" lon="10.6232035"><ele>13.0</ele><time>2026-04-04T13:24:06.875Z</time></trkpt><trkpt lat="43.6924534" lon="10.6231459"><ele>13.0</ele><time>2026-04-04T13:24:07.877Z</time></trkpt><trkpt lat="43.6926095" lon="10.6230944"><ele>13.0</ele><time>2026-04-04T13:24:08.875Z</time></trkpt><trkpt lat="43.6927668" lon="10.6230443"><ele>13.0</ele><time>2026-04-04T13:24:09.882Z</time></trkpt><trkpt lat="43.6929301" lon="10.6229897"><ele>13.0</ele><time>2026-04-04T13:24:10.876Z</time></trkpt><trkpt lat="43.6930971" lon="10.6229304"><ele>13.0</ele><time>2026-04-04T13:24:11.875Z</time></trkpt><trkpt lat="43.6932642" lon="10.6228686"><ele>12.5</ele><time>2026-04-04T13:24:12.876Z</time></trkpt><trkpt lat="43.6934276" lon="10.6228114"><ele>12.0</ele><time>2026-04-04T13:24:13.876Z</time></trkpt><trkpt lat="43.6935707" lon="10.622761"><ele>11.5</ele><time>2026-04-04T13:24:14.875Z</time></trkpt><trkpt lat="43.6936866" lon="10.622719"><ele>11.0</ele><time>2026-04-04T13:24:15.874Z</time></trkpt><trkpt lat="43.6937756" lon="10.6226865"><ele>11.0</ele><time>2026-04-04T13:24:16.876Z</time></trkpt><trkpt lat="43.6938501" lon="10.6226605"><ele>11.0</ele><time>2026-04-04T13:24:17.875Z</time></trkpt><trkpt lat="43.6939138" lon="10.6226369"><ele>11.0</ele><time>2026-04-04T13:24:18.874Z</time></trkpt><trkpt lat="43.6939844" lon="10.6226051"><ele>11.0</ele><time>2026-04-04T13:24:20.877Z</time></trkpt><trkpt lat="43.6941053" lon="10.6225642"><ele>11.0</ele><time>2026-04-04T13:24:22.884Z</time></trkpt><trkpt lat="43.6942279" lon="10.6225278"><ele>11.0</ele><time>2026-04-04T13:24:23.876Z</time></trkpt><trkpt lat="43.6943709" lon="10.6224752"><ele>11.0</ele><time>2026-04-04T13:24:24.876Z</time></trkpt><trkpt lat="43.6945335" lon="10.6224196"><ele>11.0</ele><time>2026-04-04T13:24:25.877Z</time></trkpt><trkpt lat="43.6947103" lon="10.6223542"><ele>11.333333333333332</ele><time>2026-04-04T13:24:26.875Z</time></trkpt><trkpt lat="43.6948984" lon="10.6222933"><ele>11.666666666666666</ele><time>2026-04-04T13:24:27.875Z</time></trkpt><trkpt lat="43.6950909" lon="10.6222268"><ele>12.0</ele><time>2026-04-04T13:24:28.877Z</time></trkpt><trkpt lat="43.6952866" lon="10.6221607"><ele>12.0</ele><time>2026-04-04T13:24:29.878Z</time></trkpt><trkpt lat="43.6954821" lon="10.6220898"><ele>12.0</ele><time>2026-04-04T13:24:30.877Z</time></trkpt><trkpt lat="43.6956785" lon="10.6220256"><ele>12.0</ele><time>2026-04-04T13:24:31.876Z</time></trkpt><trkpt lat="43.6958806" lon="10.6219637"><ele>12.666666666666668</ele><time>2026-04-04T13:24:32.876Z</time></trkpt><trkpt lat="43.6960845" lon="10.6218984"><ele>13.333333333333334</ele><time>2026-04-04T13:24:33.877Z</time></trkpt><trkpt lat="43.6962962" lon="10.6218367"><ele>14.0</ele><time>2026-04-04T13:24:34.877Z</time></trkpt><trkpt lat="43.6965105" lon="10.6217831"><ele>14.0</ele><time>2026-04-04T13:24:35.879Z</time></trkpt><trkpt lat="43.6967273" lon="10.6217277"><ele>14.0</ele><time>2026-04-04T13:24:36.877Z</time></trkpt><trkpt lat="43.6969465" lon="10.6216735"><ele>14.0</ele><time>2026-04-04T13:24:37.877Z</time></trkpt><trkpt lat="43.6971663" lon="10.6216139"><ele>13.5</ele><time>2026-04-04T13:24:38.876Z</time></trkpt><trkpt lat="43.6973892" lon="10.6215476"><ele>13.0</ele><time>2026-04-04T13:24:39.878Z</time></trkpt><trkpt lat="43.6976197" lon="10.6214893"><ele>13.0</ele><time>2026-04-04T13:24:40.876Z</time></trkpt><trkpt lat="43.6978518" lon="10.6214285"><ele>13.0</ele><time>2026-04-04T13:24:41.877Z</time></trkpt><trkpt lat="43.6980847" lon="10.6213651"><ele>13.0</ele><time>2026-04-04T13:24:42.88Z</time></trkpt><trkpt lat="43.6983163" lon="10.6212944"><ele>13.0</ele><time>2026-04-04T13:24:43.878Z</time></trkpt><trkpt lat="43.6985463" lon="10.6212259"><ele>13.0</ele><time>2026-04-04T13:24:44.877Z</time></trkpt><trkpt lat="43.6987712" lon="10.6211536"><ele>13.0</ele><time>2026-04-04T13:24:45.878Z</time></trkpt><trkpt lat="43.6989815" lon="10.6210798"><ele>13.0</ele><time>2026-04-04T13:24:46.878Z</time></trkpt><trkpt lat="43.6991795" lon="10.6210046"><ele>13.0</ele><time>2026-04-04T13:24:47.877Z</time></trkpt><trkpt lat="43.6993674" lon="10.6209271"><ele>13.0</ele><time>2026-04-04T13:24:48.879Z</time></trkpt><trkpt lat="43.6995533" lon="10.6208523"><ele>13.0</ele><time>2026-04-04T13:24:49.878Z</time></trkpt><trkpt lat="43.6997416" lon="10.6207739"><ele>13.0</ele><time>2026-04-04T13:24:50.875Z</time></trkpt><trkpt lat="43.6999193" lon="10.6207005"><ele>13.0</ele><time>2026-04-04T13:24:51.88Z</time></trkpt><trkpt lat="43.7000715" lon="10.6206303"><ele>13.0</ele><time>2026-04-04T13:24:52.878Z</time></trkpt><trkpt lat="43.7002337" lon="10.6205603"><ele>12.333333333333332</ele><time>2026-04-04T13:24:53.878Z</time></trkpt><trkpt lat="43.7004011" lon="10.6204922"><ele>11.666666666666666</ele><time>2026-04-04T13:24:54.879Z</time></trkpt><trkpt lat="43.7005718" lon="10.620421"><ele>11.0</ele><time>2026-04-04T13:24:55.876Z</time></trkpt><trkpt lat="43.7007454" lon="10.6203549"><ele>11.333333333333332</ele><time>2026-04-04T13:24:56.879Z</time></trkpt><trkpt lat="43.7009267" lon="10.6202841"><ele>11.666666666666666</ele><time>2026-04-04T13:24:57.879Z</time></trkpt><trkpt lat="43.7011139" lon="10.6202118"><ele>12.0</ele><time>2026-04-04T13:24:58.878Z</time></trkpt><trkpt lat="43.7013029" lon="10.6201357"><ele>12.0</ele><time>2026-04-04T13:24:59.878Z</time></trkpt><trkpt lat="43.7014977" lon="10.6200546"><ele>12.0</ele><time>2026-04-04T13:25:00.879Z</time></trkpt><trkpt lat="43.7016958" lon="10.6199748"><ele>12.0</ele><time>2026-04-04T13:25:01.88Z</time></trkpt><trkpt lat="43.7018996" lon="10.6198889"><ele>11.0</ele><time>2026-04-04T13:25:02.877Z</time></trkpt><trkpt lat="43.7021101" lon="10.6197969"><ele>10.0</ele><time>2026-04-04T13:25:03.878Z</time></trkpt><trkpt lat="43.702337" lon="10.6197017"><ele>10.0</ele><time>2026-04-04T13:25:04.878Z</time></trkpt><trkpt lat="43.7025531" lon="10.6196081"><ele>10.0</ele><time>2026-04-04T13:25:05.876Z</time></trkpt><trkpt lat="43.7027554" lon="10.6195113"><ele>10.0</ele><time>2026-04-04T13:25:06.878Z</time></trkpt><trkpt lat="43.7029441" lon="10.619425"><ele>11.0</ele><time>2026-04-04T13:25:07.881Z</time></trkpt><trkpt lat="43.703125" lon="10.6193357"><ele>12.0</ele><time>2026-04-04T13:25:08.876Z</time></trkpt><trkpt lat="43.7033047" lon="10.619239"><ele>13.0</ele><time>2026-04-04T13:25:09.877Z</time></trkpt><trkpt lat="43.7034881" lon="10.619142"><ele>12.666666666666666</ele><time>2026-04-04T13:25:10.878Z</time></trkpt><trkpt lat="43.7036734" lon="10.6190424"><ele>12.333333333333332</ele><time>2026-04-04T13:25:11.877Z</time></trkpt><trkpt lat="43.7038578" lon="10.6189377"><ele>12.0</ele><time>2026-04-04T13:25:12.878Z</time></trkpt><trkpt lat="43.704044" lon="10.6188312"><ele>12.0</ele><time>2026-04-04T13:25:13.878Z</time></trkpt><trkpt lat="43.7042274" lon="10.6187253"><ele>12.0</ele><time>2026-04-04T13:25:14.878Z</time></trkpt><trkpt lat="43.7044053" lon="10.6186275"><ele>12.0</ele><time>2026-04-04T13:25:15.878Z</time></trkpt><trkpt lat="43.7045777" lon="10.6185312"><ele>12.0</ele><time>2026-04-04T13:25:16.877Z</time></trkpt><trkpt lat="43.7047372" lon="10.6184412"><ele>12.0</ele><time>2026-04-04T13:25:17.876Z</time></trkpt><trkpt lat="43.7048887" lon="10.6183573"><ele>12.0</ele><time>2026-04-04T13:25:18.882Z</time></trkpt><trkpt lat="43.7050308" lon="10.6182784"><ele>12.0</ele><time>2026-04-04T13:25:19.879Z</time></trkpt><trkpt lat="43.7051667" lon="10.6182044"><ele>12.0</ele><time>2026-04-04T13:25:20.877Z</time></trkpt><trkpt lat="43.7052967" lon="10.6181449"><ele>12.0</ele><time>2026-04-04T13:25:21.878Z</time></trkpt><trkpt lat="43.7054248" lon="10.6181109"><ele>12.0</ele><time>2026-04-04T13:25:22.877Z</time></trkpt><trkpt lat="43.7055494" lon="10.6181029"><ele>11.75</ele><time>2026-04-04T13:25:23.876Z</time></trkpt><trkpt lat="43.705676" lon="10.6181184"><ele>11.5</ele><time>2026-04-04T13:25:24.875Z</time></trkpt><trkpt lat="43.7058075" lon="10.6181638"><ele>11.25</ele><time>2026-04-04T13:25:25.876Z</time></trkpt><trkpt lat="43.7059434" lon="10.6182189"><ele>11.0</ele><time>2026-04-04T13:25:26.876Z</time></trkpt><trkpt lat="43.7060776" lon="10.6182736"><ele>11.25</ele><time>2026-04-04T13:25:27.877Z</time></trkpt><trkpt lat="43.7062191" lon="10.6183262"><ele>11.5</ele><time>2026-04-04T13:25:28.875Z</time></trkpt><trkpt lat="43.7063564" lon="10.6183719"><ele>11.75</ele><time>2026-04-04T13:25:29.878Z</time></trkpt><trkpt lat="43.7064948" lon="10.6184258"><ele>12.0</ele><time>2026-04-04T13:25:30.879Z</time></trkpt><trkpt lat="43.7066143" lon="10.6184692"><ele>12.0</ele><time>2026-04-04T13:25:31.877Z</time></trkpt><trkpt lat="43.706733" lon="10.6185224"><ele>12.0</ele><time>2026-04-04T13:25:32.875Z</time></trkpt><trkpt lat="43.7068514" lon="10.6185737"><ele>12.0</ele><time>2026-04-04T13:25:33.875Z</time></trkpt><trkpt lat="43.706975" lon="10.6186179"><ele>12.0</ele><time>2026-04-04T13:25:34.877Z</time></trkpt><trkpt lat="43.7071095" lon="10.6186678"><ele>12.0</ele><time>2026-04-04T13:25:35.877Z</time></trkpt><trkpt lat="43.7072611" lon="10.6187213"><ele>12.0</ele><time>2026-04-04T13:25:36.875Z</time></trkpt><trkpt lat="43.7074229" lon="10.6187814"><ele>12.0</ele><time>2026-04-04T13:25:37.879Z</time></trkpt><trkpt lat="43.7075973" lon="10.618851"><ele>12.333333333333332</ele><time>2026-04-04T13:25:38.874Z</time></trkpt><trkpt lat="43.7077722" lon="10.6189265"><ele>12.666666666666666</ele><time>2026-04-04T13:25:39.879Z</time></trkpt><trkpt lat="43.7079364" lon="10.6189999"><ele>13.0</ele><time>2026-04-04T13:25:40.875Z</time></trkpt><trkpt lat="43.708094" lon="10.6190669"><ele>13.0</ele><time>2026-04-04T13:25:41.878Z</time></trkpt><trkpt lat="43.7082449" lon="10.6191317"><ele>13.0</ele><time>2026-04-04T13:25:42.878Z</time></trkpt><trkpt lat="43.7083897" lon="10.6191882"><ele>13.0</ele><time>2026-04-04T13:25:43.877Z</time></trkpt><trkpt lat="43.7085254" lon="10.6192421"><ele>13.0</ele><time>2026-04-04T13:25:44.877Z</time></trkpt><trkpt lat="43.7086536" lon="10.6192948"><ele>13.0</ele><time>2026-04-04T13:25:45.875Z</time></trkpt><trkpt lat="43.7087708" lon="10.6193398"><ele>13.0</ele><time>2026-04-04T13:25:46.875Z</time></trkpt><trkpt lat="43.7088753" lon="10.619385"><ele>13.0</ele><time>2026-04-04T13:25:47.876Z</time></trkpt><trkpt lat="43.70897" lon="10.6194237"><ele>12.999999999999998</ele><time>2026-04-04T13:25:48.879Z</time></trkpt><trkpt lat="43.7090617" lon="10.6194592"><ele>13.0</ele><time>2026-04-04T13:25:49.879Z</time></trkpt><trkpt lat="43.7091499" lon="10.6194892"><ele>13.0</ele><time>2026-04-04T13:25:50.877Z</time></trkpt><trkpt lat="43.7092354" lon="10.619517"><ele>13.0</ele><time>2026-04-04T13:25:51.879Z</time></trkpt><trkpt lat="43.7093108" lon="10.6195371"><ele>12.999999999999998</ele><time>2026-04-04T13:25:52.88Z</time></trkpt><trkpt lat="43.7093734" lon="10.6195675"><ele>13.0</ele><time>2026-04-04T13:25:53.877Z</time></trkpt><trkpt lat="43.7094328" lon="10.6196059"><ele>12.833333333333332</ele><time>2026-04-04T13:25:54.877Z</time></trkpt><trkpt lat="43.7095499" lon="10.6196555"><ele>12.666666666666666</ele><time>2026-04-04T13:25:56.877Z</time></trkpt><trkpt lat="43.709618" lon="10.6196538"><ele>12.5</ele><time>2026-04-04T13:25:57.875Z</time></trkpt><trkpt lat="43.7096956" lon="10.6196349"><ele>12.333333333333332</ele><time>2026-04-04T13:25:58.874Z</time></trkpt><trkpt lat="43.7097824" lon="10.619606"><ele>12.166666666666666</ele><time>2026-04-04T13:25:59.877Z</time></trkpt><trkpt lat="43.7098679" lon="10.6195792"><ele>12.0</ele><time>2026-04-04T13:26:00.875Z</time></trkpt><trkpt lat="43.7099885" lon="10.6195676"><ele>12.0</ele><time>2026-04-04T13:26:01.877Z</time></trkpt><trkpt lat="43.7101069" lon="10.6195562"><ele>12.0</ele><time>2026-04-04T13:26:02.876Z</time></trkpt><trkpt lat="43.7102201" lon="10.6195513"><ele>12.0</ele><time>2026-04-04T13:26:03.878Z</time></trkpt><trkpt lat="43.7103262" lon="10.6195415"><ele>12.0</ele><time>2026-04-04T13:26:04.875Z</time></trkpt><trkpt lat="43.71043" lon="10.6195377"><ele>12.0</ele><time>2026-04-04T13:26:05.875Z</time></trkpt><trkpt lat="43.7105294" lon="10.6195325"><ele>12.0</ele><time>2026-04-04T13:26:06.876Z</time></trkpt><trkpt lat="43.71063" lon="10.6195237"><ele>12.0</ele><time>2026-04-04T13:26:07.875Z</time></trkpt><trkpt lat="43.710728" lon="10.6195102"><ele>12.0</ele><time>2026-04-04T13:26:08.875Z</time></trkpt><trkpt lat="43.710833" lon="10.6194967"><ele>12.0</ele><time>2026-04-04T13:26:09.874Z</time></trkpt><trkpt lat="43.7109449" lon="10.6194673"><ele>12.0</ele><time>2026-04-04T13:26:10.875Z</time></trkpt><trkpt lat="43.7110575" lon="10.6194346"><ele>12.25</ele><time>2026-04-04T13:26:11.876Z</time></trkpt><trkpt lat="43.7111706" lon="10.6194179"><ele>12.5</ele><time>2026-04-04T13:26:12.875Z</time></trkpt><trkpt lat="43.7112808" lon="10.619421"><ele>12.75</ele><time>2026-04-04T13:26:13.876Z</time></trkpt><trkpt lat="43.7113952" lon="10.6194124"><ele>13.0</ele><time>2026-04-04T13:26:14.876Z</time></trkpt><trkpt lat="43.7115206" lon="10.6193967"><ele>13.0</ele><time>2026-04-04T13:26:15.875Z</time></trkpt><trkpt lat="43.7116439" lon="10.6193771"><ele>13.0</ele><time>2026-04-04T13:26:16.874Z</time></trkpt><trkpt lat="43.7117611" lon="10.6193627"><ele>13.0</ele><time>2026-04-04T13:26:17.878Z</time></trkpt><trkpt lat="43.7118736" lon="10.6193427"><ele>13.0</ele><time>2026-04-04T13:26:18.875Z</time></trkpt><trkpt lat="43.7119777" lon="10.6193281"><ele>13.0</ele><time>2026-04-04T13:26:19.876Z</time></trkpt><trkpt lat="43.7120772" lon="10.6193124"><ele>13.0</ele><time>2026-04-04T13:26:20.877Z</time></trkpt><trkpt lat="43.7121721" lon="10.6192963"><ele>13.0</ele><time>2026-04-04T13:26:21.877Z</time></trkpt><trkpt lat="43.7122637" lon="10.6192817"><ele>13.0</ele><time>2026-04-04T13:26:22.877Z</time></trkpt><trkpt lat="43.7123842" lon="10.6192615"><ele>13.0</ele><time>2026-04-04T13:26:23.875Z</time></trkpt><trkpt lat="43.7125017" lon="10.6192414"><ele>13.0</ele><time>2026-04-04T13:26:24.876Z</time></trkpt><trkpt lat="43.7126211" lon="10.6192276"><ele>13.0</ele><time>2026-04-04T13:26:25.875Z</time></trkpt><trkpt lat="43.7127377" lon="10.6192059"><ele>13.0</ele><time>2026-04-04T13:26:26.875Z</time></trkpt><trkpt lat="43.7128512" lon="10.6191878"><ele>13.0</ele><time>2026-04-04T13:26:27.875Z</time></trkpt><trkpt lat="43.7129596" lon="10.6191671"><ele>13.25</ele><time>2026-04-04T13:26:28.875Z</time></trkpt><trkpt lat="43.7130703" lon="10.6191497"><ele>13.5</ele><time>2026-04-04T13:26:29.875Z</time></trkpt><trkpt lat="43.7131913" lon="10.6191274"><ele>13.75</ele><time>2026-04-04T13:26:30.877Z</time></trkpt><trkpt lat="43.7133273" lon="10.6191023"><ele>14.0</ele><time>2026-04-04T13:26:31.873Z</time></trkpt><trkpt lat="43.713464" lon="10.6190768"><ele>13.25</ele><time>2026-04-04T13:26:32.875Z</time></trkpt><trkpt lat="43.7136071" lon="10.6190478"><ele>12.5</ele><time>2026-04-04T13:26:33.877Z</time></trkpt><trkpt lat="43.7137526" lon="10.6190352"><ele>11.75</ele><time>2026-04-04T13:26:34.875Z</time></trkpt><trkpt lat="43.7138853" lon="10.6190216"><ele>11.0</ele><time>2026-04-04T13:26:35.874Z</time></trkpt><trkpt lat="43.7140159" lon="10.6190025"><ele>11.0</ele><time>2026-04-04T13:26:36.876Z</time></trkpt><trkpt lat="43.7141392" lon="10.6189778"><ele>11.0</ele><time>2026-04-04T13:26:37.877Z</time></trkpt><trkpt lat="43.7142789" lon="10.6189593"><ele>11.0</ele><time>2026-04-04T13:26:38.874Z</time></trkpt><trkpt lat="43.7144295" lon="10.6189506"><ele>11.0</ele><time>2026-04-04T13:26:39.874Z</time></trkpt><trkpt lat="43.7145794" lon="10.6189358"><ele>11.0</ele><time>2026-04-04T13:26:40.878Z</time></trkpt><trkpt lat="43.71472" lon="10.6189101"><ele>11.0</ele><time>2026-04-04T13:26:41.878Z</time></trkpt><trkpt lat="43.7148634" lon="10.6188886"><ele>11.0</ele><time>2026-04-04T13:26:42.875Z</time></trkpt><trkpt lat="43.7149978" lon="10.6188616"><ele>11.0</ele><time>2026-04-04T13:26:43.876Z</time></trkpt><trkpt lat="43.715129" lon="10.6188403"><ele>11.0</ele><time>2026-04-04T13:26:44.875Z</time></trkpt><trkpt lat="43.7152546" lon="10.6188202"><ele>11.0</ele><time>2026-04-04T13:26:45.875Z</time></trkpt><trkpt lat="43.7153713" lon="10.6188017"><ele>11.0</ele><time>2026-04-04T13:26:46.875Z</time></trkpt><trkpt lat="43.7154864" lon="10.6187813"><ele>11.0</ele><time>2026-04-04T13:26:47.876Z</time></trkpt><trkpt lat="43.715599" lon="10.6187598"><ele>11.0</ele><time>2026-04-04T13:26:48.877Z</time></trkpt><trkpt lat="43.7157081" lon="10.6187378"><ele>11.0</ele><time>2026-04-04T13:26:49.877Z</time></trkpt><trkpt lat="43.7158153" lon="10.6187169"><ele>11.0</ele><time>2026-04-04T13:26:50.877Z</time></trkpt><trkpt lat="43.7159151" lon="10.6186965"><ele>11.0</ele><time>2026-04-04T13:26:51.875Z</time></trkpt><trkpt lat="43.7160054" lon="10.618676"><ele>11.0</ele><time>2026-04-04T13:26:52.875Z</time></trkpt><trkpt lat="43.7160981" lon="10.6186601"><ele>10.600000000000001</ele><time>2026-04-04T13:26:53.877Z</time></trkpt><trkpt lat="43.7161964" lon="10.6186435"><ele>10.200000000000001</ele><time>2026-04-04T13:26:54.876Z</time></trkpt><trkpt lat="43.716294" lon="10.618632"><ele>9.8</ele><time>2026-04-04T13:26:55.875Z</time></trkpt><trkpt lat="43.7163974" lon="10.6186205"><ele>9.4</ele><time>2026-04-04T13:26:56.875Z</time></trkpt><trkpt lat="43.7165018" lon="10.6186086"><ele>9.0</ele><time>2026-04-04T13:26:57.877Z</time></trkpt><trkpt lat="43.7166006" lon="10.6185954"><ele>9.0</ele><time>2026-04-04T13:26:58.876Z</time></trkpt><trkpt lat="43.7166995" lon="10.6185771"><ele>9.0</ele><time>2026-04-04T13:26:59.877Z</time></trkpt><trkpt lat="43.7167985" lon="10.6185615"><ele>9.0</ele><time>2026-04-04T13:27:00.877Z</time></trkpt><trkpt lat="43.716899" lon="10.6185453"><ele>9.0</ele><time>2026-04-04T13:27:01.875Z</time></trkpt><trkpt lat="43.7169974" lon="10.6185321"><ele>9.0</ele><time>2026-04-04T13:27:02.876Z</time></trkpt><trkpt lat="43.7170969" lon="10.6185176"><ele>9.4</ele><time>2026-04-04T13:27:03.878Z</time></trkpt><trkpt lat="43.7171951" lon="10.6185037"><ele>9.8</ele><time>2026-04-04T13:27:04.877Z</time></trkpt><trkpt lat="43.7172943" lon="10.6184859"><ele>10.200000000000001</ele><time>2026-04-04T13:27:05.876Z</time></trkpt><trkpt lat="43.7173981" lon="10.6184703"><ele>10.600000000000001</ele><time>2026-04-04T13:27:06.876Z</time></trkpt><trkpt lat="43.7175014" lon="10.6184545"><ele>11.0</ele><time>2026-04-04T13:27:07.875Z</time></trkpt><trkpt lat="43.7176028" lon="10.6184413"><ele>11.0</ele><time>2026-04-04T13:27:08.88Z</time></trkpt><trkpt lat="43.7176959" lon="10.6184268"><ele>11.0</ele><time>2026-04-04T13:27:09.874Z</time></trkpt><trkpt lat="43.717784" lon="10.6184083"><ele>11.0</ele><time>2026-04-04T13:27:10.876Z</time></trkpt><trkpt lat="43.7178722" lon="10.6183933"><ele>11.0</ele><time>2026-04-04T13:27:11.875Z</time></trkpt><trkpt lat="43.7179507" lon="10.6183734"><ele>11.0</ele><time>2026-04-04T13:27:12.874Z</time></trkpt><trkpt lat="43.7180198" lon="10.6183578"><ele>11.0</ele><time>2026-04-04T13:27:13.874Z</time></trkpt><trkpt lat="43.7181335" lon="10.61833"><ele>11.166666666666666</ele><time>2026-04-04T13:27:15.877Z</time></trkpt><trkpt lat="43.7182346" lon="10.6183009"><ele>11.333333333333332</ele><time>2026-04-04T13:27:17.878Z</time></trkpt><trkpt lat="43.7183478" lon="10.6182779"><ele>11.5</ele><time>2026-04-04T13:27:19.877Z</time></trkpt><trkpt lat="43.7184096" lon="10.6182586"><ele>11.666666666666666</ele><time>2026-04-04T13:27:20.879Z</time></trkpt><trkpt lat="43.7184718" lon="10.6182372"><ele>11.833333333333334</ele><time>2026-04-04T13:27:21.877Z</time></trkpt><trkpt lat="43.7185332" lon="10.6182177"><ele>12.0</ele><time>2026-04-04T13:27:22.876Z</time></trkpt><trkpt lat="43.7186374" lon="10.6181835"><ele>11.4</ele><time>2026-04-04T13:27:24.878Z</time></trkpt><trkpt lat="43.7187194" lon="10.6181637"><ele>10.799999999999999</ele><time>2026-04-04T13:27:44.876Z</time></trkpt><trkpt lat="43.7187871" lon="10.6181283"><ele>10.2</ele><time>2026-04-04T13:27:45.876Z</time></trkpt><trkpt lat="43.7188802" lon="10.6180891"><ele>9.6</ele><time>2026-04-04T13:27:46.875Z</time></trkpt><trkpt lat="43.7189895" lon="10.6180439"><ele>9.0</ele><time>2026-04-04T13:27:47.874Z</time></trkpt><trkpt lat="43.7191065" lon="10.6179903"><ele>9.0</ele><time>2026-04-04T13:27:48.875Z</time></trkpt><trkpt lat="43.7192305" lon="10.6179373"><ele>9.0</ele><time>2026-04-04T13:27:49.877Z</time></trkpt><trkpt lat="43.7193615" lon="10.6178892"><ele>9.0</ele><time>2026-04-04T13:27:50.876Z</time></trkpt><trkpt lat="43.7195028" lon="10.6178332"><ele>9.0</ele><time>2026-04-04T13:27:51.877Z</time></trkpt><trkpt lat="43.7196523" lon="10.6177725"><ele>9.666666666666666</ele><time>2026-04-04T13:27:52.877Z</time></trkpt><trkpt lat="43.7198064" lon="10.6177102"><ele>10.333333333333332</ele><time>2026-04-04T13:27:53.878Z</time></trkpt><trkpt lat="43.7199726" lon="10.6176439"><ele>11.0</ele><time>2026-04-04T13:27:54.878Z</time></trkpt><trkpt lat="43.7201537" lon="10.6175735"><ele>10.666666666666666</ele><time>2026-04-04T13:27:55.876Z</time></trkpt><trkpt lat="43.7203417" lon="10.6174995"><ele>10.333333333333334</ele><time>2026-04-04T13:27:56.877Z</time></trkpt><trkpt lat="43.7205325" lon="10.6174225"><ele>10.0</ele><time>2026-04-04T13:27:57.875Z</time></trkpt><trkpt lat="43.7207139" lon="10.6173474"><ele>10.0</ele><time>2026-04-04T13:27:58.874Z</time></trkpt><trkpt lat="43.7208892" lon="10.617275"><ele>10.0</ele><time>2026-04-04T13:27:59.88Z</time></trkpt><trkpt lat="43.7210678" lon="10.617209"><ele>10.0</ele><time>2026-04-04T13:28:00.876Z</time></trkpt><trkpt lat="43.7212444" lon="10.6171398"><ele>10.0</ele><time>2026-04-04T13:28:01.876Z</time></trkpt><trkpt lat="43.7214084" lon="10.6170725"><ele>10.0</ele><time>2026-04-04T13:28:02.874Z</time></trkpt><trkpt lat="43.7215663" lon="10.6170113"><ele>10.0</ele><time>2026-04-04T13:28:03.875Z</time></trkpt><trkpt lat="43.7217093" lon="10.6169614"><ele>10.0</ele><time>2026-04-04T13:28:04.877Z</time></trkpt><trkpt lat="43.7218458" lon="10.616915"><ele>10.0</ele><time>2026-04-04T13:28:05.874Z</time></trkpt><trkpt lat="43.7219708" lon="10.6168707"><ele>10.0</ele><time>2026-04-04T13:28:06.874Z</time></trkpt><trkpt lat="43.7220851" lon="10.6168257"><ele>10.0</ele><time>2026-04-04T13:28:07.874Z</time></trkpt><trkpt lat="43.7221914" lon="10.6167794"><ele>10.5</ele><time>2026-04-04T13:28:08.875Z</time></trkpt><trkpt lat="43.7222866" lon="10.6167387"><ele>11.0</ele><time>2026-04-04T13:28:09.873Z</time></trkpt><trkpt lat="43.7223772" lon="10.6166976"><ele>11.5</ele><time>2026-04-04T13:28:10.875Z</time></trkpt><trkpt lat="43.7224623" lon="10.6166701"><ele>12.0</ele><time>2026-04-04T13:28:11.874Z</time></trkpt><trkpt lat="43.7225376" lon="10.6166735"><ele>12.499999999999998</ele><time>2026-04-04T13:28:12.873Z</time></trkpt><trkpt lat="43.7225991" lon="10.6167115"><ele>13.0</ele><time>2026-04-04T13:28:13.873Z</time></trkpt><trkpt lat="43.7226488" lon="10.6167803"><ele>13.0</ele><time>2026-04-04T13:28:14.875Z</time></trkpt><trkpt lat="43.7226978" lon="10.6168688"><ele>13.0</ele><time>2026-04-04T13:28:15.876Z</time></trkpt><trkpt lat="43.722757" lon="10.6169681"><ele>13.0</ele><time>2026-04-04T13:28:16.874Z</time></trkpt><trkpt lat="43.7228246" lon="10.6170801"><ele>13.0</ele><time>2026-04-04T13:28:17.874Z</time></trkpt><trkpt lat="43.7228916" lon="10.6171921"><ele>13.0</ele><time>2026-04-04T13:28:18.874Z</time></trkpt><trkpt lat="43.722958" lon="10.6172904"><ele>13.600000000000001</ele><time>2026-04-04T13:28:19.875Z</time></trkpt><trkpt lat="43.7230283" lon="10.6173729"><ele>14.200000000000001</ele><time>2026-04-04T13:28:20.875Z</time></trkpt><trkpt lat="43.7231102" lon="10.617444"><ele>14.8</ele><time>2026-04-04T13:28:21.875Z</time></trkpt><trkpt lat="43.7231942" lon="10.6174967"><ele>15.4</ele><time>2026-04-04T13:28:22.875Z</time></trkpt><trkpt lat="43.7232817" lon="10.6175235"><ele>16.0</ele><time>2026-04-04T13:28:23.874Z</time></trkpt><trkpt lat="43.7233748" lon="10.6175318"><ele>16.0</ele><time>2026-04-04T13:28:24.875Z</time></trkpt><trkpt lat="43.7234614" lon="10.6175331"><ele>16.0</ele><time>2026-04-04T13:28:25.873Z</time></trkpt><trkpt lat="43.7235532" lon="10.6175141"><ele>16.0</ele><time>2026-04-04T13:28:26.876Z</time></trkpt><trkpt lat="43.7236479" lon="10.6174807"><ele>16.0</ele><time>2026-04-04T13:28:27.874Z</time></trkpt><trkpt lat="43.7237433" lon="10.6174464"><ele>16.0</ele><time>2026-04-04T13:28:28.874Z</time></trkpt><trkpt lat="43.7238371" lon="10.6174111"><ele>17.200000000000003</ele><time>2026-04-04T13:28:29.875Z</time></trkpt><trkpt lat="43.7239346" lon="10.6173817"><ele>18.400000000000002</ele><time>2026-04-04T13:28:30.876Z</time></trkpt><trkpt lat="43.72403" lon="10.6173501"><ele>19.6</ele><time>2026-04-04T13:28:31.874Z</time></trkpt><trkpt lat="43.7241286" lon="10.6173125"><ele>20.8</ele><time>2026-04-04T13:28:32.875Z</time></trkpt><trkpt lat="43.7242228" lon="10.6172765"><ele>22.0</ele><time>2026-04-04T13:28:33.874Z</time></trkpt><trkpt lat="43.7243152" lon="10.6172445"><ele>22.0</ele><time>2026-04-04T13:28:34.874Z</time></trkpt><trkpt lat="43.7244003" lon="10.6172105"><ele>22.0</ele><time>2026-04-04T13:28:35.874Z</time></trkpt><trkpt lat="43.724484" lon="10.6171785"><ele>22.0</ele><time>2026-04-04T13:28:36.874Z</time></trkpt><trkpt lat="43.7245708" lon="10.6171493"><ele>22.0</ele><time>2026-04-04T13:28:37.874Z</time></trkpt><trkpt lat="43.7246538" lon="10.6171217"><ele>22.0</ele><time>2026-04-04T13:28:38.875Z</time></trkpt><trkpt lat="43.7247428" lon="10.6170971"><ele>22.0</ele><time>2026-04-04T13:28:39.873Z</time></trkpt><trkpt lat="43.7248355" lon="10.6170796"><ele>22.0</ele><time>2026-04-04T13:28:40.873Z</time></trkpt><trkpt lat="43.7249364" lon="10.6170693"><ele>22.0</ele><time>2026-04-04T13:28:41.875Z</time></trkpt><trkpt lat="43.7250389" lon="10.6170711"><ele>22.0</ele><time>2026-04-04T13:28:42.874Z</time></trkpt><trkpt lat="43.7251444" lon="10.6170874"><ele>22.0</ele><time>2026-04-04T13:28:43.876Z</time></trkpt><trkpt lat="43.7252526" lon="10.617098"><ele>22.0</ele><time>2026-04-04T13:28:44.875Z</time></trkpt><trkpt lat="43.7253605" lon="10.6171054"><ele>21.0</ele><time>2026-04-04T13:28:45.876Z</time></trkpt><trkpt lat="43.7254703" lon="10.6171092"><ele>20.0</ele><time>2026-04-04T13:28:46.873Z</time></trkpt><trkpt lat="43.7255799" lon="10.6171097"><ele>19.0</ele><time>2026-04-04T13:28:47.875Z</time></trkpt><trkpt lat="43.7256879" lon="10.6171078"><ele>18.0</ele><time>2026-04-04T13:28:48.876Z</time></trkpt><trkpt lat="43.7257936" lon="10.617109"><ele>17.0</ele><time>2026-04-04T13:28:49.876Z</time></trkpt><trkpt lat="43.7259007" lon="10.6171108"><ele>17.0</ele><time>2026-04-04T13:28:50.875Z</time></trkpt><trkpt lat="43.7260127" lon="10.6171112"><ele>17.0</ele><time>2026-04-04T13:28:51.875Z</time></trkpt><trkpt lat="43.7261303" lon="10.6171116"><ele>17.0</ele><time>2026-04-04T13:28:52.876Z</time></trkpt><trkpt lat="43.7262433" lon="10.6171145"><ele>17.0</ele><time>2026-04-04T13:28:53.874Z</time></trkpt><trkpt lat="43.7263584" lon="10.6171178"><ele>17.0</ele><time>2026-04-04T13:28:54.875Z</time></trkpt><trkpt lat="43.7264774" lon="10.6171263"><ele>17.0</ele><time>2026-04-04T13:28:55.874Z</time></trkpt><trkpt lat="43.7265774" lon="10.6171303"><ele>17.0</ele><time>2026-04-04T13:28:56.875Z</time></trkpt><trkpt lat="43.7266718" lon="10.6171429"><ele>17.0</ele><time>2026-04-04T13:28:57.876Z</time></trkpt><trkpt lat="43.7267614" lon="10.6171551"><ele>17.0</ele><time>2026-04-04T13:28:58.875Z</time></trkpt><trkpt lat="43.7268435" lon="10.617158"><ele>17.333333333333336</ele><time>2026-04-04T13:28:59.875Z</time></trkpt><trkpt lat="43.7269218" lon="10.6171626"><ele>17.666666666666668</ele><time>2026-04-04T13:29:00.875Z</time></trkpt><trkpt lat="43.7269902" lon="10.61717"><ele>18.0</ele><time>2026-04-04T13:29:01.877Z</time></trkpt><trkpt lat="43.7270613" lon="10.6171759"><ele>18.333333333333332</ele><time>2026-04-04T13:29:02.874Z</time></trkpt><trkpt lat="43.7271422" lon="10.6171826"><ele>18.666666666666664</ele><time>2026-04-04T13:29:03.876Z</time></trkpt><trkpt lat="43.7272445" lon="10.6171823"><ele>19.0</ele><time>2026-04-04T13:29:04.875Z</time></trkpt><trkpt lat="43.7273615" lon="10.6171851"><ele>19.0</ele><time>2026-04-04T13:29:05.875Z</time></trkpt><trkpt lat="43.7274898" lon="10.6171895"><ele>19.0</ele><time>2026-04-04T13:29:06.885Z</time></trkpt><trkpt lat="43.7276229" lon="10.6171979"><ele>19.0</ele><time>2026-04-04T13:29:07.873Z</time></trkpt><trkpt lat="43.7277524" lon="10.617204"><ele>19.0</ele><time>2026-04-04T13:29:08.873Z</time></trkpt><trkpt lat="43.7278787" lon="10.6172104"><ele>19.0</ele><time>2026-04-04T13:29:09.875Z</time></trkpt><trkpt lat="43.7280063" lon="10.6172127"><ele>19.0</ele><time>2026-04-04T13:29:10.876Z</time></trkpt><trkpt lat="43.7281425" lon="10.61721"><ele>19.0</ele><time>2026-04-04T13:29:11.875Z</time></trkpt><trkpt lat="43.7282861" lon="10.6172132"><ele>19.0</ele><time>2026-04-04T13:29:12.875Z</time></trkpt><trkpt lat="43.72843" lon="10.6172213"><ele>18.333333333333332</ele><time>2026-04-04T13:29:13.876Z</time></trkpt><trkpt lat="43.7285824" lon="10.6172227"><ele>17.666666666666668</ele><time>2026-04-04T13:29:14.875Z</time></trkpt><trkpt lat="43.728738" lon="10.6172288"><ele>17.0</ele><time>2026-04-04T13:29:15.875Z</time></trkpt><trkpt lat="43.728891" lon="10.6172313"><ele>17.0</ele><time>2026-04-04T13:29:16.874Z</time></trkpt><trkpt lat="43.729036" lon="10.6172353"><ele>17.0</ele><time>2026-04-04T13:29:17.873Z</time></trkpt><trkpt lat="43.7291855" lon="10.6172434"><ele>17.0</ele><time>2026-04-04T13:29:18.874Z</time></trkpt><trkpt lat="43.729332" lon="10.6172508"><ele>17.0</ele><time>2026-04-04T13:29:19.874Z</time></trkpt><trkpt lat="43.7294801" lon="10.6172538"><ele>16.5</ele><time>2026-04-04T13:29:20.876Z</time></trkpt><trkpt lat="43.729623" lon="10.6172546"><ele>16.0</ele><time>2026-04-04T13:29:21.873Z</time></trkpt><trkpt lat="43.7297633" lon="10.6172597"><ele>15.5</ele><time>2026-04-04T13:29:22.875Z</time></trkpt><trkpt lat="43.7298971" lon="10.617265"><ele>15.0</ele><time>2026-04-04T13:29:23.876Z</time></trkpt><trkpt lat="43.7300266" lon="10.6172722"><ele>15.0</ele><time>2026-04-04T13:29:24.876Z</time></trkpt><trkpt lat="43.7301578" lon="10.6172784"><ele>15.0</ele><time>2026-04-04T13:29:25.875Z</time></trkpt><trkpt lat="43.7302887" lon="10.6173039"><ele>15.0</ele><time>2026-04-04T13:29:26.874Z</time></trkpt><trkpt lat="43.7304251" lon="10.6173458"><ele>15.0</ele><time>2026-04-04T13:29:27.876Z</time></trkpt><trkpt lat="43.7305583" lon="10.617408"><ele>15.0</ele><time>2026-04-04T13:29:28.874Z</time></trkpt><trkpt lat="43.730687" lon="10.6174986"><ele>15.0</ele><time>2026-04-04T13:29:29.874Z</time></trkpt><trkpt lat="43.7308112" lon="10.6176043"><ele>15.0</ele><time>2026-04-04T13:29:30.874Z</time></trkpt><trkpt lat="43.7309362" lon="10.6177142"><ele>15.0</ele><time>2026-04-04T13:29:31.874Z</time></trkpt><trkpt lat="43.7310598" lon="10.6178234"><ele>15.0</ele><time>2026-04-04T13:29:32.874Z</time></trkpt><trkpt lat="43.7311747" lon="10.6179277"><ele>15.0</ele><time>2026-04-04T13:29:33.875Z</time></trkpt><trkpt lat="43.7312835" lon="10.6180287"><ele>15.0</ele><time>2026-04-04T13:29:34.876Z</time></trkpt><trkpt lat="43.7313883" lon="10.6181281"><ele>15.0</ele><time>2026-04-04T13:29:35.875Z</time></trkpt><trkpt lat="43.7314911" lon="10.6182232"><ele>15.0</ele><time>2026-04-04T13:29:36.875Z</time></trkpt><trkpt lat="43.7315991" lon="10.6183187"><ele>15.0</ele><time>2026-04-04T13:29:37.875Z</time></trkpt><trkpt lat="43.7317101" lon="10.6184232"><ele>15.0</ele><time>2026-04-04T13:29:38.876Z</time></trkpt><trkpt lat="43.7318279" lon="10.6185324"><ele>15.0</ele><time>2026-04-04T13:29:39.877Z</time></trkpt><trkpt lat="43.7319536" lon="10.6186403"><ele>15.0</ele><time>2026-04-04T13:29:40.875Z</time></trkpt><trkpt lat="43.7320803" lon="10.6187524"><ele>15.0</ele><time>2026-04-04T13:29:41.875Z</time></trkpt><trkpt lat="43.7322022" lon="10.6188627"><ele>15.0</ele><time>2026-04-04T13:29:42.875Z</time></trkpt><trkpt lat="43.7323228" lon="10.6189603"><ele>15.0</ele><time>2026-04-04T13:29:43.875Z</time></trkpt><trkpt lat="43.7324392" lon="10.6190547"><ele>15.0</ele><time>2026-04-04T13:29:44.875Z</time></trkpt><trkpt lat="43.7325487" lon="10.6191512"><ele>15.0</ele><time>2026-04-04T13:29:45.875Z</time></trkpt><trkpt lat="43.7326558" lon="10.6192476"><ele>15.0</ele><time>2026-04-04T13:29:46.876Z</time></trkpt><trkpt lat="43.7327559" lon="10.6193409"><ele>15.0</ele><time>2026-04-04T13:29:47.872Z</time></trkpt><trkpt lat="43.7328512" lon="10.6194292"><ele>15.25</ele><time>2026-04-04T13:29:48.874Z</time></trkpt><trkpt lat="43.7329406" lon="10.6195079"><ele>15.5</ele><time>2026-04-04T13:29:49.873Z</time></trkpt><trkpt lat="43.7330349" lon="10.6195883"><ele>15.75</ele><time>2026-04-04T13:29:50.874Z</time></trkpt><trkpt lat="43.7331281" lon="10.6196712"><ele>16.0</ele><time>2026-04-04T13:29:51.875Z</time></trkpt><trkpt lat="43.7332366" lon="10.619776"><ele>16.0</ele><time>2026-04-04T13:29:52.876Z</time></trkpt><trkpt lat="43.7333376" lon="10.6198718"><ele>16.0</ele><time>2026-04-04T13:29:53.875Z</time></trkpt><trkpt lat="43.7334449" lon="10.6199653"><ele>16.0</ele><time>2026-04-04T13:29:54.874Z</time></trkpt><trkpt lat="43.7335548" lon="10.6200688"><ele>16.0</ele><time>2026-04-04T13:29:55.877Z</time></trkpt><trkpt lat="43.7336685" lon="10.6201683"><ele>15.75</ele><time>2026-04-04T13:29:56.876Z</time></trkpt><trkpt lat="43.7337836" lon="10.6202732"><ele>15.5</ele><time>2026-04-04T13:29:57.876Z</time></trkpt><trkpt lat="43.7339021" lon="10.6203867"><ele>15.25</ele><time>2026-04-04T13:29:58.876Z</time></trkpt><trkpt lat="43.7340228" lon="10.6204977"><ele>15.0</ele><time>2026-04-04T13:29:59.875Z</time></trkpt><trkpt lat="43.7341457" lon="10.6206076"><ele>15.0</ele><time>2026-04-04T13:30:00.875Z</time></trkpt><trkpt lat="43.7342679" lon="10.6207177"><ele>15.0</ele><time>2026-04-04T13:30:01.876Z</time></trkpt><trkpt lat="43.7343881" lon="10.6208245"><ele>15.0</ele><time>2026-04-04T13:30:02.874Z</time></trkpt><trkpt lat="43.7345091" lon="10.6209336"><ele>15.0</ele><time>2026-04-04T13:30:03.876Z</time></trkpt><trkpt lat="43.7346263" lon="10.6210396"><ele>15.0</ele><time>2026-04-04T13:30:04.876Z</time></trkpt><trkpt lat="43.7347374" lon="10.6211501"><ele>15.0</ele><time>2026-04-04T13:30:05.873Z</time></trkpt><trkpt lat="43.734851" lon="10.6212566"><ele>15.0</ele><time>2026-04-04T13:30:06.875Z</time></trkpt><trkpt lat="43.7349673" lon="10.6213351"><ele>15.0</ele><time>2026-04-04T13:30:07.873Z</time></trkpt><trkpt lat="43.735084" lon="10.6214259"><ele>15.0</ele><time>2026-04-04T13:30:08.873Z</time></trkpt><trkpt lat="43.7352183" lon="10.6214337"><ele>15.0</ele><time>2026-04-04T13:30:09.874Z</time></trkpt><trkpt lat="43.7353491" lon="10.6214366"><ele>15.0</ele><time>2026-04-04T13:30:10.874Z</time></trkpt><trkpt lat="43.7354698" lon="10.6214483"><ele>15.0</ele><time>2026-04-04T13:30:11.874Z</time></trkpt><trkpt lat="43.7355782" lon="10.621462"><ele>16.25</ele><time>2026-04-04T13:30:12.874Z</time></trkpt><trkpt lat="43.7357049" lon="10.6214725"><ele>17.5</ele><time>2026-04-04T13:30:13.876Z</time></trkpt><trkpt lat="43.7358344" lon="10.6214708"><ele>18.75</ele><time>2026-04-04T13:30:14.874Z</time></trkpt><trkpt lat="43.7359653" lon="10.6214794"><ele>20.0</ele><time>2026-04-04T13:30:15.873Z</time></trkpt><trkpt lat="43.7360975" lon="10.6214881"><ele>20.0</ele><time>2026-04-04T13:30:16.876Z</time></trkpt><trkpt lat="43.7362307" lon="10.6214823"><ele>20.0</ele><time>2026-04-04T13:30:17.876Z</time></trkpt><trkpt lat="43.7363735" lon="10.6214789"><ele>20.0</ele><time>2026-04-04T13:30:18.875Z</time></trkpt><trkpt lat="43.7365063" lon="10.6214727"><ele>20.0</ele><time>2026-04-04T13:30:19.873Z</time></trkpt><trkpt lat="43.7366391" lon="10.62146"><ele>20.0</ele><time>2026-04-04T13:30:20.876Z</time></trkpt><trkpt lat="43.7367669" lon="10.6214394"><ele>20.0</ele><time>2026-04-04T13:30:21.873Z</time></trkpt><trkpt lat="43.736902" lon="10.6214298"><ele>20.0</ele><time>2026-04-04T13:30:22.875Z</time></trkpt><trkpt lat="43.7370387" lon="10.6214145"><ele>20.0</ele><time>2026-04-04T13:30:23.875Z</time></trkpt><trkpt lat="43.7371894" lon="10.6214011"><ele>19.0</ele><time>2026-04-04T13:30:24.875Z</time></trkpt><trkpt lat="43.7373458" lon="10.6213861"><ele>18.0</ele><time>2026-04-04T13:30:25.875Z</time></trkpt><trkpt lat="43.7375015" lon="10.6213754"><ele>17.0</ele><time>2026-04-04T13:30:26.875Z</time></trkpt><trkpt lat="43.7376537" lon="10.6213591"><ele>16.5</ele><time>2026-04-04T13:30:27.875Z</time></trkpt><trkpt lat="43.7377986" lon="10.6213465"><ele>16.0</ele><time>2026-04-04T13:30:28.874Z</time></trkpt><trkpt lat="43.7379437" lon="10.6213329"><ele>15.5</ele><time>2026-04-04T13:30:29.877Z</time></trkpt><trkpt lat="43.7380876" lon="10.6213084"><ele>15.0</ele><time>2026-04-04T13:30:30.875Z</time></trkpt><trkpt lat="43.7382299" lon="10.6212843"><ele>15.0</ele><time>2026-04-04T13:30:31.875Z</time></trkpt><trkpt lat="43.7383729" lon="10.6212619"><ele>15.0</ele><time>2026-04-04T13:30:32.874Z</time></trkpt><trkpt lat="43.7385101" lon="10.6212378"><ele>15.0</ele><time>2026-04-04T13:30:33.876Z</time></trkpt><trkpt lat="43.7386442" lon="10.6212048"><ele>15.0</ele><time>2026-04-04T13:30:34.878Z</time></trkpt><trkpt lat="43.7387726" lon="10.6211693"><ele>18.75</ele><time>2026-04-04T13:30:35.877Z</time></trkpt><trkpt lat="43.7388946" lon="10.6211237"><ele>22.5</ele><time>2026-04-04T13:30:36.875Z</time></trkpt><trkpt lat="43.739013" lon="10.6210792"><ele>26.25</ele><time>2026-04-04T13:30:37.873Z</time></trkpt><trkpt lat="43.7391287" lon="10.6210312"><ele>30.0</ele><time>2026-04-04T13:30:38.873Z</time></trkpt><trkpt lat="43.7392449" lon="10.6209783"><ele>30.0</ele><time>2026-04-04T13:30:39.873Z</time></trkpt><trkpt lat="43.7393648" lon="10.620941"><ele>30.0</ele><time>2026-04-04T13:30:40.875Z</time></trkpt><trkpt lat="43.7394917" lon="10.620913"><ele>30.0</ele><time>2026-04-04T13:30:41.873Z</time></trkpt><trkpt lat="43.7396198" lon="10.6209015"><ele>30.0</ele><time>2026-04-04T13:30:42.874Z</time></trkpt><trkpt lat="43.7397452" lon="10.6208872"><ele>29.25</ele><time>2026-04-04T13:30:43.875Z</time></trkpt><trkpt lat="43.7398793" lon="10.6209149"><ele>28.5</ele><time>2026-04-04T13:30:44.875Z</time></trkpt><trkpt lat="43.7400084" lon="10.6209404"><ele>27.75</ele><time>2026-04-04T13:30:45.877Z</time></trkpt><trkpt lat="43.7401367" lon="10.6209689"><ele>27.0</ele><time>2026-04-04T13:30:46.875Z</time></trkpt><trkpt lat="43.7402624" lon="10.6210031"><ele>27.0</ele><time>2026-04-04T13:30:47.876Z</time></trkpt><trkpt lat="43.7403964" lon="10.6210356"><ele>27.0</ele><time>2026-04-04T13:30:48.876Z</time></trkpt><trkpt lat="43.7405295" lon="10.6210623"><ele>27.0</ele><time>2026-04-04T13:30:49.875Z</time></trkpt><trkpt lat="43.7406598" lon="10.6210931"><ele>27.0</ele><time>2026-04-04T13:30:50.874Z</time></trkpt><trkpt lat="43.7407897" lon="10.6211245"><ele>27.0</ele><time>2026-04-04T13:30:51.874Z</time></trkpt><trkpt lat="43.7409215" lon="10.621149"><ele>27.0</ele><time>2026-04-04T13:30:52.874Z</time></trkpt><trkpt lat="43.7410489" lon="10.6211751"><ele>27.0</ele><time>2026-04-04T13:30:53.874Z</time></trkpt><trkpt lat="43.7411761" lon="10.6212013"><ele>27.0</ele><time>2026-04-04T13:30:54.88Z</time></trkpt><trkpt lat="43.7413068" lon="10.62123"><ele>23.5</ele><time>2026-04-04T13:30:55.874Z</time></trkpt><trkpt lat="43.7414377" lon="10.6212583"><ele>20.0</ele><time>2026-04-04T13:30:56.874Z</time></trkpt><trkpt lat="43.7415677" lon="10.6212858"><ele>16.5</ele><time>2026-04-04T13:30:57.873Z</time></trkpt><trkpt lat="43.7417" lon="10.6213118"><ele>13.0</ele><time>2026-04-04T13:30:58.876Z</time></trkpt><trkpt lat="43.7418331" lon="10.6213266"><ele>12.75</ele><time>2026-04-04T13:30:59.875Z</time></trkpt><trkpt lat="43.7419657" lon="10.6212956"><ele>12.5</ele><time>2026-04-04T13:31:00.874Z</time></trkpt><trkpt lat="43.7421005" lon="10.6212654"><ele>12.25</ele><time>2026-04-04T13:31:01.876Z</time></trkpt><trkpt lat="43.7422343" lon="10.621232"><ele>12.0</ele><time>2026-04-04T13:31:02.876Z</time></trkpt><trkpt lat="43.7423537" lon="10.6211873"><ele>12.75</ele><time>2026-04-04T13:31:03.875Z</time></trkpt><trkpt lat="43.742477" lon="10.621147"><ele>13.5</ele><time>2026-04-04T13:31:04.872Z</time></trkpt><trkpt lat="43.7425985" lon="10.6211001"><ele>14.25</ele><time>2026-04-04T13:31:05.874Z</time></trkpt><trkpt lat="43.7427174" lon="10.6210346"><ele>15.0</ele><time>2026-04-04T13:31:06.874Z</time></trkpt><trkpt lat="43.7428389" lon="10.6209524"><ele>15.0</ele><time>2026-04-04T13:31:07.873Z</time></trkpt><trkpt lat="43.7429622" lon="10.620838"><ele>15.0</ele><time>2026-04-04T13:31:08.874Z</time></trkpt><trkpt lat="43.7430834" lon="10.6206968"><ele>15.0</ele><time>2026-04-04T13:31:09.873Z</time></trkpt><trkpt lat="43.7432274" lon="10.6205293"><ele>15.0</ele><time>2026-04-04T13:31:10.874Z</time></trkpt><trkpt lat="43.7433968" lon="10.6203364"><ele>15.0</ele><time>2026-04-04T13:31:11.873Z</time></trkpt><trkpt lat="43.7435847" lon="10.6201345"><ele>15.5</ele><time>2026-04-04T13:31:12.874Z</time></trkpt><trkpt lat="43.7437795" lon="10.6199247"><ele>16.0</ele><time>2026-04-04T13:31:13.874Z</time></trkpt><trkpt lat="43.7439758" lon="10.6196986"><ele>21.0</ele><time>2026-04-04T13:31:14.878Z</time></trkpt><trkpt lat="43.7441724" lon="10.6194779"><ele>26.0</ele><time>2026-04-04T13:31:15.874Z</time></trkpt><trkpt lat="43.7443707" lon="10.6192741"><ele>22.5</ele><time>2026-04-04T13:31:16.875Z</time></trkpt><trkpt lat="43.7445772" lon="10.6191049"><ele>19.0</ele><time>2026-04-04T13:31:17.875Z</time></trkpt><trkpt lat="43.7447988" lon="10.618963"><ele>19.0</ele><time>2026-04-04T13:31:18.878Z</time></trkpt><trkpt lat="43.7450253" lon="10.6188361"><ele>19.0</ele><time>2026-04-04T13:31:19.874Z</time></trkpt><trkpt lat="43.7452574" lon="10.6187068"><ele>20.5</ele><time>2026-04-04T13:31:20.875Z</time></trkpt><trkpt lat="43.7454903" lon="10.6185765"><ele>22.0</ele><time>2026-04-04T13:31:21.874Z</time></trkpt><trkpt lat="43.7457233" lon="10.6184427"><ele>22.0</ele><time>2026-04-04T13:31:22.875Z</time></trkpt><trkpt lat="43.7459542" lon="10.6183049"><ele>22.0</ele><time>2026-04-04T13:31:23.877Z</time></trkpt><trkpt lat="43.7461819" lon="10.6181846"><ele>21.5</ele><time>2026-04-04T13:31:24.875Z</time></trkpt><trkpt lat="43.7464084" lon="10.6180841"><ele>21.0</ele><time>2026-04-04T13:31:25.875Z</time></trkpt><trkpt lat="43.7466352" lon="10.6180124"><ele>21.0</ele><time>2026-04-04T13:31:26.875Z</time></trkpt><trkpt lat="43.746855" lon="10.6179711"><ele>21.0</ele><time>2026-04-04T13:31:27.876Z</time></trkpt><trkpt lat="43.7470711" lon="10.6179523"><ele>21.0</ele><time>2026-04-04T13:31:28.875Z</time></trkpt><trkpt lat="43.7472798" lon="10.617933"><ele>21.0</ele><time>2026-04-04T13:31:29.876Z</time></trkpt><trkpt lat="43.7474891" lon="10.617916"><ele>21.0</ele><time>2026-04-04T13:31:30.875Z</time></trkpt><trkpt lat="43.7476952" lon="10.617909"><ele>21.0</ele><time>2026-04-04T13:31:31.878Z</time></trkpt><trkpt lat="43.747901" lon="10.6179293"><ele>20.0</ele><time>2026-04-04T13:31:32.88Z</time></trkpt><trkpt lat="43.748102" lon="10.6179475"><ele>19.0</ele><time>2026-04-04T13:31:33.875Z</time></trkpt><trkpt lat="43.7483075" lon="10.618"><ele>18.0</ele><time>2026-04-04T13:31:34.876Z</time></trkpt><trkpt lat="43.7485176" lon="10.6180631"><ele>17.333333333333332</ele><time>2026-04-04T13:31:35.875Z</time></trkpt><trkpt lat="43.7487293" lon="10.6181348"><ele>16.666666666666664</ele><time>2026-04-04T13:31:36.874Z</time></trkpt><trkpt lat="43.7489456" lon="10.6182184"><ele>16.0</ele><time>2026-04-04T13:31:37.877Z</time></trkpt><trkpt lat="43.749169" lon="10.6183115"><ele>19.5</ele><time>2026-04-04T13:31:38.875Z</time></trkpt><trkpt lat="43.7493991" lon="10.618406"><ele>23.0</ele><time>2026-04-04T13:31:39.875Z</time></trkpt><trkpt lat="43.7496304" lon="10.6185027"><ele>23.0</ele><time>2026-04-04T13:31:40.874Z</time></trkpt><trkpt lat="43.7498617" lon="10.6185956"><ele>23.0</ele><time>2026-04-04T13:31:41.878Z</time></trkpt><trkpt lat="43.7500874" lon="10.6186872"><ele>18.0</ele><time>2026-04-04T13:31:42.874Z</time></trkpt><trkpt lat="43.7503168" lon="10.6187864"><ele>13.0</ele><time>2026-04-04T13:31:43.876Z</time></trkpt><trkpt lat="43.7505308" lon="10.6188691"><ele>13.0</ele><time>2026-04-04T13:31:44.876Z</time></trkpt><trkpt lat="43.7507414" lon="10.6189532"><ele>13.0</ele><time>2026-04-04T13:31:45.877Z</time></trkpt><trkpt lat="43.7509489" lon="10.6190365"><ele>13.0</ele><time>2026-04-04T13:31:46.876Z</time></trkpt><trkpt lat="43.7511466" lon="10.6191178"><ele>14.666666666666666</ele><time>2026-04-04T13:31:47.875Z</time></trkpt><trkpt lat="43.7513443" lon="10.6191779"><ele>16.333333333333332</ele><time>2026-04-04T13:31:48.875Z</time></trkpt><trkpt lat="43.7515418" lon="10.6191964"><ele>18.0</ele><time>2026-04-04T13:31:49.876Z</time></trkpt><trkpt lat="43.7517429" lon="10.6191898"><ele>17.333333333333332</ele><time>2026-04-04T13:31:50.875Z</time></trkpt><trkpt lat="43.751952" lon="10.6191742"><ele>16.666666666666664</ele><time>2026-04-04T13:31:51.874Z</time></trkpt><trkpt lat="43.7521702" lon="10.6191594"><ele>16.0</ele><time>2026-04-04T13:31:52.875Z</time></trkpt><trkpt lat="43.7523981" lon="10.6191478"><ele>16.0</ele><time>2026-04-04T13:31:53.877Z</time></trkpt><trkpt lat="43.7526345" lon="10.6191294"><ele>16.0</ele><time>2026-04-04T13:31:54.875Z</time></trkpt><trkpt lat="43.7528766" lon="10.6191122"><ele>16.5</ele><time>2026-04-04T13:31:55.88Z</time></trkpt><trkpt lat="43.753122" lon="10.6190987"><ele>17.0</ele><time>2026-04-04T13:31:56.875Z</time></trkpt><trkpt lat="43.7533616" lon="10.6190824"><ele>17.5</ele><time>2026-04-04T13:31:57.875Z</time></trkpt><trkpt lat="43.7535983" lon="10.6190678"><ele>18.0</ele><time>2026-04-04T13:31:58.875Z</time></trkpt><trkpt lat="43.753832" lon="10.6190569"><ele>18.0</ele><time>2026-04-04T13:31:59.874Z</time></trkpt><trkpt lat="43.7540595" lon="10.6190476"><ele>18.0</ele><time>2026-04-04T13:32:00.88Z</time></trkpt><trkpt lat="43.754291" lon="10.6190337"><ele>17.666666666666668</ele><time>2026-04-04T13:32:01.874Z</time></trkpt><trkpt lat="43.7545105" lon="10.6190212"><ele>17.333333333333336</ele><time>2026-04-04T13:32:02.874Z</time></trkpt><trkpt lat="43.7547306" lon="10.6190134"><ele>17.0</ele><time>2026-04-04T13:32:03.874Z</time></trkpt><trkpt lat="43.754947" lon="10.6189835"><ele>17.0</ele><time>2026-04-04T13:32:04.874Z</time></trkpt><trkpt lat="43.7551608" lon="10.6189498"><ele>17.0</ele><time>2026-04-04T13:32:05.873Z</time></trkpt><trkpt lat="43.7553573" lon="10.6189296"><ele>17.0</ele><time>2026-04-04T13:32:06.874Z</time></trkpt><trkpt lat="43.7555609" lon="10.618904"><ele>16.333333333333336</ele><time>2026-04-04T13:32:07.874Z</time></trkpt><trkpt lat="43.7557569" lon="10.6188786"><ele>15.666666666666668</ele><time>2026-04-04T13:32:08.874Z</time></trkpt><trkpt lat="43.7559372" lon="10.6188485"><ele>15.0</ele><time>2026-04-04T13:32:09.876Z</time></trkpt><trkpt lat="43.7561299" lon="10.6187973"><ele>15.333333333333332</ele><time>2026-04-04T13:32:10.875Z</time></trkpt><trkpt lat="43.7563311" lon="10.6187467"><ele>15.666666666666666</ele><time>2026-04-04T13:32:11.876Z</time></trkpt><trkpt lat="43.7565354" lon="10.6186794"><ele>16.0</ele><time>2026-04-04T13:32:12.874Z</time></trkpt><trkpt lat="43.7567397" lon="10.6186089"><ele>15.666666666666666</ele><time>2026-04-04T13:32:13.876Z</time></trkpt><trkpt lat="43.7569465" lon="10.6185491"><ele>15.333333333333332</ele><time>2026-04-04T13:32:14.875Z</time></trkpt><trkpt lat="43.7571524" lon="10.6184906"><ele>15.0</ele><time>2026-04-04T13:32:15.876Z</time></trkpt><trkpt lat="43.7573613" lon="10.6184334"><ele>15.0</ele><time>2026-04-04T13:32:16.876Z</time></trkpt><trkpt lat="43.7575687" lon="10.6183653"><ele>15.0</ele><time>2026-04-04T13:32:17.875Z</time></trkpt><trkpt lat="43.7577748" lon="10.6182746"><ele>15.0</ele><time>2026-04-04T13:32:18.88Z</time></trkpt><trkpt lat="43.7579736" lon="10.6181611"><ele>15.333333333333332</ele><time>2026-04-04T13:32:19.875Z</time></trkpt><trkpt lat="43.7581649" lon="10.6180329"><ele>15.666666666666666</ele><time>2026-04-04T13:32:20.876Z</time></trkpt><trkpt lat="43.7583637" lon="10.6179093"><ele>16.0</ele><time>2026-04-04T13:32:21.878Z</time></trkpt><trkpt lat="43.7585693" lon="10.617814"><ele>19.0</ele><time>2026-04-04T13:32:22.875Z</time></trkpt><trkpt lat="43.7587845" lon="10.6177313"><ele>22.0</ele><time>2026-04-04T13:32:23.874Z</time></trkpt><trkpt lat="43.7590112" lon="10.6176663"><ele>22.0</ele><time>2026-04-04T13:32:24.875Z</time></trkpt><trkpt lat="43.759251" lon="10.6175965"><ele>22.0</ele><time>2026-04-04T13:32:25.872Z</time></trkpt><trkpt lat="43.7594978" lon="10.6175169"><ele>22.0</ele><time>2026-04-04T13:32:26.877Z</time></trkpt><trkpt lat="43.759739" lon="10.6174375"><ele>22.0</ele><time>2026-04-04T13:32:27.875Z</time></trkpt><trkpt lat="43.7599814" lon="10.617361"><ele>21.0</ele><time>2026-04-04T13:32:28.873Z</time></trkpt><trkpt lat="43.7602036" lon="10.6172786"><ele>20.0</ele><time>2026-04-04T13:32:29.873Z</time></trkpt><trkpt lat="43.7604116" lon="10.6172029"><ele>19.0</ele><time>2026-04-04T13:32:30.875Z</time></trkpt><trkpt lat="43.7606154" lon="10.6171334"><ele>19.0</ele><time>2026-04-04T13:32:31.876Z</time></trkpt><trkpt lat="43.760793" lon="10.6170476"><ele>19.0</ele><time>2026-04-04T13:32:32.879Z</time></trkpt><trkpt lat="43.760954" lon="10.6169358"><ele>19.0</ele><time>2026-04-04T13:32:33.874Z</time></trkpt><trkpt lat="43.7611072" lon="10.6167928"><ele>19.666666666666664</ele><time>2026-04-04T13:32:34.876Z</time></trkpt><trkpt lat="43.7612519" lon="10.6166282"><ele>20.333333333333332</ele><time>2026-04-04T13:32:35.876Z</time></trkpt><trkpt lat="43.7613967" lon="10.6164546"><ele>21.0</ele><time>2026-04-04T13:32:36.874Z</time></trkpt><trkpt lat="43.7615513" lon="10.6162782"><ele>21.333333333333332</ele><time>2026-04-04T13:32:37.877Z</time></trkpt><trkpt lat="43.7617159" lon="10.6161095"><ele>21.666666666666664</ele><time>2026-04-04T13:32:38.875Z</time></trkpt><trkpt lat="43.7618874" lon="10.6159464"><ele>22.0</ele><time>2026-04-04T13:32:39.875Z</time></trkpt><trkpt lat="43.7620661" lon="10.6157887"><ele>22.0</ele><time>2026-04-04T13:32:40.874Z</time></trkpt><trkpt lat="43.762249" lon="10.6156314"><ele>22.0</ele><time>2026-04-04T13:32:41.876Z</time></trkpt><trkpt lat="43.7624316" lon="10.6154786"><ele>22.0</ele><time>2026-04-04T13:32:42.875Z</time></trkpt><trkpt lat="43.7626125" lon="10.6153235"><ele>22.666666666666664</ele><time>2026-04-04T13:32:43.876Z</time></trkpt><trkpt lat="43.7627951" lon="10.6151714"><ele>23.333333333333332</ele><time>2026-04-04T13:32:44.877Z</time></trkpt><trkpt lat="43.7629655" lon="10.615033"><ele>24.0</ele><time>2026-04-04T13:32:45.875Z</time></trkpt><trkpt lat="43.7631241" lon="10.6149138"><ele>24.0</ele><time>2026-04-04T13:32:46.875Z</time></trkpt><trkpt lat="43.763283" lon="10.6148067"><ele>24.0</ele><time>2026-04-04T13:32:47.875Z</time></trkpt><trkpt lat="43.7634467" lon="10.6146864"><ele>24.0</ele><time>2026-04-04T13:32:48.874Z</time></trkpt><trkpt lat="43.763556" lon="10.6145446"><ele>26.0</ele><time>2026-04-04T13:32:49.874Z</time></trkpt><trkpt lat="43.7636654" lon="10.614382"><ele>28.0</ele><time>2026-04-04T13:32:50.874Z</time></trkpt><trkpt lat="43.7637761" lon="10.6142195"><ele>30.0</ele><time>2026-04-04T13:32:51.875Z</time></trkpt><trkpt lat="43.7638877" lon="10.614061"><ele>30.0</ele><time>2026-04-04T13:32:52.874Z</time></trkpt><trkpt lat="43.7640617" lon="10.6139825"><ele>30.0</ele><time>2026-04-04T13:32:53.874Z</time></trkpt><trkpt lat="43.7642386" lon="10.6138865"><ele>30.0</ele><time>2026-04-04T13:32:54.875Z</time></trkpt><trkpt lat="43.7644134" lon="10.6137592"><ele>31.0</ele><time>2026-04-04T13:32:55.873Z</time></trkpt><trkpt lat="43.7646012" lon="10.6136205"><ele>32.0</ele><time>2026-04-04T13:32:56.875Z</time></trkpt><trkpt lat="43.7647867" lon="10.613488"><ele>33.0</ele><time>2026-04-04T13:32:57.873Z</time></trkpt><trkpt lat="43.7649959" lon="10.6133491"><ele>33.0</ele><time>2026-04-04T13:32:58.874Z</time></trkpt><trkpt lat="43.7651945" lon="10.6132045"><ele>33.0</ele><time>2026-04-04T13:32:59.874Z</time></trkpt><trkpt lat="43.7653794" lon="10.6130601"><ele>33.0</ele><time>2026-04-04T13:33:00.874Z</time></trkpt><trkpt lat="43.7655558" lon="10.6129131"><ele>34.0</ele><time>2026-04-04T13:33:01.878Z</time></trkpt><trkpt lat="43.7657155" lon="10.6127688"><ele>35.0</ele><time>2026-04-04T13:33:02.875Z</time></trkpt><trkpt lat="43.7658639" lon="10.6126091"><ele>36.0</ele><time>2026-04-04T13:33:03.876Z</time></trkpt><trkpt lat="43.7660158" lon="10.6124338"><ele>35.0</ele><time>2026-04-04T13:33:04.876Z</time></trkpt><trkpt lat="43.7661205" lon="10.6122101"><ele>34.0</ele><time>2026-04-04T13:33:05.875Z</time></trkpt><trkpt lat="43.7662236" lon="10.6119823"><ele>33.0</ele><time>2026-04-04T13:33:06.873Z</time></trkpt><trkpt lat="43.7663192" lon="10.6117386"><ele>33.0</ele><time>2026-04-04T13:33:07.874Z</time></trkpt><trkpt lat="43.7663928" lon="10.6114795"><ele>33.0</ele><time>2026-04-04T13:33:08.875Z</time></trkpt><trkpt lat="43.7664773" lon="10.6112134"><ele>33.0</ele><time>2026-04-04T13:33:09.874Z</time></trkpt><trkpt lat="43.7665218" lon="10.6109281"><ele>34.0</ele><time>2026-04-04T13:33:10.877Z</time></trkpt><trkpt lat="43.766564" lon="10.6106597"><ele>35.0</ele><time>2026-04-04T13:33:11.875Z</time></trkpt><trkpt lat="43.7666212" lon="10.61039"><ele>36.0</ele><time>2026-04-04T13:33:12.875Z</time></trkpt><trkpt lat="43.7666196" lon="10.6101397"><ele>37.0</ele><time>2026-04-04T13:33:13.874Z</time></trkpt><trkpt lat="43.766609" lon="10.6098978"><ele>38.0</ele><time>2026-04-04T13:33:14.873Z</time></trkpt><trkpt lat="43.7665975" lon="10.609684"><ele>39.0</ele><time>2026-04-04T13:33:15.874Z</time></trkpt><trkpt lat="43.7666021" lon="10.6094812"><ele>40.25</ele><time>2026-04-04T13:33:16.873Z</time></trkpt><trkpt lat="43.7666264" lon="10.6092931"><ele>41.5</ele><time>2026-04-04T13:33:17.873Z</time></trkpt><trkpt lat="43.7666662" lon="10.6091153"><ele>42.75</ele><time>2026-04-04T13:33:18.874Z</time></trkpt><trkpt lat="43.7667255" lon="10.6089542"><ele>44.0</ele><time>2026-04-04T13:33:19.874Z</time></trkpt><trkpt lat="43.7668052" lon="10.6088104"><ele>43.5</ele><time>2026-04-04T13:33:20.873Z</time></trkpt><trkpt lat="43.7668917" lon="10.6086726"><ele>43.0</ele><time>2026-04-04T13:33:21.872Z</time></trkpt><trkpt lat="43.7669737" lon="10.6085401"><ele>42.5</ele><time>2026-04-04T13:33:22.874Z</time></trkpt><trkpt lat="43.7670497" lon="10.6084095"><ele>42.0</ele><time>2026-04-04T13:33:23.875Z</time></trkpt><trkpt lat="43.7671307" lon="10.6082763"><ele>42.0</ele><time>2026-04-04T13:33:24.875Z</time></trkpt><trkpt lat="43.7672106" lon="10.6081387"><ele>42.0</ele><time>2026-04-04T13:33:25.875Z</time></trkpt><trkpt lat="43.7672902" lon="10.6080058"><ele>42.0</ele><time>2026-04-04T13:33:26.876Z</time></trkpt><trkpt lat="43.7673828" lon="10.607895"><ele>42.0</ele><time>2026-04-04T13:33:27.875Z</time></trkpt><trkpt lat="43.7674905" lon="10.6078074"><ele>42.0</ele><time>2026-04-04T13:33:28.874Z</time></trkpt><trkpt lat="43.767603" lon="10.6077389"><ele>42.0</ele><time>2026-04-04T13:33:29.876Z</time></trkpt><trkpt lat="43.7677188" lon="10.6076845"><ele>42.0</ele><time>2026-04-04T13:33:30.872Z</time></trkpt><trkpt lat="43.7678371" lon="10.6076389"><ele>42.0</ele><time>2026-04-04T13:33:31.873Z</time></trkpt><trkpt lat="43.7679462" lon="10.607595"><ele>42.166666666666664</ele><time>2026-04-04T13:33:32.873Z</time></trkpt><trkpt lat="43.7680394" lon="10.6075647"><ele>42.333333333333336</ele><time>2026-04-04T13:33:33.871Z</time></trkpt><trkpt lat="43.7681285" lon="10.607531"><ele>42.5</ele><time>2026-04-04T13:33:34.873Z</time></trkpt><trkpt lat="43.7682147" lon="10.6074991"><ele>42.66666666666667</ele><time>2026-04-04T13:33:35.874Z</time></trkpt><trkpt lat="43.7682958" lon="10.6074694"><ele>42.833333333333336</ele><time>2026-04-04T13:33:36.874Z</time></trkpt><trkpt lat="43.7683686" lon="10.6074372"><ele>43.0</ele><time>2026-04-04T13:33:37.875Z</time></trkpt><trkpt lat="43.7684461" lon="10.6074066"><ele>43.0</ele><time>2026-04-04T13:33:38.876Z</time></trkpt><trkpt lat="43.7685245" lon="10.6073671"><ele>43.0</ele><time>2026-04-04T13:33:39.874Z</time></trkpt><trkpt lat="43.7686035" lon="10.6073067"><ele>43.0</ele><time>2026-04-04T13:33:40.873Z</time></trkpt><trkpt lat="43.7686789" lon="10.6072159"><ele>43.0</ele><time>2026-04-04T13:33:41.872Z</time></trkpt><trkpt lat="43.7687475" lon="10.6071005"><ele>43.0</ele><time>2026-04-04T13:33:42.872Z</time></trkpt><trkpt lat="43.7688038" lon="10.6069709"><ele>43.5</ele><time>2026-04-04T13:33:43.874Z</time></trkpt><trkpt lat="43.7688583" lon="10.6068331"><ele>44.0</ele><time>2026-04-04T13:33:44.874Z</time></trkpt><trkpt lat="43.7689124" lon="10.6066868"><ele>44.5</ele><time>2026-04-04T13:33:45.873Z</time></trkpt><trkpt lat="43.7689673" lon="10.6065326"><ele>45.0</ele><time>2026-04-04T13:33:46.872Z</time></trkpt><trkpt lat="43.769022" lon="10.6063812"><ele>45.0</ele><time>2026-04-04T13:33:47.875Z</time></trkpt><trkpt lat="43.7690775" lon="10.6062415"><ele>45.0</ele><time>2026-04-04T13:33:48.874Z</time></trkpt><trkpt lat="43.7691331" lon="10.6061147"><ele>45.0</ele><time>2026-04-04T13:33:49.876Z</time></trkpt><trkpt lat="43.7691967" lon="10.6060013"><ele>45.0</ele><time>2026-04-04T13:33:50.872Z</time></trkpt><trkpt lat="43.7692716" lon="10.6058929"><ele>45.0</ele><time>2026-04-04T13:33:51.874Z</time></trkpt><trkpt lat="43.7693496" lon="10.6057899"><ele>46.0</ele><time>2026-04-04T13:33:52.873Z</time></trkpt><trkpt lat="43.7694289" lon="10.6056884"><ele>47.0</ele><time>2026-04-04T13:33:53.874Z</time></trkpt><trkpt lat="43.7695018" lon="10.6055962"><ele>48.0</ele><time>2026-04-04T13:33:54.872Z</time></trkpt><trkpt lat="43.769573" lon="10.6055048"><ele>49.0</ele><time>2026-04-04T13:33:55.873Z</time></trkpt><trkpt lat="43.7696503" lon="10.6054147"><ele>50.0</ele><time>2026-04-04T13:33:56.874Z</time></trkpt><trkpt lat="43.7697169" lon="10.6053144"><ele>50.0</ele><time>2026-04-04T13:33:57.875Z</time></trkpt><trkpt lat="43.7697661" lon="10.6052367"><ele>50.0</ele><time>2026-04-04T13:33:58.873Z</time></trkpt><trkpt lat="43.7698463" lon="10.605237"><ele>50.0</ele><time>2026-04-04T13:34:00.873Z</time></trkpt><trkpt lat="43.7699359" lon="10.6052927"><ele>50.0</ele><time>2026-04-04T13:34:02.872Z</time></trkpt><trkpt lat="43.7700053" lon="10.6053926"><ele>50.0</ele><time>2026-04-04T13:34:03.875Z</time></trkpt><trkpt lat="43.7700772" lon="10.6054964"><ele>50.00000000000001</ele><time>2026-04-04T13:34:04.876Z</time></trkpt><trkpt lat="43.7701465" lon="10.6055856"><ele>50.0</ele><time>2026-04-04T13:34:05.873Z</time></trkpt><trkpt lat="43.7702058" lon="10.6056701"><ele>50.0</ele><time>2026-04-04T13:34:06.874Z</time></trkpt><trkpt lat="43.7702605" lon="10.6057467"><ele>50.0</ele><time>2026-04-04T13:34:07.873Z</time></trkpt><trkpt lat="43.770311" lon="10.605818"><ele>50.00000000000001</ele><time>2026-04-04T13:34:08.873Z</time></trkpt><trkpt lat="43.7703625" lon="10.6058888"><ele>50.0</ele><time>2026-04-04T13:34:09.873Z</time></trkpt><trkpt lat="43.77041" lon="10.6059548"><ele>49.833333333333336</ele><time>2026-04-04T13:34:10.875Z</time></trkpt><trkpt lat="43.7704778" lon="10.606047"><ele>49.66666666666667</ele><time>2026-04-04T13:34:12.873Z</time></trkpt><trkpt lat="43.7705549" lon="10.6060109"><ele>49.5</ele><time>2026-04-04T13:34:15.872Z</time></trkpt><trkpt lat="43.7706113" lon="10.6059299"><ele>49.33333333333333</ele><time>2026-04-04T13:34:18.872Z</time></trkpt><trkpt lat="43.7706609" lon="10.6059929"><ele>49.166666666666664</ele><time>2026-04-04T13:34:24.872Z</time></trkpt><trkpt lat="43.7706632" lon="10.6060964"><ele>49.0</ele><time>2026-04-04T13:34:28.875Z</time></trkpt><trkpt lat="43.7706234" lon="10.6061813"><ele>49.0</ele><time>2026-04-04T13:34:33.877Z</time></trkpt><trkpt lat="43.7705604" lon="10.606196"><ele>49.0</ele><time>2026-04-04T13:34:35.872Z</time></trkpt><trkpt lat="43.7705096" lon="10.6061381"><ele>49.0</ele><time>2026-04-04T13:34:37.87Z</time></trkpt><trkpt lat="43.7705015" lon="10.6060482"><ele>49.0</ele><time>2026-04-04T13:34:39.875Z</time></trkpt><trkpt lat="43.7705557" lon="10.6059467"><ele>49.0</ele><time>2026-04-04T13:34:41.875Z</time></trkpt><trkpt lat="43.7706149" lon="10.6058963"><ele>49.0</ele><time>2026-04-04T13:34:43.872Z</time></trkpt><trkpt lat="43.7706558" lon="10.6058055"><ele>49.0</ele><time>2026-04-04T13:34:46.873Z</time></trkpt><trkpt lat="43.7706891" lon="10.6057224"><ele>49.0</ele><time>2026-04-04T13:34:48.871Z</time></trkpt><trkpt lat="43.7707077" lon="10.6056285"><ele>49.0</ele><time>2026-04-04T13:34:51.873Z</time></trkpt><trkpt lat="43.7707475" lon="10.6056974"><ele>49.0</ele><time>2026-04-04T13:37:36.872Z</time></trkpt><trkpt lat="43.7706825" lon="10.6056977"><ele>49.0</ele><time>2026-04-04T13:38:20.873Z</time></trkpt></trkseg></trk></gpx>